<?xml version="1.0" encoding="UTF-8" standalone="no" ?>
<gpx xmlns="http://www.topografix.com/GPX/1/1" xmlns:xsi="http://www.w3.org/2001/XMLSchema-instance" xsi:schemaLocation="http://www.topografix.com/GPX/1/1 http://www.topografix.com/GPX/1/1/gpx.xsd" version="1.1" creator="VisuGPX - https://www.visugpx.com">
  <metadata>
    <name>Les Montées Paunatoises 2023</name>
  </metadata>
  <trk>
    <name><![CDATA[Morning Ride]]></name>
    <trkseg>
      <trkpt lat="44.9003" lon="0.85694">
        <ele>131.6</ele>
        <time>1970-01-01T00:00:00.000Z</time>
      </trkpt>
      <trkpt lat="44.90031" lon="0.85694">
        <ele>131.6</ele>
        <time>1970-01-01T00:00:01.000Z</time>
      </trkpt>
      <trkpt lat="44.90031" lon="0.85695">
        <ele>131.6</ele>
        <time>1970-01-01T00:00:02.000Z</time>
      </trkpt>
      <trkpt lat="44.90032" lon="0.85695">
        <ele>131.6</ele>
        <time>1970-01-01T00:00:03.000Z</time>
      </trkpt>
      <trkpt lat="44.90032" lon="0.85696">
        <ele>131.7</ele>
        <time>1970-01-01T00:00:04.000Z</time>
      </trkpt>
      <trkpt lat="44.90033" lon="0.85696">
        <ele>131.7</ele>
        <time>1970-01-01T00:00:05.000Z</time>
      </trkpt>
      <trkpt lat="44.90033" lon="0.85697">
        <ele>131.7</ele>
        <time>1970-01-01T00:00:06.000Z</time>
      </trkpt>
      <trkpt lat="44.90034" lon="0.85698">
        <ele>131.7</ele>
        <time>1970-01-01T00:00:07.000Z</time>
      </trkpt>
      <trkpt lat="44.90034" lon="0.85698">
        <ele>131.7</ele>
        <time>1970-01-01T00:00:08.000Z</time>
      </trkpt>
      <trkpt lat="44.90035" lon="0.85699">
        <ele>131.7</ele>
        <time>1970-01-01T00:00:09.000Z</time>
      </trkpt>
      <trkpt lat="44.90035" lon="0.85699">
        <ele>131.8</ele>
        <time>1970-01-01T00:00:10.000Z</time>
      </trkpt>
      <trkpt lat="44.90035" lon="0.85699">
        <ele>131.8</ele>
        <time>1970-01-01T00:00:11.000Z</time>
      </trkpt>
      <trkpt lat="44.90035" lon="0.85699">
        <ele>131.8</ele>
        <time>1970-01-01T00:00:12.000Z</time>
      </trkpt>
      <trkpt lat="44.90036" lon="0.857">
        <ele>131.8</ele>
        <time>1970-01-01T00:00:13.000Z</time>
      </trkpt>
      <trkpt lat="44.90036" lon="0.857">
        <ele>131.8</ele>
        <time>1970-01-01T00:00:14.000Z</time>
      </trkpt>
      <trkpt lat="44.90036" lon="0.857">
        <ele>131.8</ele>
        <time>1970-01-01T00:00:15.000Z</time>
      </trkpt>
      <trkpt lat="44.90036" lon="0.857">
        <ele>131.8</ele>
        <time>1970-01-01T00:00:16.000Z</time>
      </trkpt>
      <trkpt lat="44.90036" lon="0.857">
        <ele>131.8</ele>
        <time>1970-01-01T00:00:17.000Z</time>
      </trkpt>
      <trkpt lat="44.90036" lon="0.857">
        <ele>131.8</ele>
        <time>1970-01-01T00:00:18.000Z</time>
      </trkpt>
      <trkpt lat="44.90036" lon="0.857">
        <ele>131.8</ele>
        <time>1970-01-01T00:00:19.000Z</time>
      </trkpt>
      <trkpt lat="44.90037" lon="0.857">
        <ele>131.8</ele>
        <time>1970-01-01T00:00:20.000Z</time>
      </trkpt>
      <trkpt lat="44.90037" lon="0.857">
        <ele>131.8</ele>
        <time>1970-01-01T00:00:21.000Z</time>
      </trkpt>
      <trkpt lat="44.90037" lon="0.857">
        <ele>131.8</ele>
        <time>1970-01-01T00:00:22.000Z</time>
      </trkpt>
      <trkpt lat="44.9009" lon="0.85712">
        <ele>133.2</ele>
        <time>1970-01-01T00:00:23.000Z</time>
      </trkpt>
      <trkpt lat="44.90091" lon="0.85712">
        <ele>133.2</ele>
        <time>1970-01-01T00:00:24.000Z</time>
      </trkpt>
      <trkpt lat="44.90093" lon="0.85712">
        <ele>133.2</ele>
        <time>1970-01-01T00:02:05.000Z</time>
      </trkpt>
      <trkpt lat="44.90094" lon="0.85712">
        <ele>133.2</ele>
        <time>1970-01-01T00:02:06.000Z</time>
      </trkpt>
      <trkpt lat="44.90095" lon="0.85712">
        <ele>133.3</ele>
        <time>1970-01-01T00:02:07.000Z</time>
      </trkpt>
      <trkpt lat="44.90097" lon="0.85713">
        <ele>133.3</ele>
        <time>1970-01-01T00:02:08.000Z</time>
      </trkpt>
      <trkpt lat="44.90098" lon="0.85713">
        <ele>133.3</ele>
        <time>1970-01-01T00:02:09.000Z</time>
      </trkpt>
      <trkpt lat="44.901" lon="0.85713">
        <ele>133.3</ele>
        <time>1970-01-01T00:02:10.000Z</time>
      </trkpt>
      <trkpt lat="44.90101" lon="0.85713">
        <ele>133.4</ele>
        <time>1970-01-01T00:02:11.000Z</time>
      </trkpt>
      <trkpt lat="44.90103" lon="0.85713">
        <ele>133.4</ele>
        <time>1970-01-01T00:02:12.000Z</time>
      </trkpt>
      <trkpt lat="44.90106" lon="0.85713">
        <ele>133.5</ele>
        <time>1970-01-01T00:02:13.000Z</time>
      </trkpt>
      <trkpt lat="44.90108" lon="0.85713">
        <ele>133.5</ele>
        <time>1970-01-01T00:02:14.000Z</time>
      </trkpt>
      <trkpt lat="44.90109" lon="0.85712">
        <ele>133.5</ele>
        <time>1970-01-01T00:02:15.000Z</time>
      </trkpt>
      <trkpt lat="44.90111" lon="0.85712">
        <ele>133.6</ele>
        <time>1970-01-01T00:02:16.000Z</time>
      </trkpt>
      <trkpt lat="44.90113" lon="0.85712">
        <ele>133.6</ele>
        <time>1970-01-01T00:02:17.000Z</time>
      </trkpt>
      <trkpt lat="44.90115" lon="0.85712">
        <ele>133.6</ele>
        <time>1970-01-01T00:02:18.000Z</time>
      </trkpt>
      <trkpt lat="44.90117" lon="0.85712">
        <ele>133.7</ele>
        <time>1970-01-01T00:02:19.000Z</time>
      </trkpt>
      <trkpt lat="44.90119" lon="0.85711">
        <ele>133.7</ele>
        <time>1970-01-01T00:02:20.000Z</time>
      </trkpt>
      <trkpt lat="44.90121" lon="0.85711">
        <ele>133.7</ele>
        <time>1970-01-01T00:02:21.000Z</time>
      </trkpt>
      <trkpt lat="44.90124" lon="0.8571">
        <ele>133.8</ele>
        <time>1970-01-01T00:02:22.000Z</time>
      </trkpt>
      <trkpt lat="44.90126" lon="0.85709">
        <ele>133.8</ele>
        <time>1970-01-01T00:02:23.000Z</time>
      </trkpt>
      <trkpt lat="44.90128" lon="0.85708">
        <ele>133.8</ele>
        <time>1970-01-01T00:02:24.000Z</time>
      </trkpt>
      <trkpt lat="44.90131" lon="0.85708">
        <ele>133.9</ele>
        <time>1970-01-01T00:02:25.000Z</time>
      </trkpt>
      <trkpt lat="44.90133" lon="0.85707">
        <ele>133.9</ele>
        <time>1970-01-01T00:02:26.000Z</time>
      </trkpt>
      <trkpt lat="44.90136" lon="0.85706">
        <ele>133.9</ele>
        <time>1970-01-01T00:02:27.000Z</time>
      </trkpt>
      <trkpt lat="44.90139" lon="0.85704">
        <ele>134</ele>
        <time>1970-01-01T00:02:28.000Z</time>
      </trkpt>
      <trkpt lat="44.90142" lon="0.85703">
        <ele>134</ele>
        <time>1970-01-01T00:02:29.000Z</time>
      </trkpt>
      <trkpt lat="44.90145" lon="0.85702">
        <ele>134</ele>
        <time>1970-01-01T00:02:30.000Z</time>
      </trkpt>
      <trkpt lat="44.90148" lon="0.85701">
        <ele>134</ele>
        <time>1970-01-01T00:02:31.000Z</time>
      </trkpt>
      <trkpt lat="44.90151" lon="0.857">
        <ele>134</ele>
        <time>1970-01-01T00:02:32.000Z</time>
      </trkpt>
      <trkpt lat="44.90154" lon="0.85699">
        <ele>134</ele>
        <time>1970-01-01T00:02:33.000Z</time>
      </trkpt>
      <trkpt lat="44.90157" lon="0.85698">
        <ele>133.9</ele>
        <time>1970-01-01T00:02:34.000Z</time>
      </trkpt>
      <trkpt lat="44.9016" lon="0.85697">
        <ele>133.9</ele>
        <time>1970-01-01T00:02:35.000Z</time>
      </trkpt>
      <trkpt lat="44.90164" lon="0.85696">
        <ele>133.9</ele>
        <time>1970-01-01T00:02:36.000Z</time>
      </trkpt>
      <trkpt lat="44.90167" lon="0.85696">
        <ele>133.8</ele>
        <time>1970-01-01T00:02:37.000Z</time>
      </trkpt>
      <trkpt lat="44.9017" lon="0.85695">
        <ele>133.8</ele>
        <time>1970-01-01T00:02:38.000Z</time>
      </trkpt>
      <trkpt lat="44.90173" lon="0.85695">
        <ele>133.7</ele>
        <time>1970-01-01T00:02:39.000Z</time>
      </trkpt>
      <trkpt lat="44.90177" lon="0.85694">
        <ele>133.7</ele>
        <time>1970-01-01T00:02:40.000Z</time>
      </trkpt>
      <trkpt lat="44.9018" lon="0.85694">
        <ele>133.6</ele>
        <time>1970-01-01T00:02:41.000Z</time>
      </trkpt>
      <trkpt lat="44.90184" lon="0.85693">
        <ele>133.5</ele>
        <time>1970-01-01T00:02:42.000Z</time>
      </trkpt>
      <trkpt lat="44.90188" lon="0.85693">
        <ele>133.4</ele>
        <time>1970-01-01T00:02:43.000Z</time>
      </trkpt>
      <trkpt lat="44.90192" lon="0.85692">
        <ele>133.3</ele>
        <time>1970-01-01T00:02:44.000Z</time>
      </trkpt>
      <trkpt lat="44.90196" lon="0.85691">
        <ele>133.2</ele>
        <time>1970-01-01T00:02:45.000Z</time>
      </trkpt>
      <trkpt lat="44.90201" lon="0.85691">
        <ele>133.1</ele>
        <time>1970-01-01T00:02:46.000Z</time>
      </trkpt>
      <trkpt lat="44.90205" lon="0.8569">
        <ele>133.1</ele>
        <time>1970-01-01T00:02:47.000Z</time>
      </trkpt>
      <trkpt lat="44.90209" lon="0.85689">
        <ele>133</ele>
        <time>1970-01-01T00:02:48.000Z</time>
      </trkpt>
      <trkpt lat="44.90212" lon="0.85689">
        <ele>133</ele>
        <time>1970-01-01T00:02:49.000Z</time>
      </trkpt>
      <trkpt lat="44.90215" lon="0.85688">
        <ele>133</ele>
        <time>1970-01-01T00:02:50.000Z</time>
      </trkpt>
      <trkpt lat="44.90217" lon="0.85687">
        <ele>133</ele>
        <time>1970-01-01T00:02:51.000Z</time>
      </trkpt>
      <trkpt lat="44.9022" lon="0.85686">
        <ele>133</ele>
        <time>1970-01-01T00:02:52.000Z</time>
      </trkpt>
      <trkpt lat="44.90222" lon="0.85683">
        <ele>133</ele>
        <time>1970-01-01T00:02:53.000Z</time>
      </trkpt>
      <trkpt lat="44.90223" lon="0.8568">
        <ele>132.8</ele>
        <time>1970-01-01T00:02:54.000Z</time>
      </trkpt>
      <trkpt lat="44.90222" lon="0.85676">
        <ele>132.7</ele>
        <time>1970-01-01T00:02:55.000Z</time>
      </trkpt>
      <trkpt lat="44.90221" lon="0.85672">
        <ele>132.6</ele>
        <time>1970-01-01T00:02:56.000Z</time>
      </trkpt>
      <trkpt lat="44.90219" lon="0.85668">
        <ele>132.5</ele>
        <time>1970-01-01T00:02:57.000Z</time>
      </trkpt>
      <trkpt lat="44.90218" lon="0.85663">
        <ele>132.4</ele>
        <time>1970-01-01T00:02:58.000Z</time>
      </trkpt>
      <trkpt lat="44.90217" lon="0.85658">
        <ele>132.3</ele>
        <time>1970-01-01T00:02:59.000Z</time>
      </trkpt>
      <trkpt lat="44.90217" lon="0.85653">
        <ele>132.2</ele>
        <time>1970-01-01T00:03:00.000Z</time>
      </trkpt>
      <trkpt lat="44.90216" lon="0.85647">
        <ele>132</ele>
        <time>1970-01-01T00:03:01.000Z</time>
      </trkpt>
      <trkpt lat="44.90217" lon="0.85641">
        <ele>131.9</ele>
        <time>1970-01-01T00:03:02.000Z</time>
      </trkpt>
      <trkpt lat="44.90217" lon="0.85635">
        <ele>131.7</ele>
        <time>1970-01-01T00:03:03.000Z</time>
      </trkpt>
      <trkpt lat="44.90217" lon="0.8563">
        <ele>131.5</ele>
        <time>1970-01-01T00:03:04.000Z</time>
      </trkpt>
      <trkpt lat="44.90217" lon="0.85626">
        <ele>131.4</ele>
        <time>1970-01-01T00:03:05.000Z</time>
      </trkpt>
      <trkpt lat="44.90218" lon="0.85621">
        <ele>131.2</ele>
        <time>1970-01-01T00:03:06.000Z</time>
      </trkpt>
      <trkpt lat="44.90219" lon="0.85616">
        <ele>131.1</ele>
        <time>1970-01-01T00:03:07.000Z</time>
      </trkpt>
      <trkpt lat="44.90222" lon="0.85613">
        <ele>131</ele>
        <time>1970-01-01T00:03:08.000Z</time>
      </trkpt>
      <trkpt lat="44.90225" lon="0.8561">
        <ele>130.9</ele>
        <time>1970-01-01T00:03:09.000Z</time>
      </trkpt>
      <trkpt lat="44.90228" lon="0.85608">
        <ele>130.8</ele>
        <time>1970-01-01T00:03:10.000Z</time>
      </trkpt>
      <trkpt lat="44.90232" lon="0.85607">
        <ele>130.7</ele>
        <time>1970-01-01T00:03:11.000Z</time>
      </trkpt>
      <trkpt lat="44.90235" lon="0.85607">
        <ele>130.6</ele>
        <time>1970-01-01T00:03:12.000Z</time>
      </trkpt>
      <trkpt lat="44.90238" lon="0.85607">
        <ele>130.6</ele>
        <time>1970-01-01T00:03:13.000Z</time>
      </trkpt>
      <trkpt lat="44.9024" lon="0.85607">
        <ele>130.6</ele>
        <time>1970-01-01T00:03:14.000Z</time>
      </trkpt>
      <trkpt lat="44.90243" lon="0.85608">
        <ele>130.5</ele>
        <time>1970-01-01T00:03:15.000Z</time>
      </trkpt>
      <trkpt lat="44.90245" lon="0.85608">
        <ele>130.5</ele>
        <time>1970-01-01T00:03:16.000Z</time>
      </trkpt>
      <trkpt lat="44.90248" lon="0.8561">
        <ele>130.5</ele>
        <time>1970-01-01T00:03:17.000Z</time>
      </trkpt>
      <trkpt lat="44.90252" lon="0.85611">
        <ele>130.5</ele>
        <time>1970-01-01T00:03:18.000Z</time>
      </trkpt>
      <trkpt lat="44.90255" lon="0.85612">
        <ele>130.6</ele>
        <time>1970-01-01T00:03:19.000Z</time>
      </trkpt>
      <trkpt lat="44.90258" lon="0.85613">
        <ele>130.6</ele>
        <time>1970-01-01T00:03:20.000Z</time>
      </trkpt>
      <trkpt lat="44.90261" lon="0.85614">
        <ele>130.7</ele>
        <time>1970-01-01T00:03:21.000Z</time>
      </trkpt>
      <trkpt lat="44.90264" lon="0.85615">
        <ele>130.8</ele>
        <time>1970-01-01T00:03:22.000Z</time>
      </trkpt>
      <trkpt lat="44.90268" lon="0.85615">
        <ele>130.9</ele>
        <time>1970-01-01T00:03:23.000Z</time>
      </trkpt>
      <trkpt lat="44.90272" lon="0.85616">
        <ele>131</ele>
        <time>1970-01-01T00:03:24.000Z</time>
      </trkpt>
      <trkpt lat="44.90276" lon="0.85617">
        <ele>131.2</ele>
        <time>1970-01-01T00:03:25.000Z</time>
      </trkpt>
      <trkpt lat="44.9028" lon="0.85618">
        <ele>131.4</ele>
        <time>1970-01-01T00:03:26.000Z</time>
      </trkpt>
      <trkpt lat="44.90283" lon="0.85618">
        <ele>131.5</ele>
        <time>1970-01-01T00:03:27.000Z</time>
      </trkpt>
      <trkpt lat="44.90287" lon="0.85618">
        <ele>131.7</ele>
        <time>1970-01-01T00:03:28.000Z</time>
      </trkpt>
      <trkpt lat="44.90291" lon="0.85619">
        <ele>131.9</ele>
        <time>1970-01-01T00:03:29.000Z</time>
      </trkpt>
      <trkpt lat="44.90295" lon="0.8562">
        <ele>132.1</ele>
        <time>1970-01-01T00:03:30.000Z</time>
      </trkpt>
      <trkpt lat="44.90298" lon="0.85621">
        <ele>132.3</ele>
        <time>1970-01-01T00:03:31.000Z</time>
      </trkpt>
      <trkpt lat="44.90302" lon="0.85622">
        <ele>132.5</ele>
        <time>1970-01-01T00:03:32.000Z</time>
      </trkpt>
      <trkpt lat="44.90305" lon="0.85624">
        <ele>132.7</ele>
        <time>1970-01-01T00:03:33.000Z</time>
      </trkpt>
      <trkpt lat="44.90309" lon="0.85625">
        <ele>132.9</ele>
        <time>1970-01-01T00:03:34.000Z</time>
      </trkpt>
      <trkpt lat="44.90312" lon="0.85627">
        <ele>133.1</ele>
        <time>1970-01-01T00:03:35.000Z</time>
      </trkpt>
      <trkpt lat="44.90316" lon="0.85629">
        <ele>133.2</ele>
        <time>1970-01-01T00:03:36.000Z</time>
      </trkpt>
      <trkpt lat="44.90319" lon="0.85631">
        <ele>133.4</ele>
        <time>1970-01-01T00:03:37.000Z</time>
      </trkpt>
      <trkpt lat="44.90322" lon="0.85632">
        <ele>133.6</ele>
        <time>1970-01-01T00:03:38.000Z</time>
      </trkpt>
      <trkpt lat="44.90325" lon="0.85634">
        <ele>133.7</ele>
        <time>1970-01-01T00:03:39.000Z</time>
      </trkpt>
      <trkpt lat="44.90329" lon="0.85636">
        <ele>133.9</ele>
        <time>1970-01-01T00:03:40.000Z</time>
      </trkpt>
      <trkpt lat="44.90332" lon="0.85637">
        <ele>134</ele>
        <time>1970-01-01T00:03:41.000Z</time>
      </trkpt>
      <trkpt lat="44.90335" lon="0.85639">
        <ele>134.2</ele>
        <time>1970-01-01T00:03:42.000Z</time>
      </trkpt>
      <trkpt lat="44.90339" lon="0.8564">
        <ele>134.3</ele>
        <time>1970-01-01T00:03:43.000Z</time>
      </trkpt>
      <trkpt lat="44.90342" lon="0.85642">
        <ele>134.4</ele>
        <time>1970-01-01T00:03:44.000Z</time>
      </trkpt>
      <trkpt lat="44.90345" lon="0.85643">
        <ele>134.5</ele>
        <time>1970-01-01T00:03:45.000Z</time>
      </trkpt>
      <trkpt lat="44.90348" lon="0.85644">
        <ele>134.6</ele>
        <time>1970-01-01T00:03:46.000Z</time>
      </trkpt>
      <trkpt lat="44.9035" lon="0.85645">
        <ele>134.7</ele>
        <time>1970-01-01T00:03:47.000Z</time>
      </trkpt>
      <trkpt lat="44.90353" lon="0.85647">
        <ele>134.8</ele>
        <time>1970-01-01T00:03:48.000Z</time>
      </trkpt>
      <trkpt lat="44.90356" lon="0.85648">
        <ele>134.9</ele>
        <time>1970-01-01T00:03:49.000Z</time>
      </trkpt>
      <trkpt lat="44.90359" lon="0.85649">
        <ele>135</ele>
        <time>1970-01-01T00:03:50.000Z</time>
      </trkpt>
      <trkpt lat="44.90362" lon="0.8565">
        <ele>135.1</ele>
        <time>1970-01-01T00:03:51.000Z</time>
      </trkpt>
      <trkpt lat="44.90365" lon="0.85651">
        <ele>135.1</ele>
        <time>1970-01-01T00:03:52.000Z</time>
      </trkpt>
      <trkpt lat="44.90368" lon="0.85651">
        <ele>135.2</ele>
        <time>1970-01-01T00:03:53.000Z</time>
      </trkpt>
      <trkpt lat="44.90371" lon="0.85652">
        <ele>135.2</ele>
        <time>1970-01-01T00:03:54.000Z</time>
      </trkpt>
      <trkpt lat="44.90375" lon="0.85652">
        <ele>135.2</ele>
        <time>1970-01-01T00:03:55.000Z</time>
      </trkpt>
      <trkpt lat="44.90378" lon="0.85652">
        <ele>135.2</ele>
        <time>1970-01-01T00:03:56.000Z</time>
      </trkpt>
      <trkpt lat="44.90382" lon="0.85651">
        <ele>135.6</ele>
        <time>1970-01-01T00:03:57.000Z</time>
      </trkpt>
      <trkpt lat="44.90386" lon="0.85649">
        <ele>136</ele>
        <time>1970-01-01T00:03:58.000Z</time>
      </trkpt>
      <trkpt lat="44.90389" lon="0.85647">
        <ele>136.3</ele>
        <time>1970-01-01T00:03:59.000Z</time>
      </trkpt>
      <trkpt lat="44.90392" lon="0.85644">
        <ele>137.1</ele>
        <time>1970-01-01T00:04:00.000Z</time>
      </trkpt>
      <trkpt lat="44.90395" lon="0.85641">
        <ele>137.3</ele>
        <time>1970-01-01T00:04:01.000Z</time>
      </trkpt>
      <trkpt lat="44.90397" lon="0.85638">
        <ele>137.5</ele>
        <time>1970-01-01T00:04:02.000Z</time>
      </trkpt>
      <trkpt lat="44.90399" lon="0.85635">
        <ele>137.6</ele>
        <time>1970-01-01T00:04:03.000Z</time>
      </trkpt>
      <trkpt lat="44.904" lon="0.85631">
        <ele>137.8</ele>
        <time>1970-01-01T00:04:04.000Z</time>
      </trkpt>
      <trkpt lat="44.90402" lon="0.85628">
        <ele>138</ele>
        <time>1970-01-01T00:04:05.000Z</time>
      </trkpt>
      <trkpt lat="44.90404" lon="0.85624">
        <ele>138.1</ele>
        <time>1970-01-01T00:04:06.000Z</time>
      </trkpt>
      <trkpt lat="44.90406" lon="0.8562">
        <ele>138.3</ele>
        <time>1970-01-01T00:04:07.000Z</time>
      </trkpt>
      <trkpt lat="44.90408" lon="0.85617">
        <ele>138.4</ele>
        <time>1970-01-01T00:04:08.000Z</time>
      </trkpt>
      <trkpt lat="44.90409" lon="0.85613">
        <ele>138.6</ele>
        <time>1970-01-01T00:04:09.000Z</time>
      </trkpt>
      <trkpt lat="44.90411" lon="0.8561">
        <ele>138.8</ele>
        <time>1970-01-01T00:04:10.000Z</time>
      </trkpt>
      <trkpt lat="44.90413" lon="0.85606">
        <ele>138.9</ele>
        <time>1970-01-01T00:04:11.000Z</time>
      </trkpt>
      <trkpt lat="44.90414" lon="0.85602">
        <ele>139.1</ele>
        <time>1970-01-01T00:04:12.000Z</time>
      </trkpt>
      <trkpt lat="44.90415" lon="0.85598">
        <ele>139.3</ele>
        <time>1970-01-01T00:04:13.000Z</time>
      </trkpt>
      <trkpt lat="44.90417" lon="0.85594">
        <ele>139.5</ele>
        <time>1970-01-01T00:04:14.000Z</time>
      </trkpt>
      <trkpt lat="44.90419" lon="0.8559">
        <ele>139.7</ele>
        <time>1970-01-01T00:04:15.000Z</time>
      </trkpt>
      <trkpt lat="44.9042" lon="0.85586">
        <ele>139.9</ele>
        <time>1970-01-01T00:04:16.000Z</time>
      </trkpt>
      <trkpt lat="44.90422" lon="0.85582">
        <ele>140.1</ele>
        <time>1970-01-01T00:04:17.000Z</time>
      </trkpt>
      <trkpt lat="44.90424" lon="0.85578">
        <ele>140.3</ele>
        <time>1970-01-01T00:04:18.000Z</time>
      </trkpt>
      <trkpt lat="44.90426" lon="0.85574">
        <ele>140.5</ele>
        <time>1970-01-01T00:04:19.000Z</time>
      </trkpt>
      <trkpt lat="44.90428" lon="0.8557">
        <ele>140.8</ele>
        <time>1970-01-01T00:04:20.000Z</time>
      </trkpt>
      <trkpt lat="44.90429" lon="0.85566">
        <ele>141</ele>
        <time>1970-01-01T00:04:21.000Z</time>
      </trkpt>
      <trkpt lat="44.90431" lon="0.85562">
        <ele>141.3</ele>
        <time>1970-01-01T00:04:22.000Z</time>
      </trkpt>
      <trkpt lat="44.90434" lon="0.85558">
        <ele>141.5</ele>
        <time>1970-01-01T00:04:23.000Z</time>
      </trkpt>
      <trkpt lat="44.90436" lon="0.85555">
        <ele>141.8</ele>
        <time>1970-01-01T00:04:24.000Z</time>
      </trkpt>
      <trkpt lat="44.90439" lon="0.85551">
        <ele>142.1</ele>
        <time>1970-01-01T00:04:25.000Z</time>
      </trkpt>
      <trkpt lat="44.90441" lon="0.85549">
        <ele>142.3</ele>
        <time>1970-01-01T00:04:26.000Z</time>
      </trkpt>
      <trkpt lat="44.90444" lon="0.85546">
        <ele>142.6</ele>
        <time>1970-01-01T00:04:27.000Z</time>
      </trkpt>
      <trkpt lat="44.90447" lon="0.85544">
        <ele>142.9</ele>
        <time>1970-01-01T00:04:28.000Z</time>
      </trkpt>
      <trkpt lat="44.90449" lon="0.85542">
        <ele>143.2</ele>
        <time>1970-01-01T00:04:29.000Z</time>
      </trkpt>
      <trkpt lat="44.90452" lon="0.85541">
        <ele>143.5</ele>
        <time>1970-01-01T00:04:30.000Z</time>
      </trkpt>
      <trkpt lat="44.90455" lon="0.85539">
        <ele>143.7</ele>
        <time>1970-01-01T00:04:31.000Z</time>
      </trkpt>
      <trkpt lat="44.90457" lon="0.85537">
        <ele>144</ele>
        <time>1970-01-01T00:04:32.000Z</time>
      </trkpt>
      <trkpt lat="44.9046" lon="0.85536">
        <ele>144.3</ele>
        <time>1970-01-01T00:04:33.000Z</time>
      </trkpt>
      <trkpt lat="44.90463" lon="0.85534">
        <ele>144.6</ele>
        <time>1970-01-01T00:04:34.000Z</time>
      </trkpt>
      <trkpt lat="44.90466" lon="0.85532">
        <ele>144.9</ele>
        <time>1970-01-01T00:04:35.000Z</time>
      </trkpt>
      <trkpt lat="44.90468" lon="0.85531">
        <ele>145.2</ele>
        <time>1970-01-01T00:04:36.000Z</time>
      </trkpt>
      <trkpt lat="44.90471" lon="0.85529">
        <ele>145.6</ele>
        <time>1970-01-01T00:04:37.000Z</time>
      </trkpt>
      <trkpt lat="44.90474" lon="0.85528">
        <ele>145.9</ele>
        <time>1970-01-01T00:04:38.000Z</time>
      </trkpt>
      <trkpt lat="44.90477" lon="0.85526">
        <ele>146.1</ele>
        <time>1970-01-01T00:04:39.000Z</time>
      </trkpt>
      <trkpt lat="44.9048" lon="0.85525">
        <ele>146.4</ele>
        <time>1970-01-01T00:04:40.000Z</time>
      </trkpt>
      <trkpt lat="44.90483" lon="0.85523">
        <ele>146.7</ele>
        <time>1970-01-01T00:04:41.000Z</time>
      </trkpt>
      <trkpt lat="44.90485" lon="0.85521">
        <ele>147</ele>
        <time>1970-01-01T00:04:42.000Z</time>
      </trkpt>
      <trkpt lat="44.90488" lon="0.85519">
        <ele>147.3</ele>
        <time>1970-01-01T00:04:43.000Z</time>
      </trkpt>
      <trkpt lat="44.90491" lon="0.85518">
        <ele>147.5</ele>
        <time>1970-01-01T00:04:44.000Z</time>
      </trkpt>
      <trkpt lat="44.90494" lon="0.85516">
        <ele>147.8</ele>
        <time>1970-01-01T00:04:45.000Z</time>
      </trkpt>
      <trkpt lat="44.90497" lon="0.85514">
        <ele>148.1</ele>
        <time>1970-01-01T00:04:46.000Z</time>
      </trkpt>
      <trkpt lat="44.905" lon="0.85513">
        <ele>148.3</ele>
        <time>1970-01-01T00:04:47.000Z</time>
      </trkpt>
      <trkpt lat="44.90503" lon="0.85511">
        <ele>148.6</ele>
        <time>1970-01-01T00:04:48.000Z</time>
      </trkpt>
      <trkpt lat="44.90505" lon="0.8551">
        <ele>148.8</ele>
        <time>1970-01-01T00:04:49.000Z</time>
      </trkpt>
      <trkpt lat="44.90508" lon="0.85509">
        <ele>149.1</ele>
        <time>1970-01-01T00:04:50.000Z</time>
      </trkpt>
      <trkpt lat="44.90511" lon="0.85508">
        <ele>149.3</ele>
        <time>1970-01-01T00:04:51.000Z</time>
      </trkpt>
      <trkpt lat="44.90513" lon="0.85508">
        <ele>149.5</ele>
        <time>1970-01-01T00:04:52.000Z</time>
      </trkpt>
      <trkpt lat="44.90515" lon="0.85507">
        <ele>149.7</ele>
        <time>1970-01-01T00:04:53.000Z</time>
      </trkpt>
      <trkpt lat="44.90517" lon="0.85506">
        <ele>149.8</ele>
        <time>1970-01-01T00:04:54.000Z</time>
      </trkpt>
      <trkpt lat="44.90519" lon="0.85505">
        <ele>150</ele>
        <time>1970-01-01T00:04:55.000Z</time>
      </trkpt>
      <trkpt lat="44.90521" lon="0.85503">
        <ele>150.2</ele>
        <time>1970-01-01T00:04:56.000Z</time>
      </trkpt>
      <trkpt lat="44.90524" lon="0.85502">
        <ele>150.5</ele>
        <time>1970-01-01T00:04:57.000Z</time>
      </trkpt>
      <trkpt lat="44.90526" lon="0.85501">
        <ele>150.7</ele>
        <time>1970-01-01T00:04:58.000Z</time>
      </trkpt>
      <trkpt lat="44.90529" lon="0.855">
        <ele>151</ele>
        <time>1970-01-01T00:04:59.000Z</time>
      </trkpt>
      <trkpt lat="44.90531" lon="0.85498">
        <ele>151.2</ele>
        <time>1970-01-01T00:05:00.000Z</time>
      </trkpt>
      <trkpt lat="44.90533" lon="0.85497">
        <ele>151.4</ele>
        <time>1970-01-01T00:05:01.000Z</time>
      </trkpt>
      <trkpt lat="44.90535" lon="0.85496">
        <ele>151.6</ele>
        <time>1970-01-01T00:05:02.000Z</time>
      </trkpt>
      <trkpt lat="44.90537" lon="0.85495">
        <ele>151.8</ele>
        <time>1970-01-01T00:05:03.000Z</time>
      </trkpt>
      <trkpt lat="44.90539" lon="0.85494">
        <ele>151.9</ele>
        <time>1970-01-01T00:05:04.000Z</time>
      </trkpt>
      <trkpt lat="44.90541" lon="0.85493">
        <ele>152.1</ele>
        <time>1970-01-01T00:05:05.000Z</time>
      </trkpt>
      <trkpt lat="44.90543" lon="0.8549">
        <ele>152.2</ele>
        <time>1970-01-01T00:05:06.000Z</time>
      </trkpt>
      <trkpt lat="44.90544" lon="0.85487">
        <ele>152.4</ele>
        <time>1970-01-01T00:05:07.000Z</time>
      </trkpt>
      <trkpt lat="44.90546" lon="0.85482">
        <ele>152.6</ele>
        <time>1970-01-01T00:05:08.000Z</time>
      </trkpt>
      <trkpt lat="44.90546" lon="0.85478">
        <ele>152.6</ele>
        <time>1970-01-01T00:05:09.000Z</time>
      </trkpt>
      <trkpt lat="44.90547" lon="0.85474">
        <ele>152.7</ele>
        <time>1970-01-01T00:05:10.000Z</time>
      </trkpt>
      <trkpt lat="44.90547" lon="0.8547">
        <ele>152.7</ele>
        <time>1970-01-01T00:05:11.000Z</time>
      </trkpt>
      <trkpt lat="44.90548" lon="0.85466">
        <ele>152.6</ele>
        <time>1970-01-01T00:05:12.000Z</time>
      </trkpt>
      <trkpt lat="44.90548" lon="0.85462">
        <ele>152.6</ele>
        <time>1970-01-01T00:05:13.000Z</time>
      </trkpt>
      <trkpt lat="44.90547" lon="0.85458">
        <ele>152.5</ele>
        <time>1970-01-01T00:05:14.000Z</time>
      </trkpt>
      <trkpt lat="44.90547" lon="0.85454">
        <ele>152.4</ele>
        <time>1970-01-01T00:05:15.000Z</time>
      </trkpt>
      <trkpt lat="44.90546" lon="0.85449">
        <ele>152.3</ele>
        <time>1970-01-01T00:05:16.000Z</time>
      </trkpt>
      <trkpt lat="44.90545" lon="0.85444">
        <ele>152.2</ele>
        <time>1970-01-01T00:05:17.000Z</time>
      </trkpt>
      <trkpt lat="44.90544" lon="0.85439">
        <ele>152.1</ele>
        <time>1970-01-01T00:05:18.000Z</time>
      </trkpt>
      <trkpt lat="44.90543" lon="0.85434">
        <ele>152</ele>
        <time>1970-01-01T00:05:19.000Z</time>
      </trkpt>
      <trkpt lat="44.90542" lon="0.85429">
        <ele>151.9</ele>
        <time>1970-01-01T00:05:20.000Z</time>
      </trkpt>
      <trkpt lat="44.90541" lon="0.85424">
        <ele>151.9</ele>
        <time>1970-01-01T00:05:21.000Z</time>
      </trkpt>
      <trkpt lat="44.90539" lon="0.85419">
        <ele>151.8</ele>
        <time>1970-01-01T00:05:22.000Z</time>
      </trkpt>
      <trkpt lat="44.90538" lon="0.85414">
        <ele>151.8</ele>
        <time>1970-01-01T00:05:23.000Z</time>
      </trkpt>
      <trkpt lat="44.90537" lon="0.85408">
        <ele>151.8</ele>
        <time>1970-01-01T00:05:24.000Z</time>
      </trkpt>
      <trkpt lat="44.90536" lon="0.85403">
        <ele>151.9</ele>
        <time>1970-01-01T00:05:25.000Z</time>
      </trkpt>
      <trkpt lat="44.90534" lon="0.85398">
        <ele>151.9</ele>
        <time>1970-01-01T00:05:26.000Z</time>
      </trkpt>
      <trkpt lat="44.90532" lon="0.85393">
        <ele>152</ele>
        <time>1970-01-01T00:05:27.000Z</time>
      </trkpt>
      <trkpt lat="44.90531" lon="0.85389">
        <ele>152.2</ele>
        <time>1970-01-01T00:05:28.000Z</time>
      </trkpt>
      <trkpt lat="44.90529" lon="0.85384">
        <ele>152.3</ele>
        <time>1970-01-01T00:05:29.000Z</time>
      </trkpt>
      <trkpt lat="44.90527" lon="0.8538">
        <ele>152.5</ele>
        <time>1970-01-01T00:05:30.000Z</time>
      </trkpt>
      <trkpt lat="44.90526" lon="0.85376">
        <ele>152.7</ele>
        <time>1970-01-01T00:05:31.000Z</time>
      </trkpt>
      <trkpt lat="44.90524" lon="0.85372">
        <ele>152.8</ele>
        <time>1970-01-01T00:05:32.000Z</time>
      </trkpt>
      <trkpt lat="44.90523" lon="0.85368">
        <ele>153</ele>
        <time>1970-01-01T00:05:33.000Z</time>
      </trkpt>
      <trkpt lat="44.90521" lon="0.85364">
        <ele>153.3</ele>
        <time>1970-01-01T00:05:34.000Z</time>
      </trkpt>
      <trkpt lat="44.9052" lon="0.85361">
        <ele>153.5</ele>
        <time>1970-01-01T00:05:35.000Z</time>
      </trkpt>
      <trkpt lat="44.90518" lon="0.85357">
        <ele>153.7</ele>
        <time>1970-01-01T00:05:36.000Z</time>
      </trkpt>
      <trkpt lat="44.90516" lon="0.85353">
        <ele>153.9</ele>
        <time>1970-01-01T00:05:37.000Z</time>
      </trkpt>
      <trkpt lat="44.90514" lon="0.85349">
        <ele>154.1</ele>
        <time>1970-01-01T00:05:38.000Z</time>
      </trkpt>
      <trkpt lat="44.90513" lon="0.85345">
        <ele>154.3</ele>
        <time>1970-01-01T00:05:39.000Z</time>
      </trkpt>
      <trkpt lat="44.90511" lon="0.85341">
        <ele>154.5</ele>
        <time>1970-01-01T00:05:40.000Z</time>
      </trkpt>
      <trkpt lat="44.9051" lon="0.85338">
        <ele>154.6</ele>
        <time>1970-01-01T00:05:41.000Z</time>
      </trkpt>
      <trkpt lat="44.90509" lon="0.85334">
        <ele>154.7</ele>
        <time>1970-01-01T00:05:42.000Z</time>
      </trkpt>
      <trkpt lat="44.90508" lon="0.8533">
        <ele>154.7</ele>
        <time>1970-01-01T00:05:43.000Z</time>
      </trkpt>
      <trkpt lat="44.90507" lon="0.85325">
        <ele>154.8</ele>
        <time>1970-01-01T00:05:44.000Z</time>
      </trkpt>
      <trkpt lat="44.90506" lon="0.8532">
        <ele>154.8</ele>
        <time>1970-01-01T00:05:45.000Z</time>
      </trkpt>
      <trkpt lat="44.90504" lon="0.85315">
        <ele>154.7</ele>
        <time>1970-01-01T00:05:46.000Z</time>
      </trkpt>
      <trkpt lat="44.90503" lon="0.85309">
        <ele>154.6</ele>
        <time>1970-01-01T00:05:47.000Z</time>
      </trkpt>
      <trkpt lat="44.90501" lon="0.85303">
        <ele>154.4</ele>
        <time>1970-01-01T00:05:48.000Z</time>
      </trkpt>
      <trkpt lat="44.905" lon="0.85297">
        <ele>154.2</ele>
        <time>1970-01-01T00:05:49.000Z</time>
      </trkpt>
      <trkpt lat="44.905" lon="0.85291">
        <ele>153.9</ele>
        <time>1970-01-01T00:05:50.000Z</time>
      </trkpt>
      <trkpt lat="44.90499" lon="0.85285">
        <ele>153.7</ele>
        <time>1970-01-01T00:05:51.000Z</time>
      </trkpt>
      <trkpt lat="44.90498" lon="0.85278">
        <ele>153.3</ele>
        <time>1970-01-01T00:05:52.000Z</time>
      </trkpt>
      <trkpt lat="44.90498" lon="0.85271">
        <ele>153</ele>
        <time>1970-01-01T00:05:53.000Z</time>
      </trkpt>
      <trkpt lat="44.90498" lon="0.85264">
        <ele>152.6</ele>
        <time>1970-01-01T00:05:54.000Z</time>
      </trkpt>
      <trkpt lat="44.90498" lon="0.85257">
        <ele>152.2</ele>
        <time>1970-01-01T00:05:55.000Z</time>
      </trkpt>
      <trkpt lat="44.90497" lon="0.8525">
        <ele>151.8</ele>
        <time>1970-01-01T00:05:56.000Z</time>
      </trkpt>
      <trkpt lat="44.90498" lon="0.85243">
        <ele>151.5</ele>
        <time>1970-01-01T00:05:57.000Z</time>
      </trkpt>
      <trkpt lat="44.90498" lon="0.85236">
        <ele>151.1</ele>
        <time>1970-01-01T00:05:58.000Z</time>
      </trkpt>
      <trkpt lat="44.90498" lon="0.85229">
        <ele>150.7</ele>
        <time>1970-01-01T00:05:59.000Z</time>
      </trkpt>
      <trkpt lat="44.90499" lon="0.85223">
        <ele>150.3</ele>
        <time>1970-01-01T00:06:00.000Z</time>
      </trkpt>
      <trkpt lat="44.905" lon="0.85216">
        <ele>149.9</ele>
        <time>1970-01-01T00:06:01.000Z</time>
      </trkpt>
      <trkpt lat="44.905" lon="0.85209">
        <ele>149.5</ele>
        <time>1970-01-01T00:06:02.000Z</time>
      </trkpt>
      <trkpt lat="44.90501" lon="0.85202">
        <ele>149</ele>
        <time>1970-01-01T00:06:03.000Z</time>
      </trkpt>
      <trkpt lat="44.90502" lon="0.85194">
        <ele>148.5</ele>
        <time>1970-01-01T00:06:04.000Z</time>
      </trkpt>
      <trkpt lat="44.90503" lon="0.85187">
        <ele>147.9</ele>
        <time>1970-01-01T00:06:05.000Z</time>
      </trkpt>
      <trkpt lat="44.90505" lon="0.85179">
        <ele>147.4</ele>
        <time>1970-01-01T00:06:06.000Z</time>
      </trkpt>
      <trkpt lat="44.90508" lon="0.8517">
        <ele>146.6</ele>
        <time>1970-01-01T00:06:07.000Z</time>
      </trkpt>
      <trkpt lat="44.90511" lon="0.8516">
        <ele>145.8</ele>
        <time>1970-01-01T00:06:08.000Z</time>
      </trkpt>
      <trkpt lat="44.90513" lon="0.85149">
        <ele>144.9</ele>
        <time>1970-01-01T00:06:09.000Z</time>
      </trkpt>
      <trkpt lat="44.90514" lon="0.85139">
        <ele>144</ele>
        <time>1970-01-01T00:06:10.000Z</time>
      </trkpt>
      <trkpt lat="44.90515" lon="0.85127">
        <ele>143</ele>
        <time>1970-01-01T00:06:11.000Z</time>
      </trkpt>
      <trkpt lat="44.90516" lon="0.85116">
        <ele>142</ele>
        <time>1970-01-01T00:06:12.000Z</time>
      </trkpt>
      <trkpt lat="44.90517" lon="0.85105">
        <ele>141.1</ele>
        <time>1970-01-01T00:06:13.000Z</time>
      </trkpt>
      <trkpt lat="44.90519" lon="0.85095">
        <ele>140.2</ele>
        <time>1970-01-01T00:06:14.000Z</time>
      </trkpt>
      <trkpt lat="44.90521" lon="0.85085">
        <ele>139.4</ele>
        <time>1970-01-01T00:06:15.000Z</time>
      </trkpt>
      <trkpt lat="44.90522" lon="0.85075">
        <ele>138.6</ele>
        <time>1970-01-01T00:06:16.000Z</time>
      </trkpt>
      <trkpt lat="44.90524" lon="0.85065">
        <ele>137.8</ele>
        <time>1970-01-01T00:06:17.000Z</time>
      </trkpt>
      <trkpt lat="44.90526" lon="0.85054">
        <ele>137</ele>
        <time>1970-01-01T00:06:18.000Z</time>
      </trkpt>
      <trkpt lat="44.90528" lon="0.85043">
        <ele>136</ele>
        <time>1970-01-01T00:06:19.000Z</time>
      </trkpt>
      <trkpt lat="44.9053" lon="0.85031">
        <ele>135.1</ele>
        <time>1970-01-01T00:06:20.000Z</time>
      </trkpt>
      <trkpt lat="44.90533" lon="0.85018">
        <ele>134</ele>
        <time>1970-01-01T00:06:21.000Z</time>
      </trkpt>
      <trkpt lat="44.90536" lon="0.85005">
        <ele>133</ele>
        <time>1970-01-01T00:06:22.000Z</time>
      </trkpt>
      <trkpt lat="44.90539" lon="0.84992">
        <ele>132.1</ele>
        <time>1970-01-01T00:06:23.000Z</time>
      </trkpt>
      <trkpt lat="44.90542" lon="0.8498">
        <ele>131.3</ele>
        <time>1970-01-01T00:06:24.000Z</time>
      </trkpt>
      <trkpt lat="44.90545" lon="0.84968">
        <ele>130.5</ele>
        <time>1970-01-01T00:06:25.000Z</time>
      </trkpt>
      <trkpt lat="44.90547" lon="0.84956">
        <ele>129.8</ele>
        <time>1970-01-01T00:06:26.000Z</time>
      </trkpt>
      <trkpt lat="44.90549" lon="0.84943">
        <ele>129.2</ele>
        <time>1970-01-01T00:06:27.000Z</time>
      </trkpt>
      <trkpt lat="44.90552" lon="0.84931">
        <ele>128.6</ele>
        <time>1970-01-01T00:06:28.000Z</time>
      </trkpt>
      <trkpt lat="44.90554" lon="0.84919">
        <ele>128</ele>
        <time>1970-01-01T00:06:29.000Z</time>
      </trkpt>
      <trkpt lat="44.90557" lon="0.84907">
        <ele>127.4</ele>
        <time>1970-01-01T00:06:30.000Z</time>
      </trkpt>
      <trkpt lat="44.90559" lon="0.84896">
        <ele>126.8</ele>
        <time>1970-01-01T00:06:31.000Z</time>
      </trkpt>
      <trkpt lat="44.9056" lon="0.84884">
        <ele>126.1</ele>
        <time>1970-01-01T00:06:32.000Z</time>
      </trkpt>
      <trkpt lat="44.90561" lon="0.84872">
        <ele>125.3</ele>
        <time>1970-01-01T00:06:33.000Z</time>
      </trkpt>
      <trkpt lat="44.90562" lon="0.8486">
        <ele>124.6</ele>
        <time>1970-01-01T00:06:34.000Z</time>
      </trkpt>
      <trkpt lat="44.90564" lon="0.84848">
        <ele>123.9</ele>
        <time>1970-01-01T00:06:35.000Z</time>
      </trkpt>
      <trkpt lat="44.90567" lon="0.84837">
        <ele>123.2</ele>
        <time>1970-01-01T00:06:36.000Z</time>
      </trkpt>
      <trkpt lat="44.9057" lon="0.84826">
        <ele>122.5</ele>
        <time>1970-01-01T00:06:37.000Z</time>
      </trkpt>
      <trkpt lat="44.90572" lon="0.84815">
        <ele>121.8</ele>
        <time>1970-01-01T00:06:38.000Z</time>
      </trkpt>
      <trkpt lat="44.90575" lon="0.84804">
        <ele>121.1</ele>
        <time>1970-01-01T00:06:39.000Z</time>
      </trkpt>
      <trkpt lat="44.90577" lon="0.84794">
        <ele>120.5</ele>
        <time>1970-01-01T00:06:40.000Z</time>
      </trkpt>
      <trkpt lat="44.9058" lon="0.84783">
        <ele>119.9</ele>
        <time>1970-01-01T00:06:41.000Z</time>
      </trkpt>
      <trkpt lat="44.90582" lon="0.84773">
        <ele>119.3</ele>
        <time>1970-01-01T00:06:42.000Z</time>
      </trkpt>
      <trkpt lat="44.90585" lon="0.84762">
        <ele>118.7</ele>
        <time>1970-01-01T00:06:43.000Z</time>
      </trkpt>
      <trkpt lat="44.90588" lon="0.84752">
        <ele>118.3</ele>
        <time>1970-01-01T00:06:44.000Z</time>
      </trkpt>
      <trkpt lat="44.9059" lon="0.84743">
        <ele>117.7</ele>
        <time>1970-01-01T00:06:45.000Z</time>
      </trkpt>
      <trkpt lat="44.90593" lon="0.84734">
        <ele>117.2</ele>
        <time>1970-01-01T00:06:46.000Z</time>
      </trkpt>
      <trkpt lat="44.90595" lon="0.84726">
        <ele>116.6</ele>
        <time>1970-01-01T00:06:47.000Z</time>
      </trkpt>
      <trkpt lat="44.90598" lon="0.84718">
        <ele>116</ele>
        <time>1970-01-01T00:06:48.000Z</time>
      </trkpt>
      <trkpt lat="44.90601" lon="0.84711">
        <ele>115.4</ele>
        <time>1970-01-01T00:06:49.000Z</time>
      </trkpt>
      <trkpt lat="44.90604" lon="0.84703">
        <ele>114.8</ele>
        <time>1970-01-01T00:06:50.000Z</time>
      </trkpt>
      <trkpt lat="44.90607" lon="0.84695">
        <ele>114.2</ele>
        <time>1970-01-01T00:06:51.000Z</time>
      </trkpt>
      <trkpt lat="44.90611" lon="0.84688">
        <ele>113.5</ele>
        <time>1970-01-01T00:06:52.000Z</time>
      </trkpt>
      <trkpt lat="44.90616" lon="0.8468">
        <ele>112.8</ele>
        <time>1970-01-01T00:06:53.000Z</time>
      </trkpt>
      <trkpt lat="44.90621" lon="0.84673">
        <ele>111.9</ele>
        <time>1970-01-01T00:06:54.000Z</time>
      </trkpt>
      <trkpt lat="44.90627" lon="0.84666">
        <ele>110.9</ele>
        <time>1970-01-01T00:06:55.000Z</time>
      </trkpt>
      <trkpt lat="44.90633" lon="0.84659">
        <ele>109.8</ele>
        <time>1970-01-01T00:06:56.000Z</time>
      </trkpt>
      <trkpt lat="44.9064" lon="0.84652">
        <ele>108.6</ele>
        <time>1970-01-01T00:06:57.000Z</time>
      </trkpt>
      <trkpt lat="44.90646" lon="0.84645">
        <ele>107.5</ele>
        <time>1970-01-01T00:06:58.000Z</time>
      </trkpt>
      <trkpt lat="44.90651" lon="0.84639">
        <ele>106.5</ele>
        <time>1970-01-01T00:06:59.000Z</time>
      </trkpt>
      <trkpt lat="44.90656" lon="0.84633">
        <ele>105.6</ele>
        <time>1970-01-01T00:07:00.000Z</time>
      </trkpt>
      <trkpt lat="44.90661" lon="0.84628">
        <ele>104.7</ele>
        <time>1970-01-01T00:07:01.000Z</time>
      </trkpt>
      <trkpt lat="44.90667" lon="0.84625">
        <ele>103.9</ele>
        <time>1970-01-01T00:07:02.000Z</time>
      </trkpt>
      <trkpt lat="44.90672" lon="0.84623">
        <ele>103</ele>
        <time>1970-01-01T00:07:03.000Z</time>
      </trkpt>
      <trkpt lat="44.90678" lon="0.84622">
        <ele>102.3</ele>
        <time>1970-01-01T00:07:04.000Z</time>
      </trkpt>
      <trkpt lat="44.90683" lon="0.84622">
        <ele>101.6</ele>
        <time>1970-01-01T00:07:05.000Z</time>
      </trkpt>
      <trkpt lat="44.90688" lon="0.84623">
        <ele>100.9</ele>
        <time>1970-01-01T00:07:06.000Z</time>
      </trkpt>
      <trkpt lat="44.90693" lon="0.84624">
        <ele>100.3</ele>
        <time>1970-01-01T00:07:07.000Z</time>
      </trkpt>
      <trkpt lat="44.90697" lon="0.84624">
        <ele>99.8</ele>
        <time>1970-01-01T00:07:08.000Z</time>
      </trkpt>
      <trkpt lat="44.90699" lon="0.84624">
        <ele>99.5</ele>
        <time>1970-01-01T00:07:09.000Z</time>
      </trkpt>
      <trkpt lat="44.90701" lon="0.84625">
        <ele>99.3</ele>
        <time>1970-01-01T00:07:10.000Z</time>
      </trkpt>
      <trkpt lat="44.90702" lon="0.84626">
        <ele>99.2</ele>
        <time>1970-01-01T00:07:11.000Z</time>
      </trkpt>
      <trkpt lat="44.90704" lon="0.84626">
        <ele>99.1</ele>
        <time>1970-01-01T00:07:12.000Z</time>
      </trkpt>
      <trkpt lat="44.90705" lon="0.84626">
        <ele>98.9</ele>
        <time>1970-01-01T00:07:13.000Z</time>
      </trkpt>
      <trkpt lat="44.90707" lon="0.84625">
        <ele>98.8</ele>
        <time>1970-01-01T00:07:14.000Z</time>
      </trkpt>
      <trkpt lat="44.90709" lon="0.84623">
        <ele>98.7</ele>
        <time>1970-01-01T00:07:15.000Z</time>
      </trkpt>
      <trkpt lat="44.90711" lon="0.84622">
        <ele>98.5</ele>
        <time>1970-01-01T00:07:16.000Z</time>
      </trkpt>
      <trkpt lat="44.90713" lon="0.84621">
        <ele>98.4</ele>
        <time>1970-01-01T00:07:17.000Z</time>
      </trkpt>
      <trkpt lat="44.90717" lon="0.84619">
        <ele>98.2</ele>
        <time>1970-01-01T00:07:18.000Z</time>
      </trkpt>
      <trkpt lat="44.90721" lon="0.84618">
        <ele>98.1</ele>
        <time>1970-01-01T00:07:19.000Z</time>
      </trkpt>
      <trkpt lat="44.90724" lon="0.84616">
        <ele>98</ele>
        <time>1970-01-01T00:07:20.000Z</time>
      </trkpt>
      <trkpt lat="44.90727" lon="0.84615">
        <ele>97.9</ele>
        <time>1970-01-01T00:07:21.000Z</time>
      </trkpt>
      <trkpt lat="44.9073" lon="0.84612">
        <ele>97.5</ele>
        <time>1970-01-01T00:07:22.000Z</time>
      </trkpt>
      <trkpt lat="44.90733" lon="0.84608">
        <ele>97.1</ele>
        <time>1970-01-01T00:07:23.000Z</time>
      </trkpt>
      <trkpt lat="44.90736" lon="0.84604">
        <ele>96.6</ele>
        <time>1970-01-01T00:07:24.000Z</time>
      </trkpt>
      <trkpt lat="44.90739" lon="0.846">
        <ele>96.1</ele>
        <time>1970-01-01T00:07:25.000Z</time>
      </trkpt>
      <trkpt lat="44.90742" lon="0.84596">
        <ele>95.6</ele>
        <time>1970-01-01T00:07:26.000Z</time>
      </trkpt>
      <trkpt lat="44.90745" lon="0.84589">
        <ele>95</ele>
        <time>1970-01-01T00:07:27.000Z</time>
      </trkpt>
      <trkpt lat="44.90748" lon="0.84583">
        <ele>94.6</ele>
        <time>1970-01-01T00:07:28.000Z</time>
      </trkpt>
      <trkpt lat="44.90749" lon="0.84575">
        <ele>94.2</ele>
        <time>1970-01-01T00:07:29.000Z</time>
      </trkpt>
      <trkpt lat="44.90749" lon="0.84569">
        <ele>94.1</ele>
        <time>1970-01-01T00:07:30.000Z</time>
      </trkpt>
      <trkpt lat="44.90749" lon="0.84562">
        <ele>94.3</ele>
        <time>1970-01-01T00:07:31.000Z</time>
      </trkpt>
      <trkpt lat="44.90748" lon="0.84556">
        <ele>94.3</ele>
        <time>1970-01-01T00:07:32.000Z</time>
      </trkpt>
      <trkpt lat="44.90748" lon="0.8455">
        <ele>94.4</ele>
        <time>1970-01-01T00:07:33.000Z</time>
      </trkpt>
      <trkpt lat="44.90748" lon="0.84544">
        <ele>94.4</ele>
        <time>1970-01-01T00:07:34.000Z</time>
      </trkpt>
      <trkpt lat="44.90748" lon="0.84539">
        <ele>94.5</ele>
        <time>1970-01-01T00:07:35.000Z</time>
      </trkpt>
      <trkpt lat="44.90748" lon="0.84534">
        <ele>94.5</ele>
        <time>1970-01-01T00:07:36.000Z</time>
      </trkpt>
      <trkpt lat="44.90747" lon="0.84529">
        <ele>94.6</ele>
        <time>1970-01-01T00:07:37.000Z</time>
      </trkpt>
      <trkpt lat="44.90748" lon="0.84525">
        <ele>94.7</ele>
        <time>1970-01-01T00:07:38.000Z</time>
      </trkpt>
      <trkpt lat="44.90748" lon="0.8452">
        <ele>94.8</ele>
        <time>1970-01-01T00:07:39.000Z</time>
      </trkpt>
      <trkpt lat="44.90748" lon="0.84515">
        <ele>94.9</ele>
        <time>1970-01-01T00:07:40.000Z</time>
      </trkpt>
      <trkpt lat="44.90748" lon="0.8451">
        <ele>95</ele>
        <time>1970-01-01T00:07:41.000Z</time>
      </trkpt>
      <trkpt lat="44.90748" lon="0.84505">
        <ele>95.2</ele>
        <time>1970-01-01T00:07:42.000Z</time>
      </trkpt>
      <trkpt lat="44.90748" lon="0.845">
        <ele>95.4</ele>
        <time>1970-01-01T00:07:43.000Z</time>
      </trkpt>
      <trkpt lat="44.90748" lon="0.84496">
        <ele>95.6</ele>
        <time>1970-01-01T00:07:44.000Z</time>
      </trkpt>
      <trkpt lat="44.90749" lon="0.84491">
        <ele>95.8</ele>
        <time>1970-01-01T00:07:45.000Z</time>
      </trkpt>
      <trkpt lat="44.9075" lon="0.84487">
        <ele>96.1</ele>
        <time>1970-01-01T00:07:46.000Z</time>
      </trkpt>
      <trkpt lat="44.90751" lon="0.84483">
        <ele>96.3</ele>
        <time>1970-01-01T00:07:47.000Z</time>
      </trkpt>
      <trkpt lat="44.90752" lon="0.84479">
        <ele>98</ele>
        <time>1970-01-01T00:07:48.000Z</time>
      </trkpt>
      <trkpt lat="44.90752" lon="0.84476">
        <ele>98.5</ele>
        <time>1970-01-01T00:07:49.000Z</time>
      </trkpt>
      <trkpt lat="44.90753" lon="0.84472">
        <ele>99</ele>
        <time>1970-01-01T00:07:50.000Z</time>
      </trkpt>
      <trkpt lat="44.90753" lon="0.84469">
        <ele>99.5</ele>
        <time>1970-01-01T00:07:51.000Z</time>
      </trkpt>
      <trkpt lat="44.90752" lon="0.84465">
        <ele>100</ele>
        <time>1970-01-01T00:07:52.000Z</time>
      </trkpt>
      <trkpt lat="44.90751" lon="0.84462">
        <ele>100.4</ele>
        <time>1970-01-01T00:07:53.000Z</time>
      </trkpt>
      <trkpt lat="44.9075" lon="0.8446">
        <ele>101</ele>
        <time>1970-01-01T00:07:54.000Z</time>
      </trkpt>
      <trkpt lat="44.90749" lon="0.84457">
        <ele>101.4</ele>
        <time>1970-01-01T00:07:55.000Z</time>
      </trkpt>
      <trkpt lat="44.90748" lon="0.84455">
        <ele>101.8</ele>
        <time>1970-01-01T00:07:56.000Z</time>
      </trkpt>
      <trkpt lat="44.90746" lon="0.84453">
        <ele>102.2</ele>
        <time>1970-01-01T00:07:57.000Z</time>
      </trkpt>
      <trkpt lat="44.90745" lon="0.84452">
        <ele>102.6</ele>
        <time>1970-01-01T00:07:58.000Z</time>
      </trkpt>
      <trkpt lat="44.90743" lon="0.84451">
        <ele>103</ele>
        <time>1970-01-01T00:07:59.000Z</time>
      </trkpt>
      <trkpt lat="44.90742" lon="0.84449">
        <ele>103.4</ele>
        <time>1970-01-01T00:08:00.000Z</time>
      </trkpt>
      <trkpt lat="44.9074" lon="0.84448">
        <ele>103.8</ele>
        <time>1970-01-01T00:08:01.000Z</time>
      </trkpt>
      <trkpt lat="44.90739" lon="0.84448">
        <ele>104.1</ele>
        <time>1970-01-01T00:08:02.000Z</time>
      </trkpt>
      <trkpt lat="44.90737" lon="0.84447">
        <ele>104.5</ele>
        <time>1970-01-01T00:08:03.000Z</time>
      </trkpt>
      <trkpt lat="44.90735" lon="0.84446">
        <ele>104.8</ele>
        <time>1970-01-01T00:08:04.000Z</time>
      </trkpt>
      <trkpt lat="44.90733" lon="0.84446">
        <ele>105.2</ele>
        <time>1970-01-01T00:08:05.000Z</time>
      </trkpt>
      <trkpt lat="44.90731" lon="0.84445">
        <ele>105.6</ele>
        <time>1970-01-01T00:08:06.000Z</time>
      </trkpt>
      <trkpt lat="44.90729" lon="0.84444">
        <ele>106</ele>
        <time>1970-01-01T00:08:07.000Z</time>
      </trkpt>
      <trkpt lat="44.90727" lon="0.84443">
        <ele>106.4</ele>
        <time>1970-01-01T00:08:08.000Z</time>
      </trkpt>
      <trkpt lat="44.90725" lon="0.84442">
        <ele>106.8</ele>
        <time>1970-01-01T00:08:09.000Z</time>
      </trkpt>
      <trkpt lat="44.90723" lon="0.84442">
        <ele>107.2</ele>
        <time>1970-01-01T00:08:10.000Z</time>
      </trkpt>
      <trkpt lat="44.9072" lon="0.84441">
        <ele>107.6</ele>
        <time>1970-01-01T00:08:11.000Z</time>
      </trkpt>
      <trkpt lat="44.90718" lon="0.8444">
        <ele>108</ele>
        <time>1970-01-01T00:08:12.000Z</time>
      </trkpt>
      <trkpt lat="44.90716" lon="0.8444">
        <ele>108.3</ele>
        <time>1970-01-01T00:08:13.000Z</time>
      </trkpt>
      <trkpt lat="44.90714" lon="0.84439">
        <ele>108.6</ele>
        <time>1970-01-01T00:08:14.000Z</time>
      </trkpt>
      <trkpt lat="44.90712" lon="0.84438">
        <ele>108.9</ele>
        <time>1970-01-01T00:08:15.000Z</time>
      </trkpt>
      <trkpt lat="44.9071" lon="0.84437">
        <ele>109.2</ele>
        <time>1970-01-01T00:08:16.000Z</time>
      </trkpt>
      <trkpt lat="44.90708" lon="0.84436">
        <ele>109.6</ele>
        <time>1970-01-01T00:08:17.000Z</time>
      </trkpt>
      <trkpt lat="44.90705" lon="0.84436">
        <ele>110</ele>
        <time>1970-01-01T00:08:18.000Z</time>
      </trkpt>
      <trkpt lat="44.90703" lon="0.84435">
        <ele>110.4</ele>
        <time>1970-01-01T00:08:19.000Z</time>
      </trkpt>
      <trkpt lat="44.907" lon="0.84434">
        <ele>110.8</ele>
        <time>1970-01-01T00:08:20.000Z</time>
      </trkpt>
      <trkpt lat="44.90698" lon="0.84434">
        <ele>111.1</ele>
        <time>1970-01-01T00:08:21.000Z</time>
      </trkpt>
      <trkpt lat="44.90695" lon="0.84433">
        <ele>111.5</ele>
        <time>1970-01-01T00:08:22.000Z</time>
      </trkpt>
      <trkpt lat="44.90693" lon="0.84432">
        <ele>111.8</ele>
        <time>1970-01-01T00:08:23.000Z</time>
      </trkpt>
      <trkpt lat="44.90691" lon="0.84432">
        <ele>112</ele>
        <time>1970-01-01T00:08:24.000Z</time>
      </trkpt>
      <trkpt lat="44.90689" lon="0.84431">
        <ele>112.3</ele>
        <time>1970-01-01T00:08:25.000Z</time>
      </trkpt>
      <trkpt lat="44.90687" lon="0.8443">
        <ele>112.7</ele>
        <time>1970-01-01T00:08:26.000Z</time>
      </trkpt>
      <trkpt lat="44.90685" lon="0.84428">
        <ele>113</ele>
        <time>1970-01-01T00:08:27.000Z</time>
      </trkpt>
      <trkpt lat="44.90683" lon="0.84427">
        <ele>113.3</ele>
        <time>1970-01-01T00:08:28.000Z</time>
      </trkpt>
      <trkpt lat="44.90681" lon="0.84427">
        <ele>113.6</ele>
        <time>1970-01-01T00:08:29.000Z</time>
      </trkpt>
      <trkpt lat="44.90679" lon="0.84426">
        <ele>113.9</ele>
        <time>1970-01-01T00:08:30.000Z</time>
      </trkpt>
      <trkpt lat="44.90676" lon="0.84426">
        <ele>114.3</ele>
        <time>1970-01-01T00:08:31.000Z</time>
      </trkpt>
      <trkpt lat="44.90674" lon="0.84425">
        <ele>114.6</ele>
        <time>1970-01-01T00:08:32.000Z</time>
      </trkpt>
      <trkpt lat="44.90672" lon="0.84424">
        <ele>114.9</ele>
        <time>1970-01-01T00:08:33.000Z</time>
      </trkpt>
      <trkpt lat="44.90669" lon="0.84424">
        <ele>115.3</ele>
        <time>1970-01-01T00:08:34.000Z</time>
      </trkpt>
      <trkpt lat="44.90667" lon="0.84423">
        <ele>115.6</ele>
        <time>1970-01-01T00:08:35.000Z</time>
      </trkpt>
      <trkpt lat="44.90665" lon="0.84423">
        <ele>115.9</ele>
        <time>1970-01-01T00:08:36.000Z</time>
      </trkpt>
      <trkpt lat="44.90663" lon="0.84422">
        <ele>116.3</ele>
        <time>1970-01-01T00:08:37.000Z</time>
      </trkpt>
      <trkpt lat="44.90661" lon="0.84421">
        <ele>116.7</ele>
        <time>1970-01-01T00:08:38.000Z</time>
      </trkpt>
      <trkpt lat="44.90658" lon="0.8442">
        <ele>117.1</ele>
        <time>1970-01-01T00:08:39.000Z</time>
      </trkpt>
      <trkpt lat="44.90656" lon="0.84419">
        <ele>117.4</ele>
        <time>1970-01-01T00:08:40.000Z</time>
      </trkpt>
      <trkpt lat="44.90654" lon="0.84418">
        <ele>117.8</ele>
        <time>1970-01-01T00:08:41.000Z</time>
      </trkpt>
      <trkpt lat="44.90652" lon="0.84417">
        <ele>118.1</ele>
        <time>1970-01-01T00:08:42.000Z</time>
      </trkpt>
      <trkpt lat="44.9065" lon="0.84416">
        <ele>118.5</ele>
        <time>1970-01-01T00:08:43.000Z</time>
      </trkpt>
      <trkpt lat="44.90648" lon="0.84416">
        <ele>118.9</ele>
        <time>1970-01-01T00:08:44.000Z</time>
      </trkpt>
      <trkpt lat="44.90646" lon="0.84415">
        <ele>119.2</ele>
        <time>1970-01-01T00:08:45.000Z</time>
      </trkpt>
      <trkpt lat="44.90644" lon="0.84414">
        <ele>119.6</ele>
        <time>1970-01-01T00:08:46.000Z</time>
      </trkpt>
      <trkpt lat="44.90642" lon="0.84413">
        <ele>119.9</ele>
        <time>1970-01-01T00:08:47.000Z</time>
      </trkpt>
      <trkpt lat="44.90639" lon="0.84412">
        <ele>120.2</ele>
        <time>1970-01-01T00:08:48.000Z</time>
      </trkpt>
      <trkpt lat="44.90637" lon="0.84411">
        <ele>120.5</ele>
        <time>1970-01-01T00:08:49.000Z</time>
      </trkpt>
      <trkpt lat="44.90635" lon="0.8441">
        <ele>120.8</ele>
        <time>1970-01-01T00:08:50.000Z</time>
      </trkpt>
      <trkpt lat="44.90634" lon="0.84408">
        <ele>121</ele>
        <time>1970-01-01T00:08:51.000Z</time>
      </trkpt>
      <trkpt lat="44.90633" lon="0.84406">
        <ele>121.2</ele>
        <time>1970-01-01T00:08:52.000Z</time>
      </trkpt>
      <trkpt lat="44.90634" lon="0.84404">
        <ele>121.4</ele>
        <time>1970-01-01T00:08:53.000Z</time>
      </trkpt>
      <trkpt lat="44.90634" lon="0.84402">
        <ele>121.5</ele>
        <time>1970-01-01T00:08:54.000Z</time>
      </trkpt>
      <trkpt lat="44.90635" lon="0.84402">
        <ele>121.5</ele>
        <time>1970-01-01T00:08:55.000Z</time>
      </trkpt>
      <trkpt lat="44.90636" lon="0.84401">
        <ele>121.6</ele>
        <time>1970-01-01T00:08:56.000Z</time>
      </trkpt>
      <trkpt lat="44.90637" lon="0.844">
        <ele>121.8</ele>
        <time>1970-01-01T00:08:57.000Z</time>
      </trkpt>
      <trkpt lat="44.90639" lon="0.84399">
        <ele>121.9</ele>
        <time>1970-01-01T00:08:58.000Z</time>
      </trkpt>
      <trkpt lat="44.9064" lon="0.84399">
        <ele>122</ele>
        <time>1970-01-01T00:08:59.000Z</time>
      </trkpt>
      <trkpt lat="44.90641" lon="0.84398">
        <ele>122.1</ele>
        <time>1970-01-01T00:09:00.000Z</time>
      </trkpt>
      <trkpt lat="44.90643" lon="0.84398">
        <ele>122.2</ele>
        <time>1970-01-01T00:09:01.000Z</time>
      </trkpt>
      <trkpt lat="44.90644" lon="0.84398">
        <ele>122.4</ele>
        <time>1970-01-01T00:09:02.000Z</time>
      </trkpt>
      <trkpt lat="44.90646" lon="0.84398">
        <ele>122.5</ele>
        <time>1970-01-01T00:09:03.000Z</time>
      </trkpt>
      <trkpt lat="44.90647" lon="0.84398">
        <ele>122.6</ele>
        <time>1970-01-01T00:09:04.000Z</time>
      </trkpt>
      <trkpt lat="44.90649" lon="0.84397">
        <ele>122.8</ele>
        <time>1970-01-01T00:09:05.000Z</time>
      </trkpt>
      <trkpt lat="44.9065" lon="0.84397">
        <ele>122.9</ele>
        <time>1970-01-01T00:09:06.000Z</time>
      </trkpt>
      <trkpt lat="44.90651" lon="0.84397">
        <ele>123</ele>
        <time>1970-01-01T00:09:07.000Z</time>
      </trkpt>
      <trkpt lat="44.90653" lon="0.84397">
        <ele>123.1</ele>
        <time>1970-01-01T00:09:08.000Z</time>
      </trkpt>
      <trkpt lat="44.90654" lon="0.84396">
        <ele>123.2</ele>
        <time>1970-01-01T00:09:09.000Z</time>
      </trkpt>
      <trkpt lat="44.90656" lon="0.84396">
        <ele>123.4</ele>
        <time>1970-01-01T00:09:10.000Z</time>
      </trkpt>
      <trkpt lat="44.90657" lon="0.84395">
        <ele>123.6</ele>
        <time>1970-01-01T00:09:11.000Z</time>
      </trkpt>
      <trkpt lat="44.90659" lon="0.84393">
        <ele>123.8</ele>
        <time>1970-01-01T00:09:12.000Z</time>
      </trkpt>
      <trkpt lat="44.9066" lon="0.8439">
        <ele>124</ele>
        <time>1970-01-01T00:09:13.000Z</time>
      </trkpt>
      <trkpt lat="44.90661" lon="0.84388">
        <ele>124.3</ele>
        <time>1970-01-01T00:09:14.000Z</time>
      </trkpt>
      <trkpt lat="44.90662" lon="0.84385">
        <ele>124.5</ele>
        <time>1970-01-01T00:09:15.000Z</time>
      </trkpt>
      <trkpt lat="44.90663" lon="0.84382">
        <ele>124.7</ele>
        <time>1970-01-01T00:09:16.000Z</time>
      </trkpt>
      <trkpt lat="44.90663" lon="0.84379">
        <ele>125</ele>
        <time>1970-01-01T00:09:17.000Z</time>
      </trkpt>
      <trkpt lat="44.90664" lon="0.84376">
        <ele>125.3</ele>
        <time>1970-01-01T00:09:18.000Z</time>
      </trkpt>
      <trkpt lat="44.90664" lon="0.84372">
        <ele>125.5</ele>
        <time>1970-01-01T00:09:19.000Z</time>
      </trkpt>
      <trkpt lat="44.90664" lon="0.84369">
        <ele>125.7</ele>
        <time>1970-01-01T00:09:20.000Z</time>
      </trkpt>
      <trkpt lat="44.90664" lon="0.84367">
        <ele>125.9</ele>
        <time>1970-01-01T00:09:21.000Z</time>
      </trkpt>
      <trkpt lat="44.90664" lon="0.84364">
        <ele>126.1</ele>
        <time>1970-01-01T00:09:22.000Z</time>
      </trkpt>
      <trkpt lat="44.90664" lon="0.84362">
        <ele>126.3</ele>
        <time>1970-01-01T00:09:23.000Z</time>
      </trkpt>
      <trkpt lat="44.90664" lon="0.84359">
        <ele>126.5</ele>
        <time>1970-01-01T00:09:24.000Z</time>
      </trkpt>
      <trkpt lat="44.90664" lon="0.84357">
        <ele>126.7</ele>
        <time>1970-01-01T00:09:25.000Z</time>
      </trkpt>
      <trkpt lat="44.90664" lon="0.84354">
        <ele>127</ele>
        <time>1970-01-01T00:09:26.000Z</time>
      </trkpt>
      <trkpt lat="44.90664" lon="0.8435">
        <ele>127.2</ele>
        <time>1970-01-01T00:09:27.000Z</time>
      </trkpt>
      <trkpt lat="44.90664" lon="0.84347">
        <ele>127.5</ele>
        <time>1970-01-01T00:09:28.000Z</time>
      </trkpt>
      <trkpt lat="44.90664" lon="0.84344">
        <ele>127.7</ele>
        <time>1970-01-01T00:09:29.000Z</time>
      </trkpt>
      <trkpt lat="44.90664" lon="0.84342">
        <ele>127.9</ele>
        <time>1970-01-01T00:09:30.000Z</time>
      </trkpt>
      <trkpt lat="44.90664" lon="0.84339">
        <ele>128.1</ele>
        <time>1970-01-01T00:09:31.000Z</time>
      </trkpt>
      <trkpt lat="44.90664" lon="0.84336">
        <ele>128.3</ele>
        <time>1970-01-01T00:09:32.000Z</time>
      </trkpt>
      <trkpt lat="44.90664" lon="0.84334">
        <ele>128.6</ele>
        <time>1970-01-01T00:09:33.000Z</time>
      </trkpt>
      <trkpt lat="44.90664" lon="0.84331">
        <ele>128.8</ele>
        <time>1970-01-01T00:09:34.000Z</time>
      </trkpt>
      <trkpt lat="44.90664" lon="0.84328">
        <ele>129</ele>
        <time>1970-01-01T00:09:35.000Z</time>
      </trkpt>
      <trkpt lat="44.90664" lon="0.84325">
        <ele>129.3</ele>
        <time>1970-01-01T00:09:36.000Z</time>
      </trkpt>
      <trkpt lat="44.90664" lon="0.84322">
        <ele>129.5</ele>
        <time>1970-01-01T00:09:37.000Z</time>
      </trkpt>
      <trkpt lat="44.90664" lon="0.84319">
        <ele>129.8</ele>
        <time>1970-01-01T00:09:38.000Z</time>
      </trkpt>
      <trkpt lat="44.90664" lon="0.84317">
        <ele>130</ele>
        <time>1970-01-01T00:09:39.000Z</time>
      </trkpt>
      <trkpt lat="44.90663" lon="0.84314">
        <ele>130.2</ele>
        <time>1970-01-01T00:09:40.000Z</time>
      </trkpt>
      <trkpt lat="44.90663" lon="0.84311">
        <ele>130.5</ele>
        <time>1970-01-01T00:09:41.000Z</time>
      </trkpt>
      <trkpt lat="44.90663" lon="0.84309">
        <ele>130.7</ele>
        <time>1970-01-01T00:09:42.000Z</time>
      </trkpt>
      <trkpt lat="44.90663" lon="0.84306">
        <ele>131</ele>
        <time>1970-01-01T00:09:43.000Z</time>
      </trkpt>
      <trkpt lat="44.90662" lon="0.84303">
        <ele>131.3</ele>
        <time>1970-01-01T00:09:44.000Z</time>
      </trkpt>
      <trkpt lat="44.90662" lon="0.843">
        <ele>131.6</ele>
        <time>1970-01-01T00:09:45.000Z</time>
      </trkpt>
      <trkpt lat="44.90662" lon="0.84297">
        <ele>132</ele>
        <time>1970-01-01T00:09:46.000Z</time>
      </trkpt>
      <trkpt lat="44.90662" lon="0.84293">
        <ele>132.3</ele>
        <time>1970-01-01T00:09:47.000Z</time>
      </trkpt>
      <trkpt lat="44.90661" lon="0.8429">
        <ele>132.7</ele>
        <time>1970-01-01T00:09:48.000Z</time>
      </trkpt>
      <trkpt lat="44.90661" lon="0.84287">
        <ele>133.1</ele>
        <time>1970-01-01T00:09:49.000Z</time>
      </trkpt>
      <trkpt lat="44.9066" lon="0.84284">
        <ele>133.4</ele>
        <time>1970-01-01T00:09:50.000Z</time>
      </trkpt>
      <trkpt lat="44.9066" lon="0.84281">
        <ele>133.8</ele>
        <time>1970-01-01T00:09:51.000Z</time>
      </trkpt>
      <trkpt lat="44.90659" lon="0.84279">
        <ele>134.1</ele>
        <time>1970-01-01T00:09:52.000Z</time>
      </trkpt>
      <trkpt lat="44.90659" lon="0.84276">
        <ele>134.5</ele>
        <time>1970-01-01T00:09:53.000Z</time>
      </trkpt>
      <trkpt lat="44.90659" lon="0.84274">
        <ele>134.8</ele>
        <time>1970-01-01T00:09:54.000Z</time>
      </trkpt>
      <trkpt lat="44.90659" lon="0.84271">
        <ele>135.1</ele>
        <time>1970-01-01T00:09:55.000Z</time>
      </trkpt>
      <trkpt lat="44.90659" lon="0.84269">
        <ele>135.4</ele>
        <time>1970-01-01T00:09:56.000Z</time>
      </trkpt>
      <trkpt lat="44.90658" lon="0.84267">
        <ele>135.7</ele>
        <time>1970-01-01T00:09:57.000Z</time>
      </trkpt>
      <trkpt lat="44.90657" lon="0.84265">
        <ele>136</ele>
        <time>1970-01-01T00:09:58.000Z</time>
      </trkpt>
      <trkpt lat="44.90657" lon="0.84262">
        <ele>136.3</ele>
        <time>1970-01-01T00:09:59.000Z</time>
      </trkpt>
      <trkpt lat="44.90657" lon="0.8426">
        <ele>136.6</ele>
        <time>1970-01-01T00:10:00.000Z</time>
      </trkpt>
      <trkpt lat="44.90656" lon="0.84258">
        <ele>136.9</ele>
        <time>1970-01-01T00:10:01.000Z</time>
      </trkpt>
      <trkpt lat="44.90656" lon="0.84256">
        <ele>137.2</ele>
        <time>1970-01-01T00:10:02.000Z</time>
      </trkpt>
      <trkpt lat="44.90655" lon="0.84253">
        <ele>137.5</ele>
        <time>1970-01-01T00:10:03.000Z</time>
      </trkpt>
      <trkpt lat="44.90655" lon="0.84251">
        <ele>137.7</ele>
        <time>1970-01-01T00:10:04.000Z</time>
      </trkpt>
      <trkpt lat="44.90655" lon="0.8425">
        <ele>138</ele>
        <time>1970-01-01T00:10:05.000Z</time>
      </trkpt>
      <trkpt lat="44.90654" lon="0.84248">
        <ele>138.3</ele>
        <time>1970-01-01T00:10:06.000Z</time>
      </trkpt>
      <trkpt lat="44.90653" lon="0.84246">
        <ele>138.6</ele>
        <time>1970-01-01T00:10:07.000Z</time>
      </trkpt>
      <trkpt lat="44.90653" lon="0.84244">
        <ele>138.9</ele>
        <time>1970-01-01T00:10:08.000Z</time>
      </trkpt>
      <trkpt lat="44.90652" lon="0.84242">
        <ele>139.2</ele>
        <time>1970-01-01T00:10:09.000Z</time>
      </trkpt>
      <trkpt lat="44.90652" lon="0.8424">
        <ele>139.5</ele>
        <time>1970-01-01T00:10:10.000Z</time>
      </trkpt>
      <trkpt lat="44.90651" lon="0.84238">
        <ele>139.8</ele>
        <time>1970-01-01T00:10:11.000Z</time>
      </trkpt>
      <trkpt lat="44.9065" lon="0.84236">
        <ele>140.1</ele>
        <time>1970-01-01T00:10:12.000Z</time>
      </trkpt>
      <trkpt lat="44.9065" lon="0.84234">
        <ele>140.4</ele>
        <time>1970-01-01T00:10:13.000Z</time>
      </trkpt>
      <trkpt lat="44.90649" lon="0.84231">
        <ele>140.8</ele>
        <time>1970-01-01T00:10:14.000Z</time>
      </trkpt>
      <trkpt lat="44.90649" lon="0.84229">
        <ele>141.2</ele>
        <time>1970-01-01T00:10:15.000Z</time>
      </trkpt>
      <trkpt lat="44.90648" lon="0.84226">
        <ele>141.6</ele>
        <time>1970-01-01T00:10:16.000Z</time>
      </trkpt>
      <trkpt lat="44.90648" lon="0.84224">
        <ele>141.9</ele>
        <time>1970-01-01T00:10:17.000Z</time>
      </trkpt>
      <trkpt lat="44.90647" lon="0.84221">
        <ele>142.2</ele>
        <time>1970-01-01T00:10:18.000Z</time>
      </trkpt>
      <trkpt lat="44.90647" lon="0.84219">
        <ele>142.5</ele>
        <time>1970-01-01T00:10:19.000Z</time>
      </trkpt>
      <trkpt lat="44.90646" lon="0.84217">
        <ele>142.8</ele>
        <time>1970-01-01T00:10:20.000Z</time>
      </trkpt>
      <trkpt lat="44.90646" lon="0.84215">
        <ele>143.1</ele>
        <time>1970-01-01T00:10:21.000Z</time>
      </trkpt>
      <trkpt lat="44.90645" lon="0.84213">
        <ele>143.4</ele>
        <time>1970-01-01T00:10:22.000Z</time>
      </trkpt>
      <trkpt lat="44.90645" lon="0.84211">
        <ele>143.6</ele>
        <time>1970-01-01T00:10:23.000Z</time>
      </trkpt>
      <trkpt lat="44.90644" lon="0.84209">
        <ele>143.9</ele>
        <time>1970-01-01T00:10:24.000Z</time>
      </trkpt>
      <trkpt lat="44.90644" lon="0.84207">
        <ele>144.3</ele>
        <time>1970-01-01T00:10:25.000Z</time>
      </trkpt>
      <trkpt lat="44.90643" lon="0.84204">
        <ele>144.6</ele>
        <time>1970-01-01T00:10:26.000Z</time>
      </trkpt>
      <trkpt lat="44.90643" lon="0.84202">
        <ele>144.9</ele>
        <time>1970-01-01T00:10:27.000Z</time>
      </trkpt>
      <trkpt lat="44.90642" lon="0.84199">
        <ele>145.2</ele>
        <time>1970-01-01T00:10:28.000Z</time>
      </trkpt>
      <trkpt lat="44.90642" lon="0.84197">
        <ele>145.5</ele>
        <time>1970-01-01T00:10:29.000Z</time>
      </trkpt>
      <trkpt lat="44.90641" lon="0.84195">
        <ele>145.7</ele>
        <time>1970-01-01T00:10:30.000Z</time>
      </trkpt>
      <trkpt lat="44.90641" lon="0.84193">
        <ele>145.9</ele>
        <time>1970-01-01T00:10:31.000Z</time>
      </trkpt>
      <trkpt lat="44.9064" lon="0.84191">
        <ele>146.2</ele>
        <time>1970-01-01T00:10:32.000Z</time>
      </trkpt>
      <trkpt lat="44.9064" lon="0.84189">
        <ele>146.4</ele>
        <time>1970-01-01T00:10:33.000Z</time>
      </trkpt>
      <trkpt lat="44.9064" lon="0.84187">
        <ele>146.6</ele>
        <time>1970-01-01T00:10:34.000Z</time>
      </trkpt>
      <trkpt lat="44.90639" lon="0.84184">
        <ele>146.8</ele>
        <time>1970-01-01T00:10:35.000Z</time>
      </trkpt>
      <trkpt lat="44.90639" lon="0.84182">
        <ele>147</ele>
        <time>1970-01-01T00:10:36.000Z</time>
      </trkpt>
      <trkpt lat="44.90639" lon="0.8418">
        <ele>147.2</ele>
        <time>1970-01-01T00:10:37.000Z</time>
      </trkpt>
      <trkpt lat="44.90639" lon="0.84177">
        <ele>147.5</ele>
        <time>1970-01-01T00:10:38.000Z</time>
      </trkpt>
      <trkpt lat="44.90638" lon="0.84175">
        <ele>147.7</ele>
        <time>1970-01-01T00:10:39.000Z</time>
      </trkpt>
      <trkpt lat="44.90638" lon="0.84172">
        <ele>147.9</ele>
        <time>1970-01-01T00:10:40.000Z</time>
      </trkpt>
      <trkpt lat="44.90638" lon="0.84169">
        <ele>148.1</ele>
        <time>1970-01-01T00:10:41.000Z</time>
      </trkpt>
      <trkpt lat="44.90637" lon="0.84166">
        <ele>148.3</ele>
        <time>1970-01-01T00:10:42.000Z</time>
      </trkpt>
      <trkpt lat="44.90637" lon="0.84163">
        <ele>148.5</ele>
        <time>1970-01-01T00:10:43.000Z</time>
      </trkpt>
      <trkpt lat="44.90636" lon="0.84159">
        <ele>148.7</ele>
        <time>1970-01-01T00:10:44.000Z</time>
      </trkpt>
      <trkpt lat="44.90636" lon="0.84156">
        <ele>148.9</ele>
        <time>1970-01-01T00:10:45.000Z</time>
      </trkpt>
      <trkpt lat="44.90635" lon="0.84152">
        <ele>149.1</ele>
        <time>1970-01-01T00:10:46.000Z</time>
      </trkpt>
      <trkpt lat="44.90634" lon="0.84149">
        <ele>149.2</ele>
        <time>1970-01-01T00:10:47.000Z</time>
      </trkpt>
      <trkpt lat="44.90633" lon="0.84147">
        <ele>149.4</ele>
        <time>1970-01-01T00:10:48.000Z</time>
      </trkpt>
      <trkpt lat="44.90633" lon="0.84144">
        <ele>149.5</ele>
        <time>1970-01-01T00:10:49.000Z</time>
      </trkpt>
      <trkpt lat="44.90632" lon="0.8414">
        <ele>149.7</ele>
        <time>1970-01-01T00:10:50.000Z</time>
      </trkpt>
      <trkpt lat="44.90632" lon="0.84137">
        <ele>149.9</ele>
        <time>1970-01-01T00:10:51.000Z</time>
      </trkpt>
      <trkpt lat="44.90631" lon="0.84134">
        <ele>150</ele>
        <time>1970-01-01T00:10:52.000Z</time>
      </trkpt>
      <trkpt lat="44.90631" lon="0.8413">
        <ele>150.2</ele>
        <time>1970-01-01T00:10:53.000Z</time>
      </trkpt>
      <trkpt lat="44.9063" lon="0.84127">
        <ele>150.4</ele>
        <time>1970-01-01T00:10:54.000Z</time>
      </trkpt>
      <trkpt lat="44.9063" lon="0.84124">
        <ele>150.6</ele>
        <time>1970-01-01T00:10:55.000Z</time>
      </trkpt>
      <trkpt lat="44.90629" lon="0.84121">
        <ele>150.7</ele>
        <time>1970-01-01T00:10:56.000Z</time>
      </trkpt>
      <trkpt lat="44.90628" lon="0.84118">
        <ele>150.9</ele>
        <time>1970-01-01T00:10:57.000Z</time>
      </trkpt>
      <trkpt lat="44.90627" lon="0.84115">
        <ele>151.1</ele>
        <time>1970-01-01T00:10:58.000Z</time>
      </trkpt>
      <trkpt lat="44.90626" lon="0.84112">
        <ele>151.3</ele>
        <time>1970-01-01T00:10:59.000Z</time>
      </trkpt>
      <trkpt lat="44.90625" lon="0.84109">
        <ele>151.5</ele>
        <time>1970-01-01T00:11:00.000Z</time>
      </trkpt>
      <trkpt lat="44.90624" lon="0.84106">
        <ele>151.7</ele>
        <time>1970-01-01T00:11:01.000Z</time>
      </trkpt>
      <trkpt lat="44.90623" lon="0.84103">
        <ele>151.9</ele>
        <time>1970-01-01T00:11:02.000Z</time>
      </trkpt>
      <trkpt lat="44.90622" lon="0.841">
        <ele>152.1</ele>
        <time>1970-01-01T00:11:03.000Z</time>
      </trkpt>
      <trkpt lat="44.90621" lon="0.84097">
        <ele>152.2</ele>
        <time>1970-01-01T00:11:04.000Z</time>
      </trkpt>
      <trkpt lat="44.9062" lon="0.84094">
        <ele>152.4</ele>
        <time>1970-01-01T00:11:05.000Z</time>
      </trkpt>
      <trkpt lat="44.90619" lon="0.84091">
        <ele>152.6</ele>
        <time>1970-01-01T00:11:06.000Z</time>
      </trkpt>
      <trkpt lat="44.90618" lon="0.84087">
        <ele>152.8</ele>
        <time>1970-01-01T00:11:07.000Z</time>
      </trkpt>
      <trkpt lat="44.90617" lon="0.84084">
        <ele>153</ele>
        <time>1970-01-01T00:11:08.000Z</time>
      </trkpt>
      <trkpt lat="44.90616" lon="0.84081">
        <ele>153.2</ele>
        <time>1970-01-01T00:11:09.000Z</time>
      </trkpt>
      <trkpt lat="44.90615" lon="0.84079">
        <ele>153.3</ele>
        <time>1970-01-01T00:11:10.000Z</time>
      </trkpt>
      <trkpt lat="44.90614" lon="0.84076">
        <ele>153.5</ele>
        <time>1970-01-01T00:11:11.000Z</time>
      </trkpt>
      <trkpt lat="44.90613" lon="0.84073">
        <ele>153.7</ele>
        <time>1970-01-01T00:11:12.000Z</time>
      </trkpt>
      <trkpt lat="44.90612" lon="0.8407">
        <ele>153.9</ele>
        <time>1970-01-01T00:11:13.000Z</time>
      </trkpt>
      <trkpt lat="44.90611" lon="0.84067">
        <ele>154</ele>
        <time>1970-01-01T00:11:14.000Z</time>
      </trkpt>
      <trkpt lat="44.90609" lon="0.84064">
        <ele>154.2</ele>
        <time>1970-01-01T00:11:15.000Z</time>
      </trkpt>
      <trkpt lat="44.90608" lon="0.8406">
        <ele>154.4</ele>
        <time>1970-01-01T00:11:16.000Z</time>
      </trkpt>
      <trkpt lat="44.90607" lon="0.84057">
        <ele>154.6</ele>
        <time>1970-01-01T00:11:17.000Z</time>
      </trkpt>
      <trkpt lat="44.90606" lon="0.84054">
        <ele>154.8</ele>
        <time>1970-01-01T00:11:18.000Z</time>
      </trkpt>
      <trkpt lat="44.90605" lon="0.8405">
        <ele>155</ele>
        <time>1970-01-01T00:11:19.000Z</time>
      </trkpt>
      <trkpt lat="44.90603" lon="0.84047">
        <ele>155.1</ele>
        <time>1970-01-01T00:11:20.000Z</time>
      </trkpt>
      <trkpt lat="44.90602" lon="0.84044">
        <ele>155.3</ele>
        <time>1970-01-01T00:11:21.000Z</time>
      </trkpt>
      <trkpt lat="44.90601" lon="0.84041">
        <ele>155.4</ele>
        <time>1970-01-01T00:11:22.000Z</time>
      </trkpt>
      <trkpt lat="44.906" lon="0.84038">
        <ele>155.6</ele>
        <time>1970-01-01T00:11:23.000Z</time>
      </trkpt>
      <trkpt lat="44.90599" lon="0.84035">
        <ele>155.7</ele>
        <time>1970-01-01T00:11:24.000Z</time>
      </trkpt>
      <trkpt lat="44.90598" lon="0.84032">
        <ele>155.9</ele>
        <time>1970-01-01T00:11:25.000Z</time>
      </trkpt>
      <trkpt lat="44.90597" lon="0.84029">
        <ele>156</ele>
        <time>1970-01-01T00:11:26.000Z</time>
      </trkpt>
      <trkpt lat="44.90595" lon="0.84026">
        <ele>156.2</ele>
        <time>1970-01-01T00:11:27.000Z</time>
      </trkpt>
      <trkpt lat="44.90594" lon="0.84023">
        <ele>156.3</ele>
        <time>1970-01-01T00:11:28.000Z</time>
      </trkpt>
      <trkpt lat="44.90592" lon="0.8402">
        <ele>156.5</ele>
        <time>1970-01-01T00:11:29.000Z</time>
      </trkpt>
      <trkpt lat="44.9059" lon="0.84017">
        <ele>156.6</ele>
        <time>1970-01-01T00:11:30.000Z</time>
      </trkpt>
      <trkpt lat="44.90589" lon="0.84014">
        <ele>156.8</ele>
        <time>1970-01-01T00:11:31.000Z</time>
      </trkpt>
      <trkpt lat="44.90588" lon="0.84011">
        <ele>156.9</ele>
        <time>1970-01-01T00:11:32.000Z</time>
      </trkpt>
      <trkpt lat="44.90586" lon="0.84008">
        <ele>157.1</ele>
        <time>1970-01-01T00:11:33.000Z</time>
      </trkpt>
      <trkpt lat="44.90585" lon="0.84005">
        <ele>157.2</ele>
        <time>1970-01-01T00:11:34.000Z</time>
      </trkpt>
      <trkpt lat="44.90584" lon="0.84002">
        <ele>157.4</ele>
        <time>1970-01-01T00:11:35.000Z</time>
      </trkpt>
      <trkpt lat="44.90583" lon="0.83998">
        <ele>157.5</ele>
        <time>1970-01-01T00:11:36.000Z</time>
      </trkpt>
      <trkpt lat="44.90582" lon="0.83995">
        <ele>157.6</ele>
        <time>1970-01-01T00:11:37.000Z</time>
      </trkpt>
      <trkpt lat="44.90582" lon="0.83992">
        <ele>157.7</ele>
        <time>1970-01-01T00:11:38.000Z</time>
      </trkpt>
      <trkpt lat="44.90582" lon="0.83989">
        <ele>157.7</ele>
        <time>1970-01-01T00:11:39.000Z</time>
      </trkpt>
      <trkpt lat="44.90582" lon="0.83985">
        <ele>157.6</ele>
        <time>1970-01-01T00:11:40.000Z</time>
      </trkpt>
      <trkpt lat="44.90582" lon="0.83982">
        <ele>157.6</ele>
        <time>1970-01-01T00:11:41.000Z</time>
      </trkpt>
      <trkpt lat="44.90584" lon="0.83978">
        <ele>157.5</ele>
        <time>1970-01-01T00:11:42.000Z</time>
      </trkpt>
      <trkpt lat="44.90586" lon="0.83975">
        <ele>157.5</ele>
        <time>1970-01-01T00:11:43.000Z</time>
      </trkpt>
      <trkpt lat="44.90587" lon="0.83971">
        <ele>157.4</ele>
        <time>1970-01-01T00:11:44.000Z</time>
      </trkpt>
      <trkpt lat="44.90588" lon="0.83968">
        <ele>157.3</ele>
        <time>1970-01-01T00:11:45.000Z</time>
      </trkpt>
      <trkpt lat="44.90589" lon="0.83964">
        <ele>157.3</ele>
        <time>1970-01-01T00:11:46.000Z</time>
      </trkpt>
      <trkpt lat="44.9059" lon="0.8396">
        <ele>157.2</ele>
        <time>1970-01-01T00:11:47.000Z</time>
      </trkpt>
      <trkpt lat="44.90591" lon="0.83955">
        <ele>157.2</ele>
        <time>1970-01-01T00:11:48.000Z</time>
      </trkpt>
      <trkpt lat="44.90591" lon="0.83951">
        <ele>157.2</ele>
        <time>1970-01-01T00:11:49.000Z</time>
      </trkpt>
      <trkpt lat="44.90591" lon="0.83947">
        <ele>157.2</ele>
        <time>1970-01-01T00:11:50.000Z</time>
      </trkpt>
      <trkpt lat="44.90589" lon="0.83942">
        <ele>157.2</ele>
        <time>1970-01-01T00:11:51.000Z</time>
      </trkpt>
      <trkpt lat="44.90588" lon="0.83938">
        <ele>157.2</ele>
        <time>1970-01-01T00:11:52.000Z</time>
      </trkpt>
      <trkpt lat="44.90587" lon="0.83934">
        <ele>157.3</ele>
        <time>1970-01-01T00:11:53.000Z</time>
      </trkpt>
      <trkpt lat="44.90586" lon="0.8393">
        <ele>157.4</ele>
        <time>1970-01-01T00:11:54.000Z</time>
      </trkpt>
      <trkpt lat="44.90585" lon="0.83926">
        <ele>157.6</ele>
        <time>1970-01-01T00:11:55.000Z</time>
      </trkpt>
      <trkpt lat="44.90584" lon="0.83922">
        <ele>157.7</ele>
        <time>1970-01-01T00:11:56.000Z</time>
      </trkpt>
      <trkpt lat="44.90582" lon="0.83918">
        <ele>157.9</ele>
        <time>1970-01-01T00:11:57.000Z</time>
      </trkpt>
      <trkpt lat="44.90581" lon="0.83914">
        <ele>158.1</ele>
        <time>1970-01-01T00:11:58.000Z</time>
      </trkpt>
      <trkpt lat="44.9058" lon="0.8391">
        <ele>158.2</ele>
        <time>1970-01-01T00:11:59.000Z</time>
      </trkpt>
      <trkpt lat="44.90579" lon="0.83906">
        <ele>158.5</ele>
        <time>1970-01-01T00:12:00.000Z</time>
      </trkpt>
      <trkpt lat="44.90577" lon="0.83902">
        <ele>158.7</ele>
        <time>1970-01-01T00:12:01.000Z</time>
      </trkpt>
      <trkpt lat="44.90576" lon="0.83899">
        <ele>158.9</ele>
        <time>1970-01-01T00:12:02.000Z</time>
      </trkpt>
      <trkpt lat="44.90575" lon="0.83895">
        <ele>159.1</ele>
        <time>1970-01-01T00:12:03.000Z</time>
      </trkpt>
      <trkpt lat="44.90573" lon="0.83891">
        <ele>159.3</ele>
        <time>1970-01-01T00:12:04.000Z</time>
      </trkpt>
      <trkpt lat="44.90571" lon="0.83888">
        <ele>159.6</ele>
        <time>1970-01-01T00:12:05.000Z</time>
      </trkpt>
      <trkpt lat="44.90569" lon="0.83885">
        <ele>159.8</ele>
        <time>1970-01-01T00:12:06.000Z</time>
      </trkpt>
      <trkpt lat="44.90567" lon="0.83883">
        <ele>160.1</ele>
        <time>1970-01-01T00:12:07.000Z</time>
      </trkpt>
      <trkpt lat="44.90564" lon="0.83881">
        <ele>160.4</ele>
        <time>1970-01-01T00:12:08.000Z</time>
      </trkpt>
      <trkpt lat="44.90561" lon="0.8388">
        <ele>160.6</ele>
        <time>1970-01-01T00:12:09.000Z</time>
      </trkpt>
      <trkpt lat="44.90558" lon="0.83879">
        <ele>160.9</ele>
        <time>1970-01-01T00:12:10.000Z</time>
      </trkpt>
      <trkpt lat="44.90555" lon="0.83878">
        <ele>161.2</ele>
        <time>1970-01-01T00:12:11.000Z</time>
      </trkpt>
      <trkpt lat="44.90552" lon="0.83878">
        <ele>161.4</ele>
        <time>1970-01-01T00:12:12.000Z</time>
      </trkpt>
      <trkpt lat="44.90549" lon="0.83877">
        <ele>161.7</ele>
        <time>1970-01-01T00:12:13.000Z</time>
      </trkpt>
      <trkpt lat="44.90546" lon="0.83877">
        <ele>161.9</ele>
        <time>1970-01-01T00:12:14.000Z</time>
      </trkpt>
      <trkpt lat="44.90543" lon="0.83877">
        <ele>162.2</ele>
        <time>1970-01-01T00:12:15.000Z</time>
      </trkpt>
      <trkpt lat="44.9054" lon="0.83876">
        <ele>162.4</ele>
        <time>1970-01-01T00:12:16.000Z</time>
      </trkpt>
      <trkpt lat="44.90537" lon="0.83876">
        <ele>162.6</ele>
        <time>1970-01-01T00:12:17.000Z</time>
      </trkpt>
      <trkpt lat="44.90534" lon="0.83875">
        <ele>162.8</ele>
        <time>1970-01-01T00:12:18.000Z</time>
      </trkpt>
      <trkpt lat="44.90531" lon="0.83874">
        <ele>163</ele>
        <time>1970-01-01T00:12:19.000Z</time>
      </trkpt>
      <trkpt lat="44.90529" lon="0.83873">
        <ele>163.1</ele>
        <time>1970-01-01T00:12:20.000Z</time>
      </trkpt>
      <trkpt lat="44.90526" lon="0.83871">
        <ele>163.3</ele>
        <time>1970-01-01T00:12:21.000Z</time>
      </trkpt>
      <trkpt lat="44.90524" lon="0.8387">
        <ele>163.4</ele>
        <time>1970-01-01T00:12:22.000Z</time>
      </trkpt>
      <trkpt lat="44.90522" lon="0.83868">
        <ele>163.5</ele>
        <time>1970-01-01T00:12:23.000Z</time>
      </trkpt>
      <trkpt lat="44.90521" lon="0.83864">
        <ele>163.6</ele>
        <time>1970-01-01T00:12:24.000Z</time>
      </trkpt>
      <trkpt lat="44.90521" lon="0.83861">
        <ele>163.7</ele>
        <time>1970-01-01T00:12:25.000Z</time>
      </trkpt>
      <trkpt lat="44.9052" lon="0.83857">
        <ele>163.9</ele>
        <time>1970-01-01T00:12:26.000Z</time>
      </trkpt>
      <trkpt lat="44.90519" lon="0.83853">
        <ele>164</ele>
        <time>1970-01-01T00:12:27.000Z</time>
      </trkpt>
      <trkpt lat="44.90519" lon="0.83849">
        <ele>164.2</ele>
        <time>1970-01-01T00:12:28.000Z</time>
      </trkpt>
      <trkpt lat="44.90518" lon="0.83846">
        <ele>164.3</ele>
        <time>1970-01-01T00:12:29.000Z</time>
      </trkpt>
      <trkpt lat="44.90517" lon="0.83842">
        <ele>164.5</ele>
        <time>1970-01-01T00:12:30.000Z</time>
      </trkpt>
      <trkpt lat="44.90517" lon="0.83838">
        <ele>164.6</ele>
        <time>1970-01-01T00:12:31.000Z</time>
      </trkpt>
      <trkpt lat="44.90517" lon="0.83834">
        <ele>164.8</ele>
        <time>1970-01-01T00:12:32.000Z</time>
      </trkpt>
      <trkpt lat="44.90516" lon="0.8383">
        <ele>165</ele>
        <time>1970-01-01T00:12:33.000Z</time>
      </trkpt>
      <trkpt lat="44.90515" lon="0.83826">
        <ele>165.1</ele>
        <time>1970-01-01T00:12:34.000Z</time>
      </trkpt>
      <trkpt lat="44.90515" lon="0.83822">
        <ele>165.3</ele>
        <time>1970-01-01T00:12:35.000Z</time>
      </trkpt>
      <trkpt lat="44.90514" lon="0.83818">
        <ele>165.5</ele>
        <time>1970-01-01T00:12:36.000Z</time>
      </trkpt>
      <trkpt lat="44.90514" lon="0.83814">
        <ele>165.7</ele>
        <time>1970-01-01T00:12:37.000Z</time>
      </trkpt>
      <trkpt lat="44.90513" lon="0.83811">
        <ele>165.8</ele>
        <time>1970-01-01T00:12:38.000Z</time>
      </trkpt>
      <trkpt lat="44.90513" lon="0.83807">
        <ele>166</ele>
        <time>1970-01-01T00:12:39.000Z</time>
      </trkpt>
      <trkpt lat="44.90513" lon="0.83803">
        <ele>166.2</ele>
        <time>1970-01-01T00:12:40.000Z</time>
      </trkpt>
      <trkpt lat="44.90512" lon="0.83799">
        <ele>166.3</ele>
        <time>1970-01-01T00:12:41.000Z</time>
      </trkpt>
      <trkpt lat="44.90512" lon="0.83796">
        <ele>166.5</ele>
        <time>1970-01-01T00:12:42.000Z</time>
      </trkpt>
      <trkpt lat="44.90511" lon="0.83792">
        <ele>166.7</ele>
        <time>1970-01-01T00:12:43.000Z</time>
      </trkpt>
      <trkpt lat="44.90511" lon="0.83788">
        <ele>166.9</ele>
        <time>1970-01-01T00:12:44.000Z</time>
      </trkpt>
      <trkpt lat="44.90511" lon="0.83784">
        <ele>167.1</ele>
        <time>1970-01-01T00:12:45.000Z</time>
      </trkpt>
      <trkpt lat="44.9051" lon="0.8378">
        <ele>167.3</ele>
        <time>1970-01-01T00:12:46.000Z</time>
      </trkpt>
      <trkpt lat="44.9051" lon="0.83777">
        <ele>167.4</ele>
        <time>1970-01-01T00:12:47.000Z</time>
      </trkpt>
      <trkpt lat="44.9051" lon="0.83773">
        <ele>167.6</ele>
        <time>1970-01-01T00:12:48.000Z</time>
      </trkpt>
      <trkpt lat="44.9051" lon="0.83769">
        <ele>167.8</ele>
        <time>1970-01-01T00:12:49.000Z</time>
      </trkpt>
      <trkpt lat="44.90509" lon="0.83766">
        <ele>168</ele>
        <time>1970-01-01T00:12:50.000Z</time>
      </trkpt>
      <trkpt lat="44.90508" lon="0.83762">
        <ele>168.2</ele>
        <time>1970-01-01T00:12:51.000Z</time>
      </trkpt>
      <trkpt lat="44.90508" lon="0.83758">
        <ele>168.4</ele>
        <time>1970-01-01T00:12:52.000Z</time>
      </trkpt>
      <trkpt lat="44.90507" lon="0.83754">
        <ele>168.6</ele>
        <time>1970-01-01T00:12:53.000Z</time>
      </trkpt>
      <trkpt lat="44.90507" lon="0.8375">
        <ele>168.8</ele>
        <time>1970-01-01T00:12:54.000Z</time>
      </trkpt>
      <trkpt lat="44.90506" lon="0.83745">
        <ele>169.1</ele>
        <time>1970-01-01T00:12:55.000Z</time>
      </trkpt>
      <trkpt lat="44.90505" lon="0.83741">
        <ele>169.3</ele>
        <time>1970-01-01T00:12:56.000Z</time>
      </trkpt>
      <trkpt lat="44.90505" lon="0.83737">
        <ele>169.5</ele>
        <time>1970-01-01T00:12:57.000Z</time>
      </trkpt>
      <trkpt lat="44.90504" lon="0.83733">
        <ele>169.7</ele>
        <time>1970-01-01T00:12:58.000Z</time>
      </trkpt>
      <trkpt lat="44.90504" lon="0.83728">
        <ele>169.9</ele>
        <time>1970-01-01T00:12:59.000Z</time>
      </trkpt>
      <trkpt lat="44.90503" lon="0.83724">
        <ele>170.1</ele>
        <time>1970-01-01T00:13:00.000Z</time>
      </trkpt>
      <trkpt lat="44.90503" lon="0.8372">
        <ele>170.4</ele>
        <time>1970-01-01T00:13:01.000Z</time>
      </trkpt>
      <trkpt lat="44.90502" lon="0.83716">
        <ele>170.6</ele>
        <time>1970-01-01T00:13:02.000Z</time>
      </trkpt>
      <trkpt lat="44.90502" lon="0.83711">
        <ele>170.7</ele>
        <time>1970-01-01T00:13:03.000Z</time>
      </trkpt>
      <trkpt lat="44.90501" lon="0.83707">
        <ele>170.9</ele>
        <time>1970-01-01T00:13:04.000Z</time>
      </trkpt>
      <trkpt lat="44.90501" lon="0.83703">
        <ele>171.1</ele>
        <time>1970-01-01T00:13:05.000Z</time>
      </trkpt>
      <trkpt lat="44.90501" lon="0.83698">
        <ele>171.2</ele>
        <time>1970-01-01T00:13:06.000Z</time>
      </trkpt>
      <trkpt lat="44.905" lon="0.83694">
        <ele>171.3</ele>
        <time>1970-01-01T00:13:07.000Z</time>
      </trkpt>
      <trkpt lat="44.905" lon="0.8369">
        <ele>171.4</ele>
        <time>1970-01-01T00:13:08.000Z</time>
      </trkpt>
      <trkpt lat="44.905" lon="0.83685">
        <ele>171.5</ele>
        <time>1970-01-01T00:13:09.000Z</time>
      </trkpt>
      <trkpt lat="44.905" lon="0.83681">
        <ele>171.5</ele>
        <time>1970-01-01T00:13:10.000Z</time>
      </trkpt>
      <trkpt lat="44.90499" lon="0.83677">
        <ele>171.6</ele>
        <time>1970-01-01T00:13:11.000Z</time>
      </trkpt>
      <trkpt lat="44.90499" lon="0.83673">
        <ele>171.6</ele>
        <time>1970-01-01T00:13:12.000Z</time>
      </trkpt>
      <trkpt lat="44.90498" lon="0.83669">
        <ele>171.5</ele>
        <time>1970-01-01T00:13:13.000Z</time>
      </trkpt>
      <trkpt lat="44.90498" lon="0.83666">
        <ele>171.5</ele>
        <time>1970-01-01T00:13:14.000Z</time>
      </trkpt>
      <trkpt lat="44.90497" lon="0.83662">
        <ele>171.5</ele>
        <time>1970-01-01T00:13:15.000Z</time>
      </trkpt>
      <trkpt lat="44.90496" lon="0.83659">
        <ele>171.4</ele>
        <time>1970-01-01T00:13:16.000Z</time>
      </trkpt>
      <trkpt lat="44.90496" lon="0.83655">
        <ele>171.3</ele>
        <time>1970-01-01T00:13:17.000Z</time>
      </trkpt>
      <trkpt lat="44.90495" lon="0.83651">
        <ele>171.2</ele>
        <time>1970-01-01T00:13:18.000Z</time>
      </trkpt>
      <trkpt lat="44.90494" lon="0.83646">
        <ele>171</ele>
        <time>1970-01-01T00:13:19.000Z</time>
      </trkpt>
      <trkpt lat="44.90494" lon="0.83642">
        <ele>170.8</ele>
        <time>1970-01-01T00:13:20.000Z</time>
      </trkpt>
      <trkpt lat="44.90493" lon="0.83636">
        <ele>170.6</ele>
        <time>1970-01-01T00:13:21.000Z</time>
      </trkpt>
      <trkpt lat="44.90493" lon="0.8363">
        <ele>170.4</ele>
        <time>1970-01-01T00:13:22.000Z</time>
      </trkpt>
      <trkpt lat="44.90493" lon="0.83624">
        <ele>170.2</ele>
        <time>1970-01-01T00:13:23.000Z</time>
      </trkpt>
      <trkpt lat="44.90494" lon="0.83618">
        <ele>170</ele>
        <time>1970-01-01T00:13:24.000Z</time>
      </trkpt>
      <trkpt lat="44.90496" lon="0.83612">
        <ele>169.8</ele>
        <time>1970-01-01T00:13:25.000Z</time>
      </trkpt>
      <trkpt lat="44.90498" lon="0.83607">
        <ele>169.6</ele>
        <time>1970-01-01T00:13:26.000Z</time>
      </trkpt>
      <trkpt lat="44.90501" lon="0.83603">
        <ele>169.4</ele>
        <time>1970-01-01T00:13:27.000Z</time>
      </trkpt>
      <trkpt lat="44.90504" lon="0.83598">
        <ele>169.2</ele>
        <time>1970-01-01T00:13:28.000Z</time>
      </trkpt>
      <trkpt lat="44.90508" lon="0.83594">
        <ele>168.9</ele>
        <time>1970-01-01T00:13:29.000Z</time>
      </trkpt>
      <trkpt lat="44.90513" lon="0.8359">
        <ele>168.7</ele>
        <time>1970-01-01T00:13:30.000Z</time>
      </trkpt>
      <trkpt lat="44.90518" lon="0.83586">
        <ele>168.4</ele>
        <time>1970-01-01T00:13:31.000Z</time>
      </trkpt>
      <trkpt lat="44.90522" lon="0.83582">
        <ele>168.2</ele>
        <time>1970-01-01T00:13:32.000Z</time>
      </trkpt>
      <trkpt lat="44.90526" lon="0.83578">
        <ele>168.1</ele>
        <time>1970-01-01T00:13:33.000Z</time>
      </trkpt>
      <trkpt lat="44.90531" lon="0.83574">
        <ele>167.9</ele>
        <time>1970-01-01T00:13:34.000Z</time>
      </trkpt>
      <trkpt lat="44.90535" lon="0.8357">
        <ele>167.8</ele>
        <time>1970-01-01T00:13:35.000Z</time>
      </trkpt>
      <trkpt lat="44.90539" lon="0.83566">
        <ele>167.7</ele>
        <time>1970-01-01T00:13:36.000Z</time>
      </trkpt>
      <trkpt lat="44.90543" lon="0.83563">
        <ele>167.7</ele>
        <time>1970-01-01T00:13:37.000Z</time>
      </trkpt>
      <trkpt lat="44.90547" lon="0.83559">
        <ele>167.6</ele>
        <time>1970-01-01T00:13:38.000Z</time>
      </trkpt>
      <trkpt lat="44.90552" lon="0.83556">
        <ele>167.6</ele>
        <time>1970-01-01T00:13:39.000Z</time>
      </trkpt>
      <trkpt lat="44.90556" lon="0.83552">
        <ele>167.6</ele>
        <time>1970-01-01T00:13:40.000Z</time>
      </trkpt>
      <trkpt lat="44.9056" lon="0.83548">
        <ele>167.6</ele>
        <time>1970-01-01T00:13:41.000Z</time>
      </trkpt>
      <trkpt lat="44.90564" lon="0.83545">
        <ele>167.6</ele>
        <time>1970-01-01T00:13:42.000Z</time>
      </trkpt>
      <trkpt lat="44.90569" lon="0.83542">
        <ele>167.6</ele>
        <time>1970-01-01T00:13:43.000Z</time>
      </trkpt>
      <trkpt lat="44.90573" lon="0.83538">
        <ele>167.6</ele>
        <time>1970-01-01T00:13:44.000Z</time>
      </trkpt>
      <trkpt lat="44.90578" lon="0.83535">
        <ele>167.6</ele>
        <time>1970-01-01T00:13:45.000Z</time>
      </trkpt>
      <trkpt lat="44.90582" lon="0.83532">
        <ele>167.6</ele>
        <time>1970-01-01T00:13:46.000Z</time>
      </trkpt>
      <trkpt lat="44.90587" lon="0.83529">
        <ele>167.6</ele>
        <time>1970-01-01T00:13:47.000Z</time>
      </trkpt>
      <trkpt lat="44.90591" lon="0.83526">
        <ele>167.5</ele>
        <time>1970-01-01T00:13:48.000Z</time>
      </trkpt>
      <trkpt lat="44.90595" lon="0.83523">
        <ele>167.5</ele>
        <time>1970-01-01T00:13:49.000Z</time>
      </trkpt>
      <trkpt lat="44.906" lon="0.8352">
        <ele>167.4</ele>
        <time>1970-01-01T00:13:50.000Z</time>
      </trkpt>
      <trkpt lat="44.90604" lon="0.83517">
        <ele>167.3</ele>
        <time>1970-01-01T00:13:51.000Z</time>
      </trkpt>
      <trkpt lat="44.90608" lon="0.83514">
        <ele>167.1</ele>
        <time>1970-01-01T00:13:52.000Z</time>
      </trkpt>
      <trkpt lat="44.90613" lon="0.83511">
        <ele>167</ele>
        <time>1970-01-01T00:13:53.000Z</time>
      </trkpt>
      <trkpt lat="44.90617" lon="0.83508">
        <ele>166.8</ele>
        <time>1970-01-01T00:13:54.000Z</time>
      </trkpt>
      <trkpt lat="44.90622" lon="0.83504">
        <ele>166.7</ele>
        <time>1970-01-01T00:13:55.000Z</time>
      </trkpt>
      <trkpt lat="44.90627" lon="0.83501">
        <ele>166.5</ele>
        <time>1970-01-01T00:13:56.000Z</time>
      </trkpt>
      <trkpt lat="44.90631" lon="0.83498">
        <ele>166.4</ele>
        <time>1970-01-01T00:13:57.000Z</time>
      </trkpt>
      <trkpt lat="44.90636" lon="0.83494">
        <ele>166.3</ele>
        <time>1970-01-01T00:13:58.000Z</time>
      </trkpt>
      <trkpt lat="44.9064" lon="0.8349">
        <ele>166.3</ele>
        <time>1970-01-01T00:13:59.000Z</time>
      </trkpt>
      <trkpt lat="44.90644" lon="0.83487">
        <ele>166.3</ele>
        <time>1970-01-01T00:14:00.000Z</time>
      </trkpt>
      <trkpt lat="44.90646" lon="0.83483">
        <ele>166.4</ele>
        <time>1970-01-01T00:14:01.000Z</time>
      </trkpt>
      <trkpt lat="44.90647" lon="0.83479">
        <ele>166.5</ele>
        <time>1970-01-01T00:14:02.000Z</time>
      </trkpt>
      <trkpt lat="44.90648" lon="0.83475">
        <ele>164.9</ele>
        <time>1970-01-01T00:14:03.000Z</time>
      </trkpt>
      <trkpt lat="44.90647" lon="0.8347">
        <ele>164.4</ele>
        <time>1970-01-01T00:14:04.000Z</time>
      </trkpt>
      <trkpt lat="44.90647" lon="0.83465">
        <ele>163.9</ele>
        <time>1970-01-01T00:14:05.000Z</time>
      </trkpt>
      <trkpt lat="44.90645" lon="0.83459">
        <ele>163.3</ele>
        <time>1970-01-01T00:14:06.000Z</time>
      </trkpt>
      <trkpt lat="44.90643" lon="0.83453">
        <ele>162.7</ele>
        <time>1970-01-01T00:14:07.000Z</time>
      </trkpt>
      <trkpt lat="44.9064" lon="0.83446">
        <ele>162</ele>
        <time>1970-01-01T00:14:08.000Z</time>
      </trkpt>
      <trkpt lat="44.90636" lon="0.83439">
        <ele>161.2</ele>
        <time>1970-01-01T00:14:09.000Z</time>
      </trkpt>
      <trkpt lat="44.90632" lon="0.83432">
        <ele>160.5</ele>
        <time>1970-01-01T00:14:10.000Z</time>
      </trkpt>
      <trkpt lat="44.90628" lon="0.83424">
        <ele>159.8</ele>
        <time>1970-01-01T00:14:11.000Z</time>
      </trkpt>
      <trkpt lat="44.90626" lon="0.83416">
        <ele>159.2</ele>
        <time>1970-01-01T00:14:12.000Z</time>
      </trkpt>
      <trkpt lat="44.90623" lon="0.83407">
        <ele>158.5</ele>
        <time>1970-01-01T00:14:13.000Z</time>
      </trkpt>
      <trkpt lat="44.9062" lon="0.83396">
        <ele>157.7</ele>
        <time>1970-01-01T00:14:14.000Z</time>
      </trkpt>
      <trkpt lat="44.90617" lon="0.83385">
        <ele>156.8</ele>
        <time>1970-01-01T00:14:15.000Z</time>
      </trkpt>
      <trkpt lat="44.90614" lon="0.83373">
        <ele>155.9</ele>
        <time>1970-01-01T00:14:16.000Z</time>
      </trkpt>
      <trkpt lat="44.90613" lon="0.83359">
        <ele>155</ele>
        <time>1970-01-01T00:14:17.000Z</time>
      </trkpt>
      <trkpt lat="44.90614" lon="0.83346">
        <ele>154.1</ele>
        <time>1970-01-01T00:14:18.000Z</time>
      </trkpt>
      <trkpt lat="44.90615" lon="0.83332">
        <ele>153.2</ele>
        <time>1970-01-01T00:14:19.000Z</time>
      </trkpt>
      <trkpt lat="44.90616" lon="0.83319">
        <ele>152.5</ele>
        <time>1970-01-01T00:14:20.000Z</time>
      </trkpt>
      <trkpt lat="44.90617" lon="0.83307">
        <ele>151.9</ele>
        <time>1970-01-01T00:14:21.000Z</time>
      </trkpt>
      <trkpt lat="44.90619" lon="0.83295">
        <ele>151.3</ele>
        <time>1970-01-01T00:14:22.000Z</time>
      </trkpt>
      <trkpt lat="44.90621" lon="0.83282">
        <ele>150.8</ele>
        <time>1970-01-01T00:14:23.000Z</time>
      </trkpt>
      <trkpt lat="44.90623" lon="0.83269">
        <ele>150.3</ele>
        <time>1970-01-01T00:14:24.000Z</time>
      </trkpt>
      <trkpt lat="44.90624" lon="0.83257">
        <ele>150</ele>
        <time>1970-01-01T00:14:25.000Z</time>
      </trkpt>
      <trkpt lat="44.90624" lon="0.83245">
        <ele>149.7</ele>
        <time>1970-01-01T00:14:26.000Z</time>
      </trkpt>
      <trkpt lat="44.90624" lon="0.83233">
        <ele>149.4</ele>
        <time>1970-01-01T00:14:27.000Z</time>
      </trkpt>
      <trkpt lat="44.90624" lon="0.83222">
        <ele>149.3</ele>
        <time>1970-01-01T00:14:28.000Z</time>
      </trkpt>
      <trkpt lat="44.90624" lon="0.83212">
        <ele>149.3</ele>
        <time>1970-01-01T00:14:29.000Z</time>
      </trkpt>
      <trkpt lat="44.90623" lon="0.83203">
        <ele>149.3</ele>
        <time>1970-01-01T00:14:30.000Z</time>
      </trkpt>
      <trkpt lat="44.90622" lon="0.83195">
        <ele>149.4</ele>
        <time>1970-01-01T00:14:31.000Z</time>
      </trkpt>
      <trkpt lat="44.9062" lon="0.83187">
        <ele>149.5</ele>
        <time>1970-01-01T00:14:32.000Z</time>
      </trkpt>
      <trkpt lat="44.90619" lon="0.8318">
        <ele>149.6</ele>
        <time>1970-01-01T00:14:33.000Z</time>
      </trkpt>
      <trkpt lat="44.90617" lon="0.83174">
        <ele>149.8</ele>
        <time>1970-01-01T00:14:34.000Z</time>
      </trkpt>
      <trkpt lat="44.90615" lon="0.83167">
        <ele>149.9</ele>
        <time>1970-01-01T00:14:35.000Z</time>
      </trkpt>
      <trkpt lat="44.90613" lon="0.83161">
        <ele>150</ele>
        <time>1970-01-01T00:14:36.000Z</time>
      </trkpt>
      <trkpt lat="44.9061" lon="0.83154">
        <ele>150.1</ele>
        <time>1970-01-01T00:14:37.000Z</time>
      </trkpt>
      <trkpt lat="44.90608" lon="0.83148">
        <ele>150.3</ele>
        <time>1970-01-01T00:14:38.000Z</time>
      </trkpt>
      <trkpt lat="44.90604" lon="0.83143">
        <ele>150.3</ele>
        <time>1970-01-01T00:14:39.000Z</time>
      </trkpt>
      <trkpt lat="44.906" lon="0.83139">
        <ele>150.4</ele>
        <time>1970-01-01T00:14:40.000Z</time>
      </trkpt>
      <trkpt lat="44.90594" lon="0.83136">
        <ele>150.3</ele>
        <time>1970-01-01T00:14:41.000Z</time>
      </trkpt>
      <trkpt lat="44.90586" lon="0.83135">
        <ele>149.7</ele>
        <time>1970-01-01T00:14:42.000Z</time>
      </trkpt>
      <trkpt lat="44.90577" lon="0.83134">
        <ele>148.9</ele>
        <time>1970-01-01T00:14:43.000Z</time>
      </trkpt>
      <trkpt lat="44.9057" lon="0.83134">
        <ele>148</ele>
        <time>1970-01-01T00:14:44.000Z</time>
      </trkpt>
      <trkpt lat="44.90564" lon="0.83132">
        <ele>147.3</ele>
        <time>1970-01-01T00:14:45.000Z</time>
      </trkpt>
      <trkpt lat="44.90558" lon="0.83128">
        <ele>146.7</ele>
        <time>1970-01-01T00:14:46.000Z</time>
      </trkpt>
      <trkpt lat="44.90551" lon="0.83122">
        <ele>146</ele>
        <time>1970-01-01T00:14:47.000Z</time>
      </trkpt>
      <trkpt lat="44.90544" lon="0.83114">
        <ele>145.4</ele>
        <time>1970-01-01T00:14:48.000Z</time>
      </trkpt>
      <trkpt lat="44.90539" lon="0.83106">
        <ele>144.9</ele>
        <time>1970-01-01T00:14:49.000Z</time>
      </trkpt>
      <trkpt lat="44.90534" lon="0.83098">
        <ele>144.5</ele>
        <time>1970-01-01T00:14:50.000Z</time>
      </trkpt>
      <trkpt lat="44.90531" lon="0.83089">
        <ele>144.1</ele>
        <time>1970-01-01T00:14:51.000Z</time>
      </trkpt>
      <trkpt lat="44.90529" lon="0.83079">
        <ele>143.6</ele>
        <time>1970-01-01T00:14:52.000Z</time>
      </trkpt>
      <trkpt lat="44.90528" lon="0.83071">
        <ele>143.1</ele>
        <time>1970-01-01T00:14:53.000Z</time>
      </trkpt>
      <trkpt lat="44.90525" lon="0.83065">
        <ele>142.6</ele>
        <time>1970-01-01T00:14:54.000Z</time>
      </trkpt>
      <trkpt lat="44.9052" lon="0.83061">
        <ele>142</ele>
        <time>1970-01-01T00:14:55.000Z</time>
      </trkpt>
      <trkpt lat="44.90514" lon="0.83058">
        <ele>141.3</ele>
        <time>1970-01-01T00:14:56.000Z</time>
      </trkpt>
      <trkpt lat="44.90508" lon="0.83055">
        <ele>140.7</ele>
        <time>1970-01-01T00:14:57.000Z</time>
      </trkpt>
      <trkpt lat="44.90502" lon="0.83052">
        <ele>139.9</ele>
        <time>1970-01-01T00:14:58.000Z</time>
      </trkpt>
      <trkpt lat="44.90496" lon="0.8305">
        <ele>139.2</ele>
        <time>1970-01-01T00:14:59.000Z</time>
      </trkpt>
      <trkpt lat="44.90489" lon="0.83049">
        <ele>138.4</ele>
        <time>1970-01-01T00:15:00.000Z</time>
      </trkpt>
      <trkpt lat="44.90481" lon="0.83047">
        <ele>137.4</ele>
        <time>1970-01-01T00:15:01.000Z</time>
      </trkpt>
      <trkpt lat="44.90473" lon="0.83046">
        <ele>136.3</ele>
        <time>1970-01-01T00:15:02.000Z</time>
      </trkpt>
      <trkpt lat="44.90463" lon="0.83047">
        <ele>135</ele>
        <time>1970-01-01T00:15:03.000Z</time>
      </trkpt>
      <trkpt lat="44.90454" lon="0.83048">
        <ele>133.7</ele>
        <time>1970-01-01T00:15:04.000Z</time>
      </trkpt>
      <trkpt lat="44.90445" lon="0.8305">
        <ele>132.4</ele>
        <time>1970-01-01T00:15:05.000Z</time>
      </trkpt>
      <trkpt lat="44.90435" lon="0.83051">
        <ele>131.2</ele>
        <time>1970-01-01T00:15:06.000Z</time>
      </trkpt>
      <trkpt lat="44.90426" lon="0.83052">
        <ele>129.9</ele>
        <time>1970-01-01T00:15:07.000Z</time>
      </trkpt>
      <trkpt lat="44.90416" lon="0.83053">
        <ele>128.7</ele>
        <time>1970-01-01T00:15:08.000Z</time>
      </trkpt>
      <trkpt lat="44.90406" lon="0.83055">
        <ele>127.5</ele>
        <time>1970-01-01T00:15:09.000Z</time>
      </trkpt>
      <trkpt lat="44.90397" lon="0.83056">
        <ele>126.4</ele>
        <time>1970-01-01T00:15:10.000Z</time>
      </trkpt>
      <trkpt lat="44.90387" lon="0.83058">
        <ele>125.2</ele>
        <time>1970-01-01T00:15:11.000Z</time>
      </trkpt>
      <trkpt lat="44.90377" lon="0.8306">
        <ele>124.1</ele>
        <time>1970-01-01T00:15:12.000Z</time>
      </trkpt>
      <trkpt lat="44.90367" lon="0.83061">
        <ele>123</ele>
        <time>1970-01-01T00:15:13.000Z</time>
      </trkpt>
      <trkpt lat="44.90357" lon="0.83062">
        <ele>122</ele>
        <time>1970-01-01T00:15:14.000Z</time>
      </trkpt>
      <trkpt lat="44.90347" lon="0.83064">
        <ele>121.1</ele>
        <time>1970-01-01T00:15:15.000Z</time>
      </trkpt>
      <trkpt lat="44.90338" lon="0.83065">
        <ele>120.3</ele>
        <time>1970-01-01T00:15:16.000Z</time>
      </trkpt>
      <trkpt lat="44.9033" lon="0.83067">
        <ele>119.7</ele>
        <time>1970-01-01T00:15:17.000Z</time>
      </trkpt>
      <trkpt lat="44.90323" lon="0.83068">
        <ele>119</ele>
        <time>1970-01-01T00:15:18.000Z</time>
      </trkpt>
      <trkpt lat="44.90315" lon="0.83068">
        <ele>118.4</ele>
        <time>1970-01-01T00:15:19.000Z</time>
      </trkpt>
      <trkpt lat="44.90308" lon="0.83068">
        <ele>117.8</ele>
        <time>1970-01-01T00:15:20.000Z</time>
      </trkpt>
      <trkpt lat="44.903" lon="0.83067">
        <ele>117.3</ele>
        <time>1970-01-01T00:15:21.000Z</time>
      </trkpt>
      <trkpt lat="44.90293" lon="0.83067">
        <ele>116.9</ele>
        <time>1970-01-01T00:15:22.000Z</time>
      </trkpt>
      <trkpt lat="44.90286" lon="0.83066">
        <ele>116.5</ele>
        <time>1970-01-01T00:15:23.000Z</time>
      </trkpt>
      <trkpt lat="44.90279" lon="0.83066">
        <ele>116.1</ele>
        <time>1970-01-01T00:15:24.000Z</time>
      </trkpt>
      <trkpt lat="44.90272" lon="0.83065">
        <ele>115.6</ele>
        <time>1970-01-01T00:15:25.000Z</time>
      </trkpt>
      <trkpt lat="44.90265" lon="0.83065">
        <ele>115.2</ele>
        <time>1970-01-01T00:15:26.000Z</time>
      </trkpt>
      <trkpt lat="44.90259" lon="0.83065">
        <ele>114.6</ele>
        <time>1970-01-01T00:15:27.000Z</time>
      </trkpt>
      <trkpt lat="44.90253" lon="0.83066">
        <ele>114</ele>
        <time>1970-01-01T00:15:28.000Z</time>
      </trkpt>
      <trkpt lat="44.90249" lon="0.83066">
        <ele>113.5</ele>
        <time>1970-01-01T00:15:29.000Z</time>
      </trkpt>
      <trkpt lat="44.90246" lon="0.83068">
        <ele>113.1</ele>
        <time>1970-01-01T00:15:30.000Z</time>
      </trkpt>
      <trkpt lat="44.90245" lon="0.8307">
        <ele>112.8</ele>
        <time>1970-01-01T00:15:31.000Z</time>
      </trkpt>
      <trkpt lat="44.90243" lon="0.83073">
        <ele>112.4</ele>
        <time>1970-01-01T00:15:32.000Z</time>
      </trkpt>
      <trkpt lat="44.90241" lon="0.83076">
        <ele>112</ele>
        <time>1970-01-01T00:15:33.000Z</time>
      </trkpt>
      <trkpt lat="44.90238" lon="0.83078">
        <ele>111.5</ele>
        <time>1970-01-01T00:15:34.000Z</time>
      </trkpt>
      <trkpt lat="44.90235" lon="0.83082">
        <ele>110.8</ele>
        <time>1970-01-01T00:15:35.000Z</time>
      </trkpt>
      <trkpt lat="44.90232" lon="0.83085">
        <ele>110.2</ele>
        <time>1970-01-01T00:15:36.000Z</time>
      </trkpt>
      <trkpt lat="44.90229" lon="0.83088">
        <ele>109.7</ele>
        <time>1970-01-01T00:15:37.000Z</time>
      </trkpt>
      <trkpt lat="44.90226" lon="0.83091">
        <ele>109.7</ele>
        <time>1970-01-01T00:15:38.000Z</time>
      </trkpt>
      <trkpt lat="44.90223" lon="0.83094">
        <ele>109.8</ele>
        <time>1970-01-01T00:15:39.000Z</time>
      </trkpt>
      <trkpt lat="44.90221" lon="0.83096">
        <ele>109.9</ele>
        <time>1970-01-01T00:15:40.000Z</time>
      </trkpt>
      <trkpt lat="44.9022" lon="0.83098">
        <ele>110</ele>
        <time>1970-01-01T00:15:41.000Z</time>
      </trkpt>
      <trkpt lat="44.90219" lon="0.83099">
        <ele>110.1</ele>
        <time>1970-01-01T00:15:42.000Z</time>
      </trkpt>
      <trkpt lat="44.90218" lon="0.83101">
        <ele>110.2</ele>
        <time>1970-01-01T00:15:43.000Z</time>
      </trkpt>
      <trkpt lat="44.90217" lon="0.83104">
        <ele>110.4</ele>
        <time>1970-01-01T00:15:44.000Z</time>
      </trkpt>
      <trkpt lat="44.90216" lon="0.83107">
        <ele>110.6</ele>
        <time>1970-01-01T00:15:45.000Z</time>
      </trkpt>
      <trkpt lat="44.90215" lon="0.8311">
        <ele>110.9</ele>
        <time>1970-01-01T00:15:46.000Z</time>
      </trkpt>
      <trkpt lat="44.90214" lon="0.83113">
        <ele>111.2</ele>
        <time>1970-01-01T00:15:47.000Z</time>
      </trkpt>
      <trkpt lat="44.90213" lon="0.83117">
        <ele>111.5</ele>
        <time>1970-01-01T00:15:48.000Z</time>
      </trkpt>
      <trkpt lat="44.90212" lon="0.8312">
        <ele>111.8</ele>
        <time>1970-01-01T00:15:49.000Z</time>
      </trkpt>
      <trkpt lat="44.9021" lon="0.83123">
        <ele>112.2</ele>
        <time>1970-01-01T00:15:50.000Z</time>
      </trkpt>
      <trkpt lat="44.90209" lon="0.83125">
        <ele>112.5</ele>
        <time>1970-01-01T00:15:51.000Z</time>
      </trkpt>
      <trkpt lat="44.90207" lon="0.83128">
        <ele>112.9</ele>
        <time>1970-01-01T00:15:52.000Z</time>
      </trkpt>
      <trkpt lat="44.90206" lon="0.83131">
        <ele>113.1</ele>
        <time>1970-01-01T00:15:53.000Z</time>
      </trkpt>
      <trkpt lat="44.90204" lon="0.83134">
        <ele>113.4</ele>
        <time>1970-01-01T00:15:54.000Z</time>
      </trkpt>
      <trkpt lat="44.90203" lon="0.83136">
        <ele>113.6</ele>
        <time>1970-01-01T00:15:55.000Z</time>
      </trkpt>
      <trkpt lat="44.90201" lon="0.83137">
        <ele>113.8</ele>
        <time>1970-01-01T00:15:56.000Z</time>
      </trkpt>
      <trkpt lat="44.90199" lon="0.83139">
        <ele>114</ele>
        <time>1970-01-01T00:15:57.000Z</time>
      </trkpt>
      <trkpt lat="44.90197" lon="0.8314">
        <ele>114.2</ele>
        <time>1970-01-01T00:15:58.000Z</time>
      </trkpt>
      <trkpt lat="44.90194" lon="0.83142">
        <ele>114.4</ele>
        <time>1970-01-01T00:15:59.000Z</time>
      </trkpt>
      <trkpt lat="44.90192" lon="0.83143">
        <ele>114.5</ele>
        <time>1970-01-01T00:16:00.000Z</time>
      </trkpt>
      <trkpt lat="44.90189" lon="0.83144">
        <ele>114.7</ele>
        <time>1970-01-01T00:16:01.000Z</time>
      </trkpt>
      <trkpt lat="44.90187" lon="0.83145">
        <ele>114.8</ele>
        <time>1970-01-01T00:16:02.000Z</time>
      </trkpt>
      <trkpt lat="44.90184" lon="0.83146">
        <ele>114.9</ele>
        <time>1970-01-01T00:16:03.000Z</time>
      </trkpt>
      <trkpt lat="44.90181" lon="0.83147">
        <ele>115</ele>
        <time>1970-01-01T00:16:04.000Z</time>
      </trkpt>
      <trkpt lat="44.90179" lon="0.83149">
        <ele>115.2</ele>
        <time>1970-01-01T00:16:05.000Z</time>
      </trkpt>
      <trkpt lat="44.90177" lon="0.8315">
        <ele>115.4</ele>
        <time>1970-01-01T00:16:06.000Z</time>
      </trkpt>
      <trkpt lat="44.90174" lon="0.83152">
        <ele>115.6</ele>
        <time>1970-01-01T00:16:07.000Z</time>
      </trkpt>
      <trkpt lat="44.90172" lon="0.83154">
        <ele>115.9</ele>
        <time>1970-01-01T00:16:08.000Z</time>
      </trkpt>
      <trkpt lat="44.9017" lon="0.83156">
        <ele>116.2</ele>
        <time>1970-01-01T00:16:09.000Z</time>
      </trkpt>
      <trkpt lat="44.90169" lon="0.83158">
        <ele>116.4</ele>
        <time>1970-01-01T00:16:10.000Z</time>
      </trkpt>
      <trkpt lat="44.90168" lon="0.83161">
        <ele>116.7</ele>
        <time>1970-01-01T00:16:11.000Z</time>
      </trkpt>
      <trkpt lat="44.90166" lon="0.83163">
        <ele>116.6</ele>
        <time>1970-01-01T00:16:12.000Z</time>
      </trkpt>
      <trkpt lat="44.90166" lon="0.83165">
        <ele>116.6</ele>
        <time>1970-01-01T00:16:13.000Z</time>
      </trkpt>
      <trkpt lat="44.90165" lon="0.83168">
        <ele>116.6</ele>
        <time>1970-01-01T00:16:14.000Z</time>
      </trkpt>
      <trkpt lat="44.90165" lon="0.83172">
        <ele>118.4</ele>
        <time>1970-01-01T00:16:15.000Z</time>
      </trkpt>
      <trkpt lat="44.90164" lon="0.83175">
        <ele>118.3</ele>
        <time>1970-01-01T00:16:16.000Z</time>
      </trkpt>
      <trkpt lat="44.90163" lon="0.83178">
        <ele>118.3</ele>
        <time>1970-01-01T00:16:17.000Z</time>
      </trkpt>
      <trkpt lat="44.90163" lon="0.83181">
        <ele>118.3</ele>
        <time>1970-01-01T00:16:18.000Z</time>
      </trkpt>
      <trkpt lat="44.90162" lon="0.83184">
        <ele>118.2</ele>
        <time>1970-01-01T00:16:19.000Z</time>
      </trkpt>
      <trkpt lat="44.90161" lon="0.83187">
        <ele>118.2</ele>
        <time>1970-01-01T00:16:20.000Z</time>
      </trkpt>
      <trkpt lat="44.9016" lon="0.83189">
        <ele>119.2</ele>
        <time>1970-01-01T00:16:21.000Z</time>
      </trkpt>
      <trkpt lat="44.9016" lon="0.83192">
        <ele>119.1</ele>
        <time>1970-01-01T00:16:22.000Z</time>
      </trkpt>
      <trkpt lat="44.90159" lon="0.83194">
        <ele>119.1</ele>
        <time>1970-01-01T00:16:23.000Z</time>
      </trkpt>
      <trkpt lat="44.90159" lon="0.83196">
        <ele>119</ele>
        <time>1970-01-01T00:16:24.000Z</time>
      </trkpt>
      <trkpt lat="44.90158" lon="0.83199">
        <ele>119</ele>
        <time>1970-01-01T00:16:25.000Z</time>
      </trkpt>
      <trkpt lat="44.90157" lon="0.83201">
        <ele>119</ele>
        <time>1970-01-01T00:16:26.000Z</time>
      </trkpt>
      <trkpt lat="44.90157" lon="0.83203">
        <ele>118.9</ele>
        <time>1970-01-01T00:16:27.000Z</time>
      </trkpt>
      <trkpt lat="44.90156" lon="0.83205">
        <ele>120.6</ele>
        <time>1970-01-01T00:16:28.000Z</time>
      </trkpt>
      <trkpt lat="44.90155" lon="0.83207">
        <ele>120.5</ele>
        <time>1970-01-01T00:16:29.000Z</time>
      </trkpt>
      <trkpt lat="44.90155" lon="0.83209">
        <ele>120.5</ele>
        <time>1970-01-01T00:16:30.000Z</time>
      </trkpt>
      <trkpt lat="44.90155" lon="0.83211">
        <ele>120.4</ele>
        <time>1970-01-01T00:16:31.000Z</time>
      </trkpt>
      <trkpt lat="44.90154" lon="0.83213">
        <ele>120.4</ele>
        <time>1970-01-01T00:16:32.000Z</time>
      </trkpt>
      <trkpt lat="44.90154" lon="0.83215">
        <ele>120.4</ele>
        <time>1970-01-01T00:16:33.000Z</time>
      </trkpt>
      <trkpt lat="44.90154" lon="0.83217">
        <ele>120.3</ele>
        <time>1970-01-01T00:16:34.000Z</time>
      </trkpt>
      <trkpt lat="44.90153" lon="0.83219">
        <ele>120.3</ele>
        <time>1970-01-01T00:16:35.000Z</time>
      </trkpt>
      <trkpt lat="44.90153" lon="0.83221">
        <ele>120.2</ele>
        <time>1970-01-01T00:16:36.000Z</time>
      </trkpt>
      <trkpt lat="44.90153" lon="0.83223">
        <ele>122.1</ele>
        <time>1970-01-01T00:16:37.000Z</time>
      </trkpt>
      <trkpt lat="44.90153" lon="0.83225">
        <ele>122</ele>
        <time>1970-01-01T00:16:38.000Z</time>
      </trkpt>
      <trkpt lat="44.90153" lon="0.83227">
        <ele>122</ele>
        <time>1970-01-01T00:16:39.000Z</time>
      </trkpt>
      <trkpt lat="44.90154" lon="0.83229">
        <ele>122</ele>
        <time>1970-01-01T00:16:40.000Z</time>
      </trkpt>
      <trkpt lat="44.90155" lon="0.83232">
        <ele>121.9</ele>
        <time>1970-01-01T00:16:41.000Z</time>
      </trkpt>
      <trkpt lat="44.90155" lon="0.83234">
        <ele>121.9</ele>
        <time>1970-01-01T00:16:42.000Z</time>
      </trkpt>
      <trkpt lat="44.90156" lon="0.83236">
        <ele>121.8</ele>
        <time>1970-01-01T00:16:43.000Z</time>
      </trkpt>
      <trkpt lat="44.90156" lon="0.83238">
        <ele>121.8</ele>
        <time>1970-01-01T00:16:44.000Z</time>
      </trkpt>
      <trkpt lat="44.90157" lon="0.8324">
        <ele>123.4</ele>
        <time>1970-01-01T00:16:45.000Z</time>
      </trkpt>
      <trkpt lat="44.90158" lon="0.83243">
        <ele>123.3</ele>
        <time>1970-01-01T00:16:46.000Z</time>
      </trkpt>
      <trkpt lat="44.90158" lon="0.83245">
        <ele>123.3</ele>
        <time>1970-01-01T00:16:47.000Z</time>
      </trkpt>
      <trkpt lat="44.90158" lon="0.83247">
        <ele>123.3</ele>
        <time>1970-01-01T00:16:48.000Z</time>
      </trkpt>
      <trkpt lat="44.90158" lon="0.8325">
        <ele>123.2</ele>
        <time>1970-01-01T00:16:49.000Z</time>
      </trkpt>
      <trkpt lat="44.90158" lon="0.83253">
        <ele>123.2</ele>
        <time>1970-01-01T00:16:50.000Z</time>
      </trkpt>
      <trkpt lat="44.90157" lon="0.83256">
        <ele>123.1</ele>
        <time>1970-01-01T00:16:51.000Z</time>
      </trkpt>
      <trkpt lat="44.90156" lon="0.83259">
        <ele>125</ele>
        <time>1970-01-01T00:16:52.000Z</time>
      </trkpt>
      <trkpt lat="44.90156" lon="0.83261">
        <ele>124.9</ele>
        <time>1970-01-01T00:16:53.000Z</time>
      </trkpt>
      <trkpt lat="44.90155" lon="0.83264">
        <ele>124.9</ele>
        <time>1970-01-01T00:16:54.000Z</time>
      </trkpt>
      <trkpt lat="44.90154" lon="0.83267">
        <ele>124.8</ele>
        <time>1970-01-01T00:16:55.000Z</time>
      </trkpt>
      <trkpt lat="44.90153" lon="0.8327">
        <ele>124.8</ele>
        <time>1970-01-01T00:16:56.000Z</time>
      </trkpt>
      <trkpt lat="44.90153" lon="0.83273">
        <ele>124.8</ele>
        <time>1970-01-01T00:16:57.000Z</time>
      </trkpt>
      <trkpt lat="44.90152" lon="0.83275">
        <ele>126.9</ele>
        <time>1970-01-01T00:16:58.000Z</time>
      </trkpt>
      <trkpt lat="44.90152" lon="0.83278">
        <ele>126.8</ele>
        <time>1970-01-01T00:16:59.000Z</time>
      </trkpt>
      <trkpt lat="44.90152" lon="0.83281">
        <ele>126.8</ele>
        <time>1970-01-01T00:17:00.000Z</time>
      </trkpt>
      <trkpt lat="44.90152" lon="0.83284">
        <ele>126.8</ele>
        <time>1970-01-01T00:17:01.000Z</time>
      </trkpt>
      <trkpt lat="44.90151" lon="0.83286">
        <ele>126.7</ele>
        <time>1970-01-01T00:17:02.000Z</time>
      </trkpt>
      <trkpt lat="44.90151" lon="0.83289">
        <ele>126.7</ele>
        <time>1970-01-01T00:17:03.000Z</time>
      </trkpt>
      <trkpt lat="44.90151" lon="0.83292">
        <ele>128.7</ele>
        <time>1970-01-01T00:17:04.000Z</time>
      </trkpt>
      <trkpt lat="44.9015" lon="0.83295">
        <ele>128.7</ele>
        <time>1970-01-01T00:17:05.000Z</time>
      </trkpt>
      <trkpt lat="44.90149" lon="0.83298">
        <ele>128.6</ele>
        <time>1970-01-01T00:17:06.000Z</time>
      </trkpt>
      <trkpt lat="44.90149" lon="0.83302">
        <ele>128.6</ele>
        <time>1970-01-01T00:17:07.000Z</time>
      </trkpt>
      <trkpt lat="44.90149" lon="0.83305">
        <ele>128.6</ele>
        <time>1970-01-01T00:17:08.000Z</time>
      </trkpt>
      <trkpt lat="44.90148" lon="0.83308">
        <ele>129.4</ele>
        <time>1970-01-01T00:17:09.000Z</time>
      </trkpt>
      <trkpt lat="44.90148" lon="0.83312">
        <ele>129.4</ele>
        <time>1970-01-01T00:17:10.000Z</time>
      </trkpt>
      <trkpt lat="44.90148" lon="0.83315">
        <ele>129.4</ele>
        <time>1970-01-01T00:17:11.000Z</time>
      </trkpt>
      <trkpt lat="44.90148" lon="0.83318">
        <ele>130.5</ele>
        <time>1970-01-01T00:17:12.000Z</time>
      </trkpt>
      <trkpt lat="44.90149" lon="0.83321">
        <ele>130.5</ele>
        <time>1970-01-01T00:17:13.000Z</time>
      </trkpt>
      <trkpt lat="44.90149" lon="0.83324">
        <ele>130.4</ele>
        <time>1970-01-01T00:17:14.000Z</time>
      </trkpt>
      <trkpt lat="44.90149" lon="0.83327">
        <ele>132.2</ele>
        <time>1970-01-01T00:17:15.000Z</time>
      </trkpt>
      <trkpt lat="44.90149" lon="0.8333">
        <ele>132.2</ele>
        <time>1970-01-01T00:17:16.000Z</time>
      </trkpt>
      <trkpt lat="44.90149" lon="0.83333">
        <ele>132.1</ele>
        <time>1970-01-01T00:17:17.000Z</time>
      </trkpt>
      <trkpt lat="44.9015" lon="0.83336">
        <ele>132.1</ele>
        <time>1970-01-01T00:17:18.000Z</time>
      </trkpt>
      <trkpt lat="44.9015" lon="0.83339">
        <ele>132.1</ele>
        <time>1970-01-01T00:17:19.000Z</time>
      </trkpt>
      <trkpt lat="44.9015" lon="0.83342">
        <ele>133.6</ele>
        <time>1970-01-01T00:17:20.000Z</time>
      </trkpt>
      <trkpt lat="44.9015" lon="0.83345">
        <ele>133.6</ele>
        <time>1970-01-01T00:17:21.000Z</time>
      </trkpt>
      <trkpt lat="44.90151" lon="0.83348">
        <ele>133.5</ele>
        <time>1970-01-01T00:17:22.000Z</time>
      </trkpt>
      <trkpt lat="44.90151" lon="0.83351">
        <ele>133.5</ele>
        <time>1970-01-01T00:17:23.000Z</time>
      </trkpt>
      <trkpt lat="44.90152" lon="0.83354">
        <ele>133.5</ele>
        <time>1970-01-01T00:17:24.000Z</time>
      </trkpt>
      <trkpt lat="44.90152" lon="0.83357">
        <ele>133.4</ele>
        <time>1970-01-01T00:17:25.000Z</time>
      </trkpt>
      <trkpt lat="44.90152" lon="0.8336">
        <ele>134.8</ele>
        <time>1970-01-01T00:17:26.000Z</time>
      </trkpt>
      <trkpt lat="44.90153" lon="0.83362">
        <ele>134.8</ele>
        <time>1970-01-01T00:17:27.000Z</time>
      </trkpt>
      <trkpt lat="44.90154" lon="0.83365">
        <ele>134.8</ele>
        <time>1970-01-01T00:17:28.000Z</time>
      </trkpt>
      <trkpt lat="44.90155" lon="0.83368">
        <ele>134.7</ele>
        <time>1970-01-01T00:17:29.000Z</time>
      </trkpt>
      <trkpt lat="44.90155" lon="0.83371">
        <ele>134.7</ele>
        <time>1970-01-01T00:17:30.000Z</time>
      </trkpt>
      <trkpt lat="44.90155" lon="0.83374">
        <ele>134.6</ele>
        <time>1970-01-01T00:17:31.000Z</time>
      </trkpt>
      <trkpt lat="44.90156" lon="0.83377">
        <ele>136</ele>
        <time>1970-01-01T00:17:32.000Z</time>
      </trkpt>
      <trkpt lat="44.90157" lon="0.8338">
        <ele>136</ele>
        <time>1970-01-01T00:17:33.000Z</time>
      </trkpt>
      <trkpt lat="44.90158" lon="0.83383">
        <ele>136</ele>
        <time>1970-01-01T00:17:34.000Z</time>
      </trkpt>
      <trkpt lat="44.90159" lon="0.83386">
        <ele>135.9</ele>
        <time>1970-01-01T00:17:35.000Z</time>
      </trkpt>
      <trkpt lat="44.9016" lon="0.83389">
        <ele>135.9</ele>
        <time>1970-01-01T00:17:36.000Z</time>
      </trkpt>
      <trkpt lat="44.90161" lon="0.83392">
        <ele>137.1</ele>
        <time>1970-01-01T00:17:37.000Z</time>
      </trkpt>
      <trkpt lat="44.90162" lon="0.83395">
        <ele>138.8</ele>
        <time>1970-01-01T00:17:38.000Z</time>
      </trkpt>
      <trkpt lat="44.90163" lon="0.83397">
        <ele>138.7</ele>
        <time>1970-01-01T00:17:39.000Z</time>
      </trkpt>
      <trkpt lat="44.90163" lon="0.834">
        <ele>138.7</ele>
        <time>1970-01-01T00:17:40.000Z</time>
      </trkpt>
      <trkpt lat="44.90164" lon="0.83403">
        <ele>138.7</ele>
        <time>1970-01-01T00:17:41.000Z</time>
      </trkpt>
      <trkpt lat="44.90166" lon="0.83406">
        <ele>138.6</ele>
        <time>1970-01-01T00:17:42.000Z</time>
      </trkpt>
      <trkpt lat="44.90167" lon="0.83409">
        <ele>138.6</ele>
        <time>1970-01-01T00:17:43.000Z</time>
      </trkpt>
      <trkpt lat="44.90168" lon="0.83412">
        <ele>139.9</ele>
        <time>1970-01-01T00:17:44.000Z</time>
      </trkpt>
      <trkpt lat="44.9017" lon="0.83416">
        <ele>139.9</ele>
        <time>1970-01-01T00:17:45.000Z</time>
      </trkpt>
      <trkpt lat="44.90171" lon="0.83419">
        <ele>139.9</ele>
        <time>1970-01-01T00:17:46.000Z</time>
      </trkpt>
      <trkpt lat="44.90172" lon="0.83422">
        <ele>139.8</ele>
        <time>1970-01-01T00:17:47.000Z</time>
      </trkpt>
      <trkpt lat="44.90173" lon="0.83425">
        <ele>141.3</ele>
        <time>1970-01-01T00:17:48.000Z</time>
      </trkpt>
      <trkpt lat="44.90175" lon="0.83427">
        <ele>141.3</ele>
        <time>1970-01-01T00:17:49.000Z</time>
      </trkpt>
      <trkpt lat="44.90176" lon="0.8343">
        <ele>142.5</ele>
        <time>1970-01-01T00:17:50.000Z</time>
      </trkpt>
      <trkpt lat="44.90177" lon="0.83433">
        <ele>142.4</ele>
        <time>1970-01-01T00:17:51.000Z</time>
      </trkpt>
      <trkpt lat="44.90178" lon="0.83435">
        <ele>142.4</ele>
        <time>1970-01-01T00:17:52.000Z</time>
      </trkpt>
      <trkpt lat="44.90179" lon="0.83438">
        <ele>142.4</ele>
        <time>1970-01-01T00:17:53.000Z</time>
      </trkpt>
      <trkpt lat="44.9018" lon="0.83441">
        <ele>142.3</ele>
        <time>1970-01-01T00:17:54.000Z</time>
      </trkpt>
      <trkpt lat="44.90181" lon="0.83444">
        <ele>142.3</ele>
        <time>1970-01-01T00:17:55.000Z</time>
      </trkpt>
      <trkpt lat="44.90182" lon="0.83447">
        <ele>143.5</ele>
        <time>1970-01-01T00:17:56.000Z</time>
      </trkpt>
      <trkpt lat="44.90183" lon="0.83449">
        <ele>143.5</ele>
        <time>1970-01-01T00:17:57.000Z</time>
      </trkpt>
      <trkpt lat="44.90184" lon="0.83452">
        <ele>143.5</ele>
        <time>1970-01-01T00:17:58.000Z</time>
      </trkpt>
      <trkpt lat="44.90184" lon="0.83456">
        <ele>143.4</ele>
        <time>1970-01-01T00:17:59.000Z</time>
      </trkpt>
      <trkpt lat="44.90185" lon="0.83459">
        <ele>143.4</ele>
        <time>1970-01-01T00:18:00.000Z</time>
      </trkpt>
      <trkpt lat="44.90185" lon="0.83462">
        <ele>144.9</ele>
        <time>1970-01-01T00:18:01.000Z</time>
      </trkpt>
      <trkpt lat="44.90186" lon="0.83465">
        <ele>145.7</ele>
        <time>1970-01-01T00:18:02.000Z</time>
      </trkpt>
      <trkpt lat="44.90187" lon="0.83468">
        <ele>145.7</ele>
        <time>1970-01-01T00:18:03.000Z</time>
      </trkpt>
      <trkpt lat="44.90188" lon="0.83471">
        <ele>145.7</ele>
        <time>1970-01-01T00:18:04.000Z</time>
      </trkpt>
      <trkpt lat="44.90189" lon="0.83473">
        <ele>145.6</ele>
        <time>1970-01-01T00:18:05.000Z</time>
      </trkpt>
      <trkpt lat="44.9019" lon="0.83476">
        <ele>145.6</ele>
        <time>1970-01-01T00:18:06.000Z</time>
      </trkpt>
      <trkpt lat="44.90191" lon="0.83479">
        <ele>146.4</ele>
        <time>1970-01-01T00:18:07.000Z</time>
      </trkpt>
      <trkpt lat="44.90192" lon="0.83482">
        <ele>146.4</ele>
        <time>1970-01-01T00:18:08.000Z</time>
      </trkpt>
      <trkpt lat="44.90193" lon="0.83484">
        <ele>146.3</ele>
        <time>1970-01-01T00:18:09.000Z</time>
      </trkpt>
      <trkpt lat="44.90194" lon="0.83486">
        <ele>146.3</ele>
        <time>1970-01-01T00:18:10.000Z</time>
      </trkpt>
      <trkpt lat="44.90195" lon="0.83488">
        <ele>146.2</ele>
        <time>1970-01-01T00:18:11.000Z</time>
      </trkpt>
      <trkpt lat="44.90196" lon="0.83491">
        <ele>146.2</ele>
        <time>1970-01-01T00:18:12.000Z</time>
      </trkpt>
      <trkpt lat="44.90197" lon="0.83493">
        <ele>146.2</ele>
        <time>1970-01-01T00:18:13.000Z</time>
      </trkpt>
      <trkpt lat="44.90197" lon="0.83495">
        <ele>147.6</ele>
        <time>1970-01-01T00:18:14.000Z</time>
      </trkpt>
      <trkpt lat="44.90198" lon="0.83498">
        <ele>148.6</ele>
        <time>1970-01-01T00:18:15.000Z</time>
      </trkpt>
      <trkpt lat="44.90199" lon="0.835">
        <ele>148.5</ele>
        <time>1970-01-01T00:18:16.000Z</time>
      </trkpt>
      <trkpt lat="44.902" lon="0.83503">
        <ele>148.5</ele>
        <time>1970-01-01T00:18:17.000Z</time>
      </trkpt>
      <trkpt lat="44.902" lon="0.83506">
        <ele>148.4</ele>
        <time>1970-01-01T00:18:18.000Z</time>
      </trkpt>
      <trkpt lat="44.90201" lon="0.83508">
        <ele>148.4</ele>
        <time>1970-01-01T00:18:19.000Z</time>
      </trkpt>
      <trkpt lat="44.90201" lon="0.83511">
        <ele>148.4</ele>
        <time>1970-01-01T00:18:20.000Z</time>
      </trkpt>
      <trkpt lat="44.90202" lon="0.83514">
        <ele>149.3</ele>
        <time>1970-01-01T00:18:21.000Z</time>
      </trkpt>
      <trkpt lat="44.90201" lon="0.83518">
        <ele>149.2</ele>
        <time>1970-01-01T00:18:22.000Z</time>
      </trkpt>
      <trkpt lat="44.90201" lon="0.83521">
        <ele>149.2</ele>
        <time>1970-01-01T00:18:23.000Z</time>
      </trkpt>
      <trkpt lat="44.90201" lon="0.83525">
        <ele>149.1</ele>
        <time>1970-01-01T00:18:24.000Z</time>
      </trkpt>
      <trkpt lat="44.90201" lon="0.83528">
        <ele>149.1</ele>
        <time>1970-01-01T00:18:25.000Z</time>
      </trkpt>
      <trkpt lat="44.902" lon="0.83531">
        <ele>150</ele>
        <time>1970-01-01T00:18:26.000Z</time>
      </trkpt>
      <trkpt lat="44.902" lon="0.83534">
        <ele>149.9</ele>
        <time>1970-01-01T00:18:27.000Z</time>
      </trkpt>
      <trkpt lat="44.902" lon="0.83537">
        <ele>149.9</ele>
        <time>1970-01-01T00:18:28.000Z</time>
      </trkpt>
      <trkpt lat="44.90201" lon="0.83541">
        <ele>149.8</ele>
        <time>1970-01-01T00:18:29.000Z</time>
      </trkpt>
      <trkpt lat="44.90201" lon="0.83544">
        <ele>149.8</ele>
        <time>1970-01-01T00:18:30.000Z</time>
      </trkpt>
      <trkpt lat="44.90202" lon="0.83547">
        <ele>149.7</ele>
        <time>1970-01-01T00:18:31.000Z</time>
      </trkpt>
      <trkpt lat="44.90202" lon="0.8355">
        <ele>150.3</ele>
        <time>1970-01-01T00:18:32.000Z</time>
      </trkpt>
      <trkpt lat="44.90203" lon="0.83553">
        <ele>150.3</ele>
        <time>1970-01-01T00:18:33.000Z</time>
      </trkpt>
      <trkpt lat="44.90204" lon="0.83556">
        <ele>150.2</ele>
        <time>1970-01-01T00:18:34.000Z</time>
      </trkpt>
      <trkpt lat="44.90205" lon="0.83558">
        <ele>150.2</ele>
        <time>1970-01-01T00:18:35.000Z</time>
      </trkpt>
      <trkpt lat="44.90206" lon="0.83561">
        <ele>150.2</ele>
        <time>1970-01-01T00:18:36.000Z</time>
      </trkpt>
      <trkpt lat="44.90207" lon="0.83563">
        <ele>150.1</ele>
        <time>1970-01-01T00:18:37.000Z</time>
      </trkpt>
      <trkpt lat="44.90208" lon="0.83566">
        <ele>150.8</ele>
        <time>1970-01-01T00:18:38.000Z</time>
      </trkpt>
      <trkpt lat="44.90209" lon="0.83568">
        <ele>151.8</ele>
        <time>1970-01-01T00:18:39.000Z</time>
      </trkpt>
      <trkpt lat="44.9021" lon="0.83571">
        <ele>151.8</ele>
        <time>1970-01-01T00:18:40.000Z</time>
      </trkpt>
      <trkpt lat="44.90211" lon="0.83573">
        <ele>151.8</ele>
        <time>1970-01-01T00:18:41.000Z</time>
      </trkpt>
      <trkpt lat="44.90213" lon="0.83576">
        <ele>151.7</ele>
        <time>1970-01-01T00:18:42.000Z</time>
      </trkpt>
      <trkpt lat="44.90214" lon="0.83578">
        <ele>151.7</ele>
        <time>1970-01-01T00:18:43.000Z</time>
      </trkpt>
      <trkpt lat="44.90215" lon="0.8358">
        <ele>151.6</ele>
        <time>1970-01-01T00:18:44.000Z</time>
      </trkpt>
      <trkpt lat="44.90216" lon="0.83583">
        <ele>152.6</ele>
        <time>1970-01-01T00:18:45.000Z</time>
      </trkpt>
      <trkpt lat="44.90217" lon="0.83585">
        <ele>152.5</ele>
        <time>1970-01-01T00:18:46.000Z</time>
      </trkpt>
      <trkpt lat="44.90218" lon="0.83588">
        <ele>152.5</ele>
        <time>1970-01-01T00:18:47.000Z</time>
      </trkpt>
      <trkpt lat="44.90219" lon="0.83591">
        <ele>152.4</ele>
        <time>1970-01-01T00:18:48.000Z</time>
      </trkpt>
      <trkpt lat="44.9022" lon="0.83593">
        <ele>152.4</ele>
        <time>1970-01-01T00:18:49.000Z</time>
      </trkpt>
      <trkpt lat="44.90222" lon="0.83596">
        <ele>153.3</ele>
        <time>1970-01-01T00:18:50.000Z</time>
      </trkpt>
      <trkpt lat="44.90223" lon="0.83599">
        <ele>153.3</ele>
        <time>1970-01-01T00:18:51.000Z</time>
      </trkpt>
      <trkpt lat="44.90224" lon="0.83602">
        <ele>153.9</ele>
        <time>1970-01-01T00:18:52.000Z</time>
      </trkpt>
      <trkpt lat="44.90225" lon="0.83605">
        <ele>153.9</ele>
        <time>1970-01-01T00:18:53.000Z</time>
      </trkpt>
      <trkpt lat="44.90227" lon="0.83608">
        <ele>153.8</ele>
        <time>1970-01-01T00:18:54.000Z</time>
      </trkpt>
      <trkpt lat="44.90228" lon="0.83611">
        <ele>153.8</ele>
        <time>1970-01-01T00:18:55.000Z</time>
      </trkpt>
      <trkpt lat="44.9023" lon="0.83613">
        <ele>153.7</ele>
        <time>1970-01-01T00:18:56.000Z</time>
      </trkpt>
      <trkpt lat="44.90232" lon="0.83616">
        <ele>153.7</ele>
        <time>1970-01-01T00:18:57.000Z</time>
      </trkpt>
      <trkpt lat="44.90234" lon="0.83619">
        <ele>154.9</ele>
        <time>1970-01-01T00:18:58.000Z</time>
      </trkpt>
      <trkpt lat="44.90236" lon="0.83623">
        <ele>154.8</ele>
        <time>1970-01-01T00:18:59.000Z</time>
      </trkpt>
      <trkpt lat="44.90238" lon="0.83626">
        <ele>154.8</ele>
        <time>1970-01-01T00:19:00.000Z</time>
      </trkpt>
      <trkpt lat="44.9024" lon="0.8363">
        <ele>154.7</ele>
        <time>1970-01-01T00:19:01.000Z</time>
      </trkpt>
      <trkpt lat="44.90242" lon="0.83634">
        <ele>155.4</ele>
        <time>1970-01-01T00:19:02.000Z</time>
      </trkpt>
      <trkpt lat="44.90244" lon="0.83637">
        <ele>155.4</ele>
        <time>1970-01-01T00:19:03.000Z</time>
      </trkpt>
      <trkpt lat="44.90245" lon="0.83641">
        <ele>155.3</ele>
        <time>1970-01-01T00:19:04.000Z</time>
      </trkpt>
      <trkpt lat="44.90247" lon="0.83644">
        <ele>155.9</ele>
        <time>1970-01-01T00:19:05.000Z</time>
      </trkpt>
      <trkpt lat="44.90248" lon="0.83647">
        <ele>155.8</ele>
        <time>1970-01-01T00:19:06.000Z</time>
      </trkpt>
      <trkpt lat="44.9025" lon="0.8365">
        <ele>155.8</ele>
        <time>1970-01-01T00:19:07.000Z</time>
      </trkpt>
      <trkpt lat="44.90251" lon="0.83652">
        <ele>156.3</ele>
        <time>1970-01-01T00:19:08.000Z</time>
      </trkpt>
      <trkpt lat="44.90251" lon="0.83656">
        <ele>156.2</ele>
        <time>1970-01-01T00:19:09.000Z</time>
      </trkpt>
      <trkpt lat="44.90252" lon="0.8366">
        <ele>156.2</ele>
        <time>1970-01-01T00:19:10.000Z</time>
      </trkpt>
      <trkpt lat="44.90252" lon="0.83664">
        <ele>156.2</ele>
        <time>1970-01-01T00:19:11.000Z</time>
      </trkpt>
      <trkpt lat="44.90251" lon="0.83668">
        <ele>156.5</ele>
        <time>1970-01-01T00:19:12.000Z</time>
      </trkpt>
      <trkpt lat="44.9025" lon="0.83671">
        <ele>156.5</ele>
        <time>1970-01-01T00:19:13.000Z</time>
      </trkpt>
      <trkpt lat="44.90248" lon="0.83673">
        <ele>156.4</ele>
        <time>1970-01-01T00:19:14.000Z</time>
      </trkpt>
      <trkpt lat="44.90244" lon="0.83675">
        <ele>155.8</ele>
        <time>1970-01-01T00:19:15.000Z</time>
      </trkpt>
      <trkpt lat="44.90241" lon="0.83677">
        <ele>155.8</ele>
        <time>1970-01-01T00:19:16.000Z</time>
      </trkpt>
      <trkpt lat="44.90239" lon="0.83679">
        <ele>155.8</ele>
        <time>1970-01-01T00:19:17.000Z</time>
      </trkpt>
      <trkpt lat="44.90237" lon="0.83681">
        <ele>155.7</ele>
        <time>1970-01-01T00:19:18.000Z</time>
      </trkpt>
      <trkpt lat="44.90234" lon="0.83683">
        <ele>155.7</ele>
        <time>1970-01-01T00:19:19.000Z</time>
      </trkpt>
      <trkpt lat="44.90232" lon="0.83684">
        <ele>155.2</ele>
        <time>1970-01-01T00:19:20.000Z</time>
      </trkpt>
      <trkpt lat="44.9023" lon="0.83686">
        <ele>155.4</ele>
        <time>1970-01-01T00:19:21.000Z</time>
      </trkpt>
      <trkpt lat="44.90227" lon="0.83688">
        <ele>155.4</ele>
        <time>1970-01-01T00:19:22.000Z</time>
      </trkpt>
      <trkpt lat="44.90225" lon="0.83692">
        <ele>155.3</ele>
        <time>1970-01-01T00:19:23.000Z</time>
      </trkpt>
      <trkpt lat="44.90224" lon="0.83695">
        <ele>155.3</ele>
        <time>1970-01-01T00:19:24.000Z</time>
      </trkpt>
      <trkpt lat="44.90222" lon="0.837">
        <ele>155.2</ele>
        <time>1970-01-01T00:19:25.000Z</time>
      </trkpt>
      <trkpt lat="44.9022" lon="0.83706">
        <ele>155.2</ele>
        <time>1970-01-01T00:19:26.000Z</time>
      </trkpt>
      <trkpt lat="44.90217" lon="0.83712">
        <ele>155.1</ele>
        <time>1970-01-01T00:19:27.000Z</time>
      </trkpt>
      <trkpt lat="44.90215" lon="0.83717">
        <ele>155.1</ele>
        <time>1970-01-01T00:19:28.000Z</time>
      </trkpt>
      <trkpt lat="44.90214" lon="0.83722">
        <ele>155.3</ele>
        <time>1970-01-01T00:19:29.000Z</time>
      </trkpt>
      <trkpt lat="44.90212" lon="0.83727">
        <ele>155.3</ele>
        <time>1970-01-01T00:19:30.000Z</time>
      </trkpt>
      <trkpt lat="44.90212" lon="0.83732">
        <ele>155.3</ele>
        <time>1970-01-01T00:19:31.000Z</time>
      </trkpt>
      <trkpt lat="44.90211" lon="0.83736">
        <ele>155.2</ele>
        <time>1970-01-01T00:19:32.000Z</time>
      </trkpt>
      <trkpt lat="44.9021" lon="0.83741">
        <ele>155.4</ele>
        <time>1970-01-01T00:19:33.000Z</time>
      </trkpt>
      <trkpt lat="44.9021" lon="0.83745">
        <ele>155.4</ele>
        <time>1970-01-01T00:19:34.000Z</time>
      </trkpt>
      <trkpt lat="44.90209" lon="0.8375">
        <ele>155.3</ele>
        <time>1970-01-01T00:19:35.000Z</time>
      </trkpt>
      <trkpt lat="44.90209" lon="0.83755">
        <ele>155.5</ele>
        <time>1970-01-01T00:19:36.000Z</time>
      </trkpt>
      <trkpt lat="44.9021" lon="0.83761">
        <ele>155.4</ele>
        <time>1970-01-01T00:19:37.000Z</time>
      </trkpt>
      <trkpt lat="44.9021" lon="0.83766">
        <ele>155.4</ele>
        <time>1970-01-01T00:19:38.000Z</time>
      </trkpt>
      <trkpt lat="44.90211" lon="0.83772">
        <ele>155.4</ele>
        <time>1970-01-01T00:19:39.000Z</time>
      </trkpt>
      <trkpt lat="44.90211" lon="0.83778">
        <ele>155.4</ele>
        <time>1970-01-01T00:19:40.000Z</time>
      </trkpt>
      <trkpt lat="44.90212" lon="0.83784">
        <ele>155.3</ele>
        <time>1970-01-01T00:19:41.000Z</time>
      </trkpt>
      <trkpt lat="44.90211" lon="0.8379">
        <ele>155.4</ele>
        <time>1970-01-01T00:19:42.000Z</time>
      </trkpt>
      <trkpt lat="44.90211" lon="0.83796">
        <ele>155.4</ele>
        <time>1970-01-01T00:19:43.000Z</time>
      </trkpt>
      <trkpt lat="44.90211" lon="0.83802">
        <ele>155.3</ele>
        <time>1970-01-01T00:19:44.000Z</time>
      </trkpt>
      <trkpt lat="44.90211" lon="0.83808">
        <ele>155.4</ele>
        <time>1970-01-01T00:19:45.000Z</time>
      </trkpt>
      <trkpt lat="44.90211" lon="0.83815">
        <ele>155.4</ele>
        <time>1970-01-01T00:19:46.000Z</time>
      </trkpt>
      <trkpt lat="44.90212" lon="0.83821">
        <ele>155.3</ele>
        <time>1970-01-01T00:19:47.000Z</time>
      </trkpt>
      <trkpt lat="44.90211" lon="0.83828">
        <ele>155.1</ele>
        <time>1970-01-01T00:19:48.000Z</time>
      </trkpt>
      <trkpt lat="44.90211" lon="0.83834">
        <ele>155</ele>
        <time>1970-01-01T00:19:49.000Z</time>
      </trkpt>
      <trkpt lat="44.9021" lon="0.8384">
        <ele>154.5</ele>
        <time>1970-01-01T00:19:50.000Z</time>
      </trkpt>
      <trkpt lat="44.9021" lon="0.83846">
        <ele>154.4</ele>
        <time>1970-01-01T00:19:51.000Z</time>
      </trkpt>
      <trkpt lat="44.90209" lon="0.83852">
        <ele>155.4</ele>
        <time>1970-01-01T00:19:52.000Z</time>
      </trkpt>
      <trkpt lat="44.90208" lon="0.83859">
        <ele>155</ele>
        <time>1970-01-01T00:19:53.000Z</time>
      </trkpt>
      <trkpt lat="44.90206" lon="0.83867">
        <ele>155</ele>
        <time>1970-01-01T00:19:54.000Z</time>
      </trkpt>
      <trkpt lat="44.90204" lon="0.83874">
        <ele>155</ele>
        <time>1970-01-01T00:19:55.000Z</time>
      </trkpt>
      <trkpt lat="44.90202" lon="0.83882">
        <ele>155</ele>
        <time>1970-01-01T00:19:56.000Z</time>
      </trkpt>
      <trkpt lat="44.90201" lon="0.8389">
        <ele>154.9</ele>
        <time>1970-01-01T00:19:57.000Z</time>
      </trkpt>
      <trkpt lat="44.90199" lon="0.83897">
        <ele>155.1</ele>
        <time>1970-01-01T00:19:58.000Z</time>
      </trkpt>
      <trkpt lat="44.90197" lon="0.83904">
        <ele>156.6</ele>
        <time>1970-01-01T00:19:59.000Z</time>
      </trkpt>
      <trkpt lat="44.90195" lon="0.8391">
        <ele>156.7</ele>
        <time>1970-01-01T00:20:00.000Z</time>
      </trkpt>
      <trkpt lat="44.90192" lon="0.83916">
        <ele>156.7</ele>
        <time>1970-01-01T00:20:01.000Z</time>
      </trkpt>
      <trkpt lat="44.9019" lon="0.83922">
        <ele>156.6</ele>
        <time>1970-01-01T00:20:02.000Z</time>
      </trkpt>
      <trkpt lat="44.90188" lon="0.83927">
        <ele>156.2</ele>
        <time>1970-01-01T00:20:03.000Z</time>
      </trkpt>
      <trkpt lat="44.90186" lon="0.83933">
        <ele>156.2</ele>
        <time>1970-01-01T00:20:04.000Z</time>
      </trkpt>
      <trkpt lat="44.90184" lon="0.83939">
        <ele>157.6</ele>
        <time>1970-01-01T00:20:05.000Z</time>
      </trkpt>
      <trkpt lat="44.90182" lon="0.83944">
        <ele>157</ele>
        <time>1970-01-01T00:20:06.000Z</time>
      </trkpt>
      <trkpt lat="44.9018" lon="0.8395">
        <ele>157</ele>
        <time>1970-01-01T00:20:07.000Z</time>
      </trkpt>
      <trkpt lat="44.90179" lon="0.83956">
        <ele>156.9</ele>
        <time>1970-01-01T00:20:08.000Z</time>
      </trkpt>
      <trkpt lat="44.90179" lon="0.83963">
        <ele>156.6</ele>
        <time>1970-01-01T00:20:09.000Z</time>
      </trkpt>
      <trkpt lat="44.90179" lon="0.8397">
        <ele>156.5</ele>
        <time>1970-01-01T00:20:10.000Z</time>
      </trkpt>
      <trkpt lat="44.9018" lon="0.83978">
        <ele>156.4</ele>
        <time>1970-01-01T00:20:11.000Z</time>
      </trkpt>
      <trkpt lat="44.90182" lon="0.83986">
        <ele>156.3</ele>
        <time>1970-01-01T00:20:12.000Z</time>
      </trkpt>
      <trkpt lat="44.90185" lon="0.83995">
        <ele>156.1</ele>
        <time>1970-01-01T00:20:13.000Z</time>
      </trkpt>
      <trkpt lat="44.90187" lon="0.84004">
        <ele>154</ele>
        <time>1970-01-01T00:20:14.000Z</time>
      </trkpt>
      <trkpt lat="44.9019" lon="0.84013">
        <ele>153.6</ele>
        <time>1970-01-01T00:20:15.000Z</time>
      </trkpt>
      <trkpt lat="44.90193" lon="0.84022">
        <ele>153.6</ele>
        <time>1970-01-01T00:20:16.000Z</time>
      </trkpt>
      <trkpt lat="44.90196" lon="0.84031">
        <ele>153.1</ele>
        <time>1970-01-01T00:20:17.000Z</time>
      </trkpt>
      <trkpt lat="44.90199" lon="0.84039">
        <ele>150.9</ele>
        <time>1970-01-01T00:20:18.000Z</time>
      </trkpt>
      <trkpt lat="44.90202" lon="0.84047">
        <ele>150.6</ele>
        <time>1970-01-01T00:20:19.000Z</time>
      </trkpt>
      <trkpt lat="44.90205" lon="0.84055">
        <ele>150.6</ele>
        <time>1970-01-01T00:20:20.000Z</time>
      </trkpt>
      <trkpt lat="44.90208" lon="0.84064">
        <ele>150.1</ele>
        <time>1970-01-01T00:20:21.000Z</time>
      </trkpt>
      <trkpt lat="44.90211" lon="0.84072">
        <ele>148.3</ele>
        <time>1970-01-01T00:20:22.000Z</time>
      </trkpt>
      <trkpt lat="44.90213" lon="0.84082">
        <ele>147.7</ele>
        <time>1970-01-01T00:20:23.000Z</time>
      </trkpt>
      <trkpt lat="44.90215" lon="0.84091">
        <ele>147.7</ele>
        <time>1970-01-01T00:20:24.000Z</time>
      </trkpt>
      <trkpt lat="44.90217" lon="0.841">
        <ele>147.2</ele>
        <time>1970-01-01T00:20:25.000Z</time>
      </trkpt>
      <trkpt lat="44.90218" lon="0.84109">
        <ele>147.1</ele>
        <time>1970-01-01T00:20:26.000Z</time>
      </trkpt>
      <trkpt lat="44.9022" lon="0.84119">
        <ele>146.7</ele>
        <time>1970-01-01T00:20:27.000Z</time>
      </trkpt>
      <trkpt lat="44.90221" lon="0.84128">
        <ele>146.6</ele>
        <time>1970-01-01T00:20:28.000Z</time>
      </trkpt>
      <trkpt lat="44.90221" lon="0.84137">
        <ele>144.8</ele>
        <time>1970-01-01T00:20:29.000Z</time>
      </trkpt>
      <trkpt lat="44.90222" lon="0.84146">
        <ele>144.8</ele>
        <time>1970-01-01T00:20:30.000Z</time>
      </trkpt>
      <trkpt lat="44.90222" lon="0.84155">
        <ele>144.4</ele>
        <time>1970-01-01T00:20:31.000Z</time>
      </trkpt>
      <trkpt lat="44.90222" lon="0.84164">
        <ele>144.3</ele>
        <time>1970-01-01T00:20:32.000Z</time>
      </trkpt>
      <trkpt lat="44.90222" lon="0.84173">
        <ele>143.7</ele>
        <time>1970-01-01T00:20:33.000Z</time>
      </trkpt>
      <trkpt lat="44.9022" lon="0.84182">
        <ele>145.2</ele>
        <time>1970-01-01T00:20:34.000Z</time>
      </trkpt>
      <trkpt lat="44.90219" lon="0.84191">
        <ele>144.6</ele>
        <time>1970-01-01T00:20:35.000Z</time>
      </trkpt>
      <trkpt lat="44.90217" lon="0.84199">
        <ele>144.5</ele>
        <time>1970-01-01T00:20:36.000Z</time>
      </trkpt>
      <trkpt lat="44.90214" lon="0.84206">
        <ele>143.7</ele>
        <time>1970-01-01T00:20:37.000Z</time>
      </trkpt>
      <trkpt lat="44.90211" lon="0.84214">
        <ele>143.6</ele>
        <time>1970-01-01T00:20:38.000Z</time>
      </trkpt>
      <trkpt lat="44.90208" lon="0.8422">
        <ele>143.2</ele>
        <time>1970-01-01T00:20:39.000Z</time>
      </trkpt>
      <trkpt lat="44.90204" lon="0.84224">
        <ele>143.1</ele>
        <time>1970-01-01T00:20:40.000Z</time>
      </trkpt>
      <trkpt lat="44.90199" lon="0.84226">
        <ele>143.1</ele>
        <time>1970-01-01T00:20:41.000Z</time>
      </trkpt>
      <trkpt lat="44.90194" lon="0.84228">
        <ele>143.7</ele>
        <time>1970-01-01T00:20:42.000Z</time>
      </trkpt>
      <trkpt lat="44.90189" lon="0.8423">
        <ele>143.6</ele>
        <time>1970-01-01T00:20:43.000Z</time>
      </trkpt>
      <trkpt lat="44.90185" lon="0.84231">
        <ele>144</ele>
        <time>1970-01-01T00:20:44.000Z</time>
      </trkpt>
      <trkpt lat="44.90181" lon="0.84233">
        <ele>144.3</ele>
        <time>1970-01-01T00:20:45.000Z</time>
      </trkpt>
      <trkpt lat="44.90177" lon="0.84234">
        <ele>144.6</ele>
        <time>1970-01-01T00:20:46.000Z</time>
      </trkpt>
      <trkpt lat="44.90173" lon="0.84234">
        <ele>144.9</ele>
        <time>1970-01-01T00:20:47.000Z</time>
      </trkpt>
      <trkpt lat="44.90169" lon="0.84234">
        <ele>145.2</ele>
        <time>1970-01-01T00:20:48.000Z</time>
      </trkpt>
      <trkpt lat="44.90166" lon="0.84234">
        <ele>145.4</ele>
        <time>1970-01-01T00:20:49.000Z</time>
      </trkpt>
      <trkpt lat="44.90162" lon="0.84234">
        <ele>145.7</ele>
        <time>1970-01-01T00:20:50.000Z</time>
      </trkpt>
      <trkpt lat="44.90158" lon="0.84234">
        <ele>145.9</ele>
        <time>1970-01-01T00:20:51.000Z</time>
      </trkpt>
      <trkpt lat="44.90154" lon="0.84234">
        <ele>146.1</ele>
        <time>1970-01-01T00:20:52.000Z</time>
      </trkpt>
      <trkpt lat="44.90151" lon="0.84234">
        <ele>146.3</ele>
        <time>1970-01-01T00:20:53.000Z</time>
      </trkpt>
      <trkpt lat="44.90147" lon="0.84234">
        <ele>146.5</ele>
        <time>1970-01-01T00:20:54.000Z</time>
      </trkpt>
      <trkpt lat="44.90144" lon="0.84234">
        <ele>146.7</ele>
        <time>1970-01-01T00:20:55.000Z</time>
      </trkpt>
      <trkpt lat="44.9014" lon="0.84235">
        <ele>146.9</ele>
        <time>1970-01-01T00:20:56.000Z</time>
      </trkpt>
      <trkpt lat="44.90136" lon="0.84235">
        <ele>147.1</ele>
        <time>1970-01-01T00:20:57.000Z</time>
      </trkpt>
      <trkpt lat="44.90132" lon="0.84235">
        <ele>147.2</ele>
        <time>1970-01-01T00:20:58.000Z</time>
      </trkpt>
      <trkpt lat="44.90128" lon="0.84235">
        <ele>147.3</ele>
        <time>1970-01-01T00:20:59.000Z</time>
      </trkpt>
      <trkpt lat="44.90124" lon="0.84235">
        <ele>147.5</ele>
        <time>1970-01-01T00:21:00.000Z</time>
      </trkpt>
      <trkpt lat="44.90121" lon="0.84235">
        <ele>147.6</ele>
        <time>1970-01-01T00:21:01.000Z</time>
      </trkpt>
      <trkpt lat="44.90117" lon="0.84235">
        <ele>147.7</ele>
        <time>1970-01-01T00:21:02.000Z</time>
      </trkpt>
      <trkpt lat="44.90113" lon="0.84235">
        <ele>147.7</ele>
        <time>1970-01-01T00:21:03.000Z</time>
      </trkpt>
      <trkpt lat="44.90109" lon="0.84235">
        <ele>147.8</ele>
        <time>1970-01-01T00:21:04.000Z</time>
      </trkpt>
      <trkpt lat="44.90106" lon="0.84235">
        <ele>147.9</ele>
        <time>1970-01-01T00:21:05.000Z</time>
      </trkpt>
      <trkpt lat="44.90103" lon="0.84235">
        <ele>148</ele>
        <time>1970-01-01T00:21:06.000Z</time>
      </trkpt>
      <trkpt lat="44.90099" lon="0.84235">
        <ele>148</ele>
        <time>1970-01-01T00:21:07.000Z</time>
      </trkpt>
      <trkpt lat="44.90095" lon="0.84235">
        <ele>148.1</ele>
        <time>1970-01-01T00:21:08.000Z</time>
      </trkpt>
      <trkpt lat="44.90092" lon="0.84234">
        <ele>148.1</ele>
        <time>1970-01-01T00:21:09.000Z</time>
      </trkpt>
      <trkpt lat="44.90089" lon="0.84233">
        <ele>148.2</ele>
        <time>1970-01-01T00:21:10.000Z</time>
      </trkpt>
      <trkpt lat="44.90086" lon="0.84232">
        <ele>148.3</ele>
        <time>1970-01-01T00:21:11.000Z</time>
      </trkpt>
      <trkpt lat="44.90082" lon="0.84231">
        <ele>148.3</ele>
        <time>1970-01-01T00:21:12.000Z</time>
      </trkpt>
      <trkpt lat="44.90078" lon="0.8423">
        <ele>148.4</ele>
        <time>1970-01-01T00:21:13.000Z</time>
      </trkpt>
      <trkpt lat="44.90074" lon="0.84229">
        <ele>148.5</ele>
        <time>1970-01-01T00:21:14.000Z</time>
      </trkpt>
      <trkpt lat="44.9007" lon="0.84228">
        <ele>148.6</ele>
        <time>1970-01-01T00:21:15.000Z</time>
      </trkpt>
      <trkpt lat="44.90066" lon="0.84227">
        <ele>148.7</ele>
        <time>1970-01-01T00:21:16.000Z</time>
      </trkpt>
      <trkpt lat="44.90061" lon="0.84226">
        <ele>148.8</ele>
        <time>1970-01-01T00:21:17.000Z</time>
      </trkpt>
      <trkpt lat="44.90058" lon="0.84226">
        <ele>148.8</ele>
        <time>1970-01-01T00:21:18.000Z</time>
      </trkpt>
      <trkpt lat="44.90054" lon="0.84224">
        <ele>148.9</ele>
        <time>1970-01-01T00:21:19.000Z</time>
      </trkpt>
      <trkpt lat="44.90051" lon="0.84223">
        <ele>149</ele>
        <time>1970-01-01T00:21:20.000Z</time>
      </trkpt>
      <trkpt lat="44.90047" lon="0.84223">
        <ele>149.1</ele>
        <time>1970-01-01T00:21:21.000Z</time>
      </trkpt>
      <trkpt lat="44.90043" lon="0.84222">
        <ele>149.2</ele>
        <time>1970-01-01T00:21:22.000Z</time>
      </trkpt>
      <trkpt lat="44.90039" lon="0.84221">
        <ele>149.3</ele>
        <time>1970-01-01T00:21:23.000Z</time>
      </trkpt>
      <trkpt lat="44.90034" lon="0.84219">
        <ele>149.4</ele>
        <time>1970-01-01T00:21:24.000Z</time>
      </trkpt>
      <trkpt lat="44.90031" lon="0.84218">
        <ele>149.5</ele>
        <time>1970-01-01T00:21:25.000Z</time>
      </trkpt>
      <trkpt lat="44.90027" lon="0.84218">
        <ele>149.6</ele>
        <time>1970-01-01T00:21:26.000Z</time>
      </trkpt>
      <trkpt lat="44.90024" lon="0.84219">
        <ele>149.7</ele>
        <time>1970-01-01T00:21:27.000Z</time>
      </trkpt>
      <trkpt lat="44.9002" lon="0.84219">
        <ele>149.8</ele>
        <time>1970-01-01T00:21:28.000Z</time>
      </trkpt>
      <trkpt lat="44.90017" lon="0.8422">
        <ele>149.9</ele>
        <time>1970-01-01T00:21:29.000Z</time>
      </trkpt>
      <trkpt lat="44.90013" lon="0.84222">
        <ele>150</ele>
        <time>1970-01-01T00:21:30.000Z</time>
      </trkpt>
      <trkpt lat="44.90009" lon="0.84225">
        <ele>150.2</ele>
        <time>1970-01-01T00:21:31.000Z</time>
      </trkpt>
      <trkpt lat="44.90005" lon="0.84228">
        <ele>150.3</ele>
        <time>1970-01-01T00:21:32.000Z</time>
      </trkpt>
      <trkpt lat="44.90002" lon="0.8423">
        <ele>150.5</ele>
        <time>1970-01-01T00:21:33.000Z</time>
      </trkpt>
      <trkpt lat="44.89998" lon="0.84233">
        <ele>150.6</ele>
        <time>1970-01-01T00:21:34.000Z</time>
      </trkpt>
      <trkpt lat="44.89995" lon="0.84236">
        <ele>150.8</ele>
        <time>1970-01-01T00:21:35.000Z</time>
      </trkpt>
      <trkpt lat="44.89991" lon="0.84239">
        <ele>150.9</ele>
        <time>1970-01-01T00:21:36.000Z</time>
      </trkpt>
      <trkpt lat="44.89987" lon="0.84242">
        <ele>151.1</ele>
        <time>1970-01-01T00:21:37.000Z</time>
      </trkpt>
      <trkpt lat="44.89984" lon="0.84246">
        <ele>151.3</ele>
        <time>1970-01-01T00:21:38.000Z</time>
      </trkpt>
      <trkpt lat="44.8998" lon="0.8425">
        <ele>151.4</ele>
        <time>1970-01-01T00:21:39.000Z</time>
      </trkpt>
      <trkpt lat="44.89977" lon="0.84254">
        <ele>151.6</ele>
        <time>1970-01-01T00:21:40.000Z</time>
      </trkpt>
      <trkpt lat="44.89973" lon="0.84258">
        <ele>151.8</ele>
        <time>1970-01-01T00:21:41.000Z</time>
      </trkpt>
      <trkpt lat="44.8997" lon="0.84263">
        <ele>152.1</ele>
        <time>1970-01-01T00:21:42.000Z</time>
      </trkpt>
      <trkpt lat="44.89967" lon="0.84267">
        <ele>152.3</ele>
        <time>1970-01-01T00:21:43.000Z</time>
      </trkpt>
      <trkpt lat="44.89964" lon="0.8427">
        <ele>152.5</ele>
        <time>1970-01-01T00:21:44.000Z</time>
      </trkpt>
      <trkpt lat="44.8996" lon="0.84274">
        <ele>152.7</ele>
        <time>1970-01-01T00:21:45.000Z</time>
      </trkpt>
      <trkpt lat="44.89957" lon="0.84278">
        <ele>152.9</ele>
        <time>1970-01-01T00:21:46.000Z</time>
      </trkpt>
      <trkpt lat="44.89954" lon="0.84282">
        <ele>153.2</ele>
        <time>1970-01-01T00:21:47.000Z</time>
      </trkpt>
      <trkpt lat="44.89951" lon="0.84286">
        <ele>153.5</ele>
        <time>1970-01-01T00:21:48.000Z</time>
      </trkpt>
      <trkpt lat="44.89947" lon="0.84289">
        <ele>153.8</ele>
        <time>1970-01-01T00:21:49.000Z</time>
      </trkpt>
      <trkpt lat="44.89943" lon="0.84292">
        <ele>154.1</ele>
        <time>1970-01-01T00:21:50.000Z</time>
      </trkpt>
      <trkpt lat="44.8994" lon="0.84295">
        <ele>154.4</ele>
        <time>1970-01-01T00:21:51.000Z</time>
      </trkpt>
      <trkpt lat="44.89936" lon="0.84298">
        <ele>154.8</ele>
        <time>1970-01-01T00:21:52.000Z</time>
      </trkpt>
      <trkpt lat="44.89933" lon="0.84302">
        <ele>155.1</ele>
        <time>1970-01-01T00:21:53.000Z</time>
      </trkpt>
      <trkpt lat="44.8993" lon="0.84305">
        <ele>155.4</ele>
        <time>1970-01-01T00:21:54.000Z</time>
      </trkpt>
      <trkpt lat="44.89927" lon="0.84309">
        <ele>155.7</ele>
        <time>1970-01-01T00:21:55.000Z</time>
      </trkpt>
      <trkpt lat="44.89924" lon="0.84311">
        <ele>156</ele>
        <time>1970-01-01T00:21:56.000Z</time>
      </trkpt>
      <trkpt lat="44.89921" lon="0.84314">
        <ele>156.2</ele>
        <time>1970-01-01T00:21:57.000Z</time>
      </trkpt>
      <trkpt lat="44.89919" lon="0.84317">
        <ele>156.3</ele>
        <time>1970-01-01T00:21:58.000Z</time>
      </trkpt>
      <trkpt lat="44.89917" lon="0.8432">
        <ele>156.5</ele>
        <time>1970-01-01T00:21:59.000Z</time>
      </trkpt>
      <trkpt lat="44.89915" lon="0.84324">
        <ele>156.6</ele>
        <time>1970-01-01T00:22:00.000Z</time>
      </trkpt>
      <trkpt lat="44.89913" lon="0.84328">
        <ele>156.7</ele>
        <time>1970-01-01T00:22:01.000Z</time>
      </trkpt>
      <trkpt lat="44.8991" lon="0.84333">
        <ele>156.8</ele>
        <time>1970-01-01T00:22:02.000Z</time>
      </trkpt>
      <trkpt lat="44.89908" lon="0.84338">
        <ele>156.9</ele>
        <time>1970-01-01T00:22:03.000Z</time>
      </trkpt>
      <trkpt lat="44.89906" lon="0.84344">
        <ele>156.9</ele>
        <time>1970-01-01T00:22:04.000Z</time>
      </trkpt>
      <trkpt lat="44.89903" lon="0.84351">
        <ele>156.8</ele>
        <time>1970-01-01T00:22:05.000Z</time>
      </trkpt>
      <trkpt lat="44.899" lon="0.84359">
        <ele>155.3</ele>
        <time>1970-01-01T00:22:06.000Z</time>
      </trkpt>
      <trkpt lat="44.89897" lon="0.84367">
        <ele>154.7</ele>
        <time>1970-01-01T00:22:07.000Z</time>
      </trkpt>
      <trkpt lat="44.89895" lon="0.84377">
        <ele>153.9</ele>
        <time>1970-01-01T00:22:08.000Z</time>
      </trkpt>
      <trkpt lat="44.89893" lon="0.84387">
        <ele>153.2</ele>
        <time>1970-01-01T00:22:09.000Z</time>
      </trkpt>
      <trkpt lat="44.89891" lon="0.84396">
        <ele>152.6</ele>
        <time>1970-01-01T00:22:10.000Z</time>
      </trkpt>
      <trkpt lat="44.89889" lon="0.84406">
        <ele>151.9</ele>
        <time>1970-01-01T00:22:11.000Z</time>
      </trkpt>
      <trkpt lat="44.89887" lon="0.84415">
        <ele>151.2</ele>
        <time>1970-01-01T00:22:12.000Z</time>
      </trkpt>
      <trkpt lat="44.89884" lon="0.84426">
        <ele>150.4</ele>
        <time>1970-01-01T00:22:13.000Z</time>
      </trkpt>
      <trkpt lat="44.8988" lon="0.84437">
        <ele>149.7</ele>
        <time>1970-01-01T00:22:14.000Z</time>
      </trkpt>
      <trkpt lat="44.89876" lon="0.84448">
        <ele>149</ele>
        <time>1970-01-01T00:22:15.000Z</time>
      </trkpt>
      <trkpt lat="44.89873" lon="0.84458">
        <ele>148.5</ele>
        <time>1970-01-01T00:22:16.000Z</time>
      </trkpt>
      <trkpt lat="44.8987" lon="0.84468">
        <ele>148</ele>
        <time>1970-01-01T00:22:17.000Z</time>
      </trkpt>
      <trkpt lat="44.89868" lon="0.84478">
        <ele>147.6</ele>
        <time>1970-01-01T00:22:18.000Z</time>
      </trkpt>
      <trkpt lat="44.89865" lon="0.84487">
        <ele>147.2</ele>
        <time>1970-01-01T00:22:19.000Z</time>
      </trkpt>
      <trkpt lat="44.89863" lon="0.84495">
        <ele>146.8</ele>
        <time>1970-01-01T00:22:20.000Z</time>
      </trkpt>
      <trkpt lat="44.8986" lon="0.84502">
        <ele>146.4</ele>
        <time>1970-01-01T00:22:21.000Z</time>
      </trkpt>
      <trkpt lat="44.89858" lon="0.84509">
        <ele>146.1</ele>
        <time>1970-01-01T00:22:22.000Z</time>
      </trkpt>
      <trkpt lat="44.89855" lon="0.84514">
        <ele>145.8</ele>
        <time>1970-01-01T00:22:23.000Z</time>
      </trkpt>
      <trkpt lat="44.89853" lon="0.84518">
        <ele>145.5</ele>
        <time>1970-01-01T00:22:24.000Z</time>
      </trkpt>
      <trkpt lat="44.89849" lon="0.84521">
        <ele>145.2</ele>
        <time>1970-01-01T00:22:25.000Z</time>
      </trkpt>
      <trkpt lat="44.89846" lon="0.84523">
        <ele>144.9</ele>
        <time>1970-01-01T00:22:26.000Z</time>
      </trkpt>
      <trkpt lat="44.89844" lon="0.84522">
        <ele>144.6</ele>
        <time>1970-01-01T00:22:27.000Z</time>
      </trkpt>
      <trkpt lat="44.89841" lon="0.84521">
        <ele>144.4</ele>
        <time>1970-01-01T00:22:28.000Z</time>
      </trkpt>
      <trkpt lat="44.89839" lon="0.8452">
        <ele>144.2</ele>
        <time>1970-01-01T00:22:29.000Z</time>
      </trkpt>
      <trkpt lat="44.89839" lon="0.84518">
        <ele>144.1</ele>
        <time>1970-01-01T00:22:30.000Z</time>
      </trkpt>
      <trkpt lat="44.89839" lon="0.84516">
        <ele>144</ele>
        <time>1970-01-01T00:22:31.000Z</time>
      </trkpt>
      <trkpt lat="44.8984" lon="0.84514">
        <ele>143.9</ele>
        <time>1970-01-01T00:22:32.000Z</time>
      </trkpt>
      <trkpt lat="44.89839" lon="0.84513">
        <ele>143.8</ele>
        <time>1970-01-01T00:22:33.000Z</time>
      </trkpt>
      <trkpt lat="44.89838" lon="0.84511">
        <ele>143.7</ele>
        <time>1970-01-01T00:22:34.000Z</time>
      </trkpt>
      <trkpt lat="44.89837" lon="0.84509">
        <ele>143.6</ele>
        <time>1970-01-01T00:22:35.000Z</time>
      </trkpt>
      <trkpt lat="44.89837" lon="0.84507">
        <ele>143.4</ele>
        <time>1970-01-01T00:22:36.000Z</time>
      </trkpt>
      <trkpt lat="44.89836" lon="0.84505">
        <ele>143.3</ele>
        <time>1970-01-01T00:22:37.000Z</time>
      </trkpt>
      <trkpt lat="44.89834" lon="0.84502">
        <ele>143.1</ele>
        <time>1970-01-01T00:22:38.000Z</time>
      </trkpt>
      <trkpt lat="44.89832" lon="0.84499">
        <ele>142.9</ele>
        <time>1970-01-01T00:22:39.000Z</time>
      </trkpt>
      <trkpt lat="44.89831" lon="0.84496">
        <ele>142.7</ele>
        <time>1970-01-01T00:22:40.000Z</time>
      </trkpt>
      <trkpt lat="44.89829" lon="0.84492">
        <ele>142.5</ele>
        <time>1970-01-01T00:22:41.000Z</time>
      </trkpt>
      <trkpt lat="44.89828" lon="0.84488">
        <ele>142.2</ele>
        <time>1970-01-01T00:22:42.000Z</time>
      </trkpt>
      <trkpt lat="44.89826" lon="0.84484">
        <ele>142</ele>
        <time>1970-01-01T00:22:43.000Z</time>
      </trkpt>
      <trkpt lat="44.89824" lon="0.84479">
        <ele>141.8</ele>
        <time>1970-01-01T00:22:44.000Z</time>
      </trkpt>
      <trkpt lat="44.89822" lon="0.84475">
        <ele>141.5</ele>
        <time>1970-01-01T00:22:45.000Z</time>
      </trkpt>
      <trkpt lat="44.8982" lon="0.8447">
        <ele>141.3</ele>
        <time>1970-01-01T00:22:46.000Z</time>
      </trkpt>
      <trkpt lat="44.89817" lon="0.84466">
        <ele>141.1</ele>
        <time>1970-01-01T00:22:47.000Z</time>
      </trkpt>
      <trkpt lat="44.89815" lon="0.84461">
        <ele>140.9</ele>
        <time>1970-01-01T00:22:48.000Z</time>
      </trkpt>
      <trkpt lat="44.89812" lon="0.84455">
        <ele>140.7</ele>
        <time>1970-01-01T00:22:49.000Z</time>
      </trkpt>
      <trkpt lat="44.89809" lon="0.84448">
        <ele>140.5</ele>
        <time>1970-01-01T00:22:50.000Z</time>
      </trkpt>
      <trkpt lat="44.89805" lon="0.84441">
        <ele>140.3</ele>
        <time>1970-01-01T00:22:51.000Z</time>
      </trkpt>
      <trkpt lat="44.89802" lon="0.84433">
        <ele>140.1</ele>
        <time>1970-01-01T00:22:52.000Z</time>
      </trkpt>
      <trkpt lat="44.89799" lon="0.84427">
        <ele>140</ele>
        <time>1970-01-01T00:22:53.000Z</time>
      </trkpt>
      <trkpt lat="44.89796" lon="0.8442">
        <ele>140</ele>
        <time>1970-01-01T00:22:54.000Z</time>
      </trkpt>
      <trkpt lat="44.89792" lon="0.84413">
        <ele>139.9</ele>
        <time>1970-01-01T00:22:55.000Z</time>
      </trkpt>
      <trkpt lat="44.89789" lon="0.84406">
        <ele>139.8</ele>
        <time>1970-01-01T00:22:56.000Z</time>
      </trkpt>
      <trkpt lat="44.89786" lon="0.84399">
        <ele>139.8</ele>
        <time>1970-01-01T00:22:57.000Z</time>
      </trkpt>
      <trkpt lat="44.89783" lon="0.84392">
        <ele>139.8</ele>
        <time>1970-01-01T00:22:58.000Z</time>
      </trkpt>
      <trkpt lat="44.89781" lon="0.84386">
        <ele>139.9</ele>
        <time>1970-01-01T00:22:59.000Z</time>
      </trkpt>
      <trkpt lat="44.89778" lon="0.84379">
        <ele>140</ele>
        <time>1970-01-01T00:23:00.000Z</time>
      </trkpt>
      <trkpt lat="44.89775" lon="0.84373">
        <ele>140.1</ele>
        <time>1970-01-01T00:23:01.000Z</time>
      </trkpt>
      <trkpt lat="44.89773" lon="0.84367">
        <ele>140.2</ele>
        <time>1970-01-01T00:23:02.000Z</time>
      </trkpt>
      <trkpt lat="44.89771" lon="0.84361">
        <ele>140.5</ele>
        <time>1970-01-01T00:23:03.000Z</time>
      </trkpt>
      <trkpt lat="44.89768" lon="0.84355">
        <ele>140.7</ele>
        <time>1970-01-01T00:23:04.000Z</time>
      </trkpt>
      <trkpt lat="44.89765" lon="0.84349">
        <ele>141</ele>
        <time>1970-01-01T00:23:05.000Z</time>
      </trkpt>
      <trkpt lat="44.89763" lon="0.84344">
        <ele>141.3</ele>
        <time>1970-01-01T00:23:06.000Z</time>
      </trkpt>
      <trkpt lat="44.89761" lon="0.84338">
        <ele>141.6</ele>
        <time>1970-01-01T00:23:07.000Z</time>
      </trkpt>
      <trkpt lat="44.89759" lon="0.84333">
        <ele>141.9</ele>
        <time>1970-01-01T00:23:08.000Z</time>
      </trkpt>
      <trkpt lat="44.89757" lon="0.84328">
        <ele>142.2</ele>
        <time>1970-01-01T00:23:09.000Z</time>
      </trkpt>
      <trkpt lat="44.89755" lon="0.84323">
        <ele>142.5</ele>
        <time>1970-01-01T00:23:10.000Z</time>
      </trkpt>
      <trkpt lat="44.89753" lon="0.84319">
        <ele>142.8</ele>
        <time>1970-01-01T00:23:11.000Z</time>
      </trkpt>
      <trkpt lat="44.89751" lon="0.84314">
        <ele>143.1</ele>
        <time>1970-01-01T00:23:12.000Z</time>
      </trkpt>
      <trkpt lat="44.89748" lon="0.8431">
        <ele>143.4</ele>
        <time>1970-01-01T00:23:13.000Z</time>
      </trkpt>
      <trkpt lat="44.89745" lon="0.84306">
        <ele>143.7</ele>
        <time>1970-01-01T00:23:14.000Z</time>
      </trkpt>
      <trkpt lat="44.89743" lon="0.84302">
        <ele>144</ele>
        <time>1970-01-01T00:23:15.000Z</time>
      </trkpt>
      <trkpt lat="44.89739" lon="0.84296">
        <ele>144.4</ele>
        <time>1970-01-01T00:23:16.000Z</time>
      </trkpt>
      <trkpt lat="44.89736" lon="0.84289">
        <ele>144.7</ele>
        <time>1970-01-01T00:23:17.000Z</time>
      </trkpt>
      <trkpt lat="44.89732" lon="0.84282">
        <ele>145.1</ele>
        <time>1970-01-01T00:23:18.000Z</time>
      </trkpt>
      <trkpt lat="44.89728" lon="0.84275">
        <ele>145.4</ele>
        <time>1970-01-01T00:23:19.000Z</time>
      </trkpt>
      <trkpt lat="44.89723" lon="0.84267">
        <ele>145.6</ele>
        <time>1970-01-01T00:23:20.000Z</time>
      </trkpt>
      <trkpt lat="44.89717" lon="0.84259">
        <ele>145.8</ele>
        <time>1970-01-01T00:23:21.000Z</time>
      </trkpt>
      <trkpt lat="44.89711" lon="0.8425">
        <ele>145.9</ele>
        <time>1970-01-01T00:23:22.000Z</time>
      </trkpt>
      <trkpt lat="44.89706" lon="0.84241">
        <ele>143.3</ele>
        <time>1970-01-01T00:23:23.000Z</time>
      </trkpt>
      <trkpt lat="44.897" lon="0.84232">
        <ele>143.7</ele>
        <time>1970-01-01T00:23:24.000Z</time>
      </trkpt>
      <trkpt lat="44.89694" lon="0.84224">
        <ele>140.8</ele>
        <time>1970-01-01T00:23:25.000Z</time>
      </trkpt>
      <trkpt lat="44.89688" lon="0.84215">
        <ele>141.1</ele>
        <time>1970-01-01T00:23:26.000Z</time>
      </trkpt>
      <trkpt lat="44.89682" lon="0.84207">
        <ele>138.3</ele>
        <time>1970-01-01T00:23:27.000Z</time>
      </trkpt>
      <trkpt lat="44.89674" lon="0.84198">
        <ele>138.1</ele>
        <time>1970-01-01T00:23:28.000Z</time>
      </trkpt>
      <trkpt lat="44.89666" lon="0.84188">
        <ele>135.1</ele>
        <time>1970-01-01T00:23:29.000Z</time>
      </trkpt>
      <trkpt lat="44.89658" lon="0.84179">
        <ele>131.7</ele>
        <time>1970-01-01T00:23:30.000Z</time>
      </trkpt>
      <trkpt lat="44.8965" lon="0.84169">
        <ele>131.6</ele>
        <time>1970-01-01T00:23:31.000Z</time>
      </trkpt>
      <trkpt lat="44.89642" lon="0.8416">
        <ele>128.5</ele>
        <time>1970-01-01T00:23:32.000Z</time>
      </trkpt>
      <trkpt lat="44.89634" lon="0.84151">
        <ele>125.2</ele>
        <time>1970-01-01T00:23:33.000Z</time>
      </trkpt>
      <trkpt lat="44.89625" lon="0.84143">
        <ele>122.5</ele>
        <time>1970-01-01T00:23:34.000Z</time>
      </trkpt>
      <trkpt lat="44.89614" lon="0.84137">
        <ele>122.4</ele>
        <time>1970-01-01T00:23:35.000Z</time>
      </trkpt>
      <trkpt lat="44.89605" lon="0.84131">
        <ele>119.5</ele>
        <time>1970-01-01T00:23:36.000Z</time>
      </trkpt>
      <trkpt lat="44.89596" lon="0.84125">
        <ele>116.9</ele>
        <time>1970-01-01T00:23:37.000Z</time>
      </trkpt>
      <trkpt lat="44.89588" lon="0.84121">
        <ele>114.2</ele>
        <time>1970-01-01T00:23:38.000Z</time>
      </trkpt>
      <trkpt lat="44.89579" lon="0.84119">
        <ele>114.1</ele>
        <time>1970-01-01T00:23:39.000Z</time>
      </trkpt>
      <trkpt lat="44.89571" lon="0.8412">
        <ele>111.7</ele>
        <time>1970-01-01T00:23:40.000Z</time>
      </trkpt>
      <trkpt lat="44.89564" lon="0.8412">
        <ele>109.9</ele>
        <time>1970-01-01T00:23:41.000Z</time>
      </trkpt>
      <trkpt lat="44.89558" lon="0.84118">
        <ele>109.8</ele>
        <time>1970-01-01T00:23:42.000Z</time>
      </trkpt>
      <trkpt lat="44.89553" lon="0.84115">
        <ele>108.2</ele>
        <time>1970-01-01T00:23:43.000Z</time>
      </trkpt>
      <trkpt lat="44.89547" lon="0.84112">
        <ele>108.7</ele>
        <time>1970-01-01T00:23:44.000Z</time>
      </trkpt>
      <trkpt lat="44.89541" lon="0.84109">
        <ele>108.6</ele>
        <time>1970-01-01T00:23:45.000Z</time>
      </trkpt>
      <trkpt lat="44.89535" lon="0.84106">
        <ele>107.3</ele>
        <time>1970-01-01T00:23:46.000Z</time>
      </trkpt>
      <trkpt lat="44.89529" lon="0.84101">
        <ele>107.2</ele>
        <time>1970-01-01T00:23:47.000Z</time>
      </trkpt>
      <trkpt lat="44.89524" lon="0.84095">
        <ele>106.7</ele>
        <time>1970-01-01T00:23:48.000Z</time>
      </trkpt>
      <trkpt lat="44.8952" lon="0.84089">
        <ele>106.6</ele>
        <time>1970-01-01T00:23:49.000Z</time>
      </trkpt>
      <trkpt lat="44.89515" lon="0.84083">
        <ele>105.8</ele>
        <time>1970-01-01T00:23:50.000Z</time>
      </trkpt>
      <trkpt lat="44.8951" lon="0.84079">
        <ele>106.6</ele>
        <time>1970-01-01T00:23:51.000Z</time>
      </trkpt>
      <trkpt lat="44.89505" lon="0.84074">
        <ele>106.6</ele>
        <time>1970-01-01T00:23:52.000Z</time>
      </trkpt>
      <trkpt lat="44.89501" lon="0.84069">
        <ele>105.5</ele>
        <time>1970-01-01T00:23:53.000Z</time>
      </trkpt>
      <trkpt lat="44.89497" lon="0.84064">
        <ele>105.4</ele>
        <time>1970-01-01T00:23:54.000Z</time>
      </trkpt>
      <trkpt lat="44.89493" lon="0.84058">
        <ele>106.6</ele>
        <time>1970-01-01T00:23:55.000Z</time>
      </trkpt>
      <trkpt lat="44.89489" lon="0.84051">
        <ele>105.8</ele>
        <time>1970-01-01T00:23:56.000Z</time>
      </trkpt>
      <trkpt lat="44.89485" lon="0.84045">
        <ele>106.9</ele>
        <time>1970-01-01T00:23:57.000Z</time>
      </trkpt>
      <trkpt lat="44.89479" lon="0.84039">
        <ele>106</ele>
        <time>1970-01-01T00:23:58.000Z</time>
      </trkpt>
      <trkpt lat="44.89472" lon="0.84033">
        <ele>105.9</ele>
        <time>1970-01-01T00:23:59.000Z</time>
      </trkpt>
      <trkpt lat="44.89464" lon="0.84028">
        <ele>105.9</ele>
        <time>1970-01-01T00:24:00.000Z</time>
      </trkpt>
      <trkpt lat="44.89455" lon="0.84024">
        <ele>105.8</ele>
        <time>1970-01-01T00:24:01.000Z</time>
      </trkpt>
      <trkpt lat="44.89448" lon="0.8402">
        <ele>104.3</ele>
        <time>1970-01-01T00:24:02.000Z</time>
      </trkpt>
      <trkpt lat="44.8944" lon="0.84016">
        <ele>102.1</ele>
        <time>1970-01-01T00:24:03.000Z</time>
      </trkpt>
      <trkpt lat="44.89433" lon="0.84009">
        <ele>102.9</ele>
        <time>1970-01-01T00:24:04.000Z</time>
      </trkpt>
      <trkpt lat="44.89425" lon="0.84002">
        <ele>100.4</ele>
        <time>1970-01-01T00:24:05.000Z</time>
      </trkpt>
      <trkpt lat="44.89416" lon="0.83994">
        <ele>98.1</ele>
        <time>1970-01-01T00:24:06.000Z</time>
      </trkpt>
      <trkpt lat="44.89408" lon="0.83986">
        <ele>98.1</ele>
        <time>1970-01-01T00:24:07.000Z</time>
      </trkpt>
      <trkpt lat="44.894" lon="0.83977">
        <ele>95.2</ele>
        <time>1970-01-01T00:24:08.000Z</time>
      </trkpt>
      <trkpt lat="44.89393" lon="0.83969">
        <ele>91.8</ele>
        <time>1970-01-01T00:24:09.000Z</time>
      </trkpt>
      <trkpt lat="44.89385" lon="0.83959">
        <ele>91.4</ele>
        <time>1970-01-01T00:24:10.000Z</time>
      </trkpt>
      <trkpt lat="44.89378" lon="0.8395">
        <ele>88.4</ele>
        <time>1970-01-01T00:24:11.000Z</time>
      </trkpt>
      <trkpt lat="44.89371" lon="0.8394">
        <ele>88.1</ele>
        <time>1970-01-01T00:24:12.000Z</time>
      </trkpt>
      <trkpt lat="44.89364" lon="0.8393">
        <ele>85.6</ele>
        <time>1970-01-01T00:24:13.000Z</time>
      </trkpt>
      <trkpt lat="44.89357" lon="0.8392">
        <ele>82.9</ele>
        <time>1970-01-01T00:24:14.000Z</time>
      </trkpt>
      <trkpt lat="44.8935" lon="0.83909">
        <ele>82.8</ele>
        <time>1970-01-01T00:24:15.000Z</time>
      </trkpt>
      <trkpt lat="44.89344" lon="0.83899">
        <ele>80.7</ele>
        <time>1970-01-01T00:24:16.000Z</time>
      </trkpt>
      <trkpt lat="44.8934" lon="0.83892">
        <ele>80.6</ele>
        <time>1970-01-01T00:24:17.000Z</time>
      </trkpt>
      <trkpt lat="44.89337" lon="0.83887">
        <ele>79.6</ele>
        <time>1970-01-01T00:24:18.000Z</time>
      </trkpt>
      <trkpt lat="44.89338" lon="0.83883">
        <ele>79.5</ele>
        <time>1970-01-01T00:24:19.000Z</time>
      </trkpt>
      <trkpt lat="44.89341" lon="0.83881">
        <ele>79.4</ele>
        <time>1970-01-01T00:24:20.000Z</time>
      </trkpt>
      <trkpt lat="44.89345" lon="0.83881">
        <ele>79.3</ele>
        <time>1970-01-01T00:24:21.000Z</time>
      </trkpt>
      <trkpt lat="44.89347" lon="0.83883">
        <ele>79.2</ele>
        <time>1970-01-01T00:24:22.000Z</time>
      </trkpt>
      <trkpt lat="44.89347" lon="0.83883">
        <ele>79.2</ele>
        <time>1970-01-01T00:24:23.000Z</time>
      </trkpt>
      <trkpt lat="44.89346" lon="0.83882">
        <ele>79.1</ele>
        <time>1970-01-01T00:24:24.000Z</time>
      </trkpt>
      <trkpt lat="44.89345" lon="0.83881">
        <ele>79.1</ele>
        <time>1970-01-01T00:24:25.000Z</time>
      </trkpt>
      <trkpt lat="44.89343" lon="0.83881">
        <ele>79</ele>
        <time>1970-01-01T00:24:26.000Z</time>
      </trkpt>
      <trkpt lat="44.89342" lon="0.83882">
        <ele>78.9</ele>
        <time>1970-01-01T00:24:27.000Z</time>
      </trkpt>
      <trkpt lat="44.8934" lon="0.83881">
        <ele>78.8</ele>
        <time>1970-01-01T00:24:28.000Z</time>
      </trkpt>
      <trkpt lat="44.89339" lon="0.83881">
        <ele>78.8</ele>
        <time>1970-01-01T00:24:29.000Z</time>
      </trkpt>
      <trkpt lat="44.89337" lon="0.8388">
        <ele>78.7</ele>
        <time>1970-01-01T00:24:30.000Z</time>
      </trkpt>
      <trkpt lat="44.89335" lon="0.8388">
        <ele>78.6</ele>
        <time>1970-01-01T00:24:31.000Z</time>
      </trkpt>
      <trkpt lat="44.89334" lon="0.83879">
        <ele>78.5</ele>
        <time>1970-01-01T00:24:32.000Z</time>
      </trkpt>
      <trkpt lat="44.89332" lon="0.83878">
        <ele>78.4</ele>
        <time>1970-01-01T00:24:33.000Z</time>
      </trkpt>
      <trkpt lat="44.8933" lon="0.83877">
        <ele>78.3</ele>
        <time>1970-01-01T00:24:34.000Z</time>
      </trkpt>
      <trkpt lat="44.89327" lon="0.83876">
        <ele>78.1</ele>
        <time>1970-01-01T00:24:35.000Z</time>
      </trkpt>
      <trkpt lat="44.89326" lon="0.83876">
        <ele>78.1</ele>
        <time>1970-01-01T00:24:36.000Z</time>
      </trkpt>
      <trkpt lat="44.89324" lon="0.83875">
        <ele>78</ele>
        <time>1970-01-01T00:24:37.000Z</time>
      </trkpt>
      <trkpt lat="44.89323" lon="0.83876">
        <ele>77.9</ele>
        <time>1970-01-01T00:24:38.000Z</time>
      </trkpt>
      <trkpt lat="44.89322" lon="0.83877">
        <ele>77.9</ele>
        <time>1970-01-01T00:24:39.000Z</time>
      </trkpt>
      <trkpt lat="44.89322" lon="0.83878">
        <ele>77.8</ele>
        <time>1970-01-01T00:24:40.000Z</time>
      </trkpt>
      <trkpt lat="44.89322" lon="0.83879">
        <ele>77.8</ele>
        <time>1970-01-01T00:24:41.000Z</time>
      </trkpt>
      <trkpt lat="44.89323" lon="0.8388">
        <ele>77.7</ele>
        <time>1970-01-01T00:24:42.000Z</time>
      </trkpt>
      <trkpt lat="44.89286" lon="0.83845">
        <ele>75.2</ele>
        <time>1970-01-01T00:24:43.000Z</time>
      </trkpt>
      <trkpt lat="44.89282" lon="0.83843">
        <ele>75</ele>
        <time>1970-01-01T00:24:44.000Z</time>
      </trkpt>
      <trkpt lat="44.89277" lon="0.83839">
        <ele>74.8</ele>
        <time>1970-01-01T00:29:01.000Z</time>
      </trkpt>
      <trkpt lat="44.89275" lon="0.83837">
        <ele>74.8</ele>
        <time>1970-01-01T00:29:02.000Z</time>
      </trkpt>
      <trkpt lat="44.89271" lon="0.83835">
        <ele>74.7</ele>
        <time>1970-01-01T00:29:03.000Z</time>
      </trkpt>
      <trkpt lat="44.89267" lon="0.83832">
        <ele>74.6</ele>
        <time>1970-01-01T00:29:04.000Z</time>
      </trkpt>
      <trkpt lat="44.89264" lon="0.8383">
        <ele>74.5</ele>
        <time>1970-01-01T00:29:05.000Z</time>
      </trkpt>
      <trkpt lat="44.8926" lon="0.83828">
        <ele>74.5</ele>
        <time>1970-01-01T00:29:06.000Z</time>
      </trkpt>
      <trkpt lat="44.89256" lon="0.83825">
        <ele>74.4</ele>
        <time>1970-01-01T00:29:07.000Z</time>
      </trkpt>
      <trkpt lat="44.89253" lon="0.83823">
        <ele>74.4</ele>
        <time>1970-01-01T00:29:08.000Z</time>
      </trkpt>
      <trkpt lat="44.89249" lon="0.8382">
        <ele>74.3</ele>
        <time>1970-01-01T00:29:09.000Z</time>
      </trkpt>
      <trkpt lat="44.89245" lon="0.83817">
        <ele>74.3</ele>
        <time>1970-01-01T00:29:10.000Z</time>
      </trkpt>
      <trkpt lat="44.89241" lon="0.83814">
        <ele>74.3</ele>
        <time>1970-01-01T00:29:11.000Z</time>
      </trkpt>
      <trkpt lat="44.89237" lon="0.83811">
        <ele>74.3</ele>
        <time>1970-01-01T00:29:12.000Z</time>
      </trkpt>
      <trkpt lat="44.89232" lon="0.83808">
        <ele>74.3</ele>
        <time>1970-01-01T00:29:13.000Z</time>
      </trkpt>
      <trkpt lat="44.89228" lon="0.83805">
        <ele>74.3</ele>
        <time>1970-01-01T00:29:14.000Z</time>
      </trkpt>
      <trkpt lat="44.89224" lon="0.83803">
        <ele>74.3</ele>
        <time>1970-01-01T00:29:15.000Z</time>
      </trkpt>
      <trkpt lat="44.8922" lon="0.838">
        <ele>74.3</ele>
        <time>1970-01-01T00:29:16.000Z</time>
      </trkpt>
      <trkpt lat="44.89216" lon="0.83798">
        <ele>74.4</ele>
        <time>1970-01-01T00:29:17.000Z</time>
      </trkpt>
      <trkpt lat="44.89211" lon="0.83796">
        <ele>74.4</ele>
        <time>1970-01-01T00:29:18.000Z</time>
      </trkpt>
      <trkpt lat="44.89208" lon="0.83794">
        <ele>74.4</ele>
        <time>1970-01-01T00:29:19.000Z</time>
      </trkpt>
      <trkpt lat="44.89204" lon="0.83792">
        <ele>74.5</ele>
        <time>1970-01-01T00:29:20.000Z</time>
      </trkpt>
      <trkpt lat="44.89201" lon="0.8379">
        <ele>74.5</ele>
        <time>1970-01-01T00:29:21.000Z</time>
      </trkpt>
      <trkpt lat="44.89197" lon="0.83788">
        <ele>74.5</ele>
        <time>1970-01-01T00:29:22.000Z</time>
      </trkpt>
      <trkpt lat="44.89194" lon="0.83786">
        <ele>74.5</ele>
        <time>1970-01-01T00:29:23.000Z</time>
      </trkpt>
      <trkpt lat="44.89191" lon="0.83782">
        <ele>74.4</ele>
        <time>1970-01-01T00:29:24.000Z</time>
      </trkpt>
      <trkpt lat="44.89189" lon="0.83778">
        <ele>74.4</ele>
        <time>1970-01-01T00:29:25.000Z</time>
      </trkpt>
      <trkpt lat="44.89187" lon="0.83774">
        <ele>74.4</ele>
        <time>1970-01-01T00:29:26.000Z</time>
      </trkpt>
      <trkpt lat="44.89185" lon="0.83769">
        <ele>74.4</ele>
        <time>1970-01-01T00:29:27.000Z</time>
      </trkpt>
      <trkpt lat="44.89183" lon="0.83765">
        <ele>74.4</ele>
        <time>1970-01-01T00:29:28.000Z</time>
      </trkpt>
      <trkpt lat="44.89181" lon="0.8376">
        <ele>74.4</ele>
        <time>1970-01-01T00:29:29.000Z</time>
      </trkpt>
      <trkpt lat="44.89179" lon="0.83756">
        <ele>74.4</ele>
        <time>1970-01-01T00:29:30.000Z</time>
      </trkpt>
      <trkpt lat="44.89178" lon="0.83751">
        <ele>74.5</ele>
        <time>1970-01-01T00:29:31.000Z</time>
      </trkpt>
      <trkpt lat="44.89178" lon="0.83747">
        <ele>74.5</ele>
        <time>1970-01-01T00:29:32.000Z</time>
      </trkpt>
      <trkpt lat="44.89178" lon="0.83742">
        <ele>74.4</ele>
        <time>1970-01-01T00:29:33.000Z</time>
      </trkpt>
      <trkpt lat="44.89179" lon="0.83738">
        <ele>74.4</ele>
        <time>1970-01-01T00:29:34.000Z</time>
      </trkpt>
      <trkpt lat="44.89181" lon="0.83736">
        <ele>74.4</ele>
        <time>1970-01-01T00:29:35.000Z</time>
      </trkpt>
      <trkpt lat="44.89184" lon="0.83734">
        <ele>74.4</ele>
        <time>1970-01-01T00:29:36.000Z</time>
      </trkpt>
      <trkpt lat="44.89187" lon="0.83732">
        <ele>74.4</ele>
        <time>1970-01-01T00:29:37.000Z</time>
      </trkpt>
      <trkpt lat="44.89189" lon="0.83731">
        <ele>74.4</ele>
        <time>1970-01-01T00:29:38.000Z</time>
      </trkpt>
      <trkpt lat="44.89192" lon="0.83729">
        <ele>74.4</ele>
        <time>1970-01-01T00:29:39.000Z</time>
      </trkpt>
      <trkpt lat="44.89195" lon="0.83727">
        <ele>74.3</ele>
        <time>1970-01-01T00:29:40.000Z</time>
      </trkpt>
      <trkpt lat="44.89198" lon="0.83725">
        <ele>74.3</ele>
        <time>1970-01-01T00:29:41.000Z</time>
      </trkpt>
      <trkpt lat="44.89201" lon="0.83722">
        <ele>74.3</ele>
        <time>1970-01-01T00:29:42.000Z</time>
      </trkpt>
      <trkpt lat="44.89204" lon="0.8372">
        <ele>74.3</ele>
        <time>1970-01-01T00:29:43.000Z</time>
      </trkpt>
      <trkpt lat="44.89207" lon="0.83718">
        <ele>74.4</ele>
        <time>1970-01-01T00:29:44.000Z</time>
      </trkpt>
      <trkpt lat="44.89211" lon="0.83715">
        <ele>74.4</ele>
        <time>1970-01-01T00:29:45.000Z</time>
      </trkpt>
      <trkpt lat="44.89214" lon="0.83713">
        <ele>74.4</ele>
        <time>1970-01-01T00:29:46.000Z</time>
      </trkpt>
      <trkpt lat="44.89218" lon="0.83711">
        <ele>74.4</ele>
        <time>1970-01-01T00:29:47.000Z</time>
      </trkpt>
      <trkpt lat="44.89221" lon="0.83709">
        <ele>74.4</ele>
        <time>1970-01-01T00:29:48.000Z</time>
      </trkpt>
      <trkpt lat="44.89225" lon="0.83707">
        <ele>74.5</ele>
        <time>1970-01-01T00:29:49.000Z</time>
      </trkpt>
      <trkpt lat="44.89228" lon="0.83704">
        <ele>74.5</ele>
        <time>1970-01-01T00:29:50.000Z</time>
      </trkpt>
      <trkpt lat="44.89231" lon="0.83702">
        <ele>74.5</ele>
        <time>1970-01-01T00:29:51.000Z</time>
      </trkpt>
      <trkpt lat="44.89235" lon="0.837">
        <ele>74.5</ele>
        <time>1970-01-01T00:29:52.000Z</time>
      </trkpt>
      <trkpt lat="44.89238" lon="0.83698">
        <ele>74.5</ele>
        <time>1970-01-01T00:29:53.000Z</time>
      </trkpt>
      <trkpt lat="44.89241" lon="0.83696">
        <ele>74.6</ele>
        <time>1970-01-01T00:29:54.000Z</time>
      </trkpt>
      <trkpt lat="44.89244" lon="0.83694">
        <ele>74.6</ele>
        <time>1970-01-01T00:29:55.000Z</time>
      </trkpt>
      <trkpt lat="44.89248" lon="0.83692">
        <ele>74.7</ele>
        <time>1970-01-01T00:29:56.000Z</time>
      </trkpt>
      <trkpt lat="44.89251" lon="0.83691">
        <ele>74.7</ele>
        <time>1970-01-01T00:29:57.000Z</time>
      </trkpt>
      <trkpt lat="44.89254" lon="0.83689">
        <ele>74.8</ele>
        <time>1970-01-01T00:29:58.000Z</time>
      </trkpt>
      <trkpt lat="44.89257" lon="0.83687">
        <ele>74.8</ele>
        <time>1970-01-01T00:29:59.000Z</time>
      </trkpt>
      <trkpt lat="44.8926" lon="0.83685">
        <ele>74.9</ele>
        <time>1970-01-01T00:30:00.000Z</time>
      </trkpt>
      <trkpt lat="44.89263" lon="0.83683">
        <ele>74.9</ele>
        <time>1970-01-01T00:30:01.000Z</time>
      </trkpt>
      <trkpt lat="44.89266" lon="0.8368">
        <ele>75</ele>
        <time>1970-01-01T00:30:02.000Z</time>
      </trkpt>
      <trkpt lat="44.89269" lon="0.83677">
        <ele>75.1</ele>
        <time>1970-01-01T00:30:03.000Z</time>
      </trkpt>
      <trkpt lat="44.8927" lon="0.83673">
        <ele>75.1</ele>
        <time>1970-01-01T00:30:04.000Z</time>
      </trkpt>
      <trkpt lat="44.89272" lon="0.83669">
        <ele>75.8</ele>
        <time>1970-01-01T00:30:05.000Z</time>
      </trkpt>
      <trkpt lat="44.89272" lon="0.83664">
        <ele>75.9</ele>
        <time>1970-01-01T00:30:06.000Z</time>
      </trkpt>
      <trkpt lat="44.89272" lon="0.83659">
        <ele>76</ele>
        <time>1970-01-01T00:30:07.000Z</time>
      </trkpt>
      <trkpt lat="44.8927" lon="0.83655">
        <ele>76.1</ele>
        <time>1970-01-01T00:30:08.000Z</time>
      </trkpt>
      <trkpt lat="44.89268" lon="0.83651">
        <ele>76.3</ele>
        <time>1970-01-01T00:30:09.000Z</time>
      </trkpt>
      <trkpt lat="44.89266" lon="0.83647">
        <ele>76.5</ele>
        <time>1970-01-01T00:30:10.000Z</time>
      </trkpt>
      <trkpt lat="44.89264" lon="0.83643">
        <ele>76.6</ele>
        <time>1970-01-01T00:30:11.000Z</time>
      </trkpt>
      <trkpt lat="44.89263" lon="0.83639">
        <ele>76.8</ele>
        <time>1970-01-01T00:30:12.000Z</time>
      </trkpt>
      <trkpt lat="44.89262" lon="0.83635">
        <ele>77</ele>
        <time>1970-01-01T00:30:13.000Z</time>
      </trkpt>
      <trkpt lat="44.89261" lon="0.83632">
        <ele>77.2</ele>
        <time>1970-01-01T00:30:14.000Z</time>
      </trkpt>
      <trkpt lat="44.8926" lon="0.83628">
        <ele>77.4</ele>
        <time>1970-01-01T00:30:15.000Z</time>
      </trkpt>
      <trkpt lat="44.89259" lon="0.83624">
        <ele>77.7</ele>
        <time>1970-01-01T00:30:16.000Z</time>
      </trkpt>
      <trkpt lat="44.89258" lon="0.83621">
        <ele>77.9</ele>
        <time>1970-01-01T00:30:17.000Z</time>
      </trkpt>
      <trkpt lat="44.89257" lon="0.83617">
        <ele>78.1</ele>
        <time>1970-01-01T00:30:18.000Z</time>
      </trkpt>
      <trkpt lat="44.89257" lon="0.83613">
        <ele>78.4</ele>
        <time>1970-01-01T00:30:19.000Z</time>
      </trkpt>
      <trkpt lat="44.89256" lon="0.83609">
        <ele>78.6</ele>
        <time>1970-01-01T00:30:20.000Z</time>
      </trkpt>
      <trkpt lat="44.89255" lon="0.83606">
        <ele>78.9</ele>
        <time>1970-01-01T00:30:21.000Z</time>
      </trkpt>
      <trkpt lat="44.89254" lon="0.83602">
        <ele>79.2</ele>
        <time>1970-01-01T00:30:22.000Z</time>
      </trkpt>
      <trkpt lat="44.89254" lon="0.83599">
        <ele>79.5</ele>
        <time>1970-01-01T00:30:23.000Z</time>
      </trkpt>
      <trkpt lat="44.89253" lon="0.83595">
        <ele>79.8</ele>
        <time>1970-01-01T00:30:24.000Z</time>
      </trkpt>
      <trkpt lat="44.89252" lon="0.83591">
        <ele>80</ele>
        <time>1970-01-01T00:30:25.000Z</time>
      </trkpt>
      <trkpt lat="44.89252" lon="0.83588">
        <ele>80.3</ele>
        <time>1970-01-01T00:30:26.000Z</time>
      </trkpt>
      <trkpt lat="44.89251" lon="0.83585">
        <ele>80.6</ele>
        <time>1970-01-01T00:30:27.000Z</time>
      </trkpt>
      <trkpt lat="44.8925" lon="0.83581">
        <ele>80.8</ele>
        <time>1970-01-01T00:30:28.000Z</time>
      </trkpt>
      <trkpt lat="44.89249" lon="0.83578">
        <ele>81.1</ele>
        <time>1970-01-01T00:30:29.000Z</time>
      </trkpt>
      <trkpt lat="44.89248" lon="0.83574">
        <ele>81.3</ele>
        <time>1970-01-01T00:30:30.000Z</time>
      </trkpt>
      <trkpt lat="44.89247" lon="0.8357">
        <ele>81.6</ele>
        <time>1970-01-01T00:30:31.000Z</time>
      </trkpt>
      <trkpt lat="44.89246" lon="0.83567">
        <ele>81.8</ele>
        <time>1970-01-01T00:30:32.000Z</time>
      </trkpt>
      <trkpt lat="44.89245" lon="0.83564">
        <ele>82</ele>
        <time>1970-01-01T00:30:33.000Z</time>
      </trkpt>
      <trkpt lat="44.89244" lon="0.8356">
        <ele>82.2</ele>
        <time>1970-01-01T00:30:34.000Z</time>
      </trkpt>
      <trkpt lat="44.89243" lon="0.83557">
        <ele>82.3</ele>
        <time>1970-01-01T00:30:35.000Z</time>
      </trkpt>
      <trkpt lat="44.89241" lon="0.83553">
        <ele>82.5</ele>
        <time>1970-01-01T00:30:36.000Z</time>
      </trkpt>
      <trkpt lat="44.89239" lon="0.8355">
        <ele>82.7</ele>
        <time>1970-01-01T00:30:37.000Z</time>
      </trkpt>
      <trkpt lat="44.89237" lon="0.83547">
        <ele>82.8</ele>
        <time>1970-01-01T00:30:38.000Z</time>
      </trkpt>
      <trkpt lat="44.89235" lon="0.83544">
        <ele>83</ele>
        <time>1970-01-01T00:30:39.000Z</time>
      </trkpt>
      <trkpt lat="44.89233" lon="0.83541">
        <ele>83.1</ele>
        <time>1970-01-01T00:30:40.000Z</time>
      </trkpt>
      <trkpt lat="44.89231" lon="0.83539">
        <ele>83.1</ele>
        <time>1970-01-01T00:30:41.000Z</time>
      </trkpt>
      <trkpt lat="44.89229" lon="0.83536">
        <ele>83.2</ele>
        <time>1970-01-01T00:30:42.000Z</time>
      </trkpt>
      <trkpt lat="44.89226" lon="0.83533">
        <ele>83.3</ele>
        <time>1970-01-01T00:30:43.000Z</time>
      </trkpt>
      <trkpt lat="44.89224" lon="0.8353">
        <ele>83.4</ele>
        <time>1970-01-01T00:30:44.000Z</time>
      </trkpt>
      <trkpt lat="44.89222" lon="0.83528">
        <ele>83.4</ele>
        <time>1970-01-01T00:30:45.000Z</time>
      </trkpt>
      <trkpt lat="44.8922" lon="0.83525">
        <ele>83.5</ele>
        <time>1970-01-01T00:30:46.000Z</time>
      </trkpt>
      <trkpt lat="44.89217" lon="0.83522">
        <ele>83.5</ele>
        <time>1970-01-01T00:30:47.000Z</time>
      </trkpt>
      <trkpt lat="44.89215" lon="0.83519">
        <ele>83.6</ele>
        <time>1970-01-01T00:30:48.000Z</time>
      </trkpt>
      <trkpt lat="44.89212" lon="0.83516">
        <ele>83.6</ele>
        <time>1970-01-01T00:30:49.000Z</time>
      </trkpt>
      <trkpt lat="44.8921" lon="0.83513">
        <ele>83.7</ele>
        <time>1970-01-01T00:30:50.000Z</time>
      </trkpt>
      <trkpt lat="44.89207" lon="0.83511">
        <ele>83.8</ele>
        <time>1970-01-01T00:30:51.000Z</time>
      </trkpt>
      <trkpt lat="44.89204" lon="0.83511">
        <ele>83.9</ele>
        <time>1970-01-01T00:30:52.000Z</time>
      </trkpt>
      <trkpt lat="44.89201" lon="0.83511">
        <ele>83.9</ele>
        <time>1970-01-01T00:30:53.000Z</time>
      </trkpt>
      <trkpt lat="44.89198" lon="0.83511">
        <ele>83.1</ele>
        <time>1970-01-01T00:30:54.000Z</time>
      </trkpt>
      <trkpt lat="44.89194" lon="0.83512">
        <ele>83.2</ele>
        <time>1970-01-01T00:30:55.000Z</time>
      </trkpt>
      <trkpt lat="44.89189" lon="0.83513">
        <ele>83.3</ele>
        <time>1970-01-01T00:30:56.000Z</time>
      </trkpt>
      <trkpt lat="44.89186" lon="0.83516">
        <ele>81.6</ele>
        <time>1970-01-01T00:30:57.000Z</time>
      </trkpt>
      <trkpt lat="44.89182" lon="0.83518">
        <ele>81.7</ele>
        <time>1970-01-01T00:30:58.000Z</time>
      </trkpt>
      <trkpt lat="44.89178" lon="0.83521">
        <ele>81.8</ele>
        <time>1970-01-01T00:30:59.000Z</time>
      </trkpt>
      <trkpt lat="44.89175" lon="0.83523">
        <ele>81.5</ele>
        <time>1970-01-01T00:31:00.000Z</time>
      </trkpt>
      <trkpt lat="44.89173" lon="0.83525">
        <ele>81.5</ele>
        <time>1970-01-01T00:31:01.000Z</time>
      </trkpt>
      <trkpt lat="44.8917" lon="0.83527">
        <ele>81.6</ele>
        <time>1970-01-01T00:31:02.000Z</time>
      </trkpt>
      <trkpt lat="44.89169" lon="0.83531">
        <ele>81.3</ele>
        <time>1970-01-01T00:31:03.000Z</time>
      </trkpt>
      <trkpt lat="44.89168" lon="0.83536">
        <ele>81.3</ele>
        <time>1970-01-01T00:31:04.000Z</time>
      </trkpt>
      <trkpt lat="44.89168" lon="0.8354">
        <ele>81.4</ele>
        <time>1970-01-01T00:31:05.000Z</time>
      </trkpt>
      <trkpt lat="44.89167" lon="0.83544">
        <ele>81.5</ele>
        <time>1970-01-01T00:31:06.000Z</time>
      </trkpt>
      <trkpt lat="44.89167" lon="0.83549">
        <ele>81.1</ele>
        <time>1970-01-01T00:31:07.000Z</time>
      </trkpt>
      <trkpt lat="44.89168" lon="0.83553">
        <ele>81.2</ele>
        <time>1970-01-01T00:31:08.000Z</time>
      </trkpt>
      <trkpt lat="44.89168" lon="0.83558">
        <ele>81.3</ele>
        <time>1970-01-01T00:31:09.000Z</time>
      </trkpt>
      <trkpt lat="44.89169" lon="0.83562">
        <ele>81.3</ele>
        <time>1970-01-01T00:31:10.000Z</time>
      </trkpt>
      <trkpt lat="44.8917" lon="0.83566">
        <ele>81</ele>
        <time>1970-01-01T00:31:11.000Z</time>
      </trkpt>
      <trkpt lat="44.8917" lon="0.8357">
        <ele>81</ele>
        <time>1970-01-01T00:31:12.000Z</time>
      </trkpt>
      <trkpt lat="44.89171" lon="0.83574">
        <ele>81.1</ele>
        <time>1970-01-01T00:31:13.000Z</time>
      </trkpt>
      <trkpt lat="44.89171" lon="0.83578">
        <ele>81.2</ele>
        <time>1970-01-01T00:31:14.000Z</time>
      </trkpt>
      <trkpt lat="44.89172" lon="0.83582">
        <ele>81.2</ele>
        <time>1970-01-01T00:31:15.000Z</time>
      </trkpt>
      <trkpt lat="44.89173" lon="0.83586">
        <ele>80.6</ele>
        <time>1970-01-01T00:31:16.000Z</time>
      </trkpt>
      <trkpt lat="44.89173" lon="0.83589">
        <ele>80.6</ele>
        <time>1970-01-01T00:31:17.000Z</time>
      </trkpt>
      <trkpt lat="44.89174" lon="0.83593">
        <ele>80.7</ele>
        <time>1970-01-01T00:31:18.000Z</time>
      </trkpt>
      <trkpt lat="44.89175" lon="0.83597">
        <ele>80.8</ele>
        <time>1970-01-01T00:31:19.000Z</time>
      </trkpt>
      <trkpt lat="44.89175" lon="0.836">
        <ele>79.8</ele>
        <time>1970-01-01T00:31:20.000Z</time>
      </trkpt>
      <trkpt lat="44.89176" lon="0.83604">
        <ele>78.8</ele>
        <time>1970-01-01T00:31:21.000Z</time>
      </trkpt>
      <trkpt lat="44.89176" lon="0.83607">
        <ele>78.8</ele>
        <time>1970-01-01T00:31:22.000Z</time>
      </trkpt>
      <trkpt lat="44.89177" lon="0.8361">
        <ele>78.9</ele>
        <time>1970-01-01T00:31:23.000Z</time>
      </trkpt>
      <trkpt lat="44.89177" lon="0.83614">
        <ele>79</ele>
        <time>1970-01-01T00:31:24.000Z</time>
      </trkpt>
      <trkpt lat="44.89177" lon="0.83617">
        <ele>77.3</ele>
        <time>1970-01-01T00:31:25.000Z</time>
      </trkpt>
      <trkpt lat="44.89177" lon="0.83621">
        <ele>77.4</ele>
        <time>1970-01-01T00:31:26.000Z</time>
      </trkpt>
      <trkpt lat="44.89176" lon="0.83625">
        <ele>77.4</ele>
        <time>1970-01-01T00:31:27.000Z</time>
      </trkpt>
      <trkpt lat="44.89175" lon="0.83628">
        <ele>78.7</ele>
        <time>1970-01-01T00:31:28.000Z</time>
      </trkpt>
      <trkpt lat="44.89174" lon="0.83632">
        <ele>78.8</ele>
        <time>1970-01-01T00:31:29.000Z</time>
      </trkpt>
      <trkpt lat="44.89173" lon="0.83635">
        <ele>76.7</ele>
        <time>1970-01-01T00:31:30.000Z</time>
      </trkpt>
      <trkpt lat="44.89171" lon="0.83638">
        <ele>76.8</ele>
        <time>1970-01-01T00:31:31.000Z</time>
      </trkpt>
      <trkpt lat="44.8917" lon="0.83641">
        <ele>76.9</ele>
        <time>1970-01-01T00:31:32.000Z</time>
      </trkpt>
      <trkpt lat="44.89168" lon="0.83643">
        <ele>76.9</ele>
        <time>1970-01-01T00:31:33.000Z</time>
      </trkpt>
      <trkpt lat="44.89165" lon="0.83645">
        <ele>77</ele>
        <time>1970-01-01T00:31:34.000Z</time>
      </trkpt>
      <trkpt lat="44.89163" lon="0.83647">
        <ele>78.4</ele>
        <time>1970-01-01T00:31:35.000Z</time>
      </trkpt>
      <trkpt lat="44.8916" lon="0.83648">
        <ele>78.4</ele>
        <time>1970-01-01T00:31:36.000Z</time>
      </trkpt>
      <trkpt lat="44.89157" lon="0.83648">
        <ele>78.5</ele>
        <time>1970-01-01T00:31:37.000Z</time>
      </trkpt>
      <trkpt lat="44.89155" lon="0.83648">
        <ele>78.6</ele>
        <time>1970-01-01T00:31:38.000Z</time>
      </trkpt>
      <trkpt lat="44.89152" lon="0.83647">
        <ele>78.6</ele>
        <time>1970-01-01T00:31:39.000Z</time>
      </trkpt>
      <trkpt lat="44.89149" lon="0.83646">
        <ele>80</ele>
        <time>1970-01-01T00:31:40.000Z</time>
      </trkpt>
      <trkpt lat="44.89147" lon="0.83644">
        <ele>80.1</ele>
        <time>1970-01-01T00:31:41.000Z</time>
      </trkpt>
      <trkpt lat="44.89145" lon="0.83643">
        <ele>80.2</ele>
        <time>1970-01-01T00:31:42.000Z</time>
      </trkpt>
      <trkpt lat="44.89142" lon="0.83641">
        <ele>80.3</ele>
        <time>1970-01-01T00:31:43.000Z</time>
      </trkpt>
      <trkpt lat="44.8914" lon="0.83639">
        <ele>80.3</ele>
        <time>1970-01-01T00:31:44.000Z</time>
      </trkpt>
      <trkpt lat="44.89138" lon="0.83636">
        <ele>81.7</ele>
        <time>1970-01-01T00:31:45.000Z</time>
      </trkpt>
      <trkpt lat="44.89136" lon="0.83634">
        <ele>81.8</ele>
        <time>1970-01-01T00:31:46.000Z</time>
      </trkpt>
      <trkpt lat="44.89134" lon="0.83631">
        <ele>83.3</ele>
        <time>1970-01-01T00:31:47.000Z</time>
      </trkpt>
      <trkpt lat="44.89132" lon="0.83628">
        <ele>83.3</ele>
        <time>1970-01-01T00:31:48.000Z</time>
      </trkpt>
      <trkpt lat="44.8913" lon="0.83626">
        <ele>83.4</ele>
        <time>1970-01-01T00:31:49.000Z</time>
      </trkpt>
      <trkpt lat="44.89128" lon="0.83623">
        <ele>83.5</ele>
        <time>1970-01-01T00:31:50.000Z</time>
      </trkpt>
      <trkpt lat="44.89126" lon="0.8362">
        <ele>84</ele>
        <time>1970-01-01T00:31:51.000Z</time>
      </trkpt>
      <trkpt lat="44.89124" lon="0.83617">
        <ele>84</ele>
        <time>1970-01-01T00:31:52.000Z</time>
      </trkpt>
      <trkpt lat="44.89123" lon="0.83614">
        <ele>84.9</ele>
        <time>1970-01-01T00:31:53.000Z</time>
      </trkpt>
      <trkpt lat="44.89121" lon="0.83611">
        <ele>84.9</ele>
        <time>1970-01-01T00:31:54.000Z</time>
      </trkpt>
      <trkpt lat="44.89119" lon="0.83609">
        <ele>85</ele>
        <time>1970-01-01T00:31:55.000Z</time>
      </trkpt>
      <trkpt lat="44.89117" lon="0.83605">
        <ele>85.1</ele>
        <time>1970-01-01T00:31:56.000Z</time>
      </trkpt>
      <trkpt lat="44.89115" lon="0.83602">
        <ele>85.1</ele>
        <time>1970-01-01T00:31:57.000Z</time>
      </trkpt>
      <trkpt lat="44.89113" lon="0.83599">
        <ele>85.5</ele>
        <time>1970-01-01T00:31:58.000Z</time>
      </trkpt>
      <trkpt lat="44.89111" lon="0.83596">
        <ele>86.2</ele>
        <time>1970-01-01T00:31:59.000Z</time>
      </trkpt>
      <trkpt lat="44.89109" lon="0.83593">
        <ele>86.3</ele>
        <time>1970-01-01T00:32:00.000Z</time>
      </trkpt>
      <trkpt lat="44.89107" lon="0.8359">
        <ele>86.4</ele>
        <time>1970-01-01T00:32:01.000Z</time>
      </trkpt>
      <trkpt lat="44.89104" lon="0.83587">
        <ele>86.4</ele>
        <time>1970-01-01T00:32:02.000Z</time>
      </trkpt>
      <trkpt lat="44.89101" lon="0.83584">
        <ele>86.9</ele>
        <time>1970-01-01T00:32:03.000Z</time>
      </trkpt>
      <trkpt lat="44.89098" lon="0.83581">
        <ele>88</ele>
        <time>1970-01-01T00:32:04.000Z</time>
      </trkpt>
      <trkpt lat="44.89095" lon="0.83579">
        <ele>88</ele>
        <time>1970-01-01T00:32:05.000Z</time>
      </trkpt>
      <trkpt lat="44.89092" lon="0.83576">
        <ele>88.1</ele>
        <time>1970-01-01T00:32:06.000Z</time>
      </trkpt>
      <trkpt lat="44.89089" lon="0.83574">
        <ele>88.7</ele>
        <time>1970-01-01T00:32:07.000Z</time>
      </trkpt>
      <trkpt lat="44.89085" lon="0.83571">
        <ele>88.8</ele>
        <time>1970-01-01T00:32:08.000Z</time>
      </trkpt>
      <trkpt lat="44.89082" lon="0.83569">
        <ele>88.9</ele>
        <time>1970-01-01T00:32:09.000Z</time>
      </trkpt>
      <trkpt lat="44.89079" lon="0.83567">
        <ele>88.9</ele>
        <time>1970-01-01T00:32:10.000Z</time>
      </trkpt>
      <trkpt lat="44.89075" lon="0.83565">
        <ele>89.6</ele>
        <time>1970-01-01T00:32:11.000Z</time>
      </trkpt>
      <trkpt lat="44.89072" lon="0.83563">
        <ele>90.6</ele>
        <time>1970-01-01T00:32:12.000Z</time>
      </trkpt>
      <trkpt lat="44.89068" lon="0.83561">
        <ele>90.6</ele>
        <time>1970-01-01T00:32:13.000Z</time>
      </trkpt>
      <trkpt lat="44.89064" lon="0.8356">
        <ele>91.4</ele>
        <time>1970-01-01T00:32:14.000Z</time>
      </trkpt>
      <trkpt lat="44.89061" lon="0.83558">
        <ele>91.5</ele>
        <time>1970-01-01T00:32:15.000Z</time>
      </trkpt>
      <trkpt lat="44.89057" lon="0.83557">
        <ele>91.5</ele>
        <time>1970-01-01T00:32:16.000Z</time>
      </trkpt>
      <trkpt lat="44.89053" lon="0.83556">
        <ele>92.5</ele>
        <time>1970-01-01T00:32:17.000Z</time>
      </trkpt>
      <trkpt lat="44.89049" lon="0.83555">
        <ele>92.5</ele>
        <time>1970-01-01T00:32:18.000Z</time>
      </trkpt>
      <trkpt lat="44.89045" lon="0.83554">
        <ele>92.6</ele>
        <time>1970-01-01T00:32:19.000Z</time>
      </trkpt>
      <trkpt lat="44.89041" lon="0.83554">
        <ele>93.3</ele>
        <time>1970-01-01T00:32:20.000Z</time>
      </trkpt>
      <trkpt lat="44.89037" lon="0.83554">
        <ele>93.3</ele>
        <time>1970-01-01T00:32:21.000Z</time>
      </trkpt>
      <trkpt lat="44.89033" lon="0.83554">
        <ele>93.4</ele>
        <time>1970-01-01T00:32:22.000Z</time>
      </trkpt>
      <trkpt lat="44.89028" lon="0.83554">
        <ele>94</ele>
        <time>1970-01-01T00:32:23.000Z</time>
      </trkpt>
      <trkpt lat="44.89024" lon="0.83554">
        <ele>94.1</ele>
        <time>1970-01-01T00:32:24.000Z</time>
      </trkpt>
      <trkpt lat="44.8902" lon="0.83555">
        <ele>94.2</ele>
        <time>1970-01-01T00:32:25.000Z</time>
      </trkpt>
      <trkpt lat="44.89016" lon="0.83554">
        <ele>94.8</ele>
        <time>1970-01-01T00:32:26.000Z</time>
      </trkpt>
      <trkpt lat="44.89012" lon="0.83554">
        <ele>94.8</ele>
        <time>1970-01-01T00:32:27.000Z</time>
      </trkpt>
      <trkpt lat="44.89008" lon="0.83552">
        <ele>94.9</ele>
        <time>1970-01-01T00:32:28.000Z</time>
      </trkpt>
      <trkpt lat="44.89005" lon="0.8355">
        <ele>95.7</ele>
        <time>1970-01-01T00:32:29.000Z</time>
      </trkpt>
      <trkpt lat="44.89002" lon="0.83547">
        <ele>97</ele>
        <time>1970-01-01T00:32:30.000Z</time>
      </trkpt>
      <trkpt lat="44.88999" lon="0.83544">
        <ele>97.1</ele>
        <time>1970-01-01T00:32:31.000Z</time>
      </trkpt>
      <trkpt lat="44.88996" lon="0.83541">
        <ele>97.2</ele>
        <time>1970-01-01T00:32:32.000Z</time>
      </trkpt>
      <trkpt lat="44.88993" lon="0.83537">
        <ele>97.2</ele>
        <time>1970-01-01T00:32:33.000Z</time>
      </trkpt>
      <trkpt lat="44.88991" lon="0.83534">
        <ele>98.2</ele>
        <time>1970-01-01T00:32:34.000Z</time>
      </trkpt>
      <trkpt lat="44.88989" lon="0.8353">
        <ele>99.5</ele>
        <time>1970-01-01T00:32:35.000Z</time>
      </trkpt>
      <trkpt lat="44.88987" lon="0.83526">
        <ele>99.6</ele>
        <time>1970-01-01T00:32:36.000Z</time>
      </trkpt>
      <trkpt lat="44.88985" lon="0.83522">
        <ele>99.7</ele>
        <time>1970-01-01T00:32:37.000Z</time>
      </trkpt>
      <trkpt lat="44.88984" lon="0.83519">
        <ele>99.8</ele>
        <time>1970-01-01T00:32:38.000Z</time>
      </trkpt>
      <trkpt lat="44.88982" lon="0.83515">
        <ele>99.8</ele>
        <time>1970-01-01T00:32:39.000Z</time>
      </trkpt>
      <trkpt lat="44.88981" lon="0.83511">
        <ele>100.8</ele>
        <time>1970-01-01T00:32:40.000Z</time>
      </trkpt>
      <trkpt lat="44.8898" lon="0.83508">
        <ele>101.8</ele>
        <time>1970-01-01T00:32:41.000Z</time>
      </trkpt>
      <trkpt lat="44.88979" lon="0.83504">
        <ele>101.8</ele>
        <time>1970-01-01T00:32:42.000Z</time>
      </trkpt>
      <trkpt lat="44.88977" lon="0.83501">
        <ele>101.9</ele>
        <time>1970-01-01T00:32:43.000Z</time>
      </trkpt>
      <trkpt lat="44.88976" lon="0.83498">
        <ele>102</ele>
        <time>1970-01-01T00:32:44.000Z</time>
      </trkpt>
      <trkpt lat="44.88975" lon="0.83495">
        <ele>102.8</ele>
        <time>1970-01-01T00:32:45.000Z</time>
      </trkpt>
      <trkpt lat="44.88974" lon="0.83493">
        <ele>102.9</ele>
        <time>1970-01-01T00:32:46.000Z</time>
      </trkpt>
      <trkpt lat="44.88973" lon="0.83491">
        <ele>103</ele>
        <time>1970-01-01T00:32:47.000Z</time>
      </trkpt>
      <trkpt lat="44.88972" lon="0.83489">
        <ele>103</ele>
        <time>1970-01-01T00:32:48.000Z</time>
      </trkpt>
      <trkpt lat="44.88971" lon="0.83486">
        <ele>103.1</ele>
        <time>1970-01-01T00:32:49.000Z</time>
      </trkpt>
      <trkpt lat="44.8897" lon="0.83484">
        <ele>103.2</ele>
        <time>1970-01-01T00:32:50.000Z</time>
      </trkpt>
      <trkpt lat="44.88969" lon="0.83482">
        <ele>104.1</ele>
        <time>1970-01-01T00:32:51.000Z</time>
      </trkpt>
      <trkpt lat="44.88968" lon="0.83479">
        <ele>105.1</ele>
        <time>1970-01-01T00:32:52.000Z</time>
      </trkpt>
      <trkpt lat="44.88966" lon="0.83476">
        <ele>105.2</ele>
        <time>1970-01-01T00:32:53.000Z</time>
      </trkpt>
      <trkpt lat="44.88964" lon="0.83473">
        <ele>105.2</ele>
        <time>1970-01-01T00:32:54.000Z</time>
      </trkpt>
      <trkpt lat="44.88963" lon="0.83469">
        <ele>105.3</ele>
        <time>1970-01-01T00:32:55.000Z</time>
      </trkpt>
      <trkpt lat="44.8896" lon="0.83466">
        <ele>105.4</ele>
        <time>1970-01-01T00:32:56.000Z</time>
      </trkpt>
      <trkpt lat="44.88958" lon="0.83463">
        <ele>105.4</ele>
        <time>1970-01-01T00:32:57.000Z</time>
      </trkpt>
      <trkpt lat="44.88957" lon="0.8346">
        <ele>106.1</ele>
        <time>1970-01-01T00:32:58.000Z</time>
      </trkpt>
      <trkpt lat="44.88955" lon="0.83456">
        <ele>106.9</ele>
        <time>1970-01-01T00:32:59.000Z</time>
      </trkpt>
      <trkpt lat="44.88953" lon="0.83453">
        <ele>107</ele>
        <time>1970-01-01T00:33:00.000Z</time>
      </trkpt>
      <trkpt lat="44.88952" lon="0.8345">
        <ele>107</ele>
        <time>1970-01-01T00:33:01.000Z</time>
      </trkpt>
      <trkpt lat="44.8895" lon="0.83447">
        <ele>107.1</ele>
        <time>1970-01-01T00:33:02.000Z</time>
      </trkpt>
      <trkpt lat="44.88948" lon="0.83445">
        <ele>107.4</ele>
        <time>1970-01-01T00:33:03.000Z</time>
      </trkpt>
      <trkpt lat="44.88947" lon="0.83442">
        <ele>107.4</ele>
        <time>1970-01-01T00:33:04.000Z</time>
      </trkpt>
      <trkpt lat="44.88945" lon="0.83439">
        <ele>107.5</ele>
        <time>1970-01-01T00:33:05.000Z</time>
      </trkpt>
      <trkpt lat="44.88943" lon="0.83437">
        <ele>108</ele>
        <time>1970-01-01T00:33:06.000Z</time>
      </trkpt>
      <trkpt lat="44.88941" lon="0.83434">
        <ele>108.1</ele>
        <time>1970-01-01T00:33:07.000Z</time>
      </trkpt>
      <trkpt lat="44.88939" lon="0.83432">
        <ele>108.1</ele>
        <time>1970-01-01T00:33:08.000Z</time>
      </trkpt>
      <trkpt lat="44.88937" lon="0.83429">
        <ele>108.2</ele>
        <time>1970-01-01T00:33:09.000Z</time>
      </trkpt>
      <trkpt lat="44.88935" lon="0.83427">
        <ele>108.5</ele>
        <time>1970-01-01T00:33:10.000Z</time>
      </trkpt>
      <trkpt lat="44.88932" lon="0.83424">
        <ele>109</ele>
        <time>1970-01-01T00:33:11.000Z</time>
      </trkpt>
      <trkpt lat="44.88929" lon="0.83421">
        <ele>109.1</ele>
        <time>1970-01-01T00:33:12.000Z</time>
      </trkpt>
      <trkpt lat="44.88927" lon="0.83418">
        <ele>109.2</ele>
        <time>1970-01-01T00:33:13.000Z</time>
      </trkpt>
      <trkpt lat="44.88925" lon="0.83415">
        <ele>109.2</ele>
        <time>1970-01-01T00:33:14.000Z</time>
      </trkpt>
      <trkpt lat="44.88923" lon="0.83412">
        <ele>109.3</ele>
        <time>1970-01-01T00:33:15.000Z</time>
      </trkpt>
      <trkpt lat="44.8892" lon="0.83409">
        <ele>110.4</ele>
        <time>1970-01-01T00:33:16.000Z</time>
      </trkpt>
      <trkpt lat="44.88918" lon="0.83406">
        <ele>110.4</ele>
        <time>1970-01-01T00:33:17.000Z</time>
      </trkpt>
      <trkpt lat="44.88915" lon="0.83404">
        <ele>110.5</ele>
        <time>1970-01-01T00:33:18.000Z</time>
      </trkpt>
      <trkpt lat="44.88913" lon="0.83401">
        <ele>110.6</ele>
        <time>1970-01-01T00:33:19.000Z</time>
      </trkpt>
      <trkpt lat="44.88911" lon="0.83399">
        <ele>110.6</ele>
        <time>1970-01-01T00:33:20.000Z</time>
      </trkpt>
      <trkpt lat="44.88908" lon="0.83396">
        <ele>110.7</ele>
        <time>1970-01-01T00:33:21.000Z</time>
      </trkpt>
      <trkpt lat="44.88906" lon="0.83393">
        <ele>111.8</ele>
        <time>1970-01-01T00:33:22.000Z</time>
      </trkpt>
      <trkpt lat="44.88904" lon="0.8339">
        <ele>111.9</ele>
        <time>1970-01-01T00:33:23.000Z</time>
      </trkpt>
      <trkpt lat="44.88902" lon="0.83387">
        <ele>111.9</ele>
        <time>1970-01-01T00:33:24.000Z</time>
      </trkpt>
      <trkpt lat="44.889" lon="0.83384">
        <ele>112</ele>
        <time>1970-01-01T00:33:25.000Z</time>
      </trkpt>
      <trkpt lat="44.88898" lon="0.83381">
        <ele>112.1</ele>
        <time>1970-01-01T00:33:26.000Z</time>
      </trkpt>
      <trkpt lat="44.88896" lon="0.83379">
        <ele>112.3</ele>
        <time>1970-01-01T00:33:27.000Z</time>
      </trkpt>
      <trkpt lat="44.88894" lon="0.83376">
        <ele>112.4</ele>
        <time>1970-01-01T00:33:28.000Z</time>
      </trkpt>
      <trkpt lat="44.88892" lon="0.83373">
        <ele>113</ele>
        <time>1970-01-01T00:33:29.000Z</time>
      </trkpt>
      <trkpt lat="44.8889" lon="0.8337">
        <ele>113.1</ele>
        <time>1970-01-01T00:33:30.000Z</time>
      </trkpt>
      <trkpt lat="44.88888" lon="0.83367">
        <ele>113.2</ele>
        <time>1970-01-01T00:33:31.000Z</time>
      </trkpt>
      <trkpt lat="44.88886" lon="0.83365">
        <ele>113.2</ele>
        <time>1970-01-01T00:33:32.000Z</time>
      </trkpt>
      <trkpt lat="44.88884" lon="0.83362">
        <ele>113.3</ele>
        <time>1970-01-01T00:33:33.000Z</time>
      </trkpt>
      <trkpt lat="44.88882" lon="0.83359">
        <ele>113.2</ele>
        <time>1970-01-01T00:33:34.000Z</time>
      </trkpt>
      <trkpt lat="44.88881" lon="0.83356">
        <ele>113.7</ele>
        <time>1970-01-01T00:33:35.000Z</time>
      </trkpt>
      <trkpt lat="44.88879" lon="0.83353">
        <ele>113.7</ele>
        <time>1970-01-01T00:33:36.000Z</time>
      </trkpt>
      <trkpt lat="44.88877" lon="0.8335">
        <ele>113.8</ele>
        <time>1970-01-01T00:33:37.000Z</time>
      </trkpt>
      <trkpt lat="44.88875" lon="0.83346">
        <ele>113.9</ele>
        <time>1970-01-01T00:33:38.000Z</time>
      </trkpt>
      <trkpt lat="44.88873" lon="0.83343">
        <ele>113.9</ele>
        <time>1970-01-01T00:33:39.000Z</time>
      </trkpt>
      <trkpt lat="44.8887" lon="0.8334">
        <ele>113.8</ele>
        <time>1970-01-01T00:33:40.000Z</time>
      </trkpt>
      <trkpt lat="44.88868" lon="0.83336">
        <ele>113.9</ele>
        <time>1970-01-01T00:33:41.000Z</time>
      </trkpt>
      <trkpt lat="44.88865" lon="0.83333">
        <ele>114</ele>
        <time>1970-01-01T00:33:42.000Z</time>
      </trkpt>
      <trkpt lat="44.88863" lon="0.8333">
        <ele>114</ele>
        <time>1970-01-01T00:33:43.000Z</time>
      </trkpt>
      <trkpt lat="44.8886" lon="0.83326">
        <ele>114.1</ele>
        <time>1970-01-01T00:33:44.000Z</time>
      </trkpt>
      <trkpt lat="44.88858" lon="0.83323">
        <ele>114.1</ele>
        <time>1970-01-01T00:33:45.000Z</time>
      </trkpt>
      <trkpt lat="44.88856" lon="0.8332">
        <ele>114.2</ele>
        <time>1970-01-01T00:33:46.000Z</time>
      </trkpt>
      <trkpt lat="44.88853" lon="0.83317">
        <ele>114.2</ele>
        <time>1970-01-01T00:33:47.000Z</time>
      </trkpt>
      <trkpt lat="44.88851" lon="0.83313">
        <ele>114.3</ele>
        <time>1970-01-01T00:33:48.000Z</time>
      </trkpt>
      <trkpt lat="44.88849" lon="0.8331">
        <ele>114.4</ele>
        <time>1970-01-01T00:33:49.000Z</time>
      </trkpt>
      <trkpt lat="44.88847" lon="0.83307">
        <ele>114.6</ele>
        <time>1970-01-01T00:33:50.000Z</time>
      </trkpt>
      <trkpt lat="44.88845" lon="0.83304">
        <ele>114.7</ele>
        <time>1970-01-01T00:33:51.000Z</time>
      </trkpt>
      <trkpt lat="44.88843" lon="0.83301">
        <ele>114.8</ele>
        <time>1970-01-01T00:33:52.000Z</time>
      </trkpt>
      <trkpt lat="44.88841" lon="0.83297">
        <ele>114.8</ele>
        <time>1970-01-01T00:33:53.000Z</time>
      </trkpt>
      <trkpt lat="44.88839" lon="0.83294">
        <ele>114.9</ele>
        <time>1970-01-01T00:33:54.000Z</time>
      </trkpt>
      <trkpt lat="44.88837" lon="0.83291">
        <ele>115</ele>
        <time>1970-01-01T00:33:55.000Z</time>
      </trkpt>
      <trkpt lat="44.88835" lon="0.83287">
        <ele>115.5</ele>
        <time>1970-01-01T00:33:56.000Z</time>
      </trkpt>
      <trkpt lat="44.88833" lon="0.83284">
        <ele>115.5</ele>
        <time>1970-01-01T00:33:57.000Z</time>
      </trkpt>
      <trkpt lat="44.8883" lon="0.83281">
        <ele>115.6</ele>
        <time>1970-01-01T00:33:58.000Z</time>
      </trkpt>
      <trkpt lat="44.88828" lon="0.83278">
        <ele>115.7</ele>
        <time>1970-01-01T00:33:59.000Z</time>
      </trkpt>
      <trkpt lat="44.88826" lon="0.83275">
        <ele>115.7</ele>
        <time>1970-01-01T00:34:00.000Z</time>
      </trkpt>
      <trkpt lat="44.88824" lon="0.83271">
        <ele>116.2</ele>
        <time>1970-01-01T00:34:01.000Z</time>
      </trkpt>
      <trkpt lat="44.88822" lon="0.83268">
        <ele>116.4</ele>
        <time>1970-01-01T00:34:02.000Z</time>
      </trkpt>
      <trkpt lat="44.88819" lon="0.83265">
        <ele>116.5</ele>
        <time>1970-01-01T00:34:03.000Z</time>
      </trkpt>
      <trkpt lat="44.88817" lon="0.83261">
        <ele>116.6</ele>
        <time>1970-01-01T00:34:04.000Z</time>
      </trkpt>
      <trkpt lat="44.88814" lon="0.83258">
        <ele>116.6</ele>
        <time>1970-01-01T00:34:05.000Z</time>
      </trkpt>
      <trkpt lat="44.88812" lon="0.83255">
        <ele>117.1</ele>
        <time>1970-01-01T00:34:06.000Z</time>
      </trkpt>
      <trkpt lat="44.88809" lon="0.83252">
        <ele>117.3</ele>
        <time>1970-01-01T00:34:07.000Z</time>
      </trkpt>
      <trkpt lat="44.88806" lon="0.83248">
        <ele>117.4</ele>
        <time>1970-01-01T00:34:08.000Z</time>
      </trkpt>
      <trkpt lat="44.88803" lon="0.83245">
        <ele>117.4</ele>
        <time>1970-01-01T00:34:09.000Z</time>
      </trkpt>
      <trkpt lat="44.888" lon="0.83241">
        <ele>117.5</ele>
        <time>1970-01-01T00:34:10.000Z</time>
      </trkpt>
      <trkpt lat="44.88798" lon="0.83238">
        <ele>118.1</ele>
        <time>1970-01-01T00:34:11.000Z</time>
      </trkpt>
      <trkpt lat="44.88795" lon="0.83234">
        <ele>118.1</ele>
        <time>1970-01-01T00:34:12.000Z</time>
      </trkpt>
      <trkpt lat="44.88792" lon="0.83231">
        <ele>118.2</ele>
        <time>1970-01-01T00:34:13.000Z</time>
      </trkpt>
      <trkpt lat="44.88789" lon="0.83228">
        <ele>118.3</ele>
        <time>1970-01-01T00:34:14.000Z</time>
      </trkpt>
      <trkpt lat="44.88786" lon="0.83225">
        <ele>118.3</ele>
        <time>1970-01-01T00:34:15.000Z</time>
      </trkpt>
      <trkpt lat="44.88784" lon="0.83222">
        <ele>118.5</ele>
        <time>1970-01-01T00:34:16.000Z</time>
      </trkpt>
      <trkpt lat="44.88781" lon="0.83219">
        <ele>119</ele>
        <time>1970-01-01T00:34:17.000Z</time>
      </trkpt>
      <trkpt lat="44.88779" lon="0.83215">
        <ele>119.1</ele>
        <time>1970-01-01T00:34:18.000Z</time>
      </trkpt>
      <trkpt lat="44.88776" lon="0.83212">
        <ele>119.1</ele>
        <time>1970-01-01T00:34:19.000Z</time>
      </trkpt>
      <trkpt lat="44.88774" lon="0.83209">
        <ele>119.3</ele>
        <time>1970-01-01T00:34:20.000Z</time>
      </trkpt>
      <trkpt lat="44.88771" lon="0.83206">
        <ele>119.4</ele>
        <time>1970-01-01T00:34:21.000Z</time>
      </trkpt>
      <trkpt lat="44.88769" lon="0.83203">
        <ele>119.9</ele>
        <time>1970-01-01T00:34:22.000Z</time>
      </trkpt>
      <trkpt lat="44.88767" lon="0.832">
        <ele>119.9</ele>
        <time>1970-01-01T00:34:23.000Z</time>
      </trkpt>
      <trkpt lat="44.88764" lon="0.83197">
        <ele>120</ele>
        <time>1970-01-01T00:34:24.000Z</time>
      </trkpt>
      <trkpt lat="44.88762" lon="0.83194">
        <ele>120.3</ele>
        <time>1970-01-01T00:34:25.000Z</time>
      </trkpt>
      <trkpt lat="44.88759" lon="0.83191">
        <ele>120.3</ele>
        <time>1970-01-01T00:34:26.000Z</time>
      </trkpt>
      <trkpt lat="44.88757" lon="0.83188">
        <ele>120.4</ele>
        <time>1970-01-01T00:34:27.000Z</time>
      </trkpt>
      <trkpt lat="44.88755" lon="0.83185">
        <ele>120.8</ele>
        <time>1970-01-01T00:34:28.000Z</time>
      </trkpt>
      <trkpt lat="44.88753" lon="0.83181">
        <ele>120.9</ele>
        <time>1970-01-01T00:34:29.000Z</time>
      </trkpt>
      <trkpt lat="44.88753" lon="0.83177">
        <ele>121</ele>
        <time>1970-01-01T00:34:30.000Z</time>
      </trkpt>
      <trkpt lat="44.88754" lon="0.83172">
        <ele>121</ele>
        <time>1970-01-01T00:34:31.000Z</time>
      </trkpt>
      <trkpt lat="44.88757" lon="0.83169">
        <ele>121.1</ele>
        <time>1970-01-01T00:34:32.000Z</time>
      </trkpt>
      <trkpt lat="44.8876" lon="0.83166">
        <ele>121.2</ele>
        <time>1970-01-01T00:34:33.000Z</time>
      </trkpt>
      <trkpt lat="44.88762" lon="0.83163">
        <ele>121.3</ele>
        <time>1970-01-01T00:34:34.000Z</time>
      </trkpt>
      <trkpt lat="44.88764" lon="0.83161">
        <ele>121.4</ele>
        <time>1970-01-01T00:34:35.000Z</time>
      </trkpt>
      <trkpt lat="44.88766" lon="0.83159">
        <ele>121.4</ele>
        <time>1970-01-01T00:34:36.000Z</time>
      </trkpt>
      <trkpt lat="44.88769" lon="0.83157">
        <ele>121.4</ele>
        <time>1970-01-01T00:34:37.000Z</time>
      </trkpt>
      <trkpt lat="44.88771" lon="0.83155">
        <ele>121.4</ele>
        <time>1970-01-01T00:34:38.000Z</time>
      </trkpt>
      <trkpt lat="44.88774" lon="0.83152">
        <ele>121.4</ele>
        <time>1970-01-01T00:34:39.000Z</time>
      </trkpt>
      <trkpt lat="44.88777" lon="0.8315">
        <ele>121.4</ele>
        <time>1970-01-01T00:34:40.000Z</time>
      </trkpt>
      <trkpt lat="44.8878" lon="0.83147">
        <ele>121.3</ele>
        <time>1970-01-01T00:34:41.000Z</time>
      </trkpt>
      <trkpt lat="44.88783" lon="0.83144">
        <ele>121.2</ele>
        <time>1970-01-01T00:34:42.000Z</time>
      </trkpt>
      <trkpt lat="44.88785" lon="0.83141">
        <ele>121.1</ele>
        <time>1970-01-01T00:34:43.000Z</time>
      </trkpt>
      <trkpt lat="44.88788" lon="0.83138">
        <ele>120.9</ele>
        <time>1970-01-01T00:34:44.000Z</time>
      </trkpt>
      <trkpt lat="44.88792" lon="0.83135">
        <ele>120.7</ele>
        <time>1970-01-01T00:34:45.000Z</time>
      </trkpt>
      <trkpt lat="44.88795" lon="0.83132">
        <ele>120.5</ele>
        <time>1970-01-01T00:34:46.000Z</time>
      </trkpt>
      <trkpt lat="44.88798" lon="0.83129">
        <ele>120.3</ele>
        <time>1970-01-01T00:34:47.000Z</time>
      </trkpt>
      <trkpt lat="44.88802" lon="0.83126">
        <ele>120</ele>
        <time>1970-01-01T00:34:48.000Z</time>
      </trkpt>
      <trkpt lat="44.88806" lon="0.83122">
        <ele>119.7</ele>
        <time>1970-01-01T00:34:49.000Z</time>
      </trkpt>
      <trkpt lat="44.8881" lon="0.83119">
        <ele>119.3</ele>
        <time>1970-01-01T00:34:50.000Z</time>
      </trkpt>
      <trkpt lat="44.88815" lon="0.83115">
        <ele>118.8</ele>
        <time>1970-01-01T00:34:51.000Z</time>
      </trkpt>
      <trkpt lat="44.88819" lon="0.83111">
        <ele>118.3</ele>
        <time>1970-01-01T00:34:52.000Z</time>
      </trkpt>
      <trkpt lat="44.88824" lon="0.83107">
        <ele>117.6</ele>
        <time>1970-01-01T00:34:53.000Z</time>
      </trkpt>
      <trkpt lat="44.8883" lon="0.83102">
        <ele>116.9</ele>
        <time>1970-01-01T00:34:54.000Z</time>
      </trkpt>
      <trkpt lat="44.88836" lon="0.83097">
        <ele>116.1</ele>
        <time>1970-01-01T00:34:55.000Z</time>
      </trkpt>
      <trkpt lat="44.88843" lon="0.83092">
        <ele>115.2</ele>
        <time>1970-01-01T00:34:56.000Z</time>
      </trkpt>
      <trkpt lat="44.8885" lon="0.83086">
        <ele>114.3</ele>
        <time>1970-01-01T00:34:57.000Z</time>
      </trkpt>
      <trkpt lat="44.88857" lon="0.83081">
        <ele>113.6</ele>
        <time>1970-01-01T00:34:58.000Z</time>
      </trkpt>
      <trkpt lat="44.88863" lon="0.83076">
        <ele>113.1</ele>
        <time>1970-01-01T00:34:59.000Z</time>
      </trkpt>
      <trkpt lat="44.88869" lon="0.8307">
        <ele>112.7</ele>
        <time>1970-01-01T00:35:00.000Z</time>
      </trkpt>
      <trkpt lat="44.88875" lon="0.83065">
        <ele>112.6</ele>
        <time>1970-01-01T00:35:01.000Z</time>
      </trkpt>
      <trkpt lat="44.8888" lon="0.83059">
        <ele>112.7</ele>
        <time>1970-01-01T00:35:02.000Z</time>
      </trkpt>
      <trkpt lat="44.88885" lon="0.83054">
        <ele>112.8</ele>
        <time>1970-01-01T00:35:03.000Z</time>
      </trkpt>
      <trkpt lat="44.8889" lon="0.83049">
        <ele>113</ele>
        <time>1970-01-01T00:35:04.000Z</time>
      </trkpt>
      <trkpt lat="44.88893" lon="0.83045">
        <ele>113.2</ele>
        <time>1970-01-01T00:35:05.000Z</time>
      </trkpt>
      <trkpt lat="44.88897" lon="0.83041">
        <ele>113.5</ele>
        <time>1970-01-01T00:35:06.000Z</time>
      </trkpt>
      <trkpt lat="44.889" lon="0.83038">
        <ele>113.8</ele>
        <time>1970-01-01T00:35:07.000Z</time>
      </trkpt>
      <trkpt lat="44.88903" lon="0.83034">
        <ele>114.1</ele>
        <time>1970-01-01T00:35:08.000Z</time>
      </trkpt>
      <trkpt lat="44.88906" lon="0.83031">
        <ele>114.5</ele>
        <time>1970-01-01T00:35:09.000Z</time>
      </trkpt>
      <trkpt lat="44.88909" lon="0.83027">
        <ele>115</ele>
        <time>1970-01-01T00:35:10.000Z</time>
      </trkpt>
      <trkpt lat="44.88912" lon="0.83024">
        <ele>115.4</ele>
        <time>1970-01-01T00:35:11.000Z</time>
      </trkpt>
      <trkpt lat="44.88914" lon="0.83021">
        <ele>115.8</ele>
        <time>1970-01-01T00:35:12.000Z</time>
      </trkpt>
      <trkpt lat="44.88916" lon="0.83018">
        <ele>116.1</ele>
        <time>1970-01-01T00:35:13.000Z</time>
      </trkpt>
      <trkpt lat="44.88918" lon="0.83015">
        <ele>116.4</ele>
        <time>1970-01-01T00:35:14.000Z</time>
      </trkpt>
      <trkpt lat="44.88921" lon="0.83012">
        <ele>116.8</ele>
        <time>1970-01-01T00:35:15.000Z</time>
      </trkpt>
      <trkpt lat="44.88923" lon="0.8301">
        <ele>117.1</ele>
        <time>1970-01-01T00:35:16.000Z</time>
      </trkpt>
      <trkpt lat="44.88925" lon="0.83007">
        <ele>117.4</ele>
        <time>1970-01-01T00:35:17.000Z</time>
      </trkpt>
      <trkpt lat="44.88927" lon="0.83005">
        <ele>117.8</ele>
        <time>1970-01-01T00:35:18.000Z</time>
      </trkpt>
      <trkpt lat="44.88929" lon="0.83003">
        <ele>118.1</ele>
        <time>1970-01-01T00:35:19.000Z</time>
      </trkpt>
      <trkpt lat="44.88932" lon="0.83">
        <ele>118.4</ele>
        <time>1970-01-01T00:35:20.000Z</time>
      </trkpt>
      <trkpt lat="44.88934" lon="0.82998">
        <ele>118.7</ele>
        <time>1970-01-01T00:35:21.000Z</time>
      </trkpt>
      <trkpt lat="44.88936" lon="0.82996">
        <ele>118.9</ele>
        <time>1970-01-01T00:35:22.000Z</time>
      </trkpt>
      <trkpt lat="44.88939" lon="0.82994">
        <ele>119.2</ele>
        <time>1970-01-01T00:35:23.000Z</time>
      </trkpt>
      <trkpt lat="44.88941" lon="0.82992">
        <ele>119.5</ele>
        <time>1970-01-01T00:35:24.000Z</time>
      </trkpt>
      <trkpt lat="44.88944" lon="0.82989">
        <ele>119.7</ele>
        <time>1970-01-01T00:35:25.000Z</time>
      </trkpt>
      <trkpt lat="44.88946" lon="0.82985">
        <ele>119.8</ele>
        <time>1970-01-01T00:35:26.000Z</time>
      </trkpt>
      <trkpt lat="44.88949" lon="0.82982">
        <ele>120</ele>
        <time>1970-01-01T00:35:27.000Z</time>
      </trkpt>
      <trkpt lat="44.88952" lon="0.82978">
        <ele>120.1</ele>
        <time>1970-01-01T00:35:28.000Z</time>
      </trkpt>
      <trkpt lat="44.88954" lon="0.82975">
        <ele>120.3</ele>
        <time>1970-01-01T00:35:29.000Z</time>
      </trkpt>
      <trkpt lat="44.88957" lon="0.82972">
        <ele>120.4</ele>
        <time>1970-01-01T00:35:30.000Z</time>
      </trkpt>
      <trkpt lat="44.8896" lon="0.82969">
        <ele>120.5</ele>
        <time>1970-01-01T00:35:31.000Z</time>
      </trkpt>
      <trkpt lat="44.88963" lon="0.82967">
        <ele>120.6</ele>
        <time>1970-01-01T00:35:32.000Z</time>
      </trkpt>
      <trkpt lat="44.88966" lon="0.82964">
        <ele>120.7</ele>
        <time>1970-01-01T00:35:33.000Z</time>
      </trkpt>
      <trkpt lat="44.88969" lon="0.82962">
        <ele>120.7</ele>
        <time>1970-01-01T00:35:34.000Z</time>
      </trkpt>
      <trkpt lat="44.88972" lon="0.82959">
        <ele>120.7</ele>
        <time>1970-01-01T00:35:35.000Z</time>
      </trkpt>
      <trkpt lat="44.88974" lon="0.82957">
        <ele>120.7</ele>
        <time>1970-01-01T00:35:36.000Z</time>
      </trkpt>
      <trkpt lat="44.88977" lon="0.82954">
        <ele>120.7</ele>
        <time>1970-01-01T00:35:37.000Z</time>
      </trkpt>
      <trkpt lat="44.88981" lon="0.82951">
        <ele>120.7</ele>
        <time>1970-01-01T00:35:38.000Z</time>
      </trkpt>
      <trkpt lat="44.88984" lon="0.82948">
        <ele>120.6</ele>
        <time>1970-01-01T00:35:39.000Z</time>
      </trkpt>
      <trkpt lat="44.88987" lon="0.82945">
        <ele>120.5</ele>
        <time>1970-01-01T00:35:40.000Z</time>
      </trkpt>
      <trkpt lat="44.8899" lon="0.82942">
        <ele>120.4</ele>
        <time>1970-01-01T00:35:41.000Z</time>
      </trkpt>
      <trkpt lat="44.88994" lon="0.82939">
        <ele>120.3</ele>
        <time>1970-01-01T00:35:42.000Z</time>
      </trkpt>
      <trkpt lat="44.88998" lon="0.82935">
        <ele>120.1</ele>
        <time>1970-01-01T00:35:43.000Z</time>
      </trkpt>
      <trkpt lat="44.89001" lon="0.82931">
        <ele>119.8</ele>
        <time>1970-01-01T00:35:44.000Z</time>
      </trkpt>
      <trkpt lat="44.89005" lon="0.82927">
        <ele>119.5</ele>
        <time>1970-01-01T00:35:45.000Z</time>
      </trkpt>
      <trkpt lat="44.8901" lon="0.82924">
        <ele>119.2</ele>
        <time>1970-01-01T00:35:46.000Z</time>
      </trkpt>
      <trkpt lat="44.89015" lon="0.82921">
        <ele>118.9</ele>
        <time>1970-01-01T00:35:47.000Z</time>
      </trkpt>
      <trkpt lat="44.8902" lon="0.82918">
        <ele>118.6</ele>
        <time>1970-01-01T00:35:48.000Z</time>
      </trkpt>
      <trkpt lat="44.89025" lon="0.82916">
        <ele>118.3</ele>
        <time>1970-01-01T00:35:49.000Z</time>
      </trkpt>
      <trkpt lat="44.89029" lon="0.82914">
        <ele>118.1</ele>
        <time>1970-01-01T00:35:50.000Z</time>
      </trkpt>
      <trkpt lat="44.89034" lon="0.82912">
        <ele>117.8</ele>
        <time>1970-01-01T00:35:51.000Z</time>
      </trkpt>
      <trkpt lat="44.89038" lon="0.82909">
        <ele>117.7</ele>
        <time>1970-01-01T00:35:52.000Z</time>
      </trkpt>
      <trkpt lat="44.89043" lon="0.82907">
        <ele>117.5</ele>
        <time>1970-01-01T00:35:53.000Z</time>
      </trkpt>
      <trkpt lat="44.89047" lon="0.82904">
        <ele>117.5</ele>
        <time>1970-01-01T00:35:54.000Z</time>
      </trkpt>
      <trkpt lat="44.8905" lon="0.829">
        <ele>117.4</ele>
        <time>1970-01-01T00:35:55.000Z</time>
      </trkpt>
      <trkpt lat="44.89052" lon="0.82895">
        <ele>117.4</ele>
        <time>1970-01-01T00:35:56.000Z</time>
      </trkpt>
      <trkpt lat="44.89053" lon="0.8289">
        <ele>117.5</ele>
        <time>1970-01-01T00:35:57.000Z</time>
      </trkpt>
      <trkpt lat="44.89054" lon="0.82884">
        <ele>117.6</ele>
        <time>1970-01-01T00:35:58.000Z</time>
      </trkpt>
      <trkpt lat="44.89055" lon="0.82879">
        <ele>117.7</ele>
        <time>1970-01-01T00:35:59.000Z</time>
      </trkpt>
      <trkpt lat="44.89057" lon="0.82873">
        <ele>117.8</ele>
        <time>1970-01-01T00:36:00.000Z</time>
      </trkpt>
      <trkpt lat="44.89058" lon="0.82868">
        <ele>117.9</ele>
        <time>1970-01-01T00:36:01.000Z</time>
      </trkpt>
      <trkpt lat="44.8906" lon="0.82862">
        <ele>117.9</ele>
        <time>1970-01-01T00:36:02.000Z</time>
      </trkpt>
      <trkpt lat="44.89061" lon="0.82857">
        <ele>118</ele>
        <time>1970-01-01T00:36:03.000Z</time>
      </trkpt>
      <trkpt lat="44.89063" lon="0.82851">
        <ele>118</ele>
        <time>1970-01-01T00:36:04.000Z</time>
      </trkpt>
      <trkpt lat="44.89064" lon="0.82845">
        <ele>117.9</ele>
        <time>1970-01-01T00:36:05.000Z</time>
      </trkpt>
      <trkpt lat="44.89066" lon="0.82839">
        <ele>117.8</ele>
        <time>1970-01-01T00:36:06.000Z</time>
      </trkpt>
      <trkpt lat="44.89068" lon="0.82833">
        <ele>117.7</ele>
        <time>1970-01-01T00:36:07.000Z</time>
      </trkpt>
      <trkpt lat="44.89072" lon="0.82828">
        <ele>117.5</ele>
        <time>1970-01-01T00:36:08.000Z</time>
      </trkpt>
      <trkpt lat="44.89075" lon="0.82825">
        <ele>117.3</ele>
        <time>1970-01-01T00:36:09.000Z</time>
      </trkpt>
      <trkpt lat="44.89079" lon="0.82823">
        <ele>117</ele>
        <time>1970-01-01T00:36:10.000Z</time>
      </trkpt>
      <trkpt lat="44.89085" lon="0.8282">
        <ele>116.7</ele>
        <time>1970-01-01T00:36:11.000Z</time>
      </trkpt>
      <trkpt lat="44.89093" lon="0.82819">
        <ele>116.2</ele>
        <time>1970-01-01T00:36:12.000Z</time>
      </trkpt>
      <trkpt lat="44.891" lon="0.82819">
        <ele>115.7</ele>
        <time>1970-01-01T00:36:13.000Z</time>
      </trkpt>
      <trkpt lat="44.89107" lon="0.82819">
        <ele>115.2</ele>
        <time>1970-01-01T00:36:14.000Z</time>
      </trkpt>
      <trkpt lat="44.89113" lon="0.82819">
        <ele>114.7</ele>
        <time>1970-01-01T00:36:15.000Z</time>
      </trkpt>
      <trkpt lat="44.8912" lon="0.8282">
        <ele>114.2</ele>
        <time>1970-01-01T00:36:16.000Z</time>
      </trkpt>
      <trkpt lat="44.89128" lon="0.82822">
        <ele>113.6</ele>
        <time>1970-01-01T00:36:17.000Z</time>
      </trkpt>
      <trkpt lat="44.89136" lon="0.82825">
        <ele>112.9</ele>
        <time>1970-01-01T00:36:18.000Z</time>
      </trkpt>
      <trkpt lat="44.89143" lon="0.82829">
        <ele>112.2</ele>
        <time>1970-01-01T00:36:19.000Z</time>
      </trkpt>
      <trkpt lat="44.89151" lon="0.82832">
        <ele>111.4</ele>
        <time>1970-01-01T00:36:20.000Z</time>
      </trkpt>
      <trkpt lat="44.89159" lon="0.82836">
        <ele>110.6</ele>
        <time>1970-01-01T00:36:21.000Z</time>
      </trkpt>
      <trkpt lat="44.89167" lon="0.8284">
        <ele>109.9</ele>
        <time>1970-01-01T00:36:22.000Z</time>
      </trkpt>
      <trkpt lat="44.89174" lon="0.82844">
        <ele>109.1</ele>
        <time>1970-01-01T00:36:23.000Z</time>
      </trkpt>
      <trkpt lat="44.89181" lon="0.82849">
        <ele>108.4</ele>
        <time>1970-01-01T00:36:24.000Z</time>
      </trkpt>
      <trkpt lat="44.89188" lon="0.82854">
        <ele>107.6</ele>
        <time>1970-01-01T00:36:25.000Z</time>
      </trkpt>
      <trkpt lat="44.89195" lon="0.82859">
        <ele>106.7</ele>
        <time>1970-01-01T00:36:26.000Z</time>
      </trkpt>
      <trkpt lat="44.89201" lon="0.82863">
        <ele>105.9</ele>
        <time>1970-01-01T00:36:27.000Z</time>
      </trkpt>
      <trkpt lat="44.89207" lon="0.82866">
        <ele>105.2</ele>
        <time>1970-01-01T00:36:28.000Z</time>
      </trkpt>
      <trkpt lat="44.89212" lon="0.82867">
        <ele>104.6</ele>
        <time>1970-01-01T00:36:29.000Z</time>
      </trkpt>
      <trkpt lat="44.89217" lon="0.82867">
        <ele>104</ele>
        <time>1970-01-01T00:36:30.000Z</time>
      </trkpt>
      <trkpt lat="44.89222" lon="0.82862">
        <ele>103.4</ele>
        <time>1970-01-01T00:36:31.000Z</time>
      </trkpt>
      <trkpt lat="44.89225" lon="0.82854">
        <ele>102.7</ele>
        <time>1970-01-01T00:36:32.000Z</time>
      </trkpt>
      <trkpt lat="44.89228" lon="0.82845">
        <ele>102.1</ele>
        <time>1970-01-01T00:36:33.000Z</time>
      </trkpt>
      <trkpt lat="44.89231" lon="0.82836">
        <ele>102</ele>
        <time>1970-01-01T00:36:34.000Z</time>
      </trkpt>
      <trkpt lat="44.89233" lon="0.82829">
        <ele>102.2</ele>
        <time>1970-01-01T00:36:35.000Z</time>
      </trkpt>
      <trkpt lat="44.89236" lon="0.82821">
        <ele>102.5</ele>
        <time>1970-01-01T00:36:36.000Z</time>
      </trkpt>
      <trkpt lat="44.89238" lon="0.82815">
        <ele>102.8</ele>
        <time>1970-01-01T00:36:37.000Z</time>
      </trkpt>
      <trkpt lat="44.89241" lon="0.82808">
        <ele>103.2</ele>
        <time>1970-01-01T00:36:38.000Z</time>
      </trkpt>
      <trkpt lat="44.89244" lon="0.82802">
        <ele>103.6</ele>
        <time>1970-01-01T00:36:39.000Z</time>
      </trkpt>
      <trkpt lat="44.89246" lon="0.82796">
        <ele>104</ele>
        <time>1970-01-01T00:36:40.000Z</time>
      </trkpt>
      <trkpt lat="44.89248" lon="0.8279">
        <ele>104.4</ele>
        <time>1970-01-01T00:36:41.000Z</time>
      </trkpt>
      <trkpt lat="44.8925" lon="0.82783">
        <ele>104.8</ele>
        <time>1970-01-01T00:36:42.000Z</time>
      </trkpt>
      <trkpt lat="44.89252" lon="0.82777">
        <ele>105.2</ele>
        <time>1970-01-01T00:36:43.000Z</time>
      </trkpt>
      <trkpt lat="44.89254" lon="0.8277">
        <ele>105.6</ele>
        <time>1970-01-01T00:36:44.000Z</time>
      </trkpt>
      <trkpt lat="44.89255" lon="0.82764">
        <ele>106</ele>
        <time>1970-01-01T00:36:45.000Z</time>
      </trkpt>
      <trkpt lat="44.89256" lon="0.82757">
        <ele>106.4</ele>
        <time>1970-01-01T00:36:46.000Z</time>
      </trkpt>
      <trkpt lat="44.89257" lon="0.8275">
        <ele>106.8</ele>
        <time>1970-01-01T00:36:47.000Z</time>
      </trkpt>
      <trkpt lat="44.89258" lon="0.82742">
        <ele>107.2</ele>
        <time>1970-01-01T00:36:48.000Z</time>
      </trkpt>
      <trkpt lat="44.89259" lon="0.82736">
        <ele>107.5</ele>
        <time>1970-01-01T00:36:49.000Z</time>
      </trkpt>
      <trkpt lat="44.89259" lon="0.82729">
        <ele>107.9</ele>
        <time>1970-01-01T00:36:50.000Z</time>
      </trkpt>
      <trkpt lat="44.8926" lon="0.82722">
        <ele>108.2</ele>
        <time>1970-01-01T00:36:51.000Z</time>
      </trkpt>
      <trkpt lat="44.89261" lon="0.82716">
        <ele>108.5</ele>
        <time>1970-01-01T00:36:52.000Z</time>
      </trkpt>
      <trkpt lat="44.89264" lon="0.82712">
        <ele>108.7</ele>
        <time>1970-01-01T00:36:53.000Z</time>
      </trkpt>
      <trkpt lat="44.89267" lon="0.8271">
        <ele>109</ele>
        <time>1970-01-01T00:36:54.000Z</time>
      </trkpt>
      <trkpt lat="44.89271" lon="0.8271">
        <ele>109.3</ele>
        <time>1970-01-01T00:36:55.000Z</time>
      </trkpt>
      <trkpt lat="44.89274" lon="0.82709">
        <ele>109.4</ele>
        <time>1970-01-01T00:36:56.000Z</time>
      </trkpt>
      <trkpt lat="44.89279" lon="0.82709">
        <ele>109.5</ele>
        <time>1970-01-01T00:36:57.000Z</time>
      </trkpt>
      <trkpt lat="44.89283" lon="0.82708">
        <ele>109.7</ele>
        <time>1970-01-01T00:36:58.000Z</time>
      </trkpt>
      <trkpt lat="44.89287" lon="0.82706">
        <ele>109.9</ele>
        <time>1970-01-01T00:36:59.000Z</time>
      </trkpt>
      <trkpt lat="44.8929" lon="0.82704">
        <ele>110.1</ele>
        <time>1970-01-01T00:37:00.000Z</time>
      </trkpt>
      <trkpt lat="44.89293" lon="0.82702">
        <ele>110.4</ele>
        <time>1970-01-01T00:37:01.000Z</time>
      </trkpt>
      <trkpt lat="44.89295" lon="0.82699">
        <ele>110.7</ele>
        <time>1970-01-01T00:37:02.000Z</time>
      </trkpt>
      <trkpt lat="44.89296" lon="0.82696">
        <ele>110.9</ele>
        <time>1970-01-01T00:37:03.000Z</time>
      </trkpt>
      <trkpt lat="44.89297" lon="0.82693">
        <ele>111.1</ele>
        <time>1970-01-01T00:37:04.000Z</time>
      </trkpt>
      <trkpt lat="44.89298" lon="0.82689">
        <ele>111.4</ele>
        <time>1970-01-01T00:37:05.000Z</time>
      </trkpt>
      <trkpt lat="44.89299" lon="0.82686">
        <ele>111.6</ele>
        <time>1970-01-01T00:37:06.000Z</time>
      </trkpt>
      <trkpt lat="44.89298" lon="0.82681">
        <ele>111.8</ele>
        <time>1970-01-01T00:37:07.000Z</time>
      </trkpt>
      <trkpt lat="44.89295" lon="0.82676">
        <ele>112.1</ele>
        <time>1970-01-01T00:37:08.000Z</time>
      </trkpt>
      <trkpt lat="44.89293" lon="0.82669">
        <ele>112.4</ele>
        <time>1970-01-01T00:37:09.000Z</time>
      </trkpt>
      <trkpt lat="44.8929" lon="0.82662">
        <ele>112.7</ele>
        <time>1970-01-01T00:37:10.000Z</time>
      </trkpt>
      <trkpt lat="44.89289" lon="0.82654">
        <ele>113</ele>
        <time>1970-01-01T00:37:11.000Z</time>
      </trkpt>
      <trkpt lat="44.89288" lon="0.82646">
        <ele>113.3</ele>
        <time>1970-01-01T00:37:12.000Z</time>
      </trkpt>
      <trkpt lat="44.89288" lon="0.82639">
        <ele>113.6</ele>
        <time>1970-01-01T00:37:13.000Z</time>
      </trkpt>
      <trkpt lat="44.89288" lon="0.82632">
        <ele>113.9</ele>
        <time>1970-01-01T00:37:14.000Z</time>
      </trkpt>
      <trkpt lat="44.89288" lon="0.82627">
        <ele>114.2</ele>
        <time>1970-01-01T00:37:15.000Z</time>
      </trkpt>
      <trkpt lat="44.89287" lon="0.82621">
        <ele>114.5</ele>
        <time>1970-01-01T00:37:16.000Z</time>
      </trkpt>
      <trkpt lat="44.89287" lon="0.82615">
        <ele>114.9</ele>
        <time>1970-01-01T00:37:17.000Z</time>
      </trkpt>
      <trkpt lat="44.89287" lon="0.8261">
        <ele>115.3</ele>
        <time>1970-01-01T00:37:18.000Z</time>
      </trkpt>
      <trkpt lat="44.89287" lon="0.82604">
        <ele>115.7</ele>
        <time>1970-01-01T00:37:19.000Z</time>
      </trkpt>
      <trkpt lat="44.89287" lon="0.82599">
        <ele>116.1</ele>
        <time>1970-01-01T00:37:20.000Z</time>
      </trkpt>
      <trkpt lat="44.89288" lon="0.82594">
        <ele>116.5</ele>
        <time>1970-01-01T00:37:21.000Z</time>
      </trkpt>
      <trkpt lat="44.89288" lon="0.8259">
        <ele>116.8</ele>
        <time>1970-01-01T00:37:22.000Z</time>
      </trkpt>
      <trkpt lat="44.89289" lon="0.82585">
        <ele>117.2</ele>
        <time>1970-01-01T00:37:23.000Z</time>
      </trkpt>
      <trkpt lat="44.89289" lon="0.82581">
        <ele>117.7</ele>
        <time>1970-01-01T00:37:24.000Z</time>
      </trkpt>
      <trkpt lat="44.89289" lon="0.82576">
        <ele>117.7</ele>
        <time>1970-01-01T00:37:25.000Z</time>
      </trkpt>
      <trkpt lat="44.8929" lon="0.82572">
        <ele>117.8</ele>
        <time>1970-01-01T00:37:26.000Z</time>
      </trkpt>
      <trkpt lat="44.89291" lon="0.82567">
        <ele>117.8</ele>
        <time>1970-01-01T00:37:27.000Z</time>
      </trkpt>
      <trkpt lat="44.89291" lon="0.82562">
        <ele>117.8</ele>
        <time>1970-01-01T00:37:28.000Z</time>
      </trkpt>
      <trkpt lat="44.89292" lon="0.82556">
        <ele>117.9</ele>
        <time>1970-01-01T00:37:29.000Z</time>
      </trkpt>
      <trkpt lat="44.89293" lon="0.82551">
        <ele>117.9</ele>
        <time>1970-01-01T00:37:30.000Z</time>
      </trkpt>
      <trkpt lat="44.89294" lon="0.82546">
        <ele>118</ele>
        <time>1970-01-01T00:37:31.000Z</time>
      </trkpt>
      <trkpt lat="44.89294" lon="0.82541">
        <ele>118.1</ele>
        <time>1970-01-01T00:37:32.000Z</time>
      </trkpt>
      <trkpt lat="44.89295" lon="0.82536">
        <ele>118.3</ele>
        <time>1970-01-01T00:37:33.000Z</time>
      </trkpt>
      <trkpt lat="44.89296" lon="0.82531">
        <ele>118.4</ele>
        <time>1970-01-01T00:37:34.000Z</time>
      </trkpt>
      <trkpt lat="44.89296" lon="0.82526">
        <ele>118.6</ele>
        <time>1970-01-01T00:37:35.000Z</time>
      </trkpt>
      <trkpt lat="44.89296" lon="0.82521">
        <ele>118.9</ele>
        <time>1970-01-01T00:37:36.000Z</time>
      </trkpt>
      <trkpt lat="44.89296" lon="0.82516">
        <ele>119.1</ele>
        <time>1970-01-01T00:37:37.000Z</time>
      </trkpt>
      <trkpt lat="44.89297" lon="0.82511">
        <ele>119.3</ele>
        <time>1970-01-01T00:37:38.000Z</time>
      </trkpt>
      <trkpt lat="44.89297" lon="0.82506">
        <ele>119.5</ele>
        <time>1970-01-01T00:37:39.000Z</time>
      </trkpt>
      <trkpt lat="44.89297" lon="0.82501">
        <ele>119.7</ele>
        <time>1970-01-01T00:37:40.000Z</time>
      </trkpt>
      <trkpt lat="44.89297" lon="0.82496">
        <ele>119.9</ele>
        <time>1970-01-01T00:37:41.000Z</time>
      </trkpt>
      <trkpt lat="44.89297" lon="0.82492">
        <ele>120</ele>
        <time>1970-01-01T00:37:42.000Z</time>
      </trkpt>
      <trkpt lat="44.89296" lon="0.82487">
        <ele>120.2</ele>
        <time>1970-01-01T00:37:43.000Z</time>
      </trkpt>
      <trkpt lat="44.89296" lon="0.82483">
        <ele>120.3</ele>
        <time>1970-01-01T00:37:44.000Z</time>
      </trkpt>
      <trkpt lat="44.89296" lon="0.82478">
        <ele>120.3</ele>
        <time>1970-01-01T00:37:45.000Z</time>
      </trkpt>
      <trkpt lat="44.89296" lon="0.82474">
        <ele>120.4</ele>
        <time>1970-01-01T00:37:46.000Z</time>
      </trkpt>
      <trkpt lat="44.89295" lon="0.82469">
        <ele>120.5</ele>
        <time>1970-01-01T00:37:47.000Z</time>
      </trkpt>
      <trkpt lat="44.89296" lon="0.82465">
        <ele>120.5</ele>
        <time>1970-01-01T00:37:48.000Z</time>
      </trkpt>
      <trkpt lat="44.89296" lon="0.8246">
        <ele>120.5</ele>
        <time>1970-01-01T00:37:49.000Z</time>
      </trkpt>
      <trkpt lat="44.89297" lon="0.82455">
        <ele>120.6</ele>
        <time>1970-01-01T00:37:50.000Z</time>
      </trkpt>
      <trkpt lat="44.89298" lon="0.8245">
        <ele>120.6</ele>
        <time>1970-01-01T00:37:51.000Z</time>
      </trkpt>
      <trkpt lat="44.89299" lon="0.82446">
        <ele>120.6</ele>
        <time>1970-01-01T00:37:52.000Z</time>
      </trkpt>
      <trkpt lat="44.893" lon="0.8244">
        <ele>120.6</ele>
        <time>1970-01-01T00:37:53.000Z</time>
      </trkpt>
      <trkpt lat="44.893" lon="0.82435">
        <ele>120.5</ele>
        <time>1970-01-01T00:37:54.000Z</time>
      </trkpt>
      <trkpt lat="44.89301" lon="0.8243">
        <ele>120.5</ele>
        <time>1970-01-01T00:37:55.000Z</time>
      </trkpt>
      <trkpt lat="44.89301" lon="0.82424">
        <ele>120.4</ele>
        <time>1970-01-01T00:37:56.000Z</time>
      </trkpt>
      <trkpt lat="44.89302" lon="0.82418">
        <ele>120.3</ele>
        <time>1970-01-01T00:37:57.000Z</time>
      </trkpt>
      <trkpt lat="44.89302" lon="0.82412">
        <ele>120.3</ele>
        <time>1970-01-01T00:37:58.000Z</time>
      </trkpt>
      <trkpt lat="44.89302" lon="0.82406">
        <ele>120.2</ele>
        <time>1970-01-01T00:37:59.000Z</time>
      </trkpt>
      <trkpt lat="44.89303" lon="0.824">
        <ele>120.1</ele>
        <time>1970-01-01T00:38:00.000Z</time>
      </trkpt>
      <trkpt lat="44.89303" lon="0.82394">
        <ele>120</ele>
        <time>1970-01-01T00:38:01.000Z</time>
      </trkpt>
      <trkpt lat="44.89302" lon="0.82387">
        <ele>119.9</ele>
        <time>1970-01-01T00:38:02.000Z</time>
      </trkpt>
      <trkpt lat="44.89302" lon="0.8238">
        <ele>119.9</ele>
        <time>1970-01-01T00:38:03.000Z</time>
      </trkpt>
      <trkpt lat="44.89301" lon="0.82374">
        <ele>119.8</ele>
        <time>1970-01-01T00:38:04.000Z</time>
      </trkpt>
      <trkpt lat="44.89301" lon="0.82367">
        <ele>119.8</ele>
        <time>1970-01-01T00:38:05.000Z</time>
      </trkpt>
      <trkpt lat="44.89301" lon="0.8236">
        <ele>119.7</ele>
        <time>1970-01-01T00:38:06.000Z</time>
      </trkpt>
      <trkpt lat="44.89301" lon="0.82354">
        <ele>119.7</ele>
        <time>1970-01-01T00:38:07.000Z</time>
      </trkpt>
      <trkpt lat="44.89301" lon="0.82347">
        <ele>119.7</ele>
        <time>1970-01-01T00:38:08.000Z</time>
      </trkpt>
      <trkpt lat="44.89301" lon="0.82341">
        <ele>119.7</ele>
        <time>1970-01-01T00:38:09.000Z</time>
      </trkpt>
      <trkpt lat="44.89301" lon="0.82334">
        <ele>119.7</ele>
        <time>1970-01-01T00:38:10.000Z</time>
      </trkpt>
      <trkpt lat="44.89301" lon="0.82328">
        <ele>119.8</ele>
        <time>1970-01-01T00:38:11.000Z</time>
      </trkpt>
      <trkpt lat="44.89302" lon="0.82322">
        <ele>119.8</ele>
        <time>1970-01-01T00:38:12.000Z</time>
      </trkpt>
      <trkpt lat="44.89302" lon="0.82316">
        <ele>119.9</ele>
        <time>1970-01-01T00:38:13.000Z</time>
      </trkpt>
      <trkpt lat="44.89302" lon="0.82309">
        <ele>119.9</ele>
        <time>1970-01-01T00:38:14.000Z</time>
      </trkpt>
      <trkpt lat="44.89303" lon="0.82303">
        <ele>120</ele>
        <time>1970-01-01T00:38:15.000Z</time>
      </trkpt>
      <trkpt lat="44.89303" lon="0.82297">
        <ele>120</ele>
        <time>1970-01-01T00:38:16.000Z</time>
      </trkpt>
      <trkpt lat="44.89304" lon="0.82292">
        <ele>120</ele>
        <time>1970-01-01T00:38:17.000Z</time>
      </trkpt>
      <trkpt lat="44.89304" lon="0.82286">
        <ele>119.9</ele>
        <time>1970-01-01T00:38:18.000Z</time>
      </trkpt>
      <trkpt lat="44.89304" lon="0.8228">
        <ele>119.8</ele>
        <time>1970-01-01T00:38:19.000Z</time>
      </trkpt>
      <trkpt lat="44.89305" lon="0.82273">
        <ele>119.6</ele>
        <time>1970-01-01T00:38:20.000Z</time>
      </trkpt>
      <trkpt lat="44.89305" lon="0.82267">
        <ele>119.4</ele>
        <time>1970-01-01T00:38:21.000Z</time>
      </trkpt>
      <trkpt lat="44.89305" lon="0.82261">
        <ele>119.1</ele>
        <time>1970-01-01T00:38:22.000Z</time>
      </trkpt>
      <trkpt lat="44.89306" lon="0.82254">
        <ele>118.8</ele>
        <time>1970-01-01T00:38:23.000Z</time>
      </trkpt>
      <trkpt lat="44.89306" lon="0.82247">
        <ele>118.5</ele>
        <time>1970-01-01T00:38:24.000Z</time>
      </trkpt>
      <trkpt lat="44.89306" lon="0.82239">
        <ele>118.2</ele>
        <time>1970-01-01T00:38:25.000Z</time>
      </trkpt>
      <trkpt lat="44.89306" lon="0.82232">
        <ele>117.9</ele>
        <time>1970-01-01T00:38:26.000Z</time>
      </trkpt>
      <trkpt lat="44.89307" lon="0.82224">
        <ele>117.6</ele>
        <time>1970-01-01T00:38:27.000Z</time>
      </trkpt>
      <trkpt lat="44.89307" lon="0.82216">
        <ele>117.3</ele>
        <time>1970-01-01T00:38:28.000Z</time>
      </trkpt>
      <trkpt lat="44.89308" lon="0.82209">
        <ele>117.1</ele>
        <time>1970-01-01T00:38:29.000Z</time>
      </trkpt>
      <trkpt lat="44.89307" lon="0.82201">
        <ele>117</ele>
        <time>1970-01-01T00:38:30.000Z</time>
      </trkpt>
      <trkpt lat="44.89306" lon="0.82194">
        <ele>116.9</ele>
        <time>1970-01-01T00:38:31.000Z</time>
      </trkpt>
      <trkpt lat="44.89303" lon="0.82187">
        <ele>116.9</ele>
        <time>1970-01-01T00:38:32.000Z</time>
      </trkpt>
      <trkpt lat="44.893" lon="0.82179">
        <ele>116.9</ele>
        <time>1970-01-01T00:38:33.000Z</time>
      </trkpt>
      <trkpt lat="44.89298" lon="0.82172">
        <ele>117</ele>
        <time>1970-01-01T00:38:34.000Z</time>
      </trkpt>
      <trkpt lat="44.89297" lon="0.82164">
        <ele>117.2</ele>
        <time>1970-01-01T00:38:35.000Z</time>
      </trkpt>
      <trkpt lat="44.89297" lon="0.82157">
        <ele>117.3</ele>
        <time>1970-01-01T00:38:36.000Z</time>
      </trkpt>
      <trkpt lat="44.89297" lon="0.8215">
        <ele>117.4</ele>
        <time>1970-01-01T00:38:37.000Z</time>
      </trkpt>
      <trkpt lat="44.89297" lon="0.82144">
        <ele>117.6</ele>
        <time>1970-01-01T00:38:38.000Z</time>
      </trkpt>
      <trkpt lat="44.89297" lon="0.82137">
        <ele>117.8</ele>
        <time>1970-01-01T00:38:39.000Z</time>
      </trkpt>
      <trkpt lat="44.89298" lon="0.82131">
        <ele>118</ele>
        <time>1970-01-01T00:38:40.000Z</time>
      </trkpt>
      <trkpt lat="44.89298" lon="0.82126">
        <ele>118.2</ele>
        <time>1970-01-01T00:38:41.000Z</time>
      </trkpt>
      <trkpt lat="44.89298" lon="0.82121">
        <ele>118.4</ele>
        <time>1970-01-01T00:38:42.000Z</time>
      </trkpt>
      <trkpt lat="44.89299" lon="0.82116">
        <ele>118.6</ele>
        <time>1970-01-01T00:38:43.000Z</time>
      </trkpt>
      <trkpt lat="44.893" lon="0.82111">
        <ele>118.7</ele>
        <time>1970-01-01T00:38:44.000Z</time>
      </trkpt>
      <trkpt lat="44.89301" lon="0.82107">
        <ele>118.9</ele>
        <time>1970-01-01T00:38:45.000Z</time>
      </trkpt>
      <trkpt lat="44.89303" lon="0.82102">
        <ele>119</ele>
        <time>1970-01-01T00:38:46.000Z</time>
      </trkpt>
      <trkpt lat="44.89304" lon="0.82097">
        <ele>119.1</ele>
        <time>1970-01-01T00:38:47.000Z</time>
      </trkpt>
      <trkpt lat="44.89305" lon="0.82091">
        <ele>119.2</ele>
        <time>1970-01-01T00:38:48.000Z</time>
      </trkpt>
      <trkpt lat="44.89306" lon="0.82085">
        <ele>119.2</ele>
        <time>1970-01-01T00:38:49.000Z</time>
      </trkpt>
      <trkpt lat="44.89307" lon="0.82079">
        <ele>119.2</ele>
        <time>1970-01-01T00:38:50.000Z</time>
      </trkpt>
      <trkpt lat="44.89307" lon="0.82073">
        <ele>119.2</ele>
        <time>1970-01-01T00:38:51.000Z</time>
      </trkpt>
      <trkpt lat="44.89307" lon="0.82068">
        <ele>119.2</ele>
        <time>1970-01-01T00:38:52.000Z</time>
      </trkpt>
      <trkpt lat="44.89307" lon="0.82062">
        <ele>119.2</ele>
        <time>1970-01-01T00:38:53.000Z</time>
      </trkpt>
      <trkpt lat="44.89308" lon="0.82056">
        <ele>119.2</ele>
        <time>1970-01-01T00:38:54.000Z</time>
      </trkpt>
      <trkpt lat="44.89308" lon="0.82051">
        <ele>119.2</ele>
        <time>1970-01-01T00:38:55.000Z</time>
      </trkpt>
      <trkpt lat="44.89309" lon="0.82046">
        <ele>119.2</ele>
        <time>1970-01-01T00:38:56.000Z</time>
      </trkpt>
      <trkpt lat="44.89309" lon="0.8204">
        <ele>119.2</ele>
        <time>1970-01-01T00:38:57.000Z</time>
      </trkpt>
      <trkpt lat="44.89308" lon="0.82033">
        <ele>119.2</ele>
        <time>1970-01-01T00:38:58.000Z</time>
      </trkpt>
      <trkpt lat="44.89307" lon="0.82027">
        <ele>119.2</ele>
        <time>1970-01-01T00:38:59.000Z</time>
      </trkpt>
      <trkpt lat="44.89305" lon="0.82021">
        <ele>119.3</ele>
        <time>1970-01-01T00:39:00.000Z</time>
      </trkpt>
      <trkpt lat="44.89303" lon="0.82016">
        <ele>119.5</ele>
        <time>1970-01-01T00:39:01.000Z</time>
      </trkpt>
      <trkpt lat="44.89301" lon="0.8201">
        <ele>119.6</ele>
        <time>1970-01-01T00:39:02.000Z</time>
      </trkpt>
      <trkpt lat="44.89299" lon="0.82005">
        <ele>119.8</ele>
        <time>1970-01-01T00:39:03.000Z</time>
      </trkpt>
      <trkpt lat="44.89297" lon="0.82">
        <ele>120.1</ele>
        <time>1970-01-01T00:39:04.000Z</time>
      </trkpt>
      <trkpt lat="44.89295" lon="0.81995">
        <ele>120.3</ele>
        <time>1970-01-01T00:39:05.000Z</time>
      </trkpt>
      <trkpt lat="44.89293" lon="0.81991">
        <ele>120.6</ele>
        <time>1970-01-01T00:39:06.000Z</time>
      </trkpt>
      <trkpt lat="44.89291" lon="0.81986">
        <ele>120.8</ele>
        <time>1970-01-01T00:39:07.000Z</time>
      </trkpt>
      <trkpt lat="44.89289" lon="0.81982">
        <ele>121</ele>
        <time>1970-01-01T00:39:08.000Z</time>
      </trkpt>
      <trkpt lat="44.89287" lon="0.81977">
        <ele>121.2</ele>
        <time>1970-01-01T00:39:09.000Z</time>
      </trkpt>
      <trkpt lat="44.89284" lon="0.81972">
        <ele>121.3</ele>
        <time>1970-01-01T00:39:10.000Z</time>
      </trkpt>
      <trkpt lat="44.89282" lon="0.81968">
        <ele>121.4</ele>
        <time>1970-01-01T00:39:11.000Z</time>
      </trkpt>
      <trkpt lat="44.89279" lon="0.81964">
        <ele>121.5</ele>
        <time>1970-01-01T00:39:12.000Z</time>
      </trkpt>
      <trkpt lat="44.89276" lon="0.81959">
        <ele>121.6</ele>
        <time>1970-01-01T00:39:13.000Z</time>
      </trkpt>
      <trkpt lat="44.89273" lon="0.81956">
        <ele>121.6</ele>
        <time>1970-01-01T00:39:14.000Z</time>
      </trkpt>
      <trkpt lat="44.8927" lon="0.81953">
        <ele>121.6</ele>
        <time>1970-01-01T00:39:15.000Z</time>
      </trkpt>
      <trkpt lat="44.89267" lon="0.81951">
        <ele>121.6</ele>
        <time>1970-01-01T00:39:16.000Z</time>
      </trkpt>
      <trkpt lat="44.89264" lon="0.81949">
        <ele>122.3</ele>
        <time>1970-01-01T00:39:17.000Z</time>
      </trkpt>
      <trkpt lat="44.89261" lon="0.81949">
        <ele>122.5</ele>
        <time>1970-01-01T00:39:18.000Z</time>
      </trkpt>
      <trkpt lat="44.89258" lon="0.81948">
        <ele>122.8</ele>
        <time>1970-01-01T00:39:19.000Z</time>
      </trkpt>
      <trkpt lat="44.89255" lon="0.81948">
        <ele>123.1</ele>
        <time>1970-01-01T00:39:20.000Z</time>
      </trkpt>
      <trkpt lat="44.89252" lon="0.81949">
        <ele>123.3</ele>
        <time>1970-01-01T00:39:21.000Z</time>
      </trkpt>
      <trkpt lat="44.89249" lon="0.81951">
        <ele>123.6</ele>
        <time>1970-01-01T00:39:22.000Z</time>
      </trkpt>
      <trkpt lat="44.89247" lon="0.81952">
        <ele>123.9</ele>
        <time>1970-01-01T00:39:23.000Z</time>
      </trkpt>
      <trkpt lat="44.89244" lon="0.81954">
        <ele>124.2</ele>
        <time>1970-01-01T00:39:24.000Z</time>
      </trkpt>
      <trkpt lat="44.89241" lon="0.81956">
        <ele>124.5</ele>
        <time>1970-01-01T00:39:25.000Z</time>
      </trkpt>
      <trkpt lat="44.89238" lon="0.81957">
        <ele>124.8</ele>
        <time>1970-01-01T00:39:26.000Z</time>
      </trkpt>
      <trkpt lat="44.89235" lon="0.81959">
        <ele>125.1</ele>
        <time>1970-01-01T00:39:27.000Z</time>
      </trkpt>
      <trkpt lat="44.89232" lon="0.8196">
        <ele>125.4</ele>
        <time>1970-01-01T00:39:28.000Z</time>
      </trkpt>
      <trkpt lat="44.8923" lon="0.8196">
        <ele>125.6</ele>
        <time>1970-01-01T00:39:29.000Z</time>
      </trkpt>
      <trkpt lat="44.89227" lon="0.81961">
        <ele>125.9</ele>
        <time>1970-01-01T00:39:30.000Z</time>
      </trkpt>
      <trkpt lat="44.89225" lon="0.81963">
        <ele>126.2</ele>
        <time>1970-01-01T00:39:31.000Z</time>
      </trkpt>
      <trkpt lat="44.89222" lon="0.81964">
        <ele>126.5</ele>
        <time>1970-01-01T00:39:32.000Z</time>
      </trkpt>
      <trkpt lat="44.8922" lon="0.81965">
        <ele>126.7</ele>
        <time>1970-01-01T00:39:33.000Z</time>
      </trkpt>
      <trkpt lat="44.89218" lon="0.81968">
        <ele>127</ele>
        <time>1970-01-01T00:39:34.000Z</time>
      </trkpt>
      <trkpt lat="44.89216" lon="0.81971">
        <ele>127.3</ele>
        <time>1970-01-01T00:39:35.000Z</time>
      </trkpt>
      <trkpt lat="44.89214" lon="0.81974">
        <ele>127.6</ele>
        <time>1970-01-01T00:39:36.000Z</time>
      </trkpt>
      <trkpt lat="44.89211" lon="0.81977">
        <ele>127.9</ele>
        <time>1970-01-01T00:39:37.000Z</time>
      </trkpt>
      <trkpt lat="44.8921" lon="0.81979">
        <ele>128.2</ele>
        <time>1970-01-01T00:39:38.000Z</time>
      </trkpt>
      <trkpt lat="44.89208" lon="0.81982">
        <ele>128.5</ele>
        <time>1970-01-01T00:39:39.000Z</time>
      </trkpt>
      <trkpt lat="44.89205" lon="0.81984">
        <ele>128.8</ele>
        <time>1970-01-01T00:39:40.000Z</time>
      </trkpt>
      <trkpt lat="44.89203" lon="0.81987">
        <ele>129.1</ele>
        <time>1970-01-01T00:39:41.000Z</time>
      </trkpt>
      <trkpt lat="44.89201" lon="0.81989">
        <ele>129.4</ele>
        <time>1970-01-01T00:39:42.000Z</time>
      </trkpt>
      <trkpt lat="44.89199" lon="0.81991">
        <ele>129.7</ele>
        <time>1970-01-01T00:39:43.000Z</time>
      </trkpt>
      <trkpt lat="44.89197" lon="0.81993">
        <ele>130</ele>
        <time>1970-01-01T00:39:44.000Z</time>
      </trkpt>
      <trkpt lat="44.89194" lon="0.81995">
        <ele>130.3</ele>
        <time>1970-01-01T00:39:45.000Z</time>
      </trkpt>
      <trkpt lat="44.89192" lon="0.81997">
        <ele>130.6</ele>
        <time>1970-01-01T00:39:46.000Z</time>
      </trkpt>
      <trkpt lat="44.8919" lon="0.81999">
        <ele>130.9</ele>
        <time>1970-01-01T00:39:47.000Z</time>
      </trkpt>
      <trkpt lat="44.89188" lon="0.82001">
        <ele>131.2</ele>
        <time>1970-01-01T00:39:48.000Z</time>
      </trkpt>
      <trkpt lat="44.89185" lon="0.82002">
        <ele>131.5</ele>
        <time>1970-01-01T00:39:49.000Z</time>
      </trkpt>
      <trkpt lat="44.89183" lon="0.82004">
        <ele>131.8</ele>
        <time>1970-01-01T00:39:50.000Z</time>
      </trkpt>
      <trkpt lat="44.89181" lon="0.82005">
        <ele>132.1</ele>
        <time>1970-01-01T00:39:51.000Z</time>
      </trkpt>
      <trkpt lat="44.89179" lon="0.82006">
        <ele>132.3</ele>
        <time>1970-01-01T00:39:52.000Z</time>
      </trkpt>
      <trkpt lat="44.89176" lon="0.82006">
        <ele>132.6</ele>
        <time>1970-01-01T00:39:53.000Z</time>
      </trkpt>
      <trkpt lat="44.89174" lon="0.82006">
        <ele>132.9</ele>
        <time>1970-01-01T00:39:54.000Z</time>
      </trkpt>
      <trkpt lat="44.89171" lon="0.82007">
        <ele>133.2</ele>
        <time>1970-01-01T00:39:55.000Z</time>
      </trkpt>
      <trkpt lat="44.89169" lon="0.82007">
        <ele>133.5</ele>
        <time>1970-01-01T00:39:56.000Z</time>
      </trkpt>
      <trkpt lat="44.89166" lon="0.82008">
        <ele>133.8</ele>
        <time>1970-01-01T00:39:57.000Z</time>
      </trkpt>
      <trkpt lat="44.89164" lon="0.8201">
        <ele>134.1</ele>
        <time>1970-01-01T00:39:58.000Z</time>
      </trkpt>
      <trkpt lat="44.89162" lon="0.82011">
        <ele>134.3</ele>
        <time>1970-01-01T00:39:59.000Z</time>
      </trkpt>
      <trkpt lat="44.89159" lon="0.82012">
        <ele>134.6</ele>
        <time>1970-01-01T00:40:00.000Z</time>
      </trkpt>
      <trkpt lat="44.89157" lon="0.82013">
        <ele>134.9</ele>
        <time>1970-01-01T00:40:01.000Z</time>
      </trkpt>
      <trkpt lat="44.89155" lon="0.82014">
        <ele>135.2</ele>
        <time>1970-01-01T00:40:02.000Z</time>
      </trkpt>
      <trkpt lat="44.89152" lon="0.82015">
        <ele>135.5</ele>
        <time>1970-01-01T00:40:03.000Z</time>
      </trkpt>
      <trkpt lat="44.8915" lon="0.82016">
        <ele>135.8</ele>
        <time>1970-01-01T00:40:04.000Z</time>
      </trkpt>
      <trkpt lat="44.89148" lon="0.82018">
        <ele>136</ele>
        <time>1970-01-01T00:40:05.000Z</time>
      </trkpt>
      <trkpt lat="44.89147" lon="0.82019">
        <ele>136.3</ele>
        <time>1970-01-01T00:40:06.000Z</time>
      </trkpt>
      <trkpt lat="44.89145" lon="0.8202">
        <ele>136.5</ele>
        <time>1970-01-01T00:40:07.000Z</time>
      </trkpt>
      <trkpt lat="44.89142" lon="0.82021">
        <ele>136.8</ele>
        <time>1970-01-01T00:40:08.000Z</time>
      </trkpt>
      <trkpt lat="44.8914" lon="0.82023">
        <ele>137.1</ele>
        <time>1970-01-01T00:40:09.000Z</time>
      </trkpt>
      <trkpt lat="44.89138" lon="0.82024">
        <ele>137.4</ele>
        <time>1970-01-01T00:40:10.000Z</time>
      </trkpt>
      <trkpt lat="44.89135" lon="0.82026">
        <ele>137.8</ele>
        <time>1970-01-01T00:40:11.000Z</time>
      </trkpt>
      <trkpt lat="44.89133" lon="0.82028">
        <ele>138.1</ele>
        <time>1970-01-01T00:40:12.000Z</time>
      </trkpt>
      <trkpt lat="44.8913" lon="0.8203">
        <ele>138.5</ele>
        <time>1970-01-01T00:40:13.000Z</time>
      </trkpt>
      <trkpt lat="44.89128" lon="0.82032">
        <ele>138.8</ele>
        <time>1970-01-01T00:40:14.000Z</time>
      </trkpt>
      <trkpt lat="44.89126" lon="0.82033">
        <ele>139.1</ele>
        <time>1970-01-01T00:40:15.000Z</time>
      </trkpt>
      <trkpt lat="44.89123" lon="0.82035">
        <ele>139.3</ele>
        <time>1970-01-01T00:40:16.000Z</time>
      </trkpt>
      <trkpt lat="44.89121" lon="0.82036">
        <ele>139.6</ele>
        <time>1970-01-01T00:40:17.000Z</time>
      </trkpt>
      <trkpt lat="44.89119" lon="0.82037">
        <ele>139.9</ele>
        <time>1970-01-01T00:40:18.000Z</time>
      </trkpt>
      <trkpt lat="44.89116" lon="0.82039">
        <ele>140.2</ele>
        <time>1970-01-01T00:40:19.000Z</time>
      </trkpt>
      <trkpt lat="44.89114" lon="0.82039">
        <ele>140.5</ele>
        <time>1970-01-01T00:40:20.000Z</time>
      </trkpt>
      <trkpt lat="44.89111" lon="0.8204">
        <ele>140.8</ele>
        <time>1970-01-01T00:40:21.000Z</time>
      </trkpt>
      <trkpt lat="44.89108" lon="0.8204">
        <ele>141.1</ele>
        <time>1970-01-01T00:40:22.000Z</time>
      </trkpt>
      <trkpt lat="44.89106" lon="0.8204">
        <ele>141.3</ele>
        <time>1970-01-01T00:40:23.000Z</time>
      </trkpt>
      <trkpt lat="44.89103" lon="0.8204">
        <ele>141.6</ele>
        <time>1970-01-01T00:40:24.000Z</time>
      </trkpt>
      <trkpt lat="44.89101" lon="0.8204">
        <ele>141.8</ele>
        <time>1970-01-01T00:40:25.000Z</time>
      </trkpt>
      <trkpt lat="44.89099" lon="0.82039">
        <ele>142.1</ele>
        <time>1970-01-01T00:40:26.000Z</time>
      </trkpt>
      <trkpt lat="44.89096" lon="0.82039">
        <ele>142.3</ele>
        <time>1970-01-01T00:40:27.000Z</time>
      </trkpt>
      <trkpt lat="44.89094" lon="0.82039">
        <ele>142.5</ele>
        <time>1970-01-01T00:40:28.000Z</time>
      </trkpt>
      <trkpt lat="44.89092" lon="0.82038">
        <ele>142.7</ele>
        <time>1970-01-01T00:40:29.000Z</time>
      </trkpt>
      <trkpt lat="44.89089" lon="0.82037">
        <ele>142.9</ele>
        <time>1970-01-01T00:40:30.000Z</time>
      </trkpt>
      <trkpt lat="44.89087" lon="0.82036">
        <ele>143.1</ele>
        <time>1970-01-01T00:40:31.000Z</time>
      </trkpt>
      <trkpt lat="44.89084" lon="0.82036">
        <ele>143.3</ele>
        <time>1970-01-01T00:40:32.000Z</time>
      </trkpt>
      <trkpt lat="44.89081" lon="0.82037">
        <ele>143.5</ele>
        <time>1970-01-01T00:40:33.000Z</time>
      </trkpt>
      <trkpt lat="44.89078" lon="0.82038">
        <ele>143.7</ele>
        <time>1970-01-01T00:40:34.000Z</time>
      </trkpt>
      <trkpt lat="44.89076" lon="0.82039">
        <ele>143.9</ele>
        <time>1970-01-01T00:40:35.000Z</time>
      </trkpt>
      <trkpt lat="44.89073" lon="0.8204">
        <ele>144.2</ele>
        <time>1970-01-01T00:40:36.000Z</time>
      </trkpt>
      <trkpt lat="44.8907" lon="0.82041">
        <ele>144.4</ele>
        <time>1970-01-01T00:40:37.000Z</time>
      </trkpt>
      <trkpt lat="44.89067" lon="0.82042">
        <ele>144.6</ele>
        <time>1970-01-01T00:40:38.000Z</time>
      </trkpt>
      <trkpt lat="44.89064" lon="0.82043">
        <ele>144.8</ele>
        <time>1970-01-01T00:40:39.000Z</time>
      </trkpt>
      <trkpt lat="44.89062" lon="0.82043">
        <ele>145</ele>
        <time>1970-01-01T00:40:40.000Z</time>
      </trkpt>
      <trkpt lat="44.89059" lon="0.82044">
        <ele>145.3</ele>
        <time>1970-01-01T00:40:41.000Z</time>
      </trkpt>
      <trkpt lat="44.89056" lon="0.82044">
        <ele>145.5</ele>
        <time>1970-01-01T00:40:42.000Z</time>
      </trkpt>
      <trkpt lat="44.89053" lon="0.82045">
        <ele>145.8</ele>
        <time>1970-01-01T00:40:43.000Z</time>
      </trkpt>
      <trkpt lat="44.8905" lon="0.82045">
        <ele>146.1</ele>
        <time>1970-01-01T00:40:44.000Z</time>
      </trkpt>
      <trkpt lat="44.89047" lon="0.82045">
        <ele>146.4</ele>
        <time>1970-01-01T00:40:45.000Z</time>
      </trkpt>
      <trkpt lat="44.89044" lon="0.82045">
        <ele>146.6</ele>
        <time>1970-01-01T00:40:46.000Z</time>
      </trkpt>
      <trkpt lat="44.89041" lon="0.82046">
        <ele>146.9</ele>
        <time>1970-01-01T00:40:47.000Z</time>
      </trkpt>
      <trkpt lat="44.89038" lon="0.82047">
        <ele>147.1</ele>
        <time>1970-01-01T00:40:48.000Z</time>
      </trkpt>
      <trkpt lat="44.89036" lon="0.82047">
        <ele>147.4</ele>
        <time>1970-01-01T00:40:49.000Z</time>
      </trkpt>
      <trkpt lat="44.89033" lon="0.82048">
        <ele>147.6</ele>
        <time>1970-01-01T00:40:50.000Z</time>
      </trkpt>
      <trkpt lat="44.8903" lon="0.82049">
        <ele>147.9</ele>
        <time>1970-01-01T00:40:51.000Z</time>
      </trkpt>
      <trkpt lat="44.89027" lon="0.82049">
        <ele>148.1</ele>
        <time>1970-01-01T00:40:52.000Z</time>
      </trkpt>
      <trkpt lat="44.89024" lon="0.8205">
        <ele>148.3</ele>
        <time>1970-01-01T00:40:53.000Z</time>
      </trkpt>
      <trkpt lat="44.89021" lon="0.8205">
        <ele>148.6</ele>
        <time>1970-01-01T00:40:54.000Z</time>
      </trkpt>
      <trkpt lat="44.89018" lon="0.82051">
        <ele>148.8</ele>
        <time>1970-01-01T00:40:55.000Z</time>
      </trkpt>
      <trkpt lat="44.89015" lon="0.82053">
        <ele>149</ele>
        <time>1970-01-01T00:40:56.000Z</time>
      </trkpt>
      <trkpt lat="44.89012" lon="0.82054">
        <ele>149.2</ele>
        <time>1970-01-01T00:40:57.000Z</time>
      </trkpt>
      <trkpt lat="44.89008" lon="0.82056">
        <ele>149.4</ele>
        <time>1970-01-01T00:40:58.000Z</time>
      </trkpt>
      <trkpt lat="44.89005" lon="0.82058">
        <ele>149.6</ele>
        <time>1970-01-01T00:40:59.000Z</time>
      </trkpt>
      <trkpt lat="44.89002" lon="0.8206">
        <ele>149.8</ele>
        <time>1970-01-01T00:41:00.000Z</time>
      </trkpt>
      <trkpt lat="44.88998" lon="0.82061">
        <ele>149.9</ele>
        <time>1970-01-01T00:41:01.000Z</time>
      </trkpt>
      <trkpt lat="44.88995" lon="0.82062">
        <ele>150</ele>
        <time>1970-01-01T00:41:02.000Z</time>
      </trkpt>
      <trkpt lat="44.88991" lon="0.82064">
        <ele>150.1</ele>
        <time>1970-01-01T00:41:03.000Z</time>
      </trkpt>
      <trkpt lat="44.88987" lon="0.82064">
        <ele>150.2</ele>
        <time>1970-01-01T00:41:04.000Z</time>
      </trkpt>
      <trkpt lat="44.88983" lon="0.82066">
        <ele>150.3</ele>
        <time>1970-01-01T00:41:05.000Z</time>
      </trkpt>
      <trkpt lat="44.88978" lon="0.82067">
        <ele>150.4</ele>
        <time>1970-01-01T00:41:06.000Z</time>
      </trkpt>
      <trkpt lat="44.88974" lon="0.82068">
        <ele>150.4</ele>
        <time>1970-01-01T00:41:07.000Z</time>
      </trkpt>
      <trkpt lat="44.8897" lon="0.8207">
        <ele>150.4</ele>
        <time>1970-01-01T00:41:08.000Z</time>
      </trkpt>
      <trkpt lat="44.88965" lon="0.82073">
        <ele>150.3</ele>
        <time>1970-01-01T00:41:09.000Z</time>
      </trkpt>
      <trkpt lat="44.8896" lon="0.82076">
        <ele>150.1</ele>
        <time>1970-01-01T00:41:10.000Z</time>
      </trkpt>
      <trkpt lat="44.88956" lon="0.82079">
        <ele>149.9</ele>
        <time>1970-01-01T00:41:11.000Z</time>
      </trkpt>
      <trkpt lat="44.88951" lon="0.82082">
        <ele>149.6</ele>
        <time>1970-01-01T00:41:12.000Z</time>
      </trkpt>
      <trkpt lat="44.88946" lon="0.82086">
        <ele>149.2</ele>
        <time>1970-01-01T00:41:13.000Z</time>
      </trkpt>
      <trkpt lat="44.8894" lon="0.8209">
        <ele>148.6</ele>
        <time>1970-01-01T00:41:14.000Z</time>
      </trkpt>
      <trkpt lat="44.88935" lon="0.82095">
        <ele>148</ele>
        <time>1970-01-01T00:41:15.000Z</time>
      </trkpt>
      <trkpt lat="44.88929" lon="0.821">
        <ele>147.3</ele>
        <time>1970-01-01T00:41:16.000Z</time>
      </trkpt>
      <trkpt lat="44.88922" lon="0.82105">
        <ele>146.7</ele>
        <time>1970-01-01T00:41:17.000Z</time>
      </trkpt>
      <trkpt lat="44.88916" lon="0.8211">
        <ele>146</ele>
        <time>1970-01-01T00:41:18.000Z</time>
      </trkpt>
      <trkpt lat="44.88909" lon="0.82116">
        <ele>145.5</ele>
        <time>1970-01-01T00:41:19.000Z</time>
      </trkpt>
      <trkpt lat="44.88903" lon="0.82122">
        <ele>145</ele>
        <time>1970-01-01T00:41:20.000Z</time>
      </trkpt>
      <trkpt lat="44.88897" lon="0.82129">
        <ele>144.5</ele>
        <time>1970-01-01T00:41:21.000Z</time>
      </trkpt>
      <trkpt lat="44.8889" lon="0.82135">
        <ele>143.9</ele>
        <time>1970-01-01T00:41:22.000Z</time>
      </trkpt>
      <trkpt lat="44.88884" lon="0.82139">
        <ele>143.4</ele>
        <time>1970-01-01T00:41:23.000Z</time>
      </trkpt>
      <trkpt lat="44.88877" lon="0.82144">
        <ele>143</ele>
        <time>1970-01-01T00:41:24.000Z</time>
      </trkpt>
      <trkpt lat="44.88871" lon="0.82149">
        <ele>142.6</ele>
        <time>1970-01-01T00:41:25.000Z</time>
      </trkpt>
      <trkpt lat="44.88865" lon="0.82155">
        <ele>142.3</ele>
        <time>1970-01-01T00:41:26.000Z</time>
      </trkpt>
      <trkpt lat="44.88859" lon="0.82162">
        <ele>141.9</ele>
        <time>1970-01-01T00:41:27.000Z</time>
      </trkpt>
      <trkpt lat="44.88853" lon="0.8217">
        <ele>141.4</ele>
        <time>1970-01-01T00:41:28.000Z</time>
      </trkpt>
      <trkpt lat="44.88847" lon="0.82177">
        <ele>140.9</ele>
        <time>1970-01-01T00:41:29.000Z</time>
      </trkpt>
      <trkpt lat="44.88841" lon="0.82185">
        <ele>140.4</ele>
        <time>1970-01-01T00:41:30.000Z</time>
      </trkpt>
      <trkpt lat="44.88835" lon="0.82193">
        <ele>139.8</ele>
        <time>1970-01-01T00:41:31.000Z</time>
      </trkpt>
      <trkpt lat="44.88829" lon="0.82201">
        <ele>139.3</ele>
        <time>1970-01-01T00:41:32.000Z</time>
      </trkpt>
      <trkpt lat="44.88823" lon="0.82209">
        <ele>138.8</ele>
        <time>1970-01-01T00:41:33.000Z</time>
      </trkpt>
      <trkpt lat="44.88817" lon="0.82217">
        <ele>138.4</ele>
        <time>1970-01-01T00:41:34.000Z</time>
      </trkpt>
      <trkpt lat="44.88811" lon="0.82225">
        <ele>138</ele>
        <time>1970-01-01T00:41:35.000Z</time>
      </trkpt>
      <trkpt lat="44.88805" lon="0.82232">
        <ele>137.8</ele>
        <time>1970-01-01T00:41:36.000Z</time>
      </trkpt>
      <trkpt lat="44.888" lon="0.8224">
        <ele>137.5</ele>
        <time>1970-01-01T00:41:37.000Z</time>
      </trkpt>
      <trkpt lat="44.88794" lon="0.82247">
        <ele>137.3</ele>
        <time>1970-01-01T00:41:38.000Z</time>
      </trkpt>
      <trkpt lat="44.88788" lon="0.82254">
        <ele>137.2</ele>
        <time>1970-01-01T00:41:39.000Z</time>
      </trkpt>
      <trkpt lat="44.88783" lon="0.82261">
        <ele>137.1</ele>
        <time>1970-01-01T00:41:40.000Z</time>
      </trkpt>
      <trkpt lat="44.88778" lon="0.82267">
        <ele>137</ele>
        <time>1970-01-01T00:41:41.000Z</time>
      </trkpt>
      <trkpt lat="44.88773" lon="0.82274">
        <ele>137</ele>
        <time>1970-01-01T00:41:42.000Z</time>
      </trkpt>
      <trkpt lat="44.88768" lon="0.82279">
        <ele>137</ele>
        <time>1970-01-01T00:41:43.000Z</time>
      </trkpt>
      <trkpt lat="44.88763" lon="0.82285">
        <ele>137.1</ele>
        <time>1970-01-01T00:41:44.000Z</time>
      </trkpt>
      <trkpt lat="44.88758" lon="0.82291">
        <ele>137.1</ele>
        <time>1970-01-01T00:41:45.000Z</time>
      </trkpt>
      <trkpt lat="44.88753" lon="0.82297">
        <ele>137.2</ele>
        <time>1970-01-01T00:41:46.000Z</time>
      </trkpt>
      <trkpt lat="44.88749" lon="0.82304">
        <ele>137.2</ele>
        <time>1970-01-01T00:41:47.000Z</time>
      </trkpt>
      <trkpt lat="44.88746" lon="0.8231">
        <ele>137.2</ele>
        <time>1970-01-01T00:41:48.000Z</time>
      </trkpt>
      <trkpt lat="44.88744" lon="0.82317">
        <ele>137.2</ele>
        <time>1970-01-01T00:41:49.000Z</time>
      </trkpt>
      <trkpt lat="44.88742" lon="0.82325">
        <ele>137.1</ele>
        <time>1970-01-01T00:41:50.000Z</time>
      </trkpt>
      <trkpt lat="44.8874" lon="0.82334">
        <ele>137</ele>
        <time>1970-01-01T00:41:51.000Z</time>
      </trkpt>
      <trkpt lat="44.88737" lon="0.82343">
        <ele>136.8</ele>
        <time>1970-01-01T00:41:52.000Z</time>
      </trkpt>
      <trkpt lat="44.88735" lon="0.82351">
        <ele>136.7</ele>
        <time>1970-01-01T00:41:53.000Z</time>
      </trkpt>
      <trkpt lat="44.88732" lon="0.82359">
        <ele>136.8</ele>
        <time>1970-01-01T00:41:54.000Z</time>
      </trkpt>
      <trkpt lat="44.8873" lon="0.82367">
        <ele>136.9</ele>
        <time>1970-01-01T00:41:55.000Z</time>
      </trkpt>
      <trkpt lat="44.88728" lon="0.82374">
        <ele>137</ele>
        <time>1970-01-01T00:41:56.000Z</time>
      </trkpt>
      <trkpt lat="44.88726" lon="0.82381">
        <ele>137.2</ele>
        <time>1970-01-01T00:41:57.000Z</time>
      </trkpt>
      <trkpt lat="44.88725" lon="0.82387">
        <ele>137.4</ele>
        <time>1970-01-01T00:41:58.000Z</time>
      </trkpt>
      <trkpt lat="44.88724" lon="0.82393">
        <ele>137.7</ele>
        <time>1970-01-01T00:41:59.000Z</time>
      </trkpt>
      <trkpt lat="44.88722" lon="0.82397">
        <ele>137.9</ele>
        <time>1970-01-01T00:42:00.000Z</time>
      </trkpt>
      <trkpt lat="44.88721" lon="0.82402">
        <ele>138.2</ele>
        <time>1970-01-01T00:42:01.000Z</time>
      </trkpt>
      <trkpt lat="44.88719" lon="0.82407">
        <ele>138.5</ele>
        <time>1970-01-01T00:42:02.000Z</time>
      </trkpt>
      <trkpt lat="44.88718" lon="0.82412">
        <ele>138.7</ele>
        <time>1970-01-01T00:42:03.000Z</time>
      </trkpt>
      <trkpt lat="44.88718" lon="0.82416">
        <ele>139</ele>
        <time>1970-01-01T00:42:04.000Z</time>
      </trkpt>
      <trkpt lat="44.88717" lon="0.82419">
        <ele>139.2</ele>
        <time>1970-01-01T00:42:05.000Z</time>
      </trkpt>
      <trkpt lat="44.88717" lon="0.82421">
        <ele>139.3</ele>
        <time>1970-01-01T00:42:06.000Z</time>
      </trkpt>
      <trkpt lat="44.88716" lon="0.82423">
        <ele>139.5</ele>
        <time>1970-01-01T00:42:07.000Z</time>
      </trkpt>
      <trkpt lat="44.88714" lon="0.82426">
        <ele>139.7</ele>
        <time>1970-01-01T00:42:08.000Z</time>
      </trkpt>
      <trkpt lat="44.88713" lon="0.82429">
        <ele>140</ele>
        <time>1970-01-01T00:42:09.000Z</time>
      </trkpt>
      <trkpt lat="44.88712" lon="0.82432">
        <ele>140.2</ele>
        <time>1970-01-01T00:42:10.000Z</time>
      </trkpt>
      <trkpt lat="44.88711" lon="0.82436">
        <ele>140.6</ele>
        <time>1970-01-01T00:42:11.000Z</time>
      </trkpt>
      <trkpt lat="44.8871" lon="0.82439">
        <ele>140.8</ele>
        <time>1970-01-01T00:42:12.000Z</time>
      </trkpt>
      <trkpt lat="44.88709" lon="0.82442">
        <ele>141.1</ele>
        <time>1970-01-01T00:42:13.000Z</time>
      </trkpt>
      <trkpt lat="44.88708" lon="0.82445">
        <ele>141.4</ele>
        <time>1970-01-01T00:42:14.000Z</time>
      </trkpt>
      <trkpt lat="44.88707" lon="0.82448">
        <ele>141.6</ele>
        <time>1970-01-01T00:42:15.000Z</time>
      </trkpt>
      <trkpt lat="44.88706" lon="0.82451">
        <ele>141.9</ele>
        <time>1970-01-01T00:42:16.000Z</time>
      </trkpt>
      <trkpt lat="44.88705" lon="0.82454">
        <ele>142.2</ele>
        <time>1970-01-01T00:42:17.000Z</time>
      </trkpt>
      <trkpt lat="44.88704" lon="0.82457">
        <ele>142.5</ele>
        <time>1970-01-01T00:42:18.000Z</time>
      </trkpt>
      <trkpt lat="44.88704" lon="0.82461">
        <ele>142.8</ele>
        <time>1970-01-01T00:42:19.000Z</time>
      </trkpt>
      <trkpt lat="44.88703" lon="0.82465">
        <ele>143.2</ele>
        <time>1970-01-01T00:42:20.000Z</time>
      </trkpt>
      <trkpt lat="44.88702" lon="0.82469">
        <ele>143.5</ele>
        <time>1970-01-01T00:42:21.000Z</time>
      </trkpt>
      <trkpt lat="44.88701" lon="0.82472">
        <ele>143.8</ele>
        <time>1970-01-01T00:42:22.000Z</time>
      </trkpt>
      <trkpt lat="44.887" lon="0.82476">
        <ele>144.1</ele>
        <time>1970-01-01T00:42:23.000Z</time>
      </trkpt>
      <trkpt lat="44.88699" lon="0.8248">
        <ele>144.3</ele>
        <time>1970-01-01T00:42:24.000Z</time>
      </trkpt>
      <trkpt lat="44.88698" lon="0.82484">
        <ele>144.6</ele>
        <time>1970-01-01T00:42:25.000Z</time>
      </trkpt>
      <trkpt lat="44.88697" lon="0.82488">
        <ele>144.8</ele>
        <time>1970-01-01T00:42:26.000Z</time>
      </trkpt>
      <trkpt lat="44.88695" lon="0.82491">
        <ele>145.1</ele>
        <time>1970-01-01T00:42:27.000Z</time>
      </trkpt>
      <trkpt lat="44.88694" lon="0.82495">
        <ele>145.3</ele>
        <time>1970-01-01T00:42:28.000Z</time>
      </trkpt>
      <trkpt lat="44.88692" lon="0.82499">
        <ele>145.4</ele>
        <time>1970-01-01T00:42:29.000Z</time>
      </trkpt>
      <trkpt lat="44.88691" lon="0.82502">
        <ele>145.6</ele>
        <time>1970-01-01T00:42:30.000Z</time>
      </trkpt>
      <trkpt lat="44.88689" lon="0.82506">
        <ele>145.7</ele>
        <time>1970-01-01T00:42:31.000Z</time>
      </trkpt>
      <trkpt lat="44.88687" lon="0.8251">
        <ele>145.8</ele>
        <time>1970-01-01T00:42:32.000Z</time>
      </trkpt>
      <trkpt lat="44.88684" lon="0.82515">
        <ele>145.8</ele>
        <time>1970-01-01T00:42:33.000Z</time>
      </trkpt>
      <trkpt lat="44.88682" lon="0.8252">
        <ele>145.8</ele>
        <time>1970-01-01T00:42:34.000Z</time>
      </trkpt>
      <trkpt lat="44.88679" lon="0.82526">
        <ele>145.7</ele>
        <time>1970-01-01T00:42:35.000Z</time>
      </trkpt>
      <trkpt lat="44.88676" lon="0.82532">
        <ele>145.6</ele>
        <time>1970-01-01T00:42:36.000Z</time>
      </trkpt>
      <trkpt lat="44.88674" lon="0.82537">
        <ele>145.4</ele>
        <time>1970-01-01T00:42:37.000Z</time>
      </trkpt>
      <trkpt lat="44.88671" lon="0.82543">
        <ele>145.3</ele>
        <time>1970-01-01T00:42:38.000Z</time>
      </trkpt>
      <trkpt lat="44.88668" lon="0.82549">
        <ele>145</ele>
        <time>1970-01-01T00:42:39.000Z</time>
      </trkpt>
      <trkpt lat="44.88666" lon="0.82555">
        <ele>144.8</ele>
        <time>1970-01-01T00:42:40.000Z</time>
      </trkpt>
      <trkpt lat="44.88663" lon="0.82561">
        <ele>144.6</ele>
        <time>1970-01-01T00:42:41.000Z</time>
      </trkpt>
      <trkpt lat="44.8866" lon="0.82568">
        <ele>144.5</ele>
        <time>1970-01-01T00:42:42.000Z</time>
      </trkpt>
      <trkpt lat="44.88658" lon="0.82575">
        <ele>144.3</ele>
        <time>1970-01-01T00:42:43.000Z</time>
      </trkpt>
      <trkpt lat="44.88656" lon="0.82582">
        <ele>144.3</ele>
        <time>1970-01-01T00:42:44.000Z</time>
      </trkpt>
      <trkpt lat="44.88654" lon="0.82589">
        <ele>144.3</ele>
        <time>1970-01-01T00:42:45.000Z</time>
      </trkpt>
      <trkpt lat="44.88652" lon="0.82595">
        <ele>144.4</ele>
        <time>1970-01-01T00:42:46.000Z</time>
      </trkpt>
      <trkpt lat="44.88649" lon="0.82601">
        <ele>144.6</ele>
        <time>1970-01-01T00:42:47.000Z</time>
      </trkpt>
      <trkpt lat="44.88647" lon="0.82607">
        <ele>144.8</ele>
        <time>1970-01-01T00:42:48.000Z</time>
      </trkpt>
      <trkpt lat="44.88645" lon="0.82613">
        <ele>145</ele>
        <time>1970-01-01T00:42:49.000Z</time>
      </trkpt>
      <trkpt lat="44.88644" lon="0.82619">
        <ele>145.2</ele>
        <time>1970-01-01T00:42:50.000Z</time>
      </trkpt>
      <trkpt lat="44.88642" lon="0.82625">
        <ele>145.5</ele>
        <time>1970-01-01T00:42:51.000Z</time>
      </trkpt>
      <trkpt lat="44.8864" lon="0.8263">
        <ele>145.7</ele>
        <time>1970-01-01T00:42:52.000Z</time>
      </trkpt>
      <trkpt lat="44.88638" lon="0.82635">
        <ele>146</ele>
        <time>1970-01-01T00:42:53.000Z</time>
      </trkpt>
      <trkpt lat="44.88636" lon="0.8264">
        <ele>146.3</ele>
        <time>1970-01-01T00:42:54.000Z</time>
      </trkpt>
      <trkpt lat="44.88634" lon="0.82645">
        <ele>146.6</ele>
        <time>1970-01-01T00:42:55.000Z</time>
      </trkpt>
      <trkpt lat="44.88632" lon="0.82651">
        <ele>147</ele>
        <time>1970-01-01T00:42:56.000Z</time>
      </trkpt>
      <trkpt lat="44.8863" lon="0.82656">
        <ele>147.3</ele>
        <time>1970-01-01T00:42:57.000Z</time>
      </trkpt>
      <trkpt lat="44.88628" lon="0.82661">
        <ele>147.6</ele>
        <time>1970-01-01T00:42:58.000Z</time>
      </trkpt>
      <trkpt lat="44.88626" lon="0.82666">
        <ele>148</ele>
        <time>1970-01-01T00:42:59.000Z</time>
      </trkpt>
      <trkpt lat="44.88624" lon="0.82672">
        <ele>148.3</ele>
        <time>1970-01-01T00:43:00.000Z</time>
      </trkpt>
      <trkpt lat="44.88623" lon="0.82678">
        <ele>148.6</ele>
        <time>1970-01-01T00:43:01.000Z</time>
      </trkpt>
      <trkpt lat="44.88621" lon="0.82683">
        <ele>149</ele>
        <time>1970-01-01T00:43:02.000Z</time>
      </trkpt>
      <trkpt lat="44.88619" lon="0.82689">
        <ele>149.3</ele>
        <time>1970-01-01T00:43:03.000Z</time>
      </trkpt>
      <trkpt lat="44.88617" lon="0.82694">
        <ele>149.6</ele>
        <time>1970-01-01T00:43:04.000Z</time>
      </trkpt>
      <trkpt lat="44.88616" lon="0.82699">
        <ele>149.9</ele>
        <time>1970-01-01T00:43:05.000Z</time>
      </trkpt>
      <trkpt lat="44.88615" lon="0.82705">
        <ele>150.2</ele>
        <time>1970-01-01T00:43:06.000Z</time>
      </trkpt>
      <trkpt lat="44.88614" lon="0.8271">
        <ele>150.5</ele>
        <time>1970-01-01T00:43:07.000Z</time>
      </trkpt>
      <trkpt lat="44.88612" lon="0.82715">
        <ele>150.7</ele>
        <time>1970-01-01T00:43:08.000Z</time>
      </trkpt>
      <trkpt lat="44.88611" lon="0.8272">
        <ele>150.9</ele>
        <time>1970-01-01T00:43:09.000Z</time>
      </trkpt>
      <trkpt lat="44.8861" lon="0.82725">
        <ele>151.1</ele>
        <time>1970-01-01T00:43:10.000Z</time>
      </trkpt>
      <trkpt lat="44.88609" lon="0.82729">
        <ele>151.2</ele>
        <time>1970-01-01T00:43:11.000Z</time>
      </trkpt>
      <trkpt lat="44.88607" lon="0.82733">
        <ele>151.3</ele>
        <time>1970-01-01T00:43:12.000Z</time>
      </trkpt>
      <trkpt lat="44.88606" lon="0.82737">
        <ele>151.3</ele>
        <time>1970-01-01T00:43:13.000Z</time>
      </trkpt>
      <trkpt lat="44.88605" lon="0.8274">
        <ele>151.4</ele>
        <time>1970-01-01T00:43:14.000Z</time>
      </trkpt>
      <trkpt lat="44.88604" lon="0.82743">
        <ele>151.4</ele>
        <time>1970-01-01T00:43:15.000Z</time>
      </trkpt>
      <trkpt lat="44.88603" lon="0.82747">
        <ele>151.4</ele>
        <time>1970-01-01T00:43:16.000Z</time>
      </trkpt>
      <trkpt lat="44.88602" lon="0.8275">
        <ele>151.3</ele>
        <time>1970-01-01T00:43:17.000Z</time>
      </trkpt>
      <trkpt lat="44.88601" lon="0.82753">
        <ele>151.3</ele>
        <time>1970-01-01T00:43:18.000Z</time>
      </trkpt>
      <trkpt lat="44.88599" lon="0.82756">
        <ele>151.3</ele>
        <time>1970-01-01T00:43:19.000Z</time>
      </trkpt>
      <trkpt lat="44.88598" lon="0.8276">
        <ele>151.2</ele>
        <time>1970-01-01T00:43:20.000Z</time>
      </trkpt>
      <trkpt lat="44.88597" lon="0.82764">
        <ele>151.2</ele>
        <time>1970-01-01T00:43:21.000Z</time>
      </trkpt>
      <trkpt lat="44.88595" lon="0.82768">
        <ele>151.1</ele>
        <time>1970-01-01T00:43:22.000Z</time>
      </trkpt>
      <trkpt lat="44.88593" lon="0.82774">
        <ele>150.9</ele>
        <time>1970-01-01T00:43:23.000Z</time>
      </trkpt>
      <trkpt lat="44.8859" lon="0.8278">
        <ele>150.7</ele>
        <time>1970-01-01T00:43:24.000Z</time>
      </trkpt>
      <trkpt lat="44.88587" lon="0.82786">
        <ele>150.3</ele>
        <time>1970-01-01T00:43:25.000Z</time>
      </trkpt>
      <trkpt lat="44.88583" lon="0.82793">
        <ele>149.8</ele>
        <time>1970-01-01T00:43:26.000Z</time>
      </trkpt>
      <trkpt lat="44.88578" lon="0.82799">
        <ele>149.3</ele>
        <time>1970-01-01T00:43:27.000Z</time>
      </trkpt>
      <trkpt lat="44.88573" lon="0.82806">
        <ele>148.6</ele>
        <time>1970-01-01T00:43:28.000Z</time>
      </trkpt>
      <trkpt lat="44.88568" lon="0.82813">
        <ele>147.9</ele>
        <time>1970-01-01T00:43:29.000Z</time>
      </trkpt>
      <trkpt lat="44.88563" lon="0.8282">
        <ele>147.2</ele>
        <time>1970-01-01T00:43:30.000Z</time>
      </trkpt>
      <trkpt lat="44.88558" lon="0.82829">
        <ele>146.5</ele>
        <time>1970-01-01T00:43:31.000Z</time>
      </trkpt>
      <trkpt lat="44.88553" lon="0.82837">
        <ele>145.9</ele>
        <time>1970-01-01T00:43:32.000Z</time>
      </trkpt>
      <trkpt lat="44.88548" lon="0.82847">
        <ele>145.4</ele>
        <time>1970-01-01T00:43:33.000Z</time>
      </trkpt>
      <trkpt lat="44.88544" lon="0.82857">
        <ele>145</ele>
        <time>1970-01-01T00:43:34.000Z</time>
      </trkpt>
      <trkpt lat="44.8854" lon="0.82867">
        <ele>144.8</ele>
        <time>1970-01-01T00:43:35.000Z</time>
      </trkpt>
      <trkpt lat="44.88535" lon="0.82876">
        <ele>144.6</ele>
        <time>1970-01-01T00:43:36.000Z</time>
      </trkpt>
      <trkpt lat="44.8853" lon="0.82883">
        <ele>144.5</ele>
        <time>1970-01-01T00:43:37.000Z</time>
      </trkpt>
      <trkpt lat="44.88526" lon="0.82891">
        <ele>144.4</ele>
        <time>1970-01-01T00:43:38.000Z</time>
      </trkpt>
      <trkpt lat="44.88522" lon="0.82898">
        <ele>144.3</ele>
        <time>1970-01-01T00:43:39.000Z</time>
      </trkpt>
      <trkpt lat="44.88517" lon="0.82905">
        <ele>144.2</ele>
        <time>1970-01-01T00:43:40.000Z</time>
      </trkpt>
      <trkpt lat="44.88513" lon="0.82912">
        <ele>144</ele>
        <time>1970-01-01T00:43:41.000Z</time>
      </trkpt>
      <trkpt lat="44.88509" lon="0.82919">
        <ele>143.6</ele>
        <time>1970-01-01T00:43:42.000Z</time>
      </trkpt>
      <trkpt lat="44.88505" lon="0.82927">
        <ele>143.1</ele>
        <time>1970-01-01T00:43:43.000Z</time>
      </trkpt>
      <trkpt lat="44.885" lon="0.82934">
        <ele>142.4</ele>
        <time>1970-01-01T00:43:44.000Z</time>
      </trkpt>
      <trkpt lat="44.88495" lon="0.82941">
        <ele>141.7</ele>
        <time>1970-01-01T00:43:45.000Z</time>
      </trkpt>
      <trkpt lat="44.88491" lon="0.82948">
        <ele>141</ele>
        <time>1970-01-01T00:43:46.000Z</time>
      </trkpt>
      <trkpt lat="44.88486" lon="0.82955">
        <ele>140.2</ele>
        <time>1970-01-01T00:43:47.000Z</time>
      </trkpt>
      <trkpt lat="44.88481" lon="0.82963">
        <ele>139.4</ele>
        <time>1970-01-01T00:43:48.000Z</time>
      </trkpt>
      <trkpt lat="44.88478" lon="0.82973">
        <ele>138.7</ele>
        <time>1970-01-01T00:43:49.000Z</time>
      </trkpt>
      <trkpt lat="44.88477" lon="0.82983">
        <ele>138.2</ele>
        <time>1970-01-01T00:43:50.000Z</time>
      </trkpt>
      <trkpt lat="44.88476" lon="0.82993">
        <ele>137.9</ele>
        <time>1970-01-01T00:43:51.000Z</time>
      </trkpt>
      <trkpt lat="44.88475" lon="0.83001">
        <ele>137.7</ele>
        <time>1970-01-01T00:43:52.000Z</time>
      </trkpt>
      <trkpt lat="44.88475" lon="0.83007">
        <ele>137.6</ele>
        <time>1970-01-01T00:43:53.000Z</time>
      </trkpt>
      <trkpt lat="44.88476" lon="0.83013">
        <ele>137.6</ele>
        <time>1970-01-01T00:43:54.000Z</time>
      </trkpt>
      <trkpt lat="44.88478" lon="0.83019">
        <ele>137.5</ele>
        <time>1970-01-01T00:43:55.000Z</time>
      </trkpt>
      <trkpt lat="44.88482" lon="0.83025">
        <ele>137.5</ele>
        <time>1970-01-01T00:43:56.000Z</time>
      </trkpt>
      <trkpt lat="44.88486" lon="0.83031">
        <ele>137.4</ele>
        <time>1970-01-01T00:43:57.000Z</time>
      </trkpt>
      <trkpt lat="44.88488" lon="0.83038">
        <ele>137.2</ele>
        <time>1970-01-01T00:43:58.000Z</time>
      </trkpt>
      <trkpt lat="44.88491" lon="0.83046">
        <ele>137</ele>
        <time>1970-01-01T00:43:59.000Z</time>
      </trkpt>
      <trkpt lat="44.88493" lon="0.83054">
        <ele>136.7</ele>
        <time>1970-01-01T00:44:00.000Z</time>
      </trkpt>
      <trkpt lat="44.88496" lon="0.83063">
        <ele>136.4</ele>
        <time>1970-01-01T00:44:01.000Z</time>
      </trkpt>
      <trkpt lat="44.88498" lon="0.83071">
        <ele>136.1</ele>
        <time>1970-01-01T00:44:02.000Z</time>
      </trkpt>
      <trkpt lat="44.885" lon="0.8308">
        <ele>135.8</ele>
        <time>1970-01-01T00:44:03.000Z</time>
      </trkpt>
      <trkpt lat="44.88502" lon="0.8309">
        <ele>135.5</ele>
        <time>1970-01-01T00:44:04.000Z</time>
      </trkpt>
      <trkpt lat="44.88504" lon="0.83099">
        <ele>135.1</ele>
        <time>1970-01-01T00:44:05.000Z</time>
      </trkpt>
      <trkpt lat="44.88505" lon="0.83109">
        <ele>134.8</ele>
        <time>1970-01-01T00:44:06.000Z</time>
      </trkpt>
      <trkpt lat="44.88508" lon="0.83119">
        <ele>134.5</ele>
        <time>1970-01-01T00:44:07.000Z</time>
      </trkpt>
      <trkpt lat="44.8851" lon="0.83128">
        <ele>134.2</ele>
        <time>1970-01-01T00:44:08.000Z</time>
      </trkpt>
      <trkpt lat="44.88512" lon="0.83137">
        <ele>133.9</ele>
        <time>1970-01-01T00:44:09.000Z</time>
      </trkpt>
      <trkpt lat="44.88514" lon="0.83147">
        <ele>133.5</ele>
        <time>1970-01-01T00:44:10.000Z</time>
      </trkpt>
      <trkpt lat="44.88516" lon="0.83156">
        <ele>133.1</ele>
        <time>1970-01-01T00:44:11.000Z</time>
      </trkpt>
      <trkpt lat="44.88519" lon="0.83165">
        <ele>132.5</ele>
        <time>1970-01-01T00:44:12.000Z</time>
      </trkpt>
      <trkpt lat="44.88521" lon="0.83175">
        <ele>131.9</ele>
        <time>1970-01-01T00:44:13.000Z</time>
      </trkpt>
      <trkpt lat="44.88523" lon="0.83185">
        <ele>131.2</ele>
        <time>1970-01-01T00:44:14.000Z</time>
      </trkpt>
      <trkpt lat="44.88524" lon="0.83196">
        <ele>130.3</ele>
        <time>1970-01-01T00:44:15.000Z</time>
      </trkpt>
      <trkpt lat="44.88526" lon="0.83206">
        <ele>129.2</ele>
        <time>1970-01-01T00:44:16.000Z</time>
      </trkpt>
      <trkpt lat="44.88528" lon="0.83218">
        <ele>128</ele>
        <time>1970-01-01T00:44:17.000Z</time>
      </trkpt>
      <trkpt lat="44.88531" lon="0.83229">
        <ele>126.7</ele>
        <time>1970-01-01T00:44:18.000Z</time>
      </trkpt>
      <trkpt lat="44.88533" lon="0.83239">
        <ele>125.3</ele>
        <time>1970-01-01T00:44:19.000Z</time>
      </trkpt>
      <trkpt lat="44.88535" lon="0.8325">
        <ele>124</ele>
        <time>1970-01-01T00:44:20.000Z</time>
      </trkpt>
      <trkpt lat="44.88535" lon="0.8326">
        <ele>122.8</ele>
        <time>1970-01-01T00:44:21.000Z</time>
      </trkpt>
      <trkpt lat="44.88534" lon="0.8327">
        <ele>121.8</ele>
        <time>1970-01-01T00:44:22.000Z</time>
      </trkpt>
      <trkpt lat="44.88531" lon="0.8328">
        <ele>121.8</ele>
        <time>1970-01-01T00:44:23.000Z</time>
      </trkpt>
      <trkpt lat="44.88527" lon="0.83288">
        <ele>122</ele>
        <time>1970-01-01T00:44:24.000Z</time>
      </trkpt>
      <trkpt lat="44.88521" lon="0.83294">
        <ele>122.4</ele>
        <time>1970-01-01T00:44:25.000Z</time>
      </trkpt>
      <trkpt lat="44.88515" lon="0.83298">
        <ele>122.8</ele>
        <time>1970-01-01T00:44:26.000Z</time>
      </trkpt>
      <trkpt lat="44.8851" lon="0.833">
        <ele>123.1</ele>
        <time>1970-01-01T00:44:27.000Z</time>
      </trkpt>
      <trkpt lat="44.88506" lon="0.83302">
        <ele>123.4</ele>
        <time>1970-01-01T00:44:28.000Z</time>
      </trkpt>
      <trkpt lat="44.88502" lon="0.83303">
        <ele>123.7</ele>
        <time>1970-01-01T00:44:29.000Z</time>
      </trkpt>
      <trkpt lat="44.88499" lon="0.83304">
        <ele>123.9</ele>
        <time>1970-01-01T00:44:30.000Z</time>
      </trkpt>
      <trkpt lat="44.88495" lon="0.83304">
        <ele>124.1</ele>
        <time>1970-01-01T00:44:31.000Z</time>
      </trkpt>
      <trkpt lat="44.88491" lon="0.83304">
        <ele>124.4</ele>
        <time>1970-01-01T00:44:32.000Z</time>
      </trkpt>
      <trkpt lat="44.88485" lon="0.83304">
        <ele>124.8</ele>
        <time>1970-01-01T00:44:33.000Z</time>
      </trkpt>
      <trkpt lat="44.8848" lon="0.83304">
        <ele>125.1</ele>
        <time>1970-01-01T00:44:34.000Z</time>
      </trkpt>
      <trkpt lat="44.88475" lon="0.83303">
        <ele>125.3</ele>
        <time>1970-01-01T00:44:35.000Z</time>
      </trkpt>
      <trkpt lat="44.88471" lon="0.83302">
        <ele>125.5</ele>
        <time>1970-01-01T00:44:36.000Z</time>
      </trkpt>
      <trkpt lat="44.88466" lon="0.83301">
        <ele>125.6</ele>
        <time>1970-01-01T00:44:37.000Z</time>
      </trkpt>
      <trkpt lat="44.88462" lon="0.83301">
        <ele>125.7</ele>
        <time>1970-01-01T00:44:38.000Z</time>
      </trkpt>
      <trkpt lat="44.88457" lon="0.83302">
        <ele>125.7</ele>
        <time>1970-01-01T00:44:39.000Z</time>
      </trkpt>
      <trkpt lat="44.88452" lon="0.83305">
        <ele>125.6</ele>
        <time>1970-01-01T00:44:40.000Z</time>
      </trkpt>
      <trkpt lat="44.88448" lon="0.83309">
        <ele>125.6</ele>
        <time>1970-01-01T00:44:41.000Z</time>
      </trkpt>
      <trkpt lat="44.88445" lon="0.83313">
        <ele>125.5</ele>
        <time>1970-01-01T00:44:42.000Z</time>
      </trkpt>
      <trkpt lat="44.88443" lon="0.83318">
        <ele>125.5</ele>
        <time>1970-01-01T00:44:43.000Z</time>
      </trkpt>
      <trkpt lat="44.88441" lon="0.83323">
        <ele>125.5</ele>
        <time>1970-01-01T00:44:44.000Z</time>
      </trkpt>
      <trkpt lat="44.88438" lon="0.83327">
        <ele>125.5</ele>
        <time>1970-01-01T00:44:45.000Z</time>
      </trkpt>
      <trkpt lat="44.88436" lon="0.83332">
        <ele>125.5</ele>
        <time>1970-01-01T00:44:46.000Z</time>
      </trkpt>
      <trkpt lat="44.88434" lon="0.83337">
        <ele>125.5</ele>
        <time>1970-01-01T00:44:47.000Z</time>
      </trkpt>
      <trkpt lat="44.88432" lon="0.83342">
        <ele>125.5</ele>
        <time>1970-01-01T00:44:48.000Z</time>
      </trkpt>
      <trkpt lat="44.8843" lon="0.83346">
        <ele>125.6</ele>
        <time>1970-01-01T00:44:49.000Z</time>
      </trkpt>
      <trkpt lat="44.88429" lon="0.83351">
        <ele>125.7</ele>
        <time>1970-01-01T00:44:50.000Z</time>
      </trkpt>
      <trkpt lat="44.88427" lon="0.83355">
        <ele>125.8</ele>
        <time>1970-01-01T00:44:51.000Z</time>
      </trkpt>
      <trkpt lat="44.88425" lon="0.8336">
        <ele>125.9</ele>
        <time>1970-01-01T00:44:52.000Z</time>
      </trkpt>
      <trkpt lat="44.88423" lon="0.83364">
        <ele>126</ele>
        <time>1970-01-01T00:44:53.000Z</time>
      </trkpt>
      <trkpt lat="44.88422" lon="0.83369">
        <ele>126.1</ele>
        <time>1970-01-01T00:44:54.000Z</time>
      </trkpt>
      <trkpt lat="44.8842" lon="0.83373">
        <ele>126.2</ele>
        <time>1970-01-01T00:44:55.000Z</time>
      </trkpt>
      <trkpt lat="44.88418" lon="0.83377">
        <ele>126.3</ele>
        <time>1970-01-01T00:44:56.000Z</time>
      </trkpt>
      <trkpt lat="44.88416" lon="0.83382">
        <ele>126.4</ele>
        <time>1970-01-01T00:44:57.000Z</time>
      </trkpt>
      <trkpt lat="44.88414" lon="0.83386">
        <ele>126.6</ele>
        <time>1970-01-01T00:44:58.000Z</time>
      </trkpt>
      <trkpt lat="44.88412" lon="0.8339">
        <ele>126.7</ele>
        <time>1970-01-01T00:44:59.000Z</time>
      </trkpt>
      <trkpt lat="44.8841" lon="0.83395">
        <ele>126.8</ele>
        <time>1970-01-01T00:45:00.000Z</time>
      </trkpt>
      <trkpt lat="44.88408" lon="0.83399">
        <ele>127</ele>
        <time>1970-01-01T00:45:01.000Z</time>
      </trkpt>
      <trkpt lat="44.88406" lon="0.83403">
        <ele>127.1</ele>
        <time>1970-01-01T00:45:02.000Z</time>
      </trkpt>
      <trkpt lat="44.88405" lon="0.83407">
        <ele>127.2</ele>
        <time>1970-01-01T00:45:03.000Z</time>
      </trkpt>
      <trkpt lat="44.88403" lon="0.83411">
        <ele>127.4</ele>
        <time>1970-01-01T00:45:04.000Z</time>
      </trkpt>
      <trkpt lat="44.88401" lon="0.83414">
        <ele>127.5</ele>
        <time>1970-01-01T00:45:05.000Z</time>
      </trkpt>
      <trkpt lat="44.88398" lon="0.83418">
        <ele>127.6</ele>
        <time>1970-01-01T00:45:06.000Z</time>
      </trkpt>
      <trkpt lat="44.88396" lon="0.83421">
        <ele>127.7</ele>
        <time>1970-01-01T00:45:07.000Z</time>
      </trkpt>
      <trkpt lat="44.88394" lon="0.83425">
        <ele>127.8</ele>
        <time>1970-01-01T00:45:08.000Z</time>
      </trkpt>
      <trkpt lat="44.88391" lon="0.83428">
        <ele>127.8</ele>
        <time>1970-01-01T00:45:09.000Z</time>
      </trkpt>
      <trkpt lat="44.88389" lon="0.83431">
        <ele>127.9</ele>
        <time>1970-01-01T00:45:10.000Z</time>
      </trkpt>
      <trkpt lat="44.88387" lon="0.83435">
        <ele>127.9</ele>
        <time>1970-01-01T00:45:11.000Z</time>
      </trkpt>
      <trkpt lat="44.88384" lon="0.83438">
        <ele>127.9</ele>
        <time>1970-01-01T00:45:12.000Z</time>
      </trkpt>
      <trkpt lat="44.88382" lon="0.83441">
        <ele>128</ele>
        <time>1970-01-01T00:45:13.000Z</time>
      </trkpt>
      <trkpt lat="44.8838" lon="0.83443">
        <ele>128</ele>
        <time>1970-01-01T00:45:14.000Z</time>
      </trkpt>
      <trkpt lat="44.88377" lon="0.83446">
        <ele>128</ele>
        <time>1970-01-01T00:45:15.000Z</time>
      </trkpt>
      <trkpt lat="44.88374" lon="0.83449">
        <ele>128</ele>
        <time>1970-01-01T00:45:16.000Z</time>
      </trkpt>
      <trkpt lat="44.88371" lon="0.83451">
        <ele>128.1</ele>
        <time>1970-01-01T00:45:17.000Z</time>
      </trkpt>
      <trkpt lat="44.88368" lon="0.83453">
        <ele>128.1</ele>
        <time>1970-01-01T00:45:18.000Z</time>
      </trkpt>
      <trkpt lat="44.88365" lon="0.83455">
        <ele>128.2</ele>
        <time>1970-01-01T00:45:19.000Z</time>
      </trkpt>
      <trkpt lat="44.88363" lon="0.83457">
        <ele>128.2</ele>
        <time>1970-01-01T00:45:20.000Z</time>
      </trkpt>
      <trkpt lat="44.88359" lon="0.83459">
        <ele>128.3</ele>
        <time>1970-01-01T00:45:21.000Z</time>
      </trkpt>
      <trkpt lat="44.88356" lon="0.83461">
        <ele>128.4</ele>
        <time>1970-01-01T00:45:22.000Z</time>
      </trkpt>
      <trkpt lat="44.88353" lon="0.83464">
        <ele>128.5</ele>
        <time>1970-01-01T00:45:23.000Z</time>
      </trkpt>
      <trkpt lat="44.88349" lon="0.83467">
        <ele>128.7</ele>
        <time>1970-01-01T00:45:24.000Z</time>
      </trkpt>
      <trkpt lat="44.88346" lon="0.8347">
        <ele>128.8</ele>
        <time>1970-01-01T00:45:25.000Z</time>
      </trkpt>
      <trkpt lat="44.88342" lon="0.83473">
        <ele>129.1</ele>
        <time>1970-01-01T00:45:26.000Z</time>
      </trkpt>
      <trkpt lat="44.88338" lon="0.83475">
        <ele>129.2</ele>
        <time>1970-01-01T00:45:27.000Z</time>
      </trkpt>
      <trkpt lat="44.88335" lon="0.83478">
        <ele>129.5</ele>
        <time>1970-01-01T00:45:28.000Z</time>
      </trkpt>
      <trkpt lat="44.88331" lon="0.8348">
        <ele>129.7</ele>
        <time>1970-01-01T00:45:29.000Z</time>
      </trkpt>
      <trkpt lat="44.88328" lon="0.83482">
        <ele>129.9</ele>
        <time>1970-01-01T00:45:30.000Z</time>
      </trkpt>
      <trkpt lat="44.88325" lon="0.83484">
        <ele>130.2</ele>
        <time>1970-01-01T00:45:31.000Z</time>
      </trkpt>
      <trkpt lat="44.88322" lon="0.83485">
        <ele>130.4</ele>
        <time>1970-01-01T00:45:32.000Z</time>
      </trkpt>
      <trkpt lat="44.88319" lon="0.83487">
        <ele>130.6</ele>
        <time>1970-01-01T00:45:33.000Z</time>
      </trkpt>
      <trkpt lat="44.88316" lon="0.83489">
        <ele>130.9</ele>
        <time>1970-01-01T00:45:34.000Z</time>
      </trkpt>
      <trkpt lat="44.88313" lon="0.8349">
        <ele>131.1</ele>
        <time>1970-01-01T00:45:35.000Z</time>
      </trkpt>
      <trkpt lat="44.8831" lon="0.83492">
        <ele>131.3</ele>
        <time>1970-01-01T00:45:36.000Z</time>
      </trkpt>
      <trkpt lat="44.88308" lon="0.83494">
        <ele>131.5</ele>
        <time>1970-01-01T00:45:37.000Z</time>
      </trkpt>
      <trkpt lat="44.88305" lon="0.83495">
        <ele>131.7</ele>
        <time>1970-01-01T00:45:38.000Z</time>
      </trkpt>
      <trkpt lat="44.88302" lon="0.83497">
        <ele>131.9</ele>
        <time>1970-01-01T00:45:39.000Z</time>
      </trkpt>
      <trkpt lat="44.88299" lon="0.83498">
        <ele>132.1</ele>
        <time>1970-01-01T00:45:40.000Z</time>
      </trkpt>
      <trkpt lat="44.88296" lon="0.83501">
        <ele>132.3</ele>
        <time>1970-01-01T00:45:41.000Z</time>
      </trkpt>
      <trkpt lat="44.88293" lon="0.83503">
        <ele>132.5</ele>
        <time>1970-01-01T00:45:42.000Z</time>
      </trkpt>
      <trkpt lat="44.8829" lon="0.83504">
        <ele>132.7</ele>
        <time>1970-01-01T00:45:43.000Z</time>
      </trkpt>
      <trkpt lat="44.88287" lon="0.83506">
        <ele>132.8</ele>
        <time>1970-01-01T00:45:44.000Z</time>
      </trkpt>
      <trkpt lat="44.88283" lon="0.83508">
        <ele>133</ele>
        <time>1970-01-01T00:45:45.000Z</time>
      </trkpt>
      <trkpt lat="44.8828" lon="0.83509">
        <ele>133.2</ele>
        <time>1970-01-01T00:45:46.000Z</time>
      </trkpt>
      <trkpt lat="44.88277" lon="0.8351">
        <ele>133.3</ele>
        <time>1970-01-01T00:45:47.000Z</time>
      </trkpt>
      <trkpt lat="44.88273" lon="0.83512">
        <ele>133.4</ele>
        <time>1970-01-01T00:45:48.000Z</time>
      </trkpt>
      <trkpt lat="44.8827" lon="0.83514">
        <ele>133.6</ele>
        <time>1970-01-01T00:45:49.000Z</time>
      </trkpt>
      <trkpt lat="44.88266" lon="0.83516">
        <ele>133.7</ele>
        <time>1970-01-01T00:45:50.000Z</time>
      </trkpt>
      <trkpt lat="44.88263" lon="0.83518">
        <ele>133.8</ele>
        <time>1970-01-01T00:45:51.000Z</time>
      </trkpt>
      <trkpt lat="44.88259" lon="0.83519">
        <ele>133.9</ele>
        <time>1970-01-01T00:45:52.000Z</time>
      </trkpt>
      <trkpt lat="44.88256" lon="0.83521">
        <ele>134</ele>
        <time>1970-01-01T00:45:53.000Z</time>
      </trkpt>
      <trkpt lat="44.88252" lon="0.83523">
        <ele>134.1</ele>
        <time>1970-01-01T00:45:54.000Z</time>
      </trkpt>
      <trkpt lat="44.88249" lon="0.83524">
        <ele>134.1</ele>
        <time>1970-01-01T00:45:55.000Z</time>
      </trkpt>
      <trkpt lat="44.88245" lon="0.83526">
        <ele>134.2</ele>
        <time>1970-01-01T00:45:56.000Z</time>
      </trkpt>
      <trkpt lat="44.88241" lon="0.83528">
        <ele>134.2</ele>
        <time>1970-01-01T00:45:57.000Z</time>
      </trkpt>
      <trkpt lat="44.88238" lon="0.83529">
        <ele>134.2</ele>
        <time>1970-01-01T00:45:58.000Z</time>
      </trkpt>
      <trkpt lat="44.88234" lon="0.83531">
        <ele>134.2</ele>
        <time>1970-01-01T00:45:59.000Z</time>
      </trkpt>
      <trkpt lat="44.8823" lon="0.83532">
        <ele>134.2</ele>
        <time>1970-01-01T00:46:00.000Z</time>
      </trkpt>
      <trkpt lat="44.88227" lon="0.83534">
        <ele>134.1</ele>
        <time>1970-01-01T00:46:01.000Z</time>
      </trkpt>
      <trkpt lat="44.88224" lon="0.83536">
        <ele>134.1</ele>
        <time>1970-01-01T00:46:02.000Z</time>
      </trkpt>
      <trkpt lat="44.88221" lon="0.83537">
        <ele>134</ele>
        <time>1970-01-01T00:46:03.000Z</time>
      </trkpt>
      <trkpt lat="44.88217" lon="0.83539">
        <ele>134</ele>
        <time>1970-01-01T00:46:04.000Z</time>
      </trkpt>
      <trkpt lat="44.88214" lon="0.8354">
        <ele>133.9</ele>
        <time>1970-01-01T00:46:05.000Z</time>
      </trkpt>
      <trkpt lat="44.88211" lon="0.83542">
        <ele>133.8</ele>
        <time>1970-01-01T00:46:06.000Z</time>
      </trkpt>
      <trkpt lat="44.88207" lon="0.83544">
        <ele>133.7</ele>
        <time>1970-01-01T00:46:07.000Z</time>
      </trkpt>
      <trkpt lat="44.88203" lon="0.83546">
        <ele>133.6</ele>
        <time>1970-01-01T00:46:08.000Z</time>
      </trkpt>
      <trkpt lat="44.88199" lon="0.83548">
        <ele>133.4</ele>
        <time>1970-01-01T00:46:09.000Z</time>
      </trkpt>
      <trkpt lat="44.88194" lon="0.8355">
        <ele>133.2</ele>
        <time>1970-01-01T00:46:10.000Z</time>
      </trkpt>
      <trkpt lat="44.8819" lon="0.83553">
        <ele>132.9</ele>
        <time>1970-01-01T00:46:11.000Z</time>
      </trkpt>
      <trkpt lat="44.88185" lon="0.83555">
        <ele>132.6</ele>
        <time>1970-01-01T00:46:12.000Z</time>
      </trkpt>
      <trkpt lat="44.88181" lon="0.83558">
        <ele>132.3</ele>
        <time>1970-01-01T00:46:13.000Z</time>
      </trkpt>
      <trkpt lat="44.88177" lon="0.83561">
        <ele>132</ele>
        <time>1970-01-01T00:46:14.000Z</time>
      </trkpt>
      <trkpt lat="44.88173" lon="0.83563">
        <ele>131.6</ele>
        <time>1970-01-01T00:46:15.000Z</time>
      </trkpt>
      <trkpt lat="44.88168" lon="0.83566">
        <ele>131.2</ele>
        <time>1970-01-01T00:46:16.000Z</time>
      </trkpt>
      <trkpt lat="44.88163" lon="0.8357">
        <ele>130.7</ele>
        <time>1970-01-01T00:46:17.000Z</time>
      </trkpt>
      <trkpt lat="44.88158" lon="0.83574">
        <ele>130.3</ele>
        <time>1970-01-01T00:46:18.000Z</time>
      </trkpt>
      <trkpt lat="44.88153" lon="0.83578">
        <ele>129.7</ele>
        <time>1970-01-01T00:46:19.000Z</time>
      </trkpt>
      <trkpt lat="44.88148" lon="0.83583">
        <ele>129.2</ele>
        <time>1970-01-01T00:46:20.000Z</time>
      </trkpt>
      <trkpt lat="44.88143" lon="0.83587">
        <ele>128.6</ele>
        <time>1970-01-01T00:46:21.000Z</time>
      </trkpt>
      <trkpt lat="44.88138" lon="0.83591">
        <ele>128</ele>
        <time>1970-01-01T00:46:22.000Z</time>
      </trkpt>
      <trkpt lat="44.88133" lon="0.83596">
        <ele>127.2</ele>
        <time>1970-01-01T00:46:23.000Z</time>
      </trkpt>
      <trkpt lat="44.88127" lon="0.83601">
        <ele>126.3</ele>
        <time>1970-01-01T00:46:24.000Z</time>
      </trkpt>
      <trkpt lat="44.88121" lon="0.83607">
        <ele>125.5</ele>
        <time>1970-01-01T00:46:25.000Z</time>
      </trkpt>
      <trkpt lat="44.88115" lon="0.83613">
        <ele>124.5</ele>
        <time>1970-01-01T00:46:26.000Z</time>
      </trkpt>
      <trkpt lat="44.88108" lon="0.83619">
        <ele>123.5</ele>
        <time>1970-01-01T00:46:27.000Z</time>
      </trkpt>
      <trkpt lat="44.88101" lon="0.83625">
        <ele>122.4</ele>
        <time>1970-01-01T00:46:28.000Z</time>
      </trkpt>
      <trkpt lat="44.88094" lon="0.83631">
        <ele>121.4</ele>
        <time>1970-01-01T00:46:29.000Z</time>
      </trkpt>
      <trkpt lat="44.88086" lon="0.83638">
        <ele>120.5</ele>
        <time>1970-01-01T00:46:30.000Z</time>
      </trkpt>
      <trkpt lat="44.88079" lon="0.83645">
        <ele>119.6</ele>
        <time>1970-01-01T00:46:31.000Z</time>
      </trkpt>
      <trkpt lat="44.88071" lon="0.83652">
        <ele>118.8</ele>
        <time>1970-01-01T00:46:32.000Z</time>
      </trkpt>
      <trkpt lat="44.88063" lon="0.83659">
        <ele>118.2</ele>
        <time>1970-01-01T00:46:33.000Z</time>
      </trkpt>
      <trkpt lat="44.88055" lon="0.83666">
        <ele>117.6</ele>
        <time>1970-01-01T00:46:34.000Z</time>
      </trkpt>
      <trkpt lat="44.88048" lon="0.83673">
        <ele>116.9</ele>
        <time>1970-01-01T00:46:35.000Z</time>
      </trkpt>
      <trkpt lat="44.88041" lon="0.83681">
        <ele>116.1</ele>
        <time>1970-01-01T00:46:36.000Z</time>
      </trkpt>
      <trkpt lat="44.88035" lon="0.83689">
        <ele>115.3</ele>
        <time>1970-01-01T00:46:37.000Z</time>
      </trkpt>
      <trkpt lat="44.8803" lon="0.83698">
        <ele>114.5</ele>
        <time>1970-01-01T00:46:38.000Z</time>
      </trkpt>
      <trkpt lat="44.88026" lon="0.83707">
        <ele>113.7</ele>
        <time>1970-01-01T00:46:39.000Z</time>
      </trkpt>
      <trkpt lat="44.88023" lon="0.83715">
        <ele>112.9</ele>
        <time>1970-01-01T00:46:40.000Z</time>
      </trkpt>
      <trkpt lat="44.88018" lon="0.83723">
        <ele>112</ele>
        <time>1970-01-01T00:46:41.000Z</time>
      </trkpt>
      <trkpt lat="44.88013" lon="0.83729">
        <ele>111</ele>
        <time>1970-01-01T00:46:42.000Z</time>
      </trkpt>
      <trkpt lat="44.88006" lon="0.83733">
        <ele>110.2</ele>
        <time>1970-01-01T00:46:43.000Z</time>
      </trkpt>
      <trkpt lat="44.87998" lon="0.83734">
        <ele>109.5</ele>
        <time>1970-01-01T00:46:44.000Z</time>
      </trkpt>
      <trkpt lat="44.87989" lon="0.83734">
        <ele>108.9</ele>
        <time>1970-01-01T00:46:45.000Z</time>
      </trkpt>
      <trkpt lat="44.87981" lon="0.83733">
        <ele>108.4</ele>
        <time>1970-01-01T00:46:46.000Z</time>
      </trkpt>
      <trkpt lat="44.87973" lon="0.83732">
        <ele>108</ele>
        <time>1970-01-01T00:46:47.000Z</time>
      </trkpt>
      <trkpt lat="44.87965" lon="0.8373">
        <ele>107.7</ele>
        <time>1970-01-01T00:46:48.000Z</time>
      </trkpt>
      <trkpt lat="44.87957" lon="0.83728">
        <ele>107.4</ele>
        <time>1970-01-01T00:46:49.000Z</time>
      </trkpt>
      <trkpt lat="44.8795" lon="0.83724">
        <ele>107.1</ele>
        <time>1970-01-01T00:46:50.000Z</time>
      </trkpt>
      <trkpt lat="44.87943" lon="0.83719">
        <ele>106.9</ele>
        <time>1970-01-01T00:46:51.000Z</time>
      </trkpt>
      <trkpt lat="44.87936" lon="0.83715">
        <ele>106.9</ele>
        <time>1970-01-01T00:46:52.000Z</time>
      </trkpt>
      <trkpt lat="44.8793" lon="0.8371">
        <ele>106.8</ele>
        <time>1970-01-01T00:46:53.000Z</time>
      </trkpt>
      <trkpt lat="44.87924" lon="0.83705">
        <ele>106.7</ele>
        <time>1970-01-01T00:46:54.000Z</time>
      </trkpt>
      <trkpt lat="44.87918" lon="0.837">
        <ele>106.5</ele>
        <time>1970-01-01T00:46:55.000Z</time>
      </trkpt>
      <trkpt lat="44.87912" lon="0.83695">
        <ele>106.3</ele>
        <time>1970-01-01T00:46:56.000Z</time>
      </trkpt>
      <trkpt lat="44.87906" lon="0.8369">
        <ele>106</ele>
        <time>1970-01-01T00:46:57.000Z</time>
      </trkpt>
      <trkpt lat="44.879" lon="0.83685">
        <ele>105.7</ele>
        <time>1970-01-01T00:46:58.000Z</time>
      </trkpt>
      <trkpt lat="44.87894" lon="0.8368">
        <ele>105.3</ele>
        <time>1970-01-01T00:46:59.000Z</time>
      </trkpt>
      <trkpt lat="44.87887" lon="0.83675">
        <ele>104.9</ele>
        <time>1970-01-01T00:47:00.000Z</time>
      </trkpt>
      <trkpt lat="44.87881" lon="0.83669">
        <ele>104.5</ele>
        <time>1970-01-01T00:47:01.000Z</time>
      </trkpt>
      <trkpt lat="44.87875" lon="0.83663">
        <ele>104.1</ele>
        <time>1970-01-01T00:47:02.000Z</time>
      </trkpt>
      <trkpt lat="44.87869" lon="0.83656">
        <ele>103.6</ele>
        <time>1970-01-01T00:47:03.000Z</time>
      </trkpt>
      <trkpt lat="44.87863" lon="0.83649">
        <ele>103.1</ele>
        <time>1970-01-01T00:47:04.000Z</time>
      </trkpt>
      <trkpt lat="44.87857" lon="0.83642">
        <ele>102.5</ele>
        <time>1970-01-01T00:47:05.000Z</time>
      </trkpt>
      <trkpt lat="44.8785" lon="0.83635">
        <ele>101.8</ele>
        <time>1970-01-01T00:47:06.000Z</time>
      </trkpt>
      <trkpt lat="44.87844" lon="0.83627">
        <ele>101.1</ele>
        <time>1970-01-01T00:47:07.000Z</time>
      </trkpt>
      <trkpt lat="44.87837" lon="0.83619">
        <ele>100.4</ele>
        <time>1970-01-01T00:47:08.000Z</time>
      </trkpt>
      <trkpt lat="44.87831" lon="0.83611">
        <ele>99.5</ele>
        <time>1970-01-01T00:47:09.000Z</time>
      </trkpt>
      <trkpt lat="44.87824" lon="0.83604">
        <ele>98.4</ele>
        <time>1970-01-01T00:47:10.000Z</time>
      </trkpt>
      <trkpt lat="44.87816" lon="0.83598">
        <ele>97.3</ele>
        <time>1970-01-01T00:47:11.000Z</time>
      </trkpt>
      <trkpt lat="44.87809" lon="0.83593">
        <ele>96</ele>
        <time>1970-01-01T00:47:12.000Z</time>
      </trkpt>
      <trkpt lat="44.87801" lon="0.83587">
        <ele>94.6</ele>
        <time>1970-01-01T00:47:13.000Z</time>
      </trkpt>
      <trkpt lat="44.87793" lon="0.8358">
        <ele>93.1</ele>
        <time>1970-01-01T00:47:14.000Z</time>
      </trkpt>
      <trkpt lat="44.87785" lon="0.83574">
        <ele>91.1</ele>
        <time>1970-01-01T00:47:15.000Z</time>
      </trkpt>
      <trkpt lat="44.87777" lon="0.83567">
        <ele>88.9</ele>
        <time>1970-01-01T00:47:16.000Z</time>
      </trkpt>
      <trkpt lat="44.87769" lon="0.83562">
        <ele>86.7</ele>
        <time>1970-01-01T00:47:17.000Z</time>
      </trkpt>
      <trkpt lat="44.87762" lon="0.83557">
        <ele>84.7</ele>
        <time>1970-01-01T00:47:18.000Z</time>
      </trkpt>
      <trkpt lat="44.87756" lon="0.83553">
        <ele>83.2</ele>
        <time>1970-01-01T00:47:19.000Z</time>
      </trkpt>
      <trkpt lat="44.8775" lon="0.83552">
        <ele>81.8</ele>
        <time>1970-01-01T00:47:20.000Z</time>
      </trkpt>
      <trkpt lat="44.87743" lon="0.83554">
        <ele>80.4</ele>
        <time>1970-01-01T00:47:21.000Z</time>
      </trkpt>
      <trkpt lat="44.87736" lon="0.8356">
        <ele>78.9</ele>
        <time>1970-01-01T00:47:22.000Z</time>
      </trkpt>
      <trkpt lat="44.8773" lon="0.83567">
        <ele>77.7</ele>
        <time>1970-01-01T00:47:23.000Z</time>
      </trkpt>
      <trkpt lat="44.87726" lon="0.83575">
        <ele>76.7</ele>
        <time>1970-01-01T00:47:24.000Z</time>
      </trkpt>
      <trkpt lat="44.87724" lon="0.83586">
        <ele>75.9</ele>
        <time>1970-01-01T00:47:25.000Z</time>
      </trkpt>
      <trkpt lat="44.87723" lon="0.83598">
        <ele>75.4</ele>
        <time>1970-01-01T00:47:26.000Z</time>
      </trkpt>
      <trkpt lat="44.87724" lon="0.83612">
        <ele>75.1</ele>
        <time>1970-01-01T00:47:27.000Z</time>
      </trkpt>
      <trkpt lat="44.87724" lon="0.83624">
        <ele>75.1</ele>
        <time>1970-01-01T00:47:28.000Z</time>
      </trkpt>
      <trkpt lat="44.87724" lon="0.83635">
        <ele>75.2</ele>
        <time>1970-01-01T00:47:29.000Z</time>
      </trkpt>
      <trkpt lat="44.87726" lon="0.83644">
        <ele>75.4</ele>
        <time>1970-01-01T00:47:30.000Z</time>
      </trkpt>
      <trkpt lat="44.87728" lon="0.83652">
        <ele>75.6</ele>
        <time>1970-01-01T00:47:31.000Z</time>
      </trkpt>
      <trkpt lat="44.8773" lon="0.83661">
        <ele>75.7</ele>
        <time>1970-01-01T00:47:32.000Z</time>
      </trkpt>
      <trkpt lat="44.87732" lon="0.83669">
        <ele>75.8</ele>
        <time>1970-01-01T00:47:33.000Z</time>
      </trkpt>
      <trkpt lat="44.87734" lon="0.83677">
        <ele>75.9</ele>
        <time>1970-01-01T00:47:34.000Z</time>
      </trkpt>
      <trkpt lat="44.87738" lon="0.83684">
        <ele>76</ele>
        <time>1970-01-01T00:47:35.000Z</time>
      </trkpt>
      <trkpt lat="44.87741" lon="0.83691">
        <ele>78.2</ele>
        <time>1970-01-01T00:47:36.000Z</time>
      </trkpt>
      <trkpt lat="44.87743" lon="0.83698">
        <ele>77.1</ele>
        <time>1970-01-01T00:47:37.000Z</time>
      </trkpt>
      <trkpt lat="44.87746" lon="0.83705">
        <ele>75.1</ele>
        <time>1970-01-01T00:47:38.000Z</time>
      </trkpt>
      <trkpt lat="44.87749" lon="0.83712">
        <ele>73.9</ele>
        <time>1970-01-01T00:47:39.000Z</time>
      </trkpt>
      <trkpt lat="44.87751" lon="0.83718">
        <ele>72.7</ele>
        <time>1970-01-01T00:47:40.000Z</time>
      </trkpt>
      <trkpt lat="44.87753" lon="0.83723">
        <ele>70.6</ele>
        <time>1970-01-01T00:47:41.000Z</time>
      </trkpt>
      <trkpt lat="44.87753" lon="0.83728">
        <ele>73.2</ele>
        <time>1970-01-01T00:47:42.000Z</time>
      </trkpt>
      <trkpt lat="44.87752" lon="0.83732">
        <ele>68.2</ele>
        <time>1970-01-01T00:47:43.000Z</time>
      </trkpt>
      <trkpt lat="44.87752" lon="0.83736">
        <ele>67</ele>
        <time>1970-01-01T00:47:44.000Z</time>
      </trkpt>
      <trkpt lat="44.8775" lon="0.83737">
        <ele>64.6</ele>
        <time>1970-01-01T00:47:45.000Z</time>
      </trkpt>
      <trkpt lat="44.87748" lon="0.83737">
        <ele>63.4</ele>
        <time>1970-01-01T00:47:46.000Z</time>
      </trkpt>
      <trkpt lat="44.87746" lon="0.83735">
        <ele>63.5</ele>
        <time>1970-01-01T00:47:47.000Z</time>
      </trkpt>
      <trkpt lat="44.87743" lon="0.83734">
        <ele>62.3</ele>
        <time>1970-01-01T00:47:48.000Z</time>
      </trkpt>
      <trkpt lat="44.8774" lon="0.8373">
        <ele>62.3</ele>
        <time>1970-01-01T00:47:49.000Z</time>
      </trkpt>
      <trkpt lat="44.87734" lon="0.83719">
        <ele>62.1</ele>
        <time>1970-01-01T00:47:50.000Z</time>
      </trkpt>
      <trkpt lat="44.87728" lon="0.83707">
        <ele>62</ele>
        <time>1970-01-01T00:47:51.000Z</time>
      </trkpt>
      <trkpt lat="44.87721" lon="0.83693">
        <ele>61.8</ele>
        <time>1970-01-01T00:47:52.000Z</time>
      </trkpt>
      <trkpt lat="44.87715" lon="0.83684">
        <ele>61.6</ele>
        <time>1970-01-01T00:47:53.000Z</time>
      </trkpt>
      <trkpt lat="44.8771" lon="0.83673">
        <ele>61.4</ele>
        <time>1970-01-01T00:47:54.000Z</time>
      </trkpt>
      <trkpt lat="44.87705" lon="0.83664">
        <ele>61.3</ele>
        <time>1970-01-01T00:47:55.000Z</time>
      </trkpt>
      <trkpt lat="44.87701" lon="0.83656">
        <ele>61.1</ele>
        <time>1970-01-01T00:47:56.000Z</time>
      </trkpt>
      <trkpt lat="44.87697" lon="0.8365">
        <ele>61</ele>
        <time>1970-01-01T00:47:57.000Z</time>
      </trkpt>
      <trkpt lat="44.87693" lon="0.83646">
        <ele>61</ele>
        <time>1970-01-01T00:47:58.000Z</time>
      </trkpt>
      <trkpt lat="44.8769" lon="0.83644">
        <ele>60.9</ele>
        <time>1970-01-01T00:47:59.000Z</time>
      </trkpt>
      <trkpt lat="44.87688" lon="0.83642">
        <ele>60.8</ele>
        <time>1970-01-01T00:48:00.000Z</time>
      </trkpt>
      <trkpt lat="44.87687" lon="0.83641">
        <ele>60.8</ele>
        <time>1970-01-01T00:48:01.000Z</time>
      </trkpt>
      <trkpt lat="44.87688" lon="0.83646">
        <ele>60.7</ele>
        <time>1970-01-01T00:48:02.000Z</time>
      </trkpt>
      <trkpt lat="44.8769" lon="0.8365">
        <ele>60.7</ele>
        <time>1970-01-01T00:48:03.000Z</time>
      </trkpt>
      <trkpt lat="44.87692" lon="0.83655">
        <ele>60.6</ele>
        <time>1970-01-01T00:48:04.000Z</time>
      </trkpt>
      <trkpt lat="44.87693" lon="0.83659">
        <ele>60.7</ele>
        <time>1970-01-01T00:48:05.000Z</time>
      </trkpt>
      <trkpt lat="44.87695" lon="0.83663">
        <ele>60.8</ele>
        <time>1970-01-01T00:48:06.000Z</time>
      </trkpt>
      <trkpt lat="44.87696" lon="0.83668">
        <ele>60.9</ele>
        <time>1970-01-01T00:48:07.000Z</time>
      </trkpt>
      <trkpt lat="44.87698" lon="0.83672">
        <ele>60.9</ele>
        <time>1970-01-01T00:48:08.000Z</time>
      </trkpt>
      <trkpt lat="44.877" lon="0.83676">
        <ele>61</ele>
        <time>1970-01-01T00:48:09.000Z</time>
      </trkpt>
      <trkpt lat="44.87701" lon="0.83681">
        <ele>61.1</ele>
        <time>1970-01-01T00:48:10.000Z</time>
      </trkpt>
      <trkpt lat="44.87703" lon="0.83685">
        <ele>61.2</ele>
        <time>1970-01-01T00:48:11.000Z</time>
      </trkpt>
      <trkpt lat="44.87705" lon="0.83691">
        <ele>61.3</ele>
        <time>1970-01-01T00:48:12.000Z</time>
      </trkpt>
      <trkpt lat="44.87707" lon="0.83696">
        <ele>61.4</ele>
        <time>1970-01-01T00:48:13.000Z</time>
      </trkpt>
      <trkpt lat="44.87709" lon="0.83701">
        <ele>61.5</ele>
        <time>1970-01-01T00:48:14.000Z</time>
      </trkpt>
      <trkpt lat="44.87712" lon="0.83707">
        <ele>61.6</ele>
        <time>1970-01-01T00:48:15.000Z</time>
      </trkpt>
      <trkpt lat="44.87714" lon="0.83712">
        <ele>61.7</ele>
        <time>1970-01-01T00:48:16.000Z</time>
      </trkpt>
      <trkpt lat="44.87716" lon="0.83718">
        <ele>61.8</ele>
        <time>1970-01-01T00:48:17.000Z</time>
      </trkpt>
      <trkpt lat="44.87719" lon="0.83723">
        <ele>61.9</ele>
        <time>1970-01-01T00:48:18.000Z</time>
      </trkpt>
      <trkpt lat="44.87721" lon="0.83728">
        <ele>62</ele>
        <time>1970-01-01T00:48:19.000Z</time>
      </trkpt>
      <trkpt lat="44.87724" lon="0.83733">
        <ele>62.1</ele>
        <time>1970-01-01T00:48:20.000Z</time>
      </trkpt>
      <trkpt lat="44.87727" lon="0.83738">
        <ele>62.1</ele>
        <time>1970-01-01T00:48:21.000Z</time>
      </trkpt>
      <trkpt lat="44.8773" lon="0.83743">
        <ele>62.2</ele>
        <time>1970-01-01T00:48:22.000Z</time>
      </trkpt>
      <trkpt lat="44.87733" lon="0.83748">
        <ele>62.3</ele>
        <time>1970-01-01T00:48:23.000Z</time>
      </trkpt>
      <trkpt lat="44.87736" lon="0.83752">
        <ele>62.4</ele>
        <time>1970-01-01T00:48:24.000Z</time>
      </trkpt>
      <trkpt lat="44.87739" lon="0.83757">
        <ele>62.5</ele>
        <time>1970-01-01T00:48:25.000Z</time>
      </trkpt>
      <trkpt lat="44.87743" lon="0.83761">
        <ele>62.5</ele>
        <time>1970-01-01T00:48:26.000Z</time>
      </trkpt>
      <trkpt lat="44.87746" lon="0.83766">
        <ele>62.6</ele>
        <time>1970-01-01T00:48:27.000Z</time>
      </trkpt>
      <trkpt lat="44.87749" lon="0.8377">
        <ele>62.7</ele>
        <time>1970-01-01T00:48:28.000Z</time>
      </trkpt>
      <trkpt lat="44.87752" lon="0.83774">
        <ele>62.7</ele>
        <time>1970-01-01T00:48:29.000Z</time>
      </trkpt>
      <trkpt lat="44.87755" lon="0.83779">
        <ele>62.8</ele>
        <time>1970-01-01T00:48:30.000Z</time>
      </trkpt>
      <trkpt lat="44.87759" lon="0.83783">
        <ele>62.9</ele>
        <time>1970-01-01T00:48:31.000Z</time>
      </trkpt>
      <trkpt lat="44.87762" lon="0.83787">
        <ele>63</ele>
        <time>1970-01-01T00:48:32.000Z</time>
      </trkpt>
      <trkpt lat="44.87765" lon="0.8379">
        <ele>63</ele>
        <time>1970-01-01T00:48:33.000Z</time>
      </trkpt>
      <trkpt lat="44.87768" lon="0.83793">
        <ele>63.1</ele>
        <time>1970-01-01T00:48:34.000Z</time>
      </trkpt>
      <trkpt lat="44.87771" lon="0.83796">
        <ele>63.1</ele>
        <time>1970-01-01T00:48:35.000Z</time>
      </trkpt>
      <trkpt lat="44.87773" lon="0.83798">
        <ele>63.2</ele>
        <time>1970-01-01T00:48:36.000Z</time>
      </trkpt>
      <trkpt lat="44.87775" lon="0.83801">
        <ele>63.2</ele>
        <time>1970-01-01T00:48:37.000Z</time>
      </trkpt>
      <trkpt lat="44.87777" lon="0.83803">
        <ele>63.2</ele>
        <time>1970-01-01T00:48:38.000Z</time>
      </trkpt>
      <trkpt lat="44.87779" lon="0.83806">
        <ele>63.2</ele>
        <time>1970-01-01T00:48:39.000Z</time>
      </trkpt>
      <trkpt lat="44.87781" lon="0.83808">
        <ele>63.3</ele>
        <time>1970-01-01T00:48:40.000Z</time>
      </trkpt>
      <trkpt lat="44.87783" lon="0.83812">
        <ele>63.3</ele>
        <time>1970-01-01T00:48:41.000Z</time>
      </trkpt>
      <trkpt lat="44.87785" lon="0.83815">
        <ele>63.3</ele>
        <time>1970-01-01T00:48:42.000Z</time>
      </trkpt>
      <trkpt lat="44.87788" lon="0.83819">
        <ele>63.4</ele>
        <time>1970-01-01T00:48:43.000Z</time>
      </trkpt>
      <trkpt lat="44.87791" lon="0.83823">
        <ele>63.4</ele>
        <time>1970-01-01T00:48:44.000Z</time>
      </trkpt>
      <trkpt lat="44.87794" lon="0.83826">
        <ele>63.4</ele>
        <time>1970-01-01T00:48:45.000Z</time>
      </trkpt>
      <trkpt lat="44.87797" lon="0.8383">
        <ele>63.4</ele>
        <time>1970-01-01T00:48:46.000Z</time>
      </trkpt>
      <trkpt lat="44.878" lon="0.83834">
        <ele>63.4</ele>
        <time>1970-01-01T00:48:47.000Z</time>
      </trkpt>
      <trkpt lat="44.87803" lon="0.83837">
        <ele>63.4</ele>
        <time>1970-01-01T00:48:48.000Z</time>
      </trkpt>
      <trkpt lat="44.87806" lon="0.83841">
        <ele>63.4</ele>
        <time>1970-01-01T00:48:49.000Z</time>
      </trkpt>
      <trkpt lat="44.8781" lon="0.83844">
        <ele>63.4</ele>
        <time>1970-01-01T00:48:50.000Z</time>
      </trkpt>
      <trkpt lat="44.87813" lon="0.83848">
        <ele>63.4</ele>
        <time>1970-01-01T00:48:51.000Z</time>
      </trkpt>
      <trkpt lat="44.87817" lon="0.83851">
        <ele>63.4</ele>
        <time>1970-01-01T00:48:52.000Z</time>
      </trkpt>
      <trkpt lat="44.8782" lon="0.83854">
        <ele>63.4</ele>
        <time>1970-01-01T00:48:53.000Z</time>
      </trkpt>
      <trkpt lat="44.87824" lon="0.83857">
        <ele>63.4</ele>
        <time>1970-01-01T00:48:54.000Z</time>
      </trkpt>
      <trkpt lat="44.87827" lon="0.8386">
        <ele>63.4</ele>
        <time>1970-01-01T00:48:55.000Z</time>
      </trkpt>
      <trkpt lat="44.87831" lon="0.83863">
        <ele>63.4</ele>
        <time>1970-01-01T00:48:56.000Z</time>
      </trkpt>
      <trkpt lat="44.87835" lon="0.83866">
        <ele>63.4</ele>
        <time>1970-01-01T00:48:57.000Z</time>
      </trkpt>
      <trkpt lat="44.87838" lon="0.83869">
        <ele>63.4</ele>
        <time>1970-01-01T00:48:58.000Z</time>
      </trkpt>
      <trkpt lat="44.87842" lon="0.83872">
        <ele>63.4</ele>
        <time>1970-01-01T00:48:59.000Z</time>
      </trkpt>
      <trkpt lat="44.87846" lon="0.83874">
        <ele>63.4</ele>
        <time>1970-01-01T00:49:00.000Z</time>
      </trkpt>
      <trkpt lat="44.87849" lon="0.83877">
        <ele>63.4</ele>
        <time>1970-01-01T00:49:01.000Z</time>
      </trkpt>
      <trkpt lat="44.87853" lon="0.83879">
        <ele>63.4</ele>
        <time>1970-01-01T00:49:02.000Z</time>
      </trkpt>
      <trkpt lat="44.87856" lon="0.83882">
        <ele>63.4</ele>
        <time>1970-01-01T00:49:03.000Z</time>
      </trkpt>
      <trkpt lat="44.8786" lon="0.83884">
        <ele>63.4</ele>
        <time>1970-01-01T00:49:04.000Z</time>
      </trkpt>
      <trkpt lat="44.87864" lon="0.83887">
        <ele>63.4</ele>
        <time>1970-01-01T00:49:05.000Z</time>
      </trkpt>
      <trkpt lat="44.87868" lon="0.8389">
        <ele>63.4</ele>
        <time>1970-01-01T00:49:06.000Z</time>
      </trkpt>
      <trkpt lat="44.87872" lon="0.83892">
        <ele>63.3</ele>
        <time>1970-01-01T00:49:07.000Z</time>
      </trkpt>
      <trkpt lat="44.87876" lon="0.83894">
        <ele>63.3</ele>
        <time>1970-01-01T00:49:08.000Z</time>
      </trkpt>
      <trkpt lat="44.8788" lon="0.83896">
        <ele>63.3</ele>
        <time>1970-01-01T00:49:09.000Z</time>
      </trkpt>
      <trkpt lat="44.87883" lon="0.83898">
        <ele>63.3</ele>
        <time>1970-01-01T00:49:10.000Z</time>
      </trkpt>
      <trkpt lat="44.87887" lon="0.83899">
        <ele>63.3</ele>
        <time>1970-01-01T00:49:11.000Z</time>
      </trkpt>
      <trkpt lat="44.87891" lon="0.83901">
        <ele>63.3</ele>
        <time>1970-01-01T00:49:12.000Z</time>
      </trkpt>
      <trkpt lat="44.87895" lon="0.83902">
        <ele>63.3</ele>
        <time>1970-01-01T00:49:13.000Z</time>
      </trkpt>
      <trkpt lat="44.87899" lon="0.83904">
        <ele>63.3</ele>
        <time>1970-01-01T00:49:14.000Z</time>
      </trkpt>
      <trkpt lat="44.87903" lon="0.83906">
        <ele>63.3</ele>
        <time>1970-01-01T00:49:15.000Z</time>
      </trkpt>
      <trkpt lat="44.87908" lon="0.83907">
        <ele>63.3</ele>
        <time>1970-01-01T00:49:16.000Z</time>
      </trkpt>
      <trkpt lat="44.87912" lon="0.83909">
        <ele>63.2</ele>
        <time>1970-01-01T00:49:17.000Z</time>
      </trkpt>
      <trkpt lat="44.87916" lon="0.8391">
        <ele>63.2</ele>
        <time>1970-01-01T00:49:18.000Z</time>
      </trkpt>
      <trkpt lat="44.8792" lon="0.83912">
        <ele>63.2</ele>
        <time>1970-01-01T00:49:19.000Z</time>
      </trkpt>
      <trkpt lat="44.87925" lon="0.83913">
        <ele>63.2</ele>
        <time>1970-01-01T00:49:20.000Z</time>
      </trkpt>
      <trkpt lat="44.87929" lon="0.83914">
        <ele>63.2</ele>
        <time>1970-01-01T00:49:21.000Z</time>
      </trkpt>
      <trkpt lat="44.87934" lon="0.83915">
        <ele>63.2</ele>
        <time>1970-01-01T00:49:22.000Z</time>
      </trkpt>
      <trkpt lat="44.87938" lon="0.83916">
        <ele>63.2</ele>
        <time>1970-01-01T00:49:23.000Z</time>
      </trkpt>
      <trkpt lat="44.87943" lon="0.83917">
        <ele>63.2</ele>
        <time>1970-01-01T00:49:24.000Z</time>
      </trkpt>
      <trkpt lat="44.87948" lon="0.83917">
        <ele>63.2</ele>
        <time>1970-01-01T00:49:25.000Z</time>
      </trkpt>
      <trkpt lat="44.87952" lon="0.83918">
        <ele>63.2</ele>
        <time>1970-01-01T00:49:26.000Z</time>
      </trkpt>
      <trkpt lat="44.87957" lon="0.83918">
        <ele>63.2</ele>
        <time>1970-01-01T00:49:27.000Z</time>
      </trkpt>
      <trkpt lat="44.87962" lon="0.83918">
        <ele>63.2</ele>
        <time>1970-01-01T00:49:28.000Z</time>
      </trkpt>
      <trkpt lat="44.87967" lon="0.83918">
        <ele>63.2</ele>
        <time>1970-01-01T00:49:29.000Z</time>
      </trkpt>
      <trkpt lat="44.87972" lon="0.83918">
        <ele>63.2</ele>
        <time>1970-01-01T00:49:30.000Z</time>
      </trkpt>
      <trkpt lat="44.87976" lon="0.83918">
        <ele>63.2</ele>
        <time>1970-01-01T00:49:31.000Z</time>
      </trkpt>
      <trkpt lat="44.87981" lon="0.83918">
        <ele>63.2</ele>
        <time>1970-01-01T00:49:32.000Z</time>
      </trkpt>
      <trkpt lat="44.87986" lon="0.83918">
        <ele>63.2</ele>
        <time>1970-01-01T00:49:33.000Z</time>
      </trkpt>
      <trkpt lat="44.87991" lon="0.83918">
        <ele>63.2</ele>
        <time>1970-01-01T00:49:34.000Z</time>
      </trkpt>
      <trkpt lat="44.87996" lon="0.83918">
        <ele>63.2</ele>
        <time>1970-01-01T00:49:35.000Z</time>
      </trkpt>
      <trkpt lat="44.88001" lon="0.83918">
        <ele>63.2</ele>
        <time>1970-01-01T00:49:36.000Z</time>
      </trkpt>
      <trkpt lat="44.88006" lon="0.83918">
        <ele>63.2</ele>
        <time>1970-01-01T00:49:37.000Z</time>
      </trkpt>
      <trkpt lat="44.8801" lon="0.83918">
        <ele>63.2</ele>
        <time>1970-01-01T00:49:38.000Z</time>
      </trkpt>
      <trkpt lat="44.88015" lon="0.83918">
        <ele>63.2</ele>
        <time>1970-01-01T00:49:39.000Z</time>
      </trkpt>
      <trkpt lat="44.8802" lon="0.83918">
        <ele>63.2</ele>
        <time>1970-01-01T00:49:40.000Z</time>
      </trkpt>
      <trkpt lat="44.88025" lon="0.83918">
        <ele>63.2</ele>
        <time>1970-01-01T00:49:41.000Z</time>
      </trkpt>
      <trkpt lat="44.88029" lon="0.83918">
        <ele>63.2</ele>
        <time>1970-01-01T00:49:42.000Z</time>
      </trkpt>
      <trkpt lat="44.88034" lon="0.83919">
        <ele>63.2</ele>
        <time>1970-01-01T00:49:43.000Z</time>
      </trkpt>
      <trkpt lat="44.88039" lon="0.83919">
        <ele>63.2</ele>
        <time>1970-01-01T00:49:44.000Z</time>
      </trkpt>
      <trkpt lat="44.88044" lon="0.83919">
        <ele>63.2</ele>
        <time>1970-01-01T00:49:45.000Z</time>
      </trkpt>
      <trkpt lat="44.88048" lon="0.83919">
        <ele>63.2</ele>
        <time>1970-01-01T00:49:46.000Z</time>
      </trkpt>
      <trkpt lat="44.88053" lon="0.83919">
        <ele>63.2</ele>
        <time>1970-01-01T00:49:47.000Z</time>
      </trkpt>
      <trkpt lat="44.88058" lon="0.83919">
        <ele>63.3</ele>
        <time>1970-01-01T00:49:48.000Z</time>
      </trkpt>
      <trkpt lat="44.88063" lon="0.8392">
        <ele>63.3</ele>
        <time>1970-01-01T00:49:49.000Z</time>
      </trkpt>
      <trkpt lat="44.88068" lon="0.8392">
        <ele>63.3</ele>
        <time>1970-01-01T00:49:50.000Z</time>
      </trkpt>
      <trkpt lat="44.88073" lon="0.8392">
        <ele>63.3</ele>
        <time>1970-01-01T00:49:51.000Z</time>
      </trkpt>
      <trkpt lat="44.88077" lon="0.8392">
        <ele>63.3</ele>
        <time>1970-01-01T00:49:52.000Z</time>
      </trkpt>
      <trkpt lat="44.88082" lon="0.83921">
        <ele>63.4</ele>
        <time>1970-01-01T00:49:53.000Z</time>
      </trkpt>
      <trkpt lat="44.88087" lon="0.83921">
        <ele>63.4</ele>
        <time>1970-01-01T00:49:54.000Z</time>
      </trkpt>
      <trkpt lat="44.88092" lon="0.83921">
        <ele>63.4</ele>
        <time>1970-01-01T00:49:55.000Z</time>
      </trkpt>
      <trkpt lat="44.88096" lon="0.83922">
        <ele>63.4</ele>
        <time>1970-01-01T00:49:56.000Z</time>
      </trkpt>
      <trkpt lat="44.88101" lon="0.83923">
        <ele>63.4</ele>
        <time>1970-01-01T00:49:57.000Z</time>
      </trkpt>
      <trkpt lat="44.88106" lon="0.83923">
        <ele>63.4</ele>
        <time>1970-01-01T00:49:58.000Z</time>
      </trkpt>
      <trkpt lat="44.88111" lon="0.83923">
        <ele>63.4</ele>
        <time>1970-01-01T00:49:59.000Z</time>
      </trkpt>
      <trkpt lat="44.88116" lon="0.83924">
        <ele>63.4</ele>
        <time>1970-01-01T00:50:00.000Z</time>
      </trkpt>
      <trkpt lat="44.88121" lon="0.83924">
        <ele>63.4</ele>
        <time>1970-01-01T00:50:01.000Z</time>
      </trkpt>
      <trkpt lat="44.88126" lon="0.83924">
        <ele>63.5</ele>
        <time>1970-01-01T00:50:02.000Z</time>
      </trkpt>
      <trkpt lat="44.88131" lon="0.83924">
        <ele>63.5</ele>
        <time>1970-01-01T00:50:03.000Z</time>
      </trkpt>
      <trkpt lat="44.88136" lon="0.83924">
        <ele>63.5</ele>
        <time>1970-01-01T00:50:04.000Z</time>
      </trkpt>
      <trkpt lat="44.88141" lon="0.83925">
        <ele>63.5</ele>
        <time>1970-01-01T00:50:05.000Z</time>
      </trkpt>
      <trkpt lat="44.88146" lon="0.83925">
        <ele>63.5</ele>
        <time>1970-01-01T00:50:06.000Z</time>
      </trkpt>
      <trkpt lat="44.88151" lon="0.83925">
        <ele>63.5</ele>
        <time>1970-01-01T00:50:07.000Z</time>
      </trkpt>
      <trkpt lat="44.88156" lon="0.83926">
        <ele>63.5</ele>
        <time>1970-01-01T00:50:08.000Z</time>
      </trkpt>
      <trkpt lat="44.8816" lon="0.83926">
        <ele>63.6</ele>
        <time>1970-01-01T00:50:09.000Z</time>
      </trkpt>
      <trkpt lat="44.88165" lon="0.83927">
        <ele>63.6</ele>
        <time>1970-01-01T00:50:10.000Z</time>
      </trkpt>
      <trkpt lat="44.88169" lon="0.8393">
        <ele>63.6</ele>
        <time>1970-01-01T00:50:11.000Z</time>
      </trkpt>
      <trkpt lat="44.88173" lon="0.83935">
        <ele>63.6</ele>
        <time>1970-01-01T00:50:12.000Z</time>
      </trkpt>
      <trkpt lat="44.88177" lon="0.83941">
        <ele>63.5</ele>
        <time>1970-01-01T00:50:13.000Z</time>
      </trkpt>
      <trkpt lat="44.8818" lon="0.83946">
        <ele>63.4</ele>
        <time>1970-01-01T00:50:14.000Z</time>
      </trkpt>
      <trkpt lat="44.88184" lon="0.83952">
        <ele>63.3</ele>
        <time>1970-01-01T00:50:15.000Z</time>
      </trkpt>
      <trkpt lat="44.88188" lon="0.83957">
        <ele>63.2</ele>
        <time>1970-01-01T00:50:16.000Z</time>
      </trkpt>
      <trkpt lat="44.88192" lon="0.83962">
        <ele>63.1</ele>
        <time>1970-01-01T00:50:17.000Z</time>
      </trkpt>
      <trkpt lat="44.88195" lon="0.83967">
        <ele>63</ele>
        <time>1970-01-01T00:50:18.000Z</time>
      </trkpt>
      <trkpt lat="44.88199" lon="0.83972">
        <ele>62.9</ele>
        <time>1970-01-01T00:50:19.000Z</time>
      </trkpt>
      <trkpt lat="44.88202" lon="0.83977">
        <ele>62.8</ele>
        <time>1970-01-01T00:50:20.000Z</time>
      </trkpt>
      <trkpt lat="44.88205" lon="0.83982">
        <ele>62.8</ele>
        <time>1970-01-01T00:50:21.000Z</time>
      </trkpt>
      <trkpt lat="44.88209" lon="0.83987">
        <ele>62.8</ele>
        <time>1970-01-01T00:50:22.000Z</time>
      </trkpt>
      <trkpt lat="44.88212" lon="0.83993">
        <ele>62.8</ele>
        <time>1970-01-01T00:50:23.000Z</time>
      </trkpt>
      <trkpt lat="44.88216" lon="0.83998">
        <ele>62.8</ele>
        <time>1970-01-01T00:50:24.000Z</time>
      </trkpt>
      <trkpt lat="44.88219" lon="0.84003">
        <ele>62.8</ele>
        <time>1970-01-01T00:50:25.000Z</time>
      </trkpt>
      <trkpt lat="44.88222" lon="0.84008">
        <ele>62.9</ele>
        <time>1970-01-01T00:50:26.000Z</time>
      </trkpt>
      <trkpt lat="44.88226" lon="0.84014">
        <ele>62.9</ele>
        <time>1970-01-01T00:50:27.000Z</time>
      </trkpt>
      <trkpt lat="44.88229" lon="0.84019">
        <ele>63</ele>
        <time>1970-01-01T00:50:28.000Z</time>
      </trkpt>
      <trkpt lat="44.88233" lon="0.84024">
        <ele>63.1</ele>
        <time>1970-01-01T00:50:29.000Z</time>
      </trkpt>
      <trkpt lat="44.88236" lon="0.84028">
        <ele>63.2</ele>
        <time>1970-01-01T00:50:30.000Z</time>
      </trkpt>
      <trkpt lat="44.88239" lon="0.84032">
        <ele>63.4</ele>
        <time>1970-01-01T00:50:31.000Z</time>
      </trkpt>
      <trkpt lat="44.88242" lon="0.84036">
        <ele>63.5</ele>
        <time>1970-01-01T00:50:32.000Z</time>
      </trkpt>
      <trkpt lat="44.88246" lon="0.8404">
        <ele>63.5</ele>
        <time>1970-01-01T00:50:33.000Z</time>
      </trkpt>
      <trkpt lat="44.8825" lon="0.84042">
        <ele>63.5</ele>
        <time>1970-01-01T00:50:34.000Z</time>
      </trkpt>
      <trkpt lat="44.88254" lon="0.84044">
        <ele>63.5</ele>
        <time>1970-01-01T00:50:35.000Z</time>
      </trkpt>
      <trkpt lat="44.88258" lon="0.84044">
        <ele>63.6</ele>
        <time>1970-01-01T00:50:36.000Z</time>
      </trkpt>
      <trkpt lat="44.88262" lon="0.84044">
        <ele>63.7</ele>
        <time>1970-01-01T00:50:37.000Z</time>
      </trkpt>
      <trkpt lat="44.88266" lon="0.84044">
        <ele>63.8</ele>
        <time>1970-01-01T00:50:38.000Z</time>
      </trkpt>
      <trkpt lat="44.8827" lon="0.84046">
        <ele>64</ele>
        <time>1970-01-01T00:50:39.000Z</time>
      </trkpt>
      <trkpt lat="44.88274" lon="0.8405">
        <ele>64.1</ele>
        <time>1970-01-01T00:50:40.000Z</time>
      </trkpt>
      <trkpt lat="44.88275" lon="0.84056">
        <ele>64.3</ele>
        <time>1970-01-01T00:50:41.000Z</time>
      </trkpt>
      <trkpt lat="44.88276" lon="0.84062">
        <ele>64.4</ele>
        <time>1970-01-01T00:50:42.000Z</time>
      </trkpt>
      <trkpt lat="44.88277" lon="0.84068">
        <ele>64.6</ele>
        <time>1970-01-01T00:50:43.000Z</time>
      </trkpt>
      <trkpt lat="44.88277" lon="0.84073">
        <ele>64.8</ele>
        <time>1970-01-01T00:50:44.000Z</time>
      </trkpt>
      <trkpt lat="44.88277" lon="0.84077">
        <ele>65.1</ele>
        <time>1970-01-01T00:50:45.000Z</time>
      </trkpt>
      <trkpt lat="44.88277" lon="0.84082">
        <ele>65.4</ele>
        <time>1970-01-01T00:50:46.000Z</time>
      </trkpt>
      <trkpt lat="44.88277" lon="0.84086">
        <ele>65.7</ele>
        <time>1970-01-01T00:50:47.000Z</time>
      </trkpt>
      <trkpt lat="44.88277" lon="0.84091">
        <ele>66</ele>
        <time>1970-01-01T00:50:48.000Z</time>
      </trkpt>
      <trkpt lat="44.88278" lon="0.84095">
        <ele>66.4</ele>
        <time>1970-01-01T00:50:49.000Z</time>
      </trkpt>
      <trkpt lat="44.88278" lon="0.84099">
        <ele>66.7</ele>
        <time>1970-01-01T00:50:50.000Z</time>
      </trkpt>
      <trkpt lat="44.88279" lon="0.84103">
        <ele>67.4</ele>
        <time>1970-01-01T00:50:51.000Z</time>
      </trkpt>
      <trkpt lat="44.88279" lon="0.84106">
        <ele>67.6</ele>
        <time>1970-01-01T00:50:52.000Z</time>
      </trkpt>
      <trkpt lat="44.88279" lon="0.8411">
        <ele>67.8</ele>
        <time>1970-01-01T00:50:53.000Z</time>
      </trkpt>
      <trkpt lat="44.88279" lon="0.84113">
        <ele>68</ele>
        <time>1970-01-01T00:50:54.000Z</time>
      </trkpt>
      <trkpt lat="44.88279" lon="0.84116">
        <ele>68.2</ele>
        <time>1970-01-01T00:50:55.000Z</time>
      </trkpt>
      <trkpt lat="44.88279" lon="0.84119">
        <ele>68.5</ele>
        <time>1970-01-01T00:50:56.000Z</time>
      </trkpt>
      <trkpt lat="44.8828" lon="0.84123">
        <ele>68.7</ele>
        <time>1970-01-01T00:50:57.000Z</time>
      </trkpt>
      <trkpt lat="44.8828" lon="0.84126">
        <ele>69</ele>
        <time>1970-01-01T00:50:58.000Z</time>
      </trkpt>
      <trkpt lat="44.8828" lon="0.84129">
        <ele>69.2</ele>
        <time>1970-01-01T00:50:59.000Z</time>
      </trkpt>
      <trkpt lat="44.88281" lon="0.84132">
        <ele>69.4</ele>
        <time>1970-01-01T00:51:00.000Z</time>
      </trkpt>
      <trkpt lat="44.88281" lon="0.84135">
        <ele>69.7</ele>
        <time>1970-01-01T00:51:01.000Z</time>
      </trkpt>
      <trkpt lat="44.88282" lon="0.84137">
        <ele>69.9</ele>
        <time>1970-01-01T00:51:02.000Z</time>
      </trkpt>
      <trkpt lat="44.88283" lon="0.8414">
        <ele>70.2</ele>
        <time>1970-01-01T00:51:03.000Z</time>
      </trkpt>
      <trkpt lat="44.88284" lon="0.84143">
        <ele>70.4</ele>
        <time>1970-01-01T00:51:04.000Z</time>
      </trkpt>
      <trkpt lat="44.88286" lon="0.84145">
        <ele>70.7</ele>
        <time>1970-01-01T00:51:05.000Z</time>
      </trkpt>
      <trkpt lat="44.88287" lon="0.84148">
        <ele>70.9</ele>
        <time>1970-01-01T00:51:06.000Z</time>
      </trkpt>
      <trkpt lat="44.88288" lon="0.84151">
        <ele>71.1</ele>
        <time>1970-01-01T00:51:07.000Z</time>
      </trkpt>
      <trkpt lat="44.8829" lon="0.84154">
        <ele>71.3</ele>
        <time>1970-01-01T00:51:08.000Z</time>
      </trkpt>
      <trkpt lat="44.88291" lon="0.84157">
        <ele>71.5</ele>
        <time>1970-01-01T00:51:09.000Z</time>
      </trkpt>
      <trkpt lat="44.88293" lon="0.8416">
        <ele>71.7</ele>
        <time>1970-01-01T00:51:10.000Z</time>
      </trkpt>
      <trkpt lat="44.88294" lon="0.84162">
        <ele>71.9</ele>
        <time>1970-01-01T00:51:11.000Z</time>
      </trkpt>
      <trkpt lat="44.88296" lon="0.84165">
        <ele>72.1</ele>
        <time>1970-01-01T00:51:12.000Z</time>
      </trkpt>
      <trkpt lat="44.88298" lon="0.84169">
        <ele>72.3</ele>
        <time>1970-01-01T00:51:13.000Z</time>
      </trkpt>
      <trkpt lat="44.88299" lon="0.84172">
        <ele>72.5</ele>
        <time>1970-01-01T00:51:14.000Z</time>
      </trkpt>
      <trkpt lat="44.88301" lon="0.84175">
        <ele>72.6</ele>
        <time>1970-01-01T00:51:15.000Z</time>
      </trkpt>
      <trkpt lat="44.88303" lon="0.84178">
        <ele>72.8</ele>
        <time>1970-01-01T00:51:16.000Z</time>
      </trkpt>
      <trkpt lat="44.88305" lon="0.84181">
        <ele>72.9</ele>
        <time>1970-01-01T00:51:17.000Z</time>
      </trkpt>
      <trkpt lat="44.88306" lon="0.84184">
        <ele>73</ele>
        <time>1970-01-01T00:51:18.000Z</time>
      </trkpt>
      <trkpt lat="44.88308" lon="0.84187">
        <ele>73.1</ele>
        <time>1970-01-01T00:51:19.000Z</time>
      </trkpt>
      <trkpt lat="44.8831" lon="0.8419">
        <ele>73.2</ele>
        <time>1970-01-01T00:51:20.000Z</time>
      </trkpt>
      <trkpt lat="44.88312" lon="0.84194">
        <ele>73.3</ele>
        <time>1970-01-01T00:51:21.000Z</time>
      </trkpt>
      <trkpt lat="44.88314" lon="0.84197">
        <ele>73.4</ele>
        <time>1970-01-01T00:51:22.000Z</time>
      </trkpt>
      <trkpt lat="44.88316" lon="0.842">
        <ele>73.5</ele>
        <time>1970-01-01T00:51:23.000Z</time>
      </trkpt>
      <trkpt lat="44.88318" lon="0.84204">
        <ele>73.5</ele>
        <time>1970-01-01T00:51:24.000Z</time>
      </trkpt>
      <trkpt lat="44.8832" lon="0.84207">
        <ele>73.5</ele>
        <time>1970-01-01T00:51:25.000Z</time>
      </trkpt>
      <trkpt lat="44.88322" lon="0.8421">
        <ele>73.5</ele>
        <time>1970-01-01T00:51:26.000Z</time>
      </trkpt>
      <trkpt lat="44.88324" lon="0.84214">
        <ele>73.5</ele>
        <time>1970-01-01T00:51:27.000Z</time>
      </trkpt>
      <trkpt lat="44.88325" lon="0.84218">
        <ele>73.4</ele>
        <time>1970-01-01T00:51:28.000Z</time>
      </trkpt>
      <trkpt lat="44.88327" lon="0.84222">
        <ele>73.3</ele>
        <time>1970-01-01T00:51:29.000Z</time>
      </trkpt>
      <trkpt lat="44.88328" lon="0.84227">
        <ele>73.2</ele>
        <time>1970-01-01T00:51:30.000Z</time>
      </trkpt>
      <trkpt lat="44.88329" lon="0.84231">
        <ele>73.1</ele>
        <time>1970-01-01T00:51:31.000Z</time>
      </trkpt>
      <trkpt lat="44.8833" lon="0.84236">
        <ele>72.9</ele>
        <time>1970-01-01T00:51:32.000Z</time>
      </trkpt>
      <trkpt lat="44.88333" lon="0.8424">
        <ele>72.8</ele>
        <time>1970-01-01T00:51:33.000Z</time>
      </trkpt>
      <trkpt lat="44.88335" lon="0.84245">
        <ele>72.6</ele>
        <time>1970-01-01T00:51:34.000Z</time>
      </trkpt>
      <trkpt lat="44.88337" lon="0.84251">
        <ele>72.5</ele>
        <time>1970-01-01T00:51:35.000Z</time>
      </trkpt>
      <trkpt lat="44.88339" lon="0.84256">
        <ele>72.4</ele>
        <time>1970-01-01T00:51:36.000Z</time>
      </trkpt>
      <trkpt lat="44.88341" lon="0.84262">
        <ele>72.3</ele>
        <time>1970-01-01T00:51:37.000Z</time>
      </trkpt>
      <trkpt lat="44.88343" lon="0.84268">
        <ele>72.3</ele>
        <time>1970-01-01T00:51:38.000Z</time>
      </trkpt>
      <trkpt lat="44.88345" lon="0.84274">
        <ele>72.4</ele>
        <time>1970-01-01T00:51:39.000Z</time>
      </trkpt>
      <trkpt lat="44.88346" lon="0.84281">
        <ele>72.5</ele>
        <time>1970-01-01T00:51:40.000Z</time>
      </trkpt>
      <trkpt lat="44.88347" lon="0.84287">
        <ele>72.6</ele>
        <time>1970-01-01T00:51:41.000Z</time>
      </trkpt>
      <trkpt lat="44.88348" lon="0.84293">
        <ele>72.7</ele>
        <time>1970-01-01T00:51:42.000Z</time>
      </trkpt>
      <trkpt lat="44.88348" lon="0.84299">
        <ele>72.9</ele>
        <time>1970-01-01T00:51:43.000Z</time>
      </trkpt>
      <trkpt lat="44.88349" lon="0.84304">
        <ele>73.2</ele>
        <time>1970-01-01T00:51:44.000Z</time>
      </trkpt>
      <trkpt lat="44.88349" lon="0.84309">
        <ele>73.4</ele>
        <time>1970-01-01T00:51:45.000Z</time>
      </trkpt>
      <trkpt lat="44.88349" lon="0.84314">
        <ele>73.7</ele>
        <time>1970-01-01T00:51:46.000Z</time>
      </trkpt>
      <trkpt lat="44.88349" lon="0.84319">
        <ele>73.9</ele>
        <time>1970-01-01T00:51:47.000Z</time>
      </trkpt>
      <trkpt lat="44.88349" lon="0.84325">
        <ele>74.2</ele>
        <time>1970-01-01T00:51:48.000Z</time>
      </trkpt>
      <trkpt lat="44.88349" lon="0.8433">
        <ele>74.5</ele>
        <time>1970-01-01T00:51:49.000Z</time>
      </trkpt>
      <trkpt lat="44.88349" lon="0.84334">
        <ele>74.8</ele>
        <time>1970-01-01T00:51:50.000Z</time>
      </trkpt>
      <trkpt lat="44.8835" lon="0.84339">
        <ele>75.1</ele>
        <time>1970-01-01T00:51:51.000Z</time>
      </trkpt>
      <trkpt lat="44.88351" lon="0.84344">
        <ele>75.5</ele>
        <time>1970-01-01T00:51:52.000Z</time>
      </trkpt>
      <trkpt lat="44.88351" lon="0.84349">
        <ele>75.8</ele>
        <time>1970-01-01T00:51:53.000Z</time>
      </trkpt>
      <trkpt lat="44.88351" lon="0.84353">
        <ele>76.2</ele>
        <time>1970-01-01T00:51:54.000Z</time>
      </trkpt>
      <trkpt lat="44.88351" lon="0.84358">
        <ele>76.5</ele>
        <time>1970-01-01T00:51:55.000Z</time>
      </trkpt>
      <trkpt lat="44.88351" lon="0.84362">
        <ele>76.8</ele>
        <time>1970-01-01T00:51:56.000Z</time>
      </trkpt>
      <trkpt lat="44.88351" lon="0.84367">
        <ele>77.1</ele>
        <time>1970-01-01T00:51:57.000Z</time>
      </trkpt>
      <trkpt lat="44.88351" lon="0.84371">
        <ele>77.5</ele>
        <time>1970-01-01T00:51:58.000Z</time>
      </trkpt>
      <trkpt lat="44.88351" lon="0.84375">
        <ele>77.8</ele>
        <time>1970-01-01T00:51:59.000Z</time>
      </trkpt>
      <trkpt lat="44.88351" lon="0.84379">
        <ele>78.1</ele>
        <time>1970-01-01T00:52:00.000Z</time>
      </trkpt>
      <trkpt lat="44.8835" lon="0.84383">
        <ele>78.5</ele>
        <time>1970-01-01T00:52:01.000Z</time>
      </trkpt>
      <trkpt lat="44.88349" lon="0.84386">
        <ele>78.8</ele>
        <time>1970-01-01T00:52:02.000Z</time>
      </trkpt>
      <trkpt lat="44.88349" lon="0.8439">
        <ele>79.1</ele>
        <time>1970-01-01T00:52:03.000Z</time>
      </trkpt>
      <trkpt lat="44.88348" lon="0.84394">
        <ele>79.5</ele>
        <time>1970-01-01T00:52:04.000Z</time>
      </trkpt>
      <trkpt lat="44.88348" lon="0.84398">
        <ele>79.8</ele>
        <time>1970-01-01T00:52:05.000Z</time>
      </trkpt>
      <trkpt lat="44.88347" lon="0.84401">
        <ele>80.2</ele>
        <time>1970-01-01T00:52:06.000Z</time>
      </trkpt>
      <trkpt lat="44.88346" lon="0.84404">
        <ele>80.5</ele>
        <time>1970-01-01T00:52:07.000Z</time>
      </trkpt>
      <trkpt lat="44.88345" lon="0.84408">
        <ele>80.9</ele>
        <time>1970-01-01T00:52:08.000Z</time>
      </trkpt>
      <trkpt lat="44.88344" lon="0.84411">
        <ele>81.2</ele>
        <time>1970-01-01T00:52:09.000Z</time>
      </trkpt>
      <trkpt lat="44.88343" lon="0.84413">
        <ele>81.5</ele>
        <time>1970-01-01T00:52:10.000Z</time>
      </trkpt>
      <trkpt lat="44.88342" lon="0.84416">
        <ele>81.8</ele>
        <time>1970-01-01T00:52:11.000Z</time>
      </trkpt>
      <trkpt lat="44.88341" lon="0.84418">
        <ele>82.1</ele>
        <time>1970-01-01T00:52:12.000Z</time>
      </trkpt>
      <trkpt lat="44.8834" lon="0.84421">
        <ele>82.4</ele>
        <time>1970-01-01T00:52:13.000Z</time>
      </trkpt>
      <trkpt lat="44.8834" lon="0.84424">
        <ele>82.7</ele>
        <time>1970-01-01T00:52:14.000Z</time>
      </trkpt>
      <trkpt lat="44.88339" lon="0.84426">
        <ele>83.1</ele>
        <time>1970-01-01T00:52:15.000Z</time>
      </trkpt>
      <trkpt lat="44.88338" lon="0.84429">
        <ele>83.4</ele>
        <time>1970-01-01T00:52:16.000Z</time>
      </trkpt>
      <trkpt lat="44.88337" lon="0.84432">
        <ele>83.7</ele>
        <time>1970-01-01T00:52:17.000Z</time>
      </trkpt>
      <trkpt lat="44.88336" lon="0.84435">
        <ele>84.1</ele>
        <time>1970-01-01T00:52:18.000Z</time>
      </trkpt>
      <trkpt lat="44.88335" lon="0.84438">
        <ele>84.4</ele>
        <time>1970-01-01T00:52:19.000Z</time>
      </trkpt>
      <trkpt lat="44.88335" lon="0.84441">
        <ele>84.7</ele>
        <time>1970-01-01T00:52:20.000Z</time>
      </trkpt>
      <trkpt lat="44.88334" lon="0.84444">
        <ele>85</ele>
        <time>1970-01-01T00:52:21.000Z</time>
      </trkpt>
      <trkpt lat="44.88334" lon="0.84446">
        <ele>85.3</ele>
        <time>1970-01-01T00:52:22.000Z</time>
      </trkpt>
      <trkpt lat="44.88334" lon="0.84449">
        <ele>85.6</ele>
        <time>1970-01-01T00:52:23.000Z</time>
      </trkpt>
      <trkpt lat="44.88333" lon="0.84451">
        <ele>85.9</ele>
        <time>1970-01-01T00:52:24.000Z</time>
      </trkpt>
      <trkpt lat="44.88332" lon="0.84453">
        <ele>86.1</ele>
        <time>1970-01-01T00:52:25.000Z</time>
      </trkpt>
      <trkpt lat="44.88331" lon="0.84455">
        <ele>86.4</ele>
        <time>1970-01-01T00:52:26.000Z</time>
      </trkpt>
      <trkpt lat="44.8833" lon="0.84457">
        <ele>86.6</ele>
        <time>1970-01-01T00:52:27.000Z</time>
      </trkpt>
      <trkpt lat="44.88329" lon="0.84459">
        <ele>86.8</ele>
        <time>1970-01-01T00:52:28.000Z</time>
      </trkpt>
      <trkpt lat="44.88329" lon="0.84462">
        <ele>87.1</ele>
        <time>1970-01-01T00:52:29.000Z</time>
      </trkpt>
      <trkpt lat="44.8833" lon="0.84466">
        <ele>87.4</ele>
        <time>1970-01-01T00:52:30.000Z</time>
      </trkpt>
      <trkpt lat="44.88331" lon="0.84471">
        <ele>87.2</ele>
        <time>1970-01-01T00:52:31.000Z</time>
      </trkpt>
      <trkpt lat="44.88333" lon="0.84478">
        <ele>86.6</ele>
        <time>1970-01-01T00:52:32.000Z</time>
      </trkpt>
      <trkpt lat="44.88334" lon="0.84485">
        <ele>85.9</ele>
        <time>1970-01-01T00:52:33.000Z</time>
      </trkpt>
      <trkpt lat="44.88336" lon="0.84494">
        <ele>85.2</ele>
        <time>1970-01-01T00:52:34.000Z</time>
      </trkpt>
      <trkpt lat="44.88337" lon="0.84504">
        <ele>84.5</ele>
        <time>1970-01-01T00:52:35.000Z</time>
      </trkpt>
      <trkpt lat="44.8834" lon="0.84513">
        <ele>84.1</ele>
        <time>1970-01-01T00:52:36.000Z</time>
      </trkpt>
      <trkpt lat="44.88345" lon="0.8452">
        <ele>83.9</ele>
        <time>1970-01-01T00:52:37.000Z</time>
      </trkpt>
      <trkpt lat="44.88351" lon="0.84525">
        <ele>83.9</ele>
        <time>1970-01-01T00:52:38.000Z</time>
      </trkpt>
      <trkpt lat="44.88357" lon="0.84529">
        <ele>84.1</ele>
        <time>1970-01-01T00:52:39.000Z</time>
      </trkpt>
      <trkpt lat="44.8836" lon="0.84532">
        <ele>84.3</ele>
        <time>1970-01-01T00:52:40.000Z</time>
      </trkpt>
      <trkpt lat="44.88363" lon="0.84534">
        <ele>84.4</ele>
        <time>1970-01-01T00:52:41.000Z</time>
      </trkpt>
      <trkpt lat="44.88366" lon="0.84536">
        <ele>84.6</ele>
        <time>1970-01-01T00:52:42.000Z</time>
      </trkpt>
      <trkpt lat="44.88368" lon="0.84537">
        <ele>84.8</ele>
        <time>1970-01-01T00:52:43.000Z</time>
      </trkpt>
      <trkpt lat="44.88371" lon="0.84537">
        <ele>85</ele>
        <time>1970-01-01T00:52:44.000Z</time>
      </trkpt>
      <trkpt lat="44.88374" lon="0.84536">
        <ele>85.3</ele>
        <time>1970-01-01T00:52:45.000Z</time>
      </trkpt>
      <trkpt lat="44.88377" lon="0.84535">
        <ele>85.5</ele>
        <time>1970-01-01T00:52:46.000Z</time>
      </trkpt>
      <trkpt lat="44.88379" lon="0.84534">
        <ele>85.8</ele>
        <time>1970-01-01T00:52:47.000Z</time>
      </trkpt>
      <trkpt lat="44.88381" lon="0.84532">
        <ele>86</ele>
        <time>1970-01-01T00:52:48.000Z</time>
      </trkpt>
      <trkpt lat="44.88383" lon="0.8453">
        <ele>86.2</ele>
        <time>1970-01-01T00:52:49.000Z</time>
      </trkpt>
      <trkpt lat="44.88385" lon="0.84528">
        <ele>86.5</ele>
        <time>1970-01-01T00:52:50.000Z</time>
      </trkpt>
      <trkpt lat="44.88387" lon="0.84526">
        <ele>86.7</ele>
        <time>1970-01-01T00:52:51.000Z</time>
      </trkpt>
      <trkpt lat="44.88389" lon="0.84523">
        <ele>87</ele>
        <time>1970-01-01T00:52:52.000Z</time>
      </trkpt>
      <trkpt lat="44.88391" lon="0.8452">
        <ele>87.3</ele>
        <time>1970-01-01T00:52:53.000Z</time>
      </trkpt>
      <trkpt lat="44.88393" lon="0.84518">
        <ele>87.6</ele>
        <time>1970-01-01T00:52:54.000Z</time>
      </trkpt>
      <trkpt lat="44.88394" lon="0.84515">
        <ele>87.9</ele>
        <time>1970-01-01T00:52:55.000Z</time>
      </trkpt>
      <trkpt lat="44.88396" lon="0.84513">
        <ele>88.2</ele>
        <time>1970-01-01T00:52:56.000Z</time>
      </trkpt>
      <trkpt lat="44.88397" lon="0.8451">
        <ele>88.5</ele>
        <time>1970-01-01T00:52:57.000Z</time>
      </trkpt>
      <trkpt lat="44.88398" lon="0.84507">
        <ele>88.8</ele>
        <time>1970-01-01T00:52:58.000Z</time>
      </trkpt>
      <trkpt lat="44.88399" lon="0.84505">
        <ele>89.1</ele>
        <time>1970-01-01T00:52:59.000Z</time>
      </trkpt>
      <trkpt lat="44.88401" lon="0.84502">
        <ele>89.4</ele>
        <time>1970-01-01T00:53:00.000Z</time>
      </trkpt>
      <trkpt lat="44.88402" lon="0.845">
        <ele>89.7</ele>
        <time>1970-01-01T00:53:01.000Z</time>
      </trkpt>
      <trkpt lat="44.88403" lon="0.84497">
        <ele>90.1</ele>
        <time>1970-01-01T00:53:02.000Z</time>
      </trkpt>
      <trkpt lat="44.88404" lon="0.84494">
        <ele>90.4</ele>
        <time>1970-01-01T00:53:03.000Z</time>
      </trkpt>
      <trkpt lat="44.88404" lon="0.84491">
        <ele>90.7</ele>
        <time>1970-01-01T00:53:04.000Z</time>
      </trkpt>
      <trkpt lat="44.88405" lon="0.84488">
        <ele>91</ele>
        <time>1970-01-01T00:53:05.000Z</time>
      </trkpt>
      <trkpt lat="44.88406" lon="0.84485">
        <ele>91.4</ele>
        <time>1970-01-01T00:53:06.000Z</time>
      </trkpt>
      <trkpt lat="44.88407" lon="0.84482">
        <ele>91.7</ele>
        <time>1970-01-01T00:53:07.000Z</time>
      </trkpt>
      <trkpt lat="44.88408" lon="0.8448">
        <ele>91.9</ele>
        <time>1970-01-01T00:53:08.000Z</time>
      </trkpt>
      <trkpt lat="44.88409" lon="0.84477">
        <ele>92.2</ele>
        <time>1970-01-01T00:53:09.000Z</time>
      </trkpt>
      <trkpt lat="44.88411" lon="0.84475">
        <ele>92.5</ele>
        <time>1970-01-01T00:53:10.000Z</time>
      </trkpt>
      <trkpt lat="44.88412" lon="0.84473">
        <ele>92.8</ele>
        <time>1970-01-01T00:53:11.000Z</time>
      </trkpt>
      <trkpt lat="44.88413" lon="0.8447">
        <ele>93.1</ele>
        <time>1970-01-01T00:53:12.000Z</time>
      </trkpt>
      <trkpt lat="44.88414" lon="0.84468">
        <ele>93.4</ele>
        <time>1970-01-01T00:53:13.000Z</time>
      </trkpt>
      <trkpt lat="44.88415" lon="0.84466">
        <ele>93.7</ele>
        <time>1970-01-01T00:53:14.000Z</time>
      </trkpt>
      <trkpt lat="44.88416" lon="0.84463">
        <ele>94</ele>
        <time>1970-01-01T00:53:15.000Z</time>
      </trkpt>
      <trkpt lat="44.88417" lon="0.84461">
        <ele>94.3</ele>
        <time>1970-01-01T00:53:16.000Z</time>
      </trkpt>
      <trkpt lat="44.88418" lon="0.84458">
        <ele>94.6</ele>
        <time>1970-01-01T00:53:17.000Z</time>
      </trkpt>
      <trkpt lat="44.8842" lon="0.84456">
        <ele>94.9</ele>
        <time>1970-01-01T00:53:18.000Z</time>
      </trkpt>
      <trkpt lat="44.88421" lon="0.84454">
        <ele>95.2</ele>
        <time>1970-01-01T00:53:19.000Z</time>
      </trkpt>
      <trkpt lat="44.88422" lon="0.84452">
        <ele>95.4</ele>
        <time>1970-01-01T00:53:20.000Z</time>
      </trkpt>
      <trkpt lat="44.88424" lon="0.8445">
        <ele>95.7</ele>
        <time>1970-01-01T00:53:21.000Z</time>
      </trkpt>
      <trkpt lat="44.88425" lon="0.84448">
        <ele>96</ele>
        <time>1970-01-01T00:53:22.000Z</time>
      </trkpt>
      <trkpt lat="44.88426" lon="0.84447">
        <ele>96.2</ele>
        <time>1970-01-01T00:53:23.000Z</time>
      </trkpt>
      <trkpt lat="44.88428" lon="0.84446">
        <ele>96.5</ele>
        <time>1970-01-01T00:53:24.000Z</time>
      </trkpt>
      <trkpt lat="44.8843" lon="0.84445">
        <ele>96.7</ele>
        <time>1970-01-01T00:53:25.000Z</time>
      </trkpt>
      <trkpt lat="44.88432" lon="0.84444">
        <ele>97</ele>
        <time>1970-01-01T00:53:26.000Z</time>
      </trkpt>
      <trkpt lat="44.88434" lon="0.84443">
        <ele>97.3</ele>
        <time>1970-01-01T00:53:27.000Z</time>
      </trkpt>
      <trkpt lat="44.88436" lon="0.84442">
        <ele>97.5</ele>
        <time>1970-01-01T00:53:28.000Z</time>
      </trkpt>
      <trkpt lat="44.88438" lon="0.84441">
        <ele>97.8</ele>
        <time>1970-01-01T00:53:29.000Z</time>
      </trkpt>
      <trkpt lat="44.8844" lon="0.84441">
        <ele>98</ele>
        <time>1970-01-01T00:53:30.000Z</time>
      </trkpt>
      <trkpt lat="44.88442" lon="0.84441">
        <ele>98.4</ele>
        <time>1970-01-01T00:53:31.000Z</time>
      </trkpt>
      <trkpt lat="44.88444" lon="0.8444">
        <ele>98.6</ele>
        <time>1970-01-01T00:53:32.000Z</time>
      </trkpt>
      <trkpt lat="44.88446" lon="0.8444">
        <ele>98.9</ele>
        <time>1970-01-01T00:53:33.000Z</time>
      </trkpt>
      <trkpt lat="44.88448" lon="0.8444">
        <ele>99.2</ele>
        <time>1970-01-01T00:53:34.000Z</time>
      </trkpt>
      <trkpt lat="44.8845" lon="0.8444">
        <ele>99.6</ele>
        <time>1970-01-01T00:53:35.000Z</time>
      </trkpt>
      <trkpt lat="44.88452" lon="0.8444">
        <ele>99.9</ele>
        <time>1970-01-01T00:53:36.000Z</time>
      </trkpt>
      <trkpt lat="44.88454" lon="0.8444">
        <ele>100.2</ele>
        <time>1970-01-01T00:53:37.000Z</time>
      </trkpt>
      <trkpt lat="44.88456" lon="0.84439">
        <ele>100.5</ele>
        <time>1970-01-01T00:53:38.000Z</time>
      </trkpt>
      <trkpt lat="44.88459" lon="0.84439">
        <ele>100.9</ele>
        <time>1970-01-01T00:53:39.000Z</time>
      </trkpt>
      <trkpt lat="44.88461" lon="0.8444">
        <ele>101.2</ele>
        <time>1970-01-01T00:53:40.000Z</time>
      </trkpt>
      <trkpt lat="44.88462" lon="0.8444">
        <ele>101.4</ele>
        <time>1970-01-01T00:53:41.000Z</time>
      </trkpt>
      <trkpt lat="44.88465" lon="0.8444">
        <ele>101.8</ele>
        <time>1970-01-01T00:53:42.000Z</time>
      </trkpt>
      <trkpt lat="44.88467" lon="0.8444">
        <ele>102.1</ele>
        <time>1970-01-01T00:53:43.000Z</time>
      </trkpt>
      <trkpt lat="44.88469" lon="0.8444">
        <ele>102.4</ele>
        <time>1970-01-01T00:53:44.000Z</time>
      </trkpt>
      <trkpt lat="44.88471" lon="0.84439">
        <ele>102.7</ele>
        <time>1970-01-01T00:53:45.000Z</time>
      </trkpt>
      <trkpt lat="44.88473" lon="0.84439">
        <ele>103</ele>
        <time>1970-01-01T00:53:46.000Z</time>
      </trkpt>
      <trkpt lat="44.88475" lon="0.84439">
        <ele>103.3</ele>
        <time>1970-01-01T00:53:47.000Z</time>
      </trkpt>
      <trkpt lat="44.88477" lon="0.84438">
        <ele>103.6</ele>
        <time>1970-01-01T00:53:48.000Z</time>
      </trkpt>
      <trkpt lat="44.88479" lon="0.84438">
        <ele>103.9</ele>
        <time>1970-01-01T00:53:49.000Z</time>
      </trkpt>
      <trkpt lat="44.88481" lon="0.84438">
        <ele>104.1</ele>
        <time>1970-01-01T00:53:50.000Z</time>
      </trkpt>
      <trkpt lat="44.88483" lon="0.84437">
        <ele>104.4</ele>
        <time>1970-01-01T00:53:51.000Z</time>
      </trkpt>
      <trkpt lat="44.88485" lon="0.84437">
        <ele>104.7</ele>
        <time>1970-01-01T00:53:52.000Z</time>
      </trkpt>
      <trkpt lat="44.88487" lon="0.84437">
        <ele>105</ele>
        <time>1970-01-01T00:53:53.000Z</time>
      </trkpt>
      <trkpt lat="44.88489" lon="0.84437">
        <ele>105.2</ele>
        <time>1970-01-01T00:53:54.000Z</time>
      </trkpt>
      <trkpt lat="44.88491" lon="0.84437">
        <ele>105.4</ele>
        <time>1970-01-01T00:53:55.000Z</time>
      </trkpt>
      <trkpt lat="44.88493" lon="0.84437">
        <ele>105.7</ele>
        <time>1970-01-01T00:53:56.000Z</time>
      </trkpt>
      <trkpt lat="44.88495" lon="0.84437">
        <ele>105.9</ele>
        <time>1970-01-01T00:53:57.000Z</time>
      </trkpt>
      <trkpt lat="44.88497" lon="0.84438">
        <ele>106.2</ele>
        <time>1970-01-01T00:53:58.000Z</time>
      </trkpt>
      <trkpt lat="44.885" lon="0.84438">
        <ele>106.5</ele>
        <time>1970-01-01T00:53:59.000Z</time>
      </trkpt>
      <trkpt lat="44.88502" lon="0.84438">
        <ele>106.7</ele>
        <time>1970-01-01T00:54:00.000Z</time>
      </trkpt>
      <trkpt lat="44.88504" lon="0.84438">
        <ele>106.9</ele>
        <time>1970-01-01T00:54:01.000Z</time>
      </trkpt>
      <trkpt lat="44.88506" lon="0.84439">
        <ele>107.2</ele>
        <time>1970-01-01T00:54:02.000Z</time>
      </trkpt>
      <trkpt lat="44.88508" lon="0.84439">
        <ele>107.4</ele>
        <time>1970-01-01T00:54:03.000Z</time>
      </trkpt>
      <trkpt lat="44.8851" lon="0.84439">
        <ele>107.7</ele>
        <time>1970-01-01T00:54:04.000Z</time>
      </trkpt>
      <trkpt lat="44.88512" lon="0.84439">
        <ele>107.9</ele>
        <time>1970-01-01T00:54:05.000Z</time>
      </trkpt>
      <trkpt lat="44.88514" lon="0.84439">
        <ele>108.2</ele>
        <time>1970-01-01T00:54:06.000Z</time>
      </trkpt>
      <trkpt lat="44.88517" lon="0.84439">
        <ele>108.4</ele>
        <time>1970-01-01T00:54:07.000Z</time>
      </trkpt>
      <trkpt lat="44.88519" lon="0.84439">
        <ele>108.7</ele>
        <time>1970-01-01T00:54:08.000Z</time>
      </trkpt>
      <trkpt lat="44.88521" lon="0.84439">
        <ele>108.9</ele>
        <time>1970-01-01T00:54:09.000Z</time>
      </trkpt>
      <trkpt lat="44.88524" lon="0.8444">
        <ele>109.2</ele>
        <time>1970-01-01T00:54:10.000Z</time>
      </trkpt>
      <trkpt lat="44.88526" lon="0.8444">
        <ele>109.4</ele>
        <time>1970-01-01T00:54:11.000Z</time>
      </trkpt>
      <trkpt lat="44.88528" lon="0.8444">
        <ele>109.6</ele>
        <time>1970-01-01T00:54:12.000Z</time>
      </trkpt>
      <trkpt lat="44.8853" lon="0.8444">
        <ele>109.9</ele>
        <time>1970-01-01T00:54:13.000Z</time>
      </trkpt>
      <trkpt lat="44.88533" lon="0.84441">
        <ele>110.1</ele>
        <time>1970-01-01T00:54:14.000Z</time>
      </trkpt>
      <trkpt lat="44.88535" lon="0.84441">
        <ele>110.4</ele>
        <time>1970-01-01T00:54:15.000Z</time>
      </trkpt>
      <trkpt lat="44.88537" lon="0.84442">
        <ele>110.6</ele>
        <time>1970-01-01T00:54:16.000Z</time>
      </trkpt>
      <trkpt lat="44.8854" lon="0.84443">
        <ele>110.8</ele>
        <time>1970-01-01T00:54:17.000Z</time>
      </trkpt>
      <trkpt lat="44.88542" lon="0.84444">
        <ele>111.1</ele>
        <time>1970-01-01T00:54:18.000Z</time>
      </trkpt>
      <trkpt lat="44.88544" lon="0.84446">
        <ele>111.3</ele>
        <time>1970-01-01T00:54:19.000Z</time>
      </trkpt>
      <trkpt lat="44.88547" lon="0.84447">
        <ele>111.5</ele>
        <time>1970-01-01T00:54:20.000Z</time>
      </trkpt>
      <trkpt lat="44.88549" lon="0.84449">
        <ele>111.7</ele>
        <time>1970-01-01T00:54:21.000Z</time>
      </trkpt>
      <trkpt lat="44.88551" lon="0.84452">
        <ele>111.8</ele>
        <time>1970-01-01T00:54:22.000Z</time>
      </trkpt>
      <trkpt lat="44.88553" lon="0.84454">
        <ele>112</ele>
        <time>1970-01-01T00:54:23.000Z</time>
      </trkpt>
      <trkpt lat="44.88555" lon="0.84455">
        <ele>112.2</ele>
        <time>1970-01-01T00:54:24.000Z</time>
      </trkpt>
      <trkpt lat="44.88557" lon="0.84458">
        <ele>112.3</ele>
        <time>1970-01-01T00:54:25.000Z</time>
      </trkpt>
      <trkpt lat="44.8856" lon="0.8446">
        <ele>112.4</ele>
        <time>1970-01-01T00:54:26.000Z</time>
      </trkpt>
      <trkpt lat="44.88562" lon="0.84462">
        <ele>112.6</ele>
        <time>1970-01-01T00:54:27.000Z</time>
      </trkpt>
      <trkpt lat="44.88564" lon="0.84464">
        <ele>112.7</ele>
        <time>1970-01-01T00:54:28.000Z</time>
      </trkpt>
      <trkpt lat="44.88567" lon="0.84466">
        <ele>112.9</ele>
        <time>1970-01-01T00:54:29.000Z</time>
      </trkpt>
      <trkpt lat="44.88569" lon="0.84468">
        <ele>113</ele>
        <time>1970-01-01T00:54:30.000Z</time>
      </trkpt>
      <trkpt lat="44.88572" lon="0.84471">
        <ele>113.1</ele>
        <time>1970-01-01T00:54:31.000Z</time>
      </trkpt>
      <trkpt lat="44.88575" lon="0.84473">
        <ele>113.2</ele>
        <time>1970-01-01T00:54:32.000Z</time>
      </trkpt>
      <trkpt lat="44.88577" lon="0.84476">
        <ele>113.3</ele>
        <time>1970-01-01T00:54:33.000Z</time>
      </trkpt>
      <trkpt lat="44.8858" lon="0.84479">
        <ele>113.4</ele>
        <time>1970-01-01T00:54:34.000Z</time>
      </trkpt>
      <trkpt lat="44.88583" lon="0.84482">
        <ele>113.4</ele>
        <time>1970-01-01T00:54:35.000Z</time>
      </trkpt>
      <trkpt lat="44.88585" lon="0.84485">
        <ele>113.5</ele>
        <time>1970-01-01T00:54:36.000Z</time>
      </trkpt>
      <trkpt lat="44.88588" lon="0.84489">
        <ele>113.5</ele>
        <time>1970-01-01T00:54:37.000Z</time>
      </trkpt>
      <trkpt lat="44.88591" lon="0.84493">
        <ele>113.5</ele>
        <time>1970-01-01T00:54:38.000Z</time>
      </trkpt>
      <trkpt lat="44.88593" lon="0.84497">
        <ele>113.5</ele>
        <time>1970-01-01T00:54:39.000Z</time>
      </trkpt>
      <trkpt lat="44.88595" lon="0.84503">
        <ele>113.5</ele>
        <time>1970-01-01T00:54:40.000Z</time>
      </trkpt>
      <trkpt lat="44.88598" lon="0.84508">
        <ele>113.5</ele>
        <time>1970-01-01T00:54:41.000Z</time>
      </trkpt>
      <trkpt lat="44.886" lon="0.84513">
        <ele>113.6</ele>
        <time>1970-01-01T00:54:42.000Z</time>
      </trkpt>
      <trkpt lat="44.88602" lon="0.84518">
        <ele>113.6</ele>
        <time>1970-01-01T00:54:43.000Z</time>
      </trkpt>
      <trkpt lat="44.88603" lon="0.84522">
        <ele>113.6</ele>
        <time>1970-01-01T00:54:44.000Z</time>
      </trkpt>
      <trkpt lat="44.88604" lon="0.84526">
        <ele>113.6</ele>
        <time>1970-01-01T00:54:45.000Z</time>
      </trkpt>
      <trkpt lat="44.88605" lon="0.8453">
        <ele>113.6</ele>
        <time>1970-01-01T00:54:46.000Z</time>
      </trkpt>
      <trkpt lat="44.88606" lon="0.84533">
        <ele>113.6</ele>
        <time>1970-01-01T00:54:47.000Z</time>
      </trkpt>
      <trkpt lat="44.88607" lon="0.84536">
        <ele>113.6</ele>
        <time>1970-01-01T00:54:48.000Z</time>
      </trkpt>
      <trkpt lat="44.88608" lon="0.84539">
        <ele>113.6</ele>
        <time>1970-01-01T00:54:49.000Z</time>
      </trkpt>
      <trkpt lat="44.88608" lon="0.84542">
        <ele>113.6</ele>
        <time>1970-01-01T00:54:50.000Z</time>
      </trkpt>
      <trkpt lat="44.88608" lon="0.84545">
        <ele>113.6</ele>
        <time>1970-01-01T00:54:51.000Z</time>
      </trkpt>
      <trkpt lat="44.88608" lon="0.84548">
        <ele>113.6</ele>
        <time>1970-01-01T00:54:52.000Z</time>
      </trkpt>
      <trkpt lat="44.88608" lon="0.84551">
        <ele>113.6</ele>
        <time>1970-01-01T00:54:53.000Z</time>
      </trkpt>
      <trkpt lat="44.88608" lon="0.84554">
        <ele>113.6</ele>
        <time>1970-01-01T00:54:54.000Z</time>
      </trkpt>
      <trkpt lat="44.88608" lon="0.84558">
        <ele>113.6</ele>
        <time>1970-01-01T00:54:55.000Z</time>
      </trkpt>
      <trkpt lat="44.88608" lon="0.84562">
        <ele>113.7</ele>
        <time>1970-01-01T00:54:56.000Z</time>
      </trkpt>
      <trkpt lat="44.88608" lon="0.84565">
        <ele>113.7</ele>
        <time>1970-01-01T00:54:57.000Z</time>
      </trkpt>
      <trkpt lat="44.88607" lon="0.84568">
        <ele>113.7</ele>
        <time>1970-01-01T00:54:58.000Z</time>
      </trkpt>
      <trkpt lat="44.88607" lon="0.84572">
        <ele>113.8</ele>
        <time>1970-01-01T00:54:59.000Z</time>
      </trkpt>
      <trkpt lat="44.88606" lon="0.84575">
        <ele>113.8</ele>
        <time>1970-01-01T00:55:00.000Z</time>
      </trkpt>
      <trkpt lat="44.88606" lon="0.84579">
        <ele>113.9</ele>
        <time>1970-01-01T00:55:01.000Z</time>
      </trkpt>
      <trkpt lat="44.88605" lon="0.84582">
        <ele>113.9</ele>
        <time>1970-01-01T00:55:02.000Z</time>
      </trkpt>
      <trkpt lat="44.88605" lon="0.84586">
        <ele>114</ele>
        <time>1970-01-01T00:55:03.000Z</time>
      </trkpt>
      <trkpt lat="44.88605" lon="0.84589">
        <ele>114.1</ele>
        <time>1970-01-01T00:55:04.000Z</time>
      </trkpt>
      <trkpt lat="44.88605" lon="0.84593">
        <ele>114.1</ele>
        <time>1970-01-01T00:55:05.000Z</time>
      </trkpt>
      <trkpt lat="44.88606" lon="0.84596">
        <ele>114.2</ele>
        <time>1970-01-01T00:55:06.000Z</time>
      </trkpt>
      <trkpt lat="44.88607" lon="0.84599">
        <ele>114.3</ele>
        <time>1970-01-01T00:55:07.000Z</time>
      </trkpt>
      <trkpt lat="44.88607" lon="0.84603">
        <ele>114.3</ele>
        <time>1970-01-01T00:55:08.000Z</time>
      </trkpt>
      <trkpt lat="44.88607" lon="0.84607">
        <ele>114.4</ele>
        <time>1970-01-01T00:55:09.000Z</time>
      </trkpt>
      <trkpt lat="44.88607" lon="0.8461">
        <ele>114.4</ele>
        <time>1970-01-01T00:55:10.000Z</time>
      </trkpt>
      <trkpt lat="44.88607" lon="0.84614">
        <ele>114.5</ele>
        <time>1970-01-01T00:55:11.000Z</time>
      </trkpt>
      <trkpt lat="44.88607" lon="0.84617">
        <ele>114.5</ele>
        <time>1970-01-01T00:55:12.000Z</time>
      </trkpt>
      <trkpt lat="44.88607" lon="0.84621">
        <ele>114.6</ele>
        <time>1970-01-01T00:55:13.000Z</time>
      </trkpt>
      <trkpt lat="44.88607" lon="0.84625">
        <ele>114.6</ele>
        <time>1970-01-01T00:55:14.000Z</time>
      </trkpt>
      <trkpt lat="44.88608" lon="0.84629">
        <ele>114.7</ele>
        <time>1970-01-01T00:55:15.000Z</time>
      </trkpt>
      <trkpt lat="44.88608" lon="0.84633">
        <ele>114.8</ele>
        <time>1970-01-01T00:55:16.000Z</time>
      </trkpt>
      <trkpt lat="44.88609" lon="0.84637">
        <ele>114.8</ele>
        <time>1970-01-01T00:55:17.000Z</time>
      </trkpt>
      <trkpt lat="44.88609" lon="0.84641">
        <ele>114.9</ele>
        <time>1970-01-01T00:55:18.000Z</time>
      </trkpt>
      <trkpt lat="44.88609" lon="0.84644">
        <ele>114.9</ele>
        <time>1970-01-01T00:55:19.000Z</time>
      </trkpt>
      <trkpt lat="44.88609" lon="0.84648">
        <ele>115</ele>
        <time>1970-01-01T00:55:20.000Z</time>
      </trkpt>
      <trkpt lat="44.8861" lon="0.84652">
        <ele>115</ele>
        <time>1970-01-01T00:55:21.000Z</time>
      </trkpt>
      <trkpt lat="44.8861" lon="0.84655">
        <ele>115.1</ele>
        <time>1970-01-01T00:55:22.000Z</time>
      </trkpt>
      <trkpt lat="44.8861" lon="0.84659">
        <ele>115.2</ele>
        <time>1970-01-01T00:55:23.000Z</time>
      </trkpt>
      <trkpt lat="44.88611" lon="0.84663">
        <ele>115.2</ele>
        <time>1970-01-01T00:55:24.000Z</time>
      </trkpt>
      <trkpt lat="44.88611" lon="0.84666">
        <ele>115.3</ele>
        <time>1970-01-01T00:55:25.000Z</time>
      </trkpt>
      <trkpt lat="44.88611" lon="0.8467">
        <ele>115.3</ele>
        <time>1970-01-01T00:55:26.000Z</time>
      </trkpt>
      <trkpt lat="44.88612" lon="0.84673">
        <ele>115.4</ele>
        <time>1970-01-01T00:55:27.000Z</time>
      </trkpt>
      <trkpt lat="44.88613" lon="0.84677">
        <ele>115.5</ele>
        <time>1970-01-01T00:55:28.000Z</time>
      </trkpt>
      <trkpt lat="44.88614" lon="0.8468">
        <ele>115.6</ele>
        <time>1970-01-01T00:55:29.000Z</time>
      </trkpt>
      <trkpt lat="44.88615" lon="0.84684">
        <ele>115.7</ele>
        <time>1970-01-01T00:55:30.000Z</time>
      </trkpt>
      <trkpt lat="44.88616" lon="0.84687">
        <ele>115.7</ele>
        <time>1970-01-01T00:55:31.000Z</time>
      </trkpt>
      <trkpt lat="44.88616" lon="0.84691">
        <ele>115.8</ele>
        <time>1970-01-01T00:55:32.000Z</time>
      </trkpt>
      <trkpt lat="44.88617" lon="0.84694">
        <ele>115.9</ele>
        <time>1970-01-01T00:55:33.000Z</time>
      </trkpt>
      <trkpt lat="44.88618" lon="0.84698">
        <ele>116</ele>
        <time>1970-01-01T00:55:34.000Z</time>
      </trkpt>
      <trkpt lat="44.88619" lon="0.84701">
        <ele>116</ele>
        <time>1970-01-01T00:55:35.000Z</time>
      </trkpt>
      <trkpt lat="44.88619" lon="0.84704">
        <ele>116.1</ele>
        <time>1970-01-01T00:55:36.000Z</time>
      </trkpt>
      <trkpt lat="44.8862" lon="0.84708">
        <ele>116.2</ele>
        <time>1970-01-01T00:55:37.000Z</time>
      </trkpt>
      <trkpt lat="44.88622" lon="0.84711">
        <ele>116.3</ele>
        <time>1970-01-01T00:55:38.000Z</time>
      </trkpt>
      <trkpt lat="44.88623" lon="0.84715">
        <ele>116.4</ele>
        <time>1970-01-01T00:55:39.000Z</time>
      </trkpt>
      <trkpt lat="44.88624" lon="0.84719">
        <ele>116.4</ele>
        <time>1970-01-01T00:55:40.000Z</time>
      </trkpt>
      <trkpt lat="44.88625" lon="0.84722">
        <ele>116.5</ele>
        <time>1970-01-01T00:55:41.000Z</time>
      </trkpt>
      <trkpt lat="44.88626" lon="0.84726">
        <ele>116.6</ele>
        <time>1970-01-01T00:55:42.000Z</time>
      </trkpt>
      <trkpt lat="44.88627" lon="0.84729">
        <ele>116.7</ele>
        <time>1970-01-01T00:55:43.000Z</time>
      </trkpt>
      <trkpt lat="44.88629" lon="0.84733">
        <ele>116.8</ele>
        <time>1970-01-01T00:55:44.000Z</time>
      </trkpt>
      <trkpt lat="44.88631" lon="0.84736">
        <ele>117</ele>
        <time>1970-01-01T00:55:45.000Z</time>
      </trkpt>
      <trkpt lat="44.88633" lon="0.8474">
        <ele>117.1</ele>
        <time>1970-01-01T00:55:46.000Z</time>
      </trkpt>
      <trkpt lat="44.88635" lon="0.84743">
        <ele>117.2</ele>
        <time>1970-01-01T00:55:47.000Z</time>
      </trkpt>
      <trkpt lat="44.88636" lon="0.84747">
        <ele>117.4</ele>
        <time>1970-01-01T00:55:48.000Z</time>
      </trkpt>
      <trkpt lat="44.88638" lon="0.84751">
        <ele>117.5</ele>
        <time>1970-01-01T00:55:49.000Z</time>
      </trkpt>
      <trkpt lat="44.88639" lon="0.84754">
        <ele>117.7</ele>
        <time>1970-01-01T00:55:50.000Z</time>
      </trkpt>
      <trkpt lat="44.88641" lon="0.84758">
        <ele>117.8</ele>
        <time>1970-01-01T00:55:51.000Z</time>
      </trkpt>
      <trkpt lat="44.88643" lon="0.84761">
        <ele>117.9</ele>
        <time>1970-01-01T00:55:52.000Z</time>
      </trkpt>
      <trkpt lat="44.88644" lon="0.84764">
        <ele>118</ele>
        <time>1970-01-01T00:55:53.000Z</time>
      </trkpt>
      <trkpt lat="44.88646" lon="0.84767">
        <ele>118.2</ele>
        <time>1970-01-01T00:55:54.000Z</time>
      </trkpt>
      <trkpt lat="44.88648" lon="0.8477">
        <ele>118.3</ele>
        <time>1970-01-01T00:55:55.000Z</time>
      </trkpt>
      <trkpt lat="44.8865" lon="0.84773">
        <ele>118.5</ele>
        <time>1970-01-01T00:55:56.000Z</time>
      </trkpt>
      <trkpt lat="44.88651" lon="0.84776">
        <ele>118.6</ele>
        <time>1970-01-01T00:55:57.000Z</time>
      </trkpt>
      <trkpt lat="44.88653" lon="0.8478">
        <ele>118.8</ele>
        <time>1970-01-01T00:55:58.000Z</time>
      </trkpt>
      <trkpt lat="44.88655" lon="0.84784">
        <ele>119</ele>
        <time>1970-01-01T00:55:59.000Z</time>
      </trkpt>
      <trkpt lat="44.88657" lon="0.84787">
        <ele>119.2</ele>
        <time>1970-01-01T00:56:00.000Z</time>
      </trkpt>
      <trkpt lat="44.88659" lon="0.8479">
        <ele>119.4</ele>
        <time>1970-01-01T00:56:01.000Z</time>
      </trkpt>
      <trkpt lat="44.88661" lon="0.84794">
        <ele>119.7</ele>
        <time>1970-01-01T00:56:02.000Z</time>
      </trkpt>
      <trkpt lat="44.88664" lon="0.84797">
        <ele>119.9</ele>
        <time>1970-01-01T00:56:03.000Z</time>
      </trkpt>
      <trkpt lat="44.88667" lon="0.84801">
        <ele>120.2</ele>
        <time>1970-01-01T00:56:04.000Z</time>
      </trkpt>
      <trkpt lat="44.88669" lon="0.84804">
        <ele>120.4</ele>
        <time>1970-01-01T00:56:05.000Z</time>
      </trkpt>
      <trkpt lat="44.88671" lon="0.84807">
        <ele>120.6</ele>
        <time>1970-01-01T00:56:06.000Z</time>
      </trkpt>
      <trkpt lat="44.88672" lon="0.8481">
        <ele>120.8</ele>
        <time>1970-01-01T00:56:07.000Z</time>
      </trkpt>
      <trkpt lat="44.88674" lon="0.84813">
        <ele>121</ele>
        <time>1970-01-01T00:56:08.000Z</time>
      </trkpt>
      <trkpt lat="44.88675" lon="0.84816">
        <ele>121.2</ele>
        <time>1970-01-01T00:56:09.000Z</time>
      </trkpt>
      <trkpt lat="44.88677" lon="0.84818">
        <ele>121.4</ele>
        <time>1970-01-01T00:56:10.000Z</time>
      </trkpt>
      <trkpt lat="44.88678" lon="0.84821">
        <ele>121.6</ele>
        <time>1970-01-01T00:56:11.000Z</time>
      </trkpt>
      <trkpt lat="44.88679" lon="0.84824">
        <ele>121.8</ele>
        <time>1970-01-01T00:56:12.000Z</time>
      </trkpt>
      <trkpt lat="44.88681" lon="0.84827">
        <ele>122</ele>
        <time>1970-01-01T00:56:13.000Z</time>
      </trkpt>
      <trkpt lat="44.88682" lon="0.84829">
        <ele>122.2</ele>
        <time>1970-01-01T00:56:14.000Z</time>
      </trkpt>
      <trkpt lat="44.88684" lon="0.84832">
        <ele>122.5</ele>
        <time>1970-01-01T00:56:15.000Z</time>
      </trkpt>
      <trkpt lat="44.88686" lon="0.84834">
        <ele>122.7</ele>
        <time>1970-01-01T00:56:16.000Z</time>
      </trkpt>
      <trkpt lat="44.88689" lon="0.84835">
        <ele>123</ele>
        <time>1970-01-01T00:56:17.000Z</time>
      </trkpt>
      <trkpt lat="44.8869" lon="0.84837">
        <ele>123.2</ele>
        <time>1970-01-01T00:56:18.000Z</time>
      </trkpt>
      <trkpt lat="44.88692" lon="0.84838">
        <ele>123.4</ele>
        <time>1970-01-01T00:56:19.000Z</time>
      </trkpt>
      <trkpt lat="44.88694" lon="0.84839">
        <ele>123.6</ele>
        <time>1970-01-01T00:56:20.000Z</time>
      </trkpt>
      <trkpt lat="44.88696" lon="0.8484">
        <ele>123.9</ele>
        <time>1970-01-01T00:56:21.000Z</time>
      </trkpt>
      <trkpt lat="44.88698" lon="0.84842">
        <ele>124.1</ele>
        <time>1970-01-01T00:56:22.000Z</time>
      </trkpt>
      <trkpt lat="44.88699" lon="0.84843">
        <ele>124.3</ele>
        <time>1970-01-01T00:56:23.000Z</time>
      </trkpt>
      <trkpt lat="44.88701" lon="0.84844">
        <ele>124.5</ele>
        <time>1970-01-01T00:56:24.000Z</time>
      </trkpt>
      <trkpt lat="44.88703" lon="0.84845">
        <ele>124.8</ele>
        <time>1970-01-01T00:56:25.000Z</time>
      </trkpt>
      <trkpt lat="44.88705" lon="0.84845">
        <ele>125</ele>
        <time>1970-01-01T00:56:26.000Z</time>
      </trkpt>
      <trkpt lat="44.88706" lon="0.84846">
        <ele>125.2</ele>
        <time>1970-01-01T00:56:27.000Z</time>
      </trkpt>
      <trkpt lat="44.88708" lon="0.84847">
        <ele>125.4</ele>
        <time>1970-01-01T00:56:28.000Z</time>
      </trkpt>
      <trkpt lat="44.8871" lon="0.84848">
        <ele>125.7</ele>
        <time>1970-01-01T00:56:29.000Z</time>
      </trkpt>
      <trkpt lat="44.88712" lon="0.84849">
        <ele>126</ele>
        <time>1970-01-01T00:56:30.000Z</time>
      </trkpt>
      <trkpt lat="44.88714" lon="0.84851">
        <ele>126.2</ele>
        <time>1970-01-01T00:56:31.000Z</time>
      </trkpt>
      <trkpt lat="44.88716" lon="0.84852">
        <ele>126.5</ele>
        <time>1970-01-01T00:56:32.000Z</time>
      </trkpt>
      <trkpt lat="44.88718" lon="0.84854">
        <ele>126.8</ele>
        <time>1970-01-01T00:56:33.000Z</time>
      </trkpt>
      <trkpt lat="44.8872" lon="0.84857">
        <ele>127.2</ele>
        <time>1970-01-01T00:56:34.000Z</time>
      </trkpt>
      <trkpt lat="44.88722" lon="0.84859">
        <ele>127.5</ele>
        <time>1970-01-01T00:56:35.000Z</time>
      </trkpt>
      <trkpt lat="44.88724" lon="0.84861">
        <ele>127.8</ele>
        <time>1970-01-01T00:56:36.000Z</time>
      </trkpt>
      <trkpt lat="44.88725" lon="0.84863">
        <ele>128.1</ele>
        <time>1970-01-01T00:56:37.000Z</time>
      </trkpt>
      <trkpt lat="44.88727" lon="0.84865">
        <ele>128.4</ele>
        <time>1970-01-01T00:56:38.000Z</time>
      </trkpt>
      <trkpt lat="44.88729" lon="0.84866">
        <ele>128.6</ele>
        <time>1970-01-01T00:56:39.000Z</time>
      </trkpt>
      <trkpt lat="44.88731" lon="0.84868">
        <ele>128.9</ele>
        <time>1970-01-01T00:56:40.000Z</time>
      </trkpt>
      <trkpt lat="44.88732" lon="0.8487">
        <ele>129.2</ele>
        <time>1970-01-01T00:56:41.000Z</time>
      </trkpt>
      <trkpt lat="44.88733" lon="0.84871">
        <ele>129.4</ele>
        <time>1970-01-01T00:56:42.000Z</time>
      </trkpt>
      <trkpt lat="44.88735" lon="0.84874">
        <ele>129.7</ele>
        <time>1970-01-01T00:56:43.000Z</time>
      </trkpt>
      <trkpt lat="44.88736" lon="0.84876">
        <ele>129.9</ele>
        <time>1970-01-01T00:56:44.000Z</time>
      </trkpt>
      <trkpt lat="44.88737" lon="0.84878">
        <ele>130.2</ele>
        <time>1970-01-01T00:56:45.000Z</time>
      </trkpt>
      <trkpt lat="44.88738" lon="0.8488">
        <ele>130.5</ele>
        <time>1970-01-01T00:56:46.000Z</time>
      </trkpt>
      <trkpt lat="44.8874" lon="0.84882">
        <ele>130.7</ele>
        <time>1970-01-01T00:56:47.000Z</time>
      </trkpt>
      <trkpt lat="44.88741" lon="0.84884">
        <ele>131</ele>
        <time>1970-01-01T00:56:48.000Z</time>
      </trkpt>
      <trkpt lat="44.88742" lon="0.84887">
        <ele>131.3</ele>
        <time>1970-01-01T00:56:49.000Z</time>
      </trkpt>
      <trkpt lat="44.88743" lon="0.8489">
        <ele>131.6</ele>
        <time>1970-01-01T00:56:50.000Z</time>
      </trkpt>
      <trkpt lat="44.88745" lon="0.84893">
        <ele>132</ele>
        <time>1970-01-01T00:56:51.000Z</time>
      </trkpt>
      <trkpt lat="44.88746" lon="0.84895">
        <ele>132.3</ele>
        <time>1970-01-01T00:56:52.000Z</time>
      </trkpt>
      <trkpt lat="44.88748" lon="0.84898">
        <ele>132.6</ele>
        <time>1970-01-01T00:56:53.000Z</time>
      </trkpt>
      <trkpt lat="44.8875" lon="0.849">
        <ele>132.9</ele>
        <time>1970-01-01T00:56:54.000Z</time>
      </trkpt>
      <trkpt lat="44.88752" lon="0.84902">
        <ele>133.2</ele>
        <time>1970-01-01T00:56:55.000Z</time>
      </trkpt>
      <trkpt lat="44.88754" lon="0.84904">
        <ele>133.5</ele>
        <time>1970-01-01T00:56:56.000Z</time>
      </trkpt>
      <trkpt lat="44.88756" lon="0.84906">
        <ele>133.8</ele>
        <time>1970-01-01T00:56:57.000Z</time>
      </trkpt>
      <trkpt lat="44.88758" lon="0.84907">
        <ele>134.1</ele>
        <time>1970-01-01T00:56:58.000Z</time>
      </trkpt>
      <trkpt lat="44.8876" lon="0.84909">
        <ele>134.3</ele>
        <time>1970-01-01T00:56:59.000Z</time>
      </trkpt>
      <trkpt lat="44.88762" lon="0.8491">
        <ele>134.6</ele>
        <time>1970-01-01T00:57:00.000Z</time>
      </trkpt>
      <trkpt lat="44.88763" lon="0.84912">
        <ele>134.8</ele>
        <time>1970-01-01T00:57:01.000Z</time>
      </trkpt>
      <trkpt lat="44.88765" lon="0.84915">
        <ele>135</ele>
        <time>1970-01-01T00:57:02.000Z</time>
      </trkpt>
      <trkpt lat="44.88766" lon="0.84917">
        <ele>135.3</ele>
        <time>1970-01-01T00:57:03.000Z</time>
      </trkpt>
      <trkpt lat="44.88768" lon="0.84919">
        <ele>135.5</ele>
        <time>1970-01-01T00:57:04.000Z</time>
      </trkpt>
      <trkpt lat="44.88769" lon="0.84922">
        <ele>135.7</ele>
        <time>1970-01-01T00:57:05.000Z</time>
      </trkpt>
      <trkpt lat="44.88771" lon="0.84924">
        <ele>136</ele>
        <time>1970-01-01T00:57:06.000Z</time>
      </trkpt>
      <trkpt lat="44.88772" lon="0.84926">
        <ele>136.2</ele>
        <time>1970-01-01T00:57:07.000Z</time>
      </trkpt>
      <trkpt lat="44.88774" lon="0.84928">
        <ele>136.4</ele>
        <time>1970-01-01T00:57:08.000Z</time>
      </trkpt>
      <trkpt lat="44.88776" lon="0.84929">
        <ele>136.6</ele>
        <time>1970-01-01T00:57:09.000Z</time>
      </trkpt>
      <trkpt lat="44.88777" lon="0.84931">
        <ele>136.8</ele>
        <time>1970-01-01T00:57:10.000Z</time>
      </trkpt>
      <trkpt lat="44.88779" lon="0.84933">
        <ele>137.1</ele>
        <time>1970-01-01T00:57:11.000Z</time>
      </trkpt>
      <trkpt lat="44.88781" lon="0.84935">
        <ele>137.3</ele>
        <time>1970-01-01T00:57:12.000Z</time>
      </trkpt>
      <trkpt lat="44.88782" lon="0.84937">
        <ele>137.5</ele>
        <time>1970-01-01T00:57:13.000Z</time>
      </trkpt>
      <trkpt lat="44.88783" lon="0.84939">
        <ele>137.7</ele>
        <time>1970-01-01T00:57:14.000Z</time>
      </trkpt>
      <trkpt lat="44.88785" lon="0.84941">
        <ele>137.9</ele>
        <time>1970-01-01T00:57:15.000Z</time>
      </trkpt>
      <trkpt lat="44.88786" lon="0.84944">
        <ele>138.2</ele>
        <time>1970-01-01T00:57:16.000Z</time>
      </trkpt>
      <trkpt lat="44.88788" lon="0.84946">
        <ele>138.4</ele>
        <time>1970-01-01T00:57:17.000Z</time>
      </trkpt>
      <trkpt lat="44.88789" lon="0.84948">
        <ele>138.6</ele>
        <time>1970-01-01T00:57:18.000Z</time>
      </trkpt>
      <trkpt lat="44.88791" lon="0.8495">
        <ele>138.8</ele>
        <time>1970-01-01T00:57:19.000Z</time>
      </trkpt>
      <trkpt lat="44.88793" lon="0.84952">
        <ele>139</ele>
        <time>1970-01-01T00:57:20.000Z</time>
      </trkpt>
      <trkpt lat="44.88794" lon="0.84954">
        <ele>139.3</ele>
        <time>1970-01-01T00:57:21.000Z</time>
      </trkpt>
      <trkpt lat="44.88796" lon="0.84956">
        <ele>139.5</ele>
        <time>1970-01-01T00:57:22.000Z</time>
      </trkpt>
      <trkpt lat="44.88798" lon="0.84958">
        <ele>139.7</ele>
        <time>1970-01-01T00:57:23.000Z</time>
      </trkpt>
      <trkpt lat="44.888" lon="0.8496">
        <ele>139.9</ele>
        <time>1970-01-01T00:57:24.000Z</time>
      </trkpt>
      <trkpt lat="44.88802" lon="0.84962">
        <ele>140.1</ele>
        <time>1970-01-01T00:57:25.000Z</time>
      </trkpt>
      <trkpt lat="44.88804" lon="0.84964">
        <ele>140.4</ele>
        <time>1970-01-01T00:57:26.000Z</time>
      </trkpt>
      <trkpt lat="44.88806" lon="0.84966">
        <ele>140.6</ele>
        <time>1970-01-01T00:57:27.000Z</time>
      </trkpt>
      <trkpt lat="44.88808" lon="0.84967">
        <ele>140.9</ele>
        <time>1970-01-01T00:57:28.000Z</time>
      </trkpt>
      <trkpt lat="44.8881" lon="0.84968">
        <ele>141.1</ele>
        <time>1970-01-01T00:57:29.000Z</time>
      </trkpt>
      <trkpt lat="44.88812" lon="0.84969">
        <ele>141.4</ele>
        <time>1970-01-01T00:57:30.000Z</time>
      </trkpt>
      <trkpt lat="44.88814" lon="0.84969">
        <ele>141.6</ele>
        <time>1970-01-01T00:57:31.000Z</time>
      </trkpt>
      <trkpt lat="44.88816" lon="0.84969">
        <ele>141.9</ele>
        <time>1970-01-01T00:57:32.000Z</time>
      </trkpt>
      <trkpt lat="44.88818" lon="0.84969">
        <ele>142.1</ele>
        <time>1970-01-01T00:57:33.000Z</time>
      </trkpt>
      <trkpt lat="44.8882" lon="0.8497">
        <ele>142.3</ele>
        <time>1970-01-01T00:57:34.000Z</time>
      </trkpt>
      <trkpt lat="44.88823" lon="0.8497">
        <ele>142.6</ele>
        <time>1970-01-01T00:57:35.000Z</time>
      </trkpt>
      <trkpt lat="44.88825" lon="0.8497">
        <ele>143</ele>
        <time>1970-01-01T00:57:36.000Z</time>
      </trkpt>
      <trkpt lat="44.88828" lon="0.8497">
        <ele>143.3</ele>
        <time>1970-01-01T00:57:37.000Z</time>
      </trkpt>
      <trkpt lat="44.88831" lon="0.8497">
        <ele>143.6</ele>
        <time>1970-01-01T00:57:38.000Z</time>
      </trkpt>
      <trkpt lat="44.88833" lon="0.84971">
        <ele>143.8</ele>
        <time>1970-01-01T00:57:39.000Z</time>
      </trkpt>
      <trkpt lat="44.88835" lon="0.84971">
        <ele>144.1</ele>
        <time>1970-01-01T00:57:40.000Z</time>
      </trkpt>
      <trkpt lat="44.88837" lon="0.84972">
        <ele>144.3</ele>
        <time>1970-01-01T00:57:41.000Z</time>
      </trkpt>
      <trkpt lat="44.8884" lon="0.84972">
        <ele>144.5</ele>
        <time>1970-01-01T00:57:42.000Z</time>
      </trkpt>
      <trkpt lat="44.88842" lon="0.84973">
        <ele>144.7</ele>
        <time>1970-01-01T00:57:43.000Z</time>
      </trkpt>
      <trkpt lat="44.88844" lon="0.84973">
        <ele>144.9</ele>
        <time>1970-01-01T00:57:44.000Z</time>
      </trkpt>
      <trkpt lat="44.88846" lon="0.84973">
        <ele>145.1</ele>
        <time>1970-01-01T00:57:45.000Z</time>
      </trkpt>
      <trkpt lat="44.88848" lon="0.84973">
        <ele>145.3</ele>
        <time>1970-01-01T00:57:46.000Z</time>
      </trkpt>
      <trkpt lat="44.8885" lon="0.84974">
        <ele>145.5</ele>
        <time>1970-01-01T00:57:47.000Z</time>
      </trkpt>
      <trkpt lat="44.88853" lon="0.84974">
        <ele>145.7</ele>
        <time>1970-01-01T00:57:48.000Z</time>
      </trkpt>
      <trkpt lat="44.88855" lon="0.84975">
        <ele>145.9</ele>
        <time>1970-01-01T00:57:49.000Z</time>
      </trkpt>
      <trkpt lat="44.88857" lon="0.84975">
        <ele>146.2</ele>
        <time>1970-01-01T00:57:50.000Z</time>
      </trkpt>
      <trkpt lat="44.8886" lon="0.84974">
        <ele>146.4</ele>
        <time>1970-01-01T00:57:51.000Z</time>
      </trkpt>
      <trkpt lat="44.88862" lon="0.84974">
        <ele>146.5</ele>
        <time>1970-01-01T00:57:52.000Z</time>
      </trkpt>
      <trkpt lat="44.88864" lon="0.84975">
        <ele>146.7</ele>
        <time>1970-01-01T00:57:53.000Z</time>
      </trkpt>
      <trkpt lat="44.88867" lon="0.84976">
        <ele>146.9</ele>
        <time>1970-01-01T00:57:54.000Z</time>
      </trkpt>
      <trkpt lat="44.88869" lon="0.84976">
        <ele>147.1</ele>
        <time>1970-01-01T00:57:55.000Z</time>
      </trkpt>
      <trkpt lat="44.88872" lon="0.84977">
        <ele>147.2</ele>
        <time>1970-01-01T00:57:56.000Z</time>
      </trkpt>
      <trkpt lat="44.88874" lon="0.84978">
        <ele>147.3</ele>
        <time>1970-01-01T00:57:57.000Z</time>
      </trkpt>
      <trkpt lat="44.88876" lon="0.84978">
        <ele>147.6</ele>
        <time>1970-01-01T00:57:58.000Z</time>
      </trkpt>
      <trkpt lat="44.88878" lon="0.84978">
        <ele>147.6</ele>
        <time>1970-01-01T00:57:59.000Z</time>
      </trkpt>
      <trkpt lat="44.88881" lon="0.84978">
        <ele>147.6</ele>
        <time>1970-01-01T00:58:00.000Z</time>
      </trkpt>
      <trkpt lat="44.88883" lon="0.84979">
        <ele>147.6</ele>
        <time>1970-01-01T00:58:01.000Z</time>
      </trkpt>
      <trkpt lat="44.88885" lon="0.84979">
        <ele>147.6</ele>
        <time>1970-01-01T00:58:02.000Z</time>
      </trkpt>
      <trkpt lat="44.88887" lon="0.84979">
        <ele>147.8</ele>
        <time>1970-01-01T00:58:03.000Z</time>
      </trkpt>
      <trkpt lat="44.88889" lon="0.84978">
        <ele>147.9</ele>
        <time>1970-01-01T00:58:04.000Z</time>
      </trkpt>
      <trkpt lat="44.88891" lon="0.84978">
        <ele>148</ele>
        <time>1970-01-01T00:58:05.000Z</time>
      </trkpt>
      <trkpt lat="44.88893" lon="0.84978">
        <ele>148.1</ele>
        <time>1970-01-01T00:58:06.000Z</time>
      </trkpt>
      <trkpt lat="44.88895" lon="0.84978">
        <ele>148.3</ele>
        <time>1970-01-01T00:58:07.000Z</time>
      </trkpt>
      <trkpt lat="44.88898" lon="0.84977">
        <ele>148.5</ele>
        <time>1970-01-01T00:58:08.000Z</time>
      </trkpt>
      <trkpt lat="44.88902" lon="0.84977">
        <ele>148.7</ele>
        <time>1970-01-01T00:58:09.000Z</time>
      </trkpt>
      <trkpt lat="44.88906" lon="0.84976">
        <ele>148.9</ele>
        <time>1970-01-01T00:58:10.000Z</time>
      </trkpt>
      <trkpt lat="44.88909" lon="0.84976">
        <ele>149.1</ele>
        <time>1970-01-01T00:58:11.000Z</time>
      </trkpt>
      <trkpt lat="44.88912" lon="0.84977">
        <ele>149.2</ele>
        <time>1970-01-01T00:58:12.000Z</time>
      </trkpt>
      <trkpt lat="44.88915" lon="0.84977">
        <ele>149.4</ele>
        <time>1970-01-01T00:58:13.000Z</time>
      </trkpt>
      <trkpt lat="44.88919" lon="0.84977">
        <ele>149.6</ele>
        <time>1970-01-01T00:58:14.000Z</time>
      </trkpt>
      <trkpt lat="44.88922" lon="0.84978">
        <ele>149.8</ele>
        <time>1970-01-01T00:58:15.000Z</time>
      </trkpt>
      <trkpt lat="44.88926" lon="0.84978">
        <ele>149.9</ele>
        <time>1970-01-01T00:58:16.000Z</time>
      </trkpt>
      <trkpt lat="44.8893" lon="0.84978">
        <ele>150.1</ele>
        <time>1970-01-01T00:58:17.000Z</time>
      </trkpt>
      <trkpt lat="44.88935" lon="0.84979">
        <ele>150.2</ele>
        <time>1970-01-01T00:58:18.000Z</time>
      </trkpt>
      <trkpt lat="44.8894" lon="0.8498">
        <ele>150.4</ele>
        <time>1970-01-01T00:58:19.000Z</time>
      </trkpt>
      <trkpt lat="44.88945" lon="0.8498">
        <ele>150.5</ele>
        <time>1970-01-01T00:58:20.000Z</time>
      </trkpt>
      <trkpt lat="44.8895" lon="0.8498">
        <ele>150.5</ele>
        <time>1970-01-01T00:58:21.000Z</time>
      </trkpt>
      <trkpt lat="44.88954" lon="0.84981">
        <ele>150.6</ele>
        <time>1970-01-01T00:58:22.000Z</time>
      </trkpt>
      <trkpt lat="44.88959" lon="0.84981">
        <ele>150.7</ele>
        <time>1970-01-01T00:58:23.000Z</time>
      </trkpt>
      <trkpt lat="44.88964" lon="0.84981">
        <ele>150.8</ele>
        <time>1970-01-01T00:58:24.000Z</time>
      </trkpt>
      <trkpt lat="44.8897" lon="0.84981">
        <ele>150.9</ele>
        <time>1970-01-01T00:58:25.000Z</time>
      </trkpt>
      <trkpt lat="44.88975" lon="0.8498">
        <ele>151.1</ele>
        <time>1970-01-01T00:58:26.000Z</time>
      </trkpt>
      <trkpt lat="44.88981" lon="0.8498">
        <ele>151.2</ele>
        <time>1970-01-01T00:58:27.000Z</time>
      </trkpt>
      <trkpt lat="44.88986" lon="0.84981">
        <ele>151.3</ele>
        <time>1970-01-01T00:58:28.000Z</time>
      </trkpt>
      <trkpt lat="44.88991" lon="0.84982">
        <ele>151.5</ele>
        <time>1970-01-01T00:58:29.000Z</time>
      </trkpt>
      <trkpt lat="44.88996" lon="0.84985">
        <ele>151.7</ele>
        <time>1970-01-01T00:58:30.000Z</time>
      </trkpt>
      <trkpt lat="44.89001" lon="0.84988">
        <ele>152</ele>
        <time>1970-01-01T00:58:31.000Z</time>
      </trkpt>
      <trkpt lat="44.89006" lon="0.8499">
        <ele>152.2</ele>
        <time>1970-01-01T00:58:32.000Z</time>
      </trkpt>
      <trkpt lat="44.89011" lon="0.84993">
        <ele>152.5</ele>
        <time>1970-01-01T00:58:33.000Z</time>
      </trkpt>
      <trkpt lat="44.89016" lon="0.84996">
        <ele>152.8</ele>
        <time>1970-01-01T00:58:34.000Z</time>
      </trkpt>
      <trkpt lat="44.89021" lon="0.84999">
        <ele>153.2</ele>
        <time>1970-01-01T00:58:35.000Z</time>
      </trkpt>
      <trkpt lat="44.89025" lon="0.85002">
        <ele>153.4</ele>
        <time>1970-01-01T00:58:36.000Z</time>
      </trkpt>
      <trkpt lat="44.89029" lon="0.85004">
        <ele>152.9</ele>
        <time>1970-01-01T00:58:37.000Z</time>
      </trkpt>
      <trkpt lat="44.89034" lon="0.85007">
        <ele>152.4</ele>
        <time>1970-01-01T00:58:38.000Z</time>
      </trkpt>
      <trkpt lat="44.89039" lon="0.85012">
        <ele>151.8</ele>
        <time>1970-01-01T00:58:39.000Z</time>
      </trkpt>
      <trkpt lat="44.89044" lon="0.85017">
        <ele>151.1</ele>
        <time>1970-01-01T00:58:40.000Z</time>
      </trkpt>
      <trkpt lat="44.89049" lon="0.85023">
        <ele>150.8</ele>
        <time>1970-01-01T00:58:41.000Z</time>
      </trkpt>
      <trkpt lat="44.89053" lon="0.85028">
        <ele>150.7</ele>
        <time>1970-01-01T00:58:42.000Z</time>
      </trkpt>
      <trkpt lat="44.89057" lon="0.85033">
        <ele>150.6</ele>
        <time>1970-01-01T00:58:43.000Z</time>
      </trkpt>
      <trkpt lat="44.8906" lon="0.85041">
        <ele>150.3</ele>
        <time>1970-01-01T00:58:44.000Z</time>
      </trkpt>
      <trkpt lat="44.89063" lon="0.8505">
        <ele>149.9</ele>
        <time>1970-01-01T00:58:45.000Z</time>
      </trkpt>
      <trkpt lat="44.89066" lon="0.85058">
        <ele>149.4</ele>
        <time>1970-01-01T00:58:46.000Z</time>
      </trkpt>
      <trkpt lat="44.89069" lon="0.85066">
        <ele>148.9</ele>
        <time>1970-01-01T00:58:47.000Z</time>
      </trkpt>
      <trkpt lat="44.89073" lon="0.85074">
        <ele>148.4</ele>
        <time>1970-01-01T00:58:48.000Z</time>
      </trkpt>
      <trkpt lat="44.89076" lon="0.85083">
        <ele>147.9</ele>
        <time>1970-01-01T00:58:49.000Z</time>
      </trkpt>
      <trkpt lat="44.8908" lon="0.85091">
        <ele>147.4</ele>
        <time>1970-01-01T00:58:50.000Z</time>
      </trkpt>
      <trkpt lat="44.89084" lon="0.851">
        <ele>146.8</ele>
        <time>1970-01-01T00:58:51.000Z</time>
      </trkpt>
      <trkpt lat="44.89087" lon="0.8511">
        <ele>146.1</ele>
        <time>1970-01-01T00:58:52.000Z</time>
      </trkpt>
      <trkpt lat="44.8909" lon="0.85121">
        <ele>145.3</ele>
        <time>1970-01-01T00:58:53.000Z</time>
      </trkpt>
      <trkpt lat="44.89092" lon="0.85133">
        <ele>144.3</ele>
        <time>1970-01-01T00:58:54.000Z</time>
      </trkpt>
      <trkpt lat="44.89096" lon="0.85145">
        <ele>143.2</ele>
        <time>1970-01-01T00:58:55.000Z</time>
      </trkpt>
      <trkpt lat="44.89102" lon="0.85156">
        <ele>142</ele>
        <time>1970-01-01T00:58:56.000Z</time>
      </trkpt>
      <trkpt lat="44.8911" lon="0.85165">
        <ele>140.9</ele>
        <time>1970-01-01T00:58:57.000Z</time>
      </trkpt>
      <trkpt lat="44.89118" lon="0.85174">
        <ele>139.9</ele>
        <time>1970-01-01T00:58:58.000Z</time>
      </trkpt>
      <trkpt lat="44.89126" lon="0.85183">
        <ele>139</ele>
        <time>1970-01-01T00:58:59.000Z</time>
      </trkpt>
      <trkpt lat="44.89134" lon="0.85191">
        <ele>138.3</ele>
        <time>1970-01-01T00:59:00.000Z</time>
      </trkpt>
      <trkpt lat="44.89142" lon="0.85198">
        <ele>137.8</ele>
        <time>1970-01-01T00:59:01.000Z</time>
      </trkpt>
      <trkpt lat="44.89149" lon="0.85207">
        <ele>137.4</ele>
        <time>1970-01-01T00:59:02.000Z</time>
      </trkpt>
      <trkpt lat="44.89156" lon="0.85215">
        <ele>137</ele>
        <time>1970-01-01T00:59:03.000Z</time>
      </trkpt>
      <trkpt lat="44.89162" lon="0.85224">
        <ele>136.6</ele>
        <time>1970-01-01T00:59:04.000Z</time>
      </trkpt>
      <trkpt lat="44.89168" lon="0.85234">
        <ele>136</ele>
        <time>1970-01-01T00:59:05.000Z</time>
      </trkpt>
      <trkpt lat="44.89174" lon="0.85244">
        <ele>135.4</ele>
        <time>1970-01-01T00:59:06.000Z</time>
      </trkpt>
      <trkpt lat="44.8918" lon="0.85254">
        <ele>134.6</ele>
        <time>1970-01-01T00:59:07.000Z</time>
      </trkpt>
      <trkpt lat="44.89186" lon="0.85265">
        <ele>133.8</ele>
        <time>1970-01-01T00:59:08.000Z</time>
      </trkpt>
      <trkpt lat="44.89191" lon="0.85277">
        <ele>132.7</ele>
        <time>1970-01-01T00:59:09.000Z</time>
      </trkpt>
      <trkpt lat="44.89197" lon="0.85288">
        <ele>131.3</ele>
        <time>1970-01-01T00:59:10.000Z</time>
      </trkpt>
      <trkpt lat="44.89202" lon="0.85299">
        <ele>130</ele>
        <time>1970-01-01T00:59:11.000Z</time>
      </trkpt>
      <trkpt lat="44.89208" lon="0.8531">
        <ele>128.7</ele>
        <time>1970-01-01T00:59:12.000Z</time>
      </trkpt>
      <trkpt lat="44.89213" lon="0.8532">
        <ele>127.5</ele>
        <time>1970-01-01T00:59:13.000Z</time>
      </trkpt>
      <trkpt lat="44.89218" lon="0.85331">
        <ele>126.3</ele>
        <time>1970-01-01T00:59:14.000Z</time>
      </trkpt>
      <trkpt lat="44.89224" lon="0.8534">
        <ele>125.3</ele>
        <time>1970-01-01T00:59:15.000Z</time>
      </trkpt>
      <trkpt lat="44.89231" lon="0.85348">
        <ele>124.2</ele>
        <time>1970-01-01T00:59:16.000Z</time>
      </trkpt>
      <trkpt lat="44.89238" lon="0.85356">
        <ele>123.2</ele>
        <time>1970-01-01T00:59:17.000Z</time>
      </trkpt>
      <trkpt lat="44.89247" lon="0.85364">
        <ele>122.2</ele>
        <time>1970-01-01T00:59:18.000Z</time>
      </trkpt>
      <trkpt lat="44.89254" lon="0.85373">
        <ele>121.4</ele>
        <time>1970-01-01T00:59:19.000Z</time>
      </trkpt>
      <trkpt lat="44.89262" lon="0.85383">
        <ele>120.6</ele>
        <time>1970-01-01T00:59:20.000Z</time>
      </trkpt>
      <trkpt lat="44.89269" lon="0.85394">
        <ele>119.6</ele>
        <time>1970-01-01T00:59:21.000Z</time>
      </trkpt>
      <trkpt lat="44.89275" lon="0.85404">
        <ele>118.7</ele>
        <time>1970-01-01T00:59:22.000Z</time>
      </trkpt>
      <trkpt lat="44.89282" lon="0.85414">
        <ele>117.7</ele>
        <time>1970-01-01T00:59:23.000Z</time>
      </trkpt>
      <trkpt lat="44.89289" lon="0.85422">
        <ele>116.7</ele>
        <time>1970-01-01T00:59:24.000Z</time>
      </trkpt>
      <trkpt lat="44.89296" lon="0.85431">
        <ele>115.7</ele>
        <time>1970-01-01T00:59:25.000Z</time>
      </trkpt>
      <trkpt lat="44.89302" lon="0.85437">
        <ele>115</ele>
        <time>1970-01-01T00:59:26.000Z</time>
      </trkpt>
      <trkpt lat="44.89309" lon="0.85442">
        <ele>114.4</ele>
        <time>1970-01-01T00:59:27.000Z</time>
      </trkpt>
      <trkpt lat="44.89316" lon="0.85445">
        <ele>114</ele>
        <time>1970-01-01T00:59:28.000Z</time>
      </trkpt>
      <trkpt lat="44.89322" lon="0.85446">
        <ele>113.6</ele>
        <time>1970-01-01T00:59:29.000Z</time>
      </trkpt>
      <trkpt lat="44.89328" lon="0.85447">
        <ele>113.3</ele>
        <time>1970-01-01T00:59:30.000Z</time>
      </trkpt>
      <trkpt lat="44.89333" lon="0.85447">
        <ele>113.1</ele>
        <time>1970-01-01T00:59:31.000Z</time>
      </trkpt>
      <trkpt lat="44.89337" lon="0.85447">
        <ele>112.9</ele>
        <time>1970-01-01T00:59:32.000Z</time>
      </trkpt>
      <trkpt lat="44.89342" lon="0.85445">
        <ele>112.8</ele>
        <time>1970-01-01T00:59:33.000Z</time>
      </trkpt>
      <trkpt lat="44.89347" lon="0.85443">
        <ele>112.6</ele>
        <time>1970-01-01T00:59:34.000Z</time>
      </trkpt>
      <trkpt lat="44.89352" lon="0.8544">
        <ele>112.4</ele>
        <time>1970-01-01T00:59:35.000Z</time>
      </trkpt>
      <trkpt lat="44.89356" lon="0.85437">
        <ele>112.3</ele>
        <time>1970-01-01T00:59:36.000Z</time>
      </trkpt>
      <trkpt lat="44.89361" lon="0.85433">
        <ele>112.1</ele>
        <time>1970-01-01T00:59:37.000Z</time>
      </trkpt>
      <trkpt lat="44.89365" lon="0.85428">
        <ele>111.9</ele>
        <time>1970-01-01T00:59:38.000Z</time>
      </trkpt>
      <trkpt lat="44.89371" lon="0.85421">
        <ele>111.7</ele>
        <time>1970-01-01T00:59:39.000Z</time>
      </trkpt>
      <trkpt lat="44.89377" lon="0.85411">
        <ele>111.5</ele>
        <time>1970-01-01T00:59:40.000Z</time>
      </trkpt>
      <trkpt lat="44.89384" lon="0.85401">
        <ele>111</ele>
        <time>1970-01-01T00:59:41.000Z</time>
      </trkpt>
      <trkpt lat="44.89389" lon="0.85393">
        <ele>110.2</ele>
        <time>1970-01-01T00:59:42.000Z</time>
      </trkpt>
      <trkpt lat="44.89394" lon="0.85388">
        <ele>109.6</ele>
        <time>1970-01-01T00:59:43.000Z</time>
      </trkpt>
      <trkpt lat="44.89397" lon="0.85386">
        <ele>109.1</ele>
        <time>1970-01-01T00:59:44.000Z</time>
      </trkpt>
      <trkpt lat="44.894" lon="0.85384">
        <ele>108.7</ele>
        <time>1970-01-01T00:59:45.000Z</time>
      </trkpt>
      <trkpt lat="44.89401" lon="0.85384">
        <ele>108.5</ele>
        <time>1970-01-01T00:59:46.000Z</time>
      </trkpt>
      <trkpt lat="44.89402" lon="0.85384">
        <ele>108.4</ele>
        <time>1970-01-01T00:59:47.000Z</time>
      </trkpt>
      <trkpt lat="44.89403" lon="0.85385">
        <ele>108.3</ele>
        <time>1970-01-01T00:59:48.000Z</time>
      </trkpt>
      <trkpt lat="44.89402" lon="0.85392">
        <ele>107.7</ele>
        <time>1970-01-01T00:59:49.000Z</time>
      </trkpt>
      <trkpt lat="44.894" lon="0.85397">
        <ele>107.2</ele>
        <time>1970-01-01T00:59:50.000Z</time>
      </trkpt>
      <trkpt lat="44.89398" lon="0.85402">
        <ele>106.6</ele>
        <time>1970-01-01T00:59:51.000Z</time>
      </trkpt>
      <trkpt lat="44.89397" lon="0.85407">
        <ele>106.1</ele>
        <time>1970-01-01T00:59:52.000Z</time>
      </trkpt>
      <trkpt lat="44.89395" lon="0.85412">
        <ele>105.5</ele>
        <time>1970-01-01T00:59:53.000Z</time>
      </trkpt>
      <trkpt lat="44.89394" lon="0.85417">
        <ele>104.8</ele>
        <time>1970-01-01T00:59:54.000Z</time>
      </trkpt>
      <trkpt lat="44.89392" lon="0.85422">
        <ele>104.2</ele>
        <time>1970-01-01T00:59:55.000Z</time>
      </trkpt>
      <trkpt lat="44.89391" lon="0.85427">
        <ele>103.5</ele>
        <time>1970-01-01T00:59:56.000Z</time>
      </trkpt>
      <trkpt lat="44.89389" lon="0.85432">
        <ele>102.8</ele>
        <time>1970-01-01T00:59:57.000Z</time>
      </trkpt>
      <trkpt lat="44.89386" lon="0.85439">
        <ele>101.9</ele>
        <time>1970-01-01T00:59:58.000Z</time>
      </trkpt>
      <trkpt lat="44.89383" lon="0.85445">
        <ele>100.9</ele>
        <time>1970-01-01T00:59:59.000Z</time>
      </trkpt>
      <trkpt lat="44.8938" lon="0.8545">
        <ele>100.1</ele>
        <time>1970-01-01T01:00:00.000Z</time>
      </trkpt>
      <trkpt lat="44.89379" lon="0.85454">
        <ele>99.5</ele>
        <time>1970-01-01T01:00:01.000Z</time>
      </trkpt>
      <trkpt lat="44.89379" lon="0.85459">
        <ele>98.9</ele>
        <time>1970-01-01T01:00:02.000Z</time>
      </trkpt>
      <trkpt lat="44.89381" lon="0.85463">
        <ele>98.3</ele>
        <time>1970-01-01T01:00:03.000Z</time>
      </trkpt>
      <trkpt lat="44.89385" lon="0.85467">
        <ele>97.5</ele>
        <time>1970-01-01T01:00:04.000Z</time>
      </trkpt>
      <trkpt lat="44.89389" lon="0.85473">
        <ele>96.6</ele>
        <time>1970-01-01T01:00:05.000Z</time>
      </trkpt>
      <trkpt lat="44.89393" lon="0.8548">
        <ele>95.7</ele>
        <time>1970-01-01T01:00:06.000Z</time>
      </trkpt>
      <trkpt lat="44.89396" lon="0.85489">
        <ele>94.8</ele>
        <time>1970-01-01T01:00:07.000Z</time>
      </trkpt>
      <trkpt lat="44.89399" lon="0.85498">
        <ele>93.9</ele>
        <time>1970-01-01T01:00:08.000Z</time>
      </trkpt>
      <trkpt lat="44.89402" lon="0.85507">
        <ele>92.9</ele>
        <time>1970-01-01T01:00:09.000Z</time>
      </trkpt>
      <trkpt lat="44.89405" lon="0.85515">
        <ele>91.9</ele>
        <time>1970-01-01T01:00:10.000Z</time>
      </trkpt>
      <trkpt lat="44.89409" lon="0.85522">
        <ele>90.9</ele>
        <time>1970-01-01T01:00:11.000Z</time>
      </trkpt>
      <trkpt lat="44.89413" lon="0.85529">
        <ele>89.8</ele>
        <time>1970-01-01T01:00:12.000Z</time>
      </trkpt>
      <trkpt lat="44.89419" lon="0.85534">
        <ele>88.8</ele>
        <time>1970-01-01T01:00:13.000Z</time>
      </trkpt>
      <trkpt lat="44.89426" lon="0.85536">
        <ele>87.6</ele>
        <time>1970-01-01T01:00:14.000Z</time>
      </trkpt>
      <trkpt lat="44.89434" lon="0.85536">
        <ele>86.3</ele>
        <time>1970-01-01T01:00:15.000Z</time>
      </trkpt>
      <trkpt lat="44.89442" lon="0.85534">
        <ele>85.2</ele>
        <time>1970-01-01T01:00:16.000Z</time>
      </trkpt>
      <trkpt lat="44.89448" lon="0.85534">
        <ele>84.4</ele>
        <time>1970-01-01T01:00:17.000Z</time>
      </trkpt>
      <trkpt lat="44.89452" lon="0.85534">
        <ele>83.9</ele>
        <time>1970-01-01T01:00:18.000Z</time>
      </trkpt>
      <trkpt lat="44.89455" lon="0.85535">
        <ele>83.5</ele>
        <time>1970-01-01T01:00:19.000Z</time>
      </trkpt>
      <trkpt lat="44.89457" lon="0.85535">
        <ele>82.7</ele>
        <time>1970-01-01T01:00:20.000Z</time>
      </trkpt>
      <trkpt lat="44.89458" lon="0.85537">
        <ele>82.6</ele>
        <time>1970-01-01T01:00:21.000Z</time>
      </trkpt>
      <trkpt lat="44.89457" lon="0.8554">
        <ele>82.5</ele>
        <time>1970-01-01T01:00:22.000Z</time>
      </trkpt>
      <trkpt lat="44.89455" lon="0.85543">
        <ele>82.3</ele>
        <time>1970-01-01T01:00:23.000Z</time>
      </trkpt>
      <trkpt lat="44.89454" lon="0.85544">
        <ele>82.2</ele>
        <time>1970-01-01T01:00:24.000Z</time>
      </trkpt>
      <trkpt lat="44.89452" lon="0.85545">
        <ele>82.1</ele>
        <time>1970-01-01T01:00:25.000Z</time>
      </trkpt>
      <trkpt lat="44.8945" lon="0.85546">
        <ele>81.9</ele>
        <time>1970-01-01T01:00:26.000Z</time>
      </trkpt>
      <trkpt lat="44.89449" lon="0.85547">
        <ele>81.8</ele>
        <time>1970-01-01T01:00:27.000Z</time>
      </trkpt>
      <trkpt lat="44.89447" lon="0.85548">
        <ele>81.8</ele>
        <time>1970-01-01T01:00:28.000Z</time>
      </trkpt>
      <trkpt lat="44.89445" lon="0.85549">
        <ele>81.7</ele>
        <time>1970-01-01T01:00:29.000Z</time>
      </trkpt>
      <trkpt lat="44.89442" lon="0.85551">
        <ele>81.6</ele>
        <time>1970-01-01T01:00:30.000Z</time>
      </trkpt>
      <trkpt lat="44.89438" lon="0.85552">
        <ele>81.5</ele>
        <time>1970-01-01T01:00:31.000Z</time>
      </trkpt>
      <trkpt lat="44.89434" lon="0.85554">
        <ele>81.5</ele>
        <time>1970-01-01T01:00:32.000Z</time>
      </trkpt>
      <trkpt lat="44.8943" lon="0.85556">
        <ele>81.5</ele>
        <time>1970-01-01T01:00:33.000Z</time>
      </trkpt>
      <trkpt lat="44.89427" lon="0.85558">
        <ele>81.6</ele>
        <time>1970-01-01T01:00:34.000Z</time>
      </trkpt>
      <trkpt lat="44.89423" lon="0.85559">
        <ele>81.6</ele>
        <time>1970-01-01T01:00:35.000Z</time>
      </trkpt>
      <trkpt lat="44.8942" lon="0.85561">
        <ele>81.7</ele>
        <time>1970-01-01T01:00:36.000Z</time>
      </trkpt>
      <trkpt lat="44.89417" lon="0.85563">
        <ele>81.8</ele>
        <time>1970-01-01T01:00:37.000Z</time>
      </trkpt>
      <trkpt lat="44.89413" lon="0.85565">
        <ele>82</ele>
        <time>1970-01-01T01:00:38.000Z</time>
      </trkpt>
      <trkpt lat="44.8941" lon="0.85567">
        <ele>82.1</ele>
        <time>1970-01-01T01:00:39.000Z</time>
      </trkpt>
      <trkpt lat="44.89407" lon="0.85569">
        <ele>82.3</ele>
        <time>1970-01-01T01:00:40.000Z</time>
      </trkpt>
      <trkpt lat="44.89404" lon="0.85571">
        <ele>82.4</ele>
        <time>1970-01-01T01:00:41.000Z</time>
      </trkpt>
      <trkpt lat="44.89401" lon="0.85572">
        <ele>82.6</ele>
        <time>1970-01-01T01:00:42.000Z</time>
      </trkpt>
      <trkpt lat="44.89398" lon="0.85574">
        <ele>82.8</ele>
        <time>1970-01-01T01:00:43.000Z</time>
      </trkpt>
      <trkpt lat="44.89394" lon="0.85576">
        <ele>83</ele>
        <time>1970-01-01T01:00:44.000Z</time>
      </trkpt>
      <trkpt lat="44.89391" lon="0.85578">
        <ele>83.2</ele>
        <time>1970-01-01T01:00:45.000Z</time>
      </trkpt>
      <trkpt lat="44.89388" lon="0.8558">
        <ele>83.4</ele>
        <time>1970-01-01T01:00:46.000Z</time>
      </trkpt>
      <trkpt lat="44.89385" lon="0.85582">
        <ele>83.6</ele>
        <time>1970-01-01T01:00:47.000Z</time>
      </trkpt>
      <trkpt lat="44.89382" lon="0.85584">
        <ele>83.8</ele>
        <time>1970-01-01T01:00:48.000Z</time>
      </trkpt>
      <trkpt lat="44.8938" lon="0.85586">
        <ele>84</ele>
        <time>1970-01-01T01:00:49.000Z</time>
      </trkpt>
      <trkpt lat="44.89377" lon="0.85588">
        <ele>84.3</ele>
        <time>1970-01-01T01:00:50.000Z</time>
      </trkpt>
      <trkpt lat="44.89374" lon="0.8559">
        <ele>84.5</ele>
        <time>1970-01-01T01:00:51.000Z</time>
      </trkpt>
      <trkpt lat="44.89372" lon="0.85592">
        <ele>84.7</ele>
        <time>1970-01-01T01:00:52.000Z</time>
      </trkpt>
      <trkpt lat="44.89369" lon="0.85595">
        <ele>84.9</ele>
        <time>1970-01-01T01:00:53.000Z</time>
      </trkpt>
      <trkpt lat="44.89367" lon="0.85597">
        <ele>85.1</ele>
        <time>1970-01-01T01:00:54.000Z</time>
      </trkpt>
      <trkpt lat="44.89364" lon="0.85599">
        <ele>85.3</ele>
        <time>1970-01-01T01:00:55.000Z</time>
      </trkpt>
      <trkpt lat="44.8936" lon="0.85603">
        <ele>85.5</ele>
        <time>1970-01-01T01:00:56.000Z</time>
      </trkpt>
      <trkpt lat="44.89357" lon="0.85606">
        <ele>85.7</ele>
        <time>1970-01-01T01:00:57.000Z</time>
      </trkpt>
      <trkpt lat="44.89353" lon="0.8561">
        <ele>85.8</ele>
        <time>1970-01-01T01:00:58.000Z</time>
      </trkpt>
      <trkpt lat="44.8935" lon="0.85613">
        <ele>85.9</ele>
        <time>1970-01-01T01:00:59.000Z</time>
      </trkpt>
      <trkpt lat="44.89347" lon="0.85617">
        <ele>86</ele>
        <time>1970-01-01T01:01:00.000Z</time>
      </trkpt>
      <trkpt lat="44.89344" lon="0.8562">
        <ele>86.1</ele>
        <time>1970-01-01T01:01:01.000Z</time>
      </trkpt>
      <trkpt lat="44.8934" lon="0.85623">
        <ele>86.2</ele>
        <time>1970-01-01T01:01:02.000Z</time>
      </trkpt>
      <trkpt lat="44.89337" lon="0.85626">
        <ele>86.3</ele>
        <time>1970-01-01T01:01:03.000Z</time>
      </trkpt>
      <trkpt lat="44.89334" lon="0.85629">
        <ele>86.4</ele>
        <time>1970-01-01T01:01:04.000Z</time>
      </trkpt>
      <trkpt lat="44.8933" lon="0.85631">
        <ele>86.5</ele>
        <time>1970-01-01T01:01:05.000Z</time>
      </trkpt>
      <trkpt lat="44.89326" lon="0.85633">
        <ele>86.6</ele>
        <time>1970-01-01T01:01:06.000Z</time>
      </trkpt>
      <trkpt lat="44.89322" lon="0.85635">
        <ele>86.7</ele>
        <time>1970-01-01T01:01:07.000Z</time>
      </trkpt>
      <trkpt lat="44.89319" lon="0.85637">
        <ele>86.7</ele>
        <time>1970-01-01T01:01:08.000Z</time>
      </trkpt>
      <trkpt lat="44.89315" lon="0.8564">
        <ele>86.7</ele>
        <time>1970-01-01T01:01:09.000Z</time>
      </trkpt>
      <trkpt lat="44.89311" lon="0.85642">
        <ele>86.7</ele>
        <time>1970-01-01T01:01:10.000Z</time>
      </trkpt>
      <trkpt lat="44.89307" lon="0.85645">
        <ele>86.7</ele>
        <time>1970-01-01T01:01:11.000Z</time>
      </trkpt>
      <trkpt lat="44.89302" lon="0.85648">
        <ele>86.6</ele>
        <time>1970-01-01T01:01:12.000Z</time>
      </trkpt>
      <trkpt lat="44.89297" lon="0.85651">
        <ele>86.5</ele>
        <time>1970-01-01T01:01:13.000Z</time>
      </trkpt>
      <trkpt lat="44.89292" lon="0.85654">
        <ele>86.4</ele>
        <time>1970-01-01T01:01:14.000Z</time>
      </trkpt>
      <trkpt lat="44.89288" lon="0.85658">
        <ele>86.3</ele>
        <time>1970-01-01T01:01:15.000Z</time>
      </trkpt>
      <trkpt lat="44.89283" lon="0.85661">
        <ele>86.3</ele>
        <time>1970-01-01T01:01:16.000Z</time>
      </trkpt>
      <trkpt lat="44.8928" lon="0.85664">
        <ele>86.3</ele>
        <time>1970-01-01T01:01:17.000Z</time>
      </trkpt>
      <trkpt lat="44.89278" lon="0.85669">
        <ele>86.2</ele>
        <time>1970-01-01T01:01:18.000Z</time>
      </trkpt>
      <trkpt lat="44.89278" lon="0.85677">
        <ele>85.5</ele>
        <time>1970-01-01T01:01:19.000Z</time>
      </trkpt>
      <trkpt lat="44.89279" lon="0.85687">
        <ele>83.9</ele>
        <time>1970-01-01T01:01:20.000Z</time>
      </trkpt>
      <trkpt lat="44.89281" lon="0.85697">
        <ele>82.3</ele>
        <time>1970-01-01T01:01:21.000Z</time>
      </trkpt>
      <trkpt lat="44.89282" lon="0.85708">
        <ele>80.7</ele>
        <time>1970-01-01T01:01:22.000Z</time>
      </trkpt>
      <trkpt lat="44.89283" lon="0.85719">
        <ele>79.3</ele>
        <time>1970-01-01T01:01:23.000Z</time>
      </trkpt>
      <trkpt lat="44.89283" lon="0.85731">
        <ele>78.1</ele>
        <time>1970-01-01T01:01:24.000Z</time>
      </trkpt>
      <trkpt lat="44.89284" lon="0.85743">
        <ele>77</ele>
        <time>1970-01-01T01:01:25.000Z</time>
      </trkpt>
      <trkpt lat="44.89285" lon="0.85753">
        <ele>76.1</ele>
        <time>1970-01-01T01:01:26.000Z</time>
      </trkpt>
      <trkpt lat="44.89287" lon="0.85764">
        <ele>75.3</ele>
        <time>1970-01-01T01:01:27.000Z</time>
      </trkpt>
      <trkpt lat="44.89289" lon="0.85773">
        <ele>74.6</ele>
        <time>1970-01-01T01:01:28.000Z</time>
      </trkpt>
      <trkpt lat="44.8929" lon="0.85781">
        <ele>74.1</ele>
        <time>1970-01-01T01:01:29.000Z</time>
      </trkpt>
      <trkpt lat="44.89292" lon="0.85789">
        <ele>73.5</ele>
        <time>1970-01-01T01:01:30.000Z</time>
      </trkpt>
      <trkpt lat="44.89294" lon="0.85797">
        <ele>73</ele>
        <time>1970-01-01T01:01:31.000Z</time>
      </trkpt>
      <trkpt lat="44.89297" lon="0.85804">
        <ele>72.6</ele>
        <time>1970-01-01T01:01:32.000Z</time>
      </trkpt>
      <trkpt lat="44.89299" lon="0.8581">
        <ele>72.1</ele>
        <time>1970-01-01T01:01:33.000Z</time>
      </trkpt>
      <trkpt lat="44.89301" lon="0.85816">
        <ele>71.7</ele>
        <time>1970-01-01T01:01:34.000Z</time>
      </trkpt>
      <trkpt lat="44.89303" lon="0.85822">
        <ele>71.4</ele>
        <time>1970-01-01T01:01:35.000Z</time>
      </trkpt>
      <trkpt lat="44.89305" lon="0.85827">
        <ele>71.1</ele>
        <time>1970-01-01T01:01:36.000Z</time>
      </trkpt>
      <trkpt lat="44.89307" lon="0.85833">
        <ele>70.8</ele>
        <time>1970-01-01T01:01:37.000Z</time>
      </trkpt>
      <trkpt lat="44.8931" lon="0.85838">
        <ele>70.5</ele>
        <time>1970-01-01T01:01:38.000Z</time>
      </trkpt>
      <trkpt lat="44.89312" lon="0.85843">
        <ele>70.4</ele>
        <time>1970-01-01T01:01:39.000Z</time>
      </trkpt>
      <trkpt lat="44.89313" lon="0.85848">
        <ele>70.2</ele>
        <time>1970-01-01T01:01:40.000Z</time>
      </trkpt>
      <trkpt lat="44.89315" lon="0.85853">
        <ele>70.1</ele>
        <time>1970-01-01T01:01:41.000Z</time>
      </trkpt>
      <trkpt lat="44.89316" lon="0.85857">
        <ele>70.1</ele>
        <time>1970-01-01T01:01:42.000Z</time>
      </trkpt>
      <trkpt lat="44.89317" lon="0.8586">
        <ele>70.1</ele>
        <time>1970-01-01T01:01:43.000Z</time>
      </trkpt>
      <trkpt lat="44.89318" lon="0.85864">
        <ele>70.1</ele>
        <time>1970-01-01T01:01:44.000Z</time>
      </trkpt>
      <trkpt lat="44.89319" lon="0.85867">
        <ele>70.1</ele>
        <time>1970-01-01T01:01:45.000Z</time>
      </trkpt>
      <trkpt lat="44.89319" lon="0.85869">
        <ele>70.2</ele>
        <time>1970-01-01T01:01:46.000Z</time>
      </trkpt>
      <trkpt lat="44.8932" lon="0.85871">
        <ele>70.2</ele>
        <time>1970-01-01T01:01:47.000Z</time>
      </trkpt>
      <trkpt lat="44.8932" lon="0.85873">
        <ele>70.2</ele>
        <time>1970-01-01T01:01:48.000Z</time>
      </trkpt>
      <trkpt lat="44.89321" lon="0.85875">
        <ele>70.3</ele>
        <time>1970-01-01T01:01:49.000Z</time>
      </trkpt>
      <trkpt lat="44.89321" lon="0.85877">
        <ele>70.4</ele>
        <time>1970-01-01T01:01:50.000Z</time>
      </trkpt>
      <trkpt lat="44.89321" lon="0.85879">
        <ele>70.4</ele>
        <time>1970-01-01T01:01:51.000Z</time>
      </trkpt>
      <trkpt lat="44.89321" lon="0.85881">
        <ele>70.5</ele>
        <time>1970-01-01T01:01:52.000Z</time>
      </trkpt>
      <trkpt lat="44.8932" lon="0.85882">
        <ele>70.5</ele>
        <time>1970-01-01T01:01:53.000Z</time>
      </trkpt>
      <trkpt lat="44.89318" lon="0.85884">
        <ele>70.6</ele>
        <time>1970-01-01T01:01:54.000Z</time>
      </trkpt>
      <trkpt lat="44.89317" lon="0.85886">
        <ele>70.7</ele>
        <time>1970-01-01T01:01:55.000Z</time>
      </trkpt>
      <trkpt lat="44.89315" lon="0.85888">
        <ele>70.7</ele>
        <time>1970-01-01T01:01:56.000Z</time>
      </trkpt>
      <trkpt lat="44.89313" lon="0.85889">
        <ele>70.8</ele>
        <time>1970-01-01T01:01:57.000Z</time>
      </trkpt>
      <trkpt lat="44.8931" lon="0.85891">
        <ele>70.9</ele>
        <time>1970-01-01T01:01:58.000Z</time>
      </trkpt>
      <trkpt lat="44.89308" lon="0.85893">
        <ele>70.9</ele>
        <time>1970-01-01T01:01:59.000Z</time>
      </trkpt>
      <trkpt lat="44.89305" lon="0.85896">
        <ele>71</ele>
        <time>1970-01-01T01:02:00.000Z</time>
      </trkpt>
      <trkpt lat="44.89303" lon="0.85898">
        <ele>71.1</ele>
        <time>1970-01-01T01:02:01.000Z</time>
      </trkpt>
      <trkpt lat="44.893" lon="0.85901">
        <ele>71.2</ele>
        <time>1970-01-01T01:02:02.000Z</time>
      </trkpt>
      <trkpt lat="44.89297" lon="0.85904">
        <ele>71.3</ele>
        <time>1970-01-01T01:02:03.000Z</time>
      </trkpt>
      <trkpt lat="44.89295" lon="0.85907">
        <ele>71.5</ele>
        <time>1970-01-01T01:02:04.000Z</time>
      </trkpt>
      <trkpt lat="44.89292" lon="0.8591">
        <ele>71.6</ele>
        <time>1970-01-01T01:02:05.000Z</time>
      </trkpt>
      <trkpt lat="44.8929" lon="0.85913">
        <ele>71.9</ele>
        <time>1970-01-01T01:02:06.000Z</time>
      </trkpt>
      <trkpt lat="44.89287" lon="0.85916">
        <ele>72.1</ele>
        <time>1970-01-01T01:02:07.000Z</time>
      </trkpt>
      <trkpt lat="44.89284" lon="0.85918">
        <ele>72.4</ele>
        <time>1970-01-01T01:02:08.000Z</time>
      </trkpt>
      <trkpt lat="44.89282" lon="0.8592">
        <ele>72.7</ele>
        <time>1970-01-01T01:02:09.000Z</time>
      </trkpt>
      <trkpt lat="44.8928" lon="0.85923">
        <ele>73</ele>
        <time>1970-01-01T01:02:10.000Z</time>
      </trkpt>
      <trkpt lat="44.89277" lon="0.85925">
        <ele>73.3</ele>
        <time>1970-01-01T01:02:11.000Z</time>
      </trkpt>
      <trkpt lat="44.89276" lon="0.85927">
        <ele>73.6</ele>
        <time>1970-01-01T01:02:12.000Z</time>
      </trkpt>
      <trkpt lat="44.89274" lon="0.85929">
        <ele>73.9</ele>
        <time>1970-01-01T01:02:13.000Z</time>
      </trkpt>
      <trkpt lat="44.89272" lon="0.85932">
        <ele>74.2</ele>
        <time>1970-01-01T01:02:14.000Z</time>
      </trkpt>
      <trkpt lat="44.8927" lon="0.85934">
        <ele>74.5</ele>
        <time>1970-01-01T01:02:15.000Z</time>
      </trkpt>
      <trkpt lat="44.89268" lon="0.85936">
        <ele>74.9</ele>
        <time>1970-01-01T01:02:16.000Z</time>
      </trkpt>
      <trkpt lat="44.89266" lon="0.85938">
        <ele>75.2</ele>
        <time>1970-01-01T01:02:17.000Z</time>
      </trkpt>
      <trkpt lat="44.89264" lon="0.85941">
        <ele>75.6</ele>
        <time>1970-01-01T01:02:18.000Z</time>
      </trkpt>
      <trkpt lat="44.89262" lon="0.85943">
        <ele>75.9</ele>
        <time>1970-01-01T01:02:19.000Z</time>
      </trkpt>
      <trkpt lat="44.8926" lon="0.85945">
        <ele>76.3</ele>
        <time>1970-01-01T01:02:20.000Z</time>
      </trkpt>
      <trkpt lat="44.89259" lon="0.85948">
        <ele>76.7</ele>
        <time>1970-01-01T01:02:21.000Z</time>
      </trkpt>
      <trkpt lat="44.89257" lon="0.8595">
        <ele>77.1</ele>
        <time>1970-01-01T01:02:22.000Z</time>
      </trkpt>
      <trkpt lat="44.89256" lon="0.85952">
        <ele>77.4</ele>
        <time>1970-01-01T01:02:23.000Z</time>
      </trkpt>
      <trkpt lat="44.89254" lon="0.85954">
        <ele>77.8</ele>
        <time>1970-01-01T01:02:24.000Z</time>
      </trkpt>
      <trkpt lat="44.89253" lon="0.85956">
        <ele>78.1</ele>
        <time>1970-01-01T01:02:25.000Z</time>
      </trkpt>
      <trkpt lat="44.89251" lon="0.85957">
        <ele>78.5</ele>
        <time>1970-01-01T01:02:26.000Z</time>
      </trkpt>
      <trkpt lat="44.89249" lon="0.85959">
        <ele>78.9</ele>
        <time>1970-01-01T01:02:27.000Z</time>
      </trkpt>
      <trkpt lat="44.89248" lon="0.85961">
        <ele>79.2</ele>
        <time>1970-01-01T01:02:28.000Z</time>
      </trkpt>
      <trkpt lat="44.89246" lon="0.85962">
        <ele>79.6</ele>
        <time>1970-01-01T01:02:29.000Z</time>
      </trkpt>
      <trkpt lat="44.89245" lon="0.85964">
        <ele>79.9</ele>
        <time>1970-01-01T01:02:30.000Z</time>
      </trkpt>
      <trkpt lat="44.89244" lon="0.85966">
        <ele>80.2</ele>
        <time>1970-01-01T01:02:31.000Z</time>
      </trkpt>
      <trkpt lat="44.89243" lon="0.85967">
        <ele>80.5</ele>
        <time>1970-01-01T01:02:32.000Z</time>
      </trkpt>
      <trkpt lat="44.89241" lon="0.85969">
        <ele>80.8</ele>
        <time>1970-01-01T01:02:33.000Z</time>
      </trkpt>
      <trkpt lat="44.8924" lon="0.8597">
        <ele>81.1</ele>
        <time>1970-01-01T01:02:34.000Z</time>
      </trkpt>
      <trkpt lat="44.89239" lon="0.85972">
        <ele>81.5</ele>
        <time>1970-01-01T01:02:35.000Z</time>
      </trkpt>
      <trkpt lat="44.89237" lon="0.85974">
        <ele>81.8</ele>
        <time>1970-01-01T01:02:36.000Z</time>
      </trkpt>
      <trkpt lat="44.89236" lon="0.85976">
        <ele>82.2</ele>
        <time>1970-01-01T01:02:37.000Z</time>
      </trkpt>
      <trkpt lat="44.89235" lon="0.85977">
        <ele>82.5</ele>
        <time>1970-01-01T01:02:38.000Z</time>
      </trkpt>
      <trkpt lat="44.89234" lon="0.85979">
        <ele>82.8</ele>
        <time>1970-01-01T01:02:39.000Z</time>
      </trkpt>
      <trkpt lat="44.89232" lon="0.85981">
        <ele>83.1</ele>
        <time>1970-01-01T01:02:40.000Z</time>
      </trkpt>
      <trkpt lat="44.89231" lon="0.85983">
        <ele>83.5</ele>
        <time>1970-01-01T01:02:41.000Z</time>
      </trkpt>
      <trkpt lat="44.8923" lon="0.85985">
        <ele>83.8</ele>
        <time>1970-01-01T01:02:42.000Z</time>
      </trkpt>
      <trkpt lat="44.89229" lon="0.85987">
        <ele>84.1</ele>
        <time>1970-01-01T01:02:43.000Z</time>
      </trkpt>
      <trkpt lat="44.89228" lon="0.85988">
        <ele>84.3</ele>
        <time>1970-01-01T01:02:44.000Z</time>
      </trkpt>
      <trkpt lat="44.89227" lon="0.8599">
        <ele>84.6</ele>
        <time>1970-01-01T01:02:45.000Z</time>
      </trkpt>
      <trkpt lat="44.89227" lon="0.85991">
        <ele>84.8</ele>
        <time>1970-01-01T01:02:46.000Z</time>
      </trkpt>
      <trkpt lat="44.89226" lon="0.85993">
        <ele>85.1</ele>
        <time>1970-01-01T01:02:47.000Z</time>
      </trkpt>
      <trkpt lat="44.89225" lon="0.85995">
        <ele>85.4</ele>
        <time>1970-01-01T01:02:48.000Z</time>
      </trkpt>
      <trkpt lat="44.89224" lon="0.85996">
        <ele>85.7</ele>
        <time>1970-01-01T01:02:49.000Z</time>
      </trkpt>
      <trkpt lat="44.89223" lon="0.85998">
        <ele>86</ele>
        <time>1970-01-01T01:02:50.000Z</time>
      </trkpt>
      <trkpt lat="44.89221" lon="0.86">
        <ele>86.2</ele>
        <time>1970-01-01T01:02:51.000Z</time>
      </trkpt>
      <trkpt lat="44.8922" lon="0.86001">
        <ele>86.5</ele>
        <time>1970-01-01T01:02:52.000Z</time>
      </trkpt>
      <trkpt lat="44.8922" lon="0.86002">
        <ele>86.6</ele>
        <time>1970-01-01T01:02:53.000Z</time>
      </trkpt>
      <trkpt lat="44.8922" lon="0.86003">
        <ele>86.8</ele>
        <time>1970-01-01T01:02:54.000Z</time>
      </trkpt>
      <trkpt lat="44.89221" lon="0.86004">
        <ele>87</ele>
        <time>1970-01-01T01:02:55.000Z</time>
      </trkpt>
      <trkpt lat="44.89222" lon="0.86004">
        <ele>87.2</ele>
        <time>1970-01-01T01:02:56.000Z</time>
      </trkpt>
      <trkpt lat="44.89223" lon="0.86004">
        <ele>87.4</ele>
        <time>1970-01-01T01:02:57.000Z</time>
      </trkpt>
      <trkpt lat="44.89224" lon="0.86003">
        <ele>87.6</ele>
        <time>1970-01-01T01:02:58.000Z</time>
      </trkpt>
      <trkpt lat="44.89226" lon="0.86002">
        <ele>87.9</ele>
        <time>1970-01-01T01:02:59.000Z</time>
      </trkpt>
      <trkpt lat="44.89227" lon="0.86">
        <ele>88.2</ele>
        <time>1970-01-01T01:03:00.000Z</time>
      </trkpt>
      <trkpt lat="44.89228" lon="0.85999">
        <ele>88.6</ele>
        <time>1970-01-01T01:03:01.000Z</time>
      </trkpt>
      <trkpt lat="44.8923" lon="0.85998">
        <ele>88.9</ele>
        <time>1970-01-01T01:03:02.000Z</time>
      </trkpt>
      <trkpt lat="44.89232" lon="0.85997">
        <ele>89.3</ele>
        <time>1970-01-01T01:03:03.000Z</time>
      </trkpt>
      <trkpt lat="44.89234" lon="0.85997">
        <ele>89.6</ele>
        <time>1970-01-01T01:03:04.000Z</time>
      </trkpt>
      <trkpt lat="44.89235" lon="0.85997">
        <ele>89.9</ele>
        <time>1970-01-01T01:03:05.000Z</time>
      </trkpt>
      <trkpt lat="44.89237" lon="0.85996">
        <ele>90.3</ele>
        <time>1970-01-01T01:03:06.000Z</time>
      </trkpt>
      <trkpt lat="44.89239" lon="0.85996">
        <ele>90.6</ele>
        <time>1970-01-01T01:03:07.000Z</time>
      </trkpt>
      <trkpt lat="44.89241" lon="0.85995">
        <ele>90.8</ele>
        <time>1970-01-01T01:03:08.000Z</time>
      </trkpt>
      <trkpt lat="44.89243" lon="0.85994">
        <ele>91.1</ele>
        <time>1970-01-01T01:03:09.000Z</time>
      </trkpt>
      <trkpt lat="44.89245" lon="0.85993">
        <ele>91.4</ele>
        <time>1970-01-01T01:03:10.000Z</time>
      </trkpt>
      <trkpt lat="44.89247" lon="0.85992">
        <ele>91.7</ele>
        <time>1970-01-01T01:03:11.000Z</time>
      </trkpt>
      <trkpt lat="44.89249" lon="0.85991">
        <ele>92.1</ele>
        <time>1970-01-01T01:03:12.000Z</time>
      </trkpt>
      <trkpt lat="44.89251" lon="0.8599">
        <ele>92.4</ele>
        <time>1970-01-01T01:03:13.000Z</time>
      </trkpt>
      <trkpt lat="44.89253" lon="0.85989">
        <ele>92.6</ele>
        <time>1970-01-01T01:03:14.000Z</time>
      </trkpt>
      <trkpt lat="44.89255" lon="0.85989">
        <ele>92.9</ele>
        <time>1970-01-01T01:03:15.000Z</time>
      </trkpt>
      <trkpt lat="44.89257" lon="0.85988">
        <ele>93.2</ele>
        <time>1970-01-01T01:03:16.000Z</time>
      </trkpt>
      <trkpt lat="44.89259" lon="0.85987">
        <ele>93.4</ele>
        <time>1970-01-01T01:03:17.000Z</time>
      </trkpt>
      <trkpt lat="44.89261" lon="0.85987">
        <ele>93.7</ele>
        <time>1970-01-01T01:03:18.000Z</time>
      </trkpt>
      <trkpt lat="44.89263" lon="0.85987">
        <ele>94</ele>
        <time>1970-01-01T01:03:19.000Z</time>
      </trkpt>
      <trkpt lat="44.89265" lon="0.85986">
        <ele>94.3</ele>
        <time>1970-01-01T01:03:20.000Z</time>
      </trkpt>
      <trkpt lat="44.89267" lon="0.85986">
        <ele>94.5</ele>
        <time>1970-01-01T01:03:21.000Z</time>
      </trkpt>
      <trkpt lat="44.89269" lon="0.85986">
        <ele>94.8</ele>
        <time>1970-01-01T01:03:22.000Z</time>
      </trkpt>
      <trkpt lat="44.89271" lon="0.85986">
        <ele>95.1</ele>
        <time>1970-01-01T01:03:23.000Z</time>
      </trkpt>
      <trkpt lat="44.89273" lon="0.85986">
        <ele>95.4</ele>
        <time>1970-01-01T01:03:24.000Z</time>
      </trkpt>
      <trkpt lat="44.89275" lon="0.85985">
        <ele>95.7</ele>
        <time>1970-01-01T01:03:25.000Z</time>
      </trkpt>
      <trkpt lat="44.89277" lon="0.85985">
        <ele>95.9</ele>
        <time>1970-01-01T01:03:26.000Z</time>
      </trkpt>
      <trkpt lat="44.89279" lon="0.85984">
        <ele>96.2</ele>
        <time>1970-01-01T01:03:27.000Z</time>
      </trkpt>
      <trkpt lat="44.89281" lon="0.85983">
        <ele>96.5</ele>
        <time>1970-01-01T01:03:28.000Z</time>
      </trkpt>
      <trkpt lat="44.89283" lon="0.85983">
        <ele>96.7</ele>
        <time>1970-01-01T01:03:29.000Z</time>
      </trkpt>
      <trkpt lat="44.89285" lon="0.85982">
        <ele>97</ele>
        <time>1970-01-01T01:03:30.000Z</time>
      </trkpt>
      <trkpt lat="44.89287" lon="0.85982">
        <ele>97.2</ele>
        <time>1970-01-01T01:03:31.000Z</time>
      </trkpt>
      <trkpt lat="44.89289" lon="0.85981">
        <ele>97.5</ele>
        <time>1970-01-01T01:03:32.000Z</time>
      </trkpt>
      <trkpt lat="44.89291" lon="0.85981">
        <ele>97.7</ele>
        <time>1970-01-01T01:03:33.000Z</time>
      </trkpt>
      <trkpt lat="44.89294" lon="0.8598">
        <ele>98</ele>
        <time>1970-01-01T01:03:34.000Z</time>
      </trkpt>
      <trkpt lat="44.89296" lon="0.8598">
        <ele>98.3</ele>
        <time>1970-01-01T01:03:35.000Z</time>
      </trkpt>
      <trkpt lat="44.89298" lon="0.85979">
        <ele>98.6</ele>
        <time>1970-01-01T01:03:36.000Z</time>
      </trkpt>
      <trkpt lat="44.89301" lon="0.85979">
        <ele>98.8</ele>
        <time>1970-01-01T01:03:37.000Z</time>
      </trkpt>
      <trkpt lat="44.89303" lon="0.85978">
        <ele>99.1</ele>
        <time>1970-01-01T01:03:38.000Z</time>
      </trkpt>
      <trkpt lat="44.89305" lon="0.85977">
        <ele>99.4</ele>
        <time>1970-01-01T01:03:39.000Z</time>
      </trkpt>
      <trkpt lat="44.89308" lon="0.85977">
        <ele>99.7</ele>
        <time>1970-01-01T01:03:40.000Z</time>
      </trkpt>
      <trkpt lat="44.8931" lon="0.85976">
        <ele>100</ele>
        <time>1970-01-01T01:03:41.000Z</time>
      </trkpt>
      <trkpt lat="44.89313" lon="0.85976">
        <ele>100.2</ele>
        <time>1970-01-01T01:03:42.000Z</time>
      </trkpt>
      <trkpt lat="44.89315" lon="0.85975">
        <ele>100.5</ele>
        <time>1970-01-01T01:03:43.000Z</time>
      </trkpt>
      <trkpt lat="44.89318" lon="0.85975">
        <ele>100.8</ele>
        <time>1970-01-01T01:03:44.000Z</time>
      </trkpt>
      <trkpt lat="44.89321" lon="0.85975">
        <ele>101.1</ele>
        <time>1970-01-01T01:03:45.000Z</time>
      </trkpt>
      <trkpt lat="44.89324" lon="0.85974">
        <ele>101.3</ele>
        <time>1970-01-01T01:03:46.000Z</time>
      </trkpt>
      <trkpt lat="44.89327" lon="0.85973">
        <ele>101.6</ele>
        <time>1970-01-01T01:03:47.000Z</time>
      </trkpt>
      <trkpt lat="44.89329" lon="0.85972">
        <ele>101.8</ele>
        <time>1970-01-01T01:03:48.000Z</time>
      </trkpt>
      <trkpt lat="44.89332" lon="0.85971">
        <ele>102</ele>
        <time>1970-01-01T01:03:49.000Z</time>
      </trkpt>
      <trkpt lat="44.89335" lon="0.85971">
        <ele>102.2</ele>
        <time>1970-01-01T01:03:50.000Z</time>
      </trkpt>
      <trkpt lat="44.89338" lon="0.8597">
        <ele>102.4</ele>
        <time>1970-01-01T01:03:51.000Z</time>
      </trkpt>
      <trkpt lat="44.89341" lon="0.8597">
        <ele>102.6</ele>
        <time>1970-01-01T01:03:52.000Z</time>
      </trkpt>
      <trkpt lat="44.89344" lon="0.8597">
        <ele>102.8</ele>
        <time>1970-01-01T01:03:53.000Z</time>
      </trkpt>
      <trkpt lat="44.89346" lon="0.8597">
        <ele>103</ele>
        <time>1970-01-01T01:03:54.000Z</time>
      </trkpt>
      <trkpt lat="44.89349" lon="0.8597">
        <ele>103.2</ele>
        <time>1970-01-01T01:03:55.000Z</time>
      </trkpt>
      <trkpt lat="44.89352" lon="0.8597">
        <ele>103.3</ele>
        <time>1970-01-01T01:03:56.000Z</time>
      </trkpt>
      <trkpt lat="44.89354" lon="0.8597">
        <ele>103.5</ele>
        <time>1970-01-01T01:03:57.000Z</time>
      </trkpt>
      <trkpt lat="44.89357" lon="0.8597">
        <ele>103.6</ele>
        <time>1970-01-01T01:03:58.000Z</time>
      </trkpt>
      <trkpt lat="44.8936" lon="0.8597">
        <ele>103.7</ele>
        <time>1970-01-01T01:03:59.000Z</time>
      </trkpt>
      <trkpt lat="44.89363" lon="0.8597">
        <ele>103.9</ele>
        <time>1970-01-01T01:04:00.000Z</time>
      </trkpt>
      <trkpt lat="44.89365" lon="0.85969">
        <ele>104</ele>
        <time>1970-01-01T01:04:01.000Z</time>
      </trkpt>
      <trkpt lat="44.89368" lon="0.85969">
        <ele>104.2</ele>
        <time>1970-01-01T01:04:02.000Z</time>
      </trkpt>
      <trkpt lat="44.8937" lon="0.85968">
        <ele>104.3</ele>
        <time>1970-01-01T01:04:03.000Z</time>
      </trkpt>
      <trkpt lat="44.89373" lon="0.85968">
        <ele>104.5</ele>
        <time>1970-01-01T01:04:04.000Z</time>
      </trkpt>
      <trkpt lat="44.89375" lon="0.85967">
        <ele>104.6</ele>
        <time>1970-01-01T01:04:05.000Z</time>
      </trkpt>
      <trkpt lat="44.89377" lon="0.85967">
        <ele>104.8</ele>
        <time>1970-01-01T01:04:06.000Z</time>
      </trkpt>
      <trkpt lat="44.89379" lon="0.85966">
        <ele>104.9</ele>
        <time>1970-01-01T01:04:07.000Z</time>
      </trkpt>
      <trkpt lat="44.89381" lon="0.85966">
        <ele>105.1</ele>
        <time>1970-01-01T01:04:08.000Z</time>
      </trkpt>
      <trkpt lat="44.89383" lon="0.85965">
        <ele>105.3</ele>
        <time>1970-01-01T01:04:09.000Z</time>
      </trkpt>
      <trkpt lat="44.89385" lon="0.85964">
        <ele>105.4</ele>
        <time>1970-01-01T01:04:10.000Z</time>
      </trkpt>
      <trkpt lat="44.89386" lon="0.85964">
        <ele>105.6</ele>
        <time>1970-01-01T01:04:11.000Z</time>
      </trkpt>
      <trkpt lat="44.89388" lon="0.85963">
        <ele>105.8</ele>
        <time>1970-01-01T01:04:12.000Z</time>
      </trkpt>
      <trkpt lat="44.8939" lon="0.85962">
        <ele>105.9</ele>
        <time>1970-01-01T01:04:13.000Z</time>
      </trkpt>
      <trkpt lat="44.89391" lon="0.85961">
        <ele>106.1</ele>
        <time>1970-01-01T01:04:14.000Z</time>
      </trkpt>
      <trkpt lat="44.89393" lon="0.8596">
        <ele>106.3</ele>
        <time>1970-01-01T01:04:15.000Z</time>
      </trkpt>
      <trkpt lat="44.89394" lon="0.8596">
        <ele>106.5</ele>
        <time>1970-01-01T01:04:16.000Z</time>
      </trkpt>
      <trkpt lat="44.89396" lon="0.85959">
        <ele>106.7</ele>
        <time>1970-01-01T01:04:17.000Z</time>
      </trkpt>
      <trkpt lat="44.89397" lon="0.85957">
        <ele>106.9</ele>
        <time>1970-01-01T01:04:18.000Z</time>
      </trkpt>
      <trkpt lat="44.89399" lon="0.85956">
        <ele>107.1</ele>
        <time>1970-01-01T01:04:19.000Z</time>
      </trkpt>
      <trkpt lat="44.89401" lon="0.85955">
        <ele>107.4</ele>
        <time>1970-01-01T01:04:20.000Z</time>
      </trkpt>
      <trkpt lat="44.89402" lon="0.85954">
        <ele>107.6</ele>
        <time>1970-01-01T01:04:21.000Z</time>
      </trkpt>
      <trkpt lat="44.89404" lon="0.85952">
        <ele>107.9</ele>
        <time>1970-01-01T01:04:22.000Z</time>
      </trkpt>
      <trkpt lat="44.89405" lon="0.85951">
        <ele>108.1</ele>
        <time>1970-01-01T01:04:23.000Z</time>
      </trkpt>
      <trkpt lat="44.89407" lon="0.8595">
        <ele>108.4</ele>
        <time>1970-01-01T01:04:24.000Z</time>
      </trkpt>
      <trkpt lat="44.89409" lon="0.85949">
        <ele>108.8</ele>
        <time>1970-01-01T01:04:25.000Z</time>
      </trkpt>
      <trkpt lat="44.89411" lon="0.85948">
        <ele>109.1</ele>
        <time>1970-01-01T01:04:26.000Z</time>
      </trkpt>
      <trkpt lat="44.89414" lon="0.85947">
        <ele>109.5</ele>
        <time>1970-01-01T01:04:27.000Z</time>
      </trkpt>
      <trkpt lat="44.89416" lon="0.85946">
        <ele>109.9</ele>
        <time>1970-01-01T01:04:28.000Z</time>
      </trkpt>
      <trkpt lat="44.89418" lon="0.85945">
        <ele>110.3</ele>
        <time>1970-01-01T01:04:29.000Z</time>
      </trkpt>
      <trkpt lat="44.89419" lon="0.85944">
        <ele>110.6</ele>
        <time>1970-01-01T01:04:30.000Z</time>
      </trkpt>
      <trkpt lat="44.89421" lon="0.85943">
        <ele>110.9</ele>
        <time>1970-01-01T01:04:31.000Z</time>
      </trkpt>
      <trkpt lat="44.89423" lon="0.85943">
        <ele>111.2</ele>
        <time>1970-01-01T01:04:32.000Z</time>
      </trkpt>
      <trkpt lat="44.89424" lon="0.85942">
        <ele>111.4</ele>
        <time>1970-01-01T01:04:33.000Z</time>
      </trkpt>
      <trkpt lat="44.89426" lon="0.85941">
        <ele>111.7</ele>
        <time>1970-01-01T01:04:34.000Z</time>
      </trkpt>
      <trkpt lat="44.89428" lon="0.85941">
        <ele>112</ele>
        <time>1970-01-01T01:04:35.000Z</time>
      </trkpt>
      <trkpt lat="44.89429" lon="0.85941">
        <ele>112.2</ele>
        <time>1970-01-01T01:04:36.000Z</time>
      </trkpt>
      <trkpt lat="44.8943" lon="0.8594">
        <ele>112.4</ele>
        <time>1970-01-01T01:04:37.000Z</time>
      </trkpt>
      <trkpt lat="44.89432" lon="0.8594">
        <ele>112.7</ele>
        <time>1970-01-01T01:04:38.000Z</time>
      </trkpt>
      <trkpt lat="44.89434" lon="0.85939">
        <ele>113</ele>
        <time>1970-01-01T01:04:39.000Z</time>
      </trkpt>
      <trkpt lat="44.89436" lon="0.85939">
        <ele>113.2</ele>
        <time>1970-01-01T01:04:40.000Z</time>
      </trkpt>
      <trkpt lat="44.89438" lon="0.85938">
        <ele>113.5</ele>
        <time>1970-01-01T01:04:41.000Z</time>
      </trkpt>
      <trkpt lat="44.8944" lon="0.85938">
        <ele>113.7</ele>
        <time>1970-01-01T01:04:42.000Z</time>
      </trkpt>
      <trkpt lat="44.89442" lon="0.85938">
        <ele>113.9</ele>
        <time>1970-01-01T01:04:43.000Z</time>
      </trkpt>
      <trkpt lat="44.89444" lon="0.85938">
        <ele>114.2</ele>
        <time>1970-01-01T01:04:44.000Z</time>
      </trkpt>
      <trkpt lat="44.89445" lon="0.85938">
        <ele>114.4</ele>
        <time>1970-01-01T01:04:45.000Z</time>
      </trkpt>
      <trkpt lat="44.89447" lon="0.85938">
        <ele>114.6</ele>
        <time>1970-01-01T01:04:46.000Z</time>
      </trkpt>
      <trkpt lat="44.89449" lon="0.85938">
        <ele>114.9</ele>
        <time>1970-01-01T01:04:47.000Z</time>
      </trkpt>
      <trkpt lat="44.89451" lon="0.85937">
        <ele>115.1</ele>
        <time>1970-01-01T01:04:48.000Z</time>
      </trkpt>
      <trkpt lat="44.89454" lon="0.85937">
        <ele>115.4</ele>
        <time>1970-01-01T01:04:49.000Z</time>
      </trkpt>
      <trkpt lat="44.89455" lon="0.85937">
        <ele>115.7</ele>
        <time>1970-01-01T01:04:50.000Z</time>
      </trkpt>
      <trkpt lat="44.89457" lon="0.85937">
        <ele>115.9</ele>
        <time>1970-01-01T01:04:51.000Z</time>
      </trkpt>
      <trkpt lat="44.89459" lon="0.85937">
        <ele>116.1</ele>
        <time>1970-01-01T01:04:52.000Z</time>
      </trkpt>
      <trkpt lat="44.89461" lon="0.85936">
        <ele>116.3</ele>
        <time>1970-01-01T01:04:53.000Z</time>
      </trkpt>
      <trkpt lat="44.89463" lon="0.85936">
        <ele>116.6</ele>
        <time>1970-01-01T01:04:54.000Z</time>
      </trkpt>
      <trkpt lat="44.89465" lon="0.85935">
        <ele>116.8</ele>
        <time>1970-01-01T01:04:55.000Z</time>
      </trkpt>
      <trkpt lat="44.89466" lon="0.85935">
        <ele>117</ele>
        <time>1970-01-01T01:04:56.000Z</time>
      </trkpt>
      <trkpt lat="44.89468" lon="0.85935">
        <ele>117.3</ele>
        <time>1970-01-01T01:04:57.000Z</time>
      </trkpt>
      <trkpt lat="44.8947" lon="0.85934">
        <ele>117.5</ele>
        <time>1970-01-01T01:04:58.000Z</time>
      </trkpt>
      <trkpt lat="44.89473" lon="0.85934">
        <ele>117.8</ele>
        <time>1970-01-01T01:04:59.000Z</time>
      </trkpt>
      <trkpt lat="44.89475" lon="0.85934">
        <ele>118.1</ele>
        <time>1970-01-01T01:05:00.000Z</time>
      </trkpt>
      <trkpt lat="44.89478" lon="0.85934">
        <ele>118.4</ele>
        <time>1970-01-01T01:05:01.000Z</time>
      </trkpt>
      <trkpt lat="44.8948" lon="0.85934">
        <ele>118.7</ele>
        <time>1970-01-01T01:05:02.000Z</time>
      </trkpt>
      <trkpt lat="44.89482" lon="0.85934">
        <ele>118.9</ele>
        <time>1970-01-01T01:05:03.000Z</time>
      </trkpt>
      <trkpt lat="44.89484" lon="0.85934">
        <ele>119.2</ele>
        <time>1970-01-01T01:05:04.000Z</time>
      </trkpt>
      <trkpt lat="44.89486" lon="0.85933">
        <ele>119.4</ele>
        <time>1970-01-01T01:05:05.000Z</time>
      </trkpt>
      <trkpt lat="44.89488" lon="0.85933">
        <ele>119.6</ele>
        <time>1970-01-01T01:05:06.000Z</time>
      </trkpt>
      <trkpt lat="44.8949" lon="0.85933">
        <ele>119.8</ele>
        <time>1970-01-01T01:05:07.000Z</time>
      </trkpt>
      <trkpt lat="44.89491" lon="0.85932">
        <ele>120</ele>
        <time>1970-01-01T01:05:08.000Z</time>
      </trkpt>
      <trkpt lat="44.89493" lon="0.85931">
        <ele>120.2</ele>
        <time>1970-01-01T01:05:09.000Z</time>
      </trkpt>
      <trkpt lat="44.89494" lon="0.85929">
        <ele>120.4</ele>
        <time>1970-01-01T01:05:10.000Z</time>
      </trkpt>
      <trkpt lat="44.89495" lon="0.85928">
        <ele>120.6</ele>
        <time>1970-01-01T01:05:11.000Z</time>
      </trkpt>
      <trkpt lat="44.89496" lon="0.85926">
        <ele>120.8</ele>
        <time>1970-01-01T01:05:12.000Z</time>
      </trkpt>
      <trkpt lat="44.89497" lon="0.85925">
        <ele>121</ele>
        <time>1970-01-01T01:05:13.000Z</time>
      </trkpt>
      <trkpt lat="44.89498" lon="0.85923">
        <ele>121.2</ele>
        <time>1970-01-01T01:05:14.000Z</time>
      </trkpt>
      <trkpt lat="44.89499" lon="0.85923">
        <ele>121.3</ele>
        <time>1970-01-01T01:05:15.000Z</time>
      </trkpt>
      <trkpt lat="44.89499" lon="0.85922">
        <ele>121.3</ele>
        <time>1970-01-01T01:05:16.000Z</time>
      </trkpt>
      <trkpt lat="44.89499" lon="0.85923">
        <ele>121.3</ele>
        <time>1970-01-01T01:05:17.000Z</time>
      </trkpt>
      <trkpt lat="44.89499" lon="0.85923">
        <ele>121.3</ele>
        <time>1970-01-01T01:05:18.000Z</time>
      </trkpt>
      <trkpt lat="44.89499" lon="0.85923">
        <ele>121.4</ele>
        <time>1970-01-01T01:05:19.000Z</time>
      </trkpt>
      <trkpt lat="44.89499" lon="0.85922">
        <ele>121.4</ele>
        <time>1970-01-01T01:05:20.000Z</time>
      </trkpt>
      <trkpt lat="44.895" lon="0.85922">
        <ele>121.5</ele>
        <time>1970-01-01T01:05:21.000Z</time>
      </trkpt>
      <trkpt lat="44.895" lon="0.85922">
        <ele>121.5</ele>
        <time>1970-01-01T01:05:22.000Z</time>
      </trkpt>
      <trkpt lat="44.895" lon="0.85922">
        <ele>121.5</ele>
        <time>1970-01-01T01:05:23.000Z</time>
      </trkpt>
      <trkpt lat="44.895" lon="0.85922">
        <ele>121.5</ele>
        <time>1970-01-01T01:05:24.000Z</time>
      </trkpt>
      <trkpt lat="44.895" lon="0.85922">
        <ele>121.5</ele>
        <time>1970-01-01T01:05:25.000Z</time>
      </trkpt>
      <trkpt lat="44.895" lon="0.85922">
        <ele>121.5</ele>
        <time>1970-01-01T01:05:26.000Z</time>
      </trkpt>
      <trkpt lat="44.895" lon="0.85922">
        <ele>121.6</ele>
        <time>1970-01-01T01:05:27.000Z</time>
      </trkpt>
      <trkpt lat="44.89501" lon="0.85922">
        <ele>121.6</ele>
        <time>1970-01-01T01:05:28.000Z</time>
      </trkpt>
      <trkpt lat="44.89501" lon="0.85922">
        <ele>121.6</ele>
        <time>1970-01-01T01:05:29.000Z</time>
      </trkpt>
      <trkpt lat="44.89501" lon="0.85922">
        <ele>121.7</ele>
        <time>1970-01-01T01:05:30.000Z</time>
      </trkpt>
      <trkpt lat="44.89502" lon="0.85921">
        <ele>121.7</ele>
        <time>1970-01-01T01:05:31.000Z</time>
      </trkpt>
      <trkpt lat="44.89502" lon="0.85921">
        <ele>121.8</ele>
        <time>1970-01-01T01:05:32.000Z</time>
      </trkpt>
      <trkpt lat="44.89503" lon="0.8592">
        <ele>121.9</ele>
        <time>1970-01-01T01:05:33.000Z</time>
      </trkpt>
      <trkpt lat="44.89503" lon="0.8592">
        <ele>121.9</ele>
        <time>1970-01-01T01:05:34.000Z</time>
      </trkpt>
      <trkpt lat="44.89503" lon="0.85919">
        <ele>122</ele>
        <time>1970-01-01T01:05:35.000Z</time>
      </trkpt>
      <trkpt lat="44.89503" lon="0.85919">
        <ele>122</ele>
        <time>1970-01-01T01:05:36.000Z</time>
      </trkpt>
      <trkpt lat="44.89503" lon="0.85919">
        <ele>122</ele>
        <time>1970-01-01T01:05:37.000Z</time>
      </trkpt>
      <trkpt lat="44.89503" lon="0.85919">
        <ele>122</ele>
        <time>1970-01-01T01:05:38.000Z</time>
      </trkpt>
      <trkpt lat="44.89503" lon="0.85919">
        <ele>122</ele>
        <time>1970-01-01T01:05:39.000Z</time>
      </trkpt>
      <trkpt lat="44.89503" lon="0.85919">
        <ele>122</ele>
        <time>1970-01-01T01:05:40.000Z</time>
      </trkpt>
      <trkpt lat="44.89503" lon="0.85919">
        <ele>122</ele>
        <time>1970-01-01T01:05:41.000Z</time>
      </trkpt>
      <trkpt lat="44.89503" lon="0.85919">
        <ele>122.1</ele>
        <time>1970-01-01T01:05:42.000Z</time>
      </trkpt>
      <trkpt lat="44.89503" lon="0.85919">
        <ele>122.1</ele>
        <time>1970-01-01T01:05:43.000Z</time>
      </trkpt>
      <trkpt lat="44.89503" lon="0.85919">
        <ele>122.1</ele>
        <time>1970-01-01T01:05:44.000Z</time>
      </trkpt>
      <trkpt lat="44.89503" lon="0.85919">
        <ele>122.1</ele>
        <time>1970-01-01T01:05:45.000Z</time>
      </trkpt>
      <trkpt lat="44.89503" lon="0.85919">
        <ele>122.1</ele>
        <time>1970-01-01T01:05:46.000Z</time>
      </trkpt>
      <trkpt lat="44.89503" lon="0.85919">
        <ele>122.1</ele>
        <time>1970-01-01T01:05:47.000Z</time>
      </trkpt>
      <trkpt lat="44.89503" lon="0.85919">
        <ele>122.2</ele>
        <time>1970-01-01T01:05:48.000Z</time>
      </trkpt>
      <trkpt lat="44.89503" lon="0.85919">
        <ele>122.2</ele>
        <time>1970-01-01T01:05:49.000Z</time>
      </trkpt>
      <trkpt lat="44.89502" lon="0.85919">
        <ele>122.2</ele>
        <time>1970-01-01T01:05:50.000Z</time>
      </trkpt>
      <trkpt lat="44.89502" lon="0.85919">
        <ele>122.2</ele>
        <time>1970-01-01T01:05:51.000Z</time>
      </trkpt>
      <trkpt lat="44.89501" lon="0.8592">
        <ele>122.3</ele>
        <time>1970-01-01T01:05:52.000Z</time>
      </trkpt>
      <trkpt lat="44.89501" lon="0.8592">
        <ele>122.4</ele>
        <time>1970-01-01T01:05:53.000Z</time>
      </trkpt>
      <trkpt lat="44.89501" lon="0.8592">
        <ele>122.4</ele>
        <time>1970-01-01T01:05:54.000Z</time>
      </trkpt>
      <trkpt lat="44.89501" lon="0.8592">
        <ele>122.4</ele>
        <time>1970-01-01T01:05:55.000Z</time>
      </trkpt>
      <trkpt lat="44.89501" lon="0.85921">
        <ele>122.4</ele>
        <time>1970-01-01T01:05:56.000Z</time>
      </trkpt>
      <trkpt lat="44.895" lon="0.85921">
        <ele>122.4</ele>
        <time>1970-01-01T01:05:57.000Z</time>
      </trkpt>
      <trkpt lat="44.895" lon="0.85921">
        <ele>122.5</ele>
        <time>1970-01-01T01:05:58.000Z</time>
      </trkpt>
      <trkpt lat="44.895" lon="0.85921">
        <ele>122.5</ele>
        <time>1970-01-01T01:05:59.000Z</time>
      </trkpt>
      <trkpt lat="44.895" lon="0.85921">
        <ele>122.5</ele>
        <time>1970-01-01T01:06:00.000Z</time>
      </trkpt>
      <trkpt lat="44.895" lon="0.85921">
        <ele>122.6</ele>
        <time>1970-01-01T01:06:01.000Z</time>
      </trkpt>
      <trkpt lat="44.895" lon="0.85921">
        <ele>122.6</ele>
        <time>1970-01-01T01:06:02.000Z</time>
      </trkpt>
      <trkpt lat="44.89499" lon="0.85921">
        <ele>122.6</ele>
        <time>1970-01-01T01:06:03.000Z</time>
      </trkpt>
      <trkpt lat="44.89499" lon="0.85921">
        <ele>122.6</ele>
        <time>1970-01-01T01:06:04.000Z</time>
      </trkpt>
      <trkpt lat="44.89499" lon="0.85921">
        <ele>122.6</ele>
        <time>1970-01-01T01:06:05.000Z</time>
      </trkpt>
      <trkpt lat="44.895" lon="0.85921">
        <ele>122.7</ele>
        <time>1970-01-01T01:06:06.000Z</time>
      </trkpt>
      <trkpt lat="44.895" lon="0.85921">
        <ele>122.7</ele>
        <time>1970-01-01T01:06:07.000Z</time>
      </trkpt>
      <trkpt lat="44.895" lon="0.8592">
        <ele>122.7</ele>
        <time>1970-01-01T01:06:08.000Z</time>
      </trkpt>
      <trkpt lat="44.895" lon="0.8592">
        <ele>122.7</ele>
        <time>1970-01-01T01:06:09.000Z</time>
      </trkpt>
      <trkpt lat="44.895" lon="0.8592">
        <ele>122.8</ele>
        <time>1970-01-01T01:06:10.000Z</time>
      </trkpt>
      <trkpt lat="44.895" lon="0.8592">
        <ele>122.8</ele>
        <time>1970-01-01T01:06:11.000Z</time>
      </trkpt>
      <trkpt lat="44.89501" lon="0.8592">
        <ele>122.8</ele>
        <time>1970-01-01T01:06:12.000Z</time>
      </trkpt>
      <trkpt lat="44.89501" lon="0.8592">
        <ele>122.8</ele>
        <time>1970-01-01T01:06:13.000Z</time>
      </trkpt>
      <trkpt lat="44.89501" lon="0.8592">
        <ele>122.8</ele>
        <time>1970-01-01T01:06:14.000Z</time>
      </trkpt>
      <trkpt lat="44.89501" lon="0.8592">
        <ele>122.9</ele>
        <time>1970-01-01T01:06:15.000Z</time>
      </trkpt>
      <trkpt lat="44.89501" lon="0.8592">
        <ele>122.9</ele>
        <time>1970-01-01T01:06:16.000Z</time>
      </trkpt>
      <trkpt lat="44.89501" lon="0.8592">
        <ele>122.9</ele>
        <time>1970-01-01T01:06:17.000Z</time>
      </trkpt>
      <trkpt lat="44.895" lon="0.8592">
        <ele>123</ele>
        <time>1970-01-01T01:06:18.000Z</time>
      </trkpt>
      <trkpt lat="44.895" lon="0.8592">
        <ele>123</ele>
        <time>1970-01-01T01:06:19.000Z</time>
      </trkpt>
      <trkpt lat="44.895" lon="0.8592">
        <ele>123</ele>
        <time>1970-01-01T01:06:20.000Z</time>
      </trkpt>
      <trkpt lat="44.895" lon="0.8592">
        <ele>123</ele>
        <time>1970-01-01T01:06:21.000Z</time>
      </trkpt>
      <trkpt lat="44.895" lon="0.8592">
        <ele>123</ele>
        <time>1970-01-01T01:06:22.000Z</time>
      </trkpt>
      <trkpt lat="44.895" lon="0.8592">
        <ele>123.1</ele>
        <time>1970-01-01T01:06:23.000Z</time>
      </trkpt>
      <trkpt lat="44.895" lon="0.8592">
        <ele>123.1</ele>
        <time>1970-01-01T01:06:24.000Z</time>
      </trkpt>
      <trkpt lat="44.895" lon="0.8592">
        <ele>123.1</ele>
        <time>1970-01-01T01:06:25.000Z</time>
      </trkpt>
      <trkpt lat="44.895" lon="0.8592">
        <ele>123.1</ele>
        <time>1970-01-01T01:06:26.000Z</time>
      </trkpt>
      <trkpt lat="44.895" lon="0.8592">
        <ele>123.2</ele>
        <time>1970-01-01T01:06:27.000Z</time>
      </trkpt>
      <trkpt lat="44.895" lon="0.85919">
        <ele>123.2</ele>
        <time>1970-01-01T01:06:28.000Z</time>
      </trkpt>
      <trkpt lat="44.895" lon="0.85919">
        <ele>123.2</ele>
        <time>1970-01-01T01:06:29.000Z</time>
      </trkpt>
      <trkpt lat="44.89501" lon="0.85919">
        <ele>123.2</ele>
        <time>1970-01-01T01:06:30.000Z</time>
      </trkpt>
      <trkpt lat="44.89501" lon="0.85918">
        <ele>123.3</ele>
        <time>1970-01-01T01:06:31.000Z</time>
      </trkpt>
      <trkpt lat="44.89502" lon="0.85917">
        <ele>123.4</ele>
        <time>1970-01-01T01:06:32.000Z</time>
      </trkpt>
      <trkpt lat="44.89502" lon="0.85916">
        <ele>123.5</ele>
        <time>1970-01-01T01:06:33.000Z</time>
      </trkpt>
      <trkpt lat="44.89503" lon="0.85916">
        <ele>123.5</ele>
        <time>1970-01-01T01:06:34.000Z</time>
      </trkpt>
      <trkpt lat="44.89503" lon="0.85916">
        <ele>123.5</ele>
        <time>1970-01-01T01:06:35.000Z</time>
      </trkpt>
      <trkpt lat="44.89503" lon="0.85915">
        <ele>123.6</ele>
        <time>1970-01-01T01:06:36.000Z</time>
      </trkpt>
      <trkpt lat="44.89504" lon="0.85915">
        <ele>123.6</ele>
        <time>1970-01-01T01:06:37.000Z</time>
      </trkpt>
      <trkpt lat="44.89504" lon="0.85915">
        <ele>123.6</ele>
        <time>1970-01-01T01:06:38.000Z</time>
      </trkpt>
      <trkpt lat="44.89504" lon="0.85915">
        <ele>123.6</ele>
        <time>1970-01-01T01:06:39.000Z</time>
      </trkpt>
      <trkpt lat="44.89504" lon="0.85915">
        <ele>123.6</ele>
        <time>1970-01-01T01:06:40.000Z</time>
      </trkpt>
      <trkpt lat="44.89504" lon="0.85914">
        <ele>123.6</ele>
        <time>1970-01-01T01:06:41.000Z</time>
      </trkpt>
      <trkpt lat="44.89504" lon="0.85914">
        <ele>123.7</ele>
        <time>1970-01-01T01:06:42.000Z</time>
      </trkpt>
      <trkpt lat="44.89504" lon="0.85914">
        <ele>123.7</ele>
        <time>1970-01-01T01:06:43.000Z</time>
      </trkpt>
      <trkpt lat="44.89504" lon="0.85914">
        <ele>123.7</ele>
        <time>1970-01-01T01:06:44.000Z</time>
      </trkpt>
      <trkpt lat="44.89504" lon="0.85914">
        <ele>123.7</ele>
        <time>1970-01-01T01:06:45.000Z</time>
      </trkpt>
      <trkpt lat="44.89504" lon="0.85914">
        <ele>123.7</ele>
        <time>1970-01-01T01:06:46.000Z</time>
      </trkpt>
      <trkpt lat="44.89505" lon="0.85913">
        <ele>123.7</ele>
        <time>1970-01-01T01:06:47.000Z</time>
      </trkpt>
      <trkpt lat="44.89505" lon="0.85913">
        <ele>123.8</ele>
        <time>1970-01-01T01:06:48.000Z</time>
      </trkpt>
      <trkpt lat="44.89506" lon="0.85912">
        <ele>123.8</ele>
        <time>1970-01-01T01:06:49.000Z</time>
      </trkpt>
      <trkpt lat="44.89506" lon="0.85912">
        <ele>123.9</ele>
        <time>1970-01-01T01:06:50.000Z</time>
      </trkpt>
      <trkpt lat="44.89507" lon="0.85912">
        <ele>123.9</ele>
        <time>1970-01-01T01:06:51.000Z</time>
      </trkpt>
      <trkpt lat="44.89507" lon="0.85911">
        <ele>123.9</ele>
        <time>1970-01-01T01:06:52.000Z</time>
      </trkpt>
      <trkpt lat="44.89507" lon="0.85911">
        <ele>124</ele>
        <time>1970-01-01T01:06:53.000Z</time>
      </trkpt>
      <trkpt lat="44.89508" lon="0.85911">
        <ele>124</ele>
        <time>1970-01-01T01:06:54.000Z</time>
      </trkpt>
      <trkpt lat="44.89508" lon="0.85911">
        <ele>124.1</ele>
        <time>1970-01-01T01:06:55.000Z</time>
      </trkpt>
      <trkpt lat="44.89508" lon="0.8591">
        <ele>124.1</ele>
        <time>1970-01-01T01:06:56.000Z</time>
      </trkpt>
      <trkpt lat="44.89508" lon="0.8591">
        <ele>124.1</ele>
        <time>1970-01-01T01:06:57.000Z</time>
      </trkpt>
      <trkpt lat="44.89508" lon="0.8591">
        <ele>124.1</ele>
        <time>1970-01-01T01:06:58.000Z</time>
      </trkpt>
      <trkpt lat="44.89508" lon="0.8591">
        <ele>124.1</ele>
        <time>1970-01-01T01:06:59.000Z</time>
      </trkpt>
      <trkpt lat="44.89509" lon="0.8591">
        <ele>124.1</ele>
        <time>1970-01-01T01:07:00.000Z</time>
      </trkpt>
      <trkpt lat="44.89509" lon="0.85909">
        <ele>124.2</ele>
        <time>1970-01-01T01:07:01.000Z</time>
      </trkpt>
      <trkpt lat="44.89509" lon="0.85909">
        <ele>124.2</ele>
        <time>1970-01-01T01:07:02.000Z</time>
      </trkpt>
      <trkpt lat="44.8951" lon="0.85909">
        <ele>124.2</ele>
        <time>1970-01-01T01:07:03.000Z</time>
      </trkpt>
      <trkpt lat="44.89509" lon="0.85909">
        <ele>124.2</ele>
        <time>1970-01-01T01:07:04.000Z</time>
      </trkpt>
      <trkpt lat="44.89509" lon="0.85909">
        <ele>124.2</ele>
        <time>1970-01-01T01:07:05.000Z</time>
      </trkpt>
      <trkpt lat="44.89509" lon="0.8591">
        <ele>124.2</ele>
        <time>1970-01-01T01:07:06.000Z</time>
      </trkpt>
      <trkpt lat="44.89509" lon="0.8591">
        <ele>124.2</ele>
        <time>1970-01-01T01:07:07.000Z</time>
      </trkpt>
      <trkpt lat="44.89509" lon="0.8591">
        <ele>124.2</ele>
        <time>1970-01-01T01:07:08.000Z</time>
      </trkpt>
      <trkpt lat="44.89509" lon="0.8591">
        <ele>124.2</ele>
        <time>1970-01-01T01:07:09.000Z</time>
      </trkpt>
      <trkpt lat="44.89509" lon="0.8591">
        <ele>124.2</ele>
        <time>1970-01-01T01:07:10.000Z</time>
      </trkpt>
      <trkpt lat="44.89509" lon="0.8591">
        <ele>124.3</ele>
        <time>1970-01-01T01:07:11.000Z</time>
      </trkpt>
      <trkpt lat="44.89509" lon="0.8591">
        <ele>124.3</ele>
        <time>1970-01-01T01:07:12.000Z</time>
      </trkpt>
      <trkpt lat="44.89509" lon="0.8591">
        <ele>124.3</ele>
        <time>1970-01-01T01:07:13.000Z</time>
      </trkpt>
      <trkpt lat="44.89508" lon="0.85911">
        <ele>124.3</ele>
        <time>1970-01-01T01:07:14.000Z</time>
      </trkpt>
      <trkpt lat="44.89508" lon="0.85911">
        <ele>124.3</ele>
        <time>1970-01-01T01:07:15.000Z</time>
      </trkpt>
      <trkpt lat="44.89508" lon="0.85911">
        <ele>124.3</ele>
        <time>1970-01-01T01:07:16.000Z</time>
      </trkpt>
      <trkpt lat="44.89508" lon="0.85911">
        <ele>124.3</ele>
        <time>1970-01-01T01:07:17.000Z</time>
      </trkpt>
      <trkpt lat="44.89507" lon="0.85911">
        <ele>124.4</ele>
        <time>1970-01-01T01:07:18.000Z</time>
      </trkpt>
      <trkpt lat="44.89507" lon="0.85912">
        <ele>124.4</ele>
        <time>1970-01-01T01:07:19.000Z</time>
      </trkpt>
      <trkpt lat="44.89506" lon="0.85912">
        <ele>124.5</ele>
        <time>1970-01-01T01:07:20.000Z</time>
      </trkpt>
      <trkpt lat="44.89506" lon="0.85912">
        <ele>124.6</ele>
        <time>1970-01-01T01:07:21.000Z</time>
      </trkpt>
      <trkpt lat="44.89505" lon="0.85912">
        <ele>124.6</ele>
        <time>1970-01-01T01:07:22.000Z</time>
      </trkpt>
      <trkpt lat="44.89505" lon="0.85913">
        <ele>124.6</ele>
        <time>1970-01-01T01:07:23.000Z</time>
      </trkpt>
      <trkpt lat="44.89505" lon="0.85913">
        <ele>124.6</ele>
        <time>1970-01-01T01:07:24.000Z</time>
      </trkpt>
      <trkpt lat="44.89504" lon="0.85913">
        <ele>124.6</ele>
        <time>1970-01-01T01:07:25.000Z</time>
      </trkpt>
      <trkpt lat="44.89504" lon="0.85914">
        <ele>124.6</ele>
        <time>1970-01-01T01:07:26.000Z</time>
      </trkpt>
      <trkpt lat="44.89503" lon="0.85914">
        <ele>124.7</ele>
        <time>1970-01-01T01:07:27.000Z</time>
      </trkpt>
      <trkpt lat="44.89503" lon="0.85915">
        <ele>124.7</ele>
        <time>1970-01-01T01:07:28.000Z</time>
      </trkpt>
      <trkpt lat="44.89503" lon="0.85915">
        <ele>124.7</ele>
        <time>1970-01-01T01:07:29.000Z</time>
      </trkpt>
      <trkpt lat="44.89502" lon="0.85915">
        <ele>124.7</ele>
        <time>1970-01-01T01:07:30.000Z</time>
      </trkpt>
      <trkpt lat="44.89502" lon="0.85915">
        <ele>124.7</ele>
        <time>1970-01-01T01:07:31.000Z</time>
      </trkpt>
      <trkpt lat="44.89502" lon="0.85914">
        <ele>124.7</ele>
        <time>1970-01-01T01:07:32.000Z</time>
      </trkpt>
      <trkpt lat="44.89502" lon="0.85914">
        <ele>124.7</ele>
        <time>1970-01-01T01:07:33.000Z</time>
      </trkpt>
      <trkpt lat="44.89503" lon="0.85914">
        <ele>124.7</ele>
        <time>1970-01-01T01:07:34.000Z</time>
      </trkpt>
      <trkpt lat="44.89503" lon="0.85914">
        <ele>124.7</ele>
        <time>1970-01-01T01:07:35.000Z</time>
      </trkpt>
      <trkpt lat="44.89502" lon="0.85914">
        <ele>124.7</ele>
        <time>1970-01-01T01:07:36.000Z</time>
      </trkpt>
      <trkpt lat="44.89502" lon="0.85914">
        <ele>124.7</ele>
        <time>1970-01-01T01:07:37.000Z</time>
      </trkpt>
      <trkpt lat="44.89502" lon="0.85915">
        <ele>124.8</ele>
        <time>1970-01-01T01:07:38.000Z</time>
      </trkpt>
      <trkpt lat="44.89502" lon="0.85915">
        <ele>124.8</ele>
        <time>1970-01-01T01:07:39.000Z</time>
      </trkpt>
      <trkpt lat="44.89502" lon="0.85915">
        <ele>124.8</ele>
        <time>1970-01-01T01:07:40.000Z</time>
      </trkpt>
      <trkpt lat="44.89502" lon="0.85915">
        <ele>124.8</ele>
        <time>1970-01-01T01:07:41.000Z</time>
      </trkpt>
      <trkpt lat="44.89502" lon="0.85915">
        <ele>124.8</ele>
        <time>1970-01-01T01:07:42.000Z</time>
      </trkpt>
      <trkpt lat="44.89502" lon="0.85915">
        <ele>124.8</ele>
        <time>1970-01-01T01:07:43.000Z</time>
      </trkpt>
      <trkpt lat="44.89502" lon="0.85915">
        <ele>124.8</ele>
        <time>1970-01-01T01:07:44.000Z</time>
      </trkpt>
      <trkpt lat="44.89502" lon="0.85915">
        <ele>124.8</ele>
        <time>1970-01-01T01:07:45.000Z</time>
      </trkpt>
      <trkpt lat="44.89502" lon="0.85915">
        <ele>124.8</ele>
        <time>1970-01-01T01:07:46.000Z</time>
      </trkpt>
      <trkpt lat="44.89503" lon="0.85915">
        <ele>124.8</ele>
        <time>1970-01-01T01:07:47.000Z</time>
      </trkpt>
      <trkpt lat="44.89503" lon="0.85915">
        <ele>124.8</ele>
        <time>1970-01-01T01:07:48.000Z</time>
      </trkpt>
      <trkpt lat="44.89503" lon="0.85915">
        <ele>124.8</ele>
        <time>1970-01-01T01:07:49.000Z</time>
      </trkpt>
      <trkpt lat="44.89503" lon="0.85915">
        <ele>124.8</ele>
        <time>1970-01-01T01:07:50.000Z</time>
      </trkpt>
      <trkpt lat="44.89502" lon="0.85915">
        <ele>124.8</ele>
        <time>1970-01-01T01:07:51.000Z</time>
      </trkpt>
      <trkpt lat="44.89502" lon="0.85915">
        <ele>124.8</ele>
        <time>1970-01-01T01:07:52.000Z</time>
      </trkpt>
      <trkpt lat="44.89502" lon="0.85915">
        <ele>124.8</ele>
        <time>1970-01-01T01:07:53.000Z</time>
      </trkpt>
      <trkpt lat="44.89502" lon="0.85915">
        <ele>124.8</ele>
        <time>1970-01-01T01:07:54.000Z</time>
      </trkpt>
      <trkpt lat="44.89502" lon="0.85915">
        <ele>124.8</ele>
        <time>1970-01-01T01:07:55.000Z</time>
      </trkpt>
      <trkpt lat="44.89502" lon="0.85915">
        <ele>124.8</ele>
        <time>1970-01-01T01:07:56.000Z</time>
      </trkpt>
      <trkpt lat="44.89503" lon="0.85915">
        <ele>124.9</ele>
        <time>1970-01-01T01:07:57.000Z</time>
      </trkpt>
      <trkpt lat="44.89503" lon="0.85915">
        <ele>124.9</ele>
        <time>1970-01-01T01:07:58.000Z</time>
      </trkpt>
      <trkpt lat="44.89503" lon="0.85915">
        <ele>124.9</ele>
        <time>1970-01-01T01:07:59.000Z</time>
      </trkpt>
      <trkpt lat="44.89503" lon="0.85915">
        <ele>124.9</ele>
        <time>1970-01-01T01:08:00.000Z</time>
      </trkpt>
      <trkpt lat="44.89504" lon="0.85915">
        <ele>124.9</ele>
        <time>1970-01-01T01:08:01.000Z</time>
      </trkpt>
      <trkpt lat="44.89504" lon="0.85915">
        <ele>124.9</ele>
        <time>1970-01-01T01:08:02.000Z</time>
      </trkpt>
      <trkpt lat="44.89504" lon="0.85915">
        <ele>124.9</ele>
        <time>1970-01-01T01:08:03.000Z</time>
      </trkpt>
      <trkpt lat="44.89504" lon="0.85915">
        <ele>124.9</ele>
        <time>1970-01-01T01:08:04.000Z</time>
      </trkpt>
      <trkpt lat="44.89504" lon="0.85915">
        <ele>124.9</ele>
        <time>1970-01-01T01:08:05.000Z</time>
      </trkpt>
      <trkpt lat="44.89504" lon="0.85915">
        <ele>124.9</ele>
        <time>1970-01-01T01:08:06.000Z</time>
      </trkpt>
      <trkpt lat="44.89504" lon="0.85915">
        <ele>124.9</ele>
        <time>1970-01-01T01:08:07.000Z</time>
      </trkpt>
      <trkpt lat="44.89504" lon="0.85915">
        <ele>124.9</ele>
        <time>1970-01-01T01:08:08.000Z</time>
      </trkpt>
      <trkpt lat="44.89505" lon="0.85915">
        <ele>124.9</ele>
        <time>1970-01-01T01:08:09.000Z</time>
      </trkpt>
      <trkpt lat="44.89505" lon="0.85915">
        <ele>124.9</ele>
        <time>1970-01-01T01:08:10.000Z</time>
      </trkpt>
      <trkpt lat="44.89505" lon="0.85915">
        <ele>124.9</ele>
        <time>1970-01-01T01:08:11.000Z</time>
      </trkpt>
      <trkpt lat="44.89505" lon="0.85915">
        <ele>124.9</ele>
        <time>1970-01-01T01:08:12.000Z</time>
      </trkpt>
      <trkpt lat="44.89505" lon="0.85915">
        <ele>124.9</ele>
        <time>1970-01-01T01:08:13.000Z</time>
      </trkpt>
      <trkpt lat="44.89505" lon="0.85915">
        <ele>124.9</ele>
        <time>1970-01-01T01:08:14.000Z</time>
      </trkpt>
      <trkpt lat="44.89505" lon="0.85915">
        <ele>124.9</ele>
        <time>1970-01-01T01:08:15.000Z</time>
      </trkpt>
      <trkpt lat="44.89505" lon="0.85916">
        <ele>124.9</ele>
        <time>1970-01-01T01:08:16.000Z</time>
      </trkpt>
      <trkpt lat="44.89505" lon="0.85916">
        <ele>124.9</ele>
        <time>1970-01-01T01:08:17.000Z</time>
      </trkpt>
      <trkpt lat="44.89505" lon="0.85916">
        <ele>124.9</ele>
        <time>1970-01-01T01:08:18.000Z</time>
      </trkpt>
      <trkpt lat="44.89505" lon="0.85916">
        <ele>124.9</ele>
        <time>1970-01-01T01:08:19.000Z</time>
      </trkpt>
      <trkpt lat="44.89505" lon="0.85916">
        <ele>124.9</ele>
        <time>1970-01-01T01:08:20.000Z</time>
      </trkpt>
      <trkpt lat="44.89505" lon="0.85916">
        <ele>124.9</ele>
        <time>1970-01-01T01:08:21.000Z</time>
      </trkpt>
      <trkpt lat="44.89506" lon="0.85916">
        <ele>124.9</ele>
        <time>1970-01-01T01:08:22.000Z</time>
      </trkpt>
      <trkpt lat="44.89506" lon="0.85916">
        <ele>125</ele>
        <time>1970-01-01T01:08:23.000Z</time>
      </trkpt>
      <trkpt lat="44.89506" lon="0.85916">
        <ele>125</ele>
        <time>1970-01-01T01:08:24.000Z</time>
      </trkpt>
      <trkpt lat="44.89505" lon="0.85916">
        <ele>125</ele>
        <time>1970-01-01T01:08:25.000Z</time>
      </trkpt>
      <trkpt lat="44.89505" lon="0.85917">
        <ele>125</ele>
        <time>1970-01-01T01:08:26.000Z</time>
      </trkpt>
      <trkpt lat="44.89505" lon="0.85917">
        <ele>125</ele>
        <time>1970-01-01T01:08:27.000Z</time>
      </trkpt>
      <trkpt lat="44.89505" lon="0.85917">
        <ele>125</ele>
        <time>1970-01-01T01:08:28.000Z</time>
      </trkpt>
      <trkpt lat="44.89505" lon="0.85917">
        <ele>125</ele>
        <time>1970-01-01T01:08:29.000Z</time>
      </trkpt>
      <trkpt lat="44.89505" lon="0.85917">
        <ele>125</ele>
        <time>1970-01-01T01:08:30.000Z</time>
      </trkpt>
      <trkpt lat="44.89505" lon="0.85917">
        <ele>125</ele>
        <time>1970-01-01T01:08:31.000Z</time>
      </trkpt>
      <trkpt lat="44.89505" lon="0.85917">
        <ele>125</ele>
        <time>1970-01-01T01:08:32.000Z</time>
      </trkpt>
      <trkpt lat="44.89505" lon="0.85917">
        <ele>125</ele>
        <time>1970-01-01T01:08:33.000Z</time>
      </trkpt>
      <trkpt lat="44.89505" lon="0.85917">
        <ele>125</ele>
        <time>1970-01-01T01:08:34.000Z</time>
      </trkpt>
      <trkpt lat="44.89505" lon="0.85917">
        <ele>125</ele>
        <time>1970-01-01T01:08:35.000Z</time>
      </trkpt>
      <trkpt lat="44.89505" lon="0.85917">
        <ele>125</ele>
        <time>1970-01-01T01:08:36.000Z</time>
      </trkpt>
      <trkpt lat="44.89505" lon="0.85917">
        <ele>125</ele>
        <time>1970-01-01T01:08:37.000Z</time>
      </trkpt>
      <trkpt lat="44.89505" lon="0.85917">
        <ele>125</ele>
        <time>1970-01-01T01:08:38.000Z</time>
      </trkpt>
      <trkpt lat="44.89505" lon="0.85917">
        <ele>125</ele>
        <time>1970-01-01T01:08:39.000Z</time>
      </trkpt>
      <trkpt lat="44.89505" lon="0.85917">
        <ele>125</ele>
        <time>1970-01-01T01:08:40.000Z</time>
      </trkpt>
      <trkpt lat="44.89505" lon="0.85917">
        <ele>125</ele>
        <time>1970-01-01T01:08:41.000Z</time>
      </trkpt>
      <trkpt lat="44.89505" lon="0.85917">
        <ele>125</ele>
        <time>1970-01-01T01:08:42.000Z</time>
      </trkpt>
      <trkpt lat="44.89505" lon="0.85917">
        <ele>125</ele>
        <time>1970-01-01T01:08:43.000Z</time>
      </trkpt>
      <trkpt lat="44.89505" lon="0.85917">
        <ele>125</ele>
        <time>1970-01-01T01:08:44.000Z</time>
      </trkpt>
      <trkpt lat="44.89505" lon="0.85917">
        <ele>125</ele>
        <time>1970-01-01T01:08:45.000Z</time>
      </trkpt>
      <trkpt lat="44.89505" lon="0.85917">
        <ele>125</ele>
        <time>1970-01-01T01:08:46.000Z</time>
      </trkpt>
      <trkpt lat="44.89505" lon="0.85917">
        <ele>125</ele>
        <time>1970-01-01T01:08:47.000Z</time>
      </trkpt>
      <trkpt lat="44.89506" lon="0.85917">
        <ele>125</ele>
        <time>1970-01-01T01:08:48.000Z</time>
      </trkpt>
      <trkpt lat="44.89506" lon="0.85917">
        <ele>125</ele>
        <time>1970-01-01T01:08:49.000Z</time>
      </trkpt>
      <trkpt lat="44.89506" lon="0.85917">
        <ele>125</ele>
        <time>1970-01-01T01:08:50.000Z</time>
      </trkpt>
      <trkpt lat="44.89506" lon="0.85917">
        <ele>125</ele>
        <time>1970-01-01T01:08:51.000Z</time>
      </trkpt>
      <trkpt lat="44.89507" lon="0.85917">
        <ele>125</ele>
        <time>1970-01-01T01:08:52.000Z</time>
      </trkpt>
      <trkpt lat="44.89507" lon="0.85916">
        <ele>125</ele>
        <time>1970-01-01T01:08:53.000Z</time>
      </trkpt>
      <trkpt lat="44.89507" lon="0.85916">
        <ele>125</ele>
        <time>1970-01-01T01:08:54.000Z</time>
      </trkpt>
      <trkpt lat="44.89507" lon="0.85916">
        <ele>125</ele>
        <time>1970-01-01T01:08:55.000Z</time>
      </trkpt>
      <trkpt lat="44.89507" lon="0.85916">
        <ele>125</ele>
        <time>1970-01-01T01:08:56.000Z</time>
      </trkpt>
      <trkpt lat="44.89507" lon="0.85917">
        <ele>125</ele>
        <time>1970-01-01T01:08:57.000Z</time>
      </trkpt>
      <trkpt lat="44.89507" lon="0.85917">
        <ele>125</ele>
        <time>1970-01-01T01:08:58.000Z</time>
      </trkpt>
      <trkpt lat="44.89507" lon="0.85917">
        <ele>125.1</ele>
        <time>1970-01-01T01:08:59.000Z</time>
      </trkpt>
      <trkpt lat="44.89507" lon="0.85917">
        <ele>125.1</ele>
        <time>1970-01-01T01:09:00.000Z</time>
      </trkpt>
      <trkpt lat="44.89507" lon="0.85917">
        <ele>125.1</ele>
        <time>1970-01-01T01:09:01.000Z</time>
      </trkpt>
      <trkpt lat="44.89507" lon="0.85917">
        <ele>125.1</ele>
        <time>1970-01-01T01:09:02.000Z</time>
      </trkpt>
      <trkpt lat="44.89507" lon="0.85917">
        <ele>125.1</ele>
        <time>1970-01-01T01:09:03.000Z</time>
      </trkpt>
      <trkpt lat="44.89507" lon="0.85917">
        <ele>125.1</ele>
        <time>1970-01-01T01:09:04.000Z</time>
      </trkpt>
      <trkpt lat="44.89507" lon="0.85917">
        <ele>125.1</ele>
        <time>1970-01-01T01:09:05.000Z</time>
      </trkpt>
      <trkpt lat="44.89507" lon="0.85917">
        <ele>125.1</ele>
        <time>1970-01-01T01:09:06.000Z</time>
      </trkpt>
      <trkpt lat="44.89507" lon="0.85917">
        <ele>125.1</ele>
        <time>1970-01-01T01:09:07.000Z</time>
      </trkpt>
      <trkpt lat="44.89507" lon="0.85917">
        <ele>125.1</ele>
        <time>1970-01-01T01:09:08.000Z</time>
      </trkpt>
      <trkpt lat="44.89507" lon="0.85917">
        <ele>125.1</ele>
        <time>1970-01-01T01:09:09.000Z</time>
      </trkpt>
      <trkpt lat="44.89507" lon="0.85917">
        <ele>125.1</ele>
        <time>1970-01-01T01:09:10.000Z</time>
      </trkpt>
      <trkpt lat="44.89507" lon="0.85917">
        <ele>125.1</ele>
        <time>1970-01-01T01:09:11.000Z</time>
      </trkpt>
      <trkpt lat="44.89507" lon="0.85917">
        <ele>125.1</ele>
        <time>1970-01-01T01:09:12.000Z</time>
      </trkpt>
      <trkpt lat="44.89507" lon="0.85918">
        <ele>125.1</ele>
        <time>1970-01-01T01:09:13.000Z</time>
      </trkpt>
      <trkpt lat="44.89507" lon="0.85918">
        <ele>125.1</ele>
        <time>1970-01-01T01:09:14.000Z</time>
      </trkpt>
      <trkpt lat="44.89507" lon="0.85918">
        <ele>125.1</ele>
        <time>1970-01-01T01:09:15.000Z</time>
      </trkpt>
      <trkpt lat="44.89507" lon="0.85918">
        <ele>125.1</ele>
        <time>1970-01-01T01:09:16.000Z</time>
      </trkpt>
      <trkpt lat="44.89507" lon="0.85918">
        <ele>125.1</ele>
        <time>1970-01-01T01:09:17.000Z</time>
      </trkpt>
      <trkpt lat="44.89507" lon="0.85918">
        <ele>125.1</ele>
        <time>1970-01-01T01:09:18.000Z</time>
      </trkpt>
      <trkpt lat="44.89507" lon="0.85918">
        <ele>125.1</ele>
        <time>1970-01-01T01:09:19.000Z</time>
      </trkpt>
      <trkpt lat="44.89507" lon="0.85918">
        <ele>125.1</ele>
        <time>1970-01-01T01:09:20.000Z</time>
      </trkpt>
      <trkpt lat="44.89507" lon="0.85918">
        <ele>125.1</ele>
        <time>1970-01-01T01:09:21.000Z</time>
      </trkpt>
      <trkpt lat="44.89507" lon="0.85918">
        <ele>125.1</ele>
        <time>1970-01-01T01:09:22.000Z</time>
      </trkpt>
      <trkpt lat="44.89506" lon="0.85918">
        <ele>125.1</ele>
        <time>1970-01-01T01:09:23.000Z</time>
      </trkpt>
      <trkpt lat="44.89506" lon="0.85918">
        <ele>125.1</ele>
        <time>1970-01-01T01:09:24.000Z</time>
      </trkpt>
      <trkpt lat="44.89506" lon="0.85918">
        <ele>125.1</ele>
        <time>1970-01-01T01:09:25.000Z</time>
      </trkpt>
      <trkpt lat="44.89506" lon="0.85918">
        <ele>125.1</ele>
        <time>1970-01-01T01:09:26.000Z</time>
      </trkpt>
      <trkpt lat="44.89507" lon="0.85918">
        <ele>125.1</ele>
        <time>1970-01-01T01:09:27.000Z</time>
      </trkpt>
      <trkpt lat="44.89507" lon="0.85918">
        <ele>125.1</ele>
        <time>1970-01-01T01:09:28.000Z</time>
      </trkpt>
      <trkpt lat="44.89507" lon="0.85918">
        <ele>125.1</ele>
        <time>1970-01-01T01:09:29.000Z</time>
      </trkpt>
      <trkpt lat="44.89507" lon="0.85918">
        <ele>125.1</ele>
        <time>1970-01-01T01:09:30.000Z</time>
      </trkpt>
      <trkpt lat="44.89508" lon="0.85918">
        <ele>125.1</ele>
        <time>1970-01-01T01:09:31.000Z</time>
      </trkpt>
      <trkpt lat="44.89508" lon="0.85918">
        <ele>125.1</ele>
        <time>1970-01-01T01:09:32.000Z</time>
      </trkpt>
      <trkpt lat="44.89508" lon="0.85918">
        <ele>125.1</ele>
        <time>1970-01-01T01:09:33.000Z</time>
      </trkpt>
      <trkpt lat="44.89509" lon="0.85918">
        <ele>125.1</ele>
        <time>1970-01-01T01:09:34.000Z</time>
      </trkpt>
      <trkpt lat="44.89509" lon="0.85918">
        <ele>125.1</ele>
        <time>1970-01-01T01:09:35.000Z</time>
      </trkpt>
      <trkpt lat="44.89509" lon="0.85918">
        <ele>125.1</ele>
        <time>1970-01-01T01:09:36.000Z</time>
      </trkpt>
      <trkpt lat="44.8951" lon="0.85917">
        <ele>125.1</ele>
        <time>1970-01-01T01:09:37.000Z</time>
      </trkpt>
      <trkpt lat="44.8951" lon="0.85917">
        <ele>125.1</ele>
        <time>1970-01-01T01:09:38.000Z</time>
      </trkpt>
      <trkpt lat="44.8951" lon="0.85917">
        <ele>125.1</ele>
        <time>1970-01-01T01:09:39.000Z</time>
      </trkpt>
      <trkpt lat="44.8951" lon="0.85917">
        <ele>125.1</ele>
        <time>1970-01-01T01:09:40.000Z</time>
      </trkpt>
      <trkpt lat="44.8951" lon="0.85917">
        <ele>125.1</ele>
        <time>1970-01-01T01:09:41.000Z</time>
      </trkpt>
      <trkpt lat="44.8951" lon="0.85917">
        <ele>125.1</ele>
        <time>1970-01-01T01:09:42.000Z</time>
      </trkpt>
      <trkpt lat="44.89509" lon="0.85917">
        <ele>125.1</ele>
        <time>1970-01-01T01:09:43.000Z</time>
      </trkpt>
      <trkpt lat="44.89509" lon="0.85917">
        <ele>125.1</ele>
        <time>1970-01-01T01:09:44.000Z</time>
      </trkpt>
      <trkpt lat="44.89509" lon="0.85917">
        <ele>125.1</ele>
        <time>1970-01-01T01:09:45.000Z</time>
      </trkpt>
      <trkpt lat="44.89509" lon="0.85917">
        <ele>125.1</ele>
        <time>1970-01-01T01:09:46.000Z</time>
      </trkpt>
      <trkpt lat="44.89509" lon="0.85917">
        <ele>125.1</ele>
        <time>1970-01-01T01:09:47.000Z</time>
      </trkpt>
      <trkpt lat="44.89509" lon="0.85917">
        <ele>125.1</ele>
        <time>1970-01-01T01:09:48.000Z</time>
      </trkpt>
      <trkpt lat="44.89509" lon="0.85917">
        <ele>125.1</ele>
        <time>1970-01-01T01:09:49.000Z</time>
      </trkpt>
      <trkpt lat="44.89509" lon="0.85917">
        <ele>125.1</ele>
        <time>1970-01-01T01:09:50.000Z</time>
      </trkpt>
      <trkpt lat="44.89508" lon="0.85917">
        <ele>125.1</ele>
        <time>1970-01-01T01:09:51.000Z</time>
      </trkpt>
      <trkpt lat="44.89508" lon="0.85917">
        <ele>125.1</ele>
        <time>1970-01-01T01:09:52.000Z</time>
      </trkpt>
      <trkpt lat="44.89508" lon="0.85916">
        <ele>125.1</ele>
        <time>1970-01-01T01:09:53.000Z</time>
      </trkpt>
      <trkpt lat="44.89508" lon="0.85916">
        <ele>125.1</ele>
        <time>1970-01-01T01:09:54.000Z</time>
      </trkpt>
      <trkpt lat="44.89509" lon="0.85916">
        <ele>125.1</ele>
        <time>1970-01-01T01:09:55.000Z</time>
      </trkpt>
      <trkpt lat="44.89509" lon="0.85916">
        <ele>125.1</ele>
        <time>1970-01-01T01:09:56.000Z</time>
      </trkpt>
      <trkpt lat="44.89509" lon="0.85915">
        <ele>125.1</ele>
        <time>1970-01-01T01:09:57.000Z</time>
      </trkpt>
      <trkpt lat="44.8951" lon="0.85915">
        <ele>125.1</ele>
        <time>1970-01-01T01:09:58.000Z</time>
      </trkpt>
      <trkpt lat="44.8951" lon="0.85914">
        <ele>125.1</ele>
        <time>1970-01-01T01:09:59.000Z</time>
      </trkpt>
      <trkpt lat="44.89511" lon="0.85913">
        <ele>125.1</ele>
        <time>1970-01-01T01:10:00.000Z</time>
      </trkpt>
      <trkpt lat="44.89512" lon="0.85912">
        <ele>125.1</ele>
        <time>1970-01-01T01:10:01.000Z</time>
      </trkpt>
      <trkpt lat="44.89514" lon="0.8591">
        <ele>125.1</ele>
        <time>1970-01-01T01:10:02.000Z</time>
      </trkpt>
      <trkpt lat="44.89515" lon="0.85908">
        <ele>125.1</ele>
        <time>1970-01-01T01:10:03.000Z</time>
      </trkpt>
      <trkpt lat="44.89516" lon="0.85905">
        <ele>125.1</ele>
        <time>1970-01-01T01:10:04.000Z</time>
      </trkpt>
      <trkpt lat="44.89518" lon="0.85903">
        <ele>125.1</ele>
        <time>1970-01-01T01:10:05.000Z</time>
      </trkpt>
      <trkpt lat="44.89521" lon="0.85899">
        <ele>125.1</ele>
        <time>1970-01-01T01:10:06.000Z</time>
      </trkpt>
      <trkpt lat="44.89525" lon="0.85895">
        <ele>125</ele>
        <time>1970-01-01T01:10:07.000Z</time>
      </trkpt>
      <trkpt lat="44.89529" lon="0.8589">
        <ele>125</ele>
        <time>1970-01-01T01:10:08.000Z</time>
      </trkpt>
      <trkpt lat="44.89534" lon="0.85886">
        <ele>124.9</ele>
        <time>1970-01-01T01:10:09.000Z</time>
      </trkpt>
      <trkpt lat="44.89539" lon="0.85883">
        <ele>124.9</ele>
        <time>1970-01-01T01:10:10.000Z</time>
      </trkpt>
      <trkpt lat="44.89543" lon="0.85881">
        <ele>124.9</ele>
        <time>1970-01-01T01:10:11.000Z</time>
      </trkpt>
      <trkpt lat="44.89547" lon="0.85879">
        <ele>124.8</ele>
        <time>1970-01-01T01:10:12.000Z</time>
      </trkpt>
      <trkpt lat="44.89549" lon="0.85877">
        <ele>124.8</ele>
        <time>1970-01-01T01:10:13.000Z</time>
      </trkpt>
      <trkpt lat="44.89551" lon="0.85876">
        <ele>124.8</ele>
        <time>1970-01-01T01:10:14.000Z</time>
      </trkpt>
      <trkpt lat="44.89553" lon="0.85875">
        <ele>124.8</ele>
        <time>1970-01-01T01:10:15.000Z</time>
      </trkpt>
      <trkpt lat="44.89556" lon="0.85875">
        <ele>124.9</ele>
        <time>1970-01-01T01:10:16.000Z</time>
      </trkpt>
      <trkpt lat="44.89559" lon="0.85876">
        <ele>123.4</ele>
        <time>1970-01-01T01:10:17.000Z</time>
      </trkpt>
      <trkpt lat="44.8956" lon="0.85878">
        <ele>123.2</ele>
        <time>1970-01-01T01:10:18.000Z</time>
      </trkpt>
      <trkpt lat="44.89561" lon="0.85881">
        <ele>123</ele>
        <time>1970-01-01T01:10:19.000Z</time>
      </trkpt>
      <trkpt lat="44.89561" lon="0.85884">
        <ele>122.7</ele>
        <time>1970-01-01T01:10:20.000Z</time>
      </trkpt>
      <trkpt lat="44.8956" lon="0.85888">
        <ele>122.5</ele>
        <time>1970-01-01T01:10:21.000Z</time>
      </trkpt>
      <trkpt lat="44.89559" lon="0.85892">
        <ele>122.1</ele>
        <time>1970-01-01T01:10:22.000Z</time>
      </trkpt>
      <trkpt lat="44.89558" lon="0.85897">
        <ele>121.7</ele>
        <time>1970-01-01T01:10:23.000Z</time>
      </trkpt>
      <trkpt lat="44.89557" lon="0.85901">
        <ele>121.3</ele>
        <time>1970-01-01T01:10:24.000Z</time>
      </trkpt>
      <trkpt lat="44.89557" lon="0.85905">
        <ele>121</ele>
        <time>1970-01-01T01:10:25.000Z</time>
      </trkpt>
      <trkpt lat="44.89556" lon="0.85909">
        <ele>120.6</ele>
        <time>1970-01-01T01:10:26.000Z</time>
      </trkpt>
      <trkpt lat="44.89555" lon="0.85913">
        <ele>120.2</ele>
        <time>1970-01-01T01:10:27.000Z</time>
      </trkpt>
      <trkpt lat="44.89554" lon="0.85917">
        <ele>119.9</ele>
        <time>1970-01-01T01:10:28.000Z</time>
      </trkpt>
      <trkpt lat="44.89554" lon="0.85921">
        <ele>119.6</ele>
        <time>1970-01-01T01:10:29.000Z</time>
      </trkpt>
      <trkpt lat="44.89553" lon="0.85925">
        <ele>119.2</ele>
        <time>1970-01-01T01:10:30.000Z</time>
      </trkpt>
      <trkpt lat="44.89552" lon="0.85929">
        <ele>118.8</ele>
        <time>1970-01-01T01:10:31.000Z</time>
      </trkpt>
      <trkpt lat="44.89552" lon="0.85933">
        <ele>118.4</ele>
        <time>1970-01-01T01:10:32.000Z</time>
      </trkpt>
      <trkpt lat="44.89551" lon="0.85937">
        <ele>118</ele>
        <time>1970-01-01T01:10:33.000Z</time>
      </trkpt>
      <trkpt lat="44.8955" lon="0.85941">
        <ele>117.6</ele>
        <time>1970-01-01T01:10:34.000Z</time>
      </trkpt>
      <trkpt lat="44.8955" lon="0.85945">
        <ele>117.2</ele>
        <time>1970-01-01T01:10:35.000Z</time>
      </trkpt>
      <trkpt lat="44.8955" lon="0.85949">
        <ele>116.7</ele>
        <time>1970-01-01T01:10:36.000Z</time>
      </trkpt>
      <trkpt lat="44.8955" lon="0.85954">
        <ele>116.3</ele>
        <time>1970-01-01T01:10:37.000Z</time>
      </trkpt>
      <trkpt lat="44.8955" lon="0.85959">
        <ele>115.8</ele>
        <time>1970-01-01T01:10:38.000Z</time>
      </trkpt>
      <trkpt lat="44.89551" lon="0.85964">
        <ele>115.2</ele>
        <time>1970-01-01T01:10:39.000Z</time>
      </trkpt>
      <trkpt lat="44.89552" lon="0.85969">
        <ele>114.6</ele>
        <time>1970-01-01T01:10:40.000Z</time>
      </trkpt>
      <trkpt lat="44.89553" lon="0.85975">
        <ele>113.9</ele>
        <time>1970-01-01T01:10:41.000Z</time>
      </trkpt>
      <trkpt lat="44.89554" lon="0.85981">
        <ele>113.1</ele>
        <time>1970-01-01T01:10:42.000Z</time>
      </trkpt>
      <trkpt lat="44.89555" lon="0.85988">
        <ele>112.3</ele>
        <time>1970-01-01T01:10:43.000Z</time>
      </trkpt>
      <trkpt lat="44.89556" lon="0.85995">
        <ele>111.5</ele>
        <time>1970-01-01T01:10:44.000Z</time>
      </trkpt>
      <trkpt lat="44.89557" lon="0.86002">
        <ele>110.5</ele>
        <time>1970-01-01T01:10:45.000Z</time>
      </trkpt>
      <trkpt lat="44.89558" lon="0.86009">
        <ele>109.6</ele>
        <time>1970-01-01T01:10:46.000Z</time>
      </trkpt>
      <trkpt lat="44.89558" lon="0.86016">
        <ele>108.7</ele>
        <time>1970-01-01T01:10:47.000Z</time>
      </trkpt>
      <trkpt lat="44.89557" lon="0.86023">
        <ele>108.4</ele>
        <time>1970-01-01T01:10:48.000Z</time>
      </trkpt>
      <trkpt lat="44.89555" lon="0.8603">
        <ele>108.2</ele>
        <time>1970-01-01T01:10:49.000Z</time>
      </trkpt>
      <trkpt lat="44.89552" lon="0.86037">
        <ele>108</ele>
        <time>1970-01-01T01:10:50.000Z</time>
      </trkpt>
      <trkpt lat="44.8955" lon="0.86045">
        <ele>107.7</ele>
        <time>1970-01-01T01:10:51.000Z</time>
      </trkpt>
      <trkpt lat="44.89547" lon="0.86053">
        <ele>107.5</ele>
        <time>1970-01-01T01:10:52.000Z</time>
      </trkpt>
      <trkpt lat="44.89546" lon="0.86061">
        <ele>107.2</ele>
        <time>1970-01-01T01:10:53.000Z</time>
      </trkpt>
      <trkpt lat="44.89545" lon="0.8607">
        <ele>106.8</ele>
        <time>1970-01-01T01:10:54.000Z</time>
      </trkpt>
      <trkpt lat="44.89545" lon="0.86079">
        <ele>106.2</ele>
        <time>1970-01-01T01:10:55.000Z</time>
      </trkpt>
      <trkpt lat="44.89545" lon="0.8609">
        <ele>105.5</ele>
        <time>1970-01-01T01:10:56.000Z</time>
      </trkpt>
      <trkpt lat="44.89545" lon="0.86102">
        <ele>104.9</ele>
        <time>1970-01-01T01:10:57.000Z</time>
      </trkpt>
      <trkpt lat="44.89545" lon="0.86116">
        <ele>104.1</ele>
        <time>1970-01-01T01:10:58.000Z</time>
      </trkpt>
      <trkpt lat="44.89544" lon="0.86129">
        <ele>103.1</ele>
        <time>1970-01-01T01:10:59.000Z</time>
      </trkpt>
      <trkpt lat="44.89543" lon="0.86144">
        <ele>101.8</ele>
        <time>1970-01-01T01:11:00.000Z</time>
      </trkpt>
      <trkpt lat="44.89542" lon="0.86157">
        <ele>100.9</ele>
        <time>1970-01-01T01:11:01.000Z</time>
      </trkpt>
      <trkpt lat="44.89542" lon="0.86171">
        <ele>100.1</ele>
        <time>1970-01-01T01:11:02.000Z</time>
      </trkpt>
      <trkpt lat="44.89541" lon="0.86186">
        <ele>99.2</ele>
        <time>1970-01-01T01:11:03.000Z</time>
      </trkpt>
      <trkpt lat="44.8954" lon="0.862">
        <ele>98</ele>
        <time>1970-01-01T01:11:04.000Z</time>
      </trkpt>
      <trkpt lat="44.8954" lon="0.86214">
        <ele>96.8</ele>
        <time>1970-01-01T01:11:05.000Z</time>
      </trkpt>
      <trkpt lat="44.89539" lon="0.86227">
        <ele>95.6</ele>
        <time>1970-01-01T01:11:06.000Z</time>
      </trkpt>
      <trkpt lat="44.89539" lon="0.86239">
        <ele>94.6</ele>
        <time>1970-01-01T01:11:07.000Z</time>
      </trkpt>
      <trkpt lat="44.89539" lon="0.86251">
        <ele>93.7</ele>
        <time>1970-01-01T01:11:08.000Z</time>
      </trkpt>
      <trkpt lat="44.89538" lon="0.86262">
        <ele>93</ele>
        <time>1970-01-01T01:11:09.000Z</time>
      </trkpt>
      <trkpt lat="44.89538" lon="0.86274">
        <ele>92.3</ele>
        <time>1970-01-01T01:11:10.000Z</time>
      </trkpt>
      <trkpt lat="44.89538" lon="0.86285">
        <ele>91.6</ele>
        <time>1970-01-01T01:11:11.000Z</time>
      </trkpt>
      <trkpt lat="44.89538" lon="0.86296">
        <ele>90.9</ele>
        <time>1970-01-01T01:11:12.000Z</time>
      </trkpt>
      <trkpt lat="44.89538" lon="0.86304">
        <ele>90.3</ele>
        <time>1970-01-01T01:11:13.000Z</time>
      </trkpt>
      <trkpt lat="44.89538" lon="0.86309">
        <ele>88.9</ele>
        <time>1970-01-01T01:11:14.000Z</time>
      </trkpt>
      <trkpt lat="44.8954" lon="0.8631">
        <ele>88.9</ele>
        <time>1970-01-01T01:11:15.000Z</time>
      </trkpt>
      <trkpt lat="44.89543" lon="0.86307">
        <ele>88.9</ele>
        <time>1970-01-01T01:11:16.000Z</time>
      </trkpt>
      <trkpt lat="44.89546" lon="0.86302">
        <ele>88.9</ele>
        <time>1970-01-01T01:11:17.000Z</time>
      </trkpt>
      <trkpt lat="44.89549" lon="0.86299">
        <ele>86.2</ele>
        <time>1970-01-01T01:11:18.000Z</time>
      </trkpt>
      <trkpt lat="44.89551" lon="0.86298">
        <ele>86</ele>
        <time>1970-01-01T01:11:19.000Z</time>
      </trkpt>
      <trkpt lat="44.89553" lon="0.86296">
        <ele>85.8</ele>
        <time>1970-01-01T01:11:20.000Z</time>
      </trkpt>
      <trkpt lat="44.8956" lon="0.86291">
        <ele>85.3</ele>
        <time>1970-01-01T01:11:21.000Z</time>
      </trkpt>
      <trkpt lat="44.89563" lon="0.86289">
        <ele>85.1</ele>
        <time>1970-01-01T01:11:22.000Z</time>
      </trkpt>
      <trkpt lat="44.89567" lon="0.86286">
        <ele>84.9</ele>
        <time>1970-01-01T01:11:23.000Z</time>
      </trkpt>
      <trkpt lat="44.89571" lon="0.86284">
        <ele>84.7</ele>
        <time>1970-01-01T01:11:24.000Z</time>
      </trkpt>
      <trkpt lat="44.89575" lon="0.86282">
        <ele>84.6</ele>
        <time>1970-01-01T01:11:25.000Z</time>
      </trkpt>
      <trkpt lat="44.8958" lon="0.8628">
        <ele>84.4</ele>
        <time>1970-01-01T01:11:26.000Z</time>
      </trkpt>
      <trkpt lat="44.89586" lon="0.86279">
        <ele>84.4</ele>
        <time>1970-01-01T01:11:27.000Z</time>
      </trkpt>
      <trkpt lat="44.89591" lon="0.86278">
        <ele>84.4</ele>
        <time>1970-01-01T01:11:28.000Z</time>
      </trkpt>
      <trkpt lat="44.89596" lon="0.86277">
        <ele>84.5</ele>
        <time>1970-01-01T01:11:29.000Z</time>
      </trkpt>
      <trkpt lat="44.89601" lon="0.86276">
        <ele>84.6</ele>
        <time>1970-01-01T01:11:30.000Z</time>
      </trkpt>
      <trkpt lat="44.89604" lon="0.86275">
        <ele>84.7</ele>
        <time>1970-01-01T01:11:31.000Z</time>
      </trkpt>
      <trkpt lat="44.89608" lon="0.86274">
        <ele>84.8</ele>
        <time>1970-01-01T01:11:32.000Z</time>
      </trkpt>
      <trkpt lat="44.89611" lon="0.86274">
        <ele>85</ele>
        <time>1970-01-01T01:11:33.000Z</time>
      </trkpt>
      <trkpt lat="44.89615" lon="0.86273">
        <ele>85.2</ele>
        <time>1970-01-01T01:11:34.000Z</time>
      </trkpt>
      <trkpt lat="44.89618" lon="0.86272">
        <ele>85.3</ele>
        <time>1970-01-01T01:11:35.000Z</time>
      </trkpt>
      <trkpt lat="44.89621" lon="0.86272">
        <ele>85.5</ele>
        <time>1970-01-01T01:11:36.000Z</time>
      </trkpt>
      <trkpt lat="44.89624" lon="0.86272">
        <ele>85.6</ele>
        <time>1970-01-01T01:11:37.000Z</time>
      </trkpt>
      <trkpt lat="44.89627" lon="0.86272">
        <ele>85.7</ele>
        <time>1970-01-01T01:11:38.000Z</time>
      </trkpt>
      <trkpt lat="44.8963" lon="0.86272">
        <ele>85.7</ele>
        <time>1970-01-01T01:11:39.000Z</time>
      </trkpt>
      <trkpt lat="44.89633" lon="0.86273">
        <ele>85.7</ele>
        <time>1970-01-01T01:11:40.000Z</time>
      </trkpt>
      <trkpt lat="44.89635" lon="0.86274">
        <ele>85.7</ele>
        <time>1970-01-01T01:11:41.000Z</time>
      </trkpt>
      <trkpt lat="44.89636" lon="0.86276">
        <ele>85.7</ele>
        <time>1970-01-01T01:11:42.000Z</time>
      </trkpt>
      <trkpt lat="44.89634" lon="0.8628">
        <ele>85.6</ele>
        <time>1970-01-01T01:11:43.000Z</time>
      </trkpt>
      <trkpt lat="44.89631" lon="0.86284">
        <ele>85.4</ele>
        <time>1970-01-01T01:11:44.000Z</time>
      </trkpt>
      <trkpt lat="44.89627" lon="0.86291">
        <ele>85.1</ele>
        <time>1970-01-01T01:11:45.000Z</time>
      </trkpt>
      <trkpt lat="44.89624" lon="0.86297">
        <ele>84.7</ele>
        <time>1970-01-01T01:11:46.000Z</time>
      </trkpt>
      <trkpt lat="44.89622" lon="0.86304">
        <ele>84.3</ele>
        <time>1970-01-01T01:11:47.000Z</time>
      </trkpt>
      <trkpt lat="44.8962" lon="0.8631">
        <ele>83.9</ele>
        <time>1970-01-01T01:11:48.000Z</time>
      </trkpt>
      <trkpt lat="44.89618" lon="0.86318">
        <ele>83.5</ele>
        <time>1970-01-01T01:11:49.000Z</time>
      </trkpt>
      <trkpt lat="44.89618" lon="0.86327">
        <ele>83.1</ele>
        <time>1970-01-01T01:11:50.000Z</time>
      </trkpt>
      <trkpt lat="44.89617" lon="0.86336">
        <ele>82.6</ele>
        <time>1970-01-01T01:11:51.000Z</time>
      </trkpt>
      <trkpt lat="44.89616" lon="0.86345">
        <ele>82.2</ele>
        <time>1970-01-01T01:11:52.000Z</time>
      </trkpt>
      <trkpt lat="44.89615" lon="0.86353">
        <ele>81.9</ele>
        <time>1970-01-01T01:11:53.000Z</time>
      </trkpt>
      <trkpt lat="44.89615" lon="0.86362">
        <ele>81.5</ele>
        <time>1970-01-01T01:11:54.000Z</time>
      </trkpt>
      <trkpt lat="44.89614" lon="0.86371">
        <ele>81.2</ele>
        <time>1970-01-01T01:11:55.000Z</time>
      </trkpt>
      <trkpt lat="44.89614" lon="0.86379">
        <ele>80.8</ele>
        <time>1970-01-01T01:11:56.000Z</time>
      </trkpt>
      <trkpt lat="44.89614" lon="0.86388">
        <ele>80.6</ele>
        <time>1970-01-01T01:11:57.000Z</time>
      </trkpt>
      <trkpt lat="44.89614" lon="0.86397">
        <ele>80.5</ele>
        <time>1970-01-01T01:11:58.000Z</time>
      </trkpt>
      <trkpt lat="44.89614" lon="0.86406">
        <ele>80.3</ele>
        <time>1970-01-01T01:11:59.000Z</time>
      </trkpt>
      <trkpt lat="44.89615" lon="0.86414">
        <ele>80.2</ele>
        <time>1970-01-01T01:12:00.000Z</time>
      </trkpt>
      <trkpt lat="44.89615" lon="0.86422">
        <ele>80</ele>
        <time>1970-01-01T01:12:01.000Z</time>
      </trkpt>
      <trkpt lat="44.89616" lon="0.86431">
        <ele>79.9</ele>
        <time>1970-01-01T01:12:02.000Z</time>
      </trkpt>
      <trkpt lat="44.89617" lon="0.86439">
        <ele>79.8</ele>
        <time>1970-01-01T01:12:03.000Z</time>
      </trkpt>
      <trkpt lat="44.89618" lon="0.86447">
        <ele>79.7</ele>
        <time>1970-01-01T01:12:04.000Z</time>
      </trkpt>
      <trkpt lat="44.8962" lon="0.86455">
        <ele>79.6</ele>
        <time>1970-01-01T01:12:05.000Z</time>
      </trkpt>
      <trkpt lat="44.89622" lon="0.86462">
        <ele>79.5</ele>
        <time>1970-01-01T01:12:06.000Z</time>
      </trkpt>
      <trkpt lat="44.89624" lon="0.86468">
        <ele>79.4</ele>
        <time>1970-01-01T01:12:07.000Z</time>
      </trkpt>
      <trkpt lat="44.89626" lon="0.86475">
        <ele>79.3</ele>
        <time>1970-01-01T01:12:08.000Z</time>
      </trkpt>
      <trkpt lat="44.89628" lon="0.86481">
        <ele>79.3</ele>
        <time>1970-01-01T01:12:09.000Z</time>
      </trkpt>
      <trkpt lat="44.8963" lon="0.86488">
        <ele>79.2</ele>
        <time>1970-01-01T01:12:10.000Z</time>
      </trkpt>
      <trkpt lat="44.89632" lon="0.86494">
        <ele>79.1</ele>
        <time>1970-01-01T01:12:11.000Z</time>
      </trkpt>
      <trkpt lat="44.89634" lon="0.865">
        <ele>79</ele>
        <time>1970-01-01T01:12:12.000Z</time>
      </trkpt>
      <trkpt lat="44.89636" lon="0.86506">
        <ele>78.9</ele>
        <time>1970-01-01T01:12:13.000Z</time>
      </trkpt>
      <trkpt lat="44.89638" lon="0.86512">
        <ele>78.8</ele>
        <time>1970-01-01T01:12:14.000Z</time>
      </trkpt>
      <trkpt lat="44.8964" lon="0.86519">
        <ele>78.7</ele>
        <time>1970-01-01T01:12:15.000Z</time>
      </trkpt>
      <trkpt lat="44.89641" lon="0.86525">
        <ele>78.7</ele>
        <time>1970-01-01T01:12:16.000Z</time>
      </trkpt>
      <trkpt lat="44.89642" lon="0.86533">
        <ele>78.6</ele>
        <time>1970-01-01T01:12:17.000Z</time>
      </trkpt>
      <trkpt lat="44.89643" lon="0.86542">
        <ele>78.6</ele>
        <time>1970-01-01T01:12:18.000Z</time>
      </trkpt>
      <trkpt lat="44.89643" lon="0.8655">
        <ele>78.5</ele>
        <time>1970-01-01T01:12:19.000Z</time>
      </trkpt>
      <trkpt lat="44.89643" lon="0.86559">
        <ele>78.5</ele>
        <time>1970-01-01T01:12:20.000Z</time>
      </trkpt>
      <trkpt lat="44.89641" lon="0.86566">
        <ele>78.5</ele>
        <time>1970-01-01T01:12:21.000Z</time>
      </trkpt>
      <trkpt lat="44.89639" lon="0.86574">
        <ele>78.6</ele>
        <time>1970-01-01T01:12:22.000Z</time>
      </trkpt>
      <trkpt lat="44.89637" lon="0.8658">
        <ele>78.6</ele>
        <time>1970-01-01T01:12:23.000Z</time>
      </trkpt>
      <trkpt lat="44.89634" lon="0.86586">
        <ele>78.6</ele>
        <time>1970-01-01T01:12:24.000Z</time>
      </trkpt>
      <trkpt lat="44.89633" lon="0.86592">
        <ele>78.7</ele>
        <time>1970-01-01T01:12:25.000Z</time>
      </trkpt>
      <trkpt lat="44.89632" lon="0.86597">
        <ele>78.7</ele>
        <time>1970-01-01T01:12:26.000Z</time>
      </trkpt>
      <trkpt lat="44.89631" lon="0.86603">
        <ele>80.1</ele>
        <time>1970-01-01T01:12:27.000Z</time>
      </trkpt>
      <trkpt lat="44.8963" lon="0.86609">
        <ele>81.5</ele>
        <time>1970-01-01T01:12:28.000Z</time>
      </trkpt>
      <trkpt lat="44.8963" lon="0.86614">
        <ele>90.3</ele>
        <time>1970-01-01T01:12:29.000Z</time>
      </trkpt>
      <trkpt lat="44.89629" lon="0.86618">
        <ele>90</ele>
        <time>1970-01-01T01:12:30.000Z</time>
      </trkpt>
      <trkpt lat="44.89628" lon="0.86623">
        <ele>89.7</ele>
        <time>1970-01-01T01:12:31.000Z</time>
      </trkpt>
      <trkpt lat="44.89626" lon="0.86627">
        <ele>89.4</ele>
        <time>1970-01-01T01:12:32.000Z</time>
      </trkpt>
      <trkpt lat="44.89624" lon="0.8663">
        <ele>89.1</ele>
        <time>1970-01-01T01:12:33.000Z</time>
      </trkpt>
      <trkpt lat="44.89622" lon="0.86633">
        <ele>88.9</ele>
        <time>1970-01-01T01:12:34.000Z</time>
      </trkpt>
      <trkpt lat="44.89621" lon="0.86635">
        <ele>88.7</ele>
        <time>1970-01-01T01:12:35.000Z</time>
      </trkpt>
      <trkpt lat="44.89619" lon="0.86638">
        <ele>88.5</ele>
        <time>1970-01-01T01:12:36.000Z</time>
      </trkpt>
      <trkpt lat="44.89617" lon="0.86641">
        <ele>88.7</ele>
        <time>1970-01-01T01:12:37.000Z</time>
      </trkpt>
      <trkpt lat="44.89616" lon="0.86643">
        <ele>88.9</ele>
        <time>1970-01-01T01:12:38.000Z</time>
      </trkpt>
      <trkpt lat="44.89614" lon="0.86645">
        <ele>89</ele>
        <time>1970-01-01T01:12:39.000Z</time>
      </trkpt>
      <trkpt lat="44.89612" lon="0.86647">
        <ele>89.1</ele>
        <time>1970-01-01T01:12:40.000Z</time>
      </trkpt>
      <trkpt lat="44.8961" lon="0.86648">
        <ele>89.2</ele>
        <time>1970-01-01T01:12:41.000Z</time>
      </trkpt>
      <trkpt lat="44.89608" lon="0.8665">
        <ele>89.4</ele>
        <time>1970-01-01T01:12:42.000Z</time>
      </trkpt>
      <trkpt lat="44.89605" lon="0.86652">
        <ele>89.5</ele>
        <time>1970-01-01T01:12:43.000Z</time>
      </trkpt>
      <trkpt lat="44.89603" lon="0.86653">
        <ele>89.7</ele>
        <time>1970-01-01T01:12:44.000Z</time>
      </trkpt>
      <trkpt lat="44.89601" lon="0.86654">
        <ele>89.8</ele>
        <time>1970-01-01T01:12:45.000Z</time>
      </trkpt>
      <trkpt lat="44.89599" lon="0.86656">
        <ele>89.9</ele>
        <time>1970-01-01T01:12:46.000Z</time>
      </trkpt>
      <trkpt lat="44.89597" lon="0.86658">
        <ele>90</ele>
        <time>1970-01-01T01:12:47.000Z</time>
      </trkpt>
      <trkpt lat="44.89594" lon="0.8666">
        <ele>90.2</ele>
        <time>1970-01-01T01:12:48.000Z</time>
      </trkpt>
      <trkpt lat="44.89592" lon="0.86661">
        <ele>90.3</ele>
        <time>1970-01-01T01:12:49.000Z</time>
      </trkpt>
      <trkpt lat="44.89589" lon="0.86663">
        <ele>90.5</ele>
        <time>1970-01-01T01:12:50.000Z</time>
      </trkpt>
      <trkpt lat="44.89587" lon="0.86665">
        <ele>90.6</ele>
        <time>1970-01-01T01:12:51.000Z</time>
      </trkpt>
      <trkpt lat="44.89585" lon="0.86666">
        <ele>90.8</ele>
        <time>1970-01-01T01:12:52.000Z</time>
      </trkpt>
      <trkpt lat="44.89583" lon="0.86668">
        <ele>90.9</ele>
        <time>1970-01-01T01:12:53.000Z</time>
      </trkpt>
      <trkpt lat="44.89581" lon="0.86669">
        <ele>91</ele>
        <time>1970-01-01T01:12:54.000Z</time>
      </trkpt>
      <trkpt lat="44.89578" lon="0.8667">
        <ele>91.1</ele>
        <time>1970-01-01T01:12:55.000Z</time>
      </trkpt>
      <trkpt lat="44.89577" lon="0.86671">
        <ele>91.3</ele>
        <time>1970-01-01T01:12:56.000Z</time>
      </trkpt>
      <trkpt lat="44.89574" lon="0.86673">
        <ele>91.4</ele>
        <time>1970-01-01T01:12:57.000Z</time>
      </trkpt>
      <trkpt lat="44.89572" lon="0.86675">
        <ele>91.5</ele>
        <time>1970-01-01T01:12:58.000Z</time>
      </trkpt>
      <trkpt lat="44.8957" lon="0.86676">
        <ele>91.7</ele>
        <time>1970-01-01T01:12:59.000Z</time>
      </trkpt>
      <trkpt lat="44.89568" lon="0.86678">
        <ele>91.8</ele>
        <time>1970-01-01T01:13:00.000Z</time>
      </trkpt>
      <trkpt lat="44.89566" lon="0.8668">
        <ele>91.9</ele>
        <time>1970-01-01T01:13:01.000Z</time>
      </trkpt>
      <trkpt lat="44.89564" lon="0.86681">
        <ele>92.1</ele>
        <time>1970-01-01T01:13:02.000Z</time>
      </trkpt>
      <trkpt lat="44.89561" lon="0.86682">
        <ele>92.2</ele>
        <time>1970-01-01T01:13:03.000Z</time>
      </trkpt>
      <trkpt lat="44.89559" lon="0.86682">
        <ele>92.3</ele>
        <time>1970-01-01T01:13:04.000Z</time>
      </trkpt>
      <trkpt lat="44.89557" lon="0.86683">
        <ele>92.4</ele>
        <time>1970-01-01T01:13:05.000Z</time>
      </trkpt>
      <trkpt lat="44.89555" lon="0.86683">
        <ele>92.5</ele>
        <time>1970-01-01T01:13:06.000Z</time>
      </trkpt>
      <trkpt lat="44.89553" lon="0.86684">
        <ele>92.6</ele>
        <time>1970-01-01T01:13:07.000Z</time>
      </trkpt>
      <trkpt lat="44.89551" lon="0.86685">
        <ele>92.7</ele>
        <time>1970-01-01T01:13:08.000Z</time>
      </trkpt>
      <trkpt lat="44.8955" lon="0.86686">
        <ele>92.8</ele>
        <time>1970-01-01T01:13:09.000Z</time>
      </trkpt>
      <trkpt lat="44.89548" lon="0.86688">
        <ele>93</ele>
        <time>1970-01-01T01:13:10.000Z</time>
      </trkpt>
      <trkpt lat="44.89546" lon="0.86689">
        <ele>93.1</ele>
        <time>1970-01-01T01:13:11.000Z</time>
      </trkpt>
      <trkpt lat="44.89543" lon="0.86691">
        <ele>93.2</ele>
        <time>1970-01-01T01:13:12.000Z</time>
      </trkpt>
      <trkpt lat="44.89541" lon="0.86692">
        <ele>93.4</ele>
        <time>1970-01-01T01:13:13.000Z</time>
      </trkpt>
      <trkpt lat="44.89539" lon="0.86693">
        <ele>93.5</ele>
        <time>1970-01-01T01:13:14.000Z</time>
      </trkpt>
      <trkpt lat="44.89537" lon="0.86694">
        <ele>93.6</ele>
        <time>1970-01-01T01:13:15.000Z</time>
      </trkpt>
      <trkpt lat="44.89535" lon="0.86696">
        <ele>93.7</ele>
        <time>1970-01-01T01:13:16.000Z</time>
      </trkpt>
      <trkpt lat="44.89533" lon="0.86697">
        <ele>93.8</ele>
        <time>1970-01-01T01:13:17.000Z</time>
      </trkpt>
      <trkpt lat="44.89531" lon="0.86698">
        <ele>94</ele>
        <time>1970-01-01T01:13:18.000Z</time>
      </trkpt>
      <trkpt lat="44.89529" lon="0.86699">
        <ele>94.1</ele>
        <time>1970-01-01T01:13:19.000Z</time>
      </trkpt>
      <trkpt lat="44.89527" lon="0.86701">
        <ele>94.2</ele>
        <time>1970-01-01T01:13:20.000Z</time>
      </trkpt>
      <trkpt lat="44.89525" lon="0.86702">
        <ele>94.3</ele>
        <time>1970-01-01T01:13:21.000Z</time>
      </trkpt>
      <trkpt lat="44.89523" lon="0.86704">
        <ele>94.4</ele>
        <time>1970-01-01T01:13:22.000Z</time>
      </trkpt>
      <trkpt lat="44.89521" lon="0.86704">
        <ele>94.5</ele>
        <time>1970-01-01T01:13:23.000Z</time>
      </trkpt>
      <trkpt lat="44.89519" lon="0.86705">
        <ele>94.6</ele>
        <time>1970-01-01T01:13:24.000Z</time>
      </trkpt>
      <trkpt lat="44.89517" lon="0.86706">
        <ele>94.7</ele>
        <time>1970-01-01T01:13:25.000Z</time>
      </trkpt>
      <trkpt lat="44.89516" lon="0.86707">
        <ele>94.8</ele>
        <time>1970-01-01T01:13:26.000Z</time>
      </trkpt>
      <trkpt lat="44.89514" lon="0.86709">
        <ele>95</ele>
        <time>1970-01-01T01:13:27.000Z</time>
      </trkpt>
      <trkpt lat="44.89512" lon="0.8671">
        <ele>95</ele>
        <time>1970-01-01T01:13:28.000Z</time>
      </trkpt>
      <trkpt lat="44.89511" lon="0.86711">
        <ele>95.1</ele>
        <time>1970-01-01T01:13:29.000Z</time>
      </trkpt>
      <trkpt lat="44.89509" lon="0.86711">
        <ele>95.2</ele>
        <time>1970-01-01T01:13:30.000Z</time>
      </trkpt>
      <trkpt lat="44.89508" lon="0.86712">
        <ele>95.3</ele>
        <time>1970-01-01T01:13:31.000Z</time>
      </trkpt>
      <trkpt lat="44.89507" lon="0.86713">
        <ele>95.4</ele>
        <time>1970-01-01T01:13:32.000Z</time>
      </trkpt>
      <trkpt lat="44.89505" lon="0.86714">
        <ele>95.5</ele>
        <time>1970-01-01T01:13:33.000Z</time>
      </trkpt>
      <trkpt lat="44.89504" lon="0.86715">
        <ele>95.6</ele>
        <time>1970-01-01T01:13:34.000Z</time>
      </trkpt>
      <trkpt lat="44.89502" lon="0.86716">
        <ele>95.7</ele>
        <time>1970-01-01T01:13:35.000Z</time>
      </trkpt>
      <trkpt lat="44.895" lon="0.86717">
        <ele>95.8</ele>
        <time>1970-01-01T01:13:36.000Z</time>
      </trkpt>
      <trkpt lat="44.89499" lon="0.86719">
        <ele>95.9</ele>
        <time>1970-01-01T01:13:37.000Z</time>
      </trkpt>
      <trkpt lat="44.89497" lon="0.86721">
        <ele>96</ele>
        <time>1970-01-01T01:13:38.000Z</time>
      </trkpt>
      <trkpt lat="44.89496" lon="0.86722">
        <ele>96.1</ele>
        <time>1970-01-01T01:13:39.000Z</time>
      </trkpt>
      <trkpt lat="44.89494" lon="0.86724">
        <ele>96.2</ele>
        <time>1970-01-01T01:13:40.000Z</time>
      </trkpt>
      <trkpt lat="44.89492" lon="0.86725">
        <ele>96.3</ele>
        <time>1970-01-01T01:13:41.000Z</time>
      </trkpt>
      <trkpt lat="44.8949" lon="0.86727">
        <ele>96.4</ele>
        <time>1970-01-01T01:13:42.000Z</time>
      </trkpt>
      <trkpt lat="44.89488" lon="0.86728">
        <ele>96.5</ele>
        <time>1970-01-01T01:13:43.000Z</time>
      </trkpt>
      <trkpt lat="44.89486" lon="0.86729">
        <ele>96.7</ele>
        <time>1970-01-01T01:13:44.000Z</time>
      </trkpt>
      <trkpt lat="44.89485" lon="0.86731">
        <ele>96.8</ele>
        <time>1970-01-01T01:13:45.000Z</time>
      </trkpt>
      <trkpt lat="44.89483" lon="0.86732">
        <ele>96.9</ele>
        <time>1970-01-01T01:13:46.000Z</time>
      </trkpt>
      <trkpt lat="44.89481" lon="0.86733">
        <ele>97</ele>
        <time>1970-01-01T01:13:47.000Z</time>
      </trkpt>
      <trkpt lat="44.89479" lon="0.86734">
        <ele>97.1</ele>
        <time>1970-01-01T01:13:48.000Z</time>
      </trkpt>
      <trkpt lat="44.89477" lon="0.86735">
        <ele>97.2</ele>
        <time>1970-01-01T01:13:49.000Z</time>
      </trkpt>
      <trkpt lat="44.89476" lon="0.86737">
        <ele>97.3</ele>
        <time>1970-01-01T01:13:50.000Z</time>
      </trkpt>
      <trkpt lat="44.89473" lon="0.86738">
        <ele>97.4</ele>
        <time>1970-01-01T01:13:51.000Z</time>
      </trkpt>
      <trkpt lat="44.89471" lon="0.86739">
        <ele>97.5</ele>
        <time>1970-01-01T01:13:52.000Z</time>
      </trkpt>
      <trkpt lat="44.89469" lon="0.8674">
        <ele>97.7</ele>
        <time>1970-01-01T01:13:53.000Z</time>
      </trkpt>
      <trkpt lat="44.89467" lon="0.86741">
        <ele>97.8</ele>
        <time>1970-01-01T01:13:54.000Z</time>
      </trkpt>
      <trkpt lat="44.89466" lon="0.86742">
        <ele>97.9</ele>
        <time>1970-01-01T01:13:55.000Z</time>
      </trkpt>
      <trkpt lat="44.89464" lon="0.86744">
        <ele>98</ele>
        <time>1970-01-01T01:13:56.000Z</time>
      </trkpt>
      <trkpt lat="44.89462" lon="0.86745">
        <ele>98.1</ele>
        <time>1970-01-01T01:13:57.000Z</time>
      </trkpt>
      <trkpt lat="44.89461" lon="0.86746">
        <ele>98.2</ele>
        <time>1970-01-01T01:13:58.000Z</time>
      </trkpt>
      <trkpt lat="44.89459" lon="0.86748">
        <ele>98.3</ele>
        <time>1970-01-01T01:13:59.000Z</time>
      </trkpt>
      <trkpt lat="44.89457" lon="0.86749">
        <ele>98.4</ele>
        <time>1970-01-01T01:14:00.000Z</time>
      </trkpt>
      <trkpt lat="44.89455" lon="0.8675">
        <ele>98.6</ele>
        <time>1970-01-01T01:14:01.000Z</time>
      </trkpt>
      <trkpt lat="44.89452" lon="0.86751">
        <ele>98.7</ele>
        <time>1970-01-01T01:14:02.000Z</time>
      </trkpt>
      <trkpt lat="44.8945" lon="0.86752">
        <ele>98.8</ele>
        <time>1970-01-01T01:14:03.000Z</time>
      </trkpt>
      <trkpt lat="44.89448" lon="0.86753">
        <ele>98.9</ele>
        <time>1970-01-01T01:14:04.000Z</time>
      </trkpt>
      <trkpt lat="44.89446" lon="0.86754">
        <ele>99</ele>
        <time>1970-01-01T01:14:05.000Z</time>
      </trkpt>
      <trkpt lat="44.89445" lon="0.86755">
        <ele>99.1</ele>
        <time>1970-01-01T01:14:06.000Z</time>
      </trkpt>
      <trkpt lat="44.89443" lon="0.86755">
        <ele>99.2</ele>
        <time>1970-01-01T01:14:07.000Z</time>
      </trkpt>
      <trkpt lat="44.89441" lon="0.86756">
        <ele>99.3</ele>
        <time>1970-01-01T01:14:08.000Z</time>
      </trkpt>
      <trkpt lat="44.89438" lon="0.86757">
        <ele>99.5</ele>
        <time>1970-01-01T01:14:09.000Z</time>
      </trkpt>
      <trkpt lat="44.89436" lon="0.86757">
        <ele>99.6</ele>
        <time>1970-01-01T01:14:10.000Z</time>
      </trkpt>
      <trkpt lat="44.89434" lon="0.86758">
        <ele>99.7</ele>
        <time>1970-01-01T01:14:11.000Z</time>
      </trkpt>
      <trkpt lat="44.89431" lon="0.8676">
        <ele>99.9</ele>
        <time>1970-01-01T01:14:12.000Z</time>
      </trkpt>
      <trkpt lat="44.89429" lon="0.86761">
        <ele>100</ele>
        <time>1970-01-01T01:14:13.000Z</time>
      </trkpt>
      <trkpt lat="44.89426" lon="0.86763">
        <ele>100.2</ele>
        <time>1970-01-01T01:14:14.000Z</time>
      </trkpt>
      <trkpt lat="44.89424" lon="0.86764">
        <ele>100.3</ele>
        <time>1970-01-01T01:14:15.000Z</time>
      </trkpt>
      <trkpt lat="44.89422" lon="0.86765">
        <ele>100.4</ele>
        <time>1970-01-01T01:14:16.000Z</time>
      </trkpt>
      <trkpt lat="44.89419" lon="0.86766">
        <ele>100.6</ele>
        <time>1970-01-01T01:14:17.000Z</time>
      </trkpt>
      <trkpt lat="44.89417" lon="0.86767">
        <ele>100.7</ele>
        <time>1970-01-01T01:14:18.000Z</time>
      </trkpt>
      <trkpt lat="44.89415" lon="0.86768">
        <ele>100.8</ele>
        <time>1970-01-01T01:14:19.000Z</time>
      </trkpt>
      <trkpt lat="44.89413" lon="0.86769">
        <ele>100.9</ele>
        <time>1970-01-01T01:14:20.000Z</time>
      </trkpt>
      <trkpt lat="44.8941" lon="0.8677">
        <ele>101.1</ele>
        <time>1970-01-01T01:14:21.000Z</time>
      </trkpt>
      <trkpt lat="44.89408" lon="0.8677">
        <ele>101.2</ele>
        <time>1970-01-01T01:14:22.000Z</time>
      </trkpt>
      <trkpt lat="44.89406" lon="0.86771">
        <ele>101.3</ele>
        <time>1970-01-01T01:14:23.000Z</time>
      </trkpt>
      <trkpt lat="44.89404" lon="0.86772">
        <ele>101.4</ele>
        <time>1970-01-01T01:14:24.000Z</time>
      </trkpt>
      <trkpt lat="44.89401" lon="0.86773">
        <ele>101.6</ele>
        <time>1970-01-01T01:14:25.000Z</time>
      </trkpt>
      <trkpt lat="44.89399" lon="0.86774">
        <ele>101.7</ele>
        <time>1970-01-01T01:14:26.000Z</time>
      </trkpt>
      <trkpt lat="44.89397" lon="0.86775">
        <ele>101.8</ele>
        <time>1970-01-01T01:14:27.000Z</time>
      </trkpt>
      <trkpt lat="44.89395" lon="0.86777">
        <ele>101.9</ele>
        <time>1970-01-01T01:14:28.000Z</time>
      </trkpt>
      <trkpt lat="44.89393" lon="0.86778">
        <ele>102.1</ele>
        <time>1970-01-01T01:14:29.000Z</time>
      </trkpt>
      <trkpt lat="44.89391" lon="0.86779">
        <ele>102.2</ele>
        <time>1970-01-01T01:14:30.000Z</time>
      </trkpt>
      <trkpt lat="44.89389" lon="0.8678">
        <ele>102.3</ele>
        <time>1970-01-01T01:14:31.000Z</time>
      </trkpt>
      <trkpt lat="44.89387" lon="0.86781">
        <ele>102.4</ele>
        <time>1970-01-01T01:14:32.000Z</time>
      </trkpt>
      <trkpt lat="44.89385" lon="0.86782">
        <ele>102.5</ele>
        <time>1970-01-01T01:14:33.000Z</time>
      </trkpt>
      <trkpt lat="44.89384" lon="0.86782">
        <ele>102.6</ele>
        <time>1970-01-01T01:14:34.000Z</time>
      </trkpt>
      <trkpt lat="44.89382" lon="0.86783">
        <ele>102.7</ele>
        <time>1970-01-01T01:14:35.000Z</time>
      </trkpt>
      <trkpt lat="44.8938" lon="0.86785">
        <ele>102.8</ele>
        <time>1970-01-01T01:14:36.000Z</time>
      </trkpt>
      <trkpt lat="44.89378" lon="0.86786">
        <ele>103</ele>
        <time>1970-01-01T01:14:37.000Z</time>
      </trkpt>
      <trkpt lat="44.89376" lon="0.86788">
        <ele>103.1</ele>
        <time>1970-01-01T01:14:38.000Z</time>
      </trkpt>
      <trkpt lat="44.89374" lon="0.86789">
        <ele>103.2</ele>
        <time>1970-01-01T01:14:39.000Z</time>
      </trkpt>
      <trkpt lat="44.89372" lon="0.8679">
        <ele>103.3</ele>
        <time>1970-01-01T01:14:40.000Z</time>
      </trkpt>
      <trkpt lat="44.89371" lon="0.86792">
        <ele>103.4</ele>
        <time>1970-01-01T01:14:41.000Z</time>
      </trkpt>
      <trkpt lat="44.89369" lon="0.86793">
        <ele>103.5</ele>
        <time>1970-01-01T01:14:42.000Z</time>
      </trkpt>
      <trkpt lat="44.89367" lon="0.86794">
        <ele>103.6</ele>
        <time>1970-01-01T01:14:43.000Z</time>
      </trkpt>
      <trkpt lat="44.89366" lon="0.86795">
        <ele>103.7</ele>
        <time>1970-01-01T01:14:44.000Z</time>
      </trkpt>
      <trkpt lat="44.89364" lon="0.86796">
        <ele>103.8</ele>
        <time>1970-01-01T01:14:45.000Z</time>
      </trkpt>
      <trkpt lat="44.89363" lon="0.86797">
        <ele>103.9</ele>
        <time>1970-01-01T01:14:46.000Z</time>
      </trkpt>
      <trkpt lat="44.89361" lon="0.86798">
        <ele>104</ele>
        <time>1970-01-01T01:14:47.000Z</time>
      </trkpt>
      <trkpt lat="44.89359" lon="0.868">
        <ele>104.1</ele>
        <time>1970-01-01T01:14:48.000Z</time>
      </trkpt>
      <trkpt lat="44.89357" lon="0.86801">
        <ele>104.2</ele>
        <time>1970-01-01T01:14:49.000Z</time>
      </trkpt>
      <trkpt lat="44.89356" lon="0.86802">
        <ele>104.3</ele>
        <time>1970-01-01T01:14:50.000Z</time>
      </trkpt>
      <trkpt lat="44.89354" lon="0.86803">
        <ele>104.4</ele>
        <time>1970-01-01T01:14:51.000Z</time>
      </trkpt>
      <trkpt lat="44.89352" lon="0.86804">
        <ele>104.5</ele>
        <time>1970-01-01T01:14:52.000Z</time>
      </trkpt>
      <trkpt lat="44.89351" lon="0.86805">
        <ele>104.6</ele>
        <time>1970-01-01T01:14:53.000Z</time>
      </trkpt>
      <trkpt lat="44.89349" lon="0.86806">
        <ele>104.7</ele>
        <time>1970-01-01T01:14:54.000Z</time>
      </trkpt>
      <trkpt lat="44.89347" lon="0.86807">
        <ele>104.8</ele>
        <time>1970-01-01T01:14:55.000Z</time>
      </trkpt>
      <trkpt lat="44.89345" lon="0.86808">
        <ele>104.9</ele>
        <time>1970-01-01T01:14:56.000Z</time>
      </trkpt>
      <trkpt lat="44.89344" lon="0.86809">
        <ele>105</ele>
        <time>1970-01-01T01:14:57.000Z</time>
      </trkpt>
      <trkpt lat="44.89342" lon="0.8681">
        <ele>105.1</ele>
        <time>1970-01-01T01:14:58.000Z</time>
      </trkpt>
      <trkpt lat="44.89341" lon="0.86811">
        <ele>105.2</ele>
        <time>1970-01-01T01:14:59.000Z</time>
      </trkpt>
      <trkpt lat="44.89339" lon="0.86812">
        <ele>105.3</ele>
        <time>1970-01-01T01:15:00.000Z</time>
      </trkpt>
      <trkpt lat="44.89337" lon="0.86813">
        <ele>105.4</ele>
        <time>1970-01-01T01:15:01.000Z</time>
      </trkpt>
      <trkpt lat="44.89336" lon="0.86815">
        <ele>105.5</ele>
        <time>1970-01-01T01:15:02.000Z</time>
      </trkpt>
      <trkpt lat="44.89335" lon="0.86816">
        <ele>105.5</ele>
        <time>1970-01-01T01:15:03.000Z</time>
      </trkpt>
      <trkpt lat="44.89334" lon="0.86817">
        <ele>105.6</ele>
        <time>1970-01-01T01:15:04.000Z</time>
      </trkpt>
      <trkpt lat="44.89332" lon="0.86818">
        <ele>105.7</ele>
        <time>1970-01-01T01:15:05.000Z</time>
      </trkpt>
      <trkpt lat="44.89331" lon="0.86819">
        <ele>105.8</ele>
        <time>1970-01-01T01:15:06.000Z</time>
      </trkpt>
      <trkpt lat="44.89329" lon="0.86819">
        <ele>105.9</ele>
        <time>1970-01-01T01:15:07.000Z</time>
      </trkpt>
      <trkpt lat="44.89328" lon="0.8682">
        <ele>105.9</ele>
        <time>1970-01-01T01:15:08.000Z</time>
      </trkpt>
      <trkpt lat="44.89327" lon="0.86821">
        <ele>106</ele>
        <time>1970-01-01T01:15:09.000Z</time>
      </trkpt>
      <trkpt lat="44.89324" lon="0.86821">
        <ele>106.2</ele>
        <time>1970-01-01T01:15:10.000Z</time>
      </trkpt>
      <trkpt lat="44.89322" lon="0.86822">
        <ele>106.3</ele>
        <time>1970-01-01T01:15:11.000Z</time>
      </trkpt>
      <trkpt lat="44.89321" lon="0.86824">
        <ele>106.4</ele>
        <time>1970-01-01T01:15:12.000Z</time>
      </trkpt>
      <trkpt lat="44.89319" lon="0.86825">
        <ele>106.5</ele>
        <time>1970-01-01T01:15:13.000Z</time>
      </trkpt>
      <trkpt lat="44.89318" lon="0.86826">
        <ele>106.6</ele>
        <time>1970-01-01T01:15:14.000Z</time>
      </trkpt>
      <trkpt lat="44.89316" lon="0.86827">
        <ele>106.7</ele>
        <time>1970-01-01T01:15:15.000Z</time>
      </trkpt>
      <trkpt lat="44.89315" lon="0.86828">
        <ele>106.7</ele>
        <time>1970-01-01T01:15:16.000Z</time>
      </trkpt>
      <trkpt lat="44.89313" lon="0.86829">
        <ele>106.8</ele>
        <time>1970-01-01T01:15:17.000Z</time>
      </trkpt>
      <trkpt lat="44.89312" lon="0.86831">
        <ele>106.9</ele>
        <time>1970-01-01T01:15:18.000Z</time>
      </trkpt>
      <trkpt lat="44.8931" lon="0.86832">
        <ele>107</ele>
        <time>1970-01-01T01:15:19.000Z</time>
      </trkpt>
      <trkpt lat="44.89308" lon="0.86833">
        <ele>107.1</ele>
        <time>1970-01-01T01:15:20.000Z</time>
      </trkpt>
      <trkpt lat="44.89307" lon="0.86834">
        <ele>107.2</ele>
        <time>1970-01-01T01:15:21.000Z</time>
      </trkpt>
      <trkpt lat="44.89306" lon="0.86836">
        <ele>107.3</ele>
        <time>1970-01-01T01:15:22.000Z</time>
      </trkpt>
      <trkpt lat="44.89304" lon="0.86837">
        <ele>107.4</ele>
        <time>1970-01-01T01:15:23.000Z</time>
      </trkpt>
      <trkpt lat="44.89303" lon="0.86839">
        <ele>107.5</ele>
        <time>1970-01-01T01:15:24.000Z</time>
      </trkpt>
      <trkpt lat="44.89301" lon="0.8684">
        <ele>107.6</ele>
        <time>1970-01-01T01:15:25.000Z</time>
      </trkpt>
      <trkpt lat="44.893" lon="0.86842">
        <ele>107.7</ele>
        <time>1970-01-01T01:15:26.000Z</time>
      </trkpt>
      <trkpt lat="44.89298" lon="0.86843">
        <ele>107.8</ele>
        <time>1970-01-01T01:15:27.000Z</time>
      </trkpt>
      <trkpt lat="44.89297" lon="0.86845">
        <ele>107.9</ele>
        <time>1970-01-01T01:15:28.000Z</time>
      </trkpt>
      <trkpt lat="44.89296" lon="0.86847">
        <ele>108</ele>
        <time>1970-01-01T01:15:29.000Z</time>
      </trkpt>
      <trkpt lat="44.89295" lon="0.86849">
        <ele>108.1</ele>
        <time>1970-01-01T01:15:30.000Z</time>
      </trkpt>
      <trkpt lat="44.89294" lon="0.86851">
        <ele>108.2</ele>
        <time>1970-01-01T01:15:31.000Z</time>
      </trkpt>
      <trkpt lat="44.89292" lon="0.86853">
        <ele>108.3</ele>
        <time>1970-01-01T01:15:32.000Z</time>
      </trkpt>
      <trkpt lat="44.89291" lon="0.86854">
        <ele>108.4</ele>
        <time>1970-01-01T01:15:33.000Z</time>
      </trkpt>
      <trkpt lat="44.8929" lon="0.86856">
        <ele>108.5</ele>
        <time>1970-01-01T01:15:34.000Z</time>
      </trkpt>
      <trkpt lat="44.89289" lon="0.86858">
        <ele>108.6</ele>
        <time>1970-01-01T01:15:35.000Z</time>
      </trkpt>
      <trkpt lat="44.89288" lon="0.86859">
        <ele>108.7</ele>
        <time>1970-01-01T01:15:36.000Z</time>
      </trkpt>
      <trkpt lat="44.89286" lon="0.86861">
        <ele>108.7</ele>
        <time>1970-01-01T01:15:37.000Z</time>
      </trkpt>
      <trkpt lat="44.89285" lon="0.86863">
        <ele>108.8</ele>
        <time>1970-01-01T01:15:38.000Z</time>
      </trkpt>
      <trkpt lat="44.89285" lon="0.86866">
        <ele>108.9</ele>
        <time>1970-01-01T01:15:39.000Z</time>
      </trkpt>
      <trkpt lat="44.89284" lon="0.86868">
        <ele>109</ele>
        <time>1970-01-01T01:15:40.000Z</time>
      </trkpt>
      <trkpt lat="44.89283" lon="0.8687">
        <ele>109.1</ele>
        <time>1970-01-01T01:15:41.000Z</time>
      </trkpt>
      <trkpt lat="44.89283" lon="0.86873">
        <ele>109.2</ele>
        <time>1970-01-01T01:15:42.000Z</time>
      </trkpt>
      <trkpt lat="44.89282" lon="0.86875">
        <ele>109.3</ele>
        <time>1970-01-01T01:15:43.000Z</time>
      </trkpt>
      <trkpt lat="44.89282" lon="0.86877">
        <ele>109.4</ele>
        <time>1970-01-01T01:15:44.000Z</time>
      </trkpt>
      <trkpt lat="44.89282" lon="0.86879">
        <ele>109.5</ele>
        <time>1970-01-01T01:15:45.000Z</time>
      </trkpt>
      <trkpt lat="44.89281" lon="0.86881">
        <ele>109.6</ele>
        <time>1970-01-01T01:15:46.000Z</time>
      </trkpt>
      <trkpt lat="44.89281" lon="0.86883">
        <ele>109.6</ele>
        <time>1970-01-01T01:15:47.000Z</time>
      </trkpt>
      <trkpt lat="44.89281" lon="0.86885">
        <ele>109.7</ele>
        <time>1970-01-01T01:15:48.000Z</time>
      </trkpt>
      <trkpt lat="44.8928" lon="0.86888">
        <ele>109.8</ele>
        <time>1970-01-01T01:15:49.000Z</time>
      </trkpt>
      <trkpt lat="44.8928" lon="0.8689">
        <ele>109.9</ele>
        <time>1970-01-01T01:15:50.000Z</time>
      </trkpt>
      <trkpt lat="44.89279" lon="0.86893">
        <ele>110</ele>
        <time>1970-01-01T01:15:51.000Z</time>
      </trkpt>
      <trkpt lat="44.89278" lon="0.86896">
        <ele>110.1</ele>
        <time>1970-01-01T01:15:52.000Z</time>
      </trkpt>
      <trkpt lat="44.89278" lon="0.86898">
        <ele>110.3</ele>
        <time>1970-01-01T01:15:53.000Z</time>
      </trkpt>
      <trkpt lat="44.89278" lon="0.86901">
        <ele>110.4</ele>
        <time>1970-01-01T01:15:54.000Z</time>
      </trkpt>
      <trkpt lat="44.89277" lon="0.86904">
        <ele>110.5</ele>
        <time>1970-01-01T01:15:55.000Z</time>
      </trkpt>
      <trkpt lat="44.89276" lon="0.86907">
        <ele>110.6</ele>
        <time>1970-01-01T01:15:56.000Z</time>
      </trkpt>
      <trkpt lat="44.89276" lon="0.86909">
        <ele>110.7</ele>
        <time>1970-01-01T01:15:57.000Z</time>
      </trkpt>
      <trkpt lat="44.89275" lon="0.86911">
        <ele>110.8</ele>
        <time>1970-01-01T01:15:58.000Z</time>
      </trkpt>
      <trkpt lat="44.89274" lon="0.86914">
        <ele>110.9</ele>
        <time>1970-01-01T01:15:59.000Z</time>
      </trkpt>
      <trkpt lat="44.89274" lon="0.86917">
        <ele>111</ele>
        <time>1970-01-01T01:16:00.000Z</time>
      </trkpt>
      <trkpt lat="44.89273" lon="0.86919">
        <ele>111.1</ele>
        <time>1970-01-01T01:16:01.000Z</time>
      </trkpt>
      <trkpt lat="44.89272" lon="0.86922">
        <ele>111.2</ele>
        <time>1970-01-01T01:16:02.000Z</time>
      </trkpt>
      <trkpt lat="44.8927" lon="0.86925">
        <ele>111.4</ele>
        <time>1970-01-01T01:16:03.000Z</time>
      </trkpt>
      <trkpt lat="44.89269" lon="0.86928">
        <ele>111.5</ele>
        <time>1970-01-01T01:16:04.000Z</time>
      </trkpt>
      <trkpt lat="44.89269" lon="0.86931">
        <ele>111.6</ele>
        <time>1970-01-01T01:16:05.000Z</time>
      </trkpt>
      <trkpt lat="44.89268" lon="0.86935">
        <ele>111.8</ele>
        <time>1970-01-01T01:16:06.000Z</time>
      </trkpt>
      <trkpt lat="44.89267" lon="0.86938">
        <ele>111.9</ele>
        <time>1970-01-01T01:16:07.000Z</time>
      </trkpt>
      <trkpt lat="44.89266" lon="0.86942">
        <ele>112</ele>
        <time>1970-01-01T01:16:08.000Z</time>
      </trkpt>
      <trkpt lat="44.89266" lon="0.86945">
        <ele>112.2</ele>
        <time>1970-01-01T01:16:09.000Z</time>
      </trkpt>
      <trkpt lat="44.89265" lon="0.86949">
        <ele>112.3</ele>
        <time>1970-01-01T01:16:10.000Z</time>
      </trkpt>
      <trkpt lat="44.89264" lon="0.86953">
        <ele>112.5</ele>
        <time>1970-01-01T01:16:11.000Z</time>
      </trkpt>
      <trkpt lat="44.89263" lon="0.86957">
        <ele>112.6</ele>
        <time>1970-01-01T01:16:12.000Z</time>
      </trkpt>
      <trkpt lat="44.89262" lon="0.8696">
        <ele>112.8</ele>
        <time>1970-01-01T01:16:13.000Z</time>
      </trkpt>
      <trkpt lat="44.89261" lon="0.86964">
        <ele>112.9</ele>
        <time>1970-01-01T01:16:14.000Z</time>
      </trkpt>
      <trkpt lat="44.8926" lon="0.86968">
        <ele>113.1</ele>
        <time>1970-01-01T01:16:15.000Z</time>
      </trkpt>
      <trkpt lat="44.89259" lon="0.86972">
        <ele>113.3</ele>
        <time>1970-01-01T01:16:16.000Z</time>
      </trkpt>
      <trkpt lat="44.89258" lon="0.86977">
        <ele>113.4</ele>
        <time>1970-01-01T01:16:17.000Z</time>
      </trkpt>
      <trkpt lat="44.89257" lon="0.86981">
        <ele>113.6</ele>
        <time>1970-01-01T01:16:18.000Z</time>
      </trkpt>
      <trkpt lat="44.89256" lon="0.86985">
        <ele>113.8</ele>
        <time>1970-01-01T01:16:19.000Z</time>
      </trkpt>
      <trkpt lat="44.89255" lon="0.86989">
        <ele>114</ele>
        <time>1970-01-01T01:16:20.000Z</time>
      </trkpt>
      <trkpt lat="44.89253" lon="0.86993">
        <ele>114.2</ele>
        <time>1970-01-01T01:16:21.000Z</time>
      </trkpt>
      <trkpt lat="44.89252" lon="0.86997">
        <ele>114.3</ele>
        <time>1970-01-01T01:16:22.000Z</time>
      </trkpt>
      <trkpt lat="44.89251" lon="0.87001">
        <ele>114.5</ele>
        <time>1970-01-01T01:16:23.000Z</time>
      </trkpt>
      <trkpt lat="44.89249" lon="0.87005">
        <ele>114.6</ele>
        <time>1970-01-01T01:16:24.000Z</time>
      </trkpt>
      <trkpt lat="44.89248" lon="0.87009">
        <ele>114.8</ele>
        <time>1970-01-01T01:16:25.000Z</time>
      </trkpt>
      <trkpt lat="44.89246" lon="0.87013">
        <ele>115</ele>
        <time>1970-01-01T01:16:26.000Z</time>
      </trkpt>
      <trkpt lat="44.89243" lon="0.87017">
        <ele>115.2</ele>
        <time>1970-01-01T01:16:27.000Z</time>
      </trkpt>
      <trkpt lat="44.89241" lon="0.87021">
        <ele>115.4</ele>
        <time>1970-01-01T01:16:28.000Z</time>
      </trkpt>
      <trkpt lat="44.89238" lon="0.87025">
        <ele>115.6</ele>
        <time>1970-01-01T01:16:29.000Z</time>
      </trkpt>
      <trkpt lat="44.89236" lon="0.87029">
        <ele>115.8</ele>
        <time>1970-01-01T01:16:30.000Z</time>
      </trkpt>
      <trkpt lat="44.89234" lon="0.87032">
        <ele>116</ele>
        <time>1970-01-01T01:16:31.000Z</time>
      </trkpt>
      <trkpt lat="44.89233" lon="0.87037">
        <ele>116.2</ele>
        <time>1970-01-01T01:16:32.000Z</time>
      </trkpt>
      <trkpt lat="44.89231" lon="0.87041">
        <ele>116.4</ele>
        <time>1970-01-01T01:16:33.000Z</time>
      </trkpt>
      <trkpt lat="44.89229" lon="0.87046">
        <ele>116.6</ele>
        <time>1970-01-01T01:16:34.000Z</time>
      </trkpt>
      <trkpt lat="44.89228" lon="0.8705">
        <ele>116.7</ele>
        <time>1970-01-01T01:16:35.000Z</time>
      </trkpt>
      <trkpt lat="44.89226" lon="0.87054">
        <ele>116.9</ele>
        <time>1970-01-01T01:16:36.000Z</time>
      </trkpt>
      <trkpt lat="44.89224" lon="0.87058">
        <ele>117.1</ele>
        <time>1970-01-01T01:16:37.000Z</time>
      </trkpt>
      <trkpt lat="44.89222" lon="0.87062">
        <ele>117.3</ele>
        <time>1970-01-01T01:16:38.000Z</time>
      </trkpt>
      <trkpt lat="44.8922" lon="0.87066">
        <ele>117.5</ele>
        <time>1970-01-01T01:16:39.000Z</time>
      </trkpt>
      <trkpt lat="44.89218" lon="0.8707">
        <ele>117.7</ele>
        <time>1970-01-01T01:16:40.000Z</time>
      </trkpt>
      <trkpt lat="44.89216" lon="0.87074">
        <ele>117.9</ele>
        <time>1970-01-01T01:16:41.000Z</time>
      </trkpt>
      <trkpt lat="44.89214" lon="0.87078">
        <ele>118.1</ele>
        <time>1970-01-01T01:16:42.000Z</time>
      </trkpt>
      <trkpt lat="44.89212" lon="0.87083">
        <ele>118.3</ele>
        <time>1970-01-01T01:16:43.000Z</time>
      </trkpt>
      <trkpt lat="44.89209" lon="0.87087">
        <ele>118.5</ele>
        <time>1970-01-01T01:16:44.000Z</time>
      </trkpt>
      <trkpt lat="44.89207" lon="0.87091">
        <ele>118.7</ele>
        <time>1970-01-01T01:16:45.000Z</time>
      </trkpt>
      <trkpt lat="44.89205" lon="0.87095">
        <ele>118.9</ele>
        <time>1970-01-01T01:16:46.000Z</time>
      </trkpt>
      <trkpt lat="44.89203" lon="0.87099">
        <ele>119.1</ele>
        <time>1970-01-01T01:16:47.000Z</time>
      </trkpt>
      <trkpt lat="44.89201" lon="0.87104">
        <ele>119.3</ele>
        <time>1970-01-01T01:16:48.000Z</time>
      </trkpt>
      <trkpt lat="44.89199" lon="0.87108">
        <ele>119.5</ele>
        <time>1970-01-01T01:16:49.000Z</time>
      </trkpt>
      <trkpt lat="44.89197" lon="0.87112">
        <ele>119.7</ele>
        <time>1970-01-01T01:16:50.000Z</time>
      </trkpt>
      <trkpt lat="44.89194" lon="0.87116">
        <ele>119.9</ele>
        <time>1970-01-01T01:16:51.000Z</time>
      </trkpt>
      <trkpt lat="44.89192" lon="0.8712">
        <ele>120.1</ele>
        <time>1970-01-01T01:16:52.000Z</time>
      </trkpt>
      <trkpt lat="44.89191" lon="0.87125">
        <ele>120.2</ele>
        <time>1970-01-01T01:16:53.000Z</time>
      </trkpt>
      <trkpt lat="44.89189" lon="0.87129">
        <ele>120.4</ele>
        <time>1970-01-01T01:16:54.000Z</time>
      </trkpt>
      <trkpt lat="44.89187" lon="0.87133">
        <ele>120.6</ele>
        <time>1970-01-01T01:16:55.000Z</time>
      </trkpt>
      <trkpt lat="44.89185" lon="0.87137">
        <ele>120.8</ele>
        <time>1970-01-01T01:16:56.000Z</time>
      </trkpt>
      <trkpt lat="44.89183" lon="0.87141">
        <ele>121</ele>
        <time>1970-01-01T01:16:57.000Z</time>
      </trkpt>
      <trkpt lat="44.89181" lon="0.87145">
        <ele>121.2</ele>
        <time>1970-01-01T01:16:58.000Z</time>
      </trkpt>
      <trkpt lat="44.89179" lon="0.87149">
        <ele>121.4</ele>
        <time>1970-01-01T01:16:59.000Z</time>
      </trkpt>
      <trkpt lat="44.89178" lon="0.87154">
        <ele>121.6</ele>
        <time>1970-01-01T01:17:00.000Z</time>
      </trkpt>
      <trkpt lat="44.89176" lon="0.87158">
        <ele>121.8</ele>
        <time>1970-01-01T01:17:01.000Z</time>
      </trkpt>
      <trkpt lat="44.89174" lon="0.87162">
        <ele>121.9</ele>
        <time>1970-01-01T01:17:02.000Z</time>
      </trkpt>
      <trkpt lat="44.89172" lon="0.87166">
        <ele>122.1</ele>
        <time>1970-01-01T01:17:03.000Z</time>
      </trkpt>
      <trkpt lat="44.89171" lon="0.8717">
        <ele>122.3</ele>
        <time>1970-01-01T01:17:04.000Z</time>
      </trkpt>
      <trkpt lat="44.8917" lon="0.87174">
        <ele>122.5</ele>
        <time>1970-01-01T01:17:05.000Z</time>
      </trkpt>
      <trkpt lat="44.89168" lon="0.87179">
        <ele>122.7</ele>
        <time>1970-01-01T01:17:06.000Z</time>
      </trkpt>
      <trkpt lat="44.89167" lon="0.87184">
        <ele>122.9</ele>
        <time>1970-01-01T01:17:07.000Z</time>
      </trkpt>
      <trkpt lat="44.89165" lon="0.87189">
        <ele>123.1</ele>
        <time>1970-01-01T01:17:08.000Z</time>
      </trkpt>
      <trkpt lat="44.89164" lon="0.87194">
        <ele>123.3</ele>
        <time>1970-01-01T01:17:09.000Z</time>
      </trkpt>
      <trkpt lat="44.89162" lon="0.872">
        <ele>123.5</ele>
        <time>1970-01-01T01:17:10.000Z</time>
      </trkpt>
      <trkpt lat="44.89161" lon="0.87206">
        <ele>123.8</ele>
        <time>1970-01-01T01:17:11.000Z</time>
      </trkpt>
      <trkpt lat="44.89159" lon="0.87212">
        <ele>124</ele>
        <time>1970-01-01T01:17:12.000Z</time>
      </trkpt>
      <trkpt lat="44.89158" lon="0.87219">
        <ele>124.3</ele>
        <time>1970-01-01T01:17:13.000Z</time>
      </trkpt>
      <trkpt lat="44.89156" lon="0.87225">
        <ele>124.5</ele>
        <time>1970-01-01T01:17:14.000Z</time>
      </trkpt>
      <trkpt lat="44.89155" lon="0.87231">
        <ele>124.8</ele>
        <time>1970-01-01T01:17:15.000Z</time>
      </trkpt>
      <trkpt lat="44.89153" lon="0.87236">
        <ele>125</ele>
        <time>1970-01-01T01:17:16.000Z</time>
      </trkpt>
      <trkpt lat="44.8915" lon="0.87242">
        <ele>125.3</ele>
        <time>1970-01-01T01:17:17.000Z</time>
      </trkpt>
      <trkpt lat="44.89148" lon="0.87248">
        <ele>125.5</ele>
        <time>1970-01-01T01:17:18.000Z</time>
      </trkpt>
      <trkpt lat="44.89145" lon="0.87254">
        <ele>125.8</ele>
        <time>1970-01-01T01:17:19.000Z</time>
      </trkpt>
      <trkpt lat="44.89143" lon="0.8726">
        <ele>126.1</ele>
        <time>1970-01-01T01:17:20.000Z</time>
      </trkpt>
      <trkpt lat="44.89141" lon="0.87265">
        <ele>126.3</ele>
        <time>1970-01-01T01:17:21.000Z</time>
      </trkpt>
      <trkpt lat="44.89139" lon="0.8727">
        <ele>126.5</ele>
        <time>1970-01-01T01:17:22.000Z</time>
      </trkpt>
      <trkpt lat="44.89137" lon="0.87275">
        <ele>126.7</ele>
        <time>1970-01-01T01:17:23.000Z</time>
      </trkpt>
      <trkpt lat="44.89135" lon="0.8728">
        <ele>127</ele>
        <time>1970-01-01T01:17:24.000Z</time>
      </trkpt>
      <trkpt lat="44.89133" lon="0.87286">
        <ele>127.2</ele>
        <time>1970-01-01T01:17:25.000Z</time>
      </trkpt>
      <trkpt lat="44.89131" lon="0.87291">
        <ele>127.4</ele>
        <time>1970-01-01T01:17:26.000Z</time>
      </trkpt>
      <trkpt lat="44.89129" lon="0.87297">
        <ele>127.7</ele>
        <time>1970-01-01T01:17:27.000Z</time>
      </trkpt>
      <trkpt lat="44.89127" lon="0.87301">
        <ele>127.9</ele>
        <time>1970-01-01T01:17:28.000Z</time>
      </trkpt>
      <trkpt lat="44.89125" lon="0.87306">
        <ele>128.1</ele>
        <time>1970-01-01T01:17:29.000Z</time>
      </trkpt>
      <trkpt lat="44.89124" lon="0.87311">
        <ele>128.3</ele>
        <time>1970-01-01T01:17:30.000Z</time>
      </trkpt>
      <trkpt lat="44.89122" lon="0.87316">
        <ele>128.5</ele>
        <time>1970-01-01T01:17:31.000Z</time>
      </trkpt>
      <trkpt lat="44.89121" lon="0.87321">
        <ele>128.7</ele>
        <time>1970-01-01T01:17:32.000Z</time>
      </trkpt>
      <trkpt lat="44.89118" lon="0.87327">
        <ele>129</ele>
        <time>1970-01-01T01:17:33.000Z</time>
      </trkpt>
      <trkpt lat="44.89114" lon="0.87331">
        <ele>129.3</ele>
        <time>1970-01-01T01:17:34.000Z</time>
      </trkpt>
      <trkpt lat="44.89109" lon="0.87335">
        <ele>129.6</ele>
        <time>1970-01-01T01:17:35.000Z</time>
      </trkpt>
      <trkpt lat="44.89104" lon="0.87338">
        <ele>129.8</ele>
        <time>1970-01-01T01:17:36.000Z</time>
      </trkpt>
      <trkpt lat="44.89099" lon="0.8734">
        <ele>130.1</ele>
        <time>1970-01-01T01:17:37.000Z</time>
      </trkpt>
      <trkpt lat="44.89094" lon="0.87342">
        <ele>130.4</ele>
        <time>1970-01-01T01:17:38.000Z</time>
      </trkpt>
      <trkpt lat="44.89089" lon="0.87345">
        <ele>130.7</ele>
        <time>1970-01-01T01:17:39.000Z</time>
      </trkpt>
      <trkpt lat="44.89085" lon="0.87349">
        <ele>131</ele>
        <time>1970-01-01T01:17:40.000Z</time>
      </trkpt>
      <trkpt lat="44.8908" lon="0.87354">
        <ele>131.3</ele>
        <time>1970-01-01T01:17:41.000Z</time>
      </trkpt>
      <trkpt lat="44.89077" lon="0.8736">
        <ele>131.4</ele>
        <time>1970-01-01T01:17:42.000Z</time>
      </trkpt>
      <trkpt lat="44.89074" lon="0.87367">
        <ele>131.6</ele>
        <time>1970-01-01T01:17:43.000Z</time>
      </trkpt>
      <trkpt lat="44.89072" lon="0.87374">
        <ele>131.9</ele>
        <time>1970-01-01T01:17:44.000Z</time>
      </trkpt>
      <trkpt lat="44.89071" lon="0.87381">
        <ele>132.1</ele>
        <time>1970-01-01T01:17:45.000Z</time>
      </trkpt>
      <trkpt lat="44.89069" lon="0.87388">
        <ele>132.3</ele>
        <time>1970-01-01T01:17:46.000Z</time>
      </trkpt>
      <trkpt lat="44.89067" lon="0.87395">
        <ele>132.6</ele>
        <time>1970-01-01T01:17:47.000Z</time>
      </trkpt>
      <trkpt lat="44.89065" lon="0.87401">
        <ele>132.8</ele>
        <time>1970-01-01T01:17:48.000Z</time>
      </trkpt>
      <trkpt lat="44.89064" lon="0.87407">
        <ele>133</ele>
        <time>1970-01-01T01:17:49.000Z</time>
      </trkpt>
      <trkpt lat="44.89062" lon="0.87412">
        <ele>133.2</ele>
        <time>1970-01-01T01:17:50.000Z</time>
      </trkpt>
      <trkpt lat="44.8906" lon="0.87418">
        <ele>133.4</ele>
        <time>1970-01-01T01:17:51.000Z</time>
      </trkpt>
      <trkpt lat="44.89059" lon="0.87423">
        <ele>133.6</ele>
        <time>1970-01-01T01:17:52.000Z</time>
      </trkpt>
      <trkpt lat="44.89057" lon="0.87428">
        <ele>133.8</ele>
        <time>1970-01-01T01:17:53.000Z</time>
      </trkpt>
      <trkpt lat="44.89055" lon="0.87433">
        <ele>134</ele>
        <time>1970-01-01T01:17:54.000Z</time>
      </trkpt>
      <trkpt lat="44.89053" lon="0.87438">
        <ele>134.2</ele>
        <time>1970-01-01T01:17:55.000Z</time>
      </trkpt>
      <trkpt lat="44.89051" lon="0.87443">
        <ele>134.3</ele>
        <time>1970-01-01T01:17:56.000Z</time>
      </trkpt>
      <trkpt lat="44.89049" lon="0.87447">
        <ele>134.5</ele>
        <time>1970-01-01T01:17:57.000Z</time>
      </trkpt>
      <trkpt lat="44.89048" lon="0.87452">
        <ele>134.7</ele>
        <time>1970-01-01T01:17:58.000Z</time>
      </trkpt>
      <trkpt lat="44.89046" lon="0.87457">
        <ele>134.9</ele>
        <time>1970-01-01T01:17:59.000Z</time>
      </trkpt>
      <trkpt lat="44.89044" lon="0.87461">
        <ele>135.1</ele>
        <time>1970-01-01T01:18:00.000Z</time>
      </trkpt>
      <trkpt lat="44.89042" lon="0.87466">
        <ele>135.2</ele>
        <time>1970-01-01T01:18:01.000Z</time>
      </trkpt>
      <trkpt lat="44.89041" lon="0.8747">
        <ele>135.4</ele>
        <time>1970-01-01T01:18:02.000Z</time>
      </trkpt>
      <trkpt lat="44.89039" lon="0.87474">
        <ele>135.6</ele>
        <time>1970-01-01T01:18:03.000Z</time>
      </trkpt>
      <trkpt lat="44.89037" lon="0.87479">
        <ele>135.8</ele>
        <time>1970-01-01T01:18:04.000Z</time>
      </trkpt>
      <trkpt lat="44.89035" lon="0.87483">
        <ele>136</ele>
        <time>1970-01-01T01:18:05.000Z</time>
      </trkpt>
      <trkpt lat="44.89033" lon="0.87487">
        <ele>136.1</ele>
        <time>1970-01-01T01:18:06.000Z</time>
      </trkpt>
      <trkpt lat="44.89032" lon="0.87491">
        <ele>136.3</ele>
        <time>1970-01-01T01:18:07.000Z</time>
      </trkpt>
      <trkpt lat="44.8903" lon="0.87496">
        <ele>136.5</ele>
        <time>1970-01-01T01:18:08.000Z</time>
      </trkpt>
      <trkpt lat="44.89028" lon="0.875">
        <ele>136.7</ele>
        <time>1970-01-01T01:18:09.000Z</time>
      </trkpt>
      <trkpt lat="44.89027" lon="0.87504">
        <ele>136.9</ele>
        <time>1970-01-01T01:18:10.000Z</time>
      </trkpt>
      <trkpt lat="44.89025" lon="0.87509">
        <ele>137</ele>
        <time>1970-01-01T01:18:11.000Z</time>
      </trkpt>
      <trkpt lat="44.89024" lon="0.87513">
        <ele>137.2</ele>
        <time>1970-01-01T01:18:12.000Z</time>
      </trkpt>
      <trkpt lat="44.89023" lon="0.87518">
        <ele>137.3</ele>
        <time>1970-01-01T01:18:13.000Z</time>
      </trkpt>
      <trkpt lat="44.89021" lon="0.87523">
        <ele>137.4</ele>
        <time>1970-01-01T01:18:14.000Z</time>
      </trkpt>
      <trkpt lat="44.8902" lon="0.87527">
        <ele>137.5</ele>
        <time>1970-01-01T01:18:15.000Z</time>
      </trkpt>
      <trkpt lat="44.89018" lon="0.87532">
        <ele>137.6</ele>
        <time>1970-01-01T01:18:16.000Z</time>
      </trkpt>
      <trkpt lat="44.89017" lon="0.87537">
        <ele>137.6</ele>
        <time>1970-01-01T01:18:17.000Z</time>
      </trkpt>
      <trkpt lat="44.89016" lon="0.87542">
        <ele>137.7</ele>
        <time>1970-01-01T01:18:18.000Z</time>
      </trkpt>
      <trkpt lat="44.89015" lon="0.87547">
        <ele>137.7</ele>
        <time>1970-01-01T01:18:19.000Z</time>
      </trkpt>
      <trkpt lat="44.89014" lon="0.87554">
        <ele>137.7</ele>
        <time>1970-01-01T01:18:20.000Z</time>
      </trkpt>
      <trkpt lat="44.89014" lon="0.8756">
        <ele>137.7</ele>
        <time>1970-01-01T01:18:21.000Z</time>
      </trkpt>
      <trkpt lat="44.89013" lon="0.87567">
        <ele>137.6</ele>
        <time>1970-01-01T01:18:22.000Z</time>
      </trkpt>
      <trkpt lat="44.89013" lon="0.87574">
        <ele>137.5</ele>
        <time>1970-01-01T01:18:23.000Z</time>
      </trkpt>
      <trkpt lat="44.89013" lon="0.87582">
        <ele>137.4</ele>
        <time>1970-01-01T01:18:24.000Z</time>
      </trkpt>
      <trkpt lat="44.89013" lon="0.8759">
        <ele>137.3</ele>
        <time>1970-01-01T01:18:25.000Z</time>
      </trkpt>
      <trkpt lat="44.89014" lon="0.87598">
        <ele>137.1</ele>
        <time>1970-01-01T01:18:26.000Z</time>
      </trkpt>
      <trkpt lat="44.89015" lon="0.87606">
        <ele>137</ele>
        <time>1970-01-01T01:18:27.000Z</time>
      </trkpt>
      <trkpt lat="44.89016" lon="0.87615">
        <ele>136.8</ele>
        <time>1970-01-01T01:18:28.000Z</time>
      </trkpt>
      <trkpt lat="44.89018" lon="0.87623">
        <ele>136.7</ele>
        <time>1970-01-01T01:18:29.000Z</time>
      </trkpt>
      <trkpt lat="44.89019" lon="0.87631">
        <ele>136.5</ele>
        <time>1970-01-01T01:18:30.000Z</time>
      </trkpt>
      <trkpt lat="44.89021" lon="0.87638">
        <ele>136.4</ele>
        <time>1970-01-01T01:18:31.000Z</time>
      </trkpt>
      <trkpt lat="44.89022" lon="0.87645">
        <ele>136.3</ele>
        <time>1970-01-01T01:18:32.000Z</time>
      </trkpt>
      <trkpt lat="44.89022" lon="0.87651">
        <ele>136.2</ele>
        <time>1970-01-01T01:18:33.000Z</time>
      </trkpt>
      <trkpt lat="44.89022" lon="0.87656">
        <ele>136.1</ele>
        <time>1970-01-01T01:18:34.000Z</time>
      </trkpt>
      <trkpt lat="44.89021" lon="0.87661">
        <ele>136</ele>
        <time>1970-01-01T01:18:35.000Z</time>
      </trkpt>
      <trkpt lat="44.89019" lon="0.87663">
        <ele>136</ele>
        <time>1970-01-01T01:18:36.000Z</time>
      </trkpt>
      <trkpt lat="44.89016" lon="0.87664">
        <ele>135.9</ele>
        <time>1970-01-01T01:18:37.000Z</time>
      </trkpt>
      <trkpt lat="44.89012" lon="0.87665">
        <ele>135.8</ele>
        <time>1970-01-01T01:18:38.000Z</time>
      </trkpt>
      <trkpt lat="44.89009" lon="0.87668">
        <ele>135.8</ele>
        <time>1970-01-01T01:18:39.000Z</time>
      </trkpt>
      <trkpt lat="44.89006" lon="0.87672">
        <ele>135.7</ele>
        <time>1970-01-01T01:18:40.000Z</time>
      </trkpt>
      <trkpt lat="44.89005" lon="0.87677">
        <ele>135.6</ele>
        <time>1970-01-01T01:18:41.000Z</time>
      </trkpt>
      <trkpt lat="44.89003" lon="0.87683">
        <ele>135.4</ele>
        <time>1970-01-01T01:18:42.000Z</time>
      </trkpt>
      <trkpt lat="44.89002" lon="0.87689">
        <ele>135.2</ele>
        <time>1970-01-01T01:18:43.000Z</time>
      </trkpt>
      <trkpt lat="44.89001" lon="0.87696">
        <ele>135</ele>
        <time>1970-01-01T01:18:44.000Z</time>
      </trkpt>
      <trkpt lat="44.89001" lon="0.87703">
        <ele>134.8</ele>
        <time>1970-01-01T01:18:45.000Z</time>
      </trkpt>
      <trkpt lat="44.89001" lon="0.8771">
        <ele>134.6</ele>
        <time>1970-01-01T01:18:46.000Z</time>
      </trkpt>
      <trkpt lat="44.89001" lon="0.87716">
        <ele>134.4</ele>
        <time>1970-01-01T01:18:47.000Z</time>
      </trkpt>
      <trkpt lat="44.89" lon="0.87722">
        <ele>134.3</ele>
        <time>1970-01-01T01:18:48.000Z</time>
      </trkpt>
      <trkpt lat="44.89" lon="0.87727">
        <ele>134.1</ele>
        <time>1970-01-01T01:18:49.000Z</time>
      </trkpt>
      <trkpt lat="44.88999" lon="0.87733">
        <ele>134.1</ele>
        <time>1970-01-01T01:18:50.000Z</time>
      </trkpt>
      <trkpt lat="44.88998" lon="0.87738">
        <ele>133.8</ele>
        <time>1970-01-01T01:18:51.000Z</time>
      </trkpt>
      <trkpt lat="44.88997" lon="0.87744">
        <ele>133.8</ele>
        <time>1970-01-01T01:18:52.000Z</time>
      </trkpt>
      <trkpt lat="44.88996" lon="0.8775">
        <ele>133.8</ele>
        <time>1970-01-01T01:18:53.000Z</time>
      </trkpt>
      <trkpt lat="44.88994" lon="0.87757">
        <ele>133.5</ele>
        <time>1970-01-01T01:18:54.000Z</time>
      </trkpt>
      <trkpt lat="44.88992" lon="0.87763">
        <ele>132.8</ele>
        <time>1970-01-01T01:18:55.000Z</time>
      </trkpt>
      <trkpt lat="44.88991" lon="0.87769">
        <ele>132.8</ele>
        <time>1970-01-01T01:18:56.000Z</time>
      </trkpt>
      <trkpt lat="44.88989" lon="0.87775">
        <ele>132.6</ele>
        <time>1970-01-01T01:18:57.000Z</time>
      </trkpt>
      <trkpt lat="44.88988" lon="0.87781">
        <ele>132.6</ele>
        <time>1970-01-01T01:18:58.000Z</time>
      </trkpt>
      <trkpt lat="44.88986" lon="0.87787">
        <ele>132.6</ele>
        <time>1970-01-01T01:18:59.000Z</time>
      </trkpt>
      <trkpt lat="44.88985" lon="0.87793">
        <ele>132.5</ele>
        <time>1970-01-01T01:19:00.000Z</time>
      </trkpt>
      <trkpt lat="44.88983" lon="0.87799">
        <ele>132.5</ele>
        <time>1970-01-01T01:19:01.000Z</time>
      </trkpt>
      <trkpt lat="44.88981" lon="0.87806">
        <ele>132.4</ele>
        <time>1970-01-01T01:19:02.000Z</time>
      </trkpt>
      <trkpt lat="44.88979" lon="0.87814">
        <ele>132</ele>
        <time>1970-01-01T01:19:03.000Z</time>
      </trkpt>
      <trkpt lat="44.88977" lon="0.87822">
        <ele>132</ele>
        <time>1970-01-01T01:19:04.000Z</time>
      </trkpt>
      <trkpt lat="44.88974" lon="0.8783">
        <ele>131.9</ele>
        <time>1970-01-01T01:19:05.000Z</time>
      </trkpt>
      <trkpt lat="44.88972" lon="0.87838">
        <ele>131.9</ele>
        <time>1970-01-01T01:19:06.000Z</time>
      </trkpt>
      <trkpt lat="44.8897" lon="0.87846">
        <ele>131.6</ele>
        <time>1970-01-01T01:19:07.000Z</time>
      </trkpt>
      <trkpt lat="44.88968" lon="0.87853">
        <ele>131.4</ele>
        <time>1970-01-01T01:19:08.000Z</time>
      </trkpt>
      <trkpt lat="44.88966" lon="0.87859">
        <ele>131</ele>
        <time>1970-01-01T01:19:09.000Z</time>
      </trkpt>
      <trkpt lat="44.88964" lon="0.87864">
        <ele>131</ele>
        <time>1970-01-01T01:19:10.000Z</time>
      </trkpt>
      <trkpt lat="44.88963" lon="0.87869">
        <ele>130.9</ele>
        <time>1970-01-01T01:19:11.000Z</time>
      </trkpt>
      <trkpt lat="44.88961" lon="0.87873">
        <ele>130.9</ele>
        <time>1970-01-01T01:19:12.000Z</time>
      </trkpt>
      <trkpt lat="44.8896" lon="0.87877">
        <ele>130.4</ele>
        <time>1970-01-01T01:19:13.000Z</time>
      </trkpt>
      <trkpt lat="44.88959" lon="0.87882">
        <ele>130.4</ele>
        <time>1970-01-01T01:19:14.000Z</time>
      </trkpt>
      <trkpt lat="44.88958" lon="0.87886">
        <ele>130.4</ele>
        <time>1970-01-01T01:19:15.000Z</time>
      </trkpt>
      <trkpt lat="44.88957" lon="0.87891">
        <ele>130.4</ele>
        <time>1970-01-01T01:19:16.000Z</time>
      </trkpt>
      <trkpt lat="44.88957" lon="0.87895">
        <ele>130.2</ele>
        <time>1970-01-01T01:19:17.000Z</time>
      </trkpt>
      <trkpt lat="44.88956" lon="0.879">
        <ele>130.2</ele>
        <time>1970-01-01T01:19:18.000Z</time>
      </trkpt>
      <trkpt lat="44.88954" lon="0.87904">
        <ele>130.2</ele>
        <time>1970-01-01T01:19:19.000Z</time>
      </trkpt>
      <trkpt lat="44.88953" lon="0.87909">
        <ele>130</ele>
        <time>1970-01-01T01:19:20.000Z</time>
      </trkpt>
      <trkpt lat="44.88952" lon="0.87913">
        <ele>130</ele>
        <time>1970-01-01T01:19:21.000Z</time>
      </trkpt>
      <trkpt lat="44.8895" lon="0.87918">
        <ele>130</ele>
        <time>1970-01-01T01:19:22.000Z</time>
      </trkpt>
      <trkpt lat="44.8895" lon="0.87922">
        <ele>130</ele>
        <time>1970-01-01T01:19:23.000Z</time>
      </trkpt>
      <trkpt lat="44.88949" lon="0.87926">
        <ele>130</ele>
        <time>1970-01-01T01:19:24.000Z</time>
      </trkpt>
      <trkpt lat="44.88948" lon="0.87931">
        <ele>130</ele>
        <time>1970-01-01T01:19:25.000Z</time>
      </trkpt>
      <trkpt lat="44.88947" lon="0.87934">
        <ele>130</ele>
        <time>1970-01-01T01:19:26.000Z</time>
      </trkpt>
      <trkpt lat="44.88947" lon="0.87938">
        <ele>130</ele>
        <time>1970-01-01T01:19:27.000Z</time>
      </trkpt>
      <trkpt lat="44.88947" lon="0.87941">
        <ele>130</ele>
        <time>1970-01-01T01:19:28.000Z</time>
      </trkpt>
      <trkpt lat="44.88946" lon="0.87945">
        <ele>130.2</ele>
        <time>1970-01-01T01:19:29.000Z</time>
      </trkpt>
      <trkpt lat="44.88946" lon="0.87948">
        <ele>130.2</ele>
        <time>1970-01-01T01:19:30.000Z</time>
      </trkpt>
      <trkpt lat="44.88945" lon="0.87952">
        <ele>130.2</ele>
        <time>1970-01-01T01:19:31.000Z</time>
      </trkpt>
      <trkpt lat="44.88944" lon="0.87957">
        <ele>131.6</ele>
        <time>1970-01-01T01:19:32.000Z</time>
      </trkpt>
      <trkpt lat="44.88943" lon="0.87962">
        <ele>131.8</ele>
        <time>1970-01-01T01:19:33.000Z</time>
      </trkpt>
      <trkpt lat="44.88942" lon="0.87967">
        <ele>131.8</ele>
        <time>1970-01-01T01:19:34.000Z</time>
      </trkpt>
      <trkpt lat="44.88941" lon="0.87972">
        <ele>131.8</ele>
        <time>1970-01-01T01:19:35.000Z</time>
      </trkpt>
      <trkpt lat="44.8894" lon="0.87977">
        <ele>131.9</ele>
        <time>1970-01-01T01:19:36.000Z</time>
      </trkpt>
      <trkpt lat="44.8894" lon="0.87981">
        <ele>131.9</ele>
        <time>1970-01-01T01:19:37.000Z</time>
      </trkpt>
      <trkpt lat="44.88939" lon="0.87986">
        <ele>131.9</ele>
        <time>1970-01-01T01:19:38.000Z</time>
      </trkpt>
      <trkpt lat="44.88938" lon="0.8799">
        <ele>131.9</ele>
        <time>1970-01-01T01:19:39.000Z</time>
      </trkpt>
      <trkpt lat="44.88937" lon="0.87995">
        <ele>132</ele>
        <time>1970-01-01T01:19:40.000Z</time>
      </trkpt>
      <trkpt lat="44.88936" lon="0.87999">
        <ele>132</ele>
        <time>1970-01-01T01:19:41.000Z</time>
      </trkpt>
      <trkpt lat="44.88935" lon="0.88004">
        <ele>132</ele>
        <time>1970-01-01T01:19:42.000Z</time>
      </trkpt>
      <trkpt lat="44.88935" lon="0.88008">
        <ele>131.9</ele>
        <time>1970-01-01T01:19:43.000Z</time>
      </trkpt>
      <trkpt lat="44.88936" lon="0.88012">
        <ele>131.8</ele>
        <time>1970-01-01T01:19:44.000Z</time>
      </trkpt>
      <trkpt lat="44.88936" lon="0.88016">
        <ele>131.7</ele>
        <time>1970-01-01T01:19:45.000Z</time>
      </trkpt>
      <trkpt lat="44.88935" lon="0.88021">
        <ele>131.5</ele>
        <time>1970-01-01T01:19:46.000Z</time>
      </trkpt>
      <trkpt lat="44.88934" lon="0.88025">
        <ele>131.4</ele>
        <time>1970-01-01T01:19:47.000Z</time>
      </trkpt>
      <trkpt lat="44.88933" lon="0.8803">
        <ele>131.3</ele>
        <time>1970-01-01T01:19:48.000Z</time>
      </trkpt>
      <trkpt lat="44.88932" lon="0.88035">
        <ele>131.1</ele>
        <time>1970-01-01T01:19:49.000Z</time>
      </trkpt>
      <trkpt lat="44.88932" lon="0.8804">
        <ele>130.6</ele>
        <time>1970-01-01T01:19:50.000Z</time>
      </trkpt>
      <trkpt lat="44.88931" lon="0.88045">
        <ele>130.2</ele>
        <time>1970-01-01T01:19:51.000Z</time>
      </trkpt>
      <trkpt lat="44.8893" lon="0.8805">
        <ele>129.8</ele>
        <time>1970-01-01T01:19:52.000Z</time>
      </trkpt>
      <trkpt lat="44.8893" lon="0.88058">
        <ele>129.3</ele>
        <time>1970-01-01T01:19:53.000Z</time>
      </trkpt>
      <trkpt lat="44.88932" lon="0.88067">
        <ele>128.7</ele>
        <time>1970-01-01T01:19:54.000Z</time>
      </trkpt>
      <trkpt lat="44.88936" lon="0.88076">
        <ele>128.1</ele>
        <time>1970-01-01T01:19:55.000Z</time>
      </trkpt>
      <trkpt lat="44.88939" lon="0.88085">
        <ele>127.6</ele>
        <time>1970-01-01T01:19:56.000Z</time>
      </trkpt>
      <trkpt lat="44.88942" lon="0.88093">
        <ele>127.2</ele>
        <time>1970-01-01T01:19:57.000Z</time>
      </trkpt>
      <trkpt lat="44.88944" lon="0.88102">
        <ele>126.8</ele>
        <time>1970-01-01T01:19:58.000Z</time>
      </trkpt>
      <trkpt lat="44.88946" lon="0.8811">
        <ele>126.4</ele>
        <time>1970-01-01T01:19:59.000Z</time>
      </trkpt>
      <trkpt lat="44.88949" lon="0.88118">
        <ele>126.1</ele>
        <time>1970-01-01T01:20:00.000Z</time>
      </trkpt>
      <trkpt lat="44.88952" lon="0.88126">
        <ele>125.8</ele>
        <time>1970-01-01T01:20:01.000Z</time>
      </trkpt>
      <trkpt lat="44.88954" lon="0.88135">
        <ele>125.4</ele>
        <time>1970-01-01T01:20:02.000Z</time>
      </trkpt>
      <trkpt lat="44.88957" lon="0.88144">
        <ele>125.1</ele>
        <time>1970-01-01T01:20:03.000Z</time>
      </trkpt>
      <trkpt lat="44.8896" lon="0.88153">
        <ele>124.7</ele>
        <time>1970-01-01T01:20:04.000Z</time>
      </trkpt>
      <trkpt lat="44.88963" lon="0.88163">
        <ele>124.3</ele>
        <time>1970-01-01T01:20:05.000Z</time>
      </trkpt>
      <trkpt lat="44.88966" lon="0.88173">
        <ele>123.9</ele>
        <time>1970-01-01T01:20:06.000Z</time>
      </trkpt>
      <trkpt lat="44.8897" lon="0.88183">
        <ele>123.4</ele>
        <time>1970-01-01T01:20:07.000Z</time>
      </trkpt>
      <trkpt lat="44.88973" lon="0.88193">
        <ele>123</ele>
        <time>1970-01-01T01:20:08.000Z</time>
      </trkpt>
      <trkpt lat="44.88976" lon="0.88203">
        <ele>122.7</ele>
        <time>1970-01-01T01:20:09.000Z</time>
      </trkpt>
      <trkpt lat="44.8898" lon="0.88209">
        <ele>122.5</ele>
        <time>1970-01-01T01:20:10.000Z</time>
      </trkpt>
      <trkpt lat="44.88983" lon="0.88212">
        <ele>122.3</ele>
        <time>1970-01-01T01:20:11.000Z</time>
      </trkpt>
      <trkpt lat="44.88987" lon="0.88213">
        <ele>122.2</ele>
        <time>1970-01-01T01:20:12.000Z</time>
      </trkpt>
      <trkpt lat="44.8899" lon="0.88212">
        <ele>121.9</ele>
        <time>1970-01-01T01:20:13.000Z</time>
      </trkpt>
      <trkpt lat="44.88992" lon="0.88212">
        <ele>122.1</ele>
        <time>1970-01-01T01:20:14.000Z</time>
      </trkpt>
      <trkpt lat="44.88995" lon="0.8821">
        <ele>122.3</ele>
        <time>1970-01-01T01:20:15.000Z</time>
      </trkpt>
      <trkpt lat="44.88998" lon="0.88207">
        <ele>122.6</ele>
        <time>1970-01-01T01:20:16.000Z</time>
      </trkpt>
      <trkpt lat="44.89001" lon="0.88204">
        <ele>122.9</ele>
        <time>1970-01-01T01:20:17.000Z</time>
      </trkpt>
      <trkpt lat="44.89004" lon="0.882">
        <ele>123.1</ele>
        <time>1970-01-01T01:20:18.000Z</time>
      </trkpt>
      <trkpt lat="44.89007" lon="0.88197">
        <ele>123.4</ele>
        <time>1970-01-01T01:20:19.000Z</time>
      </trkpt>
      <trkpt lat="44.89009" lon="0.88193">
        <ele>123.7</ele>
        <time>1970-01-01T01:20:20.000Z</time>
      </trkpt>
      <trkpt lat="44.89012" lon="0.8819">
        <ele>123.9</ele>
        <time>1970-01-01T01:20:21.000Z</time>
      </trkpt>
      <trkpt lat="44.89014" lon="0.88187">
        <ele>124.1</ele>
        <time>1970-01-01T01:20:22.000Z</time>
      </trkpt>
      <trkpt lat="44.89016" lon="0.88184">
        <ele>124.4</ele>
        <time>1970-01-01T01:20:23.000Z</time>
      </trkpt>
      <trkpt lat="44.89018" lon="0.88181">
        <ele>124.6</ele>
        <time>1970-01-01T01:20:24.000Z</time>
      </trkpt>
      <trkpt lat="44.8902" lon="0.88178">
        <ele>124.8</ele>
        <time>1970-01-01T01:20:25.000Z</time>
      </trkpt>
      <trkpt lat="44.89023" lon="0.88175">
        <ele>125</ele>
        <time>1970-01-01T01:20:26.000Z</time>
      </trkpt>
      <trkpt lat="44.89026" lon="0.88174">
        <ele>125.2</ele>
        <time>1970-01-01T01:20:27.000Z</time>
      </trkpt>
      <trkpt lat="44.89029" lon="0.88173">
        <ele>125.8</ele>
        <time>1970-01-01T01:20:28.000Z</time>
      </trkpt>
      <trkpt lat="44.89033" lon="0.88175">
        <ele>125.8</ele>
        <time>1970-01-01T01:20:29.000Z</time>
      </trkpt>
      <trkpt lat="44.89036" lon="0.88178">
        <ele>125.8</ele>
        <time>1970-01-01T01:20:30.000Z</time>
      </trkpt>
      <trkpt lat="44.89038" lon="0.88183">
        <ele>125.7</ele>
        <time>1970-01-01T01:20:31.000Z</time>
      </trkpt>
      <trkpt lat="44.8904" lon="0.88189">
        <ele>125.6</ele>
        <time>1970-01-01T01:20:32.000Z</time>
      </trkpt>
      <trkpt lat="44.89043" lon="0.88194">
        <ele>125.5</ele>
        <time>1970-01-01T01:20:33.000Z</time>
      </trkpt>
      <trkpt lat="44.89045" lon="0.88199">
        <ele>125.5</ele>
        <time>1970-01-01T01:20:34.000Z</time>
      </trkpt>
      <trkpt lat="44.89047" lon="0.88205">
        <ele>125.5</ele>
        <time>1970-01-01T01:20:35.000Z</time>
      </trkpt>
      <trkpt lat="44.8905" lon="0.88211">
        <ele>125.5</ele>
        <time>1970-01-01T01:20:36.000Z</time>
      </trkpt>
      <trkpt lat="44.89052" lon="0.88217">
        <ele>125.5</ele>
        <time>1970-01-01T01:20:37.000Z</time>
      </trkpt>
      <trkpt lat="44.89054" lon="0.88222">
        <ele>125.5</ele>
        <time>1970-01-01T01:20:38.000Z</time>
      </trkpt>
      <trkpt lat="44.89056" lon="0.88228">
        <ele>125.6</ele>
        <time>1970-01-01T01:20:39.000Z</time>
      </trkpt>
      <trkpt lat="44.89058" lon="0.88234">
        <ele>125.6</ele>
        <time>1970-01-01T01:20:40.000Z</time>
      </trkpt>
      <trkpt lat="44.89061" lon="0.88239">
        <ele>125.6</ele>
        <time>1970-01-01T01:20:41.000Z</time>
      </trkpt>
      <trkpt lat="44.89062" lon="0.88244">
        <ele>125.7</ele>
        <time>1970-01-01T01:20:42.000Z</time>
      </trkpt>
      <trkpt lat="44.89064" lon="0.88249">
        <ele>125.7</ele>
        <time>1970-01-01T01:20:43.000Z</time>
      </trkpt>
      <trkpt lat="44.89066" lon="0.88253">
        <ele>125.7</ele>
        <time>1970-01-01T01:20:44.000Z</time>
      </trkpt>
      <trkpt lat="44.89068" lon="0.88257">
        <ele>125.8</ele>
        <time>1970-01-01T01:20:45.000Z</time>
      </trkpt>
      <trkpt lat="44.89069" lon="0.88262">
        <ele>125.8</ele>
        <time>1970-01-01T01:20:46.000Z</time>
      </trkpt>
      <trkpt lat="44.89071" lon="0.88266">
        <ele>125.9</ele>
        <time>1970-01-01T01:20:47.000Z</time>
      </trkpt>
      <trkpt lat="44.89073" lon="0.88271">
        <ele>126</ele>
        <time>1970-01-01T01:20:48.000Z</time>
      </trkpt>
      <trkpt lat="44.89074" lon="0.88276">
        <ele>126.1</ele>
        <time>1970-01-01T01:20:49.000Z</time>
      </trkpt>
      <trkpt lat="44.89076" lon="0.8828">
        <ele>126.2</ele>
        <time>1970-01-01T01:20:50.000Z</time>
      </trkpt>
      <trkpt lat="44.89078" lon="0.88285">
        <ele>126.3</ele>
        <time>1970-01-01T01:20:51.000Z</time>
      </trkpt>
      <trkpt lat="44.89079" lon="0.88289">
        <ele>126.5</ele>
        <time>1970-01-01T01:20:52.000Z</time>
      </trkpt>
      <trkpt lat="44.89081" lon="0.88294">
        <ele>126.7</ele>
        <time>1970-01-01T01:20:53.000Z</time>
      </trkpt>
      <trkpt lat="44.89083" lon="0.88298">
        <ele>127</ele>
        <time>1970-01-01T01:20:54.000Z</time>
      </trkpt>
      <trkpt lat="44.89084" lon="0.88302">
        <ele>127.2</ele>
        <time>1970-01-01T01:20:55.000Z</time>
      </trkpt>
      <trkpt lat="44.89086" lon="0.88306">
        <ele>127.4</ele>
        <time>1970-01-01T01:20:56.000Z</time>
      </trkpt>
      <trkpt lat="44.89088" lon="0.88311">
        <ele>127.7</ele>
        <time>1970-01-01T01:20:57.000Z</time>
      </trkpt>
      <trkpt lat="44.8909" lon="0.88315">
        <ele>127.9</ele>
        <time>1970-01-01T01:20:58.000Z</time>
      </trkpt>
      <trkpt lat="44.89091" lon="0.88319">
        <ele>128.2</ele>
        <time>1970-01-01T01:20:59.000Z</time>
      </trkpt>
      <trkpt lat="44.89093" lon="0.88324">
        <ele>128.4</ele>
        <time>1970-01-01T01:21:00.000Z</time>
      </trkpt>
      <trkpt lat="44.89095" lon="0.88328">
        <ele>128.6</ele>
        <time>1970-01-01T01:21:01.000Z</time>
      </trkpt>
      <trkpt lat="44.89096" lon="0.88333">
        <ele>128.8</ele>
        <time>1970-01-01T01:21:02.000Z</time>
      </trkpt>
      <trkpt lat="44.89098" lon="0.88337">
        <ele>129</ele>
        <time>1970-01-01T01:21:03.000Z</time>
      </trkpt>
      <trkpt lat="44.891" lon="0.88341">
        <ele>129.3</ele>
        <time>1970-01-01T01:21:04.000Z</time>
      </trkpt>
      <trkpt lat="44.89102" lon="0.88345">
        <ele>129.5</ele>
        <time>1970-01-01T01:21:05.000Z</time>
      </trkpt>
      <trkpt lat="44.89104" lon="0.88349">
        <ele>129.7</ele>
        <time>1970-01-01T01:21:06.000Z</time>
      </trkpt>
      <trkpt lat="44.89105" lon="0.88353">
        <ele>130</ele>
        <time>1970-01-01T01:21:07.000Z</time>
      </trkpt>
      <trkpt lat="44.89107" lon="0.88356">
        <ele>130.3</ele>
        <time>1970-01-01T01:21:08.000Z</time>
      </trkpt>
      <trkpt lat="44.89109" lon="0.8836">
        <ele>130.6</ele>
        <time>1970-01-01T01:21:09.000Z</time>
      </trkpt>
      <trkpt lat="44.8911" lon="0.88364">
        <ele>130.9</ele>
        <time>1970-01-01T01:21:10.000Z</time>
      </trkpt>
      <trkpt lat="44.89112" lon="0.88368">
        <ele>131.1</ele>
        <time>1970-01-01T01:21:11.000Z</time>
      </trkpt>
      <trkpt lat="44.89114" lon="0.88371">
        <ele>131.4</ele>
        <time>1970-01-01T01:21:12.000Z</time>
      </trkpt>
      <trkpt lat="44.89115" lon="0.88375">
        <ele>131.6</ele>
        <time>1970-01-01T01:21:13.000Z</time>
      </trkpt>
      <trkpt lat="44.89117" lon="0.88378">
        <ele>131.8</ele>
        <time>1970-01-01T01:21:14.000Z</time>
      </trkpt>
      <trkpt lat="44.89118" lon="0.88381">
        <ele>132</ele>
        <time>1970-01-01T01:21:15.000Z</time>
      </trkpt>
      <trkpt lat="44.8912" lon="0.88385">
        <ele>132.3</ele>
        <time>1970-01-01T01:21:16.000Z</time>
      </trkpt>
      <trkpt lat="44.89121" lon="0.88388">
        <ele>132.5</ele>
        <time>1970-01-01T01:21:17.000Z</time>
      </trkpt>
      <trkpt lat="44.89122" lon="0.88391">
        <ele>132.7</ele>
        <time>1970-01-01T01:21:18.000Z</time>
      </trkpt>
      <trkpt lat="44.89124" lon="0.88394">
        <ele>132.9</ele>
        <time>1970-01-01T01:21:19.000Z</time>
      </trkpt>
      <trkpt lat="44.89125" lon="0.88398">
        <ele>133.1</ele>
        <time>1970-01-01T01:21:20.000Z</time>
      </trkpt>
      <trkpt lat="44.89127" lon="0.88401">
        <ele>133.3</ele>
        <time>1970-01-01T01:21:21.000Z</time>
      </trkpt>
      <trkpt lat="44.89129" lon="0.88405">
        <ele>133.4</ele>
        <time>1970-01-01T01:21:22.000Z</time>
      </trkpt>
      <trkpt lat="44.8913" lon="0.88408">
        <ele>133.6</ele>
        <time>1970-01-01T01:21:23.000Z</time>
      </trkpt>
      <trkpt lat="44.89132" lon="0.88412">
        <ele>133.7</ele>
        <time>1970-01-01T01:21:24.000Z</time>
      </trkpt>
      <trkpt lat="44.89133" lon="0.88416">
        <ele>133.9</ele>
        <time>1970-01-01T01:21:25.000Z</time>
      </trkpt>
      <trkpt lat="44.89134" lon="0.8842">
        <ele>134</ele>
        <time>1970-01-01T01:21:26.000Z</time>
      </trkpt>
      <trkpt lat="44.89135" lon="0.88424">
        <ele>134.1</ele>
        <time>1970-01-01T01:21:27.000Z</time>
      </trkpt>
      <trkpt lat="44.89137" lon="0.88428">
        <ele>134.2</ele>
        <time>1970-01-01T01:21:28.000Z</time>
      </trkpt>
      <trkpt lat="44.89138" lon="0.88432">
        <ele>134.3</ele>
        <time>1970-01-01T01:21:29.000Z</time>
      </trkpt>
      <trkpt lat="44.89141" lon="0.88435">
        <ele>134.3</ele>
        <time>1970-01-01T01:21:30.000Z</time>
      </trkpt>
      <trkpt lat="44.89143" lon="0.88439">
        <ele>134.4</ele>
        <time>1970-01-01T01:21:31.000Z</time>
      </trkpt>
      <trkpt lat="44.89147" lon="0.88442">
        <ele>134.4</ele>
        <time>1970-01-01T01:21:32.000Z</time>
      </trkpt>
      <trkpt lat="44.8915" lon="0.88444">
        <ele>134.4</ele>
        <time>1970-01-01T01:21:33.000Z</time>
      </trkpt>
      <trkpt lat="44.89154" lon="0.88445">
        <ele>134.4</ele>
        <time>1970-01-01T01:21:34.000Z</time>
      </trkpt>
      <trkpt lat="44.89158" lon="0.88446">
        <ele>134.4</ele>
        <time>1970-01-01T01:21:35.000Z</time>
      </trkpt>
      <trkpt lat="44.89162" lon="0.88446">
        <ele>134.4</ele>
        <time>1970-01-01T01:21:36.000Z</time>
      </trkpt>
      <trkpt lat="44.89165" lon="0.88447">
        <ele>134.4</ele>
        <time>1970-01-01T01:21:37.000Z</time>
      </trkpt>
      <trkpt lat="44.89169" lon="0.88446">
        <ele>134.3</ele>
        <time>1970-01-01T01:21:38.000Z</time>
      </trkpt>
      <trkpt lat="44.89173" lon="0.88446">
        <ele>134.3</ele>
        <time>1970-01-01T01:21:39.000Z</time>
      </trkpt>
      <trkpt lat="44.89176" lon="0.88445">
        <ele>134.3</ele>
        <time>1970-01-01T01:21:40.000Z</time>
      </trkpt>
      <trkpt lat="44.8918" lon="0.88444">
        <ele>134.3</ele>
        <time>1970-01-01T01:21:41.000Z</time>
      </trkpt>
      <trkpt lat="44.89184" lon="0.88443">
        <ele>134.3</ele>
        <time>1970-01-01T01:21:42.000Z</time>
      </trkpt>
      <trkpt lat="44.89188" lon="0.88441">
        <ele>134.3</ele>
        <time>1970-01-01T01:21:43.000Z</time>
      </trkpt>
      <trkpt lat="44.89192" lon="0.88439">
        <ele>134.4</ele>
        <time>1970-01-01T01:21:44.000Z</time>
      </trkpt>
      <trkpt lat="44.89195" lon="0.88437">
        <ele>134.4</ele>
        <time>1970-01-01T01:21:45.000Z</time>
      </trkpt>
      <trkpt lat="44.89199" lon="0.88436">
        <ele>134.5</ele>
        <time>1970-01-01T01:21:46.000Z</time>
      </trkpt>
      <trkpt lat="44.89202" lon="0.88435">
        <ele>134.5</ele>
        <time>1970-01-01T01:21:47.000Z</time>
      </trkpt>
      <trkpt lat="44.89205" lon="0.88433">
        <ele>134.6</ele>
        <time>1970-01-01T01:21:48.000Z</time>
      </trkpt>
      <trkpt lat="44.89209" lon="0.88432">
        <ele>134.6</ele>
        <time>1970-01-01T01:21:49.000Z</time>
      </trkpt>
      <trkpt lat="44.89212" lon="0.8843">
        <ele>134.7</ele>
        <time>1970-01-01T01:21:50.000Z</time>
      </trkpt>
      <trkpt lat="44.89215" lon="0.88429">
        <ele>134.7</ele>
        <time>1970-01-01T01:21:51.000Z</time>
      </trkpt>
      <trkpt lat="44.89219" lon="0.88428">
        <ele>134.8</ele>
        <time>1970-01-01T01:21:52.000Z</time>
      </trkpt>
      <trkpt lat="44.89222" lon="0.88426">
        <ele>134.8</ele>
        <time>1970-01-01T01:21:53.000Z</time>
      </trkpt>
      <trkpt lat="44.89225" lon="0.88424">
        <ele>134.9</ele>
        <time>1970-01-01T01:21:54.000Z</time>
      </trkpt>
      <trkpt lat="44.89229" lon="0.88422">
        <ele>134.9</ele>
        <time>1970-01-01T01:21:55.000Z</time>
      </trkpt>
      <trkpt lat="44.89232" lon="0.88421">
        <ele>134.9</ele>
        <time>1970-01-01T01:21:56.000Z</time>
      </trkpt>
      <trkpt lat="44.89235" lon="0.88419">
        <ele>135</ele>
        <time>1970-01-01T01:21:57.000Z</time>
      </trkpt>
      <trkpt lat="44.89239" lon="0.88418">
        <ele>135</ele>
        <time>1970-01-01T01:21:58.000Z</time>
      </trkpt>
      <trkpt lat="44.89242" lon="0.88416">
        <ele>135.1</ele>
        <time>1970-01-01T01:21:59.000Z</time>
      </trkpt>
      <trkpt lat="44.89246" lon="0.88414">
        <ele>135.1</ele>
        <time>1970-01-01T01:22:00.000Z</time>
      </trkpt>
      <trkpt lat="44.8925" lon="0.88412">
        <ele>135.1</ele>
        <time>1970-01-01T01:22:01.000Z</time>
      </trkpt>
      <trkpt lat="44.89253" lon="0.8841">
        <ele>135.1</ele>
        <time>1970-01-01T01:22:02.000Z</time>
      </trkpt>
      <trkpt lat="44.89257" lon="0.88407">
        <ele>135.2</ele>
        <time>1970-01-01T01:22:03.000Z</time>
      </trkpt>
      <trkpt lat="44.89261" lon="0.88404">
        <ele>135.2</ele>
        <time>1970-01-01T01:22:04.000Z</time>
      </trkpt>
      <trkpt lat="44.89265" lon="0.88401">
        <ele>135.2</ele>
        <time>1970-01-01T01:22:05.000Z</time>
      </trkpt>
      <trkpt lat="44.89269" lon="0.88398">
        <ele>135.3</ele>
        <time>1970-01-01T01:22:06.000Z</time>
      </trkpt>
      <trkpt lat="44.89273" lon="0.88395">
        <ele>135.3</ele>
        <time>1970-01-01T01:22:07.000Z</time>
      </trkpt>
      <trkpt lat="44.89277" lon="0.88392">
        <ele>135.3</ele>
        <time>1970-01-01T01:22:08.000Z</time>
      </trkpt>
      <trkpt lat="44.89281" lon="0.8839">
        <ele>135.3</ele>
        <time>1970-01-01T01:22:09.000Z</time>
      </trkpt>
      <trkpt lat="44.89285" lon="0.88388">
        <ele>135.3</ele>
        <time>1970-01-01T01:22:10.000Z</time>
      </trkpt>
      <trkpt lat="44.89289" lon="0.88385">
        <ele>135.4</ele>
        <time>1970-01-01T01:22:11.000Z</time>
      </trkpt>
      <trkpt lat="44.89293" lon="0.88384">
        <ele>135.4</ele>
        <time>1970-01-01T01:22:12.000Z</time>
      </trkpt>
      <trkpt lat="44.89297" lon="0.88382">
        <ele>135.5</ele>
        <time>1970-01-01T01:22:13.000Z</time>
      </trkpt>
      <trkpt lat="44.89301" lon="0.88382">
        <ele>135.5</ele>
        <time>1970-01-01T01:22:14.000Z</time>
      </trkpt>
      <trkpt lat="44.89305" lon="0.88381">
        <ele>135.6</ele>
        <time>1970-01-01T01:22:15.000Z</time>
      </trkpt>
      <trkpt lat="44.8931" lon="0.88382">
        <ele>135.8</ele>
        <time>1970-01-01T01:22:16.000Z</time>
      </trkpt>
      <trkpt lat="44.89315" lon="0.88385">
        <ele>135.9</ele>
        <time>1970-01-01T01:22:17.000Z</time>
      </trkpt>
      <trkpt lat="44.8932" lon="0.88391">
        <ele>135.9</ele>
        <time>1970-01-01T01:22:18.000Z</time>
      </trkpt>
      <trkpt lat="44.89323" lon="0.88398">
        <ele>136</ele>
        <time>1970-01-01T01:22:19.000Z</time>
      </trkpt>
      <trkpt lat="44.89326" lon="0.88405">
        <ele>136.2</ele>
        <time>1970-01-01T01:22:20.000Z</time>
      </trkpt>
      <trkpt lat="44.89327" lon="0.88412">
        <ele>136.5</ele>
        <time>1970-01-01T01:22:21.000Z</time>
      </trkpt>
      <trkpt lat="44.89329" lon="0.88418">
        <ele>137</ele>
        <time>1970-01-01T01:22:22.000Z</time>
      </trkpt>
      <trkpt lat="44.89332" lon="0.88424">
        <ele>137.4</ele>
        <time>1970-01-01T01:22:23.000Z</time>
      </trkpt>
      <trkpt lat="44.89335" lon="0.88428">
        <ele>137.9</ele>
        <time>1970-01-01T01:22:24.000Z</time>
      </trkpt>
      <trkpt lat="44.89337" lon="0.88433">
        <ele>138.5</ele>
        <time>1970-01-01T01:22:25.000Z</time>
      </trkpt>
      <trkpt lat="44.8934" lon="0.88437">
        <ele>139</ele>
        <time>1970-01-01T01:22:26.000Z</time>
      </trkpt>
      <trkpt lat="44.89343" lon="0.88441">
        <ele>139.6</ele>
        <time>1970-01-01T01:22:27.000Z</time>
      </trkpt>
      <trkpt lat="44.89346" lon="0.88445">
        <ele>140.2</ele>
        <time>1970-01-01T01:22:28.000Z</time>
      </trkpt>
      <trkpt lat="44.89348" lon="0.88448">
        <ele>140.7</ele>
        <time>1970-01-01T01:22:29.000Z</time>
      </trkpt>
      <trkpt lat="44.8935" lon="0.88452">
        <ele>141.1</ele>
        <time>1970-01-01T01:22:30.000Z</time>
      </trkpt>
      <trkpt lat="44.89351" lon="0.88456">
        <ele>141.5</ele>
        <time>1970-01-01T01:22:31.000Z</time>
      </trkpt>
      <trkpt lat="44.89353" lon="0.8846">
        <ele>141.9</ele>
        <time>1970-01-01T01:22:32.000Z</time>
      </trkpt>
      <trkpt lat="44.89353" lon="0.88464">
        <ele>142.3</ele>
        <time>1970-01-01T01:22:33.000Z</time>
      </trkpt>
      <trkpt lat="44.89354" lon="0.88467">
        <ele>142.6</ele>
        <time>1970-01-01T01:22:34.000Z</time>
      </trkpt>
      <trkpt lat="44.89354" lon="0.88471">
        <ele>142.9</ele>
        <time>1970-01-01T01:22:35.000Z</time>
      </trkpt>
      <trkpt lat="44.89355" lon="0.88475">
        <ele>143.1</ele>
        <time>1970-01-01T01:22:36.000Z</time>
      </trkpt>
      <trkpt lat="44.89355" lon="0.88479">
        <ele>143.4</ele>
        <time>1970-01-01T01:22:37.000Z</time>
      </trkpt>
      <trkpt lat="44.89354" lon="0.88484">
        <ele>143.7</ele>
        <time>1970-01-01T01:22:38.000Z</time>
      </trkpt>
      <trkpt lat="44.89354" lon="0.88488">
        <ele>143.9</ele>
        <time>1970-01-01T01:22:39.000Z</time>
      </trkpt>
      <trkpt lat="44.89353" lon="0.88493">
        <ele>143.3</ele>
        <time>1970-01-01T01:22:40.000Z</time>
      </trkpt>
      <trkpt lat="44.89352" lon="0.88498">
        <ele>143</ele>
        <time>1970-01-01T01:22:41.000Z</time>
      </trkpt>
      <trkpt lat="44.89351" lon="0.88502">
        <ele>142.8</ele>
        <time>1970-01-01T01:22:42.000Z</time>
      </trkpt>
      <trkpt lat="44.89349" lon="0.88507">
        <ele>142.6</ele>
        <time>1970-01-01T01:22:43.000Z</time>
      </trkpt>
      <trkpt lat="44.89347" lon="0.8851">
        <ele>142.4</ele>
        <time>1970-01-01T01:22:44.000Z</time>
      </trkpt>
      <trkpt lat="44.89343" lon="0.8851">
        <ele>142.1</ele>
        <time>1970-01-01T01:22:45.000Z</time>
      </trkpt>
      <trkpt lat="44.89337" lon="0.88508">
        <ele>137.1</ele>
        <time>1970-01-01T01:22:46.000Z</time>
      </trkpt>
      <trkpt lat="44.89331" lon="0.88504">
        <ele>135.9</ele>
        <time>1970-01-01T01:22:47.000Z</time>
      </trkpt>
      <trkpt lat="44.89327" lon="0.88502">
        <ele>135.1</ele>
        <time>1970-01-01T01:22:48.000Z</time>
      </trkpt>
      <trkpt lat="44.89322" lon="0.88502">
        <ele>134.4</ele>
        <time>1970-01-01T01:22:49.000Z</time>
      </trkpt>
      <trkpt lat="44.89317" lon="0.88501">
        <ele>133.7</ele>
        <time>1970-01-01T01:22:50.000Z</time>
      </trkpt>
      <trkpt lat="44.89311" lon="0.88502">
        <ele>133</ele>
        <time>1970-01-01T01:22:51.000Z</time>
      </trkpt>
      <trkpt lat="44.89303" lon="0.88502">
        <ele>132.1</ele>
        <time>1970-01-01T01:22:52.000Z</time>
      </trkpt>
      <trkpt lat="44.89295" lon="0.88503">
        <ele>131.2</ele>
        <time>1970-01-01T01:22:53.000Z</time>
      </trkpt>
      <trkpt lat="44.89286" lon="0.88504">
        <ele>130.2</ele>
        <time>1970-01-01T01:22:54.000Z</time>
      </trkpt>
      <trkpt lat="44.89277" lon="0.88506">
        <ele>129.3</ele>
        <time>1970-01-01T01:22:55.000Z</time>
      </trkpt>
      <trkpt lat="44.8927" lon="0.88507">
        <ele>128.4</ele>
        <time>1970-01-01T01:22:56.000Z</time>
      </trkpt>
      <trkpt lat="44.89262" lon="0.88509">
        <ele>127.4</ele>
        <time>1970-01-01T01:22:57.000Z</time>
      </trkpt>
      <trkpt lat="44.89254" lon="0.88511">
        <ele>126.2</ele>
        <time>1970-01-01T01:22:58.000Z</time>
      </trkpt>
      <trkpt lat="44.89247" lon="0.88512">
        <ele>124.7</ele>
        <time>1970-01-01T01:22:59.000Z</time>
      </trkpt>
      <trkpt lat="44.89239" lon="0.88514">
        <ele>123.4</ele>
        <time>1970-01-01T01:23:00.000Z</time>
      </trkpt>
      <trkpt lat="44.89232" lon="0.88515">
        <ele>122.1</ele>
        <time>1970-01-01T01:23:01.000Z</time>
      </trkpt>
      <trkpt lat="44.89226" lon="0.88517">
        <ele>121</ele>
        <time>1970-01-01T01:23:02.000Z</time>
      </trkpt>
      <trkpt lat="44.89219" lon="0.8852">
        <ele>119.8</ele>
        <time>1970-01-01T01:23:03.000Z</time>
      </trkpt>
      <trkpt lat="44.89212" lon="0.88527">
        <ele>118.4</ele>
        <time>1970-01-01T01:23:04.000Z</time>
      </trkpt>
      <trkpt lat="44.89204" lon="0.88535">
        <ele>116.7</ele>
        <time>1970-01-01T01:23:05.000Z</time>
      </trkpt>
      <trkpt lat="44.89196" lon="0.88545">
        <ele>114.9</ele>
        <time>1970-01-01T01:23:06.000Z</time>
      </trkpt>
      <trkpt lat="44.89188" lon="0.88555">
        <ele>113.2</ele>
        <time>1970-01-01T01:23:07.000Z</time>
      </trkpt>
      <trkpt lat="44.89179" lon="0.88567">
        <ele>111.4</ele>
        <time>1970-01-01T01:23:08.000Z</time>
      </trkpt>
      <trkpt lat="44.8917" lon="0.88578">
        <ele>109.8</ele>
        <time>1970-01-01T01:23:09.000Z</time>
      </trkpt>
      <trkpt lat="44.89162" lon="0.88588">
        <ele>108.3</ele>
        <time>1970-01-01T01:23:10.000Z</time>
      </trkpt>
      <trkpt lat="44.89154" lon="0.88598">
        <ele>106.8</ele>
        <time>1970-01-01T01:23:11.000Z</time>
      </trkpt>
      <trkpt lat="44.89146" lon="0.88607">
        <ele>105.3</ele>
        <time>1970-01-01T01:23:12.000Z</time>
      </trkpt>
      <trkpt lat="44.89136" lon="0.88618">
        <ele>103.6</ele>
        <time>1970-01-01T01:23:13.000Z</time>
      </trkpt>
      <trkpt lat="44.89126" lon="0.8863">
        <ele>101.8</ele>
        <time>1970-01-01T01:23:14.000Z</time>
      </trkpt>
      <trkpt lat="44.89116" lon="0.88642">
        <ele>100.2</ele>
        <time>1970-01-01T01:23:15.000Z</time>
      </trkpt>
      <trkpt lat="44.89106" lon="0.88652">
        <ele>98.7</ele>
        <time>1970-01-01T01:23:16.000Z</time>
      </trkpt>
      <trkpt lat="44.89097" lon="0.88662">
        <ele>97.3</ele>
        <time>1970-01-01T01:23:17.000Z</time>
      </trkpt>
      <trkpt lat="44.89087" lon="0.88672">
        <ele>95.6</ele>
        <time>1970-01-01T01:23:18.000Z</time>
      </trkpt>
      <trkpt lat="44.89076" lon="0.88682">
        <ele>94</ele>
        <time>1970-01-01T01:23:19.000Z</time>
      </trkpt>
      <trkpt lat="44.89066" lon="0.88691">
        <ele>92.5</ele>
        <time>1970-01-01T01:23:20.000Z</time>
      </trkpt>
      <trkpt lat="44.89056" lon="0.887">
        <ele>91.3</ele>
        <time>1970-01-01T01:23:21.000Z</time>
      </trkpt>
      <trkpt lat="44.89045" lon="0.88708">
        <ele>90.2</ele>
        <time>1970-01-01T01:23:22.000Z</time>
      </trkpt>
      <trkpt lat="44.89036" lon="0.88717">
        <ele>89</ele>
        <time>1970-01-01T01:23:23.000Z</time>
      </trkpt>
      <trkpt lat="44.89028" lon="0.88728">
        <ele>87.8</ele>
        <time>1970-01-01T01:23:24.000Z</time>
      </trkpt>
      <trkpt lat="44.8902" lon="0.8874">
        <ele>86.7</ele>
        <time>1970-01-01T01:23:25.000Z</time>
      </trkpt>
      <trkpt lat="44.89012" lon="0.88752">
        <ele>85.6</ele>
        <time>1970-01-01T01:23:26.000Z</time>
      </trkpt>
      <trkpt lat="44.89004" lon="0.88764">
        <ele>84.5</ele>
        <time>1970-01-01T01:23:27.000Z</time>
      </trkpt>
      <trkpt lat="44.88996" lon="0.88775">
        <ele>83.3</ele>
        <time>1970-01-01T01:23:28.000Z</time>
      </trkpt>
      <trkpt lat="44.88987" lon="0.88785">
        <ele>82.2</ele>
        <time>1970-01-01T01:23:29.000Z</time>
      </trkpt>
      <trkpt lat="44.88978" lon="0.88795">
        <ele>81.1</ele>
        <time>1970-01-01T01:23:30.000Z</time>
      </trkpt>
      <trkpt lat="44.88971" lon="0.88803">
        <ele>80.2</ele>
        <time>1970-01-01T01:23:31.000Z</time>
      </trkpt>
      <trkpt lat="44.88963" lon="0.88809">
        <ele>79.5</ele>
        <time>1970-01-01T01:23:32.000Z</time>
      </trkpt>
      <trkpt lat="44.88958" lon="0.8881">
        <ele>79</ele>
        <time>1970-01-01T01:23:33.000Z</time>
      </trkpt>
      <trkpt lat="44.88951" lon="0.8881">
        <ele>78.3</ele>
        <time>1970-01-01T01:23:34.000Z</time>
      </trkpt>
      <trkpt lat="44.88942" lon="0.88808">
        <ele>75.8</ele>
        <time>1970-01-01T01:23:35.000Z</time>
      </trkpt>
      <trkpt lat="44.8893" lon="0.88807">
        <ele>75.2</ele>
        <time>1970-01-01T01:23:36.000Z</time>
      </trkpt>
      <trkpt lat="44.88918" lon="0.88805">
        <ele>74.7</ele>
        <time>1970-01-01T01:23:37.000Z</time>
      </trkpt>
      <trkpt lat="44.88909" lon="0.88804">
        <ele>74.4</ele>
        <time>1970-01-01T01:23:38.000Z</time>
      </trkpt>
      <trkpt lat="44.88902" lon="0.88801">
        <ele>74.2</ele>
        <time>1970-01-01T01:23:39.000Z</time>
      </trkpt>
      <trkpt lat="44.88895" lon="0.88798">
        <ele>74.1</ele>
        <time>1970-01-01T01:23:40.000Z</time>
      </trkpt>
      <trkpt lat="44.88888" lon="0.88794">
        <ele>74</ele>
        <time>1970-01-01T01:23:41.000Z</time>
      </trkpt>
      <trkpt lat="44.88882" lon="0.8879">
        <ele>73.9</ele>
        <time>1970-01-01T01:23:42.000Z</time>
      </trkpt>
      <trkpt lat="44.88875" lon="0.88786">
        <ele>73.8</ele>
        <time>1970-01-01T01:23:43.000Z</time>
      </trkpt>
      <trkpt lat="44.88869" lon="0.88783">
        <ele>73.7</ele>
        <time>1970-01-01T01:23:44.000Z</time>
      </trkpt>
      <trkpt lat="44.88863" lon="0.8878">
        <ele>73.7</ele>
        <time>1970-01-01T01:23:45.000Z</time>
      </trkpt>
      <trkpt lat="44.88855" lon="0.88778">
        <ele>73.5</ele>
        <time>1970-01-01T01:23:46.000Z</time>
      </trkpt>
      <trkpt lat="44.88848" lon="0.88775">
        <ele>73.2</ele>
        <time>1970-01-01T01:23:47.000Z</time>
      </trkpt>
      <trkpt lat="44.88841" lon="0.88772">
        <ele>73</ele>
        <time>1970-01-01T01:23:48.000Z</time>
      </trkpt>
      <trkpt lat="44.88835" lon="0.88769">
        <ele>72.8</ele>
        <time>1970-01-01T01:23:49.000Z</time>
      </trkpt>
      <trkpt lat="44.88828" lon="0.88766">
        <ele>72.6</ele>
        <time>1970-01-01T01:23:50.000Z</time>
      </trkpt>
      <trkpt lat="44.88821" lon="0.88763">
        <ele>72.5</ele>
        <time>1970-01-01T01:23:51.000Z</time>
      </trkpt>
      <trkpt lat="44.88815" lon="0.88761">
        <ele>72.4</ele>
        <time>1970-01-01T01:23:52.000Z</time>
      </trkpt>
      <trkpt lat="44.88808" lon="0.88758">
        <ele>72.3</ele>
        <time>1970-01-01T01:23:53.000Z</time>
      </trkpt>
      <trkpt lat="44.88802" lon="0.88755">
        <ele>72.1</ele>
        <time>1970-01-01T01:23:54.000Z</time>
      </trkpt>
      <trkpt lat="44.88795" lon="0.88752">
        <ele>72</ele>
        <time>1970-01-01T01:23:55.000Z</time>
      </trkpt>
      <trkpt lat="44.88789" lon="0.88749">
        <ele>72</ele>
        <time>1970-01-01T01:23:56.000Z</time>
      </trkpt>
      <trkpt lat="44.88783" lon="0.88745">
        <ele>71.9</ele>
        <time>1970-01-01T01:23:57.000Z</time>
      </trkpt>
      <trkpt lat="44.88777" lon="0.88741">
        <ele>71.9</ele>
        <time>1970-01-01T01:23:58.000Z</time>
      </trkpt>
      <trkpt lat="44.88772" lon="0.88737">
        <ele>71.9</ele>
        <time>1970-01-01T01:23:59.000Z</time>
      </trkpt>
      <trkpt lat="44.88767" lon="0.88733">
        <ele>71.9</ele>
        <time>1970-01-01T01:24:00.000Z</time>
      </trkpt>
      <trkpt lat="44.88762" lon="0.88728">
        <ele>71.9</ele>
        <time>1970-01-01T01:24:01.000Z</time>
      </trkpt>
      <trkpt lat="44.88758" lon="0.88725">
        <ele>71.9</ele>
        <time>1970-01-01T01:24:02.000Z</time>
      </trkpt>
      <trkpt lat="44.88753" lon="0.88723">
        <ele>71.9</ele>
        <time>1970-01-01T01:24:03.000Z</time>
      </trkpt>
      <trkpt lat="44.8875" lon="0.88721">
        <ele>71.9</ele>
        <time>1970-01-01T01:24:04.000Z</time>
      </trkpt>
      <trkpt lat="44.88747" lon="0.88723">
        <ele>71.9</ele>
        <time>1970-01-01T01:24:05.000Z</time>
      </trkpt>
      <trkpt lat="44.88744" lon="0.88727">
        <ele>71.6</ele>
        <time>1970-01-01T01:24:06.000Z</time>
      </trkpt>
      <trkpt lat="44.88741" lon="0.88735">
        <ele>71.3</ele>
        <time>1970-01-01T01:24:07.000Z</time>
      </trkpt>
      <trkpt lat="44.88737" lon="0.88742">
        <ele>71</ele>
        <time>1970-01-01T01:24:08.000Z</time>
      </trkpt>
      <trkpt lat="44.88734" lon="0.88749">
        <ele>70.8</ele>
        <time>1970-01-01T01:24:09.000Z</time>
      </trkpt>
      <trkpt lat="44.88731" lon="0.88756">
        <ele>70.7</ele>
        <time>1970-01-01T01:24:10.000Z</time>
      </trkpt>
      <trkpt lat="44.8873" lon="0.88763">
        <ele>70.6</ele>
        <time>1970-01-01T01:24:11.000Z</time>
      </trkpt>
      <trkpt lat="44.88729" lon="0.88772">
        <ele>70.5</ele>
        <time>1970-01-01T01:24:12.000Z</time>
      </trkpt>
      <trkpt lat="44.88729" lon="0.88781">
        <ele>70.4</ele>
        <time>1970-01-01T01:24:13.000Z</time>
      </trkpt>
      <trkpt lat="44.88729" lon="0.8879">
        <ele>70.4</ele>
        <time>1970-01-01T01:24:14.000Z</time>
      </trkpt>
      <trkpt lat="44.88728" lon="0.88798">
        <ele>70.5</ele>
        <time>1970-01-01T01:24:15.000Z</time>
      </trkpt>
      <trkpt lat="44.88727" lon="0.88806">
        <ele>70.7</ele>
        <time>1970-01-01T01:24:16.000Z</time>
      </trkpt>
      <trkpt lat="44.88726" lon="0.88814">
        <ele>71</ele>
        <time>1970-01-01T01:24:17.000Z</time>
      </trkpt>
      <trkpt lat="44.88725" lon="0.88822">
        <ele>71.3</ele>
        <time>1970-01-01T01:24:18.000Z</time>
      </trkpt>
      <trkpt lat="44.88724" lon="0.88829">
        <ele>71.8</ele>
        <time>1970-01-01T01:24:19.000Z</time>
      </trkpt>
      <trkpt lat="44.88722" lon="0.88837">
        <ele>72.2</ele>
        <time>1970-01-01T01:24:20.000Z</time>
      </trkpt>
      <trkpt lat="44.88721" lon="0.88844">
        <ele>72.8</ele>
        <time>1970-01-01T01:24:21.000Z</time>
      </trkpt>
      <trkpt lat="44.88719" lon="0.88851">
        <ele>73.4</ele>
        <time>1970-01-01T01:24:22.000Z</time>
      </trkpt>
      <trkpt lat="44.88717" lon="0.88857">
        <ele>74.1</ele>
        <time>1970-01-01T01:24:23.000Z</time>
      </trkpt>
      <trkpt lat="44.88715" lon="0.88864">
        <ele>74.7</ele>
        <time>1970-01-01T01:24:24.000Z</time>
      </trkpt>
      <trkpt lat="44.88714" lon="0.88869">
        <ele>75.3</ele>
        <time>1970-01-01T01:24:25.000Z</time>
      </trkpt>
      <trkpt lat="44.88712" lon="0.88874">
        <ele>75.8</ele>
        <time>1970-01-01T01:24:26.000Z</time>
      </trkpt>
      <trkpt lat="44.8871" lon="0.88877">
        <ele>76.3</ele>
        <time>1970-01-01T01:24:27.000Z</time>
      </trkpt>
      <trkpt lat="44.88707" lon="0.8888">
        <ele>76.8</ele>
        <time>1970-01-01T01:24:28.000Z</time>
      </trkpt>
      <trkpt lat="44.88706" lon="0.88883">
        <ele>77.2</ele>
        <time>1970-01-01T01:24:29.000Z</time>
      </trkpt>
      <trkpt lat="44.88704" lon="0.88886">
        <ele>77.7</ele>
        <time>1970-01-01T01:24:30.000Z</time>
      </trkpt>
      <trkpt lat="44.88702" lon="0.88888">
        <ele>78.1</ele>
        <time>1970-01-01T01:24:31.000Z</time>
      </trkpt>
      <trkpt lat="44.887" lon="0.88891">
        <ele>78.6</ele>
        <time>1970-01-01T01:24:32.000Z</time>
      </trkpt>
      <trkpt lat="44.88698" lon="0.88893">
        <ele>79.1</ele>
        <time>1970-01-01T01:24:33.000Z</time>
      </trkpt>
      <trkpt lat="44.88695" lon="0.88895">
        <ele>79.6</ele>
        <time>1970-01-01T01:24:34.000Z</time>
      </trkpt>
      <trkpt lat="44.88693" lon="0.88897">
        <ele>80.1</ele>
        <time>1970-01-01T01:24:35.000Z</time>
      </trkpt>
      <trkpt lat="44.88691" lon="0.88899">
        <ele>80.5</ele>
        <time>1970-01-01T01:24:36.000Z</time>
      </trkpt>
      <trkpt lat="44.88688" lon="0.88899">
        <ele>81</ele>
        <time>1970-01-01T01:24:37.000Z</time>
      </trkpt>
      <trkpt lat="44.88686" lon="0.889">
        <ele>81.5</ele>
        <time>1970-01-01T01:24:38.000Z</time>
      </trkpt>
      <trkpt lat="44.88684" lon="0.88902">
        <ele>81.8</ele>
        <time>1970-01-01T01:24:39.000Z</time>
      </trkpt>
      <trkpt lat="44.88682" lon="0.88903">
        <ele>82.2</ele>
        <time>1970-01-01T01:24:40.000Z</time>
      </trkpt>
      <trkpt lat="44.88681" lon="0.88905">
        <ele>82.5</ele>
        <time>1970-01-01T01:24:41.000Z</time>
      </trkpt>
      <trkpt lat="44.88679" lon="0.88906">
        <ele>82.9</ele>
        <time>1970-01-01T01:24:42.000Z</time>
      </trkpt>
      <trkpt lat="44.88677" lon="0.88908">
        <ele>83.2</ele>
        <time>1970-01-01T01:24:43.000Z</time>
      </trkpt>
      <trkpt lat="44.88675" lon="0.88909">
        <ele>83.6</ele>
        <time>1970-01-01T01:24:44.000Z</time>
      </trkpt>
      <trkpt lat="44.88673" lon="0.8891">
        <ele>84</ele>
        <time>1970-01-01T01:24:45.000Z</time>
      </trkpt>
      <trkpt lat="44.88671" lon="0.88912">
        <ele>84.4</ele>
        <time>1970-01-01T01:24:46.000Z</time>
      </trkpt>
      <trkpt lat="44.88669" lon="0.88913">
        <ele>84.7</ele>
        <time>1970-01-01T01:24:47.000Z</time>
      </trkpt>
      <trkpt lat="44.88667" lon="0.88915">
        <ele>85.1</ele>
        <time>1970-01-01T01:24:48.000Z</time>
      </trkpt>
      <trkpt lat="44.88665" lon="0.88916">
        <ele>85.4</ele>
        <time>1970-01-01T01:24:49.000Z</time>
      </trkpt>
      <trkpt lat="44.88663" lon="0.88917">
        <ele>85.8</ele>
        <time>1970-01-01T01:24:50.000Z</time>
      </trkpt>
      <trkpt lat="44.88662" lon="0.88919">
        <ele>86.1</ele>
        <time>1970-01-01T01:24:51.000Z</time>
      </trkpt>
      <trkpt lat="44.8866" lon="0.8892">
        <ele>86.4</ele>
        <time>1970-01-01T01:24:52.000Z</time>
      </trkpt>
      <trkpt lat="44.88658" lon="0.88922">
        <ele>86.7</ele>
        <time>1970-01-01T01:24:53.000Z</time>
      </trkpt>
      <trkpt lat="44.88657" lon="0.88924">
        <ele>87.1</ele>
        <time>1970-01-01T01:24:54.000Z</time>
      </trkpt>
      <trkpt lat="44.88655" lon="0.88925">
        <ele>87.4</ele>
        <time>1970-01-01T01:24:55.000Z</time>
      </trkpt>
      <trkpt lat="44.88653" lon="0.88926">
        <ele>87.7</ele>
        <time>1970-01-01T01:24:56.000Z</time>
      </trkpt>
      <trkpt lat="44.88651" lon="0.88928">
        <ele>88</ele>
        <time>1970-01-01T01:24:57.000Z</time>
      </trkpt>
      <trkpt lat="44.8865" lon="0.88929">
        <ele>88.4</ele>
        <time>1970-01-01T01:24:58.000Z</time>
      </trkpt>
      <trkpt lat="44.88648" lon="0.8893">
        <ele>88.6</ele>
        <time>1970-01-01T01:24:59.000Z</time>
      </trkpt>
      <trkpt lat="44.88646" lon="0.8893">
        <ele>88.9</ele>
        <time>1970-01-01T01:25:00.000Z</time>
      </trkpt>
      <trkpt lat="44.88644" lon="0.88931">
        <ele>89.2</ele>
        <time>1970-01-01T01:25:01.000Z</time>
      </trkpt>
      <trkpt lat="44.88643" lon="0.88932">
        <ele>89.5</ele>
        <time>1970-01-01T01:25:02.000Z</time>
      </trkpt>
      <trkpt lat="44.88641" lon="0.88933">
        <ele>89.9</ele>
        <time>1970-01-01T01:25:03.000Z</time>
      </trkpt>
      <trkpt lat="44.8864" lon="0.88935">
        <ele>90</ele>
        <time>1970-01-01T01:25:04.000Z</time>
      </trkpt>
      <trkpt lat="44.88639" lon="0.88936">
        <ele>90</ele>
        <time>1970-01-01T01:25:05.000Z</time>
      </trkpt>
      <trkpt lat="44.88638" lon="0.88938">
        <ele>90.1</ele>
        <time>1970-01-01T01:25:06.000Z</time>
      </trkpt>
      <trkpt lat="44.88636" lon="0.88939">
        <ele>90.1</ele>
        <time>1970-01-01T01:25:07.000Z</time>
      </trkpt>
      <trkpt lat="44.88635" lon="0.88939">
        <ele>90.1</ele>
        <time>1970-01-01T01:25:08.000Z</time>
      </trkpt>
      <trkpt lat="44.88634" lon="0.8894">
        <ele>90.2</ele>
        <time>1970-01-01T01:25:09.000Z</time>
      </trkpt>
      <trkpt lat="44.88632" lon="0.88941">
        <ele>90.2</ele>
        <time>1970-01-01T01:25:10.000Z</time>
      </trkpt>
      <trkpt lat="44.88631" lon="0.88942">
        <ele>90.2</ele>
        <time>1970-01-01T01:25:11.000Z</time>
      </trkpt>
      <trkpt lat="44.88629" lon="0.88942">
        <ele>90.3</ele>
        <time>1970-01-01T01:25:12.000Z</time>
      </trkpt>
      <trkpt lat="44.88627" lon="0.88942">
        <ele>90.3</ele>
        <time>1970-01-01T01:25:13.000Z</time>
      </trkpt>
      <trkpt lat="44.88625" lon="0.88941">
        <ele>90.2</ele>
        <time>1970-01-01T01:25:14.000Z</time>
      </trkpt>
      <trkpt lat="44.88623" lon="0.8894">
        <ele>90</ele>
        <time>1970-01-01T01:25:15.000Z</time>
      </trkpt>
      <trkpt lat="44.88622" lon="0.8894">
        <ele>89.8</ele>
        <time>1970-01-01T01:25:16.000Z</time>
      </trkpt>
      <trkpt lat="44.8862" lon="0.88938">
        <ele>89.6</ele>
        <time>1970-01-01T01:25:17.000Z</time>
      </trkpt>
      <trkpt lat="44.88618" lon="0.88935">
        <ele>89.3</ele>
        <time>1970-01-01T01:25:18.000Z</time>
      </trkpt>
      <trkpt lat="44.88614" lon="0.88931">
        <ele>88.9</ele>
        <time>1970-01-01T01:25:19.000Z</time>
      </trkpt>
      <trkpt lat="44.8861" lon="0.88927">
        <ele>88.5</ele>
        <time>1970-01-01T01:25:20.000Z</time>
      </trkpt>
      <trkpt lat="44.88606" lon="0.88924">
        <ele>88.3</ele>
        <time>1970-01-01T01:25:21.000Z</time>
      </trkpt>
      <trkpt lat="44.88602" lon="0.88922">
        <ele>88.2</ele>
        <time>1970-01-01T01:25:22.000Z</time>
      </trkpt>
      <trkpt lat="44.88599" lon="0.88919">
        <ele>88</ele>
        <time>1970-01-01T01:25:23.000Z</time>
      </trkpt>
      <trkpt lat="44.88595" lon="0.88916">
        <ele>87.9</ele>
        <time>1970-01-01T01:25:24.000Z</time>
      </trkpt>
      <trkpt lat="44.88591" lon="0.88913">
        <ele>87.8</ele>
        <time>1970-01-01T01:25:25.000Z</time>
      </trkpt>
      <trkpt lat="44.88587" lon="0.8891">
        <ele>87.8</ele>
        <time>1970-01-01T01:25:26.000Z</time>
      </trkpt>
      <trkpt lat="44.88583" lon="0.88906">
        <ele>87.8</ele>
        <time>1970-01-01T01:25:27.000Z</time>
      </trkpt>
      <trkpt lat="44.88578" lon="0.88903">
        <ele>87.8</ele>
        <time>1970-01-01T01:25:28.000Z</time>
      </trkpt>
      <trkpt lat="44.88573" lon="0.889">
        <ele>87.8</ele>
        <time>1970-01-01T01:25:29.000Z</time>
      </trkpt>
      <trkpt lat="44.88568" lon="0.88898">
        <ele>87.9</ele>
        <time>1970-01-01T01:25:30.000Z</time>
      </trkpt>
      <trkpt lat="44.88563" lon="0.88897">
        <ele>88</ele>
        <time>1970-01-01T01:25:31.000Z</time>
      </trkpt>
      <trkpt lat="44.88558" lon="0.88896">
        <ele>90.5</ele>
        <time>1970-01-01T01:25:32.000Z</time>
      </trkpt>
      <trkpt lat="44.88554" lon="0.88899">
        <ele>90.5</ele>
        <time>1970-01-01T01:25:33.000Z</time>
      </trkpt>
      <trkpt lat="44.88553" lon="0.88905">
        <ele>90.5</ele>
        <time>1970-01-01T01:25:34.000Z</time>
      </trkpt>
      <trkpt lat="44.88553" lon="0.88912">
        <ele>91.1</ele>
        <time>1970-01-01T01:25:35.000Z</time>
      </trkpt>
      <trkpt lat="44.88554" lon="0.88914">
        <ele>91.3</ele>
        <time>1970-01-01T01:25:36.000Z</time>
      </trkpt>
      <trkpt lat="44.88554" lon="0.88915">
        <ele>91.5</ele>
        <time>1970-01-01T01:25:37.000Z</time>
      </trkpt>
      <trkpt lat="44.88556" lon="0.88917">
        <ele>91.7</ele>
        <time>1970-01-01T01:25:38.000Z</time>
      </trkpt>
      <trkpt lat="44.88558" lon="0.88919">
        <ele>92.1</ele>
        <time>1970-01-01T01:25:39.000Z</time>
      </trkpt>
      <trkpt lat="44.8856" lon="0.88922">
        <ele>92.5</ele>
        <time>1970-01-01T01:25:40.000Z</time>
      </trkpt>
      <trkpt lat="44.88561" lon="0.88925">
        <ele>92.8</ele>
        <time>1970-01-01T01:25:41.000Z</time>
      </trkpt>
      <trkpt lat="44.88562" lon="0.88928">
        <ele>93.1</ele>
        <time>1970-01-01T01:25:42.000Z</time>
      </trkpt>
      <trkpt lat="44.88563" lon="0.8893">
        <ele>93.4</ele>
        <time>1970-01-01T01:25:43.000Z</time>
      </trkpt>
      <trkpt lat="44.88563" lon="0.88933">
        <ele>93.6</ele>
        <time>1970-01-01T01:25:44.000Z</time>
      </trkpt>
      <trkpt lat="44.88564" lon="0.88936">
        <ele>93.9</ele>
        <time>1970-01-01T01:25:45.000Z</time>
      </trkpt>
      <trkpt lat="44.88564" lon="0.88939">
        <ele>94.2</ele>
        <time>1970-01-01T01:25:46.000Z</time>
      </trkpt>
      <trkpt lat="44.88565" lon="0.88941">
        <ele>94.5</ele>
        <time>1970-01-01T01:25:47.000Z</time>
      </trkpt>
      <trkpt lat="44.88565" lon="0.88944">
        <ele>94.8</ele>
        <time>1970-01-01T01:25:48.000Z</time>
      </trkpt>
      <trkpt lat="44.88565" lon="0.88947">
        <ele>95</ele>
        <time>1970-01-01T01:25:49.000Z</time>
      </trkpt>
      <trkpt lat="44.88566" lon="0.88949">
        <ele>95.2</ele>
        <time>1970-01-01T01:25:50.000Z</time>
      </trkpt>
      <trkpt lat="44.88566" lon="0.88952">
        <ele>95.3</ele>
        <time>1970-01-01T01:25:51.000Z</time>
      </trkpt>
      <trkpt lat="44.88566" lon="0.88954">
        <ele>95.5</ele>
        <time>1970-01-01T01:25:52.000Z</time>
      </trkpt>
      <trkpt lat="44.88566" lon="0.88957">
        <ele>95.7</ele>
        <time>1970-01-01T01:25:53.000Z</time>
      </trkpt>
      <trkpt lat="44.88566" lon="0.88959">
        <ele>95.9</ele>
        <time>1970-01-01T01:25:54.000Z</time>
      </trkpt>
      <trkpt lat="44.88566" lon="0.88962">
        <ele>96.1</ele>
        <time>1970-01-01T01:25:55.000Z</time>
      </trkpt>
      <trkpt lat="44.88566" lon="0.88965">
        <ele>96.3</ele>
        <time>1970-01-01T01:25:56.000Z</time>
      </trkpt>
      <trkpt lat="44.88566" lon="0.88967">
        <ele>96.5</ele>
        <time>1970-01-01T01:25:57.000Z</time>
      </trkpt>
      <trkpt lat="44.88566" lon="0.8897">
        <ele>96.6</ele>
        <time>1970-01-01T01:25:58.000Z</time>
      </trkpt>
      <trkpt lat="44.88566" lon="0.88972">
        <ele>96.7</ele>
        <time>1970-01-01T01:25:59.000Z</time>
      </trkpt>
      <trkpt lat="44.88566" lon="0.88974">
        <ele>96.8</ele>
        <time>1970-01-01T01:26:00.000Z</time>
      </trkpt>
      <trkpt lat="44.88566" lon="0.88976">
        <ele>96.9</ele>
        <time>1970-01-01T01:26:01.000Z</time>
      </trkpt>
      <trkpt lat="44.88567" lon="0.88978">
        <ele>97</ele>
        <time>1970-01-01T01:26:02.000Z</time>
      </trkpt>
      <trkpt lat="44.88568" lon="0.8898">
        <ele>97.1</ele>
        <time>1970-01-01T01:26:03.000Z</time>
      </trkpt>
      <trkpt lat="44.88569" lon="0.88981">
        <ele>97.2</ele>
        <time>1970-01-01T01:26:04.000Z</time>
      </trkpt>
      <trkpt lat="44.8857" lon="0.88981">
        <ele>97.2</ele>
        <time>1970-01-01T01:26:05.000Z</time>
      </trkpt>
      <trkpt lat="44.88571" lon="0.88982">
        <ele>97.3</ele>
        <time>1970-01-01T01:26:06.000Z</time>
      </trkpt>
      <trkpt lat="44.88572" lon="0.88982">
        <ele>98.1</ele>
        <time>1970-01-01T01:26:07.000Z</time>
      </trkpt>
      <trkpt lat="44.88574" lon="0.88982">
        <ele>98.3</ele>
        <time>1970-01-01T01:26:08.000Z</time>
      </trkpt>
      <trkpt lat="44.88575" lon="0.88983">
        <ele>98.4</ele>
        <time>1970-01-01T01:26:09.000Z</time>
      </trkpt>
      <trkpt lat="44.88576" lon="0.88983">
        <ele>98.5</ele>
        <time>1970-01-01T01:26:10.000Z</time>
      </trkpt>
      <trkpt lat="44.88578" lon="0.88983">
        <ele>98.6</ele>
        <time>1970-01-01T01:26:11.000Z</time>
      </trkpt>
      <trkpt lat="44.88579" lon="0.88983">
        <ele>98.8</ele>
        <time>1970-01-01T01:26:12.000Z</time>
      </trkpt>
      <trkpt lat="44.88581" lon="0.88983">
        <ele>99</ele>
        <time>1970-01-01T01:26:13.000Z</time>
      </trkpt>
      <trkpt lat="44.88583" lon="0.88984">
        <ele>99.2</ele>
        <time>1970-01-01T01:26:14.000Z</time>
      </trkpt>
      <trkpt lat="44.88585" lon="0.88985">
        <ele>99.4</ele>
        <time>1970-01-01T01:26:15.000Z</time>
      </trkpt>
      <trkpt lat="44.88587" lon="0.88986">
        <ele>99.7</ele>
        <time>1970-01-01T01:26:16.000Z</time>
      </trkpt>
      <trkpt lat="44.88589" lon="0.88988">
        <ele>99.9</ele>
        <time>1970-01-01T01:26:17.000Z</time>
      </trkpt>
      <trkpt lat="44.88592" lon="0.8899">
        <ele>100.2</ele>
        <time>1970-01-01T01:26:18.000Z</time>
      </trkpt>
      <trkpt lat="44.88594" lon="0.88992">
        <ele>100.9</ele>
        <time>1970-01-01T01:26:19.000Z</time>
      </trkpt>
      <trkpt lat="44.88596" lon="0.88994">
        <ele>101</ele>
        <time>1970-01-01T01:26:20.000Z</time>
      </trkpt>
      <trkpt lat="44.88598" lon="0.88995">
        <ele>101</ele>
        <time>1970-01-01T01:26:21.000Z</time>
      </trkpt>
      <trkpt lat="44.886" lon="0.88996">
        <ele>101.1</ele>
        <time>1970-01-01T01:26:22.000Z</time>
      </trkpt>
      <trkpt lat="44.88602" lon="0.88997">
        <ele>101.1</ele>
        <time>1970-01-01T01:26:23.000Z</time>
      </trkpt>
      <trkpt lat="44.88604" lon="0.88997">
        <ele>101.2</ele>
        <time>1970-01-01T01:26:24.000Z</time>
      </trkpt>
      <trkpt lat="44.88606" lon="0.88997">
        <ele>101.3</ele>
        <time>1970-01-01T01:26:25.000Z</time>
      </trkpt>
      <trkpt lat="44.88608" lon="0.88998">
        <ele>101.4</ele>
        <time>1970-01-01T01:26:26.000Z</time>
      </trkpt>
      <trkpt lat="44.8861" lon="0.88998">
        <ele>101.5</ele>
        <time>1970-01-01T01:26:27.000Z</time>
      </trkpt>
      <trkpt lat="44.88612" lon="0.88999">
        <ele>101.7</ele>
        <time>1970-01-01T01:26:28.000Z</time>
      </trkpt>
      <trkpt lat="44.88614" lon="0.89">
        <ele>101.9</ele>
        <time>1970-01-01T01:26:29.000Z</time>
      </trkpt>
      <trkpt lat="44.88614" lon="0.89002">
        <ele>102</ele>
        <time>1970-01-01T01:26:30.000Z</time>
      </trkpt>
      <trkpt lat="44.88614" lon="0.89004">
        <ele>102.1</ele>
        <time>1970-01-01T01:26:31.000Z</time>
      </trkpt>
      <trkpt lat="44.88614" lon="0.89007">
        <ele>102.3</ele>
        <time>1970-01-01T01:26:32.000Z</time>
      </trkpt>
      <trkpt lat="44.88616" lon="0.89008">
        <ele>102.4</ele>
        <time>1970-01-01T01:26:33.000Z</time>
      </trkpt>
      <trkpt lat="44.88617" lon="0.89009">
        <ele>102.5</ele>
        <time>1970-01-01T01:26:34.000Z</time>
      </trkpt>
      <trkpt lat="44.88619" lon="0.8901">
        <ele>102.7</ele>
        <time>1970-01-01T01:26:35.000Z</time>
      </trkpt>
      <trkpt lat="44.8862" lon="0.89012">
        <ele>102.8</ele>
        <time>1970-01-01T01:26:36.000Z</time>
      </trkpt>
      <trkpt lat="44.88621" lon="0.89013">
        <ele>103</ele>
        <time>1970-01-01T01:26:37.000Z</time>
      </trkpt>
      <trkpt lat="44.88622" lon="0.89015">
        <ele>103.1</ele>
        <time>1970-01-01T01:26:38.000Z</time>
      </trkpt>
      <trkpt lat="44.88624" lon="0.89016">
        <ele>103.2</ele>
        <time>1970-01-01T01:26:39.000Z</time>
      </trkpt>
      <trkpt lat="44.88625" lon="0.89017">
        <ele>103.3</ele>
        <time>1970-01-01T01:26:40.000Z</time>
      </trkpt>
      <trkpt lat="44.88625" lon="0.89018">
        <ele>103.4</ele>
        <time>1970-01-01T01:26:41.000Z</time>
      </trkpt>
      <trkpt lat="44.88626" lon="0.89019">
        <ele>103.5</ele>
        <time>1970-01-01T01:26:42.000Z</time>
      </trkpt>
      <trkpt lat="44.88626" lon="0.89019">
        <ele>103.5</ele>
        <time>1970-01-01T01:26:43.000Z</time>
      </trkpt>
      <trkpt lat="44.88627" lon="0.89019">
        <ele>103.5</ele>
        <time>1970-01-01T01:26:44.000Z</time>
      </trkpt>
      <trkpt lat="44.88627" lon="0.89019">
        <ele>103.6</ele>
        <time>1970-01-01T01:26:45.000Z</time>
      </trkpt>
      <trkpt lat="44.88627" lon="0.89019">
        <ele>103.6</ele>
        <time>1970-01-01T01:26:46.000Z</time>
      </trkpt>
      <trkpt lat="44.88627" lon="0.8902">
        <ele>103.6</ele>
        <time>1970-01-01T01:26:47.000Z</time>
      </trkpt>
      <trkpt lat="44.88627" lon="0.8902">
        <ele>103.6</ele>
        <time>1970-01-01T01:26:48.000Z</time>
      </trkpt>
      <trkpt lat="44.88627" lon="0.89022">
        <ele>103.7</ele>
        <time>1970-01-01T01:26:49.000Z</time>
      </trkpt>
      <trkpt lat="44.88628" lon="0.89023">
        <ele>103.8</ele>
        <time>1970-01-01T01:26:50.000Z</time>
      </trkpt>
      <trkpt lat="44.88629" lon="0.89024">
        <ele>103.9</ele>
        <time>1970-01-01T01:26:51.000Z</time>
      </trkpt>
      <trkpt lat="44.88629" lon="0.89025">
        <ele>104</ele>
        <time>1970-01-01T01:26:52.000Z</time>
      </trkpt>
      <trkpt lat="44.88629" lon="0.89027">
        <ele>104.1</ele>
        <time>1970-01-01T01:26:53.000Z</time>
      </trkpt>
      <trkpt lat="44.88628" lon="0.89028">
        <ele>104.2</ele>
        <time>1970-01-01T01:26:54.000Z</time>
      </trkpt>
      <trkpt lat="44.88627" lon="0.89031">
        <ele>104.4</ele>
        <time>1970-01-01T01:26:55.000Z</time>
      </trkpt>
      <trkpt lat="44.88625" lon="0.89032">
        <ele>104.5</ele>
        <time>1970-01-01T01:26:56.000Z</time>
      </trkpt>
      <trkpt lat="44.88624" lon="0.89033">
        <ele>104.6</ele>
        <time>1970-01-01T01:26:57.000Z</time>
      </trkpt>
      <trkpt lat="44.88623" lon="0.89034">
        <ele>104.7</ele>
        <time>1970-01-01T01:26:58.000Z</time>
      </trkpt>
      <trkpt lat="44.88623" lon="0.89035">
        <ele>104.8</ele>
        <time>1970-01-01T01:26:59.000Z</time>
      </trkpt>
      <trkpt lat="44.88622" lon="0.89036">
        <ele>104.8</ele>
        <time>1970-01-01T01:27:00.000Z</time>
      </trkpt>
      <trkpt lat="44.88623" lon="0.89036">
        <ele>104.9</ele>
        <time>1970-01-01T01:27:01.000Z</time>
      </trkpt>
      <trkpt lat="44.88625" lon="0.89036">
        <ele>105</ele>
        <time>1970-01-01T01:27:02.000Z</time>
      </trkpt>
      <trkpt lat="44.88627" lon="0.89035">
        <ele>105.2</ele>
        <time>1970-01-01T01:27:03.000Z</time>
      </trkpt>
      <trkpt lat="44.88628" lon="0.89034">
        <ele>105.3</ele>
        <time>1970-01-01T01:27:04.000Z</time>
      </trkpt>
      <trkpt lat="44.88629" lon="0.89033">
        <ele>105.4</ele>
        <time>1970-01-01T01:27:05.000Z</time>
      </trkpt>
      <trkpt lat="44.88631" lon="0.89031">
        <ele>105.4</ele>
        <time>1970-01-01T01:27:06.000Z</time>
      </trkpt>
      <trkpt lat="44.88632" lon="0.8903">
        <ele>105.4</ele>
        <time>1970-01-01T01:27:07.000Z</time>
      </trkpt>
      <trkpt lat="44.88633" lon="0.89029">
        <ele>105.5</ele>
        <time>1970-01-01T01:27:08.000Z</time>
      </trkpt>
      <trkpt lat="44.88636" lon="0.8903">
        <ele>105.6</ele>
        <time>1970-01-01T01:27:09.000Z</time>
      </trkpt>
      <trkpt lat="44.88639" lon="0.89032">
        <ele>105.7</ele>
        <time>1970-01-01T01:27:10.000Z</time>
      </trkpt>
      <trkpt lat="44.88642" lon="0.89034">
        <ele>107</ele>
        <time>1970-01-01T01:27:11.000Z</time>
      </trkpt>
      <trkpt lat="44.88644" lon="0.89036">
        <ele>107.4</ele>
        <time>1970-01-01T01:27:12.000Z</time>
      </trkpt>
      <trkpt lat="44.88646" lon="0.89037">
        <ele>107.8</ele>
        <time>1970-01-01T01:27:13.000Z</time>
      </trkpt>
      <trkpt lat="44.88649" lon="0.89039">
        <ele>108.2</ele>
        <time>1970-01-01T01:27:14.000Z</time>
      </trkpt>
      <trkpt lat="44.88651" lon="0.89041">
        <ele>108.6</ele>
        <time>1970-01-01T01:27:15.000Z</time>
      </trkpt>
      <trkpt lat="44.88653" lon="0.89042">
        <ele>109</ele>
        <time>1970-01-01T01:27:16.000Z</time>
      </trkpt>
      <trkpt lat="44.88655" lon="0.89044">
        <ele>109.3</ele>
        <time>1970-01-01T01:27:17.000Z</time>
      </trkpt>
      <trkpt lat="44.88656" lon="0.89045">
        <ele>109.7</ele>
        <time>1970-01-01T01:27:18.000Z</time>
      </trkpt>
      <trkpt lat="44.88658" lon="0.89047">
        <ele>109.9</ele>
        <time>1970-01-01T01:27:19.000Z</time>
      </trkpt>
      <trkpt lat="44.88659" lon="0.89049">
        <ele>110.2</ele>
        <time>1970-01-01T01:27:20.000Z</time>
      </trkpt>
      <trkpt lat="44.8866" lon="0.8905">
        <ele>110.4</ele>
        <time>1970-01-01T01:27:21.000Z</time>
      </trkpt>
      <trkpt lat="44.88661" lon="0.8905">
        <ele>110.6</ele>
        <time>1970-01-01T01:27:22.000Z</time>
      </trkpt>
      <trkpt lat="44.88662" lon="0.8905">
        <ele>110.7</ele>
        <time>1970-01-01T01:27:23.000Z</time>
      </trkpt>
      <trkpt lat="44.88663" lon="0.8905">
        <ele>110.9</ele>
        <time>1970-01-01T01:27:24.000Z</time>
      </trkpt>
      <trkpt lat="44.88664" lon="0.8905">
        <ele>111.1</ele>
        <time>1970-01-01T01:27:25.000Z</time>
      </trkpt>
      <trkpt lat="44.88666" lon="0.8905">
        <ele>111.3</ele>
        <time>1970-01-01T01:27:26.000Z</time>
      </trkpt>
      <trkpt lat="44.88667" lon="0.89051">
        <ele>111.4</ele>
        <time>1970-01-01T01:27:27.000Z</time>
      </trkpt>
      <trkpt lat="44.88669" lon="0.89051">
        <ele>111.6</ele>
        <time>1970-01-01T01:27:28.000Z</time>
      </trkpt>
      <trkpt lat="44.88671" lon="0.89051">
        <ele>111.7</ele>
        <time>1970-01-01T01:27:29.000Z</time>
      </trkpt>
      <trkpt lat="44.88672" lon="0.89051">
        <ele>111.9</ele>
        <time>1970-01-01T01:27:30.000Z</time>
      </trkpt>
      <trkpt lat="44.88674" lon="0.89051">
        <ele>112</ele>
        <time>1970-01-01T01:27:31.000Z</time>
      </trkpt>
      <trkpt lat="44.88676" lon="0.89052">
        <ele>112.2</ele>
        <time>1970-01-01T01:27:32.000Z</time>
      </trkpt>
      <trkpt lat="44.88677" lon="0.89052">
        <ele>112.3</ele>
        <time>1970-01-01T01:27:33.000Z</time>
      </trkpt>
      <trkpt lat="44.88679" lon="0.89053">
        <ele>112.4</ele>
        <time>1970-01-01T01:27:34.000Z</time>
      </trkpt>
      <trkpt lat="44.88681" lon="0.89054">
        <ele>112.6</ele>
        <time>1970-01-01T01:27:35.000Z</time>
      </trkpt>
      <trkpt lat="44.88683" lon="0.89056">
        <ele>112.7</ele>
        <time>1970-01-01T01:27:36.000Z</time>
      </trkpt>
      <trkpt lat="44.88685" lon="0.89057">
        <ele>112.8</ele>
        <time>1970-01-01T01:27:37.000Z</time>
      </trkpt>
      <trkpt lat="44.88686" lon="0.89059">
        <ele>112.9</ele>
        <time>1970-01-01T01:27:38.000Z</time>
      </trkpt>
      <trkpt lat="44.88688" lon="0.89061">
        <ele>112.9</ele>
        <time>1970-01-01T01:27:39.000Z</time>
      </trkpt>
      <trkpt lat="44.88689" lon="0.89062">
        <ele>113</ele>
        <time>1970-01-01T01:27:40.000Z</time>
      </trkpt>
      <trkpt lat="44.88691" lon="0.89064">
        <ele>113.1</ele>
        <time>1970-01-01T01:27:41.000Z</time>
      </trkpt>
      <trkpt lat="44.88693" lon="0.89065">
        <ele>113.1</ele>
        <time>1970-01-01T01:27:42.000Z</time>
      </trkpt>
      <trkpt lat="44.88695" lon="0.89067">
        <ele>113.2</ele>
        <time>1970-01-01T01:27:43.000Z</time>
      </trkpt>
      <trkpt lat="44.88697" lon="0.89069">
        <ele>113.2</ele>
        <time>1970-01-01T01:27:44.000Z</time>
      </trkpt>
      <trkpt lat="44.88699" lon="0.89072">
        <ele>113.2</ele>
        <time>1970-01-01T01:27:45.000Z</time>
      </trkpt>
      <trkpt lat="44.887" lon="0.89075">
        <ele>113.2</ele>
        <time>1970-01-01T01:27:46.000Z</time>
      </trkpt>
      <trkpt lat="44.88702" lon="0.89081">
        <ele>113.2</ele>
        <time>1970-01-01T01:27:47.000Z</time>
      </trkpt>
      <trkpt lat="44.88707" lon="0.89087">
        <ele>112.9</ele>
        <time>1970-01-01T01:27:48.000Z</time>
      </trkpt>
      <trkpt lat="44.88714" lon="0.89095">
        <ele>112.7</ele>
        <time>1970-01-01T01:27:49.000Z</time>
      </trkpt>
      <trkpt lat="44.88721" lon="0.89101">
        <ele>112.6</ele>
        <time>1970-01-01T01:27:50.000Z</time>
      </trkpt>
      <trkpt lat="44.88725" lon="0.89106">
        <ele>112.7</ele>
        <time>1970-01-01T01:27:51.000Z</time>
      </trkpt>
      <trkpt lat="44.88729" lon="0.8911">
        <ele>112.8</ele>
        <time>1970-01-01T01:27:52.000Z</time>
      </trkpt>
      <trkpt lat="44.88733" lon="0.89114">
        <ele>113</ele>
        <time>1970-01-01T01:27:53.000Z</time>
      </trkpt>
      <trkpt lat="44.88736" lon="0.89118">
        <ele>113.2</ele>
        <time>1970-01-01T01:27:54.000Z</time>
      </trkpt>
      <trkpt lat="44.8874" lon="0.89121">
        <ele>113.4</ele>
        <time>1970-01-01T01:27:55.000Z</time>
      </trkpt>
      <trkpt lat="44.88743" lon="0.89124">
        <ele>113.6</ele>
        <time>1970-01-01T01:27:56.000Z</time>
      </trkpt>
      <trkpt lat="44.88746" lon="0.89127">
        <ele>113.8</ele>
        <time>1970-01-01T01:27:57.000Z</time>
      </trkpt>
      <trkpt lat="44.88749" lon="0.89129">
        <ele>114</ele>
        <time>1970-01-01T01:27:58.000Z</time>
      </trkpt>
      <trkpt lat="44.88751" lon="0.89132">
        <ele>114.2</ele>
        <time>1970-01-01T01:27:59.000Z</time>
      </trkpt>
      <trkpt lat="44.88753" lon="0.89135">
        <ele>114.4</ele>
        <time>1970-01-01T01:28:00.000Z</time>
      </trkpt>
      <trkpt lat="44.88756" lon="0.89137">
        <ele>114.6</ele>
        <time>1970-01-01T01:28:01.000Z</time>
      </trkpt>
      <trkpt lat="44.88759" lon="0.89139">
        <ele>114.8</ele>
        <time>1970-01-01T01:28:02.000Z</time>
      </trkpt>
      <trkpt lat="44.88761" lon="0.89142">
        <ele>115.1</ele>
        <time>1970-01-01T01:28:03.000Z</time>
      </trkpt>
      <trkpt lat="44.88764" lon="0.89144">
        <ele>115.3</ele>
        <time>1970-01-01T01:28:04.000Z</time>
      </trkpt>
      <trkpt lat="44.88767" lon="0.89146">
        <ele>115.5</ele>
        <time>1970-01-01T01:28:05.000Z</time>
      </trkpt>
      <trkpt lat="44.88769" lon="0.89149">
        <ele>115.8</ele>
        <time>1970-01-01T01:28:06.000Z</time>
      </trkpt>
      <trkpt lat="44.88772" lon="0.89151">
        <ele>116</ele>
        <time>1970-01-01T01:28:07.000Z</time>
      </trkpt>
      <trkpt lat="44.88774" lon="0.89153">
        <ele>116.2</ele>
        <time>1970-01-01T01:28:08.000Z</time>
      </trkpt>
      <trkpt lat="44.88777" lon="0.89155">
        <ele>116.4</ele>
        <time>1970-01-01T01:28:09.000Z</time>
      </trkpt>
      <trkpt lat="44.88779" lon="0.89157">
        <ele>116.6</ele>
        <time>1970-01-01T01:28:10.000Z</time>
      </trkpt>
      <trkpt lat="44.88781" lon="0.89159">
        <ele>116.9</ele>
        <time>1970-01-01T01:28:11.000Z</time>
      </trkpt>
      <trkpt lat="44.88783" lon="0.89161">
        <ele>117.1</ele>
        <time>1970-01-01T01:28:12.000Z</time>
      </trkpt>
      <trkpt lat="44.88786" lon="0.89164">
        <ele>117.3</ele>
        <time>1970-01-01T01:28:13.000Z</time>
      </trkpt>
      <trkpt lat="44.88788" lon="0.89166">
        <ele>117.6</ele>
        <time>1970-01-01T01:28:14.000Z</time>
      </trkpt>
      <trkpt lat="44.88791" lon="0.89168">
        <ele>117.8</ele>
        <time>1970-01-01T01:28:15.000Z</time>
      </trkpt>
      <trkpt lat="44.88793" lon="0.89171">
        <ele>118</ele>
        <time>1970-01-01T01:28:16.000Z</time>
      </trkpt>
      <trkpt lat="44.88796" lon="0.89173">
        <ele>118.3</ele>
        <time>1970-01-01T01:28:17.000Z</time>
      </trkpt>
      <trkpt lat="44.88799" lon="0.89175">
        <ele>118.5</ele>
        <time>1970-01-01T01:28:18.000Z</time>
      </trkpt>
      <trkpt lat="44.88802" lon="0.89178">
        <ele>118.8</ele>
        <time>1970-01-01T01:28:19.000Z</time>
      </trkpt>
      <trkpt lat="44.88804" lon="0.8918">
        <ele>119.1</ele>
        <time>1970-01-01T01:28:20.000Z</time>
      </trkpt>
      <trkpt lat="44.88807" lon="0.89182">
        <ele>119.3</ele>
        <time>1970-01-01T01:28:21.000Z</time>
      </trkpt>
      <trkpt lat="44.8881" lon="0.89185">
        <ele>119.6</ele>
        <time>1970-01-01T01:28:22.000Z</time>
      </trkpt>
      <trkpt lat="44.88813" lon="0.89187">
        <ele>119.9</ele>
        <time>1970-01-01T01:28:23.000Z</time>
      </trkpt>
      <trkpt lat="44.88815" lon="0.89189">
        <ele>120.1</ele>
        <time>1970-01-01T01:28:24.000Z</time>
      </trkpt>
      <trkpt lat="44.88817" lon="0.89191">
        <ele>120.4</ele>
        <time>1970-01-01T01:28:25.000Z</time>
      </trkpt>
      <trkpt lat="44.88819" lon="0.89194">
        <ele>120.6</ele>
        <time>1970-01-01T01:28:26.000Z</time>
      </trkpt>
      <trkpt lat="44.88822" lon="0.89196">
        <ele>120.8</ele>
        <time>1970-01-01T01:28:27.000Z</time>
      </trkpt>
      <trkpt lat="44.88824" lon="0.89198">
        <ele>121</ele>
        <time>1970-01-01T01:28:28.000Z</time>
      </trkpt>
      <trkpt lat="44.88827" lon="0.89199">
        <ele>121.2</ele>
        <time>1970-01-01T01:28:29.000Z</time>
      </trkpt>
      <trkpt lat="44.88829" lon="0.89201">
        <ele>121.3</ele>
        <time>1970-01-01T01:28:30.000Z</time>
      </trkpt>
      <trkpt lat="44.88831" lon="0.89203">
        <ele>121.5</ele>
        <time>1970-01-01T01:28:31.000Z</time>
      </trkpt>
      <trkpt lat="44.88834" lon="0.89204">
        <ele>121.7</ele>
        <time>1970-01-01T01:28:32.000Z</time>
      </trkpt>
      <trkpt lat="44.88836" lon="0.89206">
        <ele>121.8</ele>
        <time>1970-01-01T01:28:33.000Z</time>
      </trkpt>
      <trkpt lat="44.88839" lon="0.89208">
        <ele>121.9</ele>
        <time>1970-01-01T01:28:34.000Z</time>
      </trkpt>
      <trkpt lat="44.88841" lon="0.89209">
        <ele>122.1</ele>
        <time>1970-01-01T01:28:35.000Z</time>
      </trkpt>
      <trkpt lat="44.88844" lon="0.89211">
        <ele>122.2</ele>
        <time>1970-01-01T01:28:36.000Z</time>
      </trkpt>
      <trkpt lat="44.88847" lon="0.89212">
        <ele>122.3</ele>
        <time>1970-01-01T01:28:37.000Z</time>
      </trkpt>
      <trkpt lat="44.88849" lon="0.89214">
        <ele>122.4</ele>
        <time>1970-01-01T01:28:38.000Z</time>
      </trkpt>
      <trkpt lat="44.88852" lon="0.89215">
        <ele>122.5</ele>
        <time>1970-01-01T01:28:39.000Z</time>
      </trkpt>
      <trkpt lat="44.88855" lon="0.89215">
        <ele>122.5</ele>
        <time>1970-01-01T01:28:40.000Z</time>
      </trkpt>
      <trkpt lat="44.88858" lon="0.89216">
        <ele>122.6</ele>
        <time>1970-01-01T01:28:41.000Z</time>
      </trkpt>
      <trkpt lat="44.88861" lon="0.89217">
        <ele>122.7</ele>
        <time>1970-01-01T01:28:42.000Z</time>
      </trkpt>
      <trkpt lat="44.88865" lon="0.89219">
        <ele>122.7</ele>
        <time>1970-01-01T01:28:43.000Z</time>
      </trkpt>
      <trkpt lat="44.88869" lon="0.89221">
        <ele>122.7</ele>
        <time>1970-01-01T01:28:44.000Z</time>
      </trkpt>
      <trkpt lat="44.88873" lon="0.89223">
        <ele>122.8</ele>
        <time>1970-01-01T01:28:45.000Z</time>
      </trkpt>
      <trkpt lat="44.88877" lon="0.89225">
        <ele>122.8</ele>
        <time>1970-01-01T01:28:46.000Z</time>
      </trkpt>
      <trkpt lat="44.88881" lon="0.89227">
        <ele>122.8</ele>
        <time>1970-01-01T01:28:47.000Z</time>
      </trkpt>
      <trkpt lat="44.88885" lon="0.89229">
        <ele>122.8</ele>
        <time>1970-01-01T01:28:48.000Z</time>
      </trkpt>
      <trkpt lat="44.88889" lon="0.89231">
        <ele>122.8</ele>
        <time>1970-01-01T01:28:49.000Z</time>
      </trkpt>
      <trkpt lat="44.88893" lon="0.89234">
        <ele>122.7</ele>
        <time>1970-01-01T01:28:50.000Z</time>
      </trkpt>
      <trkpt lat="44.88897" lon="0.89237">
        <ele>122.7</ele>
        <time>1970-01-01T01:28:51.000Z</time>
      </trkpt>
      <trkpt lat="44.88901" lon="0.8924">
        <ele>122.6</ele>
        <time>1970-01-01T01:28:52.000Z</time>
      </trkpt>
      <trkpt lat="44.88906" lon="0.89244">
        <ele>122.5</ele>
        <time>1970-01-01T01:28:53.000Z</time>
      </trkpt>
      <trkpt lat="44.8891" lon="0.89248">
        <ele>122.5</ele>
        <time>1970-01-01T01:28:54.000Z</time>
      </trkpt>
      <trkpt lat="44.88915" lon="0.89252">
        <ele>122.4</ele>
        <time>1970-01-01T01:28:55.000Z</time>
      </trkpt>
      <trkpt lat="44.88919" lon="0.89256">
        <ele>122.3</ele>
        <time>1970-01-01T01:28:56.000Z</time>
      </trkpt>
      <trkpt lat="44.88924" lon="0.8926">
        <ele>122.2</ele>
        <time>1970-01-01T01:28:57.000Z</time>
      </trkpt>
      <trkpt lat="44.88928" lon="0.89264">
        <ele>122.1</ele>
        <time>1970-01-01T01:28:58.000Z</time>
      </trkpt>
      <trkpt lat="44.88933" lon="0.89268">
        <ele>122</ele>
        <time>1970-01-01T01:28:59.000Z</time>
      </trkpt>
      <trkpt lat="44.88937" lon="0.89272">
        <ele>121.9</ele>
        <time>1970-01-01T01:29:00.000Z</time>
      </trkpt>
      <trkpt lat="44.88942" lon="0.89275">
        <ele>121.8</ele>
        <time>1970-01-01T01:29:01.000Z</time>
      </trkpt>
      <trkpt lat="44.88946" lon="0.89279">
        <ele>121.7</ele>
        <time>1970-01-01T01:29:02.000Z</time>
      </trkpt>
      <trkpt lat="44.8895" lon="0.89283">
        <ele>121.6</ele>
        <time>1970-01-01T01:29:03.000Z</time>
      </trkpt>
      <trkpt lat="44.88955" lon="0.89287">
        <ele>121.5</ele>
        <time>1970-01-01T01:29:04.000Z</time>
      </trkpt>
      <trkpt lat="44.8896" lon="0.8929">
        <ele>121.3</ele>
        <time>1970-01-01T01:29:05.000Z</time>
      </trkpt>
      <trkpt lat="44.88964" lon="0.89293">
        <ele>121.1</ele>
        <time>1970-01-01T01:29:06.000Z</time>
      </trkpt>
      <trkpt lat="44.88969" lon="0.89296">
        <ele>121</ele>
        <time>1970-01-01T01:29:07.000Z</time>
      </trkpt>
      <trkpt lat="44.88973" lon="0.893">
        <ele>120.8</ele>
        <time>1970-01-01T01:29:08.000Z</time>
      </trkpt>
      <trkpt lat="44.88979" lon="0.89304">
        <ele>120.5</ele>
        <time>1970-01-01T01:29:09.000Z</time>
      </trkpt>
      <trkpt lat="44.88986" lon="0.89307">
        <ele>120.3</ele>
        <time>1970-01-01T01:29:10.000Z</time>
      </trkpt>
      <trkpt lat="44.88993" lon="0.89311">
        <ele>120</ele>
        <time>1970-01-01T01:29:11.000Z</time>
      </trkpt>
      <trkpt lat="44.89" lon="0.89314">
        <ele>119.8</ele>
        <time>1970-01-01T01:29:12.000Z</time>
      </trkpt>
      <trkpt lat="44.89007" lon="0.89316">
        <ele>119.5</ele>
        <time>1970-01-01T01:29:13.000Z</time>
      </trkpt>
      <trkpt lat="44.89014" lon="0.89319">
        <ele>119.3</ele>
        <time>1970-01-01T01:29:14.000Z</time>
      </trkpt>
      <trkpt lat="44.89021" lon="0.89322">
        <ele>119.2</ele>
        <time>1970-01-01T01:29:15.000Z</time>
      </trkpt>
      <trkpt lat="44.89027" lon="0.89325">
        <ele>119.1</ele>
        <time>1970-01-01T01:29:16.000Z</time>
      </trkpt>
      <trkpt lat="44.89033" lon="0.89328">
        <ele>119</ele>
        <time>1970-01-01T01:29:17.000Z</time>
      </trkpt>
      <trkpt lat="44.89039" lon="0.89332">
        <ele>119</ele>
        <time>1970-01-01T01:29:18.000Z</time>
      </trkpt>
      <trkpt lat="44.89045" lon="0.89335">
        <ele>119</ele>
        <time>1970-01-01T01:29:19.000Z</time>
      </trkpt>
      <trkpt lat="44.89051" lon="0.89338">
        <ele>119.1</ele>
        <time>1970-01-01T01:29:20.000Z</time>
      </trkpt>
      <trkpt lat="44.89056" lon="0.89341">
        <ele>119.1</ele>
        <time>1970-01-01T01:29:21.000Z</time>
      </trkpt>
      <trkpt lat="44.89062" lon="0.89345">
        <ele>119.1</ele>
        <time>1970-01-01T01:29:22.000Z</time>
      </trkpt>
      <trkpt lat="44.89067" lon="0.89349">
        <ele>119.2</ele>
        <time>1970-01-01T01:29:23.000Z</time>
      </trkpt>
      <trkpt lat="44.89073" lon="0.89352">
        <ele>119.2</ele>
        <time>1970-01-01T01:29:24.000Z</time>
      </trkpt>
      <trkpt lat="44.89079" lon="0.89355">
        <ele>119.3</ele>
        <time>1970-01-01T01:29:25.000Z</time>
      </trkpt>
      <trkpt lat="44.89084" lon="0.89359">
        <ele>119.3</ele>
        <time>1970-01-01T01:29:26.000Z</time>
      </trkpt>
      <trkpt lat="44.8909" lon="0.89362">
        <ele>119.4</ele>
        <time>1970-01-01T01:29:27.000Z</time>
      </trkpt>
      <trkpt lat="44.89095" lon="0.89366">
        <ele>119.5</ele>
        <time>1970-01-01T01:29:28.000Z</time>
      </trkpt>
      <trkpt lat="44.89101" lon="0.89369">
        <ele>119.5</ele>
        <time>1970-01-01T01:29:29.000Z</time>
      </trkpt>
      <trkpt lat="44.89106" lon="0.89373">
        <ele>119.6</ele>
        <time>1970-01-01T01:29:30.000Z</time>
      </trkpt>
      <trkpt lat="44.89112" lon="0.89376">
        <ele>119.7</ele>
        <time>1970-01-01T01:29:31.000Z</time>
      </trkpt>
      <trkpt lat="44.89117" lon="0.8938">
        <ele>119.7</ele>
        <time>1970-01-01T01:29:32.000Z</time>
      </trkpt>
      <trkpt lat="44.89123" lon="0.89383">
        <ele>119.8</ele>
        <time>1970-01-01T01:29:33.000Z</time>
      </trkpt>
      <trkpt lat="44.89128" lon="0.89386">
        <ele>119.9</ele>
        <time>1970-01-01T01:29:34.000Z</time>
      </trkpt>
      <trkpt lat="44.89133" lon="0.89389">
        <ele>120</ele>
        <time>1970-01-01T01:29:35.000Z</time>
      </trkpt>
      <trkpt lat="44.89138" lon="0.89391">
        <ele>120.1</ele>
        <time>1970-01-01T01:29:36.000Z</time>
      </trkpt>
      <trkpt lat="44.89142" lon="0.89394">
        <ele>120.2</ele>
        <time>1970-01-01T01:29:37.000Z</time>
      </trkpt>
      <trkpt lat="44.89147" lon="0.89396">
        <ele>120.3</ele>
        <time>1970-01-01T01:29:38.000Z</time>
      </trkpt>
      <trkpt lat="44.89151" lon="0.89399">
        <ele>120.4</ele>
        <time>1970-01-01T01:29:39.000Z</time>
      </trkpt>
      <trkpt lat="44.89155" lon="0.89401">
        <ele>120.5</ele>
        <time>1970-01-01T01:29:40.000Z</time>
      </trkpt>
      <trkpt lat="44.89159" lon="0.89403">
        <ele>120.6</ele>
        <time>1970-01-01T01:29:41.000Z</time>
      </trkpt>
      <trkpt lat="44.89163" lon="0.89406">
        <ele>120.7</ele>
        <time>1970-01-01T01:29:42.000Z</time>
      </trkpt>
      <trkpt lat="44.89167" lon="0.89409">
        <ele>120.7</ele>
        <time>1970-01-01T01:29:43.000Z</time>
      </trkpt>
      <trkpt lat="44.8917" lon="0.89411">
        <ele>120.8</ele>
        <time>1970-01-01T01:29:44.000Z</time>
      </trkpt>
      <trkpt lat="44.89174" lon="0.89414">
        <ele>120.9</ele>
        <time>1970-01-01T01:29:45.000Z</time>
      </trkpt>
      <trkpt lat="44.89178" lon="0.89417">
        <ele>121</ele>
        <time>1970-01-01T01:29:46.000Z</time>
      </trkpt>
      <trkpt lat="44.89181" lon="0.89419">
        <ele>121.1</ele>
        <time>1970-01-01T01:29:47.000Z</time>
      </trkpt>
      <trkpt lat="44.89185" lon="0.89422">
        <ele>121.2</ele>
        <time>1970-01-01T01:29:48.000Z</time>
      </trkpt>
      <trkpt lat="44.89188" lon="0.89424">
        <ele>121.3</ele>
        <time>1970-01-01T01:29:49.000Z</time>
      </trkpt>
      <trkpt lat="44.89192" lon="0.89426">
        <ele>121.4</ele>
        <time>1970-01-01T01:29:50.000Z</time>
      </trkpt>
      <trkpt lat="44.89196" lon="0.89429">
        <ele>121.5</ele>
        <time>1970-01-01T01:29:51.000Z</time>
      </trkpt>
      <trkpt lat="44.892" lon="0.89431">
        <ele>121.7</ele>
        <time>1970-01-01T01:29:52.000Z</time>
      </trkpt>
      <trkpt lat="44.89203" lon="0.89434">
        <ele>121.8</ele>
        <time>1970-01-01T01:29:53.000Z</time>
      </trkpt>
      <trkpt lat="44.89207" lon="0.89436">
        <ele>121.9</ele>
        <time>1970-01-01T01:29:54.000Z</time>
      </trkpt>
      <trkpt lat="44.89211" lon="0.89439">
        <ele>122</ele>
        <time>1970-01-01T01:29:55.000Z</time>
      </trkpt>
      <trkpt lat="44.89215" lon="0.89441">
        <ele>122.2</ele>
        <time>1970-01-01T01:29:56.000Z</time>
      </trkpt>
      <trkpt lat="44.89219" lon="0.89444">
        <ele>122.3</ele>
        <time>1970-01-01T01:29:57.000Z</time>
      </trkpt>
      <trkpt lat="44.89223" lon="0.89446">
        <ele>122.4</ele>
        <time>1970-01-01T01:29:58.000Z</time>
      </trkpt>
      <trkpt lat="44.89227" lon="0.89448">
        <ele>122.5</ele>
        <time>1970-01-01T01:29:59.000Z</time>
      </trkpt>
      <trkpt lat="44.89231" lon="0.89451">
        <ele>122.6</ele>
        <time>1970-01-01T01:30:00.000Z</time>
      </trkpt>
      <trkpt lat="44.89236" lon="0.89453">
        <ele>122.7</ele>
        <time>1970-01-01T01:30:01.000Z</time>
      </trkpt>
      <trkpt lat="44.89241" lon="0.89456">
        <ele>122.8</ele>
        <time>1970-01-01T01:30:02.000Z</time>
      </trkpt>
      <trkpt lat="44.89246" lon="0.89459">
        <ele>122.8</ele>
        <time>1970-01-01T01:30:03.000Z</time>
      </trkpt>
      <trkpt lat="44.89251" lon="0.89462">
        <ele>122.9</ele>
        <time>1970-01-01T01:30:04.000Z</time>
      </trkpt>
      <trkpt lat="44.89256" lon="0.89465">
        <ele>122.9</ele>
        <time>1970-01-01T01:30:05.000Z</time>
      </trkpt>
      <trkpt lat="44.89261" lon="0.89468">
        <ele>122.8</ele>
        <time>1970-01-01T01:30:06.000Z</time>
      </trkpt>
      <trkpt lat="44.89267" lon="0.89471">
        <ele>122.8</ele>
        <time>1970-01-01T01:30:07.000Z</time>
      </trkpt>
      <trkpt lat="44.89272" lon="0.89474">
        <ele>122.7</ele>
        <time>1970-01-01T01:30:08.000Z</time>
      </trkpt>
      <trkpt lat="44.89277" lon="0.89477">
        <ele>122.6</ele>
        <time>1970-01-01T01:30:09.000Z</time>
      </trkpt>
      <trkpt lat="44.89283" lon="0.8948">
        <ele>122.6</ele>
        <time>1970-01-01T01:30:10.000Z</time>
      </trkpt>
      <trkpt lat="44.89288" lon="0.89483">
        <ele>122.5</ele>
        <time>1970-01-01T01:30:11.000Z</time>
      </trkpt>
      <trkpt lat="44.89294" lon="0.89485">
        <ele>122.5</ele>
        <time>1970-01-01T01:30:12.000Z</time>
      </trkpt>
      <trkpt lat="44.89299" lon="0.89487">
        <ele>122.5</ele>
        <time>1970-01-01T01:30:13.000Z</time>
      </trkpt>
      <trkpt lat="44.89304" lon="0.89489">
        <ele>122.4</ele>
        <time>1970-01-01T01:30:14.000Z</time>
      </trkpt>
      <trkpt lat="44.89309" lon="0.89492">
        <ele>122.4</ele>
        <time>1970-01-01T01:30:15.000Z</time>
      </trkpt>
      <trkpt lat="44.89314" lon="0.89494">
        <ele>122.4</ele>
        <time>1970-01-01T01:30:16.000Z</time>
      </trkpt>
      <trkpt lat="44.8932" lon="0.89496">
        <ele>122.3</ele>
        <time>1970-01-01T01:30:17.000Z</time>
      </trkpt>
      <trkpt lat="44.89325" lon="0.89498">
        <ele>122.3</ele>
        <time>1970-01-01T01:30:18.000Z</time>
      </trkpt>
      <trkpt lat="44.8933" lon="0.89501">
        <ele>122.3</ele>
        <time>1970-01-01T01:30:19.000Z</time>
      </trkpt>
      <trkpt lat="44.89335" lon="0.89504">
        <ele>122.2</ele>
        <time>1970-01-01T01:30:20.000Z</time>
      </trkpt>
      <trkpt lat="44.89339" lon="0.89508">
        <ele>122.2</ele>
        <time>1970-01-01T01:30:21.000Z</time>
      </trkpt>
      <trkpt lat="44.89344" lon="0.89511">
        <ele>122.2</ele>
        <time>1970-01-01T01:30:22.000Z</time>
      </trkpt>
      <trkpt lat="44.89349" lon="0.89514">
        <ele>122.2</ele>
        <time>1970-01-01T01:30:23.000Z</time>
      </trkpt>
      <trkpt lat="44.89354" lon="0.89518">
        <ele>122.2</ele>
        <time>1970-01-01T01:30:24.000Z</time>
      </trkpt>
      <trkpt lat="44.89359" lon="0.89521">
        <ele>122.3</ele>
        <time>1970-01-01T01:30:25.000Z</time>
      </trkpt>
      <trkpt lat="44.89365" lon="0.89525">
        <ele>122.3</ele>
        <time>1970-01-01T01:30:26.000Z</time>
      </trkpt>
      <trkpt lat="44.8937" lon="0.89528">
        <ele>122.4</ele>
        <time>1970-01-01T01:30:27.000Z</time>
      </trkpt>
      <trkpt lat="44.89375" lon="0.89532">
        <ele>122.5</ele>
        <time>1970-01-01T01:30:28.000Z</time>
      </trkpt>
      <trkpt lat="44.89379" lon="0.89535">
        <ele>122.6</ele>
        <time>1970-01-01T01:30:29.000Z</time>
      </trkpt>
      <trkpt lat="44.89384" lon="0.89539">
        <ele>122.7</ele>
        <time>1970-01-01T01:30:30.000Z</time>
      </trkpt>
      <trkpt lat="44.89388" lon="0.89543">
        <ele>122.7</ele>
        <time>1970-01-01T01:30:31.000Z</time>
      </trkpt>
      <trkpt lat="44.89393" lon="0.89546">
        <ele>122.8</ele>
        <time>1970-01-01T01:30:32.000Z</time>
      </trkpt>
      <trkpt lat="44.89398" lon="0.8955">
        <ele>122.9</ele>
        <time>1970-01-01T01:30:33.000Z</time>
      </trkpt>
      <trkpt lat="44.89403" lon="0.89554">
        <ele>123</ele>
        <time>1970-01-01T01:30:34.000Z</time>
      </trkpt>
      <trkpt lat="44.89407" lon="0.89558">
        <ele>123.1</ele>
        <time>1970-01-01T01:30:35.000Z</time>
      </trkpt>
      <trkpt lat="44.89412" lon="0.89563">
        <ele>123.2</ele>
        <time>1970-01-01T01:30:36.000Z</time>
      </trkpt>
      <trkpt lat="44.89416" lon="0.89567">
        <ele>123.3</ele>
        <time>1970-01-01T01:30:37.000Z</time>
      </trkpt>
      <trkpt lat="44.8942" lon="0.8957">
        <ele>123.4</ele>
        <time>1970-01-01T01:30:38.000Z</time>
      </trkpt>
      <trkpt lat="44.89424" lon="0.89573">
        <ele>123.5</ele>
        <time>1970-01-01T01:30:39.000Z</time>
      </trkpt>
      <trkpt lat="44.89429" lon="0.89575">
        <ele>123.5</ele>
        <time>1970-01-01T01:30:40.000Z</time>
      </trkpt>
      <trkpt lat="44.89433" lon="0.89576">
        <ele>123.6</ele>
        <time>1970-01-01T01:30:41.000Z</time>
      </trkpt>
      <trkpt lat="44.89438" lon="0.89577">
        <ele>123.8</ele>
        <time>1970-01-01T01:30:42.000Z</time>
      </trkpt>
      <trkpt lat="44.89442" lon="0.89577">
        <ele>123.9</ele>
        <time>1970-01-01T01:30:43.000Z</time>
      </trkpt>
      <trkpt lat="44.89446" lon="0.89577">
        <ele>123.9</ele>
        <time>1970-01-01T01:30:44.000Z</time>
      </trkpt>
      <trkpt lat="44.8945" lon="0.89577">
        <ele>124</ele>
        <time>1970-01-01T01:30:45.000Z</time>
      </trkpt>
      <trkpt lat="44.89455" lon="0.89576">
        <ele>123.9</ele>
        <time>1970-01-01T01:30:46.000Z</time>
      </trkpt>
      <trkpt lat="44.89459" lon="0.89575">
        <ele>123.9</ele>
        <time>1970-01-01T01:30:47.000Z</time>
      </trkpt>
      <trkpt lat="44.89464" lon="0.89574">
        <ele>123.7</ele>
        <time>1970-01-01T01:30:48.000Z</time>
      </trkpt>
      <trkpt lat="44.89469" lon="0.89572">
        <ele>123.5</ele>
        <time>1970-01-01T01:30:49.000Z</time>
      </trkpt>
      <trkpt lat="44.89475" lon="0.89571">
        <ele>123.2</ele>
        <time>1970-01-01T01:30:50.000Z</time>
      </trkpt>
      <trkpt lat="44.89481" lon="0.89569">
        <ele>122.8</ele>
        <time>1970-01-01T01:30:51.000Z</time>
      </trkpt>
      <trkpt lat="44.89488" lon="0.89568">
        <ele>122.2</ele>
        <time>1970-01-01T01:30:52.000Z</time>
      </trkpt>
      <trkpt lat="44.89496" lon="0.89567">
        <ele>121.5</ele>
        <time>1970-01-01T01:30:53.000Z</time>
      </trkpt>
      <trkpt lat="44.89504" lon="0.89565">
        <ele>120.7</ele>
        <time>1970-01-01T01:30:54.000Z</time>
      </trkpt>
      <trkpt lat="44.89512" lon="0.89564">
        <ele>119.9</ele>
        <time>1970-01-01T01:30:55.000Z</time>
      </trkpt>
      <trkpt lat="44.89521" lon="0.89562">
        <ele>119</ele>
        <time>1970-01-01T01:30:56.000Z</time>
      </trkpt>
      <trkpt lat="44.8953" lon="0.8956">
        <ele>118.1</ele>
        <time>1970-01-01T01:30:57.000Z</time>
      </trkpt>
      <trkpt lat="44.89539" lon="0.89558">
        <ele>117.2</ele>
        <time>1970-01-01T01:30:58.000Z</time>
      </trkpt>
      <trkpt lat="44.89549" lon="0.89555">
        <ele>116.3</ele>
        <time>1970-01-01T01:30:59.000Z</time>
      </trkpt>
      <trkpt lat="44.89558" lon="0.89552">
        <ele>115.4</ele>
        <time>1970-01-01T01:31:00.000Z</time>
      </trkpt>
      <trkpt lat="44.89568" lon="0.89549">
        <ele>114.6</ele>
        <time>1970-01-01T01:31:01.000Z</time>
      </trkpt>
      <trkpt lat="44.89578" lon="0.89546">
        <ele>113.9</ele>
        <time>1970-01-01T01:31:02.000Z</time>
      </trkpt>
      <trkpt lat="44.89588" lon="0.89543">
        <ele>113.3</ele>
        <time>1970-01-01T01:31:03.000Z</time>
      </trkpt>
      <trkpt lat="44.89597" lon="0.8954">
        <ele>112.9</ele>
        <time>1970-01-01T01:31:04.000Z</time>
      </trkpt>
      <trkpt lat="44.89607" lon="0.89537">
        <ele>112.7</ele>
        <time>1970-01-01T01:31:05.000Z</time>
      </trkpt>
      <trkpt lat="44.89616" lon="0.89534">
        <ele>112.6</ele>
        <time>1970-01-01T01:31:06.000Z</time>
      </trkpt>
      <trkpt lat="44.89625" lon="0.89531">
        <ele>112.5</ele>
        <time>1970-01-01T01:31:07.000Z</time>
      </trkpt>
      <trkpt lat="44.89634" lon="0.89527">
        <ele>112.4</ele>
        <time>1970-01-01T01:31:08.000Z</time>
      </trkpt>
      <trkpt lat="44.89642" lon="0.89521">
        <ele>112.3</ele>
        <time>1970-01-01T01:31:09.000Z</time>
      </trkpt>
      <trkpt lat="44.8965" lon="0.89516">
        <ele>112.4</ele>
        <time>1970-01-01T01:31:10.000Z</time>
      </trkpt>
      <trkpt lat="44.89657" lon="0.8951">
        <ele>112.5</ele>
        <time>1970-01-01T01:31:11.000Z</time>
      </trkpt>
      <trkpt lat="44.89664" lon="0.89506">
        <ele>112.6</ele>
        <time>1970-01-01T01:31:12.000Z</time>
      </trkpt>
      <trkpt lat="44.89671" lon="0.89501">
        <ele>112.7</ele>
        <time>1970-01-01T01:31:13.000Z</time>
      </trkpt>
      <trkpt lat="44.89677" lon="0.89496">
        <ele>112.8</ele>
        <time>1970-01-01T01:31:14.000Z</time>
      </trkpt>
      <trkpt lat="44.89684" lon="0.89492">
        <ele>112.8</ele>
        <time>1970-01-01T01:31:15.000Z</time>
      </trkpt>
      <trkpt lat="44.89691" lon="0.89487">
        <ele>112.9</ele>
        <time>1970-01-01T01:31:16.000Z</time>
      </trkpt>
      <trkpt lat="44.89698" lon="0.89483">
        <ele>112.9</ele>
        <time>1970-01-01T01:31:17.000Z</time>
      </trkpt>
      <trkpt lat="44.89704" lon="0.89479">
        <ele>113</ele>
        <time>1970-01-01T01:31:18.000Z</time>
      </trkpt>
      <trkpt lat="44.89711" lon="0.89475">
        <ele>113</ele>
        <time>1970-01-01T01:31:19.000Z</time>
      </trkpt>
      <trkpt lat="44.89717" lon="0.89472">
        <ele>113</ele>
        <time>1970-01-01T01:31:20.000Z</time>
      </trkpt>
      <trkpt lat="44.89723" lon="0.89468">
        <ele>113.1</ele>
        <time>1970-01-01T01:31:21.000Z</time>
      </trkpt>
      <trkpt lat="44.89729" lon="0.89465">
        <ele>113.1</ele>
        <time>1970-01-01T01:31:22.000Z</time>
      </trkpt>
      <trkpt lat="44.89735" lon="0.89462">
        <ele>113.1</ele>
        <time>1970-01-01T01:31:23.000Z</time>
      </trkpt>
      <trkpt lat="44.89741" lon="0.89459">
        <ele>113.1</ele>
        <time>1970-01-01T01:31:24.000Z</time>
      </trkpt>
      <trkpt lat="44.89747" lon="0.89457">
        <ele>113</ele>
        <time>1970-01-01T01:31:25.000Z</time>
      </trkpt>
      <trkpt lat="44.89753" lon="0.89454">
        <ele>113</ele>
        <time>1970-01-01T01:31:26.000Z</time>
      </trkpt>
      <trkpt lat="44.8976" lon="0.89452">
        <ele>113</ele>
        <time>1970-01-01T01:31:27.000Z</time>
      </trkpt>
      <trkpt lat="44.89766" lon="0.89449">
        <ele>112.9</ele>
        <time>1970-01-01T01:31:28.000Z</time>
      </trkpt>
      <trkpt lat="44.89772" lon="0.89447">
        <ele>112.8</ele>
        <time>1970-01-01T01:31:29.000Z</time>
      </trkpt>
      <trkpt lat="44.89779" lon="0.89444">
        <ele>112.6</ele>
        <time>1970-01-01T01:31:30.000Z</time>
      </trkpt>
      <trkpt lat="44.89785" lon="0.8944">
        <ele>112.5</ele>
        <time>1970-01-01T01:31:31.000Z</time>
      </trkpt>
      <trkpt lat="44.89791" lon="0.89437">
        <ele>112.3</ele>
        <time>1970-01-01T01:31:32.000Z</time>
      </trkpt>
      <trkpt lat="44.89797" lon="0.89434">
        <ele>112.2</ele>
        <time>1970-01-01T01:31:33.000Z</time>
      </trkpt>
      <trkpt lat="44.89804" lon="0.8943">
        <ele>112.1</ele>
        <time>1970-01-01T01:31:34.000Z</time>
      </trkpt>
      <trkpt lat="44.8981" lon="0.89427">
        <ele>112</ele>
        <time>1970-01-01T01:31:35.000Z</time>
      </trkpt>
      <trkpt lat="44.89816" lon="0.89424">
        <ele>111.8</ele>
        <time>1970-01-01T01:31:36.000Z</time>
      </trkpt>
      <trkpt lat="44.89823" lon="0.8942">
        <ele>111.7</ele>
        <time>1970-01-01T01:31:37.000Z</time>
      </trkpt>
      <trkpt lat="44.8983" lon="0.89417">
        <ele>111.5</ele>
        <time>1970-01-01T01:31:38.000Z</time>
      </trkpt>
      <trkpt lat="44.89837" lon="0.89415">
        <ele>111.3</ele>
        <time>1970-01-01T01:31:39.000Z</time>
      </trkpt>
      <trkpt lat="44.89844" lon="0.89414">
        <ele>111.3</ele>
        <time>1970-01-01T01:31:40.000Z</time>
      </trkpt>
      <trkpt lat="44.89851" lon="0.89412">
        <ele>111.2</ele>
        <time>1970-01-01T01:31:41.000Z</time>
      </trkpt>
      <trkpt lat="44.89857" lon="0.89411">
        <ele>111.2</ele>
        <time>1970-01-01T01:31:42.000Z</time>
      </trkpt>
      <trkpt lat="44.89864" lon="0.89409">
        <ele>111.2</ele>
        <time>1970-01-01T01:31:43.000Z</time>
      </trkpt>
      <trkpt lat="44.8987" lon="0.89408">
        <ele>111.2</ele>
        <time>1970-01-01T01:31:44.000Z</time>
      </trkpt>
      <trkpt lat="44.89876" lon="0.89407">
        <ele>111.2</ele>
        <time>1970-01-01T01:31:45.000Z</time>
      </trkpt>
      <trkpt lat="44.89883" lon="0.89406">
        <ele>111.3</ele>
        <time>1970-01-01T01:31:46.000Z</time>
      </trkpt>
      <trkpt lat="44.89889" lon="0.89404">
        <ele>111.5</ele>
        <time>1970-01-01T01:31:47.000Z</time>
      </trkpt>
      <trkpt lat="44.89895" lon="0.89403">
        <ele>111.6</ele>
        <time>1970-01-01T01:31:48.000Z</time>
      </trkpt>
      <trkpt lat="44.89901" lon="0.89402">
        <ele>111.7</ele>
        <time>1970-01-01T01:31:49.000Z</time>
      </trkpt>
      <trkpt lat="44.89907" lon="0.894">
        <ele>111.8</ele>
        <time>1970-01-01T01:31:50.000Z</time>
      </trkpt>
      <trkpt lat="44.89913" lon="0.89399">
        <ele>112</ele>
        <time>1970-01-01T01:31:51.000Z</time>
      </trkpt>
      <trkpt lat="44.89918" lon="0.89398">
        <ele>112.1</ele>
        <time>1970-01-01T01:31:52.000Z</time>
      </trkpt>
      <trkpt lat="44.89924" lon="0.89397">
        <ele>112.2</ele>
        <time>1970-01-01T01:31:53.000Z</time>
      </trkpt>
      <trkpt lat="44.8993" lon="0.89396">
        <ele>112.4</ele>
        <time>1970-01-01T01:31:54.000Z</time>
      </trkpt>
      <trkpt lat="44.89936" lon="0.89395">
        <ele>112.5</ele>
        <time>1970-01-01T01:31:55.000Z</time>
      </trkpt>
      <trkpt lat="44.89942" lon="0.89394">
        <ele>112.7</ele>
        <time>1970-01-01T01:31:56.000Z</time>
      </trkpt>
      <trkpt lat="44.89948" lon="0.89393">
        <ele>112.9</ele>
        <time>1970-01-01T01:31:57.000Z</time>
      </trkpt>
      <trkpt lat="44.89953" lon="0.89392">
        <ele>113</ele>
        <time>1970-01-01T01:31:58.000Z</time>
      </trkpt>
      <trkpt lat="44.89959" lon="0.89391">
        <ele>113.2</ele>
        <time>1970-01-01T01:31:59.000Z</time>
      </trkpt>
      <trkpt lat="44.89965" lon="0.89391">
        <ele>113.4</ele>
        <time>1970-01-01T01:32:00.000Z</time>
      </trkpt>
      <trkpt lat="44.89971" lon="0.8939">
        <ele>113.6</ele>
        <time>1970-01-01T01:32:01.000Z</time>
      </trkpt>
      <trkpt lat="44.89977" lon="0.8939">
        <ele>113.8</ele>
        <time>1970-01-01T01:32:02.000Z</time>
      </trkpt>
      <trkpt lat="44.89982" lon="0.89389">
        <ele>113.9</ele>
        <time>1970-01-01T01:32:03.000Z</time>
      </trkpt>
      <trkpt lat="44.89988" lon="0.89389">
        <ele>114.1</ele>
        <time>1970-01-01T01:32:04.000Z</time>
      </trkpt>
      <trkpt lat="44.89993" lon="0.89389">
        <ele>114.3</ele>
        <time>1970-01-01T01:32:05.000Z</time>
      </trkpt>
      <trkpt lat="44.89999" lon="0.89389">
        <ele>114.5</ele>
        <time>1970-01-01T01:32:06.000Z</time>
      </trkpt>
      <trkpt lat="44.90006" lon="0.89388">
        <ele>114.7</ele>
        <time>1970-01-01T01:32:07.000Z</time>
      </trkpt>
      <trkpt lat="44.90012" lon="0.89388">
        <ele>114.9</ele>
        <time>1970-01-01T01:32:08.000Z</time>
      </trkpt>
      <trkpt lat="44.90018" lon="0.89387">
        <ele>115.1</ele>
        <time>1970-01-01T01:32:09.000Z</time>
      </trkpt>
      <trkpt lat="44.90023" lon="0.89387">
        <ele>115.2</ele>
        <time>1970-01-01T01:32:10.000Z</time>
      </trkpt>
      <trkpt lat="44.90029" lon="0.89386">
        <ele>115.4</ele>
        <time>1970-01-01T01:32:11.000Z</time>
      </trkpt>
      <trkpt lat="44.90034" lon="0.89386">
        <ele>115.6</ele>
        <time>1970-01-01T01:32:12.000Z</time>
      </trkpt>
      <trkpt lat="44.9004" lon="0.89386">
        <ele>115.7</ele>
        <time>1970-01-01T01:32:13.000Z</time>
      </trkpt>
      <trkpt lat="44.90045" lon="0.89386">
        <ele>115.9</ele>
        <time>1970-01-01T01:32:14.000Z</time>
      </trkpt>
      <trkpt lat="44.9005" lon="0.89385">
        <ele>116.1</ele>
        <time>1970-01-01T01:32:15.000Z</time>
      </trkpt>
      <trkpt lat="44.90055" lon="0.89385">
        <ele>116.3</ele>
        <time>1970-01-01T01:32:16.000Z</time>
      </trkpt>
      <trkpt lat="44.9006" lon="0.89385">
        <ele>116.5</ele>
        <time>1970-01-01T01:32:17.000Z</time>
      </trkpt>
      <trkpt lat="44.90064" lon="0.89384">
        <ele>116.7</ele>
        <time>1970-01-01T01:32:18.000Z</time>
      </trkpt>
      <trkpt lat="44.90069" lon="0.89382">
        <ele>116.9</ele>
        <time>1970-01-01T01:32:19.000Z</time>
      </trkpt>
      <trkpt lat="44.90073" lon="0.89379">
        <ele>117.1</ele>
        <time>1970-01-01T01:32:20.000Z</time>
      </trkpt>
      <trkpt lat="44.90077" lon="0.89375">
        <ele>117.3</ele>
        <time>1970-01-01T01:32:21.000Z</time>
      </trkpt>
      <trkpt lat="44.90081" lon="0.89371">
        <ele>117.5</ele>
        <time>1970-01-01T01:32:22.000Z</time>
      </trkpt>
      <trkpt lat="44.90085" lon="0.89366">
        <ele>117.6</ele>
        <time>1970-01-01T01:32:23.000Z</time>
      </trkpt>
      <trkpt lat="44.90089" lon="0.89362">
        <ele>117.8</ele>
        <time>1970-01-01T01:32:24.000Z</time>
      </trkpt>
      <trkpt lat="44.90092" lon="0.89357">
        <ele>117.9</ele>
        <time>1970-01-01T01:32:25.000Z</time>
      </trkpt>
      <trkpt lat="44.90095" lon="0.89351">
        <ele>118.1</ele>
        <time>1970-01-01T01:32:26.000Z</time>
      </trkpt>
      <trkpt lat="44.90097" lon="0.89346">
        <ele>118.3</ele>
        <time>1970-01-01T01:32:27.000Z</time>
      </trkpt>
      <trkpt lat="44.90099" lon="0.8934">
        <ele>118.5</ele>
        <time>1970-01-01T01:32:28.000Z</time>
      </trkpt>
      <trkpt lat="44.90101" lon="0.89335">
        <ele>118.7</ele>
        <time>1970-01-01T01:32:29.000Z</time>
      </trkpt>
      <trkpt lat="44.90103" lon="0.8933">
        <ele>118.9</ele>
        <time>1970-01-01T01:32:30.000Z</time>
      </trkpt>
      <trkpt lat="44.90105" lon="0.89325">
        <ele>119.1</ele>
        <time>1970-01-01T01:32:31.000Z</time>
      </trkpt>
      <trkpt lat="44.90107" lon="0.89321">
        <ele>119.3</ele>
        <time>1970-01-01T01:32:32.000Z</time>
      </trkpt>
      <trkpt lat="44.9011" lon="0.89316">
        <ele>119.6</ele>
        <time>1970-01-01T01:32:33.000Z</time>
      </trkpt>
      <trkpt lat="44.90112" lon="0.89312">
        <ele>119.8</ele>
        <time>1970-01-01T01:32:34.000Z</time>
      </trkpt>
      <trkpt lat="44.90115" lon="0.89307">
        <ele>120</ele>
        <time>1970-01-01T01:32:35.000Z</time>
      </trkpt>
      <trkpt lat="44.90117" lon="0.89302">
        <ele>120.2</ele>
        <time>1970-01-01T01:32:36.000Z</time>
      </trkpt>
      <trkpt lat="44.9012" lon="0.89297">
        <ele>120.4</ele>
        <time>1970-01-01T01:32:37.000Z</time>
      </trkpt>
      <trkpt lat="44.90122" lon="0.89292">
        <ele>120.6</ele>
        <time>1970-01-01T01:32:38.000Z</time>
      </trkpt>
      <trkpt lat="44.90124" lon="0.89287">
        <ele>120.8</ele>
        <time>1970-01-01T01:32:39.000Z</time>
      </trkpt>
      <trkpt lat="44.90127" lon="0.89281">
        <ele>121</ele>
        <time>1970-01-01T01:32:40.000Z</time>
      </trkpt>
      <trkpt lat="44.90129" lon="0.89276">
        <ele>121.2</ele>
        <time>1970-01-01T01:32:41.000Z</time>
      </trkpt>
      <trkpt lat="44.90132" lon="0.89271">
        <ele>121.4</ele>
        <time>1970-01-01T01:32:42.000Z</time>
      </trkpt>
      <trkpt lat="44.90134" lon="0.89265">
        <ele>121.6</ele>
        <time>1970-01-01T01:32:43.000Z</time>
      </trkpt>
      <trkpt lat="44.90137" lon="0.8926">
        <ele>121.8</ele>
        <time>1970-01-01T01:32:44.000Z</time>
      </trkpt>
      <trkpt lat="44.90141" lon="0.89255">
        <ele>122.1</ele>
        <time>1970-01-01T01:32:45.000Z</time>
      </trkpt>
      <trkpt lat="44.90144" lon="0.89249">
        <ele>122.3</ele>
        <time>1970-01-01T01:32:46.000Z</time>
      </trkpt>
      <trkpt lat="44.90147" lon="0.89244">
        <ele>122.5</ele>
        <time>1970-01-01T01:32:47.000Z</time>
      </trkpt>
      <trkpt lat="44.9015" lon="0.89239">
        <ele>122.6</ele>
        <time>1970-01-01T01:32:48.000Z</time>
      </trkpt>
      <trkpt lat="44.90153" lon="0.89233">
        <ele>122.8</ele>
        <time>1970-01-01T01:32:49.000Z</time>
      </trkpt>
      <trkpt lat="44.90155" lon="0.89228">
        <ele>123</ele>
        <time>1970-01-01T01:32:50.000Z</time>
      </trkpt>
      <trkpt lat="44.90158" lon="0.89222">
        <ele>123.3</ele>
        <time>1970-01-01T01:32:51.000Z</time>
      </trkpt>
      <trkpt lat="44.90161" lon="0.89216">
        <ele>123.5</ele>
        <time>1970-01-01T01:32:52.000Z</time>
      </trkpt>
      <trkpt lat="44.90164" lon="0.89211">
        <ele>123.8</ele>
        <time>1970-01-01T01:32:53.000Z</time>
      </trkpt>
      <trkpt lat="44.90166" lon="0.89206">
        <ele>124</ele>
        <time>1970-01-01T01:32:54.000Z</time>
      </trkpt>
      <trkpt lat="44.90169" lon="0.89201">
        <ele>124.3</ele>
        <time>1970-01-01T01:32:55.000Z</time>
      </trkpt>
      <trkpt lat="44.90171" lon="0.89197">
        <ele>124.5</ele>
        <time>1970-01-01T01:32:56.000Z</time>
      </trkpt>
      <trkpt lat="44.90174" lon="0.89192">
        <ele>124.7</ele>
        <time>1970-01-01T01:32:57.000Z</time>
      </trkpt>
      <trkpt lat="44.90176" lon="0.89187">
        <ele>125</ele>
        <time>1970-01-01T01:32:58.000Z</time>
      </trkpt>
      <trkpt lat="44.90178" lon="0.89182">
        <ele>125.2</ele>
        <time>1970-01-01T01:32:59.000Z</time>
      </trkpt>
      <trkpt lat="44.9018" lon="0.89177">
        <ele>125.5</ele>
        <time>1970-01-01T01:33:00.000Z</time>
      </trkpt>
      <trkpt lat="44.90183" lon="0.89171">
        <ele>125.7</ele>
        <time>1970-01-01T01:33:01.000Z</time>
      </trkpt>
      <trkpt lat="44.90185" lon="0.89166">
        <ele>126</ele>
        <time>1970-01-01T01:33:02.000Z</time>
      </trkpt>
      <trkpt lat="44.90187" lon="0.89161">
        <ele>126.3</ele>
        <time>1970-01-01T01:33:03.000Z</time>
      </trkpt>
      <trkpt lat="44.9019" lon="0.89156">
        <ele>126.6</ele>
        <time>1970-01-01T01:33:04.000Z</time>
      </trkpt>
      <trkpt lat="44.90192" lon="0.89151">
        <ele>126.8</ele>
        <time>1970-01-01T01:33:05.000Z</time>
      </trkpt>
      <trkpt lat="44.90195" lon="0.89146">
        <ele>127.1</ele>
        <time>1970-01-01T01:33:06.000Z</time>
      </trkpt>
      <trkpt lat="44.90198" lon="0.89141">
        <ele>127.4</ele>
        <time>1970-01-01T01:33:07.000Z</time>
      </trkpt>
      <trkpt lat="44.902" lon="0.89136">
        <ele>127.6</ele>
        <time>1970-01-01T01:33:08.000Z</time>
      </trkpt>
      <trkpt lat="44.90202" lon="0.8913">
        <ele>127.7</ele>
        <time>1970-01-01T01:33:09.000Z</time>
      </trkpt>
      <trkpt lat="44.90203" lon="0.89124">
        <ele>127.8</ele>
        <time>1970-01-01T01:33:10.000Z</time>
      </trkpt>
      <trkpt lat="44.90204" lon="0.89118">
        <ele>127.9</ele>
        <time>1970-01-01T01:33:11.000Z</time>
      </trkpt>
      <trkpt lat="44.90206" lon="0.89112">
        <ele>128.1</ele>
        <time>1970-01-01T01:33:12.000Z</time>
      </trkpt>
      <trkpt lat="44.90207" lon="0.89106">
        <ele>128.2</ele>
        <time>1970-01-01T01:33:13.000Z</time>
      </trkpt>
      <trkpt lat="44.90209" lon="0.89101">
        <ele>128.3</ele>
        <time>1970-01-01T01:33:14.000Z</time>
      </trkpt>
      <trkpt lat="44.9021" lon="0.89095">
        <ele>128.3</ele>
        <time>1970-01-01T01:33:15.000Z</time>
      </trkpt>
      <trkpt lat="44.90212" lon="0.8909">
        <ele>128.4</ele>
        <time>1970-01-01T01:33:16.000Z</time>
      </trkpt>
      <trkpt lat="44.90214" lon="0.89085">
        <ele>128.5</ele>
        <time>1970-01-01T01:33:17.000Z</time>
      </trkpt>
      <trkpt lat="44.90216" lon="0.8908">
        <ele>128.6</ele>
        <time>1970-01-01T01:33:18.000Z</time>
      </trkpt>
      <trkpt lat="44.90218" lon="0.89075">
        <ele>128.7</ele>
        <time>1970-01-01T01:33:19.000Z</time>
      </trkpt>
      <trkpt lat="44.9022" lon="0.8907">
        <ele>128.8</ele>
        <time>1970-01-01T01:33:20.000Z</time>
      </trkpt>
      <trkpt lat="44.90223" lon="0.89065">
        <ele>128.8</ele>
        <time>1970-01-01T01:33:21.000Z</time>
      </trkpt>
      <trkpt lat="44.90225" lon="0.8906">
        <ele>128.9</ele>
        <time>1970-01-01T01:33:22.000Z</time>
      </trkpt>
      <trkpt lat="44.90228" lon="0.89055">
        <ele>129</ele>
        <time>1970-01-01T01:33:23.000Z</time>
      </trkpt>
      <trkpt lat="44.90231" lon="0.8905">
        <ele>129.1</ele>
        <time>1970-01-01T01:33:24.000Z</time>
      </trkpt>
      <trkpt lat="44.90234" lon="0.89045">
        <ele>129.2</ele>
        <time>1970-01-01T01:33:25.000Z</time>
      </trkpt>
      <trkpt lat="44.90238" lon="0.8904">
        <ele>129.3</ele>
        <time>1970-01-01T01:33:26.000Z</time>
      </trkpt>
      <trkpt lat="44.90241" lon="0.89035">
        <ele>129.4</ele>
        <time>1970-01-01T01:33:27.000Z</time>
      </trkpt>
      <trkpt lat="44.90244" lon="0.89031">
        <ele>129.6</ele>
        <time>1970-01-01T01:33:28.000Z</time>
      </trkpt>
      <trkpt lat="44.90247" lon="0.89026">
        <ele>129.7</ele>
        <time>1970-01-01T01:33:29.000Z</time>
      </trkpt>
      <trkpt lat="44.9025" lon="0.89023">
        <ele>129.9</ele>
        <time>1970-01-01T01:33:30.000Z</time>
      </trkpt>
      <trkpt lat="44.90252" lon="0.89019">
        <ele>130</ele>
        <time>1970-01-01T01:33:31.000Z</time>
      </trkpt>
      <trkpt lat="44.90255" lon="0.89015">
        <ele>130.1</ele>
        <time>1970-01-01T01:33:32.000Z</time>
      </trkpt>
      <trkpt lat="44.90258" lon="0.89011">
        <ele>130.2</ele>
        <time>1970-01-01T01:33:33.000Z</time>
      </trkpt>
      <trkpt lat="44.9026" lon="0.89007">
        <ele>130.3</ele>
        <time>1970-01-01T01:33:34.000Z</time>
      </trkpt>
      <trkpt lat="44.90263" lon="0.89003">
        <ele>130.4</ele>
        <time>1970-01-01T01:33:35.000Z</time>
      </trkpt>
      <trkpt lat="44.90265" lon="0.88999">
        <ele>130.5</ele>
        <time>1970-01-01T01:33:36.000Z</time>
      </trkpt>
      <trkpt lat="44.90268" lon="0.88995">
        <ele>130.6</ele>
        <time>1970-01-01T01:33:37.000Z</time>
      </trkpt>
      <trkpt lat="44.90271" lon="0.88991">
        <ele>130.7</ele>
        <time>1970-01-01T01:33:38.000Z</time>
      </trkpt>
      <trkpt lat="44.90274" lon="0.88987">
        <ele>130.9</ele>
        <time>1970-01-01T01:33:39.000Z</time>
      </trkpt>
      <trkpt lat="44.90277" lon="0.88983">
        <ele>131</ele>
        <time>1970-01-01T01:33:40.000Z</time>
      </trkpt>
      <trkpt lat="44.9028" lon="0.88979">
        <ele>131.1</ele>
        <time>1970-01-01T01:33:41.000Z</time>
      </trkpt>
      <trkpt lat="44.90283" lon="0.88975">
        <ele>131.3</ele>
        <time>1970-01-01T01:33:42.000Z</time>
      </trkpt>
      <trkpt lat="44.90286" lon="0.88972">
        <ele>131.4</ele>
        <time>1970-01-01T01:33:43.000Z</time>
      </trkpt>
      <trkpt lat="44.9029" lon="0.88967">
        <ele>131.6</ele>
        <time>1970-01-01T01:33:44.000Z</time>
      </trkpt>
      <trkpt lat="44.90292" lon="0.88964">
        <ele>131.7</ele>
        <time>1970-01-01T01:33:45.000Z</time>
      </trkpt>
      <trkpt lat="44.90295" lon="0.8896">
        <ele>131.9</ele>
        <time>1970-01-01T01:33:46.000Z</time>
      </trkpt>
      <trkpt lat="44.90297" lon="0.88957">
        <ele>132</ele>
        <time>1970-01-01T01:33:47.000Z</time>
      </trkpt>
      <trkpt lat="44.90299" lon="0.88954">
        <ele>132.1</ele>
        <time>1970-01-01T01:33:48.000Z</time>
      </trkpt>
      <trkpt lat="44.90301" lon="0.8895">
        <ele>132.3</ele>
        <time>1970-01-01T01:33:49.000Z</time>
      </trkpt>
      <trkpt lat="44.90303" lon="0.88947">
        <ele>132.4</ele>
        <time>1970-01-01T01:33:50.000Z</time>
      </trkpt>
      <trkpt lat="44.90305" lon="0.88944">
        <ele>132.5</ele>
        <time>1970-01-01T01:33:51.000Z</time>
      </trkpt>
      <trkpt lat="44.90308" lon="0.88941">
        <ele>132.7</ele>
        <time>1970-01-01T01:33:52.000Z</time>
      </trkpt>
      <trkpt lat="44.9031" lon="0.88938">
        <ele>132.8</ele>
        <time>1970-01-01T01:33:53.000Z</time>
      </trkpt>
      <trkpt lat="44.90312" lon="0.88935">
        <ele>132.9</ele>
        <time>1970-01-01T01:33:54.000Z</time>
      </trkpt>
      <trkpt lat="44.90315" lon="0.88933">
        <ele>133.1</ele>
        <time>1970-01-01T01:33:55.000Z</time>
      </trkpt>
      <trkpt lat="44.90317" lon="0.88931">
        <ele>133.2</ele>
        <time>1970-01-01T01:33:56.000Z</time>
      </trkpt>
      <trkpt lat="44.9032" lon="0.88929">
        <ele>133.4</ele>
        <time>1970-01-01T01:33:57.000Z</time>
      </trkpt>
      <trkpt lat="44.90323" lon="0.88926">
        <ele>133.6</ele>
        <time>1970-01-01T01:33:58.000Z</time>
      </trkpt>
      <trkpt lat="44.90325" lon="0.88924">
        <ele>133.7</ele>
        <time>1970-01-01T01:33:59.000Z</time>
      </trkpt>
      <trkpt lat="44.90327" lon="0.88922">
        <ele>133.8</ele>
        <time>1970-01-01T01:34:00.000Z</time>
      </trkpt>
      <trkpt lat="44.9033" lon="0.8892">
        <ele>134</ele>
        <time>1970-01-01T01:34:01.000Z</time>
      </trkpt>
      <trkpt lat="44.90332" lon="0.88918">
        <ele>134.2</ele>
        <time>1970-01-01T01:34:02.000Z</time>
      </trkpt>
      <trkpt lat="44.90335" lon="0.88915">
        <ele>134.3</ele>
        <time>1970-01-01T01:34:03.000Z</time>
      </trkpt>
      <trkpt lat="44.90338" lon="0.88912">
        <ele>134.5</ele>
        <time>1970-01-01T01:34:04.000Z</time>
      </trkpt>
      <trkpt lat="44.90341" lon="0.8891">
        <ele>134.7</ele>
        <time>1970-01-01T01:34:05.000Z</time>
      </trkpt>
      <trkpt lat="44.90345" lon="0.88907">
        <ele>134.9</ele>
        <time>1970-01-01T01:34:06.000Z</time>
      </trkpt>
      <trkpt lat="44.90348" lon="0.88905">
        <ele>135.1</ele>
        <time>1970-01-01T01:34:07.000Z</time>
      </trkpt>
      <trkpt lat="44.90351" lon="0.88903">
        <ele>135.2</ele>
        <time>1970-01-01T01:34:08.000Z</time>
      </trkpt>
      <trkpt lat="44.90354" lon="0.88901">
        <ele>135.3</ele>
        <time>1970-01-01T01:34:09.000Z</time>
      </trkpt>
      <trkpt lat="44.90356" lon="0.88899">
        <ele>135.5</ele>
        <time>1970-01-01T01:34:10.000Z</time>
      </trkpt>
      <trkpt lat="44.90359" lon="0.88897">
        <ele>135.6</ele>
        <time>1970-01-01T01:34:11.000Z</time>
      </trkpt>
      <trkpt lat="44.90362" lon="0.88895">
        <ele>135.7</ele>
        <time>1970-01-01T01:34:12.000Z</time>
      </trkpt>
      <trkpt lat="44.90365" lon="0.88894">
        <ele>135.8</ele>
        <time>1970-01-01T01:34:13.000Z</time>
      </trkpt>
      <trkpt lat="44.90368" lon="0.88893">
        <ele>136</ele>
        <time>1970-01-01T01:34:14.000Z</time>
      </trkpt>
      <trkpt lat="44.90371" lon="0.88892">
        <ele>136.1</ele>
        <time>1970-01-01T01:34:15.000Z</time>
      </trkpt>
      <trkpt lat="44.90374" lon="0.88892">
        <ele>136.2</ele>
        <time>1970-01-01T01:34:16.000Z</time>
      </trkpt>
      <trkpt lat="44.90377" lon="0.88891">
        <ele>136.3</ele>
        <time>1970-01-01T01:34:17.000Z</time>
      </trkpt>
      <trkpt lat="44.90379" lon="0.8889">
        <ele>136.4</ele>
        <time>1970-01-01T01:34:18.000Z</time>
      </trkpt>
      <trkpt lat="44.90382" lon="0.8889">
        <ele>136.6</ele>
        <time>1970-01-01T01:34:19.000Z</time>
      </trkpt>
      <trkpt lat="44.90384" lon="0.8889">
        <ele>136.7</ele>
        <time>1970-01-01T01:34:20.000Z</time>
      </trkpt>
      <trkpt lat="44.90387" lon="0.8889">
        <ele>136.8</ele>
        <time>1970-01-01T01:34:21.000Z</time>
      </trkpt>
      <trkpt lat="44.9039" lon="0.8889">
        <ele>136.9</ele>
        <time>1970-01-01T01:34:22.000Z</time>
      </trkpt>
      <trkpt lat="44.90392" lon="0.8889">
        <ele>137</ele>
        <time>1970-01-01T01:34:23.000Z</time>
      </trkpt>
      <trkpt lat="44.90395" lon="0.8889">
        <ele>137.1</ele>
        <time>1970-01-01T01:34:24.000Z</time>
      </trkpt>
      <trkpt lat="44.90398" lon="0.8889">
        <ele>137.2</ele>
        <time>1970-01-01T01:34:25.000Z</time>
      </trkpt>
      <trkpt lat="44.904" lon="0.88891">
        <ele>137.3</ele>
        <time>1970-01-01T01:34:26.000Z</time>
      </trkpt>
      <trkpt lat="44.90403" lon="0.8889">
        <ele>137.4</ele>
        <time>1970-01-01T01:34:27.000Z</time>
      </trkpt>
      <trkpt lat="44.90406" lon="0.8889">
        <ele>137.5</ele>
        <time>1970-01-01T01:34:28.000Z</time>
      </trkpt>
      <trkpt lat="44.90409" lon="0.8889">
        <ele>137.6</ele>
        <time>1970-01-01T01:34:29.000Z</time>
      </trkpt>
      <trkpt lat="44.90412" lon="0.8889">
        <ele>137.7</ele>
        <time>1970-01-01T01:34:30.000Z</time>
      </trkpt>
      <trkpt lat="44.90415" lon="0.88889">
        <ele>137.8</ele>
        <time>1970-01-01T01:34:31.000Z</time>
      </trkpt>
      <trkpt lat="44.90418" lon="0.88889">
        <ele>137.9</ele>
        <time>1970-01-01T01:34:32.000Z</time>
      </trkpt>
      <trkpt lat="44.9042" lon="0.88889">
        <ele>138</ele>
        <time>1970-01-01T01:34:33.000Z</time>
      </trkpt>
      <trkpt lat="44.90423" lon="0.88889">
        <ele>138</ele>
        <time>1970-01-01T01:34:34.000Z</time>
      </trkpt>
      <trkpt lat="44.90425" lon="0.88889">
        <ele>138.1</ele>
        <time>1970-01-01T01:34:35.000Z</time>
      </trkpt>
      <trkpt lat="44.90428" lon="0.88889">
        <ele>138.2</ele>
        <time>1970-01-01T01:34:36.000Z</time>
      </trkpt>
      <trkpt lat="44.9043" lon="0.88889">
        <ele>138.2</ele>
        <time>1970-01-01T01:34:37.000Z</time>
      </trkpt>
      <trkpt lat="44.90432" lon="0.88889">
        <ele>138.2</ele>
        <time>1970-01-01T01:34:38.000Z</time>
      </trkpt>
      <trkpt lat="44.90435" lon="0.88889">
        <ele>138.3</ele>
        <time>1970-01-01T01:34:39.000Z</time>
      </trkpt>
      <trkpt lat="44.90437" lon="0.88889">
        <ele>138.3</ele>
        <time>1970-01-01T01:34:40.000Z</time>
      </trkpt>
      <trkpt lat="44.9044" lon="0.88888">
        <ele>138.4</ele>
        <time>1970-01-01T01:34:41.000Z</time>
      </trkpt>
      <trkpt lat="44.90442" lon="0.88888">
        <ele>138.4</ele>
        <time>1970-01-01T01:34:42.000Z</time>
      </trkpt>
      <trkpt lat="44.90445" lon="0.88887">
        <ele>138.5</ele>
        <time>1970-01-01T01:34:43.000Z</time>
      </trkpt>
      <trkpt lat="44.90448" lon="0.88887">
        <ele>138.5</ele>
        <time>1970-01-01T01:34:44.000Z</time>
      </trkpt>
      <trkpt lat="44.90451" lon="0.88886">
        <ele>138.5</ele>
        <time>1970-01-01T01:34:45.000Z</time>
      </trkpt>
      <trkpt lat="44.90453" lon="0.88886">
        <ele>138.6</ele>
        <time>1970-01-01T01:34:46.000Z</time>
      </trkpt>
      <trkpt lat="44.90457" lon="0.88885">
        <ele>138.6</ele>
        <time>1970-01-01T01:34:47.000Z</time>
      </trkpt>
      <trkpt lat="44.9046" lon="0.88884">
        <ele>138.6</ele>
        <time>1970-01-01T01:34:48.000Z</time>
      </trkpt>
      <trkpt lat="44.90463" lon="0.88884">
        <ele>138.6</ele>
        <time>1970-01-01T01:34:49.000Z</time>
      </trkpt>
      <trkpt lat="44.90467" lon="0.88883">
        <ele>138.6</ele>
        <time>1970-01-01T01:34:50.000Z</time>
      </trkpt>
      <trkpt lat="44.9047" lon="0.88883">
        <ele>138.7</ele>
        <time>1970-01-01T01:34:51.000Z</time>
      </trkpt>
      <trkpt lat="44.90473" lon="0.88883">
        <ele>138.7</ele>
        <time>1970-01-01T01:34:52.000Z</time>
      </trkpt>
      <trkpt lat="44.90476" lon="0.88882">
        <ele>138.7</ele>
        <time>1970-01-01T01:34:53.000Z</time>
      </trkpt>
      <trkpt lat="44.90479" lon="0.88882">
        <ele>138.8</ele>
        <time>1970-01-01T01:34:54.000Z</time>
      </trkpt>
      <trkpt lat="44.90482" lon="0.88882">
        <ele>138.8</ele>
        <time>1970-01-01T01:34:55.000Z</time>
      </trkpt>
      <trkpt lat="44.90485" lon="0.88882">
        <ele>138.8</ele>
        <time>1970-01-01T01:34:56.000Z</time>
      </trkpt>
      <trkpt lat="44.90488" lon="0.88882">
        <ele>138.9</ele>
        <time>1970-01-01T01:34:57.000Z</time>
      </trkpt>
      <trkpt lat="44.9049" lon="0.88882">
        <ele>138.9</ele>
        <time>1970-01-01T01:34:58.000Z</time>
      </trkpt>
      <trkpt lat="44.90493" lon="0.88881">
        <ele>139</ele>
        <time>1970-01-01T01:34:59.000Z</time>
      </trkpt>
      <trkpt lat="44.90496" lon="0.88882">
        <ele>139</ele>
        <time>1970-01-01T01:35:00.000Z</time>
      </trkpt>
      <trkpt lat="44.90499" lon="0.88882">
        <ele>139</ele>
        <time>1970-01-01T01:35:01.000Z</time>
      </trkpt>
      <trkpt lat="44.90502" lon="0.88882">
        <ele>139.1</ele>
        <time>1970-01-01T01:35:02.000Z</time>
      </trkpt>
      <trkpt lat="44.90505" lon="0.88882">
        <ele>139.1</ele>
        <time>1970-01-01T01:35:03.000Z</time>
      </trkpt>
      <trkpt lat="44.90508" lon="0.88882">
        <ele>139.2</ele>
        <time>1970-01-01T01:35:04.000Z</time>
      </trkpt>
      <trkpt lat="44.9051" lon="0.88882">
        <ele>139.2</ele>
        <time>1970-01-01T01:35:05.000Z</time>
      </trkpt>
      <trkpt lat="44.90513" lon="0.88881">
        <ele>139.3</ele>
        <time>1970-01-01T01:35:06.000Z</time>
      </trkpt>
      <trkpt lat="44.90516" lon="0.8888">
        <ele>139.3</ele>
        <time>1970-01-01T01:35:07.000Z</time>
      </trkpt>
      <trkpt lat="44.90519" lon="0.8888">
        <ele>139.4</ele>
        <time>1970-01-01T01:35:08.000Z</time>
      </trkpt>
      <trkpt lat="44.90523" lon="0.88879">
        <ele>139.5</ele>
        <time>1970-01-01T01:35:09.000Z</time>
      </trkpt>
      <trkpt lat="44.90526" lon="0.88878">
        <ele>139.5</ele>
        <time>1970-01-01T01:35:10.000Z</time>
      </trkpt>
      <trkpt lat="44.90529" lon="0.88877">
        <ele>139.6</ele>
        <time>1970-01-01T01:35:11.000Z</time>
      </trkpt>
      <trkpt lat="44.90532" lon="0.88876">
        <ele>139.6</ele>
        <time>1970-01-01T01:35:12.000Z</time>
      </trkpt>
      <trkpt lat="44.90535" lon="0.88875">
        <ele>139.7</ele>
        <time>1970-01-01T01:35:13.000Z</time>
      </trkpt>
      <trkpt lat="44.90538" lon="0.88874">
        <ele>139.7</ele>
        <time>1970-01-01T01:35:14.000Z</time>
      </trkpt>
      <trkpt lat="44.90542" lon="0.88874">
        <ele>139.8</ele>
        <time>1970-01-01T01:35:15.000Z</time>
      </trkpt>
      <trkpt lat="44.90545" lon="0.88873">
        <ele>139.8</ele>
        <time>1970-01-01T01:35:16.000Z</time>
      </trkpt>
      <trkpt lat="44.90548" lon="0.88872">
        <ele>139.8</ele>
        <time>1970-01-01T01:35:17.000Z</time>
      </trkpt>
      <trkpt lat="44.90551" lon="0.88871">
        <ele>139.8</ele>
        <time>1970-01-01T01:35:18.000Z</time>
      </trkpt>
      <trkpt lat="44.90554" lon="0.8887">
        <ele>139.8</ele>
        <time>1970-01-01T01:35:19.000Z</time>
      </trkpt>
      <trkpt lat="44.90557" lon="0.88869">
        <ele>139.8</ele>
        <time>1970-01-01T01:35:20.000Z</time>
      </trkpt>
      <trkpt lat="44.90561" lon="0.88868">
        <ele>139.8</ele>
        <time>1970-01-01T01:35:21.000Z</time>
      </trkpt>
      <trkpt lat="44.90564" lon="0.88867">
        <ele>139.8</ele>
        <time>1970-01-01T01:35:22.000Z</time>
      </trkpt>
      <trkpt lat="44.90568" lon="0.88866">
        <ele>139.8</ele>
        <time>1970-01-01T01:35:23.000Z</time>
      </trkpt>
      <trkpt lat="44.90571" lon="0.88865">
        <ele>139.8</ele>
        <time>1970-01-01T01:35:24.000Z</time>
      </trkpt>
      <trkpt lat="44.90574" lon="0.88864">
        <ele>139.8</ele>
        <time>1970-01-01T01:35:25.000Z</time>
      </trkpt>
      <trkpt lat="44.90577" lon="0.88863">
        <ele>139.9</ele>
        <time>1970-01-01T01:35:26.000Z</time>
      </trkpt>
      <trkpt lat="44.9058" lon="0.88862">
        <ele>139.9</ele>
        <time>1970-01-01T01:35:27.000Z</time>
      </trkpt>
      <trkpt lat="44.90583" lon="0.88861">
        <ele>139.9</ele>
        <time>1970-01-01T01:35:28.000Z</time>
      </trkpt>
      <trkpt lat="44.90587" lon="0.8886">
        <ele>140</ele>
        <time>1970-01-01T01:35:29.000Z</time>
      </trkpt>
      <trkpt lat="44.9059" lon="0.8886">
        <ele>140</ele>
        <time>1970-01-01T01:35:30.000Z</time>
      </trkpt>
      <trkpt lat="44.90593" lon="0.88859">
        <ele>140</ele>
        <time>1970-01-01T01:35:31.000Z</time>
      </trkpt>
      <trkpt lat="44.90597" lon="0.88858">
        <ele>140.1</ele>
        <time>1970-01-01T01:35:32.000Z</time>
      </trkpt>
      <trkpt lat="44.906" lon="0.88858">
        <ele>140.1</ele>
        <time>1970-01-01T01:35:33.000Z</time>
      </trkpt>
      <trkpt lat="44.90604" lon="0.88857">
        <ele>140.2</ele>
        <time>1970-01-01T01:35:34.000Z</time>
      </trkpt>
      <trkpt lat="44.90607" lon="0.88857">
        <ele>140.2</ele>
        <time>1970-01-01T01:35:35.000Z</time>
      </trkpt>
      <trkpt lat="44.9061" lon="0.88856">
        <ele>140.2</ele>
        <time>1970-01-01T01:35:36.000Z</time>
      </trkpt>
      <trkpt lat="44.90613" lon="0.88855">
        <ele>140.2</ele>
        <time>1970-01-01T01:35:37.000Z</time>
      </trkpt>
      <trkpt lat="44.90617" lon="0.88854">
        <ele>140.3</ele>
        <time>1970-01-01T01:35:38.000Z</time>
      </trkpt>
      <trkpt lat="44.9062" lon="0.88853">
        <ele>140.3</ele>
        <time>1970-01-01T01:35:39.000Z</time>
      </trkpt>
      <trkpt lat="44.90623" lon="0.88853">
        <ele>140.3</ele>
        <time>1970-01-01T01:35:40.000Z</time>
      </trkpt>
      <trkpt lat="44.90626" lon="0.88852">
        <ele>140.3</ele>
        <time>1970-01-01T01:35:41.000Z</time>
      </trkpt>
      <trkpt lat="44.90629" lon="0.88852">
        <ele>140.3</ele>
        <time>1970-01-01T01:35:42.000Z</time>
      </trkpt>
      <trkpt lat="44.90632" lon="0.88851">
        <ele>140.3</ele>
        <time>1970-01-01T01:35:43.000Z</time>
      </trkpt>
      <trkpt lat="44.90635" lon="0.8885">
        <ele>140.4</ele>
        <time>1970-01-01T01:35:44.000Z</time>
      </trkpt>
      <trkpt lat="44.90638" lon="0.88849">
        <ele>140.4</ele>
        <time>1970-01-01T01:35:45.000Z</time>
      </trkpt>
      <trkpt lat="44.90641" lon="0.88848">
        <ele>140.4</ele>
        <time>1970-01-01T01:35:46.000Z</time>
      </trkpt>
      <trkpt lat="44.90645" lon="0.88846">
        <ele>140.5</ele>
        <time>1970-01-01T01:35:47.000Z</time>
      </trkpt>
      <trkpt lat="44.90648" lon="0.88845">
        <ele>140.5</ele>
        <time>1970-01-01T01:35:48.000Z</time>
      </trkpt>
      <trkpt lat="44.90652" lon="0.88843">
        <ele>140.6</ele>
        <time>1970-01-01T01:35:49.000Z</time>
      </trkpt>
      <trkpt lat="44.90655" lon="0.88842">
        <ele>140.6</ele>
        <time>1970-01-01T01:35:50.000Z</time>
      </trkpt>
      <trkpt lat="44.90658" lon="0.88841">
        <ele>140.7</ele>
        <time>1970-01-01T01:35:51.000Z</time>
      </trkpt>
      <trkpt lat="44.90661" lon="0.88839">
        <ele>140.7</ele>
        <time>1970-01-01T01:35:52.000Z</time>
      </trkpt>
      <trkpt lat="44.90665" lon="0.88838">
        <ele>140.8</ele>
        <time>1970-01-01T01:35:53.000Z</time>
      </trkpt>
      <trkpt lat="44.90668" lon="0.88836">
        <ele>140.9</ele>
        <time>1970-01-01T01:35:54.000Z</time>
      </trkpt>
      <trkpt lat="44.90672" lon="0.88835">
        <ele>140.9</ele>
        <time>1970-01-01T01:35:55.000Z</time>
      </trkpt>
      <trkpt lat="44.90675" lon="0.88833">
        <ele>141</ele>
        <time>1970-01-01T01:35:56.000Z</time>
      </trkpt>
      <trkpt lat="44.90678" lon="0.88832">
        <ele>141</ele>
        <time>1970-01-01T01:35:57.000Z</time>
      </trkpt>
      <trkpt lat="44.90681" lon="0.88831">
        <ele>141.1</ele>
        <time>1970-01-01T01:35:58.000Z</time>
      </trkpt>
      <trkpt lat="44.90684" lon="0.8883">
        <ele>141.2</ele>
        <time>1970-01-01T01:35:59.000Z</time>
      </trkpt>
      <trkpt lat="44.90686" lon="0.88829">
        <ele>141.2</ele>
        <time>1970-01-01T01:36:00.000Z</time>
      </trkpt>
      <trkpt lat="44.90689" lon="0.88827">
        <ele>141.3</ele>
        <time>1970-01-01T01:36:01.000Z</time>
      </trkpt>
      <trkpt lat="44.90692" lon="0.88826">
        <ele>141.3</ele>
        <time>1970-01-01T01:36:02.000Z</time>
      </trkpt>
      <trkpt lat="44.90695" lon="0.88826">
        <ele>141.4</ele>
        <time>1970-01-01T01:36:03.000Z</time>
      </trkpt>
      <trkpt lat="44.90697" lon="0.88824">
        <ele>141.5</ele>
        <time>1970-01-01T01:36:04.000Z</time>
      </trkpt>
      <trkpt lat="44.90699" lon="0.88823">
        <ele>141.5</ele>
        <time>1970-01-01T01:36:05.000Z</time>
      </trkpt>
      <trkpt lat="44.90701" lon="0.88822">
        <ele>141.6</ele>
        <time>1970-01-01T01:36:06.000Z</time>
      </trkpt>
      <trkpt lat="44.90702" lon="0.88822">
        <ele>141.6</ele>
        <time>1970-01-01T01:36:07.000Z</time>
      </trkpt>
      <trkpt lat="44.90704" lon="0.88821">
        <ele>141.7</ele>
        <time>1970-01-01T01:36:08.000Z</time>
      </trkpt>
      <trkpt lat="44.90705" lon="0.88821">
        <ele>141.7</ele>
        <time>1970-01-01T01:36:09.000Z</time>
      </trkpt>
      <trkpt lat="44.90707" lon="0.8882">
        <ele>141.8</ele>
        <time>1970-01-01T01:36:10.000Z</time>
      </trkpt>
      <trkpt lat="44.90709" lon="0.88819">
        <ele>141.9</ele>
        <time>1970-01-01T01:36:11.000Z</time>
      </trkpt>
      <trkpt lat="44.9071" lon="0.88818">
        <ele>141.9</ele>
        <time>1970-01-01T01:36:12.000Z</time>
      </trkpt>
      <trkpt lat="44.90712" lon="0.88818">
        <ele>142</ele>
        <time>1970-01-01T01:36:13.000Z</time>
      </trkpt>
      <trkpt lat="44.90714" lon="0.88818">
        <ele>142</ele>
        <time>1970-01-01T01:36:14.000Z</time>
      </trkpt>
      <trkpt lat="44.90716" lon="0.88818">
        <ele>142.1</ele>
        <time>1970-01-01T01:36:15.000Z</time>
      </trkpt>
      <trkpt lat="44.90718" lon="0.88819">
        <ele>142.3</ele>
        <time>1970-01-01T01:36:16.000Z</time>
      </trkpt>
      <trkpt lat="44.9072" lon="0.88821">
        <ele>142.4</ele>
        <time>1970-01-01T01:36:17.000Z</time>
      </trkpt>
      <trkpt lat="44.90722" lon="0.88822">
        <ele>142.5</ele>
        <time>1970-01-01T01:36:18.000Z</time>
      </trkpt>
      <trkpt lat="44.90723" lon="0.88823">
        <ele>142.5</ele>
        <time>1970-01-01T01:36:19.000Z</time>
      </trkpt>
      <trkpt lat="44.90725" lon="0.88825">
        <ele>142.6</ele>
        <time>1970-01-01T01:36:20.000Z</time>
      </trkpt>
      <trkpt lat="44.90726" lon="0.88827">
        <ele>142.7</ele>
        <time>1970-01-01T01:36:21.000Z</time>
      </trkpt>
      <trkpt lat="44.90728" lon="0.88829">
        <ele>142.7</ele>
        <time>1970-01-01T01:36:22.000Z</time>
      </trkpt>
      <trkpt lat="44.90729" lon="0.88831">
        <ele>142.8</ele>
        <time>1970-01-01T01:36:23.000Z</time>
      </trkpt>
      <trkpt lat="44.90731" lon="0.88833">
        <ele>142.8</ele>
        <time>1970-01-01T01:36:24.000Z</time>
      </trkpt>
      <trkpt lat="44.90732" lon="0.88835">
        <ele>144.9</ele>
        <time>1970-01-01T01:36:25.000Z</time>
      </trkpt>
      <trkpt lat="44.90734" lon="0.88837">
        <ele>146.7</ele>
        <time>1970-01-01T01:36:26.000Z</time>
      </trkpt>
      <trkpt lat="44.90737" lon="0.88839">
        <ele>146.8</ele>
        <time>1970-01-01T01:36:27.000Z</time>
      </trkpt>
      <trkpt lat="44.90739" lon="0.88841">
        <ele>146.8</ele>
        <time>1970-01-01T01:36:28.000Z</time>
      </trkpt>
      <trkpt lat="44.90741" lon="0.88843">
        <ele>146.9</ele>
        <time>1970-01-01T01:36:29.000Z</time>
      </trkpt>
      <trkpt lat="44.90743" lon="0.88844">
        <ele>146.9</ele>
        <time>1970-01-01T01:36:30.000Z</time>
      </trkpt>
      <trkpt lat="44.90745" lon="0.88846">
        <ele>149.5</ele>
        <time>1970-01-01T01:36:31.000Z</time>
      </trkpt>
      <trkpt lat="44.90746" lon="0.88848">
        <ele>149.6</ele>
        <time>1970-01-01T01:36:32.000Z</time>
      </trkpt>
      <trkpt lat="44.90747" lon="0.8885">
        <ele>149.6</ele>
        <time>1970-01-01T01:36:33.000Z</time>
      </trkpt>
      <trkpt lat="44.90749" lon="0.88852">
        <ele>149.7</ele>
        <time>1970-01-01T01:36:34.000Z</time>
      </trkpt>
      <trkpt lat="44.9075" lon="0.88853">
        <ele>151.6</ele>
        <time>1970-01-01T01:36:35.000Z</time>
      </trkpt>
      <trkpt lat="44.90751" lon="0.88855">
        <ele>151.7</ele>
        <time>1970-01-01T01:36:36.000Z</time>
      </trkpt>
      <trkpt lat="44.90752" lon="0.88857">
        <ele>151.7</ele>
        <time>1970-01-01T01:36:37.000Z</time>
      </trkpt>
      <trkpt lat="44.90754" lon="0.88859">
        <ele>151.8</ele>
        <time>1970-01-01T01:36:38.000Z</time>
      </trkpt>
      <trkpt lat="44.90755" lon="0.88861">
        <ele>151.9</ele>
        <time>1970-01-01T01:36:39.000Z</time>
      </trkpt>
      <trkpt lat="44.90756" lon="0.88864">
        <ele>151.9</ele>
        <time>1970-01-01T01:36:40.000Z</time>
      </trkpt>
      <trkpt lat="44.90757" lon="0.88866">
        <ele>154.5</ele>
        <time>1970-01-01T01:36:41.000Z</time>
      </trkpt>
      <trkpt lat="44.90759" lon="0.88868">
        <ele>154.5</ele>
        <time>1970-01-01T01:36:42.000Z</time>
      </trkpt>
      <trkpt lat="44.9076" lon="0.88871">
        <ele>156.2</ele>
        <time>1970-01-01T01:36:43.000Z</time>
      </trkpt>
      <trkpt lat="44.90762" lon="0.88873">
        <ele>156.3</ele>
        <time>1970-01-01T01:36:44.000Z</time>
      </trkpt>
      <trkpt lat="44.90763" lon="0.88875">
        <ele>156.3</ele>
        <time>1970-01-01T01:36:45.000Z</time>
      </trkpt>
      <trkpt lat="44.90764" lon="0.88877">
        <ele>156.4</ele>
        <time>1970-01-01T01:36:46.000Z</time>
      </trkpt>
      <trkpt lat="44.90765" lon="0.88879">
        <ele>156.4</ele>
        <time>1970-01-01T01:36:47.000Z</time>
      </trkpt>
      <trkpt lat="44.90766" lon="0.88881">
        <ele>156.5</ele>
        <time>1970-01-01T01:36:48.000Z</time>
      </trkpt>
      <trkpt lat="44.90767" lon="0.88883">
        <ele>156.6</ele>
        <time>1970-01-01T01:36:49.000Z</time>
      </trkpt>
      <trkpt lat="44.90767" lon="0.88885">
        <ele>156.6</ele>
        <time>1970-01-01T01:36:50.000Z</time>
      </trkpt>
      <trkpt lat="44.90768" lon="0.88887">
        <ele>158.1</ele>
        <time>1970-01-01T01:36:51.000Z</time>
      </trkpt>
      <trkpt lat="44.90769" lon="0.88889">
        <ele>160.1</ele>
        <time>1970-01-01T01:36:52.000Z</time>
      </trkpt>
      <trkpt lat="44.90769" lon="0.88891">
        <ele>160.1</ele>
        <time>1970-01-01T01:36:53.000Z</time>
      </trkpt>
      <trkpt lat="44.9077" lon="0.88894">
        <ele>160.2</ele>
        <time>1970-01-01T01:36:54.000Z</time>
      </trkpt>
      <trkpt lat="44.90771" lon="0.88897">
        <ele>160.2</ele>
        <time>1970-01-01T01:36:55.000Z</time>
      </trkpt>
      <trkpt lat="44.90771" lon="0.889">
        <ele>160.3</ele>
        <time>1970-01-01T01:36:56.000Z</time>
      </trkpt>
      <trkpt lat="44.90771" lon="0.88904">
        <ele>161.2</ele>
        <time>1970-01-01T01:36:57.000Z</time>
      </trkpt>
      <trkpt lat="44.90771" lon="0.88908">
        <ele>161.3</ele>
        <time>1970-01-01T01:36:58.000Z</time>
      </trkpt>
      <trkpt lat="44.90771" lon="0.88911">
        <ele>161.3</ele>
        <time>1970-01-01T01:36:59.000Z</time>
      </trkpt>
      <trkpt lat="44.90772" lon="0.88914">
        <ele>161.4</ele>
        <time>1970-01-01T01:37:00.000Z</time>
      </trkpt>
      <trkpt lat="44.90772" lon="0.88917">
        <ele>161.4</ele>
        <time>1970-01-01T01:37:01.000Z</time>
      </trkpt>
      <trkpt lat="44.90772" lon="0.8892">
        <ele>161.5</ele>
        <time>1970-01-01T01:37:02.000Z</time>
      </trkpt>
      <trkpt lat="44.90773" lon="0.88923">
        <ele>162.4</ele>
        <time>1970-01-01T01:37:03.000Z</time>
      </trkpt>
      <trkpt lat="44.90774" lon="0.88925">
        <ele>162.5</ele>
        <time>1970-01-01T01:37:04.000Z</time>
      </trkpt>
      <trkpt lat="44.90774" lon="0.88928">
        <ele>162.6</ele>
        <time>1970-01-01T01:37:05.000Z</time>
      </trkpt>
      <trkpt lat="44.90775" lon="0.8893">
        <ele>162.6</ele>
        <time>1970-01-01T01:37:06.000Z</time>
      </trkpt>
      <trkpt lat="44.90776" lon="0.88933">
        <ele>162.7</ele>
        <time>1970-01-01T01:37:07.000Z</time>
      </trkpt>
      <trkpt lat="44.90777" lon="0.88936">
        <ele>162.7</ele>
        <time>1970-01-01T01:37:08.000Z</time>
      </trkpt>
      <trkpt lat="44.90778" lon="0.88939">
        <ele>163.8</ele>
        <time>1970-01-01T01:37:09.000Z</time>
      </trkpt>
      <trkpt lat="44.90778" lon="0.88942">
        <ele>163.9</ele>
        <time>1970-01-01T01:37:10.000Z</time>
      </trkpt>
      <trkpt lat="44.90779" lon="0.88945">
        <ele>163.9</ele>
        <time>1970-01-01T01:37:11.000Z</time>
      </trkpt>
      <trkpt lat="44.90779" lon="0.88948">
        <ele>164</ele>
        <time>1970-01-01T01:37:12.000Z</time>
      </trkpt>
      <trkpt lat="44.9078" lon="0.88951">
        <ele>164</ele>
        <time>1970-01-01T01:37:13.000Z</time>
      </trkpt>
      <trkpt lat="44.90781" lon="0.88954">
        <ele>164.1</ele>
        <time>1970-01-01T01:37:14.000Z</time>
      </trkpt>
      <trkpt lat="44.90781" lon="0.88956">
        <ele>166.4</ele>
        <time>1970-01-01T01:37:15.000Z</time>
      </trkpt>
      <trkpt lat="44.90782" lon="0.88958">
        <ele>166.5</ele>
        <time>1970-01-01T01:37:16.000Z</time>
      </trkpt>
      <trkpt lat="44.90783" lon="0.88961">
        <ele>166.6</ele>
        <time>1970-01-01T01:37:17.000Z</time>
      </trkpt>
      <trkpt lat="44.90785" lon="0.88963">
        <ele>166.6</ele>
        <time>1970-01-01T01:37:18.000Z</time>
      </trkpt>
      <trkpt lat="44.90786" lon="0.88966">
        <ele>166.7</ele>
        <time>1970-01-01T01:37:19.000Z</time>
      </trkpt>
      <trkpt lat="44.90788" lon="0.88968">
        <ele>166.7</ele>
        <time>1970-01-01T01:37:20.000Z</time>
      </trkpt>
      <trkpt lat="44.90789" lon="0.8897">
        <ele>166.8</ele>
        <time>1970-01-01T01:37:21.000Z</time>
      </trkpt>
      <trkpt lat="44.90791" lon="0.88973">
        <ele>167.4</ele>
        <time>1970-01-01T01:37:22.000Z</time>
      </trkpt>
      <trkpt lat="44.90794" lon="0.88975">
        <ele>168.3</ele>
        <time>1970-01-01T01:37:23.000Z</time>
      </trkpt>
      <trkpt lat="44.90797" lon="0.88977">
        <ele>168.3</ele>
        <time>1970-01-01T01:37:24.000Z</time>
      </trkpt>
      <trkpt lat="44.90799" lon="0.8898">
        <ele>168.4</ele>
        <time>1970-01-01T01:37:25.000Z</time>
      </trkpt>
      <trkpt lat="44.90801" lon="0.88982">
        <ele>168.4</ele>
        <time>1970-01-01T01:37:26.000Z</time>
      </trkpt>
      <trkpt lat="44.90803" lon="0.88984">
        <ele>168.5</ele>
        <time>1970-01-01T01:37:27.000Z</time>
      </trkpt>
      <trkpt lat="44.90804" lon="0.88986">
        <ele>168.6</ele>
        <time>1970-01-01T01:37:28.000Z</time>
      </trkpt>
      <trkpt lat="44.90805" lon="0.88989">
        <ele>169.8</ele>
        <time>1970-01-01T01:37:29.000Z</time>
      </trkpt>
      <trkpt lat="44.90806" lon="0.88992">
        <ele>169.6</ele>
        <time>1970-01-01T01:37:30.000Z</time>
      </trkpt>
      <trkpt lat="44.90807" lon="0.88995">
        <ele>169.7</ele>
        <time>1970-01-01T01:37:31.000Z</time>
      </trkpt>
      <trkpt lat="44.90808" lon="0.88997">
        <ele>169.8</ele>
        <time>1970-01-01T01:37:32.000Z</time>
      </trkpt>
      <trkpt lat="44.90809" lon="0.88999">
        <ele>169.8</ele>
        <time>1970-01-01T01:37:33.000Z</time>
      </trkpt>
      <trkpt lat="44.90809" lon="0.89002">
        <ele>169.9</ele>
        <time>1970-01-01T01:37:34.000Z</time>
      </trkpt>
      <trkpt lat="44.90809" lon="0.89005">
        <ele>169.9</ele>
        <time>1970-01-01T01:37:35.000Z</time>
      </trkpt>
      <trkpt lat="44.90809" lon="0.89008">
        <ele>169.7</ele>
        <time>1970-01-01T01:37:36.000Z</time>
      </trkpt>
      <trkpt lat="44.90808" lon="0.89011">
        <ele>169.7</ele>
        <time>1970-01-01T01:37:37.000Z</time>
      </trkpt>
      <trkpt lat="44.90808" lon="0.89014">
        <ele>169.8</ele>
        <time>1970-01-01T01:37:38.000Z</time>
      </trkpt>
      <trkpt lat="44.90807" lon="0.89018">
        <ele>169.9</ele>
        <time>1970-01-01T01:37:39.000Z</time>
      </trkpt>
      <trkpt lat="44.90807" lon="0.89021">
        <ele>169.9</ele>
        <time>1970-01-01T01:37:40.000Z</time>
      </trkpt>
      <trkpt lat="44.90807" lon="0.89024">
        <ele>170.2</ele>
        <time>1970-01-01T01:37:41.000Z</time>
      </trkpt>
      <trkpt lat="44.90806" lon="0.89027">
        <ele>170.3</ele>
        <time>1970-01-01T01:37:42.000Z</time>
      </trkpt>
      <trkpt lat="44.90806" lon="0.8903">
        <ele>170.3</ele>
        <time>1970-01-01T01:37:43.000Z</time>
      </trkpt>
      <trkpt lat="44.90805" lon="0.89033">
        <ele>170</ele>
        <time>1970-01-01T01:37:44.000Z</time>
      </trkpt>
      <trkpt lat="44.90804" lon="0.89036">
        <ele>170</ele>
        <time>1970-01-01T01:37:45.000Z</time>
      </trkpt>
      <trkpt lat="44.90804" lon="0.89039">
        <ele>170.1</ele>
        <time>1970-01-01T01:37:46.000Z</time>
      </trkpt>
      <trkpt lat="44.90804" lon="0.89042">
        <ele>170.9</ele>
        <time>1970-01-01T01:37:47.000Z</time>
      </trkpt>
      <trkpt lat="44.90803" lon="0.89046">
        <ele>170.9</ele>
        <time>1970-01-01T01:37:48.000Z</time>
      </trkpt>
      <trkpt lat="44.90803" lon="0.89049">
        <ele>171</ele>
        <time>1970-01-01T01:37:49.000Z</time>
      </trkpt>
      <trkpt lat="44.90802" lon="0.89052">
        <ele>171</ele>
        <time>1970-01-01T01:37:50.000Z</time>
      </trkpt>
      <trkpt lat="44.90802" lon="0.89055">
        <ele>171.1</ele>
        <time>1970-01-01T01:37:51.000Z</time>
      </trkpt>
      <trkpt lat="44.90802" lon="0.89059">
        <ele>172.1</ele>
        <time>1970-01-01T01:37:52.000Z</time>
      </trkpt>
      <trkpt lat="44.90802" lon="0.89062">
        <ele>172.2</ele>
        <time>1970-01-01T01:37:53.000Z</time>
      </trkpt>
      <trkpt lat="44.90801" lon="0.89066">
        <ele>172.2</ele>
        <time>1970-01-01T01:37:54.000Z</time>
      </trkpt>
      <trkpt lat="44.90801" lon="0.89069">
        <ele>172.3</ele>
        <time>1970-01-01T01:37:55.000Z</time>
      </trkpt>
      <trkpt lat="44.908" lon="0.89072">
        <ele>172.3</ele>
        <time>1970-01-01T01:37:56.000Z</time>
      </trkpt>
      <trkpt lat="44.908" lon="0.89075">
        <ele>173.4</ele>
        <time>1970-01-01T01:37:57.000Z</time>
      </trkpt>
      <trkpt lat="44.90799" lon="0.89078">
        <ele>173.5</ele>
        <time>1970-01-01T01:37:58.000Z</time>
      </trkpt>
      <trkpt lat="44.90799" lon="0.89082">
        <ele>173.5</ele>
        <time>1970-01-01T01:37:59.000Z</time>
      </trkpt>
      <trkpt lat="44.90799" lon="0.89084">
        <ele>173.6</ele>
        <time>1970-01-01T01:38:00.000Z</time>
      </trkpt>
      <trkpt lat="44.90799" lon="0.89087">
        <ele>173.7</ele>
        <time>1970-01-01T01:38:01.000Z</time>
      </trkpt>
      <trkpt lat="44.90798" lon="0.89089">
        <ele>173.7</ele>
        <time>1970-01-01T01:38:02.000Z</time>
      </trkpt>
      <trkpt lat="44.90798" lon="0.89091">
        <ele>173.8</ele>
        <time>1970-01-01T01:38:03.000Z</time>
      </trkpt>
      <trkpt lat="44.90798" lon="0.89093">
        <ele>174.8</ele>
        <time>1970-01-01T01:38:04.000Z</time>
      </trkpt>
      <trkpt lat="44.90797" lon="0.89095">
        <ele>174.9</ele>
        <time>1970-01-01T01:38:05.000Z</time>
      </trkpt>
      <trkpt lat="44.90797" lon="0.89097">
        <ele>175</ele>
        <time>1970-01-01T01:38:06.000Z</time>
      </trkpt>
      <trkpt lat="44.90796" lon="0.89099">
        <ele>175</ele>
        <time>1970-01-01T01:38:07.000Z</time>
      </trkpt>
      <trkpt lat="44.90796" lon="0.89101">
        <ele>175.1</ele>
        <time>1970-01-01T01:38:08.000Z</time>
      </trkpt>
      <trkpt lat="44.90795" lon="0.89103">
        <ele>175.1</ele>
        <time>1970-01-01T01:38:09.000Z</time>
      </trkpt>
      <trkpt lat="44.90795" lon="0.89105">
        <ele>175.2</ele>
        <time>1970-01-01T01:38:10.000Z</time>
      </trkpt>
      <trkpt lat="44.90794" lon="0.89107">
        <ele>175.3</ele>
        <time>1970-01-01T01:38:11.000Z</time>
      </trkpt>
      <trkpt lat="44.90793" lon="0.89109">
        <ele>174.9</ele>
        <time>1970-01-01T01:38:12.000Z</time>
      </trkpt>
      <trkpt lat="44.90792" lon="0.89111">
        <ele>175.8</ele>
        <time>1970-01-01T01:38:13.000Z</time>
      </trkpt>
      <trkpt lat="44.90791" lon="0.89113">
        <ele>175.8</ele>
        <time>1970-01-01T01:38:14.000Z</time>
      </trkpt>
      <trkpt lat="44.9079" lon="0.89114">
        <ele>175.9</ele>
        <time>1970-01-01T01:38:15.000Z</time>
      </trkpt>
      <trkpt lat="44.9079" lon="0.89116">
        <ele>175.9</ele>
        <time>1970-01-01T01:38:16.000Z</time>
      </trkpt>
      <trkpt lat="44.90789" lon="0.89118">
        <ele>176</ele>
        <time>1970-01-01T01:38:17.000Z</time>
      </trkpt>
      <trkpt lat="44.90789" lon="0.8912">
        <ele>176.1</ele>
        <time>1970-01-01T01:38:18.000Z</time>
      </trkpt>
      <trkpt lat="44.90788" lon="0.89122">
        <ele>176.1</ele>
        <time>1970-01-01T01:38:19.000Z</time>
      </trkpt>
      <trkpt lat="44.90787" lon="0.89124">
        <ele>176.2</ele>
        <time>1970-01-01T01:38:20.000Z</time>
      </trkpt>
      <trkpt lat="44.90787" lon="0.89126">
        <ele>176.2</ele>
        <time>1970-01-01T01:38:21.000Z</time>
      </trkpt>
      <trkpt lat="44.90786" lon="0.89128">
        <ele>176.9</ele>
        <time>1970-01-01T01:38:22.000Z</time>
      </trkpt>
      <trkpt lat="44.90785" lon="0.89131">
        <ele>177</ele>
        <time>1970-01-01T01:38:23.000Z</time>
      </trkpt>
      <trkpt lat="44.90784" lon="0.89133">
        <ele>177</ele>
        <time>1970-01-01T01:38:24.000Z</time>
      </trkpt>
      <trkpt lat="44.90784" lon="0.89136">
        <ele>177.1</ele>
        <time>1970-01-01T01:38:25.000Z</time>
      </trkpt>
      <trkpt lat="44.90783" lon="0.89139">
        <ele>177.2</ele>
        <time>1970-01-01T01:38:26.000Z</time>
      </trkpt>
      <trkpt lat="44.90783" lon="0.89142">
        <ele>177.2</ele>
        <time>1970-01-01T01:38:27.000Z</time>
      </trkpt>
      <trkpt lat="44.90782" lon="0.89144">
        <ele>177.9</ele>
        <time>1970-01-01T01:38:28.000Z</time>
      </trkpt>
      <trkpt lat="44.90782" lon="0.89147">
        <ele>177.9</ele>
        <time>1970-01-01T01:38:29.000Z</time>
      </trkpt>
      <trkpt lat="44.90781" lon="0.8915">
        <ele>178</ele>
        <time>1970-01-01T01:38:30.000Z</time>
      </trkpt>
      <trkpt lat="44.90781" lon="0.89153">
        <ele>178</ele>
        <time>1970-01-01T01:38:31.000Z</time>
      </trkpt>
      <trkpt lat="44.9078" lon="0.89157">
        <ele>177.5</ele>
        <time>1970-01-01T01:38:32.000Z</time>
      </trkpt>
      <trkpt lat="44.9078" lon="0.89159">
        <ele>177.5</ele>
        <time>1970-01-01T01:38:33.000Z</time>
      </trkpt>
      <trkpt lat="44.90779" lon="0.89162">
        <ele>178</ele>
        <time>1970-01-01T01:38:34.000Z</time>
      </trkpt>
      <trkpt lat="44.90779" lon="0.89165">
        <ele>178</ele>
        <time>1970-01-01T01:38:35.000Z</time>
      </trkpt>
      <trkpt lat="44.90779" lon="0.89168">
        <ele>178.1</ele>
        <time>1970-01-01T01:38:36.000Z</time>
      </trkpt>
      <trkpt lat="44.90778" lon="0.89171">
        <ele>178.1</ele>
        <time>1970-01-01T01:38:37.000Z</time>
      </trkpt>
      <trkpt lat="44.90778" lon="0.89174">
        <ele>178.2</ele>
        <time>1970-01-01T01:38:38.000Z</time>
      </trkpt>
      <trkpt lat="44.90777" lon="0.89177">
        <ele>178.3</ele>
        <time>1970-01-01T01:38:39.000Z</time>
      </trkpt>
      <trkpt lat="44.90777" lon="0.89179">
        <ele>178.8</ele>
        <time>1970-01-01T01:38:40.000Z</time>
      </trkpt>
      <trkpt lat="44.90777" lon="0.89182">
        <ele>178.9</ele>
        <time>1970-01-01T01:38:41.000Z</time>
      </trkpt>
      <trkpt lat="44.90776" lon="0.89185">
        <ele>178.9</ele>
        <time>1970-01-01T01:38:42.000Z</time>
      </trkpt>
      <trkpt lat="44.90776" lon="0.89188">
        <ele>179</ele>
        <time>1970-01-01T01:38:43.000Z</time>
      </trkpt>
      <trkpt lat="44.90776" lon="0.89191">
        <ele>179.1</ele>
        <time>1970-01-01T01:38:44.000Z</time>
      </trkpt>
      <trkpt lat="44.90776" lon="0.89194">
        <ele>179.1</ele>
        <time>1970-01-01T01:38:45.000Z</time>
      </trkpt>
      <trkpt lat="44.90775" lon="0.89196">
        <ele>179.8</ele>
        <time>1970-01-01T01:38:46.000Z</time>
      </trkpt>
      <trkpt lat="44.90775" lon="0.89199">
        <ele>179.9</ele>
        <time>1970-01-01T01:38:47.000Z</time>
      </trkpt>
      <trkpt lat="44.90775" lon="0.89202">
        <ele>179.9</ele>
        <time>1970-01-01T01:38:48.000Z</time>
      </trkpt>
      <trkpt lat="44.90774" lon="0.89205">
        <ele>180</ele>
        <time>1970-01-01T01:38:49.000Z</time>
      </trkpt>
      <trkpt lat="44.90774" lon="0.89208">
        <ele>180.1</ele>
        <time>1970-01-01T01:38:50.000Z</time>
      </trkpt>
      <trkpt lat="44.90774" lon="0.89211">
        <ele>180.1</ele>
        <time>1970-01-01T01:38:51.000Z</time>
      </trkpt>
      <trkpt lat="44.90774" lon="0.89215">
        <ele>180.6</ele>
        <time>1970-01-01T01:38:52.000Z</time>
      </trkpt>
      <trkpt lat="44.90773" lon="0.89218">
        <ele>180.7</ele>
        <time>1970-01-01T01:38:53.000Z</time>
      </trkpt>
      <trkpt lat="44.90773" lon="0.89221">
        <ele>180.7</ele>
        <time>1970-01-01T01:38:54.000Z</time>
      </trkpt>
      <trkpt lat="44.90773" lon="0.89225">
        <ele>180.8</ele>
        <time>1970-01-01T01:38:55.000Z</time>
      </trkpt>
      <trkpt lat="44.90772" lon="0.89228">
        <ele>180.8</ele>
        <time>1970-01-01T01:38:56.000Z</time>
      </trkpt>
      <trkpt lat="44.90772" lon="0.89232">
        <ele>181.1</ele>
        <time>1970-01-01T01:38:57.000Z</time>
      </trkpt>
      <trkpt lat="44.90772" lon="0.89235">
        <ele>181.1</ele>
        <time>1970-01-01T01:38:58.000Z</time>
      </trkpt>
      <trkpt lat="44.90772" lon="0.89238">
        <ele>181.2</ele>
        <time>1970-01-01T01:38:59.000Z</time>
      </trkpt>
      <trkpt lat="44.90772" lon="0.89242">
        <ele>181.2</ele>
        <time>1970-01-01T01:39:00.000Z</time>
      </trkpt>
      <trkpt lat="44.90772" lon="0.89245">
        <ele>181.3</ele>
        <time>1970-01-01T01:39:01.000Z</time>
      </trkpt>
      <trkpt lat="44.90773" lon="0.89248">
        <ele>181.3</ele>
        <time>1970-01-01T01:39:02.000Z</time>
      </trkpt>
      <trkpt lat="44.90773" lon="0.89251">
        <ele>181.4</ele>
        <time>1970-01-01T01:39:03.000Z</time>
      </trkpt>
      <trkpt lat="44.90774" lon="0.89254">
        <ele>181.5</ele>
        <time>1970-01-01T01:39:04.000Z</time>
      </trkpt>
      <trkpt lat="44.90775" lon="0.89257">
        <ele>181.6</ele>
        <time>1970-01-01T01:39:05.000Z</time>
      </trkpt>
      <trkpt lat="44.90777" lon="0.89259">
        <ele>181.7</ele>
        <time>1970-01-01T01:39:06.000Z</time>
      </trkpt>
      <trkpt lat="44.90778" lon="0.89261">
        <ele>181.8</ele>
        <time>1970-01-01T01:39:07.000Z</time>
      </trkpt>
      <trkpt lat="44.9078" lon="0.89262">
        <ele>181.9</ele>
        <time>1970-01-01T01:39:08.000Z</time>
      </trkpt>
      <trkpt lat="44.90782" lon="0.89262">
        <ele>181.9</ele>
        <time>1970-01-01T01:39:09.000Z</time>
      </trkpt>
      <trkpt lat="44.90784" lon="0.89261">
        <ele>182</ele>
        <time>1970-01-01T01:39:10.000Z</time>
      </trkpt>
      <trkpt lat="44.90787" lon="0.89261">
        <ele>182.2</ele>
        <time>1970-01-01T01:39:11.000Z</time>
      </trkpt>
      <trkpt lat="44.90789" lon="0.8926">
        <ele>182.4</ele>
        <time>1970-01-01T01:39:12.000Z</time>
      </trkpt>
      <trkpt lat="44.90791" lon="0.8926">
        <ele>182.6</ele>
        <time>1970-01-01T01:39:13.000Z</time>
      </trkpt>
      <trkpt lat="44.90794" lon="0.8926">
        <ele>182.7</ele>
        <time>1970-01-01T01:39:14.000Z</time>
      </trkpt>
      <trkpt lat="44.90796" lon="0.8926">
        <ele>182.9</ele>
        <time>1970-01-01T01:39:15.000Z</time>
      </trkpt>
      <trkpt lat="44.90799" lon="0.8926">
        <ele>183.1</ele>
        <time>1970-01-01T01:39:16.000Z</time>
      </trkpt>
      <trkpt lat="44.90802" lon="0.8926">
        <ele>183.2</ele>
        <time>1970-01-01T01:39:17.000Z</time>
      </trkpt>
      <trkpt lat="44.90805" lon="0.89259">
        <ele>183.4</ele>
        <time>1970-01-01T01:39:18.000Z</time>
      </trkpt>
      <trkpt lat="44.90808" lon="0.89259">
        <ele>183.5</ele>
        <time>1970-01-01T01:39:19.000Z</time>
      </trkpt>
      <trkpt lat="44.9081" lon="0.89259">
        <ele>183.7</ele>
        <time>1970-01-01T01:39:20.000Z</time>
      </trkpt>
      <trkpt lat="44.90813" lon="0.89259">
        <ele>183.8</ele>
        <time>1970-01-01T01:39:21.000Z</time>
      </trkpt>
      <trkpt lat="44.90815" lon="0.89259">
        <ele>184</ele>
        <time>1970-01-01T01:39:22.000Z</time>
      </trkpt>
      <trkpt lat="44.90818" lon="0.8926">
        <ele>184.1</ele>
        <time>1970-01-01T01:39:23.000Z</time>
      </trkpt>
      <trkpt lat="44.90821" lon="0.89259">
        <ele>184.2</ele>
        <time>1970-01-01T01:39:24.000Z</time>
      </trkpt>
      <trkpt lat="44.90823" lon="0.89259">
        <ele>184.4</ele>
        <time>1970-01-01T01:39:25.000Z</time>
      </trkpt>
      <trkpt lat="44.90826" lon="0.89259">
        <ele>184.5</ele>
        <time>1970-01-01T01:39:26.000Z</time>
      </trkpt>
      <trkpt lat="44.90828" lon="0.89259">
        <ele>184.7</ele>
        <time>1970-01-01T01:39:27.000Z</time>
      </trkpt>
      <trkpt lat="44.90831" lon="0.89259">
        <ele>184.8</ele>
        <time>1970-01-01T01:39:28.000Z</time>
      </trkpt>
      <trkpt lat="44.90834" lon="0.89259">
        <ele>185</ele>
        <time>1970-01-01T01:39:29.000Z</time>
      </trkpt>
      <trkpt lat="44.90836" lon="0.89259">
        <ele>185.1</ele>
        <time>1970-01-01T01:39:30.000Z</time>
      </trkpt>
      <trkpt lat="44.90839" lon="0.89259">
        <ele>185.3</ele>
        <time>1970-01-01T01:39:31.000Z</time>
      </trkpt>
      <trkpt lat="44.90842" lon="0.89258">
        <ele>185.4</ele>
        <time>1970-01-01T01:39:32.000Z</time>
      </trkpt>
      <trkpt lat="44.90845" lon="0.89258">
        <ele>185.5</ele>
        <time>1970-01-01T01:39:33.000Z</time>
      </trkpt>
      <trkpt lat="44.90848" lon="0.89258">
        <ele>185.6</ele>
        <time>1970-01-01T01:39:34.000Z</time>
      </trkpt>
      <trkpt lat="44.9085" lon="0.89258">
        <ele>185.7</ele>
        <time>1970-01-01T01:39:35.000Z</time>
      </trkpt>
      <trkpt lat="44.90853" lon="0.89257">
        <ele>185.8</ele>
        <time>1970-01-01T01:39:36.000Z</time>
      </trkpt>
      <trkpt lat="44.90856" lon="0.89257">
        <ele>185.9</ele>
        <time>1970-01-01T01:39:37.000Z</time>
      </trkpt>
      <trkpt lat="44.90859" lon="0.89256">
        <ele>186</ele>
        <time>1970-01-01T01:39:38.000Z</time>
      </trkpt>
      <trkpt lat="44.90862" lon="0.89256">
        <ele>186.2</ele>
        <time>1970-01-01T01:39:39.000Z</time>
      </trkpt>
      <trkpt lat="44.90865" lon="0.89255">
        <ele>186.2</ele>
        <time>1970-01-01T01:39:40.000Z</time>
      </trkpt>
      <trkpt lat="44.90867" lon="0.89255">
        <ele>186.3</ele>
        <time>1970-01-01T01:39:41.000Z</time>
      </trkpt>
      <trkpt lat="44.9087" lon="0.89255">
        <ele>186.4</ele>
        <time>1970-01-01T01:39:42.000Z</time>
      </trkpt>
      <trkpt lat="44.90873" lon="0.89254">
        <ele>186.5</ele>
        <time>1970-01-01T01:39:43.000Z</time>
      </trkpt>
      <trkpt lat="44.90877" lon="0.89254">
        <ele>186.6</ele>
        <time>1970-01-01T01:39:44.000Z</time>
      </trkpt>
      <trkpt lat="44.9088" lon="0.89253">
        <ele>186.7</ele>
        <time>1970-01-01T01:39:45.000Z</time>
      </trkpt>
      <trkpt lat="44.90883" lon="0.89253">
        <ele>186.8</ele>
        <time>1970-01-01T01:39:46.000Z</time>
      </trkpt>
      <trkpt lat="44.90886" lon="0.89252">
        <ele>186.9</ele>
        <time>1970-01-01T01:39:47.000Z</time>
      </trkpt>
      <trkpt lat="44.90889" lon="0.89252">
        <ele>187</ele>
        <time>1970-01-01T01:39:48.000Z</time>
      </trkpt>
      <trkpt lat="44.90892" lon="0.89251">
        <ele>187.1</ele>
        <time>1970-01-01T01:39:49.000Z</time>
      </trkpt>
      <trkpt lat="44.90895" lon="0.89251">
        <ele>187.2</ele>
        <time>1970-01-01T01:39:50.000Z</time>
      </trkpt>
      <trkpt lat="44.90897" lon="0.8925">
        <ele>187.3</ele>
        <time>1970-01-01T01:39:51.000Z</time>
      </trkpt>
      <trkpt lat="44.909" lon="0.89249">
        <ele>187.3</ele>
        <time>1970-01-01T01:39:52.000Z</time>
      </trkpt>
      <trkpt lat="44.90903" lon="0.89248">
        <ele>187.4</ele>
        <time>1970-01-01T01:39:53.000Z</time>
      </trkpt>
      <trkpt lat="44.90906" lon="0.89247">
        <ele>187.5</ele>
        <time>1970-01-01T01:39:54.000Z</time>
      </trkpt>
      <trkpt lat="44.90908" lon="0.89246">
        <ele>187.6</ele>
        <time>1970-01-01T01:39:55.000Z</time>
      </trkpt>
      <trkpt lat="44.9091" lon="0.89245">
        <ele>187.6</ele>
        <time>1970-01-01T01:39:56.000Z</time>
      </trkpt>
      <trkpt lat="44.90913" lon="0.89243">
        <ele>187.7</ele>
        <time>1970-01-01T01:39:57.000Z</time>
      </trkpt>
      <trkpt lat="44.90915" lon="0.89242">
        <ele>187.8</ele>
        <time>1970-01-01T01:39:58.000Z</time>
      </trkpt>
      <trkpt lat="44.90917" lon="0.8924">
        <ele>187.9</ele>
        <time>1970-01-01T01:39:59.000Z</time>
      </trkpt>
      <trkpt lat="44.9092" lon="0.89238">
        <ele>188</ele>
        <time>1970-01-01T01:40:00.000Z</time>
      </trkpt>
      <trkpt lat="44.90923" lon="0.89236">
        <ele>188.1</ele>
        <time>1970-01-01T01:40:01.000Z</time>
      </trkpt>
      <trkpt lat="44.90926" lon="0.89235">
        <ele>188.3</ele>
        <time>1970-01-01T01:40:02.000Z</time>
      </trkpt>
      <trkpt lat="44.90929" lon="0.89233">
        <ele>188.4</ele>
        <time>1970-01-01T01:40:03.000Z</time>
      </trkpt>
      <trkpt lat="44.90931" lon="0.8923">
        <ele>188.5</ele>
        <time>1970-01-01T01:40:04.000Z</time>
      </trkpt>
      <trkpt lat="44.90933" lon="0.89227">
        <ele>188.5</ele>
        <time>1970-01-01T01:40:05.000Z</time>
      </trkpt>
      <trkpt lat="44.90935" lon="0.89224">
        <ele>188.6</ele>
        <time>1970-01-01T01:40:06.000Z</time>
      </trkpt>
      <trkpt lat="44.90938" lon="0.89221">
        <ele>188.7</ele>
        <time>1970-01-01T01:40:07.000Z</time>
      </trkpt>
      <trkpt lat="44.9094" lon="0.89218">
        <ele>188.8</ele>
        <time>1970-01-01T01:40:08.000Z</time>
      </trkpt>
      <trkpt lat="44.90942" lon="0.89214">
        <ele>188.9</ele>
        <time>1970-01-01T01:40:09.000Z</time>
      </trkpt>
      <trkpt lat="44.90944" lon="0.8921">
        <ele>189</ele>
        <time>1970-01-01T01:40:10.000Z</time>
      </trkpt>
      <trkpt lat="44.90947" lon="0.89206">
        <ele>189.1</ele>
        <time>1970-01-01T01:40:11.000Z</time>
      </trkpt>
      <trkpt lat="44.9095" lon="0.89203">
        <ele>189.2</ele>
        <time>1970-01-01T01:40:12.000Z</time>
      </trkpt>
      <trkpt lat="44.90952" lon="0.89199">
        <ele>189.3</ele>
        <time>1970-01-01T01:40:13.000Z</time>
      </trkpt>
      <trkpt lat="44.90955" lon="0.89196">
        <ele>189.4</ele>
        <time>1970-01-01T01:40:14.000Z</time>
      </trkpt>
      <trkpt lat="44.90957" lon="0.89192">
        <ele>189.5</ele>
        <time>1970-01-01T01:40:15.000Z</time>
      </trkpt>
      <trkpt lat="44.90959" lon="0.89188">
        <ele>189.6</ele>
        <time>1970-01-01T01:40:16.000Z</time>
      </trkpt>
      <trkpt lat="44.90962" lon="0.89185">
        <ele>189.7</ele>
        <time>1970-01-01T01:40:17.000Z</time>
      </trkpt>
      <trkpt lat="44.90964" lon="0.89182">
        <ele>189.8</ele>
        <time>1970-01-01T01:40:18.000Z</time>
      </trkpt>
      <trkpt lat="44.90967" lon="0.89179">
        <ele>190</ele>
        <time>1970-01-01T01:40:19.000Z</time>
      </trkpt>
      <trkpt lat="44.9097" lon="0.89176">
        <ele>190.1</ele>
        <time>1970-01-01T01:40:20.000Z</time>
      </trkpt>
      <trkpt lat="44.90973" lon="0.89174">
        <ele>190.2</ele>
        <time>1970-01-01T01:40:21.000Z</time>
      </trkpt>
      <trkpt lat="44.90976" lon="0.89171">
        <ele>190.4</ele>
        <time>1970-01-01T01:40:22.000Z</time>
      </trkpt>
      <trkpt lat="44.90979" lon="0.89169">
        <ele>190.6</ele>
        <time>1970-01-01T01:40:23.000Z</time>
      </trkpt>
      <trkpt lat="44.90982" lon="0.89166">
        <ele>190.7</ele>
        <time>1970-01-01T01:40:24.000Z</time>
      </trkpt>
      <trkpt lat="44.90985" lon="0.89164">
        <ele>190.9</ele>
        <time>1970-01-01T01:40:25.000Z</time>
      </trkpt>
      <trkpt lat="44.90988" lon="0.89162">
        <ele>191.1</ele>
        <time>1970-01-01T01:40:26.000Z</time>
      </trkpt>
      <trkpt lat="44.90991" lon="0.8916">
        <ele>191.3</ele>
        <time>1970-01-01T01:40:27.000Z</time>
      </trkpt>
      <trkpt lat="44.90993" lon="0.89159">
        <ele>191.5</ele>
        <time>1970-01-01T01:40:28.000Z</time>
      </trkpt>
      <trkpt lat="44.90996" lon="0.89157">
        <ele>191.6</ele>
        <time>1970-01-01T01:40:29.000Z</time>
      </trkpt>
      <trkpt lat="44.90998" lon="0.89155">
        <ele>191.8</ele>
        <time>1970-01-01T01:40:30.000Z</time>
      </trkpt>
      <trkpt lat="44.91001" lon="0.89154">
        <ele>192</ele>
        <time>1970-01-01T01:40:31.000Z</time>
      </trkpt>
      <trkpt lat="44.91003" lon="0.89152">
        <ele>192.2</ele>
        <time>1970-01-01T01:40:32.000Z</time>
      </trkpt>
      <trkpt lat="44.91005" lon="0.89151">
        <ele>192.3</ele>
        <time>1970-01-01T01:40:33.000Z</time>
      </trkpt>
      <trkpt lat="44.91007" lon="0.89149">
        <ele>192.5</ele>
        <time>1970-01-01T01:40:34.000Z</time>
      </trkpt>
      <trkpt lat="44.9101" lon="0.89148">
        <ele>192.7</ele>
        <time>1970-01-01T01:40:35.000Z</time>
      </trkpt>
      <trkpt lat="44.91012" lon="0.89146">
        <ele>192.9</ele>
        <time>1970-01-01T01:40:36.000Z</time>
      </trkpt>
      <trkpt lat="44.91015" lon="0.89144">
        <ele>193.1</ele>
        <time>1970-01-01T01:40:37.000Z</time>
      </trkpt>
      <trkpt lat="44.91018" lon="0.89142">
        <ele>193.3</ele>
        <time>1970-01-01T01:40:38.000Z</time>
      </trkpt>
      <trkpt lat="44.9102" lon="0.89139">
        <ele>193.5</ele>
        <time>1970-01-01T01:40:39.000Z</time>
      </trkpt>
      <trkpt lat="44.91022" lon="0.89137">
        <ele>193.6</ele>
        <time>1970-01-01T01:40:40.000Z</time>
      </trkpt>
      <trkpt lat="44.91025" lon="0.89134">
        <ele>193.8</ele>
        <time>1970-01-01T01:40:41.000Z</time>
      </trkpt>
      <trkpt lat="44.91028" lon="0.89131">
        <ele>194</ele>
        <time>1970-01-01T01:40:42.000Z</time>
      </trkpt>
      <trkpt lat="44.91031" lon="0.89129">
        <ele>194.1</ele>
        <time>1970-01-01T01:40:43.000Z</time>
      </trkpt>
      <trkpt lat="44.91034" lon="0.89125">
        <ele>194.2</ele>
        <time>1970-01-01T01:40:44.000Z</time>
      </trkpt>
      <trkpt lat="44.91037" lon="0.89122">
        <ele>194.3</ele>
        <time>1970-01-01T01:40:45.000Z</time>
      </trkpt>
      <trkpt lat="44.91039" lon="0.89119">
        <ele>194.4</ele>
        <time>1970-01-01T01:40:46.000Z</time>
      </trkpt>
      <trkpt lat="44.91041" lon="0.89116">
        <ele>194.4</ele>
        <time>1970-01-01T01:40:47.000Z</time>
      </trkpt>
      <trkpt lat="44.91044" lon="0.89113">
        <ele>194.4</ele>
        <time>1970-01-01T01:40:48.000Z</time>
      </trkpt>
      <trkpt lat="44.91047" lon="0.8911">
        <ele>194.4</ele>
        <time>1970-01-01T01:40:49.000Z</time>
      </trkpt>
      <trkpt lat="44.9105" lon="0.89106">
        <ele>194.4</ele>
        <time>1970-01-01T01:40:50.000Z</time>
      </trkpt>
      <trkpt lat="44.91054" lon="0.89102">
        <ele>194.4</ele>
        <time>1970-01-01T01:40:51.000Z</time>
      </trkpt>
      <trkpt lat="44.91057" lon="0.89097">
        <ele>194.4</ele>
        <time>1970-01-01T01:40:52.000Z</time>
      </trkpt>
      <trkpt lat="44.9106" lon="0.89093">
        <ele>194.4</ele>
        <time>1970-01-01T01:40:53.000Z</time>
      </trkpt>
      <trkpt lat="44.91064" lon="0.89089">
        <ele>194.4</ele>
        <time>1970-01-01T01:40:54.000Z</time>
      </trkpt>
      <trkpt lat="44.91067" lon="0.89085">
        <ele>194.4</ele>
        <time>1970-01-01T01:40:55.000Z</time>
      </trkpt>
      <trkpt lat="44.9107" lon="0.89081">
        <ele>194.5</ele>
        <time>1970-01-01T01:40:56.000Z</time>
      </trkpt>
      <trkpt lat="44.91073" lon="0.89077">
        <ele>194.5</ele>
        <time>1970-01-01T01:40:57.000Z</time>
      </trkpt>
      <trkpt lat="44.91076" lon="0.89072">
        <ele>194.5</ele>
        <time>1970-01-01T01:40:58.000Z</time>
      </trkpt>
      <trkpt lat="44.9108" lon="0.89067">
        <ele>194.5</ele>
        <time>1970-01-01T01:40:59.000Z</time>
      </trkpt>
      <trkpt lat="44.91083" lon="0.89062">
        <ele>194.6</ele>
        <time>1970-01-01T01:41:00.000Z</time>
      </trkpt>
      <trkpt lat="44.91086" lon="0.89057">
        <ele>194.7</ele>
        <time>1970-01-01T01:41:01.000Z</time>
      </trkpt>
      <trkpt lat="44.91088" lon="0.89052">
        <ele>194.7</ele>
        <time>1970-01-01T01:41:02.000Z</time>
      </trkpt>
      <trkpt lat="44.91091" lon="0.89047">
        <ele>194.8</ele>
        <time>1970-01-01T01:41:03.000Z</time>
      </trkpt>
      <trkpt lat="44.91093" lon="0.89041">
        <ele>194.9</ele>
        <time>1970-01-01T01:41:04.000Z</time>
      </trkpt>
      <trkpt lat="44.91096" lon="0.89036">
        <ele>194.9</ele>
        <time>1970-01-01T01:41:05.000Z</time>
      </trkpt>
      <trkpt lat="44.91098" lon="0.89032">
        <ele>195</ele>
        <time>1970-01-01T01:41:06.000Z</time>
      </trkpt>
      <trkpt lat="44.91101" lon="0.89027">
        <ele>195.1</ele>
        <time>1970-01-01T01:41:07.000Z</time>
      </trkpt>
      <trkpt lat="44.91103" lon="0.89022">
        <ele>195.2</ele>
        <time>1970-01-01T01:41:08.000Z</time>
      </trkpt>
      <trkpt lat="44.91106" lon="0.89018">
        <ele>195.3</ele>
        <time>1970-01-01T01:41:09.000Z</time>
      </trkpt>
      <trkpt lat="44.91108" lon="0.89013">
        <ele>195.4</ele>
        <time>1970-01-01T01:41:10.000Z</time>
      </trkpt>
      <trkpt lat="44.9111" lon="0.89008">
        <ele>195.5</ele>
        <time>1970-01-01T01:41:11.000Z</time>
      </trkpt>
      <trkpt lat="44.91112" lon="0.89004">
        <ele>195.6</ele>
        <time>1970-01-01T01:41:12.000Z</time>
      </trkpt>
      <trkpt lat="44.91114" lon="0.88999">
        <ele>195.8</ele>
        <time>1970-01-01T01:41:13.000Z</time>
      </trkpt>
      <trkpt lat="44.91116" lon="0.88995">
        <ele>195.8</ele>
        <time>1970-01-01T01:41:14.000Z</time>
      </trkpt>
      <trkpt lat="44.91118" lon="0.8899">
        <ele>195.9</ele>
        <time>1970-01-01T01:41:15.000Z</time>
      </trkpt>
      <trkpt lat="44.9112" lon="0.88986">
        <ele>196</ele>
        <time>1970-01-01T01:41:16.000Z</time>
      </trkpt>
      <trkpt lat="44.91122" lon="0.88981">
        <ele>196.1</ele>
        <time>1970-01-01T01:41:17.000Z</time>
      </trkpt>
      <trkpt lat="44.91123" lon="0.88977">
        <ele>196.1</ele>
        <time>1970-01-01T01:41:18.000Z</time>
      </trkpt>
      <trkpt lat="44.91125" lon="0.88973">
        <ele>196.1</ele>
        <time>1970-01-01T01:41:19.000Z</time>
      </trkpt>
      <trkpt lat="44.91127" lon="0.88968">
        <ele>196.2</ele>
        <time>1970-01-01T01:41:20.000Z</time>
      </trkpt>
      <trkpt lat="44.91129" lon="0.88963">
        <ele>196.1</ele>
        <time>1970-01-01T01:41:21.000Z</time>
      </trkpt>
      <trkpt lat="44.91132" lon="0.88958">
        <ele>196.1</ele>
        <time>1970-01-01T01:41:22.000Z</time>
      </trkpt>
      <trkpt lat="44.91134" lon="0.88953">
        <ele>195.9</ele>
        <time>1970-01-01T01:41:23.000Z</time>
      </trkpt>
      <trkpt lat="44.91136" lon="0.88948">
        <ele>195.8</ele>
        <time>1970-01-01T01:41:24.000Z</time>
      </trkpt>
      <trkpt lat="44.91139" lon="0.88944">
        <ele>195.6</ele>
        <time>1970-01-01T01:41:25.000Z</time>
      </trkpt>
      <trkpt lat="44.91142" lon="0.88939">
        <ele>195.3</ele>
        <time>1970-01-01T01:41:26.000Z</time>
      </trkpt>
      <trkpt lat="44.91145" lon="0.88934">
        <ele>195</ele>
        <time>1970-01-01T01:41:27.000Z</time>
      </trkpt>
      <trkpt lat="44.91148" lon="0.88928">
        <ele>194.5</ele>
        <time>1970-01-01T01:41:28.000Z</time>
      </trkpt>
      <trkpt lat="44.91151" lon="0.88922">
        <ele>194</ele>
        <time>1970-01-01T01:41:29.000Z</time>
      </trkpt>
      <trkpt lat="44.91156" lon="0.88915">
        <ele>193.2</ele>
        <time>1970-01-01T01:41:30.000Z</time>
      </trkpt>
      <trkpt lat="44.91162" lon="0.88907">
        <ele>192.3</ele>
        <time>1970-01-01T01:41:31.000Z</time>
      </trkpt>
      <trkpt lat="44.91169" lon="0.88899">
        <ele>191.3</ele>
        <time>1970-01-01T01:41:32.000Z</time>
      </trkpt>
      <trkpt lat="44.91176" lon="0.88893">
        <ele>190.5</ele>
        <time>1970-01-01T01:41:33.000Z</time>
      </trkpt>
      <trkpt lat="44.91183" lon="0.88887">
        <ele>189.9</ele>
        <time>1970-01-01T01:41:34.000Z</time>
      </trkpt>
      <trkpt lat="44.91189" lon="0.88882">
        <ele>189.5</ele>
        <time>1970-01-01T01:41:35.000Z</time>
      </trkpt>
      <trkpt lat="44.91194" lon="0.88876">
        <ele>189.2</ele>
        <time>1970-01-01T01:41:36.000Z</time>
      </trkpt>
      <trkpt lat="44.91199" lon="0.88871">
        <ele>189</ele>
        <time>1970-01-01T01:41:37.000Z</time>
      </trkpt>
      <trkpt lat="44.91204" lon="0.88866">
        <ele>188.8</ele>
        <time>1970-01-01T01:41:38.000Z</time>
      </trkpt>
      <trkpt lat="44.91211" lon="0.88861">
        <ele>188.6</ele>
        <time>1970-01-01T01:41:39.000Z</time>
      </trkpt>
      <trkpt lat="44.91217" lon="0.88857">
        <ele>188.4</ele>
        <time>1970-01-01T01:41:40.000Z</time>
      </trkpt>
      <trkpt lat="44.91224" lon="0.88853">
        <ele>188.3</ele>
        <time>1970-01-01T01:41:41.000Z</time>
      </trkpt>
      <trkpt lat="44.91229" lon="0.88849">
        <ele>188.3</ele>
        <time>1970-01-01T01:41:42.000Z</time>
      </trkpt>
      <trkpt lat="44.91235" lon="0.88845">
        <ele>188.3</ele>
        <time>1970-01-01T01:41:43.000Z</time>
      </trkpt>
      <trkpt lat="44.91241" lon="0.8884">
        <ele>188.3</ele>
        <time>1970-01-01T01:41:44.000Z</time>
      </trkpt>
      <trkpt lat="44.91247" lon="0.88836">
        <ele>188.3</ele>
        <time>1970-01-01T01:41:45.000Z</time>
      </trkpt>
      <trkpt lat="44.91253" lon="0.88831">
        <ele>188.3</ele>
        <time>1970-01-01T01:41:46.000Z</time>
      </trkpt>
      <trkpt lat="44.91258" lon="0.88826">
        <ele>188.4</ele>
        <time>1970-01-01T01:41:47.000Z</time>
      </trkpt>
      <trkpt lat="44.91263" lon="0.88821">
        <ele>188.4</ele>
        <time>1970-01-01T01:41:48.000Z</time>
      </trkpt>
      <trkpt lat="44.91267" lon="0.88816">
        <ele>188.5</ele>
        <time>1970-01-01T01:41:49.000Z</time>
      </trkpt>
      <trkpt lat="44.91272" lon="0.8881">
        <ele>188.5</ele>
        <time>1970-01-01T01:41:50.000Z</time>
      </trkpt>
      <trkpt lat="44.91275" lon="0.88804">
        <ele>188.6</ele>
        <time>1970-01-01T01:41:51.000Z</time>
      </trkpt>
      <trkpt lat="44.91279" lon="0.88797">
        <ele>188.6</ele>
        <time>1970-01-01T01:41:52.000Z</time>
      </trkpt>
      <trkpt lat="44.91282" lon="0.88791">
        <ele>188.6</ele>
        <time>1970-01-01T01:41:53.000Z</time>
      </trkpt>
      <trkpt lat="44.91286" lon="0.88784">
        <ele>188.6</ele>
        <time>1970-01-01T01:41:54.000Z</time>
      </trkpt>
      <trkpt lat="44.91289" lon="0.88778">
        <ele>188.6</ele>
        <time>1970-01-01T01:41:55.000Z</time>
      </trkpt>
      <trkpt lat="44.91292" lon="0.88772">
        <ele>188.6</ele>
        <time>1970-01-01T01:41:56.000Z</time>
      </trkpt>
      <trkpt lat="44.91295" lon="0.88766">
        <ele>188.6</ele>
        <time>1970-01-01T01:41:57.000Z</time>
      </trkpt>
      <trkpt lat="44.91298" lon="0.8876">
        <ele>188.6</ele>
        <time>1970-01-01T01:41:58.000Z</time>
      </trkpt>
      <trkpt lat="44.91301" lon="0.88753">
        <ele>188.6</ele>
        <time>1970-01-01T01:41:59.000Z</time>
      </trkpt>
      <trkpt lat="44.91303" lon="0.88746">
        <ele>188.6</ele>
        <time>1970-01-01T01:42:00.000Z</time>
      </trkpt>
      <trkpt lat="44.91305" lon="0.88738">
        <ele>188.6</ele>
        <time>1970-01-01T01:42:01.000Z</time>
      </trkpt>
      <trkpt lat="44.91308" lon="0.88731">
        <ele>188.6</ele>
        <time>1970-01-01T01:42:02.000Z</time>
      </trkpt>
      <trkpt lat="44.9131" lon="0.88724">
        <ele>188.5</ele>
        <time>1970-01-01T01:42:03.000Z</time>
      </trkpt>
      <trkpt lat="44.91312" lon="0.88717">
        <ele>188.5</ele>
        <time>1970-01-01T01:42:04.000Z</time>
      </trkpt>
      <trkpt lat="44.91312" lon="0.8871">
        <ele>188.5</ele>
        <time>1970-01-01T01:42:05.000Z</time>
      </trkpt>
      <trkpt lat="44.91312" lon="0.88704">
        <ele>188.4</ele>
        <time>1970-01-01T01:42:06.000Z</time>
      </trkpt>
      <trkpt lat="44.91312" lon="0.88697">
        <ele>188.4</ele>
        <time>1970-01-01T01:42:07.000Z</time>
      </trkpt>
      <trkpt lat="44.91311" lon="0.88689">
        <ele>188.4</ele>
        <time>1970-01-01T01:42:08.000Z</time>
      </trkpt>
      <trkpt lat="44.91311" lon="0.88681">
        <ele>188.4</ele>
        <time>1970-01-01T01:42:09.000Z</time>
      </trkpt>
      <trkpt lat="44.9131" lon="0.88674">
        <ele>188.3</ele>
        <time>1970-01-01T01:42:10.000Z</time>
      </trkpt>
      <trkpt lat="44.91309" lon="0.88666">
        <ele>188.3</ele>
        <time>1970-01-01T01:42:11.000Z</time>
      </trkpt>
      <trkpt lat="44.91309" lon="0.88659">
        <ele>188.2</ele>
        <time>1970-01-01T01:42:12.000Z</time>
      </trkpt>
      <trkpt lat="44.91308" lon="0.88652">
        <ele>188.3</ele>
        <time>1970-01-01T01:42:13.000Z</time>
      </trkpt>
      <trkpt lat="44.91307" lon="0.88646">
        <ele>188.7</ele>
        <time>1970-01-01T01:42:14.000Z</time>
      </trkpt>
      <trkpt lat="44.91307" lon="0.88641">
        <ele>189.1</ele>
        <time>1970-01-01T01:42:15.000Z</time>
      </trkpt>
      <trkpt lat="44.91306" lon="0.88636">
        <ele>189.5</ele>
        <time>1970-01-01T01:42:16.000Z</time>
      </trkpt>
      <trkpt lat="44.91305" lon="0.88632">
        <ele>189.9</ele>
        <time>1970-01-01T01:42:17.000Z</time>
      </trkpt>
      <trkpt lat="44.91305" lon="0.88627">
        <ele>190.2</ele>
        <time>1970-01-01T01:42:18.000Z</time>
      </trkpt>
      <trkpt lat="44.91304" lon="0.88623">
        <ele>190.6</ele>
        <time>1970-01-01T01:42:19.000Z</time>
      </trkpt>
      <trkpt lat="44.91304" lon="0.88619">
        <ele>191.1</ele>
        <time>1970-01-01T01:42:20.000Z</time>
      </trkpt>
      <trkpt lat="44.91303" lon="0.88615">
        <ele>191.5</ele>
        <time>1970-01-01T01:42:21.000Z</time>
      </trkpt>
      <trkpt lat="44.91302" lon="0.88611">
        <ele>191.9</ele>
        <time>1970-01-01T01:42:22.000Z</time>
      </trkpt>
      <trkpt lat="44.91301" lon="0.88607">
        <ele>192.3</ele>
        <time>1970-01-01T01:42:23.000Z</time>
      </trkpt>
      <trkpt lat="44.913" lon="0.88603">
        <ele>192.8</ele>
        <time>1970-01-01T01:42:24.000Z</time>
      </trkpt>
      <trkpt lat="44.91299" lon="0.88599">
        <ele>193.2</ele>
        <time>1970-01-01T01:42:25.000Z</time>
      </trkpt>
      <trkpt lat="44.91298" lon="0.88595">
        <ele>193.6</ele>
        <time>1970-01-01T01:42:26.000Z</time>
      </trkpt>
      <trkpt lat="44.91297" lon="0.88591">
        <ele>194</ele>
        <time>1970-01-01T01:42:27.000Z</time>
      </trkpt>
      <trkpt lat="44.91297" lon="0.88587">
        <ele>194.4</ele>
        <time>1970-01-01T01:42:28.000Z</time>
      </trkpt>
      <trkpt lat="44.91296" lon="0.88583">
        <ele>194.8</ele>
        <time>1970-01-01T01:42:29.000Z</time>
      </trkpt>
      <trkpt lat="44.91296" lon="0.8858">
        <ele>195.1</ele>
        <time>1970-01-01T01:42:30.000Z</time>
      </trkpt>
      <trkpt lat="44.91296" lon="0.88576">
        <ele>196</ele>
        <time>1970-01-01T01:42:31.000Z</time>
      </trkpt>
      <trkpt lat="44.91295" lon="0.88573">
        <ele>196.3</ele>
        <time>1970-01-01T01:42:32.000Z</time>
      </trkpt>
      <trkpt lat="44.91295" lon="0.88569">
        <ele>196.7</ele>
        <time>1970-01-01T01:42:33.000Z</time>
      </trkpt>
      <trkpt lat="44.91294" lon="0.88566">
        <ele>197</ele>
        <time>1970-01-01T01:42:34.000Z</time>
      </trkpt>
      <trkpt lat="44.91293" lon="0.88563">
        <ele>197.3</ele>
        <time>1970-01-01T01:42:35.000Z</time>
      </trkpt>
      <trkpt lat="44.91293" lon="0.88559">
        <ele>197.7</ele>
        <time>1970-01-01T01:42:36.000Z</time>
      </trkpt>
      <trkpt lat="44.91292" lon="0.88555">
        <ele>198</ele>
        <time>1970-01-01T01:42:37.000Z</time>
      </trkpt>
      <trkpt lat="44.91292" lon="0.88552">
        <ele>198.3</ele>
        <time>1970-01-01T01:42:38.000Z</time>
      </trkpt>
      <trkpt lat="44.91291" lon="0.88549">
        <ele>198.7</ele>
        <time>1970-01-01T01:42:39.000Z</time>
      </trkpt>
      <trkpt lat="44.91291" lon="0.88546">
        <ele>198.9</ele>
        <time>1970-01-01T01:42:40.000Z</time>
      </trkpt>
      <trkpt lat="44.9129" lon="0.88542">
        <ele>199.2</ele>
        <time>1970-01-01T01:42:41.000Z</time>
      </trkpt>
      <trkpt lat="44.91289" lon="0.88539">
        <ele>199.5</ele>
        <time>1970-01-01T01:42:42.000Z</time>
      </trkpt>
      <trkpt lat="44.91289" lon="0.88536">
        <ele>199.7</ele>
        <time>1970-01-01T01:42:43.000Z</time>
      </trkpt>
      <trkpt lat="44.91288" lon="0.88533">
        <ele>200</ele>
        <time>1970-01-01T01:42:44.000Z</time>
      </trkpt>
      <trkpt lat="44.91287" lon="0.8853">
        <ele>200.3</ele>
        <time>1970-01-01T01:42:45.000Z</time>
      </trkpt>
      <trkpt lat="44.91286" lon="0.88526">
        <ele>200.6</ele>
        <time>1970-01-01T01:42:46.000Z</time>
      </trkpt>
      <trkpt lat="44.91286" lon="0.88523">
        <ele>200.9</ele>
        <time>1970-01-01T01:42:47.000Z</time>
      </trkpt>
      <trkpt lat="44.91285" lon="0.8852">
        <ele>201.2</ele>
        <time>1970-01-01T01:42:48.000Z</time>
      </trkpt>
      <trkpt lat="44.91285" lon="0.88517">
        <ele>201.4</ele>
        <time>1970-01-01T01:42:49.000Z</time>
      </trkpt>
      <trkpt lat="44.91284" lon="0.88514">
        <ele>201.7</ele>
        <time>1970-01-01T01:42:50.000Z</time>
      </trkpt>
      <trkpt lat="44.91284" lon="0.88511">
        <ele>201.9</ele>
        <time>1970-01-01T01:42:51.000Z</time>
      </trkpt>
      <trkpt lat="44.91283" lon="0.88509">
        <ele>202.2</ele>
        <time>1970-01-01T01:42:52.000Z</time>
      </trkpt>
      <trkpt lat="44.91283" lon="0.88506">
        <ele>202.4</ele>
        <time>1970-01-01T01:42:53.000Z</time>
      </trkpt>
      <trkpt lat="44.91283" lon="0.88503">
        <ele>202.6</ele>
        <time>1970-01-01T01:42:54.000Z</time>
      </trkpt>
      <trkpt lat="44.91282" lon="0.88501">
        <ele>202.9</ele>
        <time>1970-01-01T01:42:55.000Z</time>
      </trkpt>
      <trkpt lat="44.91282" lon="0.88498">
        <ele>203</ele>
        <time>1970-01-01T01:42:56.000Z</time>
      </trkpt>
      <trkpt lat="44.91282" lon="0.88495">
        <ele>203.3</ele>
        <time>1970-01-01T01:42:57.000Z</time>
      </trkpt>
      <trkpt lat="44.91282" lon="0.88492">
        <ele>203.5</ele>
        <time>1970-01-01T01:42:58.000Z</time>
      </trkpt>
      <trkpt lat="44.91281" lon="0.88489">
        <ele>203.7</ele>
        <time>1970-01-01T01:42:59.000Z</time>
      </trkpt>
      <trkpt lat="44.91281" lon="0.88486">
        <ele>203.9</ele>
        <time>1970-01-01T01:43:00.000Z</time>
      </trkpt>
      <trkpt lat="44.9128" lon="0.88483">
        <ele>204.2</ele>
        <time>1970-01-01T01:43:01.000Z</time>
      </trkpt>
      <trkpt lat="44.91279" lon="0.8848">
        <ele>204.4</ele>
        <time>1970-01-01T01:43:02.000Z</time>
      </trkpt>
      <trkpt lat="44.91279" lon="0.88477">
        <ele>204.6</ele>
        <time>1970-01-01T01:43:03.000Z</time>
      </trkpt>
      <trkpt lat="44.91279" lon="0.88474">
        <ele>204.8</ele>
        <time>1970-01-01T01:43:04.000Z</time>
      </trkpt>
      <trkpt lat="44.91278" lon="0.88471">
        <ele>205</ele>
        <time>1970-01-01T01:43:05.000Z</time>
      </trkpt>
      <trkpt lat="44.91278" lon="0.88468">
        <ele>205.1</ele>
        <time>1970-01-01T01:43:06.000Z</time>
      </trkpt>
      <trkpt lat="44.91277" lon="0.88465">
        <ele>205.3</ele>
        <time>1970-01-01T01:43:07.000Z</time>
      </trkpt>
      <trkpt lat="44.91277" lon="0.88461">
        <ele>205.5</ele>
        <time>1970-01-01T01:43:08.000Z</time>
      </trkpt>
      <trkpt lat="44.91277" lon="0.88458">
        <ele>205.6</ele>
        <time>1970-01-01T01:43:09.000Z</time>
      </trkpt>
      <trkpt lat="44.91277" lon="0.88455">
        <ele>205.8</ele>
        <time>1970-01-01T01:43:10.000Z</time>
      </trkpt>
      <trkpt lat="44.91277" lon="0.88452">
        <ele>205.9</ele>
        <time>1970-01-01T01:43:11.000Z</time>
      </trkpt>
      <trkpt lat="44.91277" lon="0.88449">
        <ele>206.1</ele>
        <time>1970-01-01T01:43:12.000Z</time>
      </trkpt>
      <trkpt lat="44.91277" lon="0.88446">
        <ele>206.2</ele>
        <time>1970-01-01T01:43:13.000Z</time>
      </trkpt>
      <trkpt lat="44.91278" lon="0.88443">
        <ele>206.3</ele>
        <time>1970-01-01T01:43:14.000Z</time>
      </trkpt>
      <trkpt lat="44.91278" lon="0.8844">
        <ele>206.4</ele>
        <time>1970-01-01T01:43:15.000Z</time>
      </trkpt>
      <trkpt lat="44.91278" lon="0.88437">
        <ele>206.5</ele>
        <time>1970-01-01T01:43:16.000Z</time>
      </trkpt>
      <trkpt lat="44.91278" lon="0.88434">
        <ele>206.7</ele>
        <time>1970-01-01T01:43:17.000Z</time>
      </trkpt>
      <trkpt lat="44.91278" lon="0.88431">
        <ele>206.8</ele>
        <time>1970-01-01T01:43:18.000Z</time>
      </trkpt>
      <trkpt lat="44.91278" lon="0.88427">
        <ele>207</ele>
        <time>1970-01-01T01:43:19.000Z</time>
      </trkpt>
      <trkpt lat="44.91278" lon="0.88423">
        <ele>207.1</ele>
        <time>1970-01-01T01:43:20.000Z</time>
      </trkpt>
      <trkpt lat="44.91278" lon="0.88419">
        <ele>207.3</ele>
        <time>1970-01-01T01:43:21.000Z</time>
      </trkpt>
      <trkpt lat="44.91278" lon="0.88415">
        <ele>207.5</ele>
        <time>1970-01-01T01:43:22.000Z</time>
      </trkpt>
      <trkpt lat="44.91278" lon="0.88411">
        <ele>207.6</ele>
        <time>1970-01-01T01:43:23.000Z</time>
      </trkpt>
      <trkpt lat="44.91278" lon="0.88407">
        <ele>207.8</ele>
        <time>1970-01-01T01:43:24.000Z</time>
      </trkpt>
      <trkpt lat="44.91279" lon="0.88402">
        <ele>208</ele>
        <time>1970-01-01T01:43:25.000Z</time>
      </trkpt>
      <trkpt lat="44.91279" lon="0.88398">
        <ele>208.2</ele>
        <time>1970-01-01T01:43:26.000Z</time>
      </trkpt>
      <trkpt lat="44.9128" lon="0.88394">
        <ele>208.3</ele>
        <time>1970-01-01T01:43:27.000Z</time>
      </trkpt>
      <trkpt lat="44.91281" lon="0.8839">
        <ele>208.5</ele>
        <time>1970-01-01T01:43:28.000Z</time>
      </trkpt>
      <trkpt lat="44.91282" lon="0.88387">
        <ele>208.6</ele>
        <time>1970-01-01T01:43:29.000Z</time>
      </trkpt>
      <trkpt lat="44.91283" lon="0.88384">
        <ele>208.7</ele>
        <time>1970-01-01T01:43:30.000Z</time>
      </trkpt>
      <trkpt lat="44.91283" lon="0.88381">
        <ele>208.7</ele>
        <time>1970-01-01T01:43:31.000Z</time>
      </trkpt>
      <trkpt lat="44.91284" lon="0.88377">
        <ele>208.8</ele>
        <time>1970-01-01T01:43:32.000Z</time>
      </trkpt>
      <trkpt lat="44.91284" lon="0.88373">
        <ele>208.8</ele>
        <time>1970-01-01T01:43:33.000Z</time>
      </trkpt>
      <trkpt lat="44.91284" lon="0.88368">
        <ele>208.8</ele>
        <time>1970-01-01T01:43:34.000Z</time>
      </trkpt>
      <trkpt lat="44.91283" lon="0.88362">
        <ele>208.7</ele>
        <time>1970-01-01T01:43:35.000Z</time>
      </trkpt>
      <trkpt lat="44.91282" lon="0.88356">
        <ele>208.5</ele>
        <time>1970-01-01T01:43:36.000Z</time>
      </trkpt>
      <trkpt lat="44.91281" lon="0.8835">
        <ele>208.3</ele>
        <time>1970-01-01T01:43:37.000Z</time>
      </trkpt>
      <trkpt lat="44.91281" lon="0.88343">
        <ele>208</ele>
        <time>1970-01-01T01:43:38.000Z</time>
      </trkpt>
      <trkpt lat="44.9128" lon="0.88336">
        <ele>207.7</ele>
        <time>1970-01-01T01:43:39.000Z</time>
      </trkpt>
      <trkpt lat="44.9128" lon="0.88329">
        <ele>207.5</ele>
        <time>1970-01-01T01:43:40.000Z</time>
      </trkpt>
      <trkpt lat="44.91279" lon="0.88321">
        <ele>207.2</ele>
        <time>1970-01-01T01:43:41.000Z</time>
      </trkpt>
      <trkpt lat="44.91278" lon="0.88314">
        <ele>206.9</ele>
        <time>1970-01-01T01:43:42.000Z</time>
      </trkpt>
      <trkpt lat="44.91277" lon="0.88306">
        <ele>206.6</ele>
        <time>1970-01-01T01:43:43.000Z</time>
      </trkpt>
      <trkpt lat="44.91276" lon="0.88298">
        <ele>206.3</ele>
        <time>1970-01-01T01:43:44.000Z</time>
      </trkpt>
      <trkpt lat="44.91275" lon="0.88291">
        <ele>206.1</ele>
        <time>1970-01-01T01:43:45.000Z</time>
      </trkpt>
      <trkpt lat="44.91274" lon="0.88284">
        <ele>205.8</ele>
        <time>1970-01-01T01:43:46.000Z</time>
      </trkpt>
      <trkpt lat="44.91272" lon="0.88278">
        <ele>205.6</ele>
        <time>1970-01-01T01:43:47.000Z</time>
      </trkpt>
      <trkpt lat="44.9127" lon="0.8827">
        <ele>205.4</ele>
        <time>1970-01-01T01:43:48.000Z</time>
      </trkpt>
      <trkpt lat="44.91266" lon="0.88263">
        <ele>205.2</ele>
        <time>1970-01-01T01:43:49.000Z</time>
      </trkpt>
      <trkpt lat="44.91263" lon="0.88255">
        <ele>205</ele>
        <time>1970-01-01T01:43:50.000Z</time>
      </trkpt>
      <trkpt lat="44.91261" lon="0.88248">
        <ele>204.9</ele>
        <time>1970-01-01T01:43:51.000Z</time>
      </trkpt>
      <trkpt lat="44.91259" lon="0.88242">
        <ele>204.8</ele>
        <time>1970-01-01T01:43:52.000Z</time>
      </trkpt>
      <trkpt lat="44.91257" lon="0.88236">
        <ele>204.7</ele>
        <time>1970-01-01T01:43:53.000Z</time>
      </trkpt>
      <trkpt lat="44.91254" lon="0.88229">
        <ele>204.5</ele>
        <time>1970-01-01T01:43:54.000Z</time>
      </trkpt>
      <trkpt lat="44.91251" lon="0.88223">
        <ele>204.4</ele>
        <time>1970-01-01T01:43:55.000Z</time>
      </trkpt>
      <trkpt lat="44.91248" lon="0.88217">
        <ele>204.2</ele>
        <time>1970-01-01T01:43:56.000Z</time>
      </trkpt>
      <trkpt lat="44.91244" lon="0.8821">
        <ele>204</ele>
        <time>1970-01-01T01:43:57.000Z</time>
      </trkpt>
      <trkpt lat="44.9124" lon="0.88205">
        <ele>203.9</ele>
        <time>1970-01-01T01:43:58.000Z</time>
      </trkpt>
      <trkpt lat="44.91237" lon="0.88199">
        <ele>203.7</ele>
        <time>1970-01-01T01:43:59.000Z</time>
      </trkpt>
      <trkpt lat="44.91233" lon="0.88192">
        <ele>203.6</ele>
        <time>1970-01-01T01:44:00.000Z</time>
      </trkpt>
      <trkpt lat="44.91229" lon="0.88186">
        <ele>203.4</ele>
        <time>1970-01-01T01:44:01.000Z</time>
      </trkpt>
      <trkpt lat="44.91226" lon="0.88179">
        <ele>203.3</ele>
        <time>1970-01-01T01:44:02.000Z</time>
      </trkpt>
      <trkpt lat="44.91223" lon="0.88171">
        <ele>203.1</ele>
        <time>1970-01-01T01:44:03.000Z</time>
      </trkpt>
      <trkpt lat="44.9122" lon="0.88164">
        <ele>203</ele>
        <time>1970-01-01T01:44:04.000Z</time>
      </trkpt>
      <trkpt lat="44.91216" lon="0.88157">
        <ele>202.8</ele>
        <time>1970-01-01T01:44:05.000Z</time>
      </trkpt>
      <trkpt lat="44.91213" lon="0.88149">
        <ele>202.7</ele>
        <time>1970-01-01T01:44:06.000Z</time>
      </trkpt>
      <trkpt lat="44.9121" lon="0.88142">
        <ele>202.5</ele>
        <time>1970-01-01T01:44:07.000Z</time>
      </trkpt>
      <trkpt lat="44.91206" lon="0.88135">
        <ele>202.3</ele>
        <time>1970-01-01T01:44:08.000Z</time>
      </trkpt>
      <trkpt lat="44.91202" lon="0.88129">
        <ele>202.2</ele>
        <time>1970-01-01T01:44:09.000Z</time>
      </trkpt>
      <trkpt lat="44.91199" lon="0.88123">
        <ele>202</ele>
        <time>1970-01-01T01:44:10.000Z</time>
      </trkpt>
      <trkpt lat="44.91196" lon="0.88117">
        <ele>201.8</ele>
        <time>1970-01-01T01:44:11.000Z</time>
      </trkpt>
      <trkpt lat="44.91192" lon="0.88111">
        <ele>201.6</ele>
        <time>1970-01-01T01:44:12.000Z</time>
      </trkpt>
      <trkpt lat="44.91188" lon="0.88104">
        <ele>201.4</ele>
        <time>1970-01-01T01:44:13.000Z</time>
      </trkpt>
      <trkpt lat="44.91184" lon="0.88097">
        <ele>201.1</ele>
        <time>1970-01-01T01:44:14.000Z</time>
      </trkpt>
      <trkpt lat="44.9118" lon="0.88091">
        <ele>200.9</ele>
        <time>1970-01-01T01:44:15.000Z</time>
      </trkpt>
      <trkpt lat="44.91175" lon="0.88085">
        <ele>200.6</ele>
        <time>1970-01-01T01:44:16.000Z</time>
      </trkpt>
      <trkpt lat="44.91171" lon="0.88078">
        <ele>200.3</ele>
        <time>1970-01-01T01:44:17.000Z</time>
      </trkpt>
      <trkpt lat="44.91167" lon="0.88071">
        <ele>200.1</ele>
        <time>1970-01-01T01:44:18.000Z</time>
      </trkpt>
      <trkpt lat="44.91162" lon="0.88064">
        <ele>199.8</ele>
        <time>1970-01-01T01:44:19.000Z</time>
      </trkpt>
      <trkpt lat="44.91158" lon="0.88057">
        <ele>199.5</ele>
        <time>1970-01-01T01:44:20.000Z</time>
      </trkpt>
      <trkpt lat="44.91154" lon="0.8805">
        <ele>199.2</ele>
        <time>1970-01-01T01:44:21.000Z</time>
      </trkpt>
      <trkpt lat="44.9115" lon="0.88043">
        <ele>199</ele>
        <time>1970-01-01T01:44:22.000Z</time>
      </trkpt>
      <trkpt lat="44.91146" lon="0.88035">
        <ele>198.9</ele>
        <time>1970-01-01T01:44:23.000Z</time>
      </trkpt>
      <trkpt lat="44.91142" lon="0.88028">
        <ele>198.7</ele>
        <time>1970-01-01T01:44:24.000Z</time>
      </trkpt>
      <trkpt lat="44.91139" lon="0.8802">
        <ele>198.6</ele>
        <time>1970-01-01T01:44:25.000Z</time>
      </trkpt>
      <trkpt lat="44.91136" lon="0.88012">
        <ele>198.4</ele>
        <time>1970-01-01T01:44:26.000Z</time>
      </trkpt>
      <trkpt lat="44.91132" lon="0.88003">
        <ele>198.3</ele>
        <time>1970-01-01T01:44:27.000Z</time>
      </trkpt>
      <trkpt lat="44.91129" lon="0.87995">
        <ele>198.1</ele>
        <time>1970-01-01T01:44:28.000Z</time>
      </trkpt>
      <trkpt lat="44.91126" lon="0.87987">
        <ele>197.9</ele>
        <time>1970-01-01T01:44:29.000Z</time>
      </trkpt>
      <trkpt lat="44.91122" lon="0.87979">
        <ele>197.7</ele>
        <time>1970-01-01T01:44:30.000Z</time>
      </trkpt>
      <trkpt lat="44.91119" lon="0.87972">
        <ele>197.5</ele>
        <time>1970-01-01T01:44:31.000Z</time>
      </trkpt>
      <trkpt lat="44.91115" lon="0.87964">
        <ele>197.3</ele>
        <time>1970-01-01T01:44:32.000Z</time>
      </trkpt>
      <trkpt lat="44.91111" lon="0.87957">
        <ele>197.2</ele>
        <time>1970-01-01T01:44:33.000Z</time>
      </trkpt>
      <trkpt lat="44.91106" lon="0.8795">
        <ele>197</ele>
        <time>1970-01-01T01:44:34.000Z</time>
      </trkpt>
      <trkpt lat="44.91101" lon="0.87944">
        <ele>196.9</ele>
        <time>1970-01-01T01:44:35.000Z</time>
      </trkpt>
      <trkpt lat="44.91097" lon="0.87937">
        <ele>196.8</ele>
        <time>1970-01-01T01:44:36.000Z</time>
      </trkpt>
      <trkpt lat="44.91093" lon="0.8793">
        <ele>196.7</ele>
        <time>1970-01-01T01:44:37.000Z</time>
      </trkpt>
      <trkpt lat="44.91089" lon="0.87923">
        <ele>196.6</ele>
        <time>1970-01-01T01:44:38.000Z</time>
      </trkpt>
      <trkpt lat="44.91085" lon="0.87916">
        <ele>196.5</ele>
        <time>1970-01-01T01:44:39.000Z</time>
      </trkpt>
      <trkpt lat="44.91082" lon="0.87909">
        <ele>196.4</ele>
        <time>1970-01-01T01:44:40.000Z</time>
      </trkpt>
      <trkpt lat="44.91078" lon="0.87901">
        <ele>196.2</ele>
        <time>1970-01-01T01:44:41.000Z</time>
      </trkpt>
      <trkpt lat="44.91075" lon="0.87893">
        <ele>196.1</ele>
        <time>1970-01-01T01:44:42.000Z</time>
      </trkpt>
      <trkpt lat="44.91072" lon="0.87885">
        <ele>195.9</ele>
        <time>1970-01-01T01:44:43.000Z</time>
      </trkpt>
      <trkpt lat="44.91069" lon="0.87878">
        <ele>195.8</ele>
        <time>1970-01-01T01:44:44.000Z</time>
      </trkpt>
      <trkpt lat="44.91065" lon="0.87871">
        <ele>195.8</ele>
        <time>1970-01-01T01:44:45.000Z</time>
      </trkpt>
      <trkpt lat="44.91062" lon="0.87863">
        <ele>195.7</ele>
        <time>1970-01-01T01:44:46.000Z</time>
      </trkpt>
      <trkpt lat="44.91059" lon="0.87856">
        <ele>195.7</ele>
        <time>1970-01-01T01:44:47.000Z</time>
      </trkpt>
      <trkpt lat="44.91057" lon="0.87849">
        <ele>195.7</ele>
        <time>1970-01-01T01:44:48.000Z</time>
      </trkpt>
      <trkpt lat="44.91054" lon="0.87842">
        <ele>195.6</ele>
        <time>1970-01-01T01:44:49.000Z</time>
      </trkpt>
      <trkpt lat="44.91051" lon="0.87835">
        <ele>195.6</ele>
        <time>1970-01-01T01:44:50.000Z</time>
      </trkpt>
      <trkpt lat="44.91048" lon="0.87828">
        <ele>195.6</ele>
        <time>1970-01-01T01:44:51.000Z</time>
      </trkpt>
      <trkpt lat="44.91046" lon="0.87821">
        <ele>195.6</ele>
        <time>1970-01-01T01:44:52.000Z</time>
      </trkpt>
      <trkpt lat="44.91043" lon="0.87814">
        <ele>195.6</ele>
        <time>1970-01-01T01:44:53.000Z</time>
      </trkpt>
      <trkpt lat="44.9104" lon="0.87807">
        <ele>195.6</ele>
        <time>1970-01-01T01:44:54.000Z</time>
      </trkpt>
      <trkpt lat="44.91038" lon="0.87801">
        <ele>195.7</ele>
        <time>1970-01-01T01:44:55.000Z</time>
      </trkpt>
      <trkpt lat="44.91035" lon="0.87794">
        <ele>195.7</ele>
        <time>1970-01-01T01:44:56.000Z</time>
      </trkpt>
      <trkpt lat="44.91031" lon="0.87788">
        <ele>195.7</ele>
        <time>1970-01-01T01:44:57.000Z</time>
      </trkpt>
      <trkpt lat="44.91028" lon="0.87783">
        <ele>195.8</ele>
        <time>1970-01-01T01:44:58.000Z</time>
      </trkpt>
      <trkpt lat="44.91024" lon="0.87777">
        <ele>195.8</ele>
        <time>1970-01-01T01:44:59.000Z</time>
      </trkpt>
      <trkpt lat="44.9102" lon="0.87771">
        <ele>195.8</ele>
        <time>1970-01-01T01:45:00.000Z</time>
      </trkpt>
      <trkpt lat="44.91017" lon="0.87766">
        <ele>195.9</ele>
        <time>1970-01-01T01:45:01.000Z</time>
      </trkpt>
      <trkpt lat="44.91013" lon="0.87761">
        <ele>196</ele>
        <time>1970-01-01T01:45:02.000Z</time>
      </trkpt>
      <trkpt lat="44.91009" lon="0.87757">
        <ele>196.1</ele>
        <time>1970-01-01T01:45:03.000Z</time>
      </trkpt>
      <trkpt lat="44.91005" lon="0.87753">
        <ele>196.1</ele>
        <time>1970-01-01T01:45:04.000Z</time>
      </trkpt>
      <trkpt lat="44.91001" lon="0.87749">
        <ele>196.3</ele>
        <time>1970-01-01T01:45:05.000Z</time>
      </trkpt>
      <trkpt lat="44.90997" lon="0.87745">
        <ele>196.4</ele>
        <time>1970-01-01T01:45:06.000Z</time>
      </trkpt>
      <trkpt lat="44.90993" lon="0.87742">
        <ele>196.5</ele>
        <time>1970-01-01T01:45:07.000Z</time>
      </trkpt>
      <trkpt lat="44.90989" lon="0.87739">
        <ele>196.7</ele>
        <time>1970-01-01T01:45:08.000Z</time>
      </trkpt>
      <trkpt lat="44.90984" lon="0.87736">
        <ele>196.8</ele>
        <time>1970-01-01T01:45:09.000Z</time>
      </trkpt>
      <trkpt lat="44.9098" lon="0.87733">
        <ele>197</ele>
        <time>1970-01-01T01:45:10.000Z</time>
      </trkpt>
      <trkpt lat="44.90976" lon="0.8773">
        <ele>197.1</ele>
        <time>1970-01-01T01:45:11.000Z</time>
      </trkpt>
      <trkpt lat="44.90972" lon="0.87727">
        <ele>197.3</ele>
        <time>1970-01-01T01:45:12.000Z</time>
      </trkpt>
      <trkpt lat="44.90968" lon="0.87724">
        <ele>197.4</ele>
        <time>1970-01-01T01:45:13.000Z</time>
      </trkpt>
      <trkpt lat="44.90964" lon="0.87722">
        <ele>197.5</ele>
        <time>1970-01-01T01:45:14.000Z</time>
      </trkpt>
      <trkpt lat="44.9096" lon="0.87721">
        <ele>197.6</ele>
        <time>1970-01-01T01:45:15.000Z</time>
      </trkpt>
      <trkpt lat="44.90957" lon="0.87719">
        <ele>197.6</ele>
        <time>1970-01-01T01:45:16.000Z</time>
      </trkpt>
      <trkpt lat="44.90953" lon="0.87718">
        <ele>197.7</ele>
        <time>1970-01-01T01:45:17.000Z</time>
      </trkpt>
      <trkpt lat="44.9095" lon="0.87717">
        <ele>197.7</ele>
        <time>1970-01-01T01:45:18.000Z</time>
      </trkpt>
      <trkpt lat="44.90946" lon="0.87716">
        <ele>197.7</ele>
        <time>1970-01-01T01:45:19.000Z</time>
      </trkpt>
      <trkpt lat="44.90944" lon="0.87714">
        <ele>197.7</ele>
        <time>1970-01-01T01:45:20.000Z</time>
      </trkpt>
      <trkpt lat="44.90941" lon="0.87712">
        <ele>197.8</ele>
        <time>1970-01-01T01:45:21.000Z</time>
      </trkpt>
      <trkpt lat="44.90942" lon="0.87712">
        <ele>197.8</ele>
        <time>1970-01-01T01:45:22.000Z</time>
      </trkpt>
      <trkpt lat="44.90943" lon="0.87712">
        <ele>197.9</ele>
        <time>1970-01-01T01:45:23.000Z</time>
      </trkpt>
      <trkpt lat="44.90945" lon="0.87713">
        <ele>197.9</ele>
        <time>1970-01-01T01:45:24.000Z</time>
      </trkpt>
      <trkpt lat="44.90947" lon="0.87712">
        <ele>197.9</ele>
        <time>1970-01-01T01:45:25.000Z</time>
      </trkpt>
      <trkpt lat="44.90949" lon="0.87711">
        <ele>198</ele>
        <time>1970-01-01T01:45:26.000Z</time>
      </trkpt>
      <trkpt lat="44.90951" lon="0.8771">
        <ele>198</ele>
        <time>1970-01-01T01:45:27.000Z</time>
      </trkpt>
      <trkpt lat="44.90953" lon="0.87708">
        <ele>198</ele>
        <time>1970-01-01T01:45:28.000Z</time>
      </trkpt>
      <trkpt lat="44.90954" lon="0.87707">
        <ele>198</ele>
        <time>1970-01-01T01:45:29.000Z</time>
      </trkpt>
      <trkpt lat="44.90955" lon="0.87705">
        <ele>198</ele>
        <time>1970-01-01T01:45:30.000Z</time>
      </trkpt>
      <trkpt lat="44.90957" lon="0.87704">
        <ele>198.1</ele>
        <time>1970-01-01T01:45:31.000Z</time>
      </trkpt>
      <trkpt lat="44.90959" lon="0.87702">
        <ele>198.1</ele>
        <time>1970-01-01T01:45:32.000Z</time>
      </trkpt>
      <trkpt lat="44.90961" lon="0.87701">
        <ele>198.1</ele>
        <time>1970-01-01T01:45:33.000Z</time>
      </trkpt>
      <trkpt lat="44.90964" lon="0.877">
        <ele>198.1</ele>
        <time>1970-01-01T01:45:34.000Z</time>
      </trkpt>
      <trkpt lat="44.90967" lon="0.87698">
        <ele>198.2</ele>
        <time>1970-01-01T01:45:35.000Z</time>
      </trkpt>
      <trkpt lat="44.90969" lon="0.87697">
        <ele>198.2</ele>
        <time>1970-01-01T01:45:36.000Z</time>
      </trkpt>
      <trkpt lat="44.90972" lon="0.87695">
        <ele>198.2</ele>
        <time>1970-01-01T01:45:37.000Z</time>
      </trkpt>
      <trkpt lat="44.90975" lon="0.87693">
        <ele>198.3</ele>
        <time>1970-01-01T01:45:38.000Z</time>
      </trkpt>
      <trkpt lat="44.90978" lon="0.87691">
        <ele>198.4</ele>
        <time>1970-01-01T01:45:39.000Z</time>
      </trkpt>
      <trkpt lat="44.90981" lon="0.87689">
        <ele>198.4</ele>
        <time>1970-01-01T01:45:40.000Z</time>
      </trkpt>
      <trkpt lat="44.90985" lon="0.87687">
        <ele>198.5</ele>
        <time>1970-01-01T01:45:41.000Z</time>
      </trkpt>
      <trkpt lat="44.90989" lon="0.87685">
        <ele>198.6</ele>
        <time>1970-01-01T01:45:42.000Z</time>
      </trkpt>
      <trkpt lat="44.90993" lon="0.87682">
        <ele>198.6</ele>
        <time>1970-01-01T01:45:43.000Z</time>
      </trkpt>
      <trkpt lat="44.90998" lon="0.87679">
        <ele>198.7</ele>
        <time>1970-01-01T01:45:44.000Z</time>
      </trkpt>
      <trkpt lat="44.91003" lon="0.87677">
        <ele>198.8</ele>
        <time>1970-01-01T01:45:45.000Z</time>
      </trkpt>
      <trkpt lat="44.91007" lon="0.87675">
        <ele>198.9</ele>
        <time>1970-01-01T01:45:46.000Z</time>
      </trkpt>
      <trkpt lat="44.91011" lon="0.87673">
        <ele>199</ele>
        <time>1970-01-01T01:45:47.000Z</time>
      </trkpt>
      <trkpt lat="44.91015" lon="0.87672">
        <ele>199.1</ele>
        <time>1970-01-01T01:45:48.000Z</time>
      </trkpt>
      <trkpt lat="44.91019" lon="0.8767">
        <ele>199.2</ele>
        <time>1970-01-01T01:45:49.000Z</time>
      </trkpt>
      <trkpt lat="44.91022" lon="0.87669">
        <ele>199.2</ele>
        <time>1970-01-01T01:45:50.000Z</time>
      </trkpt>
      <trkpt lat="44.91025" lon="0.87668">
        <ele>199.3</ele>
        <time>1970-01-01T01:45:51.000Z</time>
      </trkpt>
      <trkpt lat="44.91029" lon="0.87666">
        <ele>199.3</ele>
        <time>1970-01-01T01:45:52.000Z</time>
      </trkpt>
      <trkpt lat="44.91032" lon="0.87665">
        <ele>199.3</ele>
        <time>1970-01-01T01:45:53.000Z</time>
      </trkpt>
      <trkpt lat="44.91036" lon="0.87664">
        <ele>199.3</ele>
        <time>1970-01-01T01:45:54.000Z</time>
      </trkpt>
      <trkpt lat="44.91039" lon="0.87662">
        <ele>199.3</ele>
        <time>1970-01-01T01:45:55.000Z</time>
      </trkpt>
      <trkpt lat="44.91043" lon="0.87661">
        <ele>199.2</ele>
        <time>1970-01-01T01:45:56.000Z</time>
      </trkpt>
      <trkpt lat="44.91046" lon="0.8766">
        <ele>199.1</ele>
        <time>1970-01-01T01:45:57.000Z</time>
      </trkpt>
      <trkpt lat="44.9105" lon="0.87659">
        <ele>198.9</ele>
        <time>1970-01-01T01:45:58.000Z</time>
      </trkpt>
      <trkpt lat="44.91054" lon="0.87657">
        <ele>198.7</ele>
        <time>1970-01-01T01:45:59.000Z</time>
      </trkpt>
      <trkpt lat="44.91058" lon="0.87656">
        <ele>198.5</ele>
        <time>1970-01-01T01:46:00.000Z</time>
      </trkpt>
      <trkpt lat="44.91061" lon="0.87655">
        <ele>198.2</ele>
        <time>1970-01-01T01:46:01.000Z</time>
      </trkpt>
      <trkpt lat="44.91066" lon="0.87654">
        <ele>197.9</ele>
        <time>1970-01-01T01:46:02.000Z</time>
      </trkpt>
      <trkpt lat="44.9107" lon="0.87653">
        <ele>197.5</ele>
        <time>1970-01-01T01:46:03.000Z</time>
      </trkpt>
      <trkpt lat="44.91076" lon="0.87652">
        <ele>197</ele>
        <time>1970-01-01T01:46:04.000Z</time>
      </trkpt>
      <trkpt lat="44.91081" lon="0.87651">
        <ele>196.5</ele>
        <time>1970-01-01T01:46:05.000Z</time>
      </trkpt>
      <trkpt lat="44.91087" lon="0.87649">
        <ele>195.9</ele>
        <time>1970-01-01T01:46:06.000Z</time>
      </trkpt>
      <trkpt lat="44.91093" lon="0.87648">
        <ele>195.3</ele>
        <time>1970-01-01T01:46:07.000Z</time>
      </trkpt>
      <trkpt lat="44.91101" lon="0.87646">
        <ele>194.5</ele>
        <time>1970-01-01T01:46:08.000Z</time>
      </trkpt>
      <trkpt lat="44.91108" lon="0.87643">
        <ele>193.8</ele>
        <time>1970-01-01T01:46:09.000Z</time>
      </trkpt>
      <trkpt lat="44.91116" lon="0.87641">
        <ele>193.1</ele>
        <time>1970-01-01T01:46:10.000Z</time>
      </trkpt>
      <trkpt lat="44.91123" lon="0.87639">
        <ele>192.6</ele>
        <time>1970-01-01T01:46:11.000Z</time>
      </trkpt>
      <trkpt lat="44.9113" lon="0.87638">
        <ele>192</ele>
        <time>1970-01-01T01:46:12.000Z</time>
      </trkpt>
      <trkpt lat="44.91137" lon="0.87637">
        <ele>191.5</ele>
        <time>1970-01-01T01:46:13.000Z</time>
      </trkpt>
      <trkpt lat="44.91144" lon="0.87635">
        <ele>191</ele>
        <time>1970-01-01T01:46:14.000Z</time>
      </trkpt>
      <trkpt lat="44.91151" lon="0.87634">
        <ele>190.6</ele>
        <time>1970-01-01T01:46:15.000Z</time>
      </trkpt>
      <trkpt lat="44.91158" lon="0.87633">
        <ele>190.2</ele>
        <time>1970-01-01T01:46:16.000Z</time>
      </trkpt>
      <trkpt lat="44.91167" lon="0.8763">
        <ele>189.8</ele>
        <time>1970-01-01T01:46:17.000Z</time>
      </trkpt>
      <trkpt lat="44.91174" lon="0.87628">
        <ele>189.5</ele>
        <time>1970-01-01T01:46:18.000Z</time>
      </trkpt>
      <trkpt lat="44.91182" lon="0.87625">
        <ele>189.2</ele>
        <time>1970-01-01T01:46:19.000Z</time>
      </trkpt>
      <trkpt lat="44.91189" lon="0.87622">
        <ele>189.1</ele>
        <time>1970-01-01T01:46:20.000Z</time>
      </trkpt>
      <trkpt lat="44.91196" lon="0.87619">
        <ele>189</ele>
        <time>1970-01-01T01:46:21.000Z</time>
      </trkpt>
      <trkpt lat="44.91203" lon="0.87615">
        <ele>188.9</ele>
        <time>1970-01-01T01:46:22.000Z</time>
      </trkpt>
      <trkpt lat="44.9121" lon="0.8761">
        <ele>188.8</ele>
        <time>1970-01-01T01:46:23.000Z</time>
      </trkpt>
      <trkpt lat="44.91216" lon="0.87605">
        <ele>188.7</ele>
        <time>1970-01-01T01:46:24.000Z</time>
      </trkpt>
      <trkpt lat="44.91222" lon="0.87601">
        <ele>188.7</ele>
        <time>1970-01-01T01:46:25.000Z</time>
      </trkpt>
      <trkpt lat="44.91228" lon="0.87598">
        <ele>188.7</ele>
        <time>1970-01-01T01:46:26.000Z</time>
      </trkpt>
      <trkpt lat="44.91233" lon="0.87595">
        <ele>188.7</ele>
        <time>1970-01-01T01:46:27.000Z</time>
      </trkpt>
      <trkpt lat="44.91239" lon="0.87593">
        <ele>188.6</ele>
        <time>1970-01-01T01:46:28.000Z</time>
      </trkpt>
      <trkpt lat="44.91245" lon="0.87593">
        <ele>188.6</ele>
        <time>1970-01-01T01:46:29.000Z</time>
      </trkpt>
      <trkpt lat="44.9125" lon="0.87594">
        <ele>188.5</ele>
        <time>1970-01-01T01:46:30.000Z</time>
      </trkpt>
      <trkpt lat="44.91255" lon="0.87596">
        <ele>188.4</ele>
        <time>1970-01-01T01:46:31.000Z</time>
      </trkpt>
      <trkpt lat="44.91259" lon="0.87598">
        <ele>188.3</ele>
        <time>1970-01-01T01:46:32.000Z</time>
      </trkpt>
      <trkpt lat="44.91263" lon="0.87601">
        <ele>188.2</ele>
        <time>1970-01-01T01:46:33.000Z</time>
      </trkpt>
      <trkpt lat="44.91268" lon="0.87605">
        <ele>187.9</ele>
        <time>1970-01-01T01:46:34.000Z</time>
      </trkpt>
      <trkpt lat="44.91272" lon="0.8761">
        <ele>187.7</ele>
        <time>1970-01-01T01:46:35.000Z</time>
      </trkpt>
      <trkpt lat="44.91276" lon="0.87615">
        <ele>187.4</ele>
        <time>1970-01-01T01:46:36.000Z</time>
      </trkpt>
      <trkpt lat="44.91281" lon="0.87622">
        <ele>186.9</ele>
        <time>1970-01-01T01:46:37.000Z</time>
      </trkpt>
      <trkpt lat="44.91286" lon="0.87629">
        <ele>186.4</ele>
        <time>1970-01-01T01:46:38.000Z</time>
      </trkpt>
      <trkpt lat="44.91291" lon="0.87637">
        <ele>185.7</ele>
        <time>1970-01-01T01:46:39.000Z</time>
      </trkpt>
      <trkpt lat="44.91295" lon="0.87646">
        <ele>185</ele>
        <time>1970-01-01T01:46:40.000Z</time>
      </trkpt>
      <trkpt lat="44.91299" lon="0.87654">
        <ele>184.3</ele>
        <time>1970-01-01T01:46:41.000Z</time>
      </trkpt>
      <trkpt lat="44.91304" lon="0.87663">
        <ele>183.5</ele>
        <time>1970-01-01T01:46:42.000Z</time>
      </trkpt>
      <trkpt lat="44.91308" lon="0.87673">
        <ele>182.6</ele>
        <time>1970-01-01T01:46:43.000Z</time>
      </trkpt>
      <trkpt lat="44.91313" lon="0.87684">
        <ele>181.5</ele>
        <time>1970-01-01T01:46:44.000Z</time>
      </trkpt>
      <trkpt lat="44.91318" lon="0.87696">
        <ele>180.3</ele>
        <time>1970-01-01T01:46:45.000Z</time>
      </trkpt>
      <trkpt lat="44.91323" lon="0.8771">
        <ele>179.1</ele>
        <time>1970-01-01T01:46:46.000Z</time>
      </trkpt>
      <trkpt lat="44.91329" lon="0.87724">
        <ele>178.1</ele>
        <time>1970-01-01T01:46:47.000Z</time>
      </trkpt>
      <trkpt lat="44.91334" lon="0.87739">
        <ele>176.9</ele>
        <time>1970-01-01T01:46:48.000Z</time>
      </trkpt>
      <trkpt lat="44.9134" lon="0.87751">
        <ele>176</ele>
        <time>1970-01-01T01:46:49.000Z</time>
      </trkpt>
      <trkpt lat="44.91347" lon="0.87764">
        <ele>175.6</ele>
        <time>1970-01-01T01:46:50.000Z</time>
      </trkpt>
      <trkpt lat="44.91354" lon="0.87776">
        <ele>175.3</ele>
        <time>1970-01-01T01:46:51.000Z</time>
      </trkpt>
      <trkpt lat="44.91361" lon="0.87788">
        <ele>175.2</ele>
        <time>1970-01-01T01:46:52.000Z</time>
      </trkpt>
      <trkpt lat="44.91368" lon="0.87798">
        <ele>175.3</ele>
        <time>1970-01-01T01:46:53.000Z</time>
      </trkpt>
      <trkpt lat="44.91374" lon="0.87806">
        <ele>175.5</ele>
        <time>1970-01-01T01:46:54.000Z</time>
      </trkpt>
      <trkpt lat="44.91381" lon="0.87814">
        <ele>175.7</ele>
        <time>1970-01-01T01:46:55.000Z</time>
      </trkpt>
      <trkpt lat="44.91387" lon="0.8782">
        <ele>175.9</ele>
        <time>1970-01-01T01:46:56.000Z</time>
      </trkpt>
      <trkpt lat="44.91394" lon="0.87826">
        <ele>176.2</ele>
        <time>1970-01-01T01:46:57.000Z</time>
      </trkpt>
      <trkpt lat="44.914" lon="0.8783">
        <ele>176.5</ele>
        <time>1970-01-01T01:46:58.000Z</time>
      </trkpt>
      <trkpt lat="44.91406" lon="0.87834">
        <ele>176.7</ele>
        <time>1970-01-01T01:46:59.000Z</time>
      </trkpt>
      <trkpt lat="44.91412" lon="0.87837">
        <ele>177</ele>
        <time>1970-01-01T01:47:00.000Z</time>
      </trkpt>
      <trkpt lat="44.91417" lon="0.8784">
        <ele>177.2</ele>
        <time>1970-01-01T01:47:01.000Z</time>
      </trkpt>
      <trkpt lat="44.91422" lon="0.87843">
        <ele>177.4</ele>
        <time>1970-01-01T01:47:02.000Z</time>
      </trkpt>
      <trkpt lat="44.91427" lon="0.87846">
        <ele>177.6</ele>
        <time>1970-01-01T01:47:03.000Z</time>
      </trkpt>
      <trkpt lat="44.91432" lon="0.87849">
        <ele>177.8</ele>
        <time>1970-01-01T01:47:04.000Z</time>
      </trkpt>
      <trkpt lat="44.91436" lon="0.87853">
        <ele>178</ele>
        <time>1970-01-01T01:47:05.000Z</time>
      </trkpt>
      <trkpt lat="44.91441" lon="0.87856">
        <ele>178.2</ele>
        <time>1970-01-01T01:47:06.000Z</time>
      </trkpt>
      <trkpt lat="44.91445" lon="0.87859">
        <ele>178.4</ele>
        <time>1970-01-01T01:47:07.000Z</time>
      </trkpt>
      <trkpt lat="44.91449" lon="0.87861">
        <ele>178.6</ele>
        <time>1970-01-01T01:47:08.000Z</time>
      </trkpt>
      <trkpt lat="44.91454" lon="0.87862">
        <ele>178.8</ele>
        <time>1970-01-01T01:47:09.000Z</time>
      </trkpt>
      <trkpt lat="44.91459" lon="0.87864">
        <ele>179</ele>
        <time>1970-01-01T01:47:10.000Z</time>
      </trkpt>
      <trkpt lat="44.91464" lon="0.87865">
        <ele>179.2</ele>
        <time>1970-01-01T01:47:11.000Z</time>
      </trkpt>
      <trkpt lat="44.91469" lon="0.87866">
        <ele>179.4</ele>
        <time>1970-01-01T01:47:12.000Z</time>
      </trkpt>
      <trkpt lat="44.91473" lon="0.87867">
        <ele>179.6</ele>
        <time>1970-01-01T01:47:13.000Z</time>
      </trkpt>
      <trkpt lat="44.91475" lon="0.87868">
        <ele>179.7</ele>
        <time>1970-01-01T01:47:14.000Z</time>
      </trkpt>
      <trkpt lat="44.91478" lon="0.8787">
        <ele>179.9</ele>
        <time>1970-01-01T01:47:15.000Z</time>
      </trkpt>
      <trkpt lat="44.9148" lon="0.87873">
        <ele>180.1</ele>
        <time>1970-01-01T01:47:16.000Z</time>
      </trkpt>
      <trkpt lat="44.91483" lon="0.87876">
        <ele>180.3</ele>
        <time>1970-01-01T01:47:17.000Z</time>
      </trkpt>
      <trkpt lat="44.91486" lon="0.87879">
        <ele>180.6</ele>
        <time>1970-01-01T01:47:18.000Z</time>
      </trkpt>
      <trkpt lat="44.91489" lon="0.87882">
        <ele>180.9</ele>
        <time>1970-01-01T01:47:19.000Z</time>
      </trkpt>
      <trkpt lat="44.91493" lon="0.87884">
        <ele>181.3</ele>
        <time>1970-01-01T01:47:20.000Z</time>
      </trkpt>
      <trkpt lat="44.91497" lon="0.87887">
        <ele>181.8</ele>
        <time>1970-01-01T01:47:21.000Z</time>
      </trkpt>
      <trkpt lat="44.915" lon="0.8789">
        <ele>182.2</ele>
        <time>1970-01-01T01:47:22.000Z</time>
      </trkpt>
      <trkpt lat="44.91502" lon="0.87892">
        <ele>182.6</ele>
        <time>1970-01-01T01:47:23.000Z</time>
      </trkpt>
      <trkpt lat="44.91505" lon="0.87895">
        <ele>182.9</ele>
        <time>1970-01-01T01:47:24.000Z</time>
      </trkpt>
      <trkpt lat="44.91507" lon="0.87898">
        <ele>183.3</ele>
        <time>1970-01-01T01:47:25.000Z</time>
      </trkpt>
      <trkpt lat="44.91509" lon="0.87902">
        <ele>183.6</ele>
        <time>1970-01-01T01:47:26.000Z</time>
      </trkpt>
      <trkpt lat="44.91511" lon="0.87905">
        <ele>184</ele>
        <time>1970-01-01T01:47:27.000Z</time>
      </trkpt>
      <trkpt lat="44.91513" lon="0.87908">
        <ele>184.3</ele>
        <time>1970-01-01T01:47:28.000Z</time>
      </trkpt>
      <trkpt lat="44.91515" lon="0.87911">
        <ele>184.6</ele>
        <time>1970-01-01T01:47:29.000Z</time>
      </trkpt>
      <trkpt lat="44.91517" lon="0.87914">
        <ele>185</ele>
        <time>1970-01-01T01:47:30.000Z</time>
      </trkpt>
      <trkpt lat="44.91518" lon="0.87916">
        <ele>185.3</ele>
        <time>1970-01-01T01:47:31.000Z</time>
      </trkpt>
      <trkpt lat="44.9152" lon="0.87919">
        <ele>185.6</ele>
        <time>1970-01-01T01:47:32.000Z</time>
      </trkpt>
      <trkpt lat="44.91522" lon="0.87923">
        <ele>185.9</ele>
        <time>1970-01-01T01:47:33.000Z</time>
      </trkpt>
      <trkpt lat="44.91524" lon="0.87926">
        <ele>186.2</ele>
        <time>1970-01-01T01:47:34.000Z</time>
      </trkpt>
      <trkpt lat="44.91525" lon="0.8793">
        <ele>186.5</ele>
        <time>1970-01-01T01:47:35.000Z</time>
      </trkpt>
      <trkpt lat="44.91526" lon="0.87934">
        <ele>186.7</ele>
        <time>1970-01-01T01:47:36.000Z</time>
      </trkpt>
      <trkpt lat="44.91528" lon="0.87938">
        <ele>187</ele>
        <time>1970-01-01T01:47:37.000Z</time>
      </trkpt>
      <trkpt lat="44.91531" lon="0.87943">
        <ele>187.2</ele>
        <time>1970-01-01T01:47:38.000Z</time>
      </trkpt>
      <trkpt lat="44.91533" lon="0.87948">
        <ele>187.3</ele>
        <time>1970-01-01T01:47:39.000Z</time>
      </trkpt>
      <trkpt lat="44.91535" lon="0.87954">
        <ele>187.4</ele>
        <time>1970-01-01T01:47:40.000Z</time>
      </trkpt>
      <trkpt lat="44.91538" lon="0.8796">
        <ele>187.3</ele>
        <time>1970-01-01T01:47:41.000Z</time>
      </trkpt>
      <trkpt lat="44.91541" lon="0.87967">
        <ele>187.2</ele>
        <time>1970-01-01T01:47:42.000Z</time>
      </trkpt>
      <trkpt lat="44.91545" lon="0.87973">
        <ele>186.9</ele>
        <time>1970-01-01T01:47:43.000Z</time>
      </trkpt>
      <trkpt lat="44.91551" lon="0.87979">
        <ele>186.5</ele>
        <time>1970-01-01T01:47:44.000Z</time>
      </trkpt>
      <trkpt lat="44.91557" lon="0.87986">
        <ele>185.9</ele>
        <time>1970-01-01T01:47:45.000Z</time>
      </trkpt>
      <trkpt lat="44.91563" lon="0.87994">
        <ele>185.2</ele>
        <time>1970-01-01T01:47:46.000Z</time>
      </trkpt>
      <trkpt lat="44.91567" lon="0.88004">
        <ele>184.4</ele>
        <time>1970-01-01T01:47:47.000Z</time>
      </trkpt>
      <trkpt lat="44.9157" lon="0.88015">
        <ele>183.7</ele>
        <time>1970-01-01T01:47:48.000Z</time>
      </trkpt>
      <trkpt lat="44.9157" lon="0.88026">
        <ele>183</ele>
        <time>1970-01-01T01:47:49.000Z</time>
      </trkpt>
      <trkpt lat="44.91567" lon="0.88035">
        <ele>182.5</ele>
        <time>1970-01-01T01:47:50.000Z</time>
      </trkpt>
      <trkpt lat="44.91561" lon="0.88041">
        <ele>182</ele>
        <time>1970-01-01T01:47:51.000Z</time>
      </trkpt>
      <trkpt lat="44.91556" lon="0.88045">
        <ele>181.7</ele>
        <time>1970-01-01T01:47:52.000Z</time>
      </trkpt>
      <trkpt lat="44.91551" lon="0.88049">
        <ele>181.5</ele>
        <time>1970-01-01T01:47:53.000Z</time>
      </trkpt>
      <trkpt lat="44.91546" lon="0.88053">
        <ele>181.5</ele>
        <time>1970-01-01T01:47:54.000Z</time>
      </trkpt>
      <trkpt lat="44.91542" lon="0.88058">
        <ele>181.5</ele>
        <time>1970-01-01T01:47:55.000Z</time>
      </trkpt>
      <trkpt lat="44.91537" lon="0.88063">
        <ele>181.6</ele>
        <time>1970-01-01T01:47:56.000Z</time>
      </trkpt>
      <trkpt lat="44.91532" lon="0.88069">
        <ele>181.7</ele>
        <time>1970-01-01T01:47:57.000Z</time>
      </trkpt>
      <trkpt lat="44.91527" lon="0.88075">
        <ele>181.8</ele>
        <time>1970-01-01T01:47:58.000Z</time>
      </trkpt>
      <trkpt lat="44.91522" lon="0.88081">
        <ele>181.9</ele>
        <time>1970-01-01T01:47:59.000Z</time>
      </trkpt>
      <trkpt lat="44.91518" lon="0.88086">
        <ele>182</ele>
        <time>1970-01-01T01:48:00.000Z</time>
      </trkpt>
      <trkpt lat="44.91514" lon="0.88092">
        <ele>182.1</ele>
        <time>1970-01-01T01:48:01.000Z</time>
      </trkpt>
      <trkpt lat="44.91511" lon="0.88099">
        <ele>182.2</ele>
        <time>1970-01-01T01:48:02.000Z</time>
      </trkpt>
      <trkpt lat="44.91509" lon="0.88106">
        <ele>182.4</ele>
        <time>1970-01-01T01:48:03.000Z</time>
      </trkpt>
      <trkpt lat="44.91507" lon="0.88112">
        <ele>182.5</ele>
        <time>1970-01-01T01:48:04.000Z</time>
      </trkpt>
      <trkpt lat="44.91507" lon="0.88119">
        <ele>182.7</ele>
        <time>1970-01-01T01:48:05.000Z</time>
      </trkpt>
      <trkpt lat="44.91507" lon="0.88126">
        <ele>182.9</ele>
        <time>1970-01-01T01:48:06.000Z</time>
      </trkpt>
      <trkpt lat="44.91509" lon="0.88133">
        <ele>183.1</ele>
        <time>1970-01-01T01:48:07.000Z</time>
      </trkpt>
      <trkpt lat="44.91512" lon="0.88138">
        <ele>183.4</ele>
        <time>1970-01-01T01:48:08.000Z</time>
      </trkpt>
      <trkpt lat="44.91515" lon="0.88143">
        <ele>183.6</ele>
        <time>1970-01-01T01:48:09.000Z</time>
      </trkpt>
      <trkpt lat="44.91518" lon="0.88147">
        <ele>184</ele>
        <time>1970-01-01T01:48:10.000Z</time>
      </trkpt>
      <trkpt lat="44.91522" lon="0.88151">
        <ele>184.3</ele>
        <time>1970-01-01T01:48:11.000Z</time>
      </trkpt>
      <trkpt lat="44.91527" lon="0.88155">
        <ele>184.6</ele>
        <time>1970-01-01T01:48:12.000Z</time>
      </trkpt>
      <trkpt lat="44.91531" lon="0.88159">
        <ele>185</ele>
        <time>1970-01-01T01:48:13.000Z</time>
      </trkpt>
      <trkpt lat="44.91534" lon="0.88163">
        <ele>185.2</ele>
        <time>1970-01-01T01:48:14.000Z</time>
      </trkpt>
      <trkpt lat="44.91537" lon="0.88167">
        <ele>185.6</ele>
        <time>1970-01-01T01:48:15.000Z</time>
      </trkpt>
      <trkpt lat="44.9154" lon="0.88171">
        <ele>185.7</ele>
        <time>1970-01-01T01:48:16.000Z</time>
      </trkpt>
      <trkpt lat="44.91542" lon="0.88174">
        <ele>185.9</ele>
        <time>1970-01-01T01:48:17.000Z</time>
      </trkpt>
      <trkpt lat="44.91544" lon="0.88178">
        <ele>186.1</ele>
        <time>1970-01-01T01:48:18.000Z</time>
      </trkpt>
      <trkpt lat="44.91545" lon="0.88182">
        <ele>186.2</ele>
        <time>1970-01-01T01:48:19.000Z</time>
      </trkpt>
      <trkpt lat="44.91546" lon="0.88186">
        <ele>186.4</ele>
        <time>1970-01-01T01:48:20.000Z</time>
      </trkpt>
      <trkpt lat="44.91547" lon="0.88189">
        <ele>186.6</ele>
        <time>1970-01-01T01:48:21.000Z</time>
      </trkpt>
      <trkpt lat="44.91548" lon="0.88193">
        <ele>186.7</ele>
        <time>1970-01-01T01:48:22.000Z</time>
      </trkpt>
      <trkpt lat="44.9155" lon="0.88196">
        <ele>186.9</ele>
        <time>1970-01-01T01:48:23.000Z</time>
      </trkpt>
      <trkpt lat="44.91551" lon="0.88199">
        <ele>187</ele>
        <time>1970-01-01T01:48:24.000Z</time>
      </trkpt>
      <trkpt lat="44.91552" lon="0.88203">
        <ele>187.2</ele>
        <time>1970-01-01T01:48:25.000Z</time>
      </trkpt>
      <trkpt lat="44.91554" lon="0.88206">
        <ele>187.3</ele>
        <time>1970-01-01T01:48:26.000Z</time>
      </trkpt>
      <trkpt lat="44.91555" lon="0.8821">
        <ele>187.5</ele>
        <time>1970-01-01T01:48:27.000Z</time>
      </trkpt>
      <trkpt lat="44.91556" lon="0.88213">
        <ele>187.6</ele>
        <time>1970-01-01T01:48:28.000Z</time>
      </trkpt>
      <trkpt lat="44.91557" lon="0.88217">
        <ele>187.8</ele>
        <time>1970-01-01T01:48:29.000Z</time>
      </trkpt>
      <trkpt lat="44.91558" lon="0.8822">
        <ele>187.9</ele>
        <time>1970-01-01T01:48:30.000Z</time>
      </trkpt>
      <trkpt lat="44.9156" lon="0.88223">
        <ele>188</ele>
        <time>1970-01-01T01:48:31.000Z</time>
      </trkpt>
      <trkpt lat="44.91561" lon="0.88227">
        <ele>188.2</ele>
        <time>1970-01-01T01:48:32.000Z</time>
      </trkpt>
      <trkpt lat="44.91563" lon="0.8823">
        <ele>188.3</ele>
        <time>1970-01-01T01:48:33.000Z</time>
      </trkpt>
      <trkpt lat="44.91564" lon="0.88233">
        <ele>188.4</ele>
        <time>1970-01-01T01:48:34.000Z</time>
      </trkpt>
      <trkpt lat="44.91566" lon="0.88237">
        <ele>188.6</ele>
        <time>1970-01-01T01:48:35.000Z</time>
      </trkpt>
      <trkpt lat="44.91567" lon="0.8824">
        <ele>188.7</ele>
        <time>1970-01-01T01:48:36.000Z</time>
      </trkpt>
      <trkpt lat="44.91569" lon="0.88244">
        <ele>188.8</ele>
        <time>1970-01-01T01:48:37.000Z</time>
      </trkpt>
      <trkpt lat="44.9157" lon="0.88248">
        <ele>189</ele>
        <time>1970-01-01T01:48:38.000Z</time>
      </trkpt>
      <trkpt lat="44.91571" lon="0.88252">
        <ele>189.1</ele>
        <time>1970-01-01T01:48:39.000Z</time>
      </trkpt>
      <trkpt lat="44.91573" lon="0.88255">
        <ele>189.3</ele>
        <time>1970-01-01T01:48:40.000Z</time>
      </trkpt>
      <trkpt lat="44.91573" lon="0.88259">
        <ele>189.4</ele>
        <time>1970-01-01T01:48:41.000Z</time>
      </trkpt>
      <trkpt lat="44.91574" lon="0.88263">
        <ele>189.6</ele>
        <time>1970-01-01T01:48:42.000Z</time>
      </trkpt>
      <trkpt lat="44.91575" lon="0.88266">
        <ele>189.7</ele>
        <time>1970-01-01T01:48:43.000Z</time>
      </trkpt>
      <trkpt lat="44.91575" lon="0.8827">
        <ele>189.9</ele>
        <time>1970-01-01T01:48:44.000Z</time>
      </trkpt>
      <trkpt lat="44.91575" lon="0.88273">
        <ele>190</ele>
        <time>1970-01-01T01:48:45.000Z</time>
      </trkpt>
      <trkpt lat="44.91576" lon="0.88276">
        <ele>190.2</ele>
        <time>1970-01-01T01:48:46.000Z</time>
      </trkpt>
      <trkpt lat="44.91576" lon="0.8828">
        <ele>190.3</ele>
        <time>1970-01-01T01:48:47.000Z</time>
      </trkpt>
      <trkpt lat="44.91577" lon="0.88283">
        <ele>190.5</ele>
        <time>1970-01-01T01:48:48.000Z</time>
      </trkpt>
      <trkpt lat="44.91577" lon="0.88286">
        <ele>190.6</ele>
        <time>1970-01-01T01:48:49.000Z</time>
      </trkpt>
      <trkpt lat="44.91577" lon="0.8829">
        <ele>190.8</ele>
        <time>1970-01-01T01:48:50.000Z</time>
      </trkpt>
      <trkpt lat="44.91577" lon="0.88293">
        <ele>190.9</ele>
        <time>1970-01-01T01:48:51.000Z</time>
      </trkpt>
      <trkpt lat="44.91577" lon="0.88296">
        <ele>191</ele>
        <time>1970-01-01T01:48:52.000Z</time>
      </trkpt>
      <trkpt lat="44.91577" lon="0.88299">
        <ele>191.2</ele>
        <time>1970-01-01T01:48:53.000Z</time>
      </trkpt>
      <trkpt lat="44.91578" lon="0.88303">
        <ele>191.3</ele>
        <time>1970-01-01T01:48:54.000Z</time>
      </trkpt>
      <trkpt lat="44.91578" lon="0.88306">
        <ele>191.5</ele>
        <time>1970-01-01T01:48:55.000Z</time>
      </trkpt>
      <trkpt lat="44.91578" lon="0.88309">
        <ele>191.6</ele>
        <time>1970-01-01T01:48:56.000Z</time>
      </trkpt>
      <trkpt lat="44.91578" lon="0.88312">
        <ele>191.7</ele>
        <time>1970-01-01T01:48:57.000Z</time>
      </trkpt>
      <trkpt lat="44.91578" lon="0.88315">
        <ele>191.9</ele>
        <time>1970-01-01T01:48:58.000Z</time>
      </trkpt>
      <trkpt lat="44.91578" lon="0.88318">
        <ele>192</ele>
        <time>1970-01-01T01:48:59.000Z</time>
      </trkpt>
      <trkpt lat="44.91577" lon="0.88321">
        <ele>192.2</ele>
        <time>1970-01-01T01:49:00.000Z</time>
      </trkpt>
      <trkpt lat="44.91577" lon="0.88325">
        <ele>192.3</ele>
        <time>1970-01-01T01:49:01.000Z</time>
      </trkpt>
      <trkpt lat="44.91577" lon="0.88328">
        <ele>192.5</ele>
        <time>1970-01-01T01:49:02.000Z</time>
      </trkpt>
      <trkpt lat="44.91576" lon="0.88331">
        <ele>192.6</ele>
        <time>1970-01-01T01:49:03.000Z</time>
      </trkpt>
      <trkpt lat="44.91576" lon="0.88334">
        <ele>192.8</ele>
        <time>1970-01-01T01:49:04.000Z</time>
      </trkpt>
      <trkpt lat="44.91575" lon="0.88336">
        <ele>192.9</ele>
        <time>1970-01-01T01:49:05.000Z</time>
      </trkpt>
      <trkpt lat="44.91574" lon="0.88339">
        <ele>193.1</ele>
        <time>1970-01-01T01:49:06.000Z</time>
      </trkpt>
      <trkpt lat="44.91573" lon="0.88342">
        <ele>193.2</ele>
        <time>1970-01-01T01:49:07.000Z</time>
      </trkpt>
      <trkpt lat="44.91573" lon="0.88345">
        <ele>193.4</ele>
        <time>1970-01-01T01:49:08.000Z</time>
      </trkpt>
      <trkpt lat="44.91572" lon="0.88347">
        <ele>193.5</ele>
        <time>1970-01-01T01:49:09.000Z</time>
      </trkpt>
      <trkpt lat="44.91571" lon="0.8835">
        <ele>193.7</ele>
        <time>1970-01-01T01:49:10.000Z</time>
      </trkpt>
      <trkpt lat="44.9157" lon="0.88353">
        <ele>193.9</ele>
        <time>1970-01-01T01:49:11.000Z</time>
      </trkpt>
      <trkpt lat="44.91568" lon="0.88355">
        <ele>194.1</ele>
        <time>1970-01-01T01:49:12.000Z</time>
      </trkpt>
      <trkpt lat="44.91567" lon="0.88358">
        <ele>194.2</ele>
        <time>1970-01-01T01:49:13.000Z</time>
      </trkpt>
      <trkpt lat="44.91565" lon="0.8836">
        <ele>194.5</ele>
        <time>1970-01-01T01:49:14.000Z</time>
      </trkpt>
      <trkpt lat="44.91564" lon="0.88363">
        <ele>194.7</ele>
        <time>1970-01-01T01:49:15.000Z</time>
      </trkpt>
      <trkpt lat="44.91562" lon="0.88365">
        <ele>194.8</ele>
        <time>1970-01-01T01:49:16.000Z</time>
      </trkpt>
      <trkpt lat="44.91561" lon="0.88367">
        <ele>195</ele>
        <time>1970-01-01T01:49:17.000Z</time>
      </trkpt>
      <trkpt lat="44.9156" lon="0.88369">
        <ele>195.2</ele>
        <time>1970-01-01T01:49:18.000Z</time>
      </trkpt>
      <trkpt lat="44.91559" lon="0.88371">
        <ele>195.4</ele>
        <time>1970-01-01T01:49:19.000Z</time>
      </trkpt>
      <trkpt lat="44.91557" lon="0.88373">
        <ele>195.5</ele>
        <time>1970-01-01T01:49:20.000Z</time>
      </trkpt>
      <trkpt lat="44.91556" lon="0.88375">
        <ele>195.7</ele>
        <time>1970-01-01T01:49:21.000Z</time>
      </trkpt>
      <trkpt lat="44.91555" lon="0.88376">
        <ele>195.9</ele>
        <time>1970-01-01T01:49:22.000Z</time>
      </trkpt>
      <trkpt lat="44.91553" lon="0.88378">
        <ele>196</ele>
        <time>1970-01-01T01:49:23.000Z</time>
      </trkpt>
      <trkpt lat="44.91552" lon="0.8838">
        <ele>196.2</ele>
        <time>1970-01-01T01:49:24.000Z</time>
      </trkpt>
      <trkpt lat="44.91551" lon="0.88381">
        <ele>196.3</ele>
        <time>1970-01-01T01:49:25.000Z</time>
      </trkpt>
      <trkpt lat="44.9155" lon="0.88383">
        <ele>196.4</ele>
        <time>1970-01-01T01:49:26.000Z</time>
      </trkpt>
      <trkpt lat="44.91549" lon="0.88384">
        <ele>196.6</ele>
        <time>1970-01-01T01:49:27.000Z</time>
      </trkpt>
      <trkpt lat="44.91548" lon="0.88386">
        <ele>196.7</ele>
        <time>1970-01-01T01:49:28.000Z</time>
      </trkpt>
      <trkpt lat="44.91546" lon="0.88387">
        <ele>196.8</ele>
        <time>1970-01-01T01:49:29.000Z</time>
      </trkpt>
      <trkpt lat="44.91545" lon="0.88389">
        <ele>197</ele>
        <time>1970-01-01T01:49:30.000Z</time>
      </trkpt>
      <trkpt lat="44.91543" lon="0.88391">
        <ele>197.2</ele>
        <time>1970-01-01T01:49:31.000Z</time>
      </trkpt>
      <trkpt lat="44.91542" lon="0.88393">
        <ele>197.3</ele>
        <time>1970-01-01T01:49:32.000Z</time>
      </trkpt>
      <trkpt lat="44.9154" lon="0.88394">
        <ele>197.5</ele>
        <time>1970-01-01T01:49:33.000Z</time>
      </trkpt>
      <trkpt lat="44.91539" lon="0.88396">
        <ele>197.6</ele>
        <time>1970-01-01T01:49:34.000Z</time>
      </trkpt>
      <trkpt lat="44.91538" lon="0.88397">
        <ele>197.7</ele>
        <time>1970-01-01T01:49:35.000Z</time>
      </trkpt>
      <trkpt lat="44.91537" lon="0.88398">
        <ele>197.8</ele>
        <time>1970-01-01T01:49:36.000Z</time>
      </trkpt>
      <trkpt lat="44.91536" lon="0.88399">
        <ele>197.9</ele>
        <time>1970-01-01T01:49:37.000Z</time>
      </trkpt>
      <trkpt lat="44.91535" lon="0.884">
        <ele>198</ele>
        <time>1970-01-01T01:49:38.000Z</time>
      </trkpt>
      <trkpt lat="44.91534" lon="0.88401">
        <ele>198.1</ele>
        <time>1970-01-01T01:49:39.000Z</time>
      </trkpt>
      <trkpt lat="44.91532" lon="0.88402">
        <ele>198.3</ele>
        <time>1970-01-01T01:49:40.000Z</time>
      </trkpt>
      <trkpt lat="44.91532" lon="0.88403">
        <ele>198.4</ele>
        <time>1970-01-01T01:49:41.000Z</time>
      </trkpt>
      <trkpt lat="44.91531" lon="0.88405">
        <ele>198.5</ele>
        <time>1970-01-01T01:49:42.000Z</time>
      </trkpt>
      <trkpt lat="44.9153" lon="0.88407">
        <ele>198.7</ele>
        <time>1970-01-01T01:49:43.000Z</time>
      </trkpt>
      <trkpt lat="44.91529" lon="0.88409">
        <ele>198.8</ele>
        <time>1970-01-01T01:49:44.000Z</time>
      </trkpt>
      <trkpt lat="44.91527" lon="0.8841">
        <ele>199</ele>
        <time>1970-01-01T01:49:45.000Z</time>
      </trkpt>
      <trkpt lat="44.91526" lon="0.88412">
        <ele>199.1</ele>
        <time>1970-01-01T01:49:46.000Z</time>
      </trkpt>
      <trkpt lat="44.91525" lon="0.88413">
        <ele>199.3</ele>
        <time>1970-01-01T01:49:47.000Z</time>
      </trkpt>
      <trkpt lat="44.91524" lon="0.88415">
        <ele>199.5</ele>
        <time>1970-01-01T01:49:48.000Z</time>
      </trkpt>
      <trkpt lat="44.91522" lon="0.88416">
        <ele>199.6</ele>
        <time>1970-01-01T01:49:49.000Z</time>
      </trkpt>
      <trkpt lat="44.91521" lon="0.88418">
        <ele>199.8</ele>
        <time>1970-01-01T01:49:50.000Z</time>
      </trkpt>
      <trkpt lat="44.9152" lon="0.88419">
        <ele>199.9</ele>
        <time>1970-01-01T01:49:51.000Z</time>
      </trkpt>
      <trkpt lat="44.91518" lon="0.8842">
        <ele>200.1</ele>
        <time>1970-01-01T01:49:52.000Z</time>
      </trkpt>
      <trkpt lat="44.91517" lon="0.88422">
        <ele>200.2</ele>
        <time>1970-01-01T01:49:53.000Z</time>
      </trkpt>
      <trkpt lat="44.91516" lon="0.88424">
        <ele>200.4</ele>
        <time>1970-01-01T01:49:54.000Z</time>
      </trkpt>
      <trkpt lat="44.91514" lon="0.88425">
        <ele>200.5</ele>
        <time>1970-01-01T01:49:55.000Z</time>
      </trkpt>
      <trkpt lat="44.91513" lon="0.88427">
        <ele>200.7</ele>
        <time>1970-01-01T01:49:56.000Z</time>
      </trkpt>
      <trkpt lat="44.91511" lon="0.88429">
        <ele>200.8</ele>
        <time>1970-01-01T01:49:57.000Z</time>
      </trkpt>
      <trkpt lat="44.91509" lon="0.8843">
        <ele>201</ele>
        <time>1970-01-01T01:49:58.000Z</time>
      </trkpt>
      <trkpt lat="44.91507" lon="0.88433">
        <ele>201.2</ele>
        <time>1970-01-01T01:49:59.000Z</time>
      </trkpt>
      <trkpt lat="44.91505" lon="0.88435">
        <ele>201.3</ele>
        <time>1970-01-01T01:50:00.000Z</time>
      </trkpt>
      <trkpt lat="44.91503" lon="0.88437">
        <ele>201.4</ele>
        <time>1970-01-01T01:50:01.000Z</time>
      </trkpt>
      <trkpt lat="44.91501" lon="0.88438">
        <ele>201.5</ele>
        <time>1970-01-01T01:50:02.000Z</time>
      </trkpt>
      <trkpt lat="44.91499" lon="0.88439">
        <ele>201.6</ele>
        <time>1970-01-01T01:50:03.000Z</time>
      </trkpt>
      <trkpt lat="44.91498" lon="0.88441">
        <ele>201.7</ele>
        <time>1970-01-01T01:50:04.000Z</time>
      </trkpt>
      <trkpt lat="44.91496" lon="0.88442">
        <ele>201.7</ele>
        <time>1970-01-01T01:50:05.000Z</time>
      </trkpt>
      <trkpt lat="44.91495" lon="0.88443">
        <ele>201.8</ele>
        <time>1970-01-01T01:50:06.000Z</time>
      </trkpt>
      <trkpt lat="44.91493" lon="0.88445">
        <ele>201.8</ele>
        <time>1970-01-01T01:50:07.000Z</time>
      </trkpt>
      <trkpt lat="44.91492" lon="0.88447">
        <ele>201.8</ele>
        <time>1970-01-01T01:50:08.000Z</time>
      </trkpt>
      <trkpt lat="44.91489" lon="0.8845">
        <ele>201.8</ele>
        <time>1970-01-01T01:50:09.000Z</time>
      </trkpt>
      <trkpt lat="44.91485" lon="0.88453">
        <ele>201.8</ele>
        <time>1970-01-01T01:50:10.000Z</time>
      </trkpt>
      <trkpt lat="44.91482" lon="0.88457">
        <ele>201.8</ele>
        <time>1970-01-01T01:50:11.000Z</time>
      </trkpt>
      <trkpt lat="44.91479" lon="0.88461">
        <ele>201.7</ele>
        <time>1970-01-01T01:50:12.000Z</time>
      </trkpt>
      <trkpt lat="44.91475" lon="0.88464">
        <ele>201.6</ele>
        <time>1970-01-01T01:50:13.000Z</time>
      </trkpt>
      <trkpt lat="44.91471" lon="0.88468">
        <ele>201.4</ele>
        <time>1970-01-01T01:50:14.000Z</time>
      </trkpt>
      <trkpt lat="44.91468" lon="0.88471">
        <ele>201.2</ele>
        <time>1970-01-01T01:50:15.000Z</time>
      </trkpt>
      <trkpt lat="44.91465" lon="0.88474">
        <ele>200.9</ele>
        <time>1970-01-01T01:50:16.000Z</time>
      </trkpt>
      <trkpt lat="44.91461" lon="0.88478">
        <ele>200.6</ele>
        <time>1970-01-01T01:50:17.000Z</time>
      </trkpt>
      <trkpt lat="44.91458" lon="0.88482">
        <ele>200.3</ele>
        <time>1970-01-01T01:50:18.000Z</time>
      </trkpt>
      <trkpt lat="44.91454" lon="0.88487">
        <ele>199.8</ele>
        <time>1970-01-01T01:50:19.000Z</time>
      </trkpt>
      <trkpt lat="44.91449" lon="0.88492">
        <ele>199.3</ele>
        <time>1970-01-01T01:50:20.000Z</time>
      </trkpt>
      <trkpt lat="44.91443" lon="0.88498">
        <ele>198.8</ele>
        <time>1970-01-01T01:50:21.000Z</time>
      </trkpt>
      <trkpt lat="44.91439" lon="0.88504">
        <ele>198.4</ele>
        <time>1970-01-01T01:50:22.000Z</time>
      </trkpt>
      <trkpt lat="44.91435" lon="0.88509">
        <ele>198.2</ele>
        <time>1970-01-01T01:50:23.000Z</time>
      </trkpt>
      <trkpt lat="44.91431" lon="0.88514">
        <ele>198</ele>
        <time>1970-01-01T01:50:24.000Z</time>
      </trkpt>
      <trkpt lat="44.91427" lon="0.8852">
        <ele>197.8</ele>
        <time>1970-01-01T01:50:25.000Z</time>
      </trkpt>
      <trkpt lat="44.91423" lon="0.88525">
        <ele>197.7</ele>
        <time>1970-01-01T01:50:26.000Z</time>
      </trkpt>
      <trkpt lat="44.9142" lon="0.88531">
        <ele>197.5</ele>
        <time>1970-01-01T01:50:27.000Z</time>
      </trkpt>
      <trkpt lat="44.91415" lon="0.88537">
        <ele>197.4</ele>
        <time>1970-01-01T01:50:28.000Z</time>
      </trkpt>
      <trkpt lat="44.91411" lon="0.88542">
        <ele>197.3</ele>
        <time>1970-01-01T01:50:29.000Z</time>
      </trkpt>
      <trkpt lat="44.91407" lon="0.88548">
        <ele>197.1</ele>
        <time>1970-01-01T01:50:30.000Z</time>
      </trkpt>
      <trkpt lat="44.91404" lon="0.88554">
        <ele>197</ele>
        <time>1970-01-01T01:50:31.000Z</time>
      </trkpt>
      <trkpt lat="44.914" lon="0.8856">
        <ele>196.8</ele>
        <time>1970-01-01T01:50:32.000Z</time>
      </trkpt>
      <trkpt lat="44.91397" lon="0.88566">
        <ele>196.6</ele>
        <time>1970-01-01T01:50:33.000Z</time>
      </trkpt>
      <trkpt lat="44.91394" lon="0.88573">
        <ele>196.4</ele>
        <time>1970-01-01T01:50:34.000Z</time>
      </trkpt>
      <trkpt lat="44.9139" lon="0.88579">
        <ele>196.1</ele>
        <time>1970-01-01T01:50:35.000Z</time>
      </trkpt>
      <trkpt lat="44.91385" lon="0.88585">
        <ele>195.8</ele>
        <time>1970-01-01T01:50:36.000Z</time>
      </trkpt>
      <trkpt lat="44.91381" lon="0.88591">
        <ele>195.4</ele>
        <time>1970-01-01T01:50:37.000Z</time>
      </trkpt>
      <trkpt lat="44.91376" lon="0.88597">
        <ele>194.9</ele>
        <time>1970-01-01T01:50:38.000Z</time>
      </trkpt>
      <trkpt lat="44.91371" lon="0.88603">
        <ele>194.5</ele>
        <time>1970-01-01T01:50:39.000Z</time>
      </trkpt>
      <trkpt lat="44.91367" lon="0.88608">
        <ele>194</ele>
        <time>1970-01-01T01:50:40.000Z</time>
      </trkpt>
      <trkpt lat="44.91364" lon="0.88614">
        <ele>193.6</ele>
        <time>1970-01-01T01:50:41.000Z</time>
      </trkpt>
      <trkpt lat="44.91362" lon="0.8862">
        <ele>193.2</ele>
        <time>1970-01-01T01:50:42.000Z</time>
      </trkpt>
      <trkpt lat="44.91362" lon="0.88625">
        <ele>193.2</ele>
        <time>1970-01-01T01:50:43.000Z</time>
      </trkpt>
      <trkpt lat="44.91363" lon="0.8863">
        <ele>193.4</ele>
        <time>1970-01-01T01:50:44.000Z</time>
      </trkpt>
      <trkpt lat="44.91364" lon="0.88636">
        <ele>193.4</ele>
        <time>1970-01-01T01:50:45.000Z</time>
      </trkpt>
      <trkpt lat="44.91365" lon="0.88641">
        <ele>193.4</ele>
        <time>1970-01-01T01:50:46.000Z</time>
      </trkpt>
      <trkpt lat="44.91367" lon="0.88647">
        <ele>193.2</ele>
        <time>1970-01-01T01:50:47.000Z</time>
      </trkpt>
      <trkpt lat="44.91369" lon="0.88652">
        <ele>193</ele>
        <time>1970-01-01T01:50:48.000Z</time>
      </trkpt>
      <trkpt lat="44.91372" lon="0.88656">
        <ele>192.7</ele>
        <time>1970-01-01T01:50:49.000Z</time>
      </trkpt>
      <trkpt lat="44.91374" lon="0.8866">
        <ele>192.3</ele>
        <time>1970-01-01T01:50:50.000Z</time>
      </trkpt>
      <trkpt lat="44.91378" lon="0.88664">
        <ele>191.9</ele>
        <time>1970-01-01T01:50:51.000Z</time>
      </trkpt>
      <trkpt lat="44.91381" lon="0.88669">
        <ele>191.4</ele>
        <time>1970-01-01T01:50:52.000Z</time>
      </trkpt>
      <trkpt lat="44.91385" lon="0.88674">
        <ele>190.9</ele>
        <time>1970-01-01T01:50:53.000Z</time>
      </trkpt>
      <trkpt lat="44.91388" lon="0.8868">
        <ele>190.4</ele>
        <time>1970-01-01T01:50:54.000Z</time>
      </trkpt>
      <trkpt lat="44.91391" lon="0.88686">
        <ele>189.8</ele>
        <time>1970-01-01T01:50:55.000Z</time>
      </trkpt>
      <trkpt lat="44.91396" lon="0.88693">
        <ele>189.1</ele>
        <time>1970-01-01T01:50:56.000Z</time>
      </trkpt>
      <trkpt lat="44.914" lon="0.887">
        <ele>188.3</ele>
        <time>1970-01-01T01:50:57.000Z</time>
      </trkpt>
      <trkpt lat="44.91406" lon="0.88708">
        <ele>187.3</ele>
        <time>1970-01-01T01:50:58.000Z</time>
      </trkpt>
      <trkpt lat="44.91412" lon="0.88716">
        <ele>186.3</ele>
        <time>1970-01-01T01:50:59.000Z</time>
      </trkpt>
      <trkpt lat="44.91419" lon="0.88723">
        <ele>185.3</ele>
        <time>1970-01-01T01:51:00.000Z</time>
      </trkpt>
      <trkpt lat="44.91428" lon="0.88732">
        <ele>184.3</ele>
        <time>1970-01-01T01:51:01.000Z</time>
      </trkpt>
      <trkpt lat="44.91437" lon="0.8874">
        <ele>183.2</ele>
        <time>1970-01-01T01:51:02.000Z</time>
      </trkpt>
      <trkpt lat="44.91445" lon="0.88748">
        <ele>182.5</ele>
        <time>1970-01-01T01:51:03.000Z</time>
      </trkpt>
      <trkpt lat="44.91452" lon="0.88754">
        <ele>181.9</ele>
        <time>1970-01-01T01:51:04.000Z</time>
      </trkpt>
      <trkpt lat="44.9146" lon="0.88756">
        <ele>181.2</ele>
        <time>1970-01-01T01:51:05.000Z</time>
      </trkpt>
      <trkpt lat="44.91468" lon="0.88755">
        <ele>180.4</ele>
        <time>1970-01-01T01:51:06.000Z</time>
      </trkpt>
      <trkpt lat="44.91475" lon="0.88752">
        <ele>179.5</ele>
        <time>1970-01-01T01:51:07.000Z</time>
      </trkpt>
      <trkpt lat="44.9148" lon="0.88748">
        <ele>178.8</ele>
        <time>1970-01-01T01:51:08.000Z</time>
      </trkpt>
      <trkpt lat="44.91486" lon="0.88746">
        <ele>178</ele>
        <time>1970-01-01T01:51:09.000Z</time>
      </trkpt>
      <trkpt lat="44.91494" lon="0.88746">
        <ele>176.8</ele>
        <time>1970-01-01T01:51:10.000Z</time>
      </trkpt>
      <trkpt lat="44.91502" lon="0.88749">
        <ele>175.6</ele>
        <time>1970-01-01T01:51:11.000Z</time>
      </trkpt>
      <trkpt lat="44.91509" lon="0.88753">
        <ele>174.6</ele>
        <time>1970-01-01T01:51:12.000Z</time>
      </trkpt>
      <trkpt lat="44.91514" lon="0.88757">
        <ele>174</ele>
        <time>1970-01-01T01:51:13.000Z</time>
      </trkpt>
      <trkpt lat="44.91519" lon="0.88762">
        <ele>173.5</ele>
        <time>1970-01-01T01:51:14.000Z</time>
      </trkpt>
      <trkpt lat="44.91524" lon="0.88767">
        <ele>172.9</ele>
        <time>1970-01-01T01:51:15.000Z</time>
      </trkpt>
      <trkpt lat="44.9153" lon="0.88774">
        <ele>172.4</ele>
        <time>1970-01-01T01:51:16.000Z</time>
      </trkpt>
      <trkpt lat="44.91536" lon="0.8878">
        <ele>171.9</ele>
        <time>1970-01-01T01:51:17.000Z</time>
      </trkpt>
      <trkpt lat="44.91542" lon="0.88787">
        <ele>171.3</ele>
        <time>1970-01-01T01:51:18.000Z</time>
      </trkpt>
      <trkpt lat="44.91548" lon="0.88795">
        <ele>170.7</ele>
        <time>1970-01-01T01:51:19.000Z</time>
      </trkpt>
      <trkpt lat="44.91554" lon="0.88802">
        <ele>170</ele>
        <time>1970-01-01T01:51:20.000Z</time>
      </trkpt>
      <trkpt lat="44.91559" lon="0.88808">
        <ele>169.3</ele>
        <time>1970-01-01T01:51:21.000Z</time>
      </trkpt>
      <trkpt lat="44.91563" lon="0.8881">
        <ele>168.7</ele>
        <time>1970-01-01T01:51:22.000Z</time>
      </trkpt>
      <trkpt lat="44.91569" lon="0.88809">
        <ele>168.1</ele>
        <time>1970-01-01T01:51:23.000Z</time>
      </trkpt>
      <trkpt lat="44.91575" lon="0.88807">
        <ele>167.5</ele>
        <time>1970-01-01T01:51:24.000Z</time>
      </trkpt>
      <trkpt lat="44.91582" lon="0.88804">
        <ele>166.8</ele>
        <time>1970-01-01T01:51:25.000Z</time>
      </trkpt>
      <trkpt lat="44.91588" lon="0.88801">
        <ele>166.3</ele>
        <time>1970-01-01T01:51:26.000Z</time>
      </trkpt>
      <trkpt lat="44.91593" lon="0.88798">
        <ele>165.9</ele>
        <time>1970-01-01T01:51:27.000Z</time>
      </trkpt>
      <trkpt lat="44.91598" lon="0.88794">
        <ele>165.5</ele>
        <time>1970-01-01T01:51:28.000Z</time>
      </trkpt>
      <trkpt lat="44.91603" lon="0.8879">
        <ele>165.2</ele>
        <time>1970-01-01T01:51:29.000Z</time>
      </trkpt>
      <trkpt lat="44.91608" lon="0.88785">
        <ele>164.9</ele>
        <time>1970-01-01T01:51:30.000Z</time>
      </trkpt>
      <trkpt lat="44.91613" lon="0.88781">
        <ele>164.7</ele>
        <time>1970-01-01T01:51:31.000Z</time>
      </trkpt>
      <trkpt lat="44.91618" lon="0.88778">
        <ele>164.5</ele>
        <time>1970-01-01T01:51:32.000Z</time>
      </trkpt>
      <trkpt lat="44.91624" lon="0.88774">
        <ele>164.3</ele>
        <time>1970-01-01T01:51:33.000Z</time>
      </trkpt>
      <trkpt lat="44.9163" lon="0.88771">
        <ele>164.2</ele>
        <time>1970-01-01T01:51:34.000Z</time>
      </trkpt>
      <trkpt lat="44.91637" lon="0.88769">
        <ele>164.2</ele>
        <time>1970-01-01T01:51:35.000Z</time>
      </trkpt>
      <trkpt lat="44.91645" lon="0.88769">
        <ele>164.4</ele>
        <time>1970-01-01T01:51:36.000Z</time>
      </trkpt>
      <trkpt lat="44.91651" lon="0.88769">
        <ele>164.6</ele>
        <time>1970-01-01T01:51:37.000Z</time>
      </trkpt>
      <trkpt lat="44.91657" lon="0.8877">
        <ele>164.7</ele>
        <time>1970-01-01T01:51:38.000Z</time>
      </trkpt>
      <trkpt lat="44.91662" lon="0.88771">
        <ele>164.6</ele>
        <time>1970-01-01T01:51:39.000Z</time>
      </trkpt>
      <trkpt lat="44.91668" lon="0.88773">
        <ele>164.4</ele>
        <time>1970-01-01T01:51:40.000Z</time>
      </trkpt>
      <trkpt lat="44.91672" lon="0.88775">
        <ele>164.3</ele>
        <time>1970-01-01T01:51:41.000Z</time>
      </trkpt>
      <trkpt lat="44.91677" lon="0.88778">
        <ele>164.2</ele>
        <time>1970-01-01T01:51:42.000Z</time>
      </trkpt>
      <trkpt lat="44.91682" lon="0.88782">
        <ele>164</ele>
        <time>1970-01-01T01:51:43.000Z</time>
      </trkpt>
      <trkpt lat="44.91687" lon="0.88785">
        <ele>163.8</ele>
        <time>1970-01-01T01:51:44.000Z</time>
      </trkpt>
      <trkpt lat="44.91693" lon="0.88788">
        <ele>163.6</ele>
        <time>1970-01-01T01:51:45.000Z</time>
      </trkpt>
      <trkpt lat="44.91698" lon="0.88789">
        <ele>163.3</ele>
        <time>1970-01-01T01:51:46.000Z</time>
      </trkpt>
      <trkpt lat="44.91703" lon="0.88791">
        <ele>163</ele>
        <time>1970-01-01T01:51:47.000Z</time>
      </trkpt>
      <trkpt lat="44.91708" lon="0.88791">
        <ele>162.7</ele>
        <time>1970-01-01T01:51:48.000Z</time>
      </trkpt>
      <trkpt lat="44.91713" lon="0.88791">
        <ele>162.5</ele>
        <time>1970-01-01T01:51:49.000Z</time>
      </trkpt>
      <trkpt lat="44.91718" lon="0.8879">
        <ele>162.2</ele>
        <time>1970-01-01T01:51:50.000Z</time>
      </trkpt>
      <trkpt lat="44.91722" lon="0.8879">
        <ele>161.9</ele>
        <time>1970-01-01T01:51:51.000Z</time>
      </trkpt>
      <trkpt lat="44.91727" lon="0.88789">
        <ele>161.5</ele>
        <time>1970-01-01T01:51:52.000Z</time>
      </trkpt>
      <trkpt lat="44.91731" lon="0.88787">
        <ele>161.1</ele>
        <time>1970-01-01T01:51:53.000Z</time>
      </trkpt>
      <trkpt lat="44.91736" lon="0.88786">
        <ele>160.7</ele>
        <time>1970-01-01T01:51:54.000Z</time>
      </trkpt>
      <trkpt lat="44.91741" lon="0.88786">
        <ele>160.3</ele>
        <time>1970-01-01T01:51:55.000Z</time>
      </trkpt>
      <trkpt lat="44.91746" lon="0.88785">
        <ele>159.8</ele>
        <time>1970-01-01T01:51:56.000Z</time>
      </trkpt>
      <trkpt lat="44.91751" lon="0.88784">
        <ele>159.2</ele>
        <time>1970-01-01T01:51:57.000Z</time>
      </trkpt>
      <trkpt lat="44.91756" lon="0.88782">
        <ele>158.6</ele>
        <time>1970-01-01T01:51:58.000Z</time>
      </trkpt>
      <trkpt lat="44.91762" lon="0.88781">
        <ele>157.8</ele>
        <time>1970-01-01T01:51:59.000Z</time>
      </trkpt>
      <trkpt lat="44.91768" lon="0.88778">
        <ele>157</ele>
        <time>1970-01-01T01:52:00.000Z</time>
      </trkpt>
      <trkpt lat="44.91775" lon="0.88776">
        <ele>156</ele>
        <time>1970-01-01T01:52:01.000Z</time>
      </trkpt>
      <trkpt lat="44.91781" lon="0.88773">
        <ele>154.9</ele>
        <time>1970-01-01T01:52:02.000Z</time>
      </trkpt>
      <trkpt lat="44.91788" lon="0.88769">
        <ele>153.6</ele>
        <time>1970-01-01T01:52:03.000Z</time>
      </trkpt>
      <trkpt lat="44.91796" lon="0.88764">
        <ele>152.2</ele>
        <time>1970-01-01T01:52:04.000Z</time>
      </trkpt>
      <trkpt lat="44.91803" lon="0.88758">
        <ele>150.8</ele>
        <time>1970-01-01T01:52:05.000Z</time>
      </trkpt>
      <trkpt lat="44.91809" lon="0.88752">
        <ele>149.6</ele>
        <time>1970-01-01T01:52:06.000Z</time>
      </trkpt>
      <trkpt lat="44.91816" lon="0.88746">
        <ele>148.5</ele>
        <time>1970-01-01T01:52:07.000Z</time>
      </trkpt>
      <trkpt lat="44.91823" lon="0.88739">
        <ele>147.4</ele>
        <time>1970-01-01T01:52:08.000Z</time>
      </trkpt>
      <trkpt lat="44.9183" lon="0.88732">
        <ele>146.5</ele>
        <time>1970-01-01T01:52:09.000Z</time>
      </trkpt>
      <trkpt lat="44.91837" lon="0.88726">
        <ele>145.9</ele>
        <time>1970-01-01T01:52:10.000Z</time>
      </trkpt>
      <trkpt lat="44.91844" lon="0.88719">
        <ele>145.3</ele>
        <time>1970-01-01T01:52:11.000Z</time>
      </trkpt>
      <trkpt lat="44.91851" lon="0.88714">
        <ele>144.7</ele>
        <time>1970-01-01T01:52:12.000Z</time>
      </trkpt>
      <trkpt lat="44.91858" lon="0.88708">
        <ele>144</ele>
        <time>1970-01-01T01:52:13.000Z</time>
      </trkpt>
      <trkpt lat="44.91865" lon="0.88703">
        <ele>143</ele>
        <time>1970-01-01T01:52:14.000Z</time>
      </trkpt>
      <trkpt lat="44.91872" lon="0.88698">
        <ele>142</ele>
        <time>1970-01-01T01:52:15.000Z</time>
      </trkpt>
      <trkpt lat="44.91878" lon="0.88692">
        <ele>141</ele>
        <time>1970-01-01T01:52:16.000Z</time>
      </trkpt>
      <trkpt lat="44.91883" lon="0.88687">
        <ele>140.1</ele>
        <time>1970-01-01T01:52:17.000Z</time>
      </trkpt>
      <trkpt lat="44.91888" lon="0.88682">
        <ele>139.2</ele>
        <time>1970-01-01T01:52:18.000Z</time>
      </trkpt>
      <trkpt lat="44.91893" lon="0.88677">
        <ele>138.1</ele>
        <time>1970-01-01T01:52:19.000Z</time>
      </trkpt>
      <trkpt lat="44.91899" lon="0.88671">
        <ele>136.8</ele>
        <time>1970-01-01T01:52:20.000Z</time>
      </trkpt>
      <trkpt lat="44.91906" lon="0.88665">
        <ele>135.4</ele>
        <time>1970-01-01T01:52:21.000Z</time>
      </trkpt>
      <trkpt lat="44.91912" lon="0.88658">
        <ele>134</ele>
        <time>1970-01-01T01:52:22.000Z</time>
      </trkpt>
      <trkpt lat="44.91918" lon="0.8865">
        <ele>132.4</ele>
        <time>1970-01-01T01:52:23.000Z</time>
      </trkpt>
      <trkpt lat="44.91924" lon="0.8864">
        <ele>130.7</ele>
        <time>1970-01-01T01:52:24.000Z</time>
      </trkpt>
      <trkpt lat="44.9193" lon="0.88629">
        <ele>129.1</ele>
        <time>1970-01-01T01:52:25.000Z</time>
      </trkpt>
      <trkpt lat="44.91935" lon="0.88619">
        <ele>127.7</ele>
        <time>1970-01-01T01:52:26.000Z</time>
      </trkpt>
      <trkpt lat="44.91939" lon="0.88609">
        <ele>126.4</ele>
        <time>1970-01-01T01:52:27.000Z</time>
      </trkpt>
      <trkpt lat="44.91944" lon="0.886">
        <ele>125</ele>
        <time>1970-01-01T01:52:28.000Z</time>
      </trkpt>
      <trkpt lat="44.9195" lon="0.88591">
        <ele>123.3</ele>
        <time>1970-01-01T01:52:29.000Z</time>
      </trkpt>
      <trkpt lat="44.91957" lon="0.88584">
        <ele>121.6</ele>
        <time>1970-01-01T01:52:30.000Z</time>
      </trkpt>
      <trkpt lat="44.91963" lon="0.88577">
        <ele>120.1</ele>
        <time>1970-01-01T01:52:31.000Z</time>
      </trkpt>
      <trkpt lat="44.9197" lon="0.8857">
        <ele>118.8</ele>
        <time>1970-01-01T01:52:32.000Z</time>
      </trkpt>
      <trkpt lat="44.91976" lon="0.88564">
        <ele>117.7</ele>
        <time>1970-01-01T01:52:33.000Z</time>
      </trkpt>
      <trkpt lat="44.91983" lon="0.88558">
        <ele>116.7</ele>
        <time>1970-01-01T01:52:34.000Z</time>
      </trkpt>
      <trkpt lat="44.9199" lon="0.88553">
        <ele>116</ele>
        <time>1970-01-01T01:52:35.000Z</time>
      </trkpt>
      <trkpt lat="44.91996" lon="0.88547">
        <ele>115.4</ele>
        <time>1970-01-01T01:52:36.000Z</time>
      </trkpt>
      <trkpt lat="44.92002" lon="0.88541">
        <ele>115.1</ele>
        <time>1970-01-01T01:52:37.000Z</time>
      </trkpt>
      <trkpt lat="44.92008" lon="0.88536">
        <ele>114.8</ele>
        <time>1970-01-01T01:52:38.000Z</time>
      </trkpt>
      <trkpt lat="44.92014" lon="0.88532">
        <ele>114.5</ele>
        <time>1970-01-01T01:52:39.000Z</time>
      </trkpt>
      <trkpt lat="44.92017" lon="0.8853">
        <ele>114.4</ele>
        <time>1970-01-01T01:52:40.000Z</time>
      </trkpt>
      <trkpt lat="44.9202" lon="0.88528">
        <ele>114.3</ele>
        <time>1970-01-01T01:52:41.000Z</time>
      </trkpt>
      <trkpt lat="44.92022" lon="0.88526">
        <ele>114.3</ele>
        <time>1970-01-01T01:52:42.000Z</time>
      </trkpt>
      <trkpt lat="44.92026" lon="0.88523">
        <ele>114.2</ele>
        <time>1970-01-01T01:52:43.000Z</time>
      </trkpt>
      <trkpt lat="44.92029" lon="0.8852">
        <ele>114</ele>
        <time>1970-01-01T01:52:44.000Z</time>
      </trkpt>
      <trkpt lat="44.92033" lon="0.88517">
        <ele>113.9</ele>
        <time>1970-01-01T01:52:45.000Z</time>
      </trkpt>
      <trkpt lat="44.92036" lon="0.88514">
        <ele>113.8</ele>
        <time>1970-01-01T01:52:46.000Z</time>
      </trkpt>
      <trkpt lat="44.92039" lon="0.8851">
        <ele>113.8</ele>
        <time>1970-01-01T01:52:47.000Z</time>
      </trkpt>
      <trkpt lat="44.92043" lon="0.88506">
        <ele>114</ele>
        <time>1970-01-01T01:52:48.000Z</time>
      </trkpt>
      <trkpt lat="44.92047" lon="0.88502">
        <ele>114.2</ele>
        <time>1970-01-01T01:52:49.000Z</time>
      </trkpt>
      <trkpt lat="44.92051" lon="0.88499">
        <ele>114.4</ele>
        <time>1970-01-01T01:52:50.000Z</time>
      </trkpt>
      <trkpt lat="44.92055" lon="0.88495">
        <ele>114.6</ele>
        <time>1970-01-01T01:52:51.000Z</time>
      </trkpt>
      <trkpt lat="44.92058" lon="0.8849">
        <ele>114.6</ele>
        <time>1970-01-01T01:52:52.000Z</time>
      </trkpt>
      <trkpt lat="44.92062" lon="0.88486">
        <ele>114.7</ele>
        <time>1970-01-01T01:52:53.000Z</time>
      </trkpt>
      <trkpt lat="44.92065" lon="0.88482">
        <ele>114.7</ele>
        <time>1970-01-01T01:52:54.000Z</time>
      </trkpt>
      <trkpt lat="44.92068" lon="0.88478">
        <ele>114.7</ele>
        <time>1970-01-01T01:52:55.000Z</time>
      </trkpt>
      <trkpt lat="44.92071" lon="0.88474">
        <ele>114.7</ele>
        <time>1970-01-01T01:52:56.000Z</time>
      </trkpt>
      <trkpt lat="44.92072" lon="0.88469">
        <ele>114.8</ele>
        <time>1970-01-01T01:52:57.000Z</time>
      </trkpt>
      <trkpt lat="44.92074" lon="0.88464">
        <ele>114.8</ele>
        <time>1970-01-01T01:52:58.000Z</time>
      </trkpt>
      <trkpt lat="44.92076" lon="0.8846">
        <ele>114.8</ele>
        <time>1970-01-01T01:52:59.000Z</time>
      </trkpt>
      <trkpt lat="44.92078" lon="0.88455">
        <ele>114.9</ele>
        <time>1970-01-01T01:53:00.000Z</time>
      </trkpt>
      <trkpt lat="44.92079" lon="0.88451">
        <ele>114.9</ele>
        <time>1970-01-01T01:53:01.000Z</time>
      </trkpt>
      <trkpt lat="44.92081" lon="0.88447">
        <ele>114.9</ele>
        <time>1970-01-01T01:53:02.000Z</time>
      </trkpt>
      <trkpt lat="44.92083" lon="0.88444">
        <ele>115</ele>
        <time>1970-01-01T01:53:03.000Z</time>
      </trkpt>
      <trkpt lat="44.92086" lon="0.88442">
        <ele>115.1</ele>
        <time>1970-01-01T01:53:04.000Z</time>
      </trkpt>
      <trkpt lat="44.92091" lon="0.88442">
        <ele>115.2</ele>
        <time>1970-01-01T01:53:05.000Z</time>
      </trkpt>
      <trkpt lat="44.92097" lon="0.88443">
        <ele>115.3</ele>
        <time>1970-01-01T01:53:06.000Z</time>
      </trkpt>
      <trkpt lat="44.92104" lon="0.88444">
        <ele>115.5</ele>
        <time>1970-01-01T01:53:07.000Z</time>
      </trkpt>
      <trkpt lat="44.9211" lon="0.88444">
        <ele>115.7</ele>
        <time>1970-01-01T01:53:08.000Z</time>
      </trkpt>
      <trkpt lat="44.92116" lon="0.88445">
        <ele>115.9</ele>
        <time>1970-01-01T01:53:09.000Z</time>
      </trkpt>
      <trkpt lat="44.92123" lon="0.88445">
        <ele>116.1</ele>
        <time>1970-01-01T01:53:10.000Z</time>
      </trkpt>
      <trkpt lat="44.92129" lon="0.88446">
        <ele>116.4</ele>
        <time>1970-01-01T01:53:11.000Z</time>
      </trkpt>
      <trkpt lat="44.92135" lon="0.88446">
        <ele>116.7</ele>
        <time>1970-01-01T01:53:12.000Z</time>
      </trkpt>
      <trkpt lat="44.9214" lon="0.88447">
        <ele>117</ele>
        <time>1970-01-01T01:53:13.000Z</time>
      </trkpt>
      <trkpt lat="44.92144" lon="0.88447">
        <ele>117.4</ele>
        <time>1970-01-01T01:53:14.000Z</time>
      </trkpt>
      <trkpt lat="44.92149" lon="0.88446">
        <ele>117.9</ele>
        <time>1970-01-01T01:53:15.000Z</time>
      </trkpt>
      <trkpt lat="44.92154" lon="0.88445">
        <ele>118.3</ele>
        <time>1970-01-01T01:53:16.000Z</time>
      </trkpt>
      <trkpt lat="44.92158" lon="0.88443">
        <ele>119.5</ele>
        <time>1970-01-01T01:53:17.000Z</time>
      </trkpt>
      <trkpt lat="44.92162" lon="0.88442">
        <ele>119.5</ele>
        <time>1970-01-01T01:53:18.000Z</time>
      </trkpt>
      <trkpt lat="44.92165" lon="0.8844">
        <ele>119.5</ele>
        <time>1970-01-01T01:53:19.000Z</time>
      </trkpt>
      <trkpt lat="44.92167" lon="0.88438">
        <ele>119.9</ele>
        <time>1970-01-01T01:53:20.000Z</time>
      </trkpt>
      <trkpt lat="44.9217" lon="0.88436">
        <ele>119.9</ele>
        <time>1970-01-01T01:53:21.000Z</time>
      </trkpt>
      <trkpt lat="44.92172" lon="0.88435">
        <ele>119.9</ele>
        <time>1970-01-01T01:53:22.000Z</time>
      </trkpt>
      <trkpt lat="44.92173" lon="0.88433">
        <ele>119.9</ele>
        <time>1970-01-01T01:53:23.000Z</time>
      </trkpt>
      <trkpt lat="44.92174" lon="0.88432">
        <ele>119.9</ele>
        <time>1970-01-01T01:53:24.000Z</time>
      </trkpt>
      <trkpt lat="44.92174" lon="0.88431">
        <ele>119.9</ele>
        <time>1970-01-01T01:53:25.000Z</time>
      </trkpt>
      <trkpt lat="44.92175" lon="0.88429">
        <ele>119.9</ele>
        <time>1970-01-01T01:53:26.000Z</time>
      </trkpt>
      <trkpt lat="44.92175" lon="0.88426">
        <ele>119.9</ele>
        <time>1970-01-01T01:53:27.000Z</time>
      </trkpt>
      <trkpt lat="44.92175" lon="0.88423">
        <ele>119.9</ele>
        <time>1970-01-01T01:53:28.000Z</time>
      </trkpt>
      <trkpt lat="44.92175" lon="0.8842">
        <ele>118.6</ele>
        <time>1970-01-01T01:53:29.000Z</time>
      </trkpt>
      <trkpt lat="44.92175" lon="0.88418">
        <ele>118.6</ele>
        <time>1970-01-01T01:53:30.000Z</time>
      </trkpt>
      <trkpt lat="44.92176" lon="0.88415">
        <ele>118.6</ele>
        <time>1970-01-01T01:53:31.000Z</time>
      </trkpt>
      <trkpt lat="44.92176" lon="0.88413">
        <ele>118.6</ele>
        <time>1970-01-01T01:53:32.000Z</time>
      </trkpt>
      <trkpt lat="44.92177" lon="0.88412">
        <ele>118.5</ele>
        <time>1970-01-01T01:53:33.000Z</time>
      </trkpt>
      <trkpt lat="44.92178" lon="0.8841">
        <ele>118.5</ele>
        <time>1970-01-01T01:53:34.000Z</time>
      </trkpt>
      <trkpt lat="44.92179" lon="0.88408">
        <ele>120.5</ele>
        <time>1970-01-01T01:53:35.000Z</time>
      </trkpt>
      <trkpt lat="44.92181" lon="0.88407">
        <ele>120.5</ele>
        <time>1970-01-01T01:53:36.000Z</time>
      </trkpt>
      <trkpt lat="44.92182" lon="0.88405">
        <ele>119.2</ele>
        <time>1970-01-01T01:53:37.000Z</time>
      </trkpt>
      <trkpt lat="44.92184" lon="0.88404">
        <ele>119.2</ele>
        <time>1970-01-01T01:53:38.000Z</time>
      </trkpt>
      <trkpt lat="44.92185" lon="0.88402">
        <ele>119.2</ele>
        <time>1970-01-01T01:53:39.000Z</time>
      </trkpt>
      <trkpt lat="44.92187" lon="0.88401">
        <ele>119.2</ele>
        <time>1970-01-01T01:53:40.000Z</time>
      </trkpt>
      <trkpt lat="44.92189" lon="0.88399">
        <ele>119.2</ele>
        <time>1970-01-01T01:53:41.000Z</time>
      </trkpt>
      <trkpt lat="44.9219" lon="0.88398">
        <ele>119.2</ele>
        <time>1970-01-01T01:53:42.000Z</time>
      </trkpt>
      <trkpt lat="44.92192" lon="0.88397">
        <ele>120.9</ele>
        <time>1970-01-01T01:53:43.000Z</time>
      </trkpt>
      <trkpt lat="44.92194" lon="0.88396">
        <ele>120.9</ele>
        <time>1970-01-01T01:53:44.000Z</time>
      </trkpt>
      <trkpt lat="44.92196" lon="0.88394">
        <ele>120.9</ele>
        <time>1970-01-01T01:53:45.000Z</time>
      </trkpt>
      <trkpt lat="44.92198" lon="0.88392">
        <ele>120.9</ele>
        <time>1970-01-01T01:53:46.000Z</time>
      </trkpt>
      <trkpt lat="44.922" lon="0.88391">
        <ele>120.9</ele>
        <time>1970-01-01T01:53:47.000Z</time>
      </trkpt>
      <trkpt lat="44.92202" lon="0.88389">
        <ele>120.9</ele>
        <time>1970-01-01T01:53:48.000Z</time>
      </trkpt>
      <trkpt lat="44.92204" lon="0.88387">
        <ele>121.7</ele>
        <time>1970-01-01T01:53:49.000Z</time>
      </trkpt>
      <trkpt lat="44.92206" lon="0.88385">
        <ele>121.7</ele>
        <time>1970-01-01T01:53:50.000Z</time>
      </trkpt>
      <trkpt lat="44.92208" lon="0.88383">
        <ele>121.7</ele>
        <time>1970-01-01T01:53:51.000Z</time>
      </trkpt>
      <trkpt lat="44.92211" lon="0.88381">
        <ele>121.7</ele>
        <time>1970-01-01T01:53:52.000Z</time>
      </trkpt>
      <trkpt lat="44.92213" lon="0.8838">
        <ele>121.7</ele>
        <time>1970-01-01T01:53:53.000Z</time>
      </trkpt>
      <trkpt lat="44.92215" lon="0.88378">
        <ele>121.7</ele>
        <time>1970-01-01T01:53:54.000Z</time>
      </trkpt>
      <trkpt lat="44.92217" lon="0.88376">
        <ele>123.4</ele>
        <time>1970-01-01T01:53:55.000Z</time>
      </trkpt>
      <trkpt lat="44.9222" lon="0.88375">
        <ele>123.4</ele>
        <time>1970-01-01T01:53:56.000Z</time>
      </trkpt>
      <trkpt lat="44.92222" lon="0.88373">
        <ele>123.4</ele>
        <time>1970-01-01T01:53:57.000Z</time>
      </trkpt>
      <trkpt lat="44.92224" lon="0.88372">
        <ele>123.4</ele>
        <time>1970-01-01T01:53:58.000Z</time>
      </trkpt>
      <trkpt lat="44.92226" lon="0.8837">
        <ele>122.2</ele>
        <time>1970-01-01T01:53:59.000Z</time>
      </trkpt>
      <trkpt lat="44.92228" lon="0.88368">
        <ele>123.2</ele>
        <time>1970-01-01T01:54:00.000Z</time>
      </trkpt>
      <trkpt lat="44.92229" lon="0.88365">
        <ele>123.2</ele>
        <time>1970-01-01T01:54:01.000Z</time>
      </trkpt>
      <trkpt lat="44.92231" lon="0.88363">
        <ele>123.2</ele>
        <time>1970-01-01T01:54:02.000Z</time>
      </trkpt>
      <trkpt lat="44.92233" lon="0.88361">
        <ele>123.2</ele>
        <time>1970-01-01T01:54:03.000Z</time>
      </trkpt>
      <trkpt lat="44.92235" lon="0.88359">
        <ele>123.2</ele>
        <time>1970-01-01T01:54:04.000Z</time>
      </trkpt>
      <trkpt lat="44.92237" lon="0.88356">
        <ele>123.2</ele>
        <time>1970-01-01T01:54:05.000Z</time>
      </trkpt>
      <trkpt lat="44.9224" lon="0.88355">
        <ele>124.4</ele>
        <time>1970-01-01T01:54:06.000Z</time>
      </trkpt>
      <trkpt lat="44.92242" lon="0.88353">
        <ele>123</ele>
        <time>1970-01-01T01:54:07.000Z</time>
      </trkpt>
      <trkpt lat="44.92245" lon="0.8835">
        <ele>123</ele>
        <time>1970-01-01T01:54:08.000Z</time>
      </trkpt>
      <trkpt lat="44.92248" lon="0.88348">
        <ele>123</ele>
        <time>1970-01-01T01:54:09.000Z</time>
      </trkpt>
      <trkpt lat="44.92251" lon="0.88345">
        <ele>123</ele>
        <time>1970-01-01T01:54:10.000Z</time>
      </trkpt>
      <trkpt lat="44.92254" lon="0.88342">
        <ele>124.4</ele>
        <time>1970-01-01T01:54:11.000Z</time>
      </trkpt>
      <trkpt lat="44.92256" lon="0.8834">
        <ele>124.4</ele>
        <time>1970-01-01T01:54:12.000Z</time>
      </trkpt>
      <trkpt lat="44.92259" lon="0.88337">
        <ele>123.8</ele>
        <time>1970-01-01T01:54:13.000Z</time>
      </trkpt>
      <trkpt lat="44.92262" lon="0.88334">
        <ele>123.8</ele>
        <time>1970-01-01T01:54:14.000Z</time>
      </trkpt>
      <trkpt lat="44.92264" lon="0.88332">
        <ele>124.4</ele>
        <time>1970-01-01T01:54:15.000Z</time>
      </trkpt>
      <trkpt lat="44.92267" lon="0.88329">
        <ele>124.4</ele>
        <time>1970-01-01T01:54:16.000Z</time>
      </trkpt>
      <trkpt lat="44.9227" lon="0.88326">
        <ele>124.4</ele>
        <time>1970-01-01T01:54:17.000Z</time>
      </trkpt>
      <trkpt lat="44.92273" lon="0.88323">
        <ele>124.4</ele>
        <time>1970-01-01T01:54:18.000Z</time>
      </trkpt>
      <trkpt lat="44.92276" lon="0.88321">
        <ele>124.4</ele>
        <time>1970-01-01T01:54:19.000Z</time>
      </trkpt>
      <trkpt lat="44.92279" lon="0.88319">
        <ele>125.1</ele>
        <time>1970-01-01T01:54:20.000Z</time>
      </trkpt>
      <trkpt lat="44.92282" lon="0.88317">
        <ele>125.1</ele>
        <time>1970-01-01T01:54:21.000Z</time>
      </trkpt>
      <trkpt lat="44.92284" lon="0.88315">
        <ele>125.1</ele>
        <time>1970-01-01T01:54:22.000Z</time>
      </trkpt>
      <trkpt lat="44.92287" lon="0.88314">
        <ele>125.1</ele>
        <time>1970-01-01T01:54:23.000Z</time>
      </trkpt>
      <trkpt lat="44.92291" lon="0.88312">
        <ele>125.7</ele>
        <time>1970-01-01T01:54:24.000Z</time>
      </trkpt>
      <trkpt lat="44.92294" lon="0.88311">
        <ele>125.7</ele>
        <time>1970-01-01T01:54:25.000Z</time>
      </trkpt>
      <trkpt lat="44.92297" lon="0.88309">
        <ele>125.7</ele>
        <time>1970-01-01T01:54:26.000Z</time>
      </trkpt>
      <trkpt lat="44.92299" lon="0.88308">
        <ele>125.7</ele>
        <time>1970-01-01T01:54:27.000Z</time>
      </trkpt>
      <trkpt lat="44.92302" lon="0.88306">
        <ele>126.7</ele>
        <time>1970-01-01T01:54:28.000Z</time>
      </trkpt>
      <trkpt lat="44.92304" lon="0.88305">
        <ele>126.7</ele>
        <time>1970-01-01T01:54:29.000Z</time>
      </trkpt>
      <trkpt lat="44.92307" lon="0.88303">
        <ele>126.7</ele>
        <time>1970-01-01T01:54:30.000Z</time>
      </trkpt>
      <trkpt lat="44.92309" lon="0.88302">
        <ele>126.2</ele>
        <time>1970-01-01T01:54:31.000Z</time>
      </trkpt>
      <trkpt lat="44.92312" lon="0.88302">
        <ele>126.2</ele>
        <time>1970-01-01T01:54:32.000Z</time>
      </trkpt>
      <trkpt lat="44.92314" lon="0.88301">
        <ele>126.7</ele>
        <time>1970-01-01T01:54:33.000Z</time>
      </trkpt>
      <trkpt lat="44.92315" lon="0.88301">
        <ele>126.7</ele>
        <time>1970-01-01T01:54:34.000Z</time>
      </trkpt>
      <trkpt lat="44.92317" lon="0.883">
        <ele>126.7</ele>
        <time>1970-01-01T01:54:35.000Z</time>
      </trkpt>
      <trkpt lat="44.92319" lon="0.883">
        <ele>126.7</ele>
        <time>1970-01-01T01:54:36.000Z</time>
      </trkpt>
      <trkpt lat="44.92321" lon="0.883">
        <ele>126.7</ele>
        <time>1970-01-01T01:54:37.000Z</time>
      </trkpt>
      <trkpt lat="44.92323" lon="0.883">
        <ele>126.7</ele>
        <time>1970-01-01T01:54:38.000Z</time>
      </trkpt>
      <trkpt lat="44.92325" lon="0.88299">
        <ele>127.6</ele>
        <time>1970-01-01T01:54:39.000Z</time>
      </trkpt>
      <trkpt lat="44.92327" lon="0.88298">
        <ele>127.6</ele>
        <time>1970-01-01T01:54:40.000Z</time>
      </trkpt>
      <trkpt lat="44.92329" lon="0.88297">
        <ele>127.6</ele>
        <time>1970-01-01T01:54:41.000Z</time>
      </trkpt>
      <trkpt lat="44.9233" lon="0.88297">
        <ele>127.6</ele>
        <time>1970-01-01T01:54:42.000Z</time>
      </trkpt>
      <trkpt lat="44.92332" lon="0.88296">
        <ele>127.6</ele>
        <time>1970-01-01T01:54:43.000Z</time>
      </trkpt>
      <trkpt lat="44.92334" lon="0.88296">
        <ele>127.6</ele>
        <time>1970-01-01T01:54:44.000Z</time>
      </trkpt>
      <trkpt lat="44.92335" lon="0.88295">
        <ele>127.6</ele>
        <time>1970-01-01T01:54:45.000Z</time>
      </trkpt>
      <trkpt lat="44.92337" lon="0.88295">
        <ele>129</ele>
        <time>1970-01-01T01:54:46.000Z</time>
      </trkpt>
      <trkpt lat="44.92338" lon="0.88294">
        <ele>129</ele>
        <time>1970-01-01T01:54:47.000Z</time>
      </trkpt>
      <trkpt lat="44.9234" lon="0.88293">
        <ele>129</ele>
        <time>1970-01-01T01:54:48.000Z</time>
      </trkpt>
      <trkpt lat="44.92342" lon="0.88292">
        <ele>129</ele>
        <time>1970-01-01T01:54:49.000Z</time>
      </trkpt>
      <trkpt lat="44.92344" lon="0.88292">
        <ele>129</ele>
        <time>1970-01-01T01:54:50.000Z</time>
      </trkpt>
      <trkpt lat="44.92345" lon="0.88291">
        <ele>129</ele>
        <time>1970-01-01T01:54:51.000Z</time>
      </trkpt>
      <trkpt lat="44.92347" lon="0.88291">
        <ele>129</ele>
        <time>1970-01-01T01:54:52.000Z</time>
      </trkpt>
      <trkpt lat="44.9235" lon="0.8829">
        <ele>130.5</ele>
        <time>1970-01-01T01:54:53.000Z</time>
      </trkpt>
      <trkpt lat="44.92352" lon="0.8829">
        <ele>130.5</ele>
        <time>1970-01-01T01:54:54.000Z</time>
      </trkpt>
      <trkpt lat="44.92355" lon="0.8829">
        <ele>130.5</ele>
        <time>1970-01-01T01:54:55.000Z</time>
      </trkpt>
      <trkpt lat="44.92357" lon="0.8829">
        <ele>130.5</ele>
        <time>1970-01-01T01:54:56.000Z</time>
      </trkpt>
      <trkpt lat="44.9236" lon="0.88291">
        <ele>130.5</ele>
        <time>1970-01-01T01:54:57.000Z</time>
      </trkpt>
      <trkpt lat="44.92362" lon="0.88291">
        <ele>132.3</ele>
        <time>1970-01-01T01:54:58.000Z</time>
      </trkpt>
      <trkpt lat="44.92365" lon="0.88291">
        <ele>132.3</ele>
        <time>1970-01-01T01:54:59.000Z</time>
      </trkpt>
      <trkpt lat="44.92367" lon="0.88291">
        <ele>132.3</ele>
        <time>1970-01-01T01:55:00.000Z</time>
      </trkpt>
      <trkpt lat="44.9237" lon="0.8829">
        <ele>132.3</ele>
        <time>1970-01-01T01:55:01.000Z</time>
      </trkpt>
      <trkpt lat="44.92372" lon="0.8829">
        <ele>132.3</ele>
        <time>1970-01-01T01:55:02.000Z</time>
      </trkpt>
      <trkpt lat="44.92375" lon="0.88289">
        <ele>133.9</ele>
        <time>1970-01-01T01:55:03.000Z</time>
      </trkpt>
      <trkpt lat="44.92377" lon="0.88289">
        <ele>133.9</ele>
        <time>1970-01-01T01:55:04.000Z</time>
      </trkpt>
      <trkpt lat="44.92379" lon="0.88289">
        <ele>133.9</ele>
        <time>1970-01-01T01:55:05.000Z</time>
      </trkpt>
      <trkpt lat="44.92382" lon="0.88289">
        <ele>133.9</ele>
        <time>1970-01-01T01:55:06.000Z</time>
      </trkpt>
      <trkpt lat="44.92385" lon="0.88289">
        <ele>133.8</ele>
        <time>1970-01-01T01:55:07.000Z</time>
      </trkpt>
      <trkpt lat="44.92388" lon="0.88289">
        <ele>135.5</ele>
        <time>1970-01-01T01:55:08.000Z</time>
      </trkpt>
      <trkpt lat="44.92391" lon="0.88289">
        <ele>135.5</ele>
        <time>1970-01-01T01:55:09.000Z</time>
      </trkpt>
      <trkpt lat="44.92394" lon="0.88289">
        <ele>135.5</ele>
        <time>1970-01-01T01:55:10.000Z</time>
      </trkpt>
      <trkpt lat="44.92396" lon="0.88288">
        <ele>135.5</ele>
        <time>1970-01-01T01:55:11.000Z</time>
      </trkpt>
      <trkpt lat="44.92399" lon="0.88288">
        <ele>136.8</ele>
        <time>1970-01-01T01:55:12.000Z</time>
      </trkpt>
      <trkpt lat="44.92402" lon="0.88288">
        <ele>136.8</ele>
        <time>1970-01-01T01:55:13.000Z</time>
      </trkpt>
      <trkpt lat="44.92405" lon="0.88288">
        <ele>136.8</ele>
        <time>1970-01-01T01:55:14.000Z</time>
      </trkpt>
      <trkpt lat="44.92408" lon="0.88288">
        <ele>136.8</ele>
        <time>1970-01-01T01:55:15.000Z</time>
      </trkpt>
      <trkpt lat="44.92411" lon="0.88288">
        <ele>138</ele>
        <time>1970-01-01T01:55:16.000Z</time>
      </trkpt>
      <trkpt lat="44.92415" lon="0.88288">
        <ele>138</ele>
        <time>1970-01-01T01:55:17.000Z</time>
      </trkpt>
      <trkpt lat="44.92418" lon="0.88288">
        <ele>138</ele>
        <time>1970-01-01T01:55:18.000Z</time>
      </trkpt>
      <trkpt lat="44.92421" lon="0.88287">
        <ele>138</ele>
        <time>1970-01-01T01:55:19.000Z</time>
      </trkpt>
      <trkpt lat="44.92424" lon="0.88287">
        <ele>139</ele>
        <time>1970-01-01T01:55:20.000Z</time>
      </trkpt>
      <trkpt lat="44.92427" lon="0.88287">
        <ele>139</ele>
        <time>1970-01-01T01:55:21.000Z</time>
      </trkpt>
      <trkpt lat="44.9243" lon="0.88286">
        <ele>139</ele>
        <time>1970-01-01T01:55:22.000Z</time>
      </trkpt>
      <trkpt lat="44.92434" lon="0.88285">
        <ele>137.7</ele>
        <time>1970-01-01T01:55:23.000Z</time>
      </trkpt>
      <trkpt lat="44.92437" lon="0.88284">
        <ele>137.6</ele>
        <time>1970-01-01T01:55:24.000Z</time>
      </trkpt>
      <trkpt lat="44.92441" lon="0.88284">
        <ele>137.6</ele>
        <time>1970-01-01T01:55:25.000Z</time>
      </trkpt>
      <trkpt lat="44.92443" lon="0.88284">
        <ele>137.6</ele>
        <time>1970-01-01T01:55:26.000Z</time>
      </trkpt>
      <trkpt lat="44.92447" lon="0.88284">
        <ele>138.5</ele>
        <time>1970-01-01T01:55:27.000Z</time>
      </trkpt>
      <trkpt lat="44.92449" lon="0.88284">
        <ele>138.5</ele>
        <time>1970-01-01T01:55:28.000Z</time>
      </trkpt>
      <trkpt lat="44.92452" lon="0.88284">
        <ele>138.5</ele>
        <time>1970-01-01T01:55:29.000Z</time>
      </trkpt>
      <trkpt lat="44.92455" lon="0.88284">
        <ele>138.5</ele>
        <time>1970-01-01T01:55:30.000Z</time>
      </trkpt>
      <trkpt lat="44.92458" lon="0.88284">
        <ele>138.5</ele>
        <time>1970-01-01T01:55:31.000Z</time>
      </trkpt>
      <trkpt lat="44.9246" lon="0.88284">
        <ele>139.2</ele>
        <time>1970-01-01T01:55:32.000Z</time>
      </trkpt>
      <trkpt lat="44.92463" lon="0.88283">
        <ele>139.2</ele>
        <time>1970-01-01T01:55:33.000Z</time>
      </trkpt>
      <trkpt lat="44.92466" lon="0.88282">
        <ele>139.2</ele>
        <time>1970-01-01T01:55:34.000Z</time>
      </trkpt>
      <trkpt lat="44.92468" lon="0.88281">
        <ele>139.2</ele>
        <time>1970-01-01T01:55:35.000Z</time>
      </trkpt>
      <trkpt lat="44.92472" lon="0.88279">
        <ele>140.1</ele>
        <time>1970-01-01T01:55:36.000Z</time>
      </trkpt>
      <trkpt lat="44.92474" lon="0.88277">
        <ele>140.1</ele>
        <time>1970-01-01T01:55:37.000Z</time>
      </trkpt>
      <trkpt lat="44.92477" lon="0.88276">
        <ele>140.1</ele>
        <time>1970-01-01T01:55:38.000Z</time>
      </trkpt>
      <trkpt lat="44.9248" lon="0.88274">
        <ele>140.1</ele>
        <time>1970-01-01T01:55:39.000Z</time>
      </trkpt>
      <trkpt lat="44.92482" lon="0.88273">
        <ele>140.1</ele>
        <time>1970-01-01T01:55:40.000Z</time>
      </trkpt>
      <trkpt lat="44.92485" lon="0.88271">
        <ele>141</ele>
        <time>1970-01-01T01:55:41.000Z</time>
      </trkpt>
      <trkpt lat="44.92488" lon="0.88269">
        <ele>141</ele>
        <time>1970-01-01T01:55:42.000Z</time>
      </trkpt>
      <trkpt lat="44.9249" lon="0.88267">
        <ele>139.5</ele>
        <time>1970-01-01T01:55:43.000Z</time>
      </trkpt>
      <trkpt lat="44.92493" lon="0.88266">
        <ele>139.5</ele>
        <time>1970-01-01T01:55:44.000Z</time>
      </trkpt>
      <trkpt lat="44.92496" lon="0.88264">
        <ele>140.7</ele>
        <time>1970-01-01T01:55:45.000Z</time>
      </trkpt>
      <trkpt lat="44.92498" lon="0.88263">
        <ele>140.7</ele>
        <time>1970-01-01T01:55:46.000Z</time>
      </trkpt>
      <trkpt lat="44.92501" lon="0.88263">
        <ele>140.7</ele>
        <time>1970-01-01T01:55:47.000Z</time>
      </trkpt>
      <trkpt lat="44.92505" lon="0.88261">
        <ele>140.7</ele>
        <time>1970-01-01T01:55:48.000Z</time>
      </trkpt>
      <trkpt lat="44.92508" lon="0.8826">
        <ele>142</ele>
        <time>1970-01-01T01:55:49.000Z</time>
      </trkpt>
      <trkpt lat="44.92511" lon="0.88259">
        <ele>142</ele>
        <time>1970-01-01T01:55:50.000Z</time>
      </trkpt>
      <trkpt lat="44.92513" lon="0.88258">
        <ele>142</ele>
        <time>1970-01-01T01:55:51.000Z</time>
      </trkpt>
      <trkpt lat="44.92516" lon="0.88257">
        <ele>142</ele>
        <time>1970-01-01T01:55:52.000Z</time>
      </trkpt>
      <trkpt lat="44.92519" lon="0.88256">
        <ele>143.2</ele>
        <time>1970-01-01T01:55:53.000Z</time>
      </trkpt>
      <trkpt lat="44.92522" lon="0.88254">
        <ele>143.2</ele>
        <time>1970-01-01T01:55:54.000Z</time>
      </trkpt>
      <trkpt lat="44.92525" lon="0.88253">
        <ele>143.2</ele>
        <time>1970-01-01T01:55:55.000Z</time>
      </trkpt>
      <trkpt lat="44.92528" lon="0.88252">
        <ele>143.2</ele>
        <time>1970-01-01T01:55:56.000Z</time>
      </trkpt>
      <trkpt lat="44.9253" lon="0.88251">
        <ele>142.5</ele>
        <time>1970-01-01T01:55:57.000Z</time>
      </trkpt>
      <trkpt lat="44.92533" lon="0.8825">
        <ele>143.8</ele>
        <time>1970-01-01T01:55:58.000Z</time>
      </trkpt>
      <trkpt lat="44.92536" lon="0.8825">
        <ele>143.8</ele>
        <time>1970-01-01T01:55:59.000Z</time>
      </trkpt>
      <trkpt lat="44.92538" lon="0.88249">
        <ele>143.8</ele>
        <time>1970-01-01T01:56:00.000Z</time>
      </trkpt>
      <trkpt lat="44.92541" lon="0.88248">
        <ele>143.8</ele>
        <time>1970-01-01T01:56:01.000Z</time>
      </trkpt>
      <trkpt lat="44.92543" lon="0.88247">
        <ele>143.8</ele>
        <time>1970-01-01T01:56:02.000Z</time>
      </trkpt>
      <trkpt lat="44.92546" lon="0.88247">
        <ele>145.2</ele>
        <time>1970-01-01T01:56:03.000Z</time>
      </trkpt>
      <trkpt lat="44.92548" lon="0.88247">
        <ele>145.1</ele>
        <time>1970-01-01T01:56:04.000Z</time>
      </trkpt>
      <trkpt lat="44.92551" lon="0.88247">
        <ele>145.1</ele>
        <time>1970-01-01T01:56:05.000Z</time>
      </trkpt>
      <trkpt lat="44.92554" lon="0.88246">
        <ele>145.1</ele>
        <time>1970-01-01T01:56:06.000Z</time>
      </trkpt>
      <trkpt lat="44.92557" lon="0.88246">
        <ele>146.8</ele>
        <time>1970-01-01T01:56:07.000Z</time>
      </trkpt>
      <trkpt lat="44.9256" lon="0.88245">
        <ele>146.8</ele>
        <time>1970-01-01T01:56:08.000Z</time>
      </trkpt>
      <trkpt lat="44.92563" lon="0.88245">
        <ele>146.8</ele>
        <time>1970-01-01T01:56:09.000Z</time>
      </trkpt>
      <trkpt lat="44.92565" lon="0.88244">
        <ele>146.8</ele>
        <time>1970-01-01T01:56:10.000Z</time>
      </trkpt>
      <trkpt lat="44.92568" lon="0.88244">
        <ele>148</ele>
        <time>1970-01-01T01:56:11.000Z</time>
      </trkpt>
      <trkpt lat="44.92571" lon="0.88243">
        <ele>148</ele>
        <time>1970-01-01T01:56:12.000Z</time>
      </trkpt>
      <trkpt lat="44.92573" lon="0.88243">
        <ele>148</ele>
        <time>1970-01-01T01:56:13.000Z</time>
      </trkpt>
      <trkpt lat="44.92576" lon="0.88243">
        <ele>148</ele>
        <time>1970-01-01T01:56:14.000Z</time>
      </trkpt>
      <trkpt lat="44.92578" lon="0.88242">
        <ele>148</ele>
        <time>1970-01-01T01:56:15.000Z</time>
      </trkpt>
      <trkpt lat="44.9258" lon="0.88242">
        <ele>148.9</ele>
        <time>1970-01-01T01:56:16.000Z</time>
      </trkpt>
      <trkpt lat="44.92583" lon="0.88242">
        <ele>148.9</ele>
        <time>1970-01-01T01:56:17.000Z</time>
      </trkpt>
      <trkpt lat="44.92585" lon="0.88241">
        <ele>148.9</ele>
        <time>1970-01-01T01:56:18.000Z</time>
      </trkpt>
      <trkpt lat="44.92587" lon="0.88241">
        <ele>148.9</ele>
        <time>1970-01-01T01:56:19.000Z</time>
      </trkpt>
      <trkpt lat="44.92589" lon="0.88241">
        <ele>148.9</ele>
        <time>1970-01-01T01:56:20.000Z</time>
      </trkpt>
      <trkpt lat="44.92592" lon="0.88241">
        <ele>148.9</ele>
        <time>1970-01-01T01:56:21.000Z</time>
      </trkpt>
      <trkpt lat="44.92594" lon="0.88241">
        <ele>149.4</ele>
        <time>1970-01-01T01:56:22.000Z</time>
      </trkpt>
      <trkpt lat="44.92596" lon="0.88241">
        <ele>149.4</ele>
        <time>1970-01-01T01:56:23.000Z</time>
      </trkpt>
      <trkpt lat="44.92598" lon="0.88241">
        <ele>149.4</ele>
        <time>1970-01-01T01:56:24.000Z</time>
      </trkpt>
      <trkpt lat="44.92601" lon="0.8824">
        <ele>149.4</ele>
        <time>1970-01-01T01:56:25.000Z</time>
      </trkpt>
      <trkpt lat="44.92603" lon="0.8824">
        <ele>149.4</ele>
        <time>1970-01-01T01:56:26.000Z</time>
      </trkpt>
      <trkpt lat="44.92606" lon="0.8824">
        <ele>149.9</ele>
        <time>1970-01-01T01:56:27.000Z</time>
      </trkpt>
      <trkpt lat="44.92609" lon="0.88239">
        <ele>149.9</ele>
        <time>1970-01-01T01:56:28.000Z</time>
      </trkpt>
      <trkpt lat="44.92611" lon="0.88238">
        <ele>149.9</ele>
        <time>1970-01-01T01:56:29.000Z</time>
      </trkpt>
      <trkpt lat="44.92613" lon="0.88238">
        <ele>149.9</ele>
        <time>1970-01-01T01:56:30.000Z</time>
      </trkpt>
      <trkpt lat="44.92616" lon="0.88237">
        <ele>149.9</ele>
        <time>1970-01-01T01:56:31.000Z</time>
      </trkpt>
      <trkpt lat="44.92618" lon="0.88237">
        <ele>150.5</ele>
        <time>1970-01-01T01:56:32.000Z</time>
      </trkpt>
      <trkpt lat="44.9262" lon="0.88237">
        <ele>150.5</ele>
        <time>1970-01-01T01:56:33.000Z</time>
      </trkpt>
      <trkpt lat="44.92623" lon="0.88236">
        <ele>150.4</ele>
        <time>1970-01-01T01:56:34.000Z</time>
      </trkpt>
      <trkpt lat="44.92626" lon="0.88236">
        <ele>150.4</ele>
        <time>1970-01-01T01:56:35.000Z</time>
      </trkpt>
      <trkpt lat="44.9263" lon="0.88235">
        <ele>151.1</ele>
        <time>1970-01-01T01:56:36.000Z</time>
      </trkpt>
      <trkpt lat="44.92633" lon="0.88235">
        <ele>151.1</ele>
        <time>1970-01-01T01:56:37.000Z</time>
      </trkpt>
      <trkpt lat="44.92637" lon="0.88235">
        <ele>151</ele>
        <time>1970-01-01T01:56:38.000Z</time>
      </trkpt>
      <trkpt lat="44.92639" lon="0.88235">
        <ele>151</ele>
        <time>1970-01-01T01:56:39.000Z</time>
      </trkpt>
      <trkpt lat="44.92642" lon="0.88235">
        <ele>151.9</ele>
        <time>1970-01-01T01:56:40.000Z</time>
      </trkpt>
      <trkpt lat="44.92645" lon="0.88235">
        <ele>151.9</ele>
        <time>1970-01-01T01:56:41.000Z</time>
      </trkpt>
      <trkpt lat="44.92648" lon="0.88234">
        <ele>151.9</ele>
        <time>1970-01-01T01:56:42.000Z</time>
      </trkpt>
      <trkpt lat="44.9265" lon="0.88234">
        <ele>151.9</ele>
        <time>1970-01-01T01:56:43.000Z</time>
      </trkpt>
      <trkpt lat="44.92653" lon="0.88234">
        <ele>151.4</ele>
        <time>1970-01-01T01:56:44.000Z</time>
      </trkpt>
      <trkpt lat="44.92656" lon="0.88234">
        <ele>151.3</ele>
        <time>1970-01-01T01:56:45.000Z</time>
      </trkpt>
      <trkpt lat="44.92659" lon="0.88234">
        <ele>151.3</ele>
        <time>1970-01-01T01:56:46.000Z</time>
      </trkpt>
      <trkpt lat="44.92662" lon="0.88234">
        <ele>151.3</ele>
        <time>1970-01-01T01:56:47.000Z</time>
      </trkpt>
      <trkpt lat="44.92664" lon="0.88234">
        <ele>151.3</ele>
        <time>1970-01-01T01:56:48.000Z</time>
      </trkpt>
      <trkpt lat="44.92667" lon="0.88234">
        <ele>152.2</ele>
        <time>1970-01-01T01:56:49.000Z</time>
      </trkpt>
      <trkpt lat="44.9267" lon="0.88234">
        <ele>152.2</ele>
        <time>1970-01-01T01:56:50.000Z</time>
      </trkpt>
      <trkpt lat="44.92672" lon="0.88234">
        <ele>152.2</ele>
        <time>1970-01-01T01:56:51.000Z</time>
      </trkpt>
      <trkpt lat="44.92675" lon="0.88233">
        <ele>152.2</ele>
        <time>1970-01-01T01:56:52.000Z</time>
      </trkpt>
      <trkpt lat="44.92678" lon="0.88233">
        <ele>153.1</ele>
        <time>1970-01-01T01:56:53.000Z</time>
      </trkpt>
      <trkpt lat="44.92681" lon="0.88232">
        <ele>153.1</ele>
        <time>1970-01-01T01:56:54.000Z</time>
      </trkpt>
      <trkpt lat="44.92684" lon="0.88232">
        <ele>153.1</ele>
        <time>1970-01-01T01:56:55.000Z</time>
      </trkpt>
      <trkpt lat="44.92686" lon="0.88232">
        <ele>153.1</ele>
        <time>1970-01-01T01:56:56.000Z</time>
      </trkpt>
      <trkpt lat="44.92689" lon="0.88232">
        <ele>153.1</ele>
        <time>1970-01-01T01:56:57.000Z</time>
      </trkpt>
      <trkpt lat="44.92692" lon="0.88232">
        <ele>154.1</ele>
        <time>1970-01-01T01:56:58.000Z</time>
      </trkpt>
      <trkpt lat="44.92695" lon="0.88231">
        <ele>154.1</ele>
        <time>1970-01-01T01:56:59.000Z</time>
      </trkpt>
      <trkpt lat="44.92697" lon="0.88231">
        <ele>154.1</ele>
        <time>1970-01-01T01:57:00.000Z</time>
      </trkpt>
      <trkpt lat="44.927" lon="0.88231">
        <ele>154.1</ele>
        <time>1970-01-01T01:57:01.000Z</time>
      </trkpt>
      <trkpt lat="44.92703" lon="0.88231">
        <ele>155.2</ele>
        <time>1970-01-01T01:57:02.000Z</time>
      </trkpt>
      <trkpt lat="44.92705" lon="0.8823">
        <ele>155.2</ele>
        <time>1970-01-01T01:57:03.000Z</time>
      </trkpt>
      <trkpt lat="44.92708" lon="0.8823">
        <ele>155.2</ele>
        <time>1970-01-01T01:57:04.000Z</time>
      </trkpt>
      <trkpt lat="44.9271" lon="0.8823">
        <ele>155.2</ele>
        <time>1970-01-01T01:57:05.000Z</time>
      </trkpt>
      <trkpt lat="44.92713" lon="0.8823">
        <ele>155.2</ele>
        <time>1970-01-01T01:57:06.000Z</time>
      </trkpt>
      <trkpt lat="44.92716" lon="0.8823">
        <ele>156.1</ele>
        <time>1970-01-01T01:57:07.000Z</time>
      </trkpt>
      <trkpt lat="44.92718" lon="0.8823">
        <ele>156.1</ele>
        <time>1970-01-01T01:57:08.000Z</time>
      </trkpt>
      <trkpt lat="44.9272" lon="0.8823">
        <ele>156.1</ele>
        <time>1970-01-01T01:57:09.000Z</time>
      </trkpt>
      <trkpt lat="44.92723" lon="0.8823">
        <ele>156.1</ele>
        <time>1970-01-01T01:57:10.000Z</time>
      </trkpt>
      <trkpt lat="44.92725" lon="0.88229">
        <ele>156.1</ele>
        <time>1970-01-01T01:57:11.000Z</time>
      </trkpt>
      <trkpt lat="44.92728" lon="0.88229">
        <ele>157.1</ele>
        <time>1970-01-01T01:57:12.000Z</time>
      </trkpt>
      <trkpt lat="44.9273" lon="0.8823">
        <ele>157.1</ele>
        <time>1970-01-01T01:57:13.000Z</time>
      </trkpt>
      <trkpt lat="44.92733" lon="0.8823">
        <ele>157.1</ele>
        <time>1970-01-01T01:57:14.000Z</time>
      </trkpt>
      <trkpt lat="44.92735" lon="0.8823">
        <ele>157.1</ele>
        <time>1970-01-01T01:57:15.000Z</time>
      </trkpt>
      <trkpt lat="44.92738" lon="0.88231">
        <ele>158.1</ele>
        <time>1970-01-01T01:57:16.000Z</time>
      </trkpt>
      <trkpt lat="44.92741" lon="0.88231">
        <ele>158.1</ele>
        <time>1970-01-01T01:57:17.000Z</time>
      </trkpt>
      <trkpt lat="44.92743" lon="0.88232">
        <ele>158.1</ele>
        <time>1970-01-01T01:57:18.000Z</time>
      </trkpt>
      <trkpt lat="44.92746" lon="0.88233">
        <ele>158.1</ele>
        <time>1970-01-01T01:57:19.000Z</time>
      </trkpt>
      <trkpt lat="44.92748" lon="0.88233">
        <ele>158.1</ele>
        <time>1970-01-01T01:57:20.000Z</time>
      </trkpt>
      <trkpt lat="44.9275" lon="0.88234">
        <ele>158.7</ele>
        <time>1970-01-01T01:57:21.000Z</time>
      </trkpt>
      <trkpt lat="44.92752" lon="0.88235">
        <ele>159.8</ele>
        <time>1970-01-01T01:57:22.000Z</time>
      </trkpt>
      <trkpt lat="44.92754" lon="0.88237">
        <ele>159.8</ele>
        <time>1970-01-01T01:57:23.000Z</time>
      </trkpt>
      <trkpt lat="44.92757" lon="0.88238">
        <ele>159.8</ele>
        <time>1970-01-01T01:57:24.000Z</time>
      </trkpt>
      <trkpt lat="44.92759" lon="0.88239">
        <ele>159.8</ele>
        <time>1970-01-01T01:57:25.000Z</time>
      </trkpt>
      <trkpt lat="44.92762" lon="0.8824">
        <ele>159.8</ele>
        <time>1970-01-01T01:57:26.000Z</time>
      </trkpt>
      <trkpt lat="44.92764" lon="0.88241">
        <ele>160.5</ele>
        <time>1970-01-01T01:57:27.000Z</time>
      </trkpt>
      <trkpt lat="44.92766" lon="0.88242">
        <ele>160.5</ele>
        <time>1970-01-01T01:57:28.000Z</time>
      </trkpt>
      <trkpt lat="44.92768" lon="0.88242">
        <ele>160.5</ele>
        <time>1970-01-01T01:57:29.000Z</time>
      </trkpt>
      <trkpt lat="44.92771" lon="0.88243">
        <ele>160.5</ele>
        <time>1970-01-01T01:57:30.000Z</time>
      </trkpt>
      <trkpt lat="44.92773" lon="0.88244">
        <ele>160.5</ele>
        <time>1970-01-01T01:57:31.000Z</time>
      </trkpt>
      <trkpt lat="44.92775" lon="0.88245">
        <ele>161.1</ele>
        <time>1970-01-01T01:57:32.000Z</time>
      </trkpt>
      <trkpt lat="44.92777" lon="0.88245">
        <ele>161.1</ele>
        <time>1970-01-01T01:57:33.000Z</time>
      </trkpt>
      <trkpt lat="44.9278" lon="0.88245">
        <ele>161.1</ele>
        <time>1970-01-01T01:57:34.000Z</time>
      </trkpt>
      <trkpt lat="44.92782" lon="0.88246">
        <ele>161.1</ele>
        <time>1970-01-01T01:57:35.000Z</time>
      </trkpt>
      <trkpt lat="44.92785" lon="0.88246">
        <ele>161.1</ele>
        <time>1970-01-01T01:57:36.000Z</time>
      </trkpt>
      <trkpt lat="44.92787" lon="0.88246">
        <ele>161.5</ele>
        <time>1970-01-01T01:57:37.000Z</time>
      </trkpt>
      <trkpt lat="44.9279" lon="0.88245">
        <ele>161.5</ele>
        <time>1970-01-01T01:57:38.000Z</time>
      </trkpt>
      <trkpt lat="44.92792" lon="0.88245">
        <ele>161.5</ele>
        <time>1970-01-01T01:57:39.000Z</time>
      </trkpt>
      <trkpt lat="44.92794" lon="0.88245">
        <ele>161.5</ele>
        <time>1970-01-01T01:57:40.000Z</time>
      </trkpt>
      <trkpt lat="44.92796" lon="0.88244">
        <ele>161.5</ele>
        <time>1970-01-01T01:57:41.000Z</time>
      </trkpt>
      <trkpt lat="44.92799" lon="0.88243">
        <ele>162</ele>
        <time>1970-01-01T01:57:42.000Z</time>
      </trkpt>
      <trkpt lat="44.92801" lon="0.88243">
        <ele>162</ele>
        <time>1970-01-01T01:57:43.000Z</time>
      </trkpt>
      <trkpt lat="44.92803" lon="0.88242">
        <ele>162</ele>
        <time>1970-01-01T01:57:44.000Z</time>
      </trkpt>
      <trkpt lat="44.92806" lon="0.88242">
        <ele>162</ele>
        <time>1970-01-01T01:57:45.000Z</time>
      </trkpt>
      <trkpt lat="44.92808" lon="0.88241">
        <ele>162</ele>
        <time>1970-01-01T01:57:46.000Z</time>
      </trkpt>
      <trkpt lat="44.92811" lon="0.88241">
        <ele>162</ele>
        <time>1970-01-01T01:57:47.000Z</time>
      </trkpt>
      <trkpt lat="44.92813" lon="0.88241">
        <ele>162.9</ele>
        <time>1970-01-01T01:57:48.000Z</time>
      </trkpt>
      <trkpt lat="44.92816" lon="0.88241">
        <ele>162.9</ele>
        <time>1970-01-01T01:57:49.000Z</time>
      </trkpt>
      <trkpt lat="44.92818" lon="0.88241">
        <ele>162.9</ele>
        <time>1970-01-01T01:57:50.000Z</time>
      </trkpt>
      <trkpt lat="44.92821" lon="0.88241">
        <ele>162.9</ele>
        <time>1970-01-01T01:57:51.000Z</time>
      </trkpt>
      <trkpt lat="44.92823" lon="0.88241">
        <ele>164.1</ele>
        <time>1970-01-01T01:57:52.000Z</time>
      </trkpt>
      <trkpt lat="44.92825" lon="0.88241">
        <ele>164.1</ele>
        <time>1970-01-01T01:57:53.000Z</time>
      </trkpt>
      <trkpt lat="44.92828" lon="0.88241">
        <ele>164.1</ele>
        <time>1970-01-01T01:57:54.000Z</time>
      </trkpt>
      <trkpt lat="44.9283" lon="0.88241">
        <ele>164.1</ele>
        <time>1970-01-01T01:57:55.000Z</time>
      </trkpt>
      <trkpt lat="44.92832" lon="0.88242">
        <ele>164</ele>
        <time>1970-01-01T01:57:56.000Z</time>
      </trkpt>
      <trkpt lat="44.92834" lon="0.88242">
        <ele>164</ele>
        <time>1970-01-01T01:57:57.000Z</time>
      </trkpt>
      <trkpt lat="44.92836" lon="0.88242">
        <ele>165.6</ele>
        <time>1970-01-01T01:57:58.000Z</time>
      </trkpt>
      <trkpt lat="44.92838" lon="0.88242">
        <ele>165.6</ele>
        <time>1970-01-01T01:57:59.000Z</time>
      </trkpt>
      <trkpt lat="44.92841" lon="0.88243">
        <ele>165.6</ele>
        <time>1970-01-01T01:58:00.000Z</time>
      </trkpt>
      <trkpt lat="44.92843" lon="0.88243">
        <ele>165.6</ele>
        <time>1970-01-01T01:58:01.000Z</time>
      </trkpt>
      <trkpt lat="44.92845" lon="0.88243">
        <ele>165.6</ele>
        <time>1970-01-01T01:58:02.000Z</time>
      </trkpt>
      <trkpt lat="44.92847" lon="0.88243">
        <ele>166.8</ele>
        <time>1970-01-01T01:58:03.000Z</time>
      </trkpt>
      <trkpt lat="44.92849" lon="0.88243">
        <ele>166.8</ele>
        <time>1970-01-01T01:58:04.000Z</time>
      </trkpt>
      <trkpt lat="44.92851" lon="0.88244">
        <ele>166.8</ele>
        <time>1970-01-01T01:58:05.000Z</time>
      </trkpt>
      <trkpt lat="44.92853" lon="0.88244">
        <ele>166.8</ele>
        <time>1970-01-01T01:58:06.000Z</time>
      </trkpt>
      <trkpt lat="44.92856" lon="0.88245">
        <ele>166.8</ele>
        <time>1970-01-01T01:58:07.000Z</time>
      </trkpt>
      <trkpt lat="44.92858" lon="0.88245">
        <ele>166.8</ele>
        <time>1970-01-01T01:58:08.000Z</time>
      </trkpt>
      <trkpt lat="44.92861" lon="0.88246">
        <ele>168</ele>
        <time>1970-01-01T01:58:09.000Z</time>
      </trkpt>
      <trkpt lat="44.92863" lon="0.88246">
        <ele>168</ele>
        <time>1970-01-01T01:58:10.000Z</time>
      </trkpt>
      <trkpt lat="44.92866" lon="0.88245">
        <ele>168</ele>
        <time>1970-01-01T01:58:11.000Z</time>
      </trkpt>
      <trkpt lat="44.92869" lon="0.88244">
        <ele>168</ele>
        <time>1970-01-01T01:58:12.000Z</time>
      </trkpt>
      <trkpt lat="44.92871" lon="0.88243">
        <ele>169.1</ele>
        <time>1970-01-01T01:58:13.000Z</time>
      </trkpt>
      <trkpt lat="44.92874" lon="0.88241">
        <ele>169.1</ele>
        <time>1970-01-01T01:58:14.000Z</time>
      </trkpt>
      <trkpt lat="44.92877" lon="0.8824">
        <ele>169.1</ele>
        <time>1970-01-01T01:58:15.000Z</time>
      </trkpt>
      <trkpt lat="44.92879" lon="0.8824">
        <ele>169.1</ele>
        <time>1970-01-01T01:58:16.000Z</time>
      </trkpt>
      <trkpt lat="44.92881" lon="0.8824">
        <ele>169.1</ele>
        <time>1970-01-01T01:58:17.000Z</time>
      </trkpt>
      <trkpt lat="44.92884" lon="0.8824">
        <ele>170.6</ele>
        <time>1970-01-01T01:58:18.000Z</time>
      </trkpt>
      <trkpt lat="44.92886" lon="0.8824">
        <ele>170.6</ele>
        <time>1970-01-01T01:58:19.000Z</time>
      </trkpt>
      <trkpt lat="44.92888" lon="0.88241">
        <ele>170.6</ele>
        <time>1970-01-01T01:58:20.000Z</time>
      </trkpt>
      <trkpt lat="44.92889" lon="0.88243">
        <ele>170.6</ele>
        <time>1970-01-01T01:58:21.000Z</time>
      </trkpt>
      <trkpt lat="44.9289" lon="0.88245">
        <ele>170.5</ele>
        <time>1970-01-01T01:58:22.000Z</time>
      </trkpt>
      <trkpt lat="44.92891" lon="0.88247">
        <ele>170.5</ele>
        <time>1970-01-01T01:58:23.000Z</time>
      </trkpt>
      <trkpt lat="44.92892" lon="0.88251">
        <ele>170.5</ele>
        <time>1970-01-01T01:58:24.000Z</time>
      </trkpt>
      <trkpt lat="44.92893" lon="0.88255">
        <ele>170.7</ele>
        <time>1970-01-01T01:58:25.000Z</time>
      </trkpt>
      <trkpt lat="44.92894" lon="0.88259">
        <ele>170.7</ele>
        <time>1970-01-01T01:58:26.000Z</time>
      </trkpt>
      <trkpt lat="44.92895" lon="0.88262">
        <ele>170.7</ele>
        <time>1970-01-01T01:58:27.000Z</time>
      </trkpt>
      <trkpt lat="44.92895" lon="0.88265">
        <ele>170.7</ele>
        <time>1970-01-01T01:58:28.000Z</time>
      </trkpt>
      <trkpt lat="44.92895" lon="0.88268">
        <ele>170.7</ele>
        <time>1970-01-01T01:58:29.000Z</time>
      </trkpt>
      <trkpt lat="44.92895" lon="0.88271">
        <ele>171.2</ele>
        <time>1970-01-01T01:58:30.000Z</time>
      </trkpt>
      <trkpt lat="44.92895" lon="0.88274">
        <ele>171.2</ele>
        <time>1970-01-01T01:58:31.000Z</time>
      </trkpt>
      <trkpt lat="44.92896" lon="0.88276">
        <ele>171.1</ele>
        <time>1970-01-01T01:58:32.000Z</time>
      </trkpt>
      <trkpt lat="44.92896" lon="0.88279">
        <ele>172.7</ele>
        <time>1970-01-01T01:58:33.000Z</time>
      </trkpt>
      <trkpt lat="44.92897" lon="0.88282">
        <ele>172.7</ele>
        <time>1970-01-01T01:58:34.000Z</time>
      </trkpt>
      <trkpt lat="44.92898" lon="0.88285">
        <ele>172.7</ele>
        <time>1970-01-01T01:58:35.000Z</time>
      </trkpt>
      <trkpt lat="44.92899" lon="0.88288">
        <ele>173.5</ele>
        <time>1970-01-01T01:58:36.000Z</time>
      </trkpt>
      <trkpt lat="44.929" lon="0.88291">
        <ele>173.5</ele>
        <time>1970-01-01T01:58:37.000Z</time>
      </trkpt>
      <trkpt lat="44.92901" lon="0.88293">
        <ele>173.5</ele>
        <time>1970-01-01T01:58:38.000Z</time>
      </trkpt>
      <trkpt lat="44.92901" lon="0.88296">
        <ele>173.5</ele>
        <time>1970-01-01T01:58:39.000Z</time>
      </trkpt>
      <trkpt lat="44.92902" lon="0.88299">
        <ele>173.5</ele>
        <time>1970-01-01T01:58:40.000Z</time>
      </trkpt>
      <trkpt lat="44.92903" lon="0.88301">
        <ele>173.5</ele>
        <time>1970-01-01T01:58:41.000Z</time>
      </trkpt>
      <trkpt lat="44.92904" lon="0.88304">
        <ele>174.4</ele>
        <time>1970-01-01T01:58:42.000Z</time>
      </trkpt>
      <trkpt lat="44.92905" lon="0.88307">
        <ele>174.4</ele>
        <time>1970-01-01T01:58:43.000Z</time>
      </trkpt>
      <trkpt lat="44.92906" lon="0.88309">
        <ele>174.4</ele>
        <time>1970-01-01T01:58:44.000Z</time>
      </trkpt>
      <trkpt lat="44.92907" lon="0.88312">
        <ele>174.4</ele>
        <time>1970-01-01T01:58:45.000Z</time>
      </trkpt>
      <trkpt lat="44.92908" lon="0.88315">
        <ele>175.8</ele>
        <time>1970-01-01T01:58:46.000Z</time>
      </trkpt>
      <trkpt lat="44.92909" lon="0.88318">
        <ele>175.8</ele>
        <time>1970-01-01T01:58:47.000Z</time>
      </trkpt>
      <trkpt lat="44.92911" lon="0.8832">
        <ele>176.2</ele>
        <time>1970-01-01T01:58:48.000Z</time>
      </trkpt>
      <trkpt lat="44.92912" lon="0.88322">
        <ele>176.2</ele>
        <time>1970-01-01T01:58:49.000Z</time>
      </trkpt>
      <trkpt lat="44.92913" lon="0.88324">
        <ele>176.2</ele>
        <time>1970-01-01T01:58:50.000Z</time>
      </trkpt>
      <trkpt lat="44.92914" lon="0.88326">
        <ele>176.2</ele>
        <time>1970-01-01T01:58:51.000Z</time>
      </trkpt>
      <trkpt lat="44.92915" lon="0.88328">
        <ele>176.2</ele>
        <time>1970-01-01T01:58:52.000Z</time>
      </trkpt>
      <trkpt lat="44.92916" lon="0.8833">
        <ele>176.2</ele>
        <time>1970-01-01T01:58:53.000Z</time>
      </trkpt>
      <trkpt lat="44.92918" lon="0.88332">
        <ele>176.2</ele>
        <time>1970-01-01T01:58:54.000Z</time>
      </trkpt>
      <trkpt lat="44.92919" lon="0.88333">
        <ele>176.2</ele>
        <time>1970-01-01T01:58:55.000Z</time>
      </trkpt>
      <trkpt lat="44.92921" lon="0.88335">
        <ele>178</ele>
        <time>1970-01-01T01:58:56.000Z</time>
      </trkpt>
      <trkpt lat="44.92923" lon="0.88337">
        <ele>178.2</ele>
        <time>1970-01-01T01:58:57.000Z</time>
      </trkpt>
      <trkpt lat="44.92925" lon="0.88339">
        <ele>178.2</ele>
        <time>1970-01-01T01:58:58.000Z</time>
      </trkpt>
      <trkpt lat="44.92928" lon="0.88341">
        <ele>178.2</ele>
        <time>1970-01-01T01:58:59.000Z</time>
      </trkpt>
      <trkpt lat="44.9293" lon="0.88343">
        <ele>178.2</ele>
        <time>1970-01-01T01:59:00.000Z</time>
      </trkpt>
      <trkpt lat="44.92932" lon="0.88345">
        <ele>178.2</ele>
        <time>1970-01-01T01:59:01.000Z</time>
      </trkpt>
      <trkpt lat="44.92934" lon="0.88346">
        <ele>180</ele>
        <time>1970-01-01T01:59:02.000Z</time>
      </trkpt>
      <trkpt lat="44.92936" lon="0.88348">
        <ele>180</ele>
        <time>1970-01-01T01:59:03.000Z</time>
      </trkpt>
      <trkpt lat="44.92937" lon="0.88349">
        <ele>180</ele>
        <time>1970-01-01T01:59:04.000Z</time>
      </trkpt>
      <trkpt lat="44.92939" lon="0.8835">
        <ele>180</ele>
        <time>1970-01-01T01:59:05.000Z</time>
      </trkpt>
      <trkpt lat="44.92941" lon="0.8835">
        <ele>180</ele>
        <time>1970-01-01T01:59:06.000Z</time>
      </trkpt>
      <trkpt lat="44.92942" lon="0.88351">
        <ele>180</ele>
        <time>1970-01-01T01:59:07.000Z</time>
      </trkpt>
      <trkpt lat="44.92944" lon="0.88351">
        <ele>182.4</ele>
        <time>1970-01-01T01:59:08.000Z</time>
      </trkpt>
      <trkpt lat="44.92946" lon="0.8835">
        <ele>182.4</ele>
        <time>1970-01-01T01:59:09.000Z</time>
      </trkpt>
      <trkpt lat="44.92948" lon="0.88349">
        <ele>182.4</ele>
        <time>1970-01-01T01:59:10.000Z</time>
      </trkpt>
      <trkpt lat="44.9295" lon="0.88348">
        <ele>182.4</ele>
        <time>1970-01-01T01:59:11.000Z</time>
      </trkpt>
      <trkpt lat="44.92951" lon="0.88347">
        <ele>182.4</ele>
        <time>1970-01-01T01:59:12.000Z</time>
      </trkpt>
      <trkpt lat="44.92953" lon="0.88347">
        <ele>182.4</ele>
        <time>1970-01-01T01:59:13.000Z</time>
      </trkpt>
      <trkpt lat="44.92954" lon="0.88346">
        <ele>182.4</ele>
        <time>1970-01-01T01:59:14.000Z</time>
      </trkpt>
      <trkpt lat="44.92956" lon="0.88345">
        <ele>182.4</ele>
        <time>1970-01-01T01:59:15.000Z</time>
      </trkpt>
      <trkpt lat="44.92958" lon="0.88344">
        <ele>184.9</ele>
        <time>1970-01-01T01:59:16.000Z</time>
      </trkpt>
      <trkpt lat="44.92959" lon="0.88342">
        <ele>184.9</ele>
        <time>1970-01-01T01:59:17.000Z</time>
      </trkpt>
      <trkpt lat="44.92961" lon="0.88341">
        <ele>184.9</ele>
        <time>1970-01-01T01:59:18.000Z</time>
      </trkpt>
      <trkpt lat="44.92962" lon="0.88339">
        <ele>184.9</ele>
        <time>1970-01-01T01:59:19.000Z</time>
      </trkpt>
      <trkpt lat="44.92964" lon="0.88338">
        <ele>184.9</ele>
        <time>1970-01-01T01:59:20.000Z</time>
      </trkpt>
      <trkpt lat="44.92965" lon="0.88337">
        <ele>185.2</ele>
        <time>1970-01-01T01:59:21.000Z</time>
      </trkpt>
      <trkpt lat="44.92967" lon="0.88336">
        <ele>185.1</ele>
        <time>1970-01-01T01:59:22.000Z</time>
      </trkpt>
      <trkpt lat="44.92968" lon="0.88334">
        <ele>185.1</ele>
        <time>1970-01-01T01:59:23.000Z</time>
      </trkpt>
      <trkpt lat="44.9297" lon="0.88332">
        <ele>188.1</ele>
        <time>1970-01-01T01:59:24.000Z</time>
      </trkpt>
      <trkpt lat="44.92971" lon="0.88331">
        <ele>188.1</ele>
        <time>1970-01-01T01:59:25.000Z</time>
      </trkpt>
      <trkpt lat="44.92973" lon="0.88329">
        <ele>188.1</ele>
        <time>1970-01-01T01:59:26.000Z</time>
      </trkpt>
      <trkpt lat="44.92974" lon="0.88328">
        <ele>188.1</ele>
        <time>1970-01-01T01:59:27.000Z</time>
      </trkpt>
      <trkpt lat="44.92975" lon="0.88326">
        <ele>188.1</ele>
        <time>1970-01-01T01:59:28.000Z</time>
      </trkpt>
      <trkpt lat="44.92977" lon="0.88324">
        <ele>188.1</ele>
        <time>1970-01-01T01:59:29.000Z</time>
      </trkpt>
      <trkpt lat="44.92978" lon="0.88322">
        <ele>188.1</ele>
        <time>1970-01-01T01:59:30.000Z</time>
      </trkpt>
      <trkpt lat="44.92979" lon="0.8832">
        <ele>188.1</ele>
        <time>1970-01-01T01:59:31.000Z</time>
      </trkpt>
      <trkpt lat="44.92981" lon="0.88319">
        <ele>190.2</ele>
        <time>1970-01-01T01:59:32.000Z</time>
      </trkpt>
      <trkpt lat="44.92982" lon="0.88317">
        <ele>190.2</ele>
        <time>1970-01-01T01:59:33.000Z</time>
      </trkpt>
      <trkpt lat="44.92984" lon="0.88315">
        <ele>190.2</ele>
        <time>1970-01-01T01:59:34.000Z</time>
      </trkpt>
      <trkpt lat="44.92985" lon="0.88312">
        <ele>190.2</ele>
        <time>1970-01-01T01:59:35.000Z</time>
      </trkpt>
      <trkpt lat="44.92986" lon="0.8831">
        <ele>190.1</ele>
        <time>1970-01-01T01:59:36.000Z</time>
      </trkpt>
      <trkpt lat="44.92987" lon="0.88308">
        <ele>190.1</ele>
        <time>1970-01-01T01:59:37.000Z</time>
      </trkpt>
      <trkpt lat="44.92987" lon="0.88305">
        <ele>190.1</ele>
        <time>1970-01-01T01:59:38.000Z</time>
      </trkpt>
      <trkpt lat="44.92988" lon="0.88303">
        <ele>190.1</ele>
        <time>1970-01-01T01:59:39.000Z</time>
      </trkpt>
      <trkpt lat="44.92989" lon="0.88301">
        <ele>188.8</ele>
        <time>1970-01-01T01:59:40.000Z</time>
      </trkpt>
      <trkpt lat="44.9299" lon="0.88298">
        <ele>188.8</ele>
        <time>1970-01-01T01:59:41.000Z</time>
      </trkpt>
      <trkpt lat="44.92991" lon="0.88296">
        <ele>188.8</ele>
        <time>1970-01-01T01:59:42.000Z</time>
      </trkpt>
      <trkpt lat="44.92992" lon="0.88292">
        <ele>188.8</ele>
        <time>1970-01-01T01:59:43.000Z</time>
      </trkpt>
      <trkpt lat="44.92993" lon="0.88289">
        <ele>191.9</ele>
        <time>1970-01-01T01:59:44.000Z</time>
      </trkpt>
      <trkpt lat="44.92995" lon="0.88287">
        <ele>191.9</ele>
        <time>1970-01-01T01:59:45.000Z</time>
      </trkpt>
      <trkpt lat="44.92996" lon="0.88284">
        <ele>190.6</ele>
        <time>1970-01-01T01:59:46.000Z</time>
      </trkpt>
      <trkpt lat="44.92998" lon="0.88281">
        <ele>190.6</ele>
        <time>1970-01-01T01:59:47.000Z</time>
      </trkpt>
      <trkpt lat="44.93" lon="0.8828">
        <ele>190.6</ele>
        <time>1970-01-01T01:59:48.000Z</time>
      </trkpt>
      <trkpt lat="44.93003" lon="0.8828">
        <ele>190.6</ele>
        <time>1970-01-01T01:59:49.000Z</time>
      </trkpt>
      <trkpt lat="44.93005" lon="0.88281">
        <ele>190.6</ele>
        <time>1970-01-01T01:59:50.000Z</time>
      </trkpt>
      <trkpt lat="44.93006" lon="0.88283">
        <ele>193.6</ele>
        <time>1970-01-01T01:59:51.000Z</time>
      </trkpt>
      <trkpt lat="44.93007" lon="0.88284">
        <ele>193.6</ele>
        <time>1970-01-01T01:59:52.000Z</time>
      </trkpt>
      <trkpt lat="44.93008" lon="0.88285">
        <ele>193.6</ele>
        <time>1970-01-01T01:59:53.000Z</time>
      </trkpt>
      <trkpt lat="44.9301" lon="0.88286">
        <ele>194.8</ele>
        <time>1970-01-01T01:59:54.000Z</time>
      </trkpt>
      <trkpt lat="44.93012" lon="0.88287">
        <ele>194.8</ele>
        <time>1970-01-01T01:59:55.000Z</time>
      </trkpt>
      <trkpt lat="44.93013" lon="0.88287">
        <ele>194.8</ele>
        <time>1970-01-01T01:59:56.000Z</time>
      </trkpt>
      <trkpt lat="44.93015" lon="0.88288">
        <ele>194.8</ele>
        <time>1970-01-01T01:59:57.000Z</time>
      </trkpt>
      <trkpt lat="44.93016" lon="0.88289">
        <ele>194.8</ele>
        <time>1970-01-01T01:59:58.000Z</time>
      </trkpt>
      <trkpt lat="44.93018" lon="0.8829">
        <ele>197</ele>
        <time>1970-01-01T01:59:59.000Z</time>
      </trkpt>
      <trkpt lat="44.9302" lon="0.88291">
        <ele>196.9</ele>
        <time>1970-01-01T02:00:00.000Z</time>
      </trkpt>
      <trkpt lat="44.93022" lon="0.88292">
        <ele>196.9</ele>
        <time>1970-01-01T02:00:01.000Z</time>
      </trkpt>
      <trkpt lat="44.93024" lon="0.88293">
        <ele>196.9</ele>
        <time>1970-01-01T02:00:02.000Z</time>
      </trkpt>
      <trkpt lat="44.93025" lon="0.88294">
        <ele>196.9</ele>
        <time>1970-01-01T02:00:03.000Z</time>
      </trkpt>
      <trkpt lat="44.93027" lon="0.88294">
        <ele>196.9</ele>
        <time>1970-01-01T02:00:04.000Z</time>
      </trkpt>
      <trkpt lat="44.93029" lon="0.88295">
        <ele>196.9</ele>
        <time>1970-01-01T02:00:05.000Z</time>
      </trkpt>
      <trkpt lat="44.93031" lon="0.88296">
        <ele>198.7</ele>
        <time>1970-01-01T02:00:06.000Z</time>
      </trkpt>
      <trkpt lat="44.93033" lon="0.88297">
        <ele>198.7</ele>
        <time>1970-01-01T02:00:07.000Z</time>
      </trkpt>
      <trkpt lat="44.93035" lon="0.88298">
        <ele>198.7</ele>
        <time>1970-01-01T02:00:08.000Z</time>
      </trkpt>
      <trkpt lat="44.93037" lon="0.88299">
        <ele>198.7</ele>
        <time>1970-01-01T02:00:09.000Z</time>
      </trkpt>
      <trkpt lat="44.93039" lon="0.88299">
        <ele>198.7</ele>
        <time>1970-01-01T02:00:10.000Z</time>
      </trkpt>
      <trkpt lat="44.93042" lon="0.883">
        <ele>198.7</ele>
        <time>1970-01-01T02:00:11.000Z</time>
      </trkpt>
      <trkpt lat="44.93044" lon="0.88301">
        <ele>200.2</ele>
        <time>1970-01-01T02:00:12.000Z</time>
      </trkpt>
      <trkpt lat="44.93046" lon="0.88302">
        <ele>200.2</ele>
        <time>1970-01-01T02:00:13.000Z</time>
      </trkpt>
      <trkpt lat="44.93048" lon="0.88303">
        <ele>200.9</ele>
        <time>1970-01-01T02:00:14.000Z</time>
      </trkpt>
      <trkpt lat="44.9305" lon="0.88304">
        <ele>200.9</ele>
        <time>1970-01-01T02:00:15.000Z</time>
      </trkpt>
      <trkpt lat="44.93051" lon="0.88305">
        <ele>200.9</ele>
        <time>1970-01-01T02:00:16.000Z</time>
      </trkpt>
      <trkpt lat="44.93053" lon="0.88305">
        <ele>200.9</ele>
        <time>1970-01-01T02:00:17.000Z</time>
      </trkpt>
      <trkpt lat="44.93055" lon="0.88306">
        <ele>202.8</ele>
        <time>1970-01-01T02:00:18.000Z</time>
      </trkpt>
      <trkpt lat="44.93056" lon="0.88306">
        <ele>202.8</ele>
        <time>1970-01-01T02:00:19.000Z</time>
      </trkpt>
      <trkpt lat="44.93058" lon="0.88307">
        <ele>202.8</ele>
        <time>1970-01-01T02:00:20.000Z</time>
      </trkpt>
      <trkpt lat="44.9306" lon="0.88307">
        <ele>202.8</ele>
        <time>1970-01-01T02:00:21.000Z</time>
      </trkpt>
      <trkpt lat="44.93062" lon="0.88308">
        <ele>202.8</ele>
        <time>1970-01-01T02:00:22.000Z</time>
      </trkpt>
      <trkpt lat="44.93064" lon="0.88308">
        <ele>202.8</ele>
        <time>1970-01-01T02:00:23.000Z</time>
      </trkpt>
      <trkpt lat="44.93066" lon="0.88308">
        <ele>202.8</ele>
        <time>1970-01-01T02:00:24.000Z</time>
      </trkpt>
      <trkpt lat="44.93068" lon="0.88308">
        <ele>204</ele>
        <time>1970-01-01T02:00:25.000Z</time>
      </trkpt>
      <trkpt lat="44.93071" lon="0.88308">
        <ele>204</ele>
        <time>1970-01-01T02:00:26.000Z</time>
      </trkpt>
      <trkpt lat="44.93073" lon="0.88309">
        <ele>204</ele>
        <time>1970-01-01T02:00:27.000Z</time>
      </trkpt>
      <trkpt lat="44.93075" lon="0.88309">
        <ele>204</ele>
        <time>1970-01-01T02:00:28.000Z</time>
      </trkpt>
      <trkpt lat="44.93077" lon="0.88309">
        <ele>204</ele>
        <time>1970-01-01T02:00:29.000Z</time>
      </trkpt>
      <trkpt lat="44.93079" lon="0.8831">
        <ele>204.6</ele>
        <time>1970-01-01T02:00:30.000Z</time>
      </trkpt>
      <trkpt lat="44.93081" lon="0.88311">
        <ele>204.6</ele>
        <time>1970-01-01T02:00:31.000Z</time>
      </trkpt>
      <trkpt lat="44.93084" lon="0.88312">
        <ele>204.6</ele>
        <time>1970-01-01T02:00:32.000Z</time>
      </trkpt>
      <trkpt lat="44.93086" lon="0.88312">
        <ele>204.6</ele>
        <time>1970-01-01T02:00:33.000Z</time>
      </trkpt>
      <trkpt lat="44.93088" lon="0.88313">
        <ele>204.6</ele>
        <time>1970-01-01T02:00:34.000Z</time>
      </trkpt>
      <trkpt lat="44.9309" lon="0.88314">
        <ele>204.6</ele>
        <time>1970-01-01T02:00:35.000Z</time>
      </trkpt>
      <trkpt lat="44.93092" lon="0.88314">
        <ele>204.8</ele>
        <time>1970-01-01T02:00:36.000Z</time>
      </trkpt>
      <trkpt lat="44.93094" lon="0.88315">
        <ele>204.8</ele>
        <time>1970-01-01T02:00:37.000Z</time>
      </trkpt>
      <trkpt lat="44.93096" lon="0.88316">
        <ele>204.8</ele>
        <time>1970-01-01T02:00:38.000Z</time>
      </trkpt>
      <trkpt lat="44.93098" lon="0.88316">
        <ele>204.8</ele>
        <time>1970-01-01T02:00:39.000Z</time>
      </trkpt>
      <trkpt lat="44.93099" lon="0.88317">
        <ele>204.8</ele>
        <time>1970-01-01T02:00:40.000Z</time>
      </trkpt>
      <trkpt lat="44.93101" lon="0.88318">
        <ele>204.8</ele>
        <time>1970-01-01T02:00:41.000Z</time>
      </trkpt>
      <trkpt lat="44.93103" lon="0.88319">
        <ele>205.1</ele>
        <time>1970-01-01T02:00:42.000Z</time>
      </trkpt>
      <trkpt lat="44.93105" lon="0.88319">
        <ele>205.1</ele>
        <time>1970-01-01T02:00:43.000Z</time>
      </trkpt>
      <trkpt lat="44.93107" lon="0.8832">
        <ele>205.7</ele>
        <time>1970-01-01T02:00:44.000Z</time>
      </trkpt>
      <trkpt lat="44.93109" lon="0.8832">
        <ele>205.7</ele>
        <time>1970-01-01T02:00:45.000Z</time>
      </trkpt>
      <trkpt lat="44.93111" lon="0.88321">
        <ele>205.7</ele>
        <time>1970-01-01T02:00:46.000Z</time>
      </trkpt>
      <trkpt lat="44.93114" lon="0.88322">
        <ele>205.7</ele>
        <time>1970-01-01T02:00:47.000Z</time>
      </trkpt>
      <trkpt lat="44.93116" lon="0.88323">
        <ele>206.1</ele>
        <time>1970-01-01T02:00:48.000Z</time>
      </trkpt>
      <trkpt lat="44.93118" lon="0.88324">
        <ele>206.1</ele>
        <time>1970-01-01T02:00:49.000Z</time>
      </trkpt>
      <trkpt lat="44.93121" lon="0.88325">
        <ele>206.1</ele>
        <time>1970-01-01T02:00:50.000Z</time>
      </trkpt>
      <trkpt lat="44.93123" lon="0.88326">
        <ele>206.1</ele>
        <time>1970-01-01T02:00:51.000Z</time>
      </trkpt>
      <trkpt lat="44.93125" lon="0.88327">
        <ele>206.1</ele>
        <time>1970-01-01T02:00:52.000Z</time>
      </trkpt>
      <trkpt lat="44.93127" lon="0.88328">
        <ele>206.4</ele>
        <time>1970-01-01T02:00:53.000Z</time>
      </trkpt>
      <trkpt lat="44.93129" lon="0.88328">
        <ele>206.4</ele>
        <time>1970-01-01T02:00:54.000Z</time>
      </trkpt>
      <trkpt lat="44.93131" lon="0.88328">
        <ele>206.4</ele>
        <time>1970-01-01T02:00:55.000Z</time>
      </trkpt>
      <trkpt lat="44.93133" lon="0.88328">
        <ele>206.3</ele>
        <time>1970-01-01T02:00:56.000Z</time>
      </trkpt>
      <trkpt lat="44.93135" lon="0.88327">
        <ele>206.3</ele>
        <time>1970-01-01T02:00:57.000Z</time>
      </trkpt>
      <trkpt lat="44.93137" lon="0.88326">
        <ele>206.3</ele>
        <time>1970-01-01T02:00:58.000Z</time>
      </trkpt>
      <trkpt lat="44.93139" lon="0.88323">
        <ele>206.5</ele>
        <time>1970-01-01T02:00:59.000Z</time>
      </trkpt>
      <trkpt lat="44.93142" lon="0.8832">
        <ele>206.5</ele>
        <time>1970-01-01T02:01:00.000Z</time>
      </trkpt>
      <trkpt lat="44.93145" lon="0.88317">
        <ele>205.7</ele>
        <time>1970-01-01T02:01:01.000Z</time>
      </trkpt>
      <trkpt lat="44.93147" lon="0.88312">
        <ele>205.6</ele>
        <time>1970-01-01T02:01:02.000Z</time>
      </trkpt>
      <trkpt lat="44.93149" lon="0.88308">
        <ele>205.5</ele>
        <time>1970-01-01T02:01:03.000Z</time>
      </trkpt>
      <trkpt lat="44.9315" lon="0.88302">
        <ele>205.5</ele>
        <time>1970-01-01T02:01:04.000Z</time>
      </trkpt>
      <trkpt lat="44.93152" lon="0.88297">
        <ele>205.4</ele>
        <time>1970-01-01T02:01:05.000Z</time>
      </trkpt>
      <trkpt lat="44.93154" lon="0.88292">
        <ele>205.3</ele>
        <time>1970-01-01T02:01:06.000Z</time>
      </trkpt>
      <trkpt lat="44.93155" lon="0.88286">
        <ele>205.2</ele>
        <time>1970-01-01T02:01:07.000Z</time>
      </trkpt>
      <trkpt lat="44.93157" lon="0.8828">
        <ele>205.1</ele>
        <time>1970-01-01T02:01:08.000Z</time>
      </trkpt>
      <trkpt lat="44.93159" lon="0.88274">
        <ele>205</ele>
        <time>1970-01-01T02:01:09.000Z</time>
      </trkpt>
      <trkpt lat="44.93161" lon="0.88268">
        <ele>205</ele>
        <time>1970-01-01T02:01:10.000Z</time>
      </trkpt>
      <trkpt lat="44.93163" lon="0.88262">
        <ele>204.9</ele>
        <time>1970-01-01T02:01:11.000Z</time>
      </trkpt>
      <trkpt lat="44.93164" lon="0.88255">
        <ele>204.8</ele>
        <time>1970-01-01T02:01:12.000Z</time>
      </trkpt>
      <trkpt lat="44.93166" lon="0.88249">
        <ele>204.7</ele>
        <time>1970-01-01T02:01:13.000Z</time>
      </trkpt>
      <trkpt lat="44.93167" lon="0.88242">
        <ele>204.7</ele>
        <time>1970-01-01T02:01:14.000Z</time>
      </trkpt>
      <trkpt lat="44.93169" lon="0.88236">
        <ele>204.6</ele>
        <time>1970-01-01T02:01:15.000Z</time>
      </trkpt>
      <trkpt lat="44.9317" lon="0.88229">
        <ele>204.6</ele>
        <time>1970-01-01T02:01:16.000Z</time>
      </trkpt>
      <trkpt lat="44.93171" lon="0.88223">
        <ele>204.5</ele>
        <time>1970-01-01T02:01:17.000Z</time>
      </trkpt>
      <trkpt lat="44.93173" lon="0.88217">
        <ele>204.5</ele>
        <time>1970-01-01T02:01:18.000Z</time>
      </trkpt>
      <trkpt lat="44.93175" lon="0.88211">
        <ele>204.5</ele>
        <time>1970-01-01T02:01:19.000Z</time>
      </trkpt>
      <trkpt lat="44.93176" lon="0.88205">
        <ele>204.5</ele>
        <time>1970-01-01T02:01:20.000Z</time>
      </trkpt>
      <trkpt lat="44.93177" lon="0.88199">
        <ele>204.5</ele>
        <time>1970-01-01T02:01:21.000Z</time>
      </trkpt>
      <trkpt lat="44.93179" lon="0.88193">
        <ele>204.5</ele>
        <time>1970-01-01T02:01:22.000Z</time>
      </trkpt>
      <trkpt lat="44.9318" lon="0.88187">
        <ele>204.5</ele>
        <time>1970-01-01T02:01:23.000Z</time>
      </trkpt>
      <trkpt lat="44.93181" lon="0.88181">
        <ele>204.5</ele>
        <time>1970-01-01T02:01:24.000Z</time>
      </trkpt>
      <trkpt lat="44.93182" lon="0.88175">
        <ele>204.5</ele>
        <time>1970-01-01T02:01:25.000Z</time>
      </trkpt>
      <trkpt lat="44.93183" lon="0.88169">
        <ele>204.5</ele>
        <time>1970-01-01T02:01:26.000Z</time>
      </trkpt>
      <trkpt lat="44.93184" lon="0.88163">
        <ele>204.6</ele>
        <time>1970-01-01T02:01:27.000Z</time>
      </trkpt>
      <trkpt lat="44.93184" lon="0.88157">
        <ele>204.6</ele>
        <time>1970-01-01T02:01:28.000Z</time>
      </trkpt>
      <trkpt lat="44.93185" lon="0.88152">
        <ele>204.6</ele>
        <time>1970-01-01T02:01:29.000Z</time>
      </trkpt>
      <trkpt lat="44.93186" lon="0.88146">
        <ele>204.7</ele>
        <time>1970-01-01T02:01:30.000Z</time>
      </trkpt>
      <trkpt lat="44.93187" lon="0.88141">
        <ele>204.7</ele>
        <time>1970-01-01T02:01:31.000Z</time>
      </trkpt>
      <trkpt lat="44.93187" lon="0.88135">
        <ele>204.8</ele>
        <time>1970-01-01T02:01:32.000Z</time>
      </trkpt>
      <trkpt lat="44.93188" lon="0.8813">
        <ele>204.8</ele>
        <time>1970-01-01T02:01:33.000Z</time>
      </trkpt>
      <trkpt lat="44.93189" lon="0.88124">
        <ele>204.9</ele>
        <time>1970-01-01T02:01:34.000Z</time>
      </trkpt>
      <trkpt lat="44.9319" lon="0.88119">
        <ele>204.9</ele>
        <time>1970-01-01T02:01:35.000Z</time>
      </trkpt>
      <trkpt lat="44.93191" lon="0.88113">
        <ele>205</ele>
        <time>1970-01-01T02:01:36.000Z</time>
      </trkpt>
      <trkpt lat="44.93192" lon="0.88108">
        <ele>205</ele>
        <time>1970-01-01T02:01:37.000Z</time>
      </trkpt>
      <trkpt lat="44.93193" lon="0.88102">
        <ele>205.1</ele>
        <time>1970-01-01T02:01:38.000Z</time>
      </trkpt>
      <trkpt lat="44.93194" lon="0.88097">
        <ele>205.2</ele>
        <time>1970-01-01T02:01:39.000Z</time>
      </trkpt>
      <trkpt lat="44.93195" lon="0.88092">
        <ele>205.3</ele>
        <time>1970-01-01T02:01:40.000Z</time>
      </trkpt>
      <trkpt lat="44.93196" lon="0.88086">
        <ele>205.3</ele>
        <time>1970-01-01T02:01:41.000Z</time>
      </trkpt>
      <trkpt lat="44.93197" lon="0.88081">
        <ele>205.4</ele>
        <time>1970-01-01T02:01:42.000Z</time>
      </trkpt>
      <trkpt lat="44.93198" lon="0.88076">
        <ele>205.5</ele>
        <time>1970-01-01T02:01:43.000Z</time>
      </trkpt>
      <trkpt lat="44.93199" lon="0.88071">
        <ele>205.6</ele>
        <time>1970-01-01T02:01:44.000Z</time>
      </trkpt>
      <trkpt lat="44.93199" lon="0.88065">
        <ele>205.7</ele>
        <time>1970-01-01T02:01:45.000Z</time>
      </trkpt>
      <trkpt lat="44.932" lon="0.8806">
        <ele>205.9</ele>
        <time>1970-01-01T02:01:46.000Z</time>
      </trkpt>
      <trkpt lat="44.93201" lon="0.88055">
        <ele>206</ele>
        <time>1970-01-01T02:01:47.000Z</time>
      </trkpt>
      <trkpt lat="44.93202" lon="0.8805">
        <ele>206.1</ele>
        <time>1970-01-01T02:01:48.000Z</time>
      </trkpt>
      <trkpt lat="44.93203" lon="0.88045">
        <ele>206.3</ele>
        <time>1970-01-01T02:01:49.000Z</time>
      </trkpt>
      <trkpt lat="44.93203" lon="0.88039">
        <ele>206.4</ele>
        <time>1970-01-01T02:01:50.000Z</time>
      </trkpt>
      <trkpt lat="44.93204" lon="0.88034">
        <ele>206.6</ele>
        <time>1970-01-01T02:01:51.000Z</time>
      </trkpt>
      <trkpt lat="44.93204" lon="0.88029">
        <ele>206.7</ele>
        <time>1970-01-01T02:01:52.000Z</time>
      </trkpt>
      <trkpt lat="44.93205" lon="0.88024">
        <ele>206.9</ele>
        <time>1970-01-01T02:01:53.000Z</time>
      </trkpt>
      <trkpt lat="44.93205" lon="0.88019">
        <ele>207</ele>
        <time>1970-01-01T02:01:54.000Z</time>
      </trkpt>
      <trkpt lat="44.93206" lon="0.88013">
        <ele>207.1</ele>
        <time>1970-01-01T02:01:55.000Z</time>
      </trkpt>
      <trkpt lat="44.93207" lon="0.88008">
        <ele>207.3</ele>
        <time>1970-01-01T02:01:56.000Z</time>
      </trkpt>
      <trkpt lat="44.93208" lon="0.88003">
        <ele>207.4</ele>
        <time>1970-01-01T02:01:57.000Z</time>
      </trkpt>
      <trkpt lat="44.93209" lon="0.87998">
        <ele>207.6</ele>
        <time>1970-01-01T02:01:58.000Z</time>
      </trkpt>
      <trkpt lat="44.93209" lon="0.87992">
        <ele>207.7</ele>
        <time>1970-01-01T02:01:59.000Z</time>
      </trkpt>
      <trkpt lat="44.9321" lon="0.87987">
        <ele>207.9</ele>
        <time>1970-01-01T02:02:00.000Z</time>
      </trkpt>
      <trkpt lat="44.93211" lon="0.87981">
        <ele>208</ele>
        <time>1970-01-01T02:02:01.000Z</time>
      </trkpt>
      <trkpt lat="44.93212" lon="0.87976">
        <ele>208.2</ele>
        <time>1970-01-01T02:02:02.000Z</time>
      </trkpt>
      <trkpt lat="44.93212" lon="0.8797">
        <ele>208.3</ele>
        <time>1970-01-01T02:02:03.000Z</time>
      </trkpt>
      <trkpt lat="44.93213" lon="0.87965">
        <ele>208.5</ele>
        <time>1970-01-01T02:02:04.000Z</time>
      </trkpt>
      <trkpt lat="44.93213" lon="0.87959">
        <ele>208.7</ele>
        <time>1970-01-01T02:02:05.000Z</time>
      </trkpt>
      <trkpt lat="44.93214" lon="0.87954">
        <ele>208.9</ele>
        <time>1970-01-01T02:02:06.000Z</time>
      </trkpt>
      <trkpt lat="44.93214" lon="0.87949">
        <ele>209.1</ele>
        <time>1970-01-01T02:02:07.000Z</time>
      </trkpt>
      <trkpt lat="44.93214" lon="0.87944">
        <ele>209.3</ele>
        <time>1970-01-01T02:02:08.000Z</time>
      </trkpt>
      <trkpt lat="44.93215" lon="0.87939">
        <ele>209.5</ele>
        <time>1970-01-01T02:02:09.000Z</time>
      </trkpt>
      <trkpt lat="44.93215" lon="0.87934">
        <ele>209.7</ele>
        <time>1970-01-01T02:02:10.000Z</time>
      </trkpt>
      <trkpt lat="44.93215" lon="0.87929">
        <ele>209.8</ele>
        <time>1970-01-01T02:02:11.000Z</time>
      </trkpt>
      <trkpt lat="44.93216" lon="0.87924">
        <ele>210</ele>
        <time>1970-01-01T02:02:12.000Z</time>
      </trkpt>
      <trkpt lat="44.93215" lon="0.8792">
        <ele>210.2</ele>
        <time>1970-01-01T02:02:13.000Z</time>
      </trkpt>
      <trkpt lat="44.93215" lon="0.87915">
        <ele>210.4</ele>
        <time>1970-01-01T02:02:14.000Z</time>
      </trkpt>
      <trkpt lat="44.93215" lon="0.87911">
        <ele>210.6</ele>
        <time>1970-01-01T02:02:15.000Z</time>
      </trkpt>
      <trkpt lat="44.93214" lon="0.87906">
        <ele>210.8</ele>
        <time>1970-01-01T02:02:16.000Z</time>
      </trkpt>
      <trkpt lat="44.93214" lon="0.87901">
        <ele>211</ele>
        <time>1970-01-01T02:02:17.000Z</time>
      </trkpt>
      <trkpt lat="44.93214" lon="0.87897">
        <ele>211.2</ele>
        <time>1970-01-01T02:02:18.000Z</time>
      </trkpt>
      <trkpt lat="44.93214" lon="0.87892">
        <ele>211.4</ele>
        <time>1970-01-01T02:02:19.000Z</time>
      </trkpt>
      <trkpt lat="44.93214" lon="0.87888">
        <ele>211.6</ele>
        <time>1970-01-01T02:02:20.000Z</time>
      </trkpt>
      <trkpt lat="44.93214" lon="0.87884">
        <ele>211.8</ele>
        <time>1970-01-01T02:02:21.000Z</time>
      </trkpt>
      <trkpt lat="44.93213" lon="0.8788">
        <ele>212</ele>
        <time>1970-01-01T02:02:22.000Z</time>
      </trkpt>
      <trkpt lat="44.93213" lon="0.87875">
        <ele>212.2</ele>
        <time>1970-01-01T02:02:23.000Z</time>
      </trkpt>
      <trkpt lat="44.93214" lon="0.87871">
        <ele>212.5</ele>
        <time>1970-01-01T02:02:24.000Z</time>
      </trkpt>
      <trkpt lat="44.93214" lon="0.87867">
        <ele>212.7</ele>
        <time>1970-01-01T02:02:25.000Z</time>
      </trkpt>
      <trkpt lat="44.93214" lon="0.87863">
        <ele>212.9</ele>
        <time>1970-01-01T02:02:26.000Z</time>
      </trkpt>
      <trkpt lat="44.93214" lon="0.87859">
        <ele>213.1</ele>
        <time>1970-01-01T02:02:27.000Z</time>
      </trkpt>
      <trkpt lat="44.93215" lon="0.87855">
        <ele>213.3</ele>
        <time>1970-01-01T02:02:28.000Z</time>
      </trkpt>
      <trkpt lat="44.93215" lon="0.87851">
        <ele>213.5</ele>
        <time>1970-01-01T02:02:29.000Z</time>
      </trkpt>
      <trkpt lat="44.93216" lon="0.87847">
        <ele>213.7</ele>
        <time>1970-01-01T02:02:30.000Z</time>
      </trkpt>
      <trkpt lat="44.93217" lon="0.87844">
        <ele>213.9</ele>
        <time>1970-01-01T02:02:31.000Z</time>
      </trkpt>
      <trkpt lat="44.93217" lon="0.8784">
        <ele>214.1</ele>
        <time>1970-01-01T02:02:32.000Z</time>
      </trkpt>
      <trkpt lat="44.93218" lon="0.87836">
        <ele>214.3</ele>
        <time>1970-01-01T02:02:33.000Z</time>
      </trkpt>
      <trkpt lat="44.93218" lon="0.87833">
        <ele>214.5</ele>
        <time>1970-01-01T02:02:34.000Z</time>
      </trkpt>
      <trkpt lat="44.93219" lon="0.87829">
        <ele>214.7</ele>
        <time>1970-01-01T02:02:35.000Z</time>
      </trkpt>
      <trkpt lat="44.93219" lon="0.87825">
        <ele>214.9</ele>
        <time>1970-01-01T02:02:36.000Z</time>
      </trkpt>
      <trkpt lat="44.9322" lon="0.87822">
        <ele>215.1</ele>
        <time>1970-01-01T02:02:37.000Z</time>
      </trkpt>
      <trkpt lat="44.93221" lon="0.87819">
        <ele>215.3</ele>
        <time>1970-01-01T02:02:38.000Z</time>
      </trkpt>
      <trkpt lat="44.93222" lon="0.87815">
        <ele>215.4</ele>
        <time>1970-01-01T02:02:39.000Z</time>
      </trkpt>
      <trkpt lat="44.93223" lon="0.87812">
        <ele>215.6</ele>
        <time>1970-01-01T02:02:40.000Z</time>
      </trkpt>
      <trkpt lat="44.93224" lon="0.87809">
        <ele>215.8</ele>
        <time>1970-01-01T02:02:41.000Z</time>
      </trkpt>
      <trkpt lat="44.93225" lon="0.87805">
        <ele>216</ele>
        <time>1970-01-01T02:02:42.000Z</time>
      </trkpt>
      <trkpt lat="44.93226" lon="0.87802">
        <ele>216.2</ele>
        <time>1970-01-01T02:02:43.000Z</time>
      </trkpt>
      <trkpt lat="44.93227" lon="0.87799">
        <ele>216.3</ele>
        <time>1970-01-01T02:02:44.000Z</time>
      </trkpt>
      <trkpt lat="44.93228" lon="0.87796">
        <ele>216.5</ele>
        <time>1970-01-01T02:02:45.000Z</time>
      </trkpt>
      <trkpt lat="44.9323" lon="0.87793">
        <ele>216.7</ele>
        <time>1970-01-01T02:02:46.000Z</time>
      </trkpt>
      <trkpt lat="44.93231" lon="0.8779">
        <ele>216.9</ele>
        <time>1970-01-01T02:02:47.000Z</time>
      </trkpt>
      <trkpt lat="44.93232" lon="0.87787">
        <ele>217.1</ele>
        <time>1970-01-01T02:02:48.000Z</time>
      </trkpt>
      <trkpt lat="44.93234" lon="0.87784">
        <ele>217.2</ele>
        <time>1970-01-01T02:02:49.000Z</time>
      </trkpt>
      <trkpt lat="44.93235" lon="0.87781">
        <ele>217.4</ele>
        <time>1970-01-01T02:02:50.000Z</time>
      </trkpt>
      <trkpt lat="44.93237" lon="0.87779">
        <ele>217.5</ele>
        <time>1970-01-01T02:02:51.000Z</time>
      </trkpt>
      <trkpt lat="44.93238" lon="0.87775">
        <ele>217.7</ele>
        <time>1970-01-01T02:02:52.000Z</time>
      </trkpt>
      <trkpt lat="44.93239" lon="0.87772">
        <ele>217.9</ele>
        <time>1970-01-01T02:02:53.000Z</time>
      </trkpt>
      <trkpt lat="44.93241" lon="0.87769">
        <ele>218</ele>
        <time>1970-01-01T02:02:54.000Z</time>
      </trkpt>
      <trkpt lat="44.93242" lon="0.87766">
        <ele>218.2</ele>
        <time>1970-01-01T02:02:55.000Z</time>
      </trkpt>
      <trkpt lat="44.93244" lon="0.87763">
        <ele>218.4</ele>
        <time>1970-01-01T02:02:56.000Z</time>
      </trkpt>
      <trkpt lat="44.93246" lon="0.8776">
        <ele>218.5</ele>
        <time>1970-01-01T02:02:57.000Z</time>
      </trkpt>
      <trkpt lat="44.93247" lon="0.87757">
        <ele>218.6</ele>
        <time>1970-01-01T02:02:58.000Z</time>
      </trkpt>
      <trkpt lat="44.93248" lon="0.87754">
        <ele>218.8</ele>
        <time>1970-01-01T02:02:59.000Z</time>
      </trkpt>
      <trkpt lat="44.93249" lon="0.87751">
        <ele>218.9</ele>
        <time>1970-01-01T02:03:00.000Z</time>
      </trkpt>
      <trkpt lat="44.9325" lon="0.87748">
        <ele>219.1</ele>
        <time>1970-01-01T02:03:01.000Z</time>
      </trkpt>
      <trkpt lat="44.93252" lon="0.87746">
        <ele>219.2</ele>
        <time>1970-01-01T02:03:02.000Z</time>
      </trkpt>
      <trkpt lat="44.93254" lon="0.87743">
        <ele>219.4</ele>
        <time>1970-01-01T02:03:03.000Z</time>
      </trkpt>
      <trkpt lat="44.93256" lon="0.8774">
        <ele>219.6</ele>
        <time>1970-01-01T02:03:04.000Z</time>
      </trkpt>
      <trkpt lat="44.93258" lon="0.87737">
        <ele>219.8</ele>
        <time>1970-01-01T02:03:05.000Z</time>
      </trkpt>
      <trkpt lat="44.9326" lon="0.87734">
        <ele>219.9</ele>
        <time>1970-01-01T02:03:06.000Z</time>
      </trkpt>
      <trkpt lat="44.93261" lon="0.8773">
        <ele>220.1</ele>
        <time>1970-01-01T02:03:07.000Z</time>
      </trkpt>
      <trkpt lat="44.93262" lon="0.87727">
        <ele>220.3</ele>
        <time>1970-01-01T02:03:08.000Z</time>
      </trkpt>
      <trkpt lat="44.93263" lon="0.87723">
        <ele>220.4</ele>
        <time>1970-01-01T02:03:09.000Z</time>
      </trkpt>
      <trkpt lat="44.93264" lon="0.8772">
        <ele>220.6</ele>
        <time>1970-01-01T02:03:10.000Z</time>
      </trkpt>
      <trkpt lat="44.93264" lon="0.87716">
        <ele>220.7</ele>
        <time>1970-01-01T02:03:11.000Z</time>
      </trkpt>
      <trkpt lat="44.93264" lon="0.87712">
        <ele>220.9</ele>
        <time>1970-01-01T02:03:12.000Z</time>
      </trkpt>
      <trkpt lat="44.93263" lon="0.87708">
        <ele>221</ele>
        <time>1970-01-01T02:03:13.000Z</time>
      </trkpt>
      <trkpt lat="44.93263" lon="0.87703">
        <ele>221.1</ele>
        <time>1970-01-01T02:03:14.000Z</time>
      </trkpt>
      <trkpt lat="44.93263" lon="0.87698">
        <ele>221.3</ele>
        <time>1970-01-01T02:03:15.000Z</time>
      </trkpt>
      <trkpt lat="44.93263" lon="0.87693">
        <ele>221.4</ele>
        <time>1970-01-01T02:03:16.000Z</time>
      </trkpt>
      <trkpt lat="44.93262" lon="0.87688">
        <ele>221.5</ele>
        <time>1970-01-01T02:03:17.000Z</time>
      </trkpt>
      <trkpt lat="44.93262" lon="0.87683">
        <ele>221.6</ele>
        <time>1970-01-01T02:03:18.000Z</time>
      </trkpt>
      <trkpt lat="44.93261" lon="0.87678">
        <ele>221.7</ele>
        <time>1970-01-01T02:03:19.000Z</time>
      </trkpt>
      <trkpt lat="44.9326" lon="0.87673">
        <ele>221.8</ele>
        <time>1970-01-01T02:03:20.000Z</time>
      </trkpt>
      <trkpt lat="44.9326" lon="0.87668">
        <ele>221.9</ele>
        <time>1970-01-01T02:03:21.000Z</time>
      </trkpt>
      <trkpt lat="44.93259" lon="0.87663">
        <ele>222</ele>
        <time>1970-01-01T02:03:22.000Z</time>
      </trkpt>
      <trkpt lat="44.93259" lon="0.87659">
        <ele>222</ele>
        <time>1970-01-01T02:03:23.000Z</time>
      </trkpt>
      <trkpt lat="44.93258" lon="0.87654">
        <ele>222.1</ele>
        <time>1970-01-01T02:03:24.000Z</time>
      </trkpt>
      <trkpt lat="44.93258" lon="0.8765">
        <ele>222.1</ele>
        <time>1970-01-01T02:03:25.000Z</time>
      </trkpt>
      <trkpt lat="44.93258" lon="0.87647">
        <ele>222.2</ele>
        <time>1970-01-01T02:03:26.000Z</time>
      </trkpt>
      <trkpt lat="44.93257" lon="0.87643">
        <ele>222.2</ele>
        <time>1970-01-01T02:03:27.000Z</time>
      </trkpt>
      <trkpt lat="44.93257" lon="0.8764">
        <ele>222.2</ele>
        <time>1970-01-01T02:03:28.000Z</time>
      </trkpt>
      <trkpt lat="44.93259" lon="0.87637">
        <ele>222.3</ele>
        <time>1970-01-01T02:03:29.000Z</time>
      </trkpt>
      <trkpt lat="44.93261" lon="0.87634">
        <ele>222.3</ele>
        <time>1970-01-01T02:03:30.000Z</time>
      </trkpt>
      <trkpt lat="44.93264" lon="0.87633">
        <ele>222.3</ele>
        <time>1970-01-01T02:03:31.000Z</time>
      </trkpt>
      <trkpt lat="44.93266" lon="0.87632">
        <ele>222.3</ele>
        <time>1970-01-01T02:03:32.000Z</time>
      </trkpt>
      <trkpt lat="44.93269" lon="0.87634">
        <ele>221</ele>
        <time>1970-01-01T02:03:33.000Z</time>
      </trkpt>
      <trkpt lat="44.93271" lon="0.87637">
        <ele>220.8</ele>
        <time>1970-01-01T02:03:34.000Z</time>
      </trkpt>
      <trkpt lat="44.93273" lon="0.87642">
        <ele>220.6</ele>
        <time>1970-01-01T02:03:35.000Z</time>
      </trkpt>
      <trkpt lat="44.93275" lon="0.87646">
        <ele>220.4</ele>
        <time>1970-01-01T02:03:36.000Z</time>
      </trkpt>
      <trkpt lat="44.93277" lon="0.8765">
        <ele>220.3</ele>
        <time>1970-01-01T02:03:37.000Z</time>
      </trkpt>
      <trkpt lat="44.93279" lon="0.87654">
        <ele>220.2</ele>
        <time>1970-01-01T02:03:38.000Z</time>
      </trkpt>
      <trkpt lat="44.93282" lon="0.87658">
        <ele>220.1</ele>
        <time>1970-01-01T02:03:39.000Z</time>
      </trkpt>
      <trkpt lat="44.93284" lon="0.87661">
        <ele>220</ele>
        <time>1970-01-01T02:03:40.000Z</time>
      </trkpt>
      <trkpt lat="44.93286" lon="0.87665">
        <ele>220</ele>
        <time>1970-01-01T02:03:41.000Z</time>
      </trkpt>
      <trkpt lat="44.93289" lon="0.8767">
        <ele>219.9</ele>
        <time>1970-01-01T02:03:42.000Z</time>
      </trkpt>
      <trkpt lat="44.93291" lon="0.87674">
        <ele>219.8</ele>
        <time>1970-01-01T02:03:43.000Z</time>
      </trkpt>
      <trkpt lat="44.93293" lon="0.87678">
        <ele>219.8</ele>
        <time>1970-01-01T02:03:44.000Z</time>
      </trkpt>
      <trkpt lat="44.93295" lon="0.87682">
        <ele>219.7</ele>
        <time>1970-01-01T02:03:45.000Z</time>
      </trkpt>
      <trkpt lat="44.93298" lon="0.87686">
        <ele>219.7</ele>
        <time>1970-01-01T02:03:46.000Z</time>
      </trkpt>
      <trkpt lat="44.933" lon="0.8769">
        <ele>219.6</ele>
        <time>1970-01-01T02:03:47.000Z</time>
      </trkpt>
      <trkpt lat="44.93302" lon="0.87695">
        <ele>219.6</ele>
        <time>1970-01-01T02:03:48.000Z</time>
      </trkpt>
      <trkpt lat="44.93304" lon="0.877">
        <ele>219.5</ele>
        <time>1970-01-01T02:03:49.000Z</time>
      </trkpt>
      <trkpt lat="44.93306" lon="0.87704">
        <ele>219.4</ele>
        <time>1970-01-01T02:03:50.000Z</time>
      </trkpt>
      <trkpt lat="44.93308" lon="0.87709">
        <ele>219.4</ele>
        <time>1970-01-01T02:03:51.000Z</time>
      </trkpt>
      <trkpt lat="44.9331" lon="0.87713">
        <ele>219.3</ele>
        <time>1970-01-01T02:03:52.000Z</time>
      </trkpt>
      <trkpt lat="44.93312" lon="0.87717">
        <ele>219.2</ele>
        <time>1970-01-01T02:03:53.000Z</time>
      </trkpt>
      <trkpt lat="44.93314" lon="0.87722">
        <ele>219.1</ele>
        <time>1970-01-01T02:03:54.000Z</time>
      </trkpt>
      <trkpt lat="44.93317" lon="0.87726">
        <ele>218.9</ele>
        <time>1970-01-01T02:03:55.000Z</time>
      </trkpt>
      <trkpt lat="44.93319" lon="0.87731">
        <ele>218.7</ele>
        <time>1970-01-01T02:03:56.000Z</time>
      </trkpt>
      <trkpt lat="44.93322" lon="0.87736">
        <ele>218.5</ele>
        <time>1970-01-01T02:03:57.000Z</time>
      </trkpt>
      <trkpt lat="44.93326" lon="0.8774">
        <ele>218.2</ele>
        <time>1970-01-01T02:03:58.000Z</time>
      </trkpt>
      <trkpt lat="44.93329" lon="0.87745">
        <ele>217.9</ele>
        <time>1970-01-01T02:03:59.000Z</time>
      </trkpt>
      <trkpt lat="44.93333" lon="0.87749">
        <ele>217.7</ele>
        <time>1970-01-01T02:04:00.000Z</time>
      </trkpt>
      <trkpt lat="44.93337" lon="0.87754">
        <ele>217.3</ele>
        <time>1970-01-01T02:04:01.000Z</time>
      </trkpt>
      <trkpt lat="44.93341" lon="0.87757">
        <ele>217</ele>
        <time>1970-01-01T02:04:02.000Z</time>
      </trkpt>
      <trkpt lat="44.93345" lon="0.8776">
        <ele>216.6</ele>
        <time>1970-01-01T02:04:03.000Z</time>
      </trkpt>
      <trkpt lat="44.9335" lon="0.87762">
        <ele>216.2</ele>
        <time>1970-01-01T02:04:04.000Z</time>
      </trkpt>
      <trkpt lat="44.93354" lon="0.87762">
        <ele>215.9</ele>
        <time>1970-01-01T02:04:05.000Z</time>
      </trkpt>
      <trkpt lat="44.93358" lon="0.8776">
        <ele>215.7</ele>
        <time>1970-01-01T02:04:06.000Z</time>
      </trkpt>
      <trkpt lat="44.93361" lon="0.87757">
        <ele>215.3</ele>
        <time>1970-01-01T02:04:07.000Z</time>
      </trkpt>
      <trkpt lat="44.93363" lon="0.87752">
        <ele>214.9</ele>
        <time>1970-01-01T02:04:08.000Z</time>
      </trkpt>
      <trkpt lat="44.93365" lon="0.87747">
        <ele>214.5</ele>
        <time>1970-01-01T02:04:09.000Z</time>
      </trkpt>
      <trkpt lat="44.93366" lon="0.87742">
        <ele>214.1</ele>
        <time>1970-01-01T02:04:10.000Z</time>
      </trkpt>
      <trkpt lat="44.93368" lon="0.87738">
        <ele>213.8</ele>
        <time>1970-01-01T02:04:11.000Z</time>
      </trkpt>
      <trkpt lat="44.9337" lon="0.87734">
        <ele>213.4</ele>
        <time>1970-01-01T02:04:12.000Z</time>
      </trkpt>
      <trkpt lat="44.93372" lon="0.87729">
        <ele>212.9</ele>
        <time>1970-01-01T02:04:13.000Z</time>
      </trkpt>
      <trkpt lat="44.93375" lon="0.87724">
        <ele>212.3</ele>
        <time>1970-01-01T02:04:14.000Z</time>
      </trkpt>
      <trkpt lat="44.93377" lon="0.87718">
        <ele>211.7</ele>
        <time>1970-01-01T02:04:15.000Z</time>
      </trkpt>
      <trkpt lat="44.9338" lon="0.87713">
        <ele>211</ele>
        <time>1970-01-01T02:04:16.000Z</time>
      </trkpt>
      <trkpt lat="44.93383" lon="0.87707">
        <ele>210.2</ele>
        <time>1970-01-01T02:04:17.000Z</time>
      </trkpt>
      <trkpt lat="44.93386" lon="0.87701">
        <ele>209.4</ele>
        <time>1970-01-01T02:04:18.000Z</time>
      </trkpt>
      <trkpt lat="44.93389" lon="0.87694">
        <ele>208.5</ele>
        <time>1970-01-01T02:04:19.000Z</time>
      </trkpt>
      <trkpt lat="44.93392" lon="0.87687">
        <ele>207.5</ele>
        <time>1970-01-01T02:04:20.000Z</time>
      </trkpt>
      <trkpt lat="44.93396" lon="0.8768">
        <ele>206.3</ele>
        <time>1970-01-01T02:04:21.000Z</time>
      </trkpt>
      <trkpt lat="44.934" lon="0.87674">
        <ele>205.1</ele>
        <time>1970-01-01T02:04:22.000Z</time>
      </trkpt>
      <trkpt lat="44.93405" lon="0.87667">
        <ele>203.8</ele>
        <time>1970-01-01T02:04:23.000Z</time>
      </trkpt>
      <trkpt lat="44.93411" lon="0.87659">
        <ele>202</ele>
        <time>1970-01-01T02:04:24.000Z</time>
      </trkpt>
      <trkpt lat="44.93418" lon="0.87652">
        <ele>202</ele>
        <time>1970-01-01T02:04:25.000Z</time>
      </trkpt>
      <trkpt lat="44.93425" lon="0.87643">
        <ele>199</ele>
        <time>1970-01-01T02:04:26.000Z</time>
      </trkpt>
      <trkpt lat="44.93432" lon="0.87635">
        <ele>197.1</ele>
        <time>1970-01-01T02:04:27.000Z</time>
      </trkpt>
      <trkpt lat="44.9344" lon="0.87625">
        <ele>196.8</ele>
        <time>1970-01-01T02:04:28.000Z</time>
      </trkpt>
      <trkpt lat="44.93447" lon="0.87615">
        <ele>194.4</ele>
        <time>1970-01-01T02:04:29.000Z</time>
      </trkpt>
      <trkpt lat="44.93455" lon="0.87605">
        <ele>194.4</ele>
        <time>1970-01-01T02:04:30.000Z</time>
      </trkpt>
      <trkpt lat="44.93463" lon="0.87595">
        <ele>192.4</ele>
        <time>1970-01-01T02:04:31.000Z</time>
      </trkpt>
      <trkpt lat="44.93471" lon="0.87585">
        <ele>190.5</ele>
        <time>1970-01-01T02:04:32.000Z</time>
      </trkpt>
      <trkpt lat="44.9348" lon="0.87575">
        <ele>188.7</ele>
        <time>1970-01-01T02:04:33.000Z</time>
      </trkpt>
      <trkpt lat="44.93488" lon="0.87565">
        <ele>188.7</ele>
        <time>1970-01-01T02:04:34.000Z</time>
      </trkpt>
      <trkpt lat="44.93497" lon="0.87555">
        <ele>188.1</ele>
        <time>1970-01-01T02:04:35.000Z</time>
      </trkpt>
      <trkpt lat="44.93506" lon="0.87545">
        <ele>187.8</ele>
        <time>1970-01-01T02:04:36.000Z</time>
      </trkpt>
      <trkpt lat="44.93515" lon="0.87535">
        <ele>187.8</ele>
        <time>1970-01-01T02:04:37.000Z</time>
      </trkpt>
      <trkpt lat="44.93524" lon="0.87526">
        <ele>187.2</ele>
        <time>1970-01-01T02:04:38.000Z</time>
      </trkpt>
      <trkpt lat="44.93534" lon="0.87516">
        <ele>186.2</ele>
        <time>1970-01-01T02:04:39.000Z</time>
      </trkpt>
      <trkpt lat="44.93544" lon="0.87506">
        <ele>185.8</ele>
        <time>1970-01-01T02:04:40.000Z</time>
      </trkpt>
      <trkpt lat="44.93553" lon="0.87496">
        <ele>185.5</ele>
        <time>1970-01-01T02:04:41.000Z</time>
      </trkpt>
      <trkpt lat="44.93563" lon="0.87486">
        <ele>185.7</ele>
        <time>1970-01-01T02:04:42.000Z</time>
      </trkpt>
      <trkpt lat="44.93572" lon="0.87476">
        <ele>185.5</ele>
        <time>1970-01-01T02:04:43.000Z</time>
      </trkpt>
      <trkpt lat="44.93581" lon="0.87466">
        <ele>185.2</ele>
        <time>1970-01-01T02:04:44.000Z</time>
      </trkpt>
      <trkpt lat="44.93589" lon="0.87456">
        <ele>185</ele>
        <time>1970-01-01T02:04:45.000Z</time>
      </trkpt>
      <trkpt lat="44.93597" lon="0.87447">
        <ele>185</ele>
        <time>1970-01-01T02:04:46.000Z</time>
      </trkpt>
      <trkpt lat="44.93604" lon="0.87438">
        <ele>184.6</ele>
        <time>1970-01-01T02:04:47.000Z</time>
      </trkpt>
      <trkpt lat="44.93611" lon="0.87428">
        <ele>184.3</ele>
        <time>1970-01-01T02:04:48.000Z</time>
      </trkpt>
      <trkpt lat="44.93619" lon="0.87419">
        <ele>184</ele>
        <time>1970-01-01T02:04:49.000Z</time>
      </trkpt>
      <trkpt lat="44.93625" lon="0.87409">
        <ele>183.8</ele>
        <time>1970-01-01T02:04:50.000Z</time>
      </trkpt>
      <trkpt lat="44.9363" lon="0.87399">
        <ele>183.7</ele>
        <time>1970-01-01T02:04:51.000Z</time>
      </trkpt>
      <trkpt lat="44.93634" lon="0.8739">
        <ele>183.8</ele>
        <time>1970-01-01T02:04:52.000Z</time>
      </trkpt>
      <trkpt lat="44.93638" lon="0.87382">
        <ele>183.9</ele>
        <time>1970-01-01T02:04:53.000Z</time>
      </trkpt>
      <trkpt lat="44.93641" lon="0.87375">
        <ele>184</ele>
        <time>1970-01-01T02:04:54.000Z</time>
      </trkpt>
      <trkpt lat="44.93642" lon="0.87369">
        <ele>184.1</ele>
        <time>1970-01-01T02:04:55.000Z</time>
      </trkpt>
      <trkpt lat="44.93645" lon="0.87364">
        <ele>184.2</ele>
        <time>1970-01-01T02:04:56.000Z</time>
      </trkpt>
      <trkpt lat="44.93647" lon="0.87359">
        <ele>184.3</ele>
        <time>1970-01-01T02:04:57.000Z</time>
      </trkpt>
      <trkpt lat="44.9365" lon="0.87354">
        <ele>184.4</ele>
        <time>1970-01-01T02:04:58.000Z</time>
      </trkpt>
      <trkpt lat="44.93653" lon="0.87349">
        <ele>184.5</ele>
        <time>1970-01-01T02:04:59.000Z</time>
      </trkpt>
      <trkpt lat="44.93655" lon="0.87345">
        <ele>184.5</ele>
        <time>1970-01-01T02:05:00.000Z</time>
      </trkpt>
      <trkpt lat="44.93656" lon="0.87341">
        <ele>184.6</ele>
        <time>1970-01-01T02:05:01.000Z</time>
      </trkpt>
      <trkpt lat="44.93658" lon="0.87337">
        <ele>184.6</ele>
        <time>1970-01-01T02:05:02.000Z</time>
      </trkpt>
      <trkpt lat="44.93659" lon="0.87332">
        <ele>184.7</ele>
        <time>1970-01-01T02:05:03.000Z</time>
      </trkpt>
      <trkpt lat="44.93661" lon="0.87327">
        <ele>184.7</ele>
        <time>1970-01-01T02:05:04.000Z</time>
      </trkpt>
      <trkpt lat="44.93663" lon="0.87323">
        <ele>184.7</ele>
        <time>1970-01-01T02:05:05.000Z</time>
      </trkpt>
      <trkpt lat="44.93665" lon="0.87318">
        <ele>184.6</ele>
        <time>1970-01-01T02:05:06.000Z</time>
      </trkpt>
      <trkpt lat="44.93668" lon="0.87314">
        <ele>184.6</ele>
        <time>1970-01-01T02:05:07.000Z</time>
      </trkpt>
      <trkpt lat="44.9367" lon="0.87311">
        <ele>184.5</ele>
        <time>1970-01-01T02:05:08.000Z</time>
      </trkpt>
      <trkpt lat="44.93672" lon="0.87307">
        <ele>184.5</ele>
        <time>1970-01-01T02:05:09.000Z</time>
      </trkpt>
      <trkpt lat="44.93674" lon="0.87303">
        <ele>184.4</ele>
        <time>1970-01-01T02:05:10.000Z</time>
      </trkpt>
      <trkpt lat="44.93676" lon="0.87298">
        <ele>184.4</ele>
        <time>1970-01-01T02:05:11.000Z</time>
      </trkpt>
      <trkpt lat="44.93679" lon="0.87293">
        <ele>184.3</ele>
        <time>1970-01-01T02:05:12.000Z</time>
      </trkpt>
      <trkpt lat="44.93681" lon="0.87289">
        <ele>184.3</ele>
        <time>1970-01-01T02:05:13.000Z</time>
      </trkpt>
      <trkpt lat="44.93684" lon="0.87283">
        <ele>184.2</ele>
        <time>1970-01-01T02:05:14.000Z</time>
      </trkpt>
      <trkpt lat="44.93687" lon="0.87278">
        <ele>184.2</ele>
        <time>1970-01-01T02:05:15.000Z</time>
      </trkpt>
      <trkpt lat="44.9369" lon="0.87272">
        <ele>184.3</ele>
        <time>1970-01-01T02:05:16.000Z</time>
      </trkpt>
      <trkpt lat="44.93693" lon="0.87267">
        <ele>184.4</ele>
        <time>1970-01-01T02:05:17.000Z</time>
      </trkpt>
      <trkpt lat="44.93697" lon="0.87261">
        <ele>184.6</ele>
        <time>1970-01-01T02:05:18.000Z</time>
      </trkpt>
      <trkpt lat="44.93699" lon="0.87255">
        <ele>184.8</ele>
        <time>1970-01-01T02:05:19.000Z</time>
      </trkpt>
      <trkpt lat="44.93702" lon="0.87249">
        <ele>185</ele>
        <time>1970-01-01T02:05:20.000Z</time>
      </trkpt>
      <trkpt lat="44.93705" lon="0.87244">
        <ele>185.2</ele>
        <time>1970-01-01T02:05:21.000Z</time>
      </trkpt>
      <trkpt lat="44.93707" lon="0.87239">
        <ele>185.4</ele>
        <time>1970-01-01T02:05:22.000Z</time>
      </trkpt>
      <trkpt lat="44.9371" lon="0.87234">
        <ele>185.7</ele>
        <time>1970-01-01T02:05:23.000Z</time>
      </trkpt>
      <trkpt lat="44.93712" lon="0.8723">
        <ele>185.9</ele>
        <time>1970-01-01T02:05:24.000Z</time>
      </trkpt>
      <trkpt lat="44.93715" lon="0.87225">
        <ele>186.1</ele>
        <time>1970-01-01T02:05:25.000Z</time>
      </trkpt>
      <trkpt lat="44.93717" lon="0.87221">
        <ele>186.3</ele>
        <time>1970-01-01T02:05:26.000Z</time>
      </trkpt>
      <trkpt lat="44.93719" lon="0.87217">
        <ele>186.6</ele>
        <time>1970-01-01T02:05:27.000Z</time>
      </trkpt>
      <trkpt lat="44.93721" lon="0.87213">
        <ele>186.8</ele>
        <time>1970-01-01T02:05:28.000Z</time>
      </trkpt>
      <trkpt lat="44.93722" lon="0.87208">
        <ele>187.1</ele>
        <time>1970-01-01T02:05:29.000Z</time>
      </trkpt>
      <trkpt lat="44.93723" lon="0.87204">
        <ele>187.3</ele>
        <time>1970-01-01T02:05:30.000Z</time>
      </trkpt>
      <trkpt lat="44.93724" lon="0.87198">
        <ele>187.7</ele>
        <time>1970-01-01T02:05:31.000Z</time>
      </trkpt>
      <trkpt lat="44.93726" lon="0.87192">
        <ele>188</ele>
        <time>1970-01-01T02:05:32.000Z</time>
      </trkpt>
      <trkpt lat="44.93727" lon="0.87186">
        <ele>188.4</ele>
        <time>1970-01-01T02:05:33.000Z</time>
      </trkpt>
      <trkpt lat="44.93728" lon="0.87179">
        <ele>188.8</ele>
        <time>1970-01-01T02:05:34.000Z</time>
      </trkpt>
      <trkpt lat="44.93729" lon="0.87174">
        <ele>189.1</ele>
        <time>1970-01-01T02:05:35.000Z</time>
      </trkpt>
      <trkpt lat="44.93731" lon="0.87169">
        <ele>189.4</ele>
        <time>1970-01-01T02:05:36.000Z</time>
      </trkpt>
      <trkpt lat="44.93732" lon="0.87165">
        <ele>189.8</ele>
        <time>1970-01-01T02:05:37.000Z</time>
      </trkpt>
      <trkpt lat="44.93734" lon="0.87161">
        <ele>190.1</ele>
        <time>1970-01-01T02:05:38.000Z</time>
      </trkpt>
      <trkpt lat="44.93736" lon="0.87156">
        <ele>190.5</ele>
        <time>1970-01-01T02:05:39.000Z</time>
      </trkpt>
      <trkpt lat="44.93737" lon="0.87152">
        <ele>190.9</ele>
        <time>1970-01-01T02:05:40.000Z</time>
      </trkpt>
      <trkpt lat="44.93739" lon="0.87148">
        <ele>191.3</ele>
        <time>1970-01-01T02:05:41.000Z</time>
      </trkpt>
      <trkpt lat="44.9374" lon="0.87144">
        <ele>191.7</ele>
        <time>1970-01-01T02:05:42.000Z</time>
      </trkpt>
      <trkpt lat="44.93742" lon="0.8714">
        <ele>192.1</ele>
        <time>1970-01-01T02:05:43.000Z</time>
      </trkpt>
      <trkpt lat="44.93743" lon="0.87136">
        <ele>192.5</ele>
        <time>1970-01-01T02:05:44.000Z</time>
      </trkpt>
      <trkpt lat="44.93745" lon="0.87133">
        <ele>192.8</ele>
        <time>1970-01-01T02:05:45.000Z</time>
      </trkpt>
      <trkpt lat="44.93747" lon="0.8713">
        <ele>193.2</ele>
        <time>1970-01-01T02:05:46.000Z</time>
      </trkpt>
      <trkpt lat="44.93748" lon="0.87127">
        <ele>193.6</ele>
        <time>1970-01-01T02:05:47.000Z</time>
      </trkpt>
      <trkpt lat="44.9375" lon="0.87124">
        <ele>194</ele>
        <time>1970-01-01T02:05:48.000Z</time>
      </trkpt>
      <trkpt lat="44.93752" lon="0.87121">
        <ele>194.3</ele>
        <time>1970-01-01T02:05:49.000Z</time>
      </trkpt>
      <trkpt lat="44.93754" lon="0.87118">
        <ele>194.7</ele>
        <time>1970-01-01T02:05:50.000Z</time>
      </trkpt>
      <trkpt lat="44.93755" lon="0.87116">
        <ele>195</ele>
        <time>1970-01-01T02:05:51.000Z</time>
      </trkpt>
      <trkpt lat="44.93757" lon="0.87113">
        <ele>195.3</ele>
        <time>1970-01-01T02:05:52.000Z</time>
      </trkpt>
      <trkpt lat="44.93759" lon="0.87111">
        <ele>195.7</ele>
        <time>1970-01-01T02:05:53.000Z</time>
      </trkpt>
      <trkpt lat="44.93761" lon="0.87108">
        <ele>196</ele>
        <time>1970-01-01T02:05:54.000Z</time>
      </trkpt>
      <trkpt lat="44.93763" lon="0.87106">
        <ele>196.3</ele>
        <time>1970-01-01T02:05:55.000Z</time>
      </trkpt>
      <trkpt lat="44.93764" lon="0.87104">
        <ele>196.5</ele>
        <time>1970-01-01T02:05:56.000Z</time>
      </trkpt>
      <trkpt lat="44.93766" lon="0.87102">
        <ele>196.8</ele>
        <time>1970-01-01T02:05:57.000Z</time>
      </trkpt>
      <trkpt lat="44.93768" lon="0.87101">
        <ele>197.1</ele>
        <time>1970-01-01T02:05:58.000Z</time>
      </trkpt>
      <trkpt lat="44.9377" lon="0.871">
        <ele>197.3</ele>
        <time>1970-01-01T02:05:59.000Z</time>
      </trkpt>
      <trkpt lat="44.93772" lon="0.87098">
        <ele>197.6</ele>
        <time>1970-01-01T02:06:00.000Z</time>
      </trkpt>
      <trkpt lat="44.93774" lon="0.87097">
        <ele>197.8</ele>
        <time>1970-01-01T02:06:01.000Z</time>
      </trkpt>
      <trkpt lat="44.93776" lon="0.87096">
        <ele>198</ele>
        <time>1970-01-01T02:06:02.000Z</time>
      </trkpt>
      <trkpt lat="44.93778" lon="0.87095">
        <ele>198.3</ele>
        <time>1970-01-01T02:06:03.000Z</time>
      </trkpt>
      <trkpt lat="44.9378" lon="0.87094">
        <ele>198.5</ele>
        <time>1970-01-01T02:06:04.000Z</time>
      </trkpt>
      <trkpt lat="44.93782" lon="0.87093">
        <ele>198.7</ele>
        <time>1970-01-01T02:06:05.000Z</time>
      </trkpt>
      <trkpt lat="44.93784" lon="0.87093">
        <ele>198.9</ele>
        <time>1970-01-01T02:06:06.000Z</time>
      </trkpt>
      <trkpt lat="44.93786" lon="0.87092">
        <ele>199.1</ele>
        <time>1970-01-01T02:06:07.000Z</time>
      </trkpt>
      <trkpt lat="44.93788" lon="0.87091">
        <ele>199.3</ele>
        <time>1970-01-01T02:06:08.000Z</time>
      </trkpt>
      <trkpt lat="44.9379" lon="0.8709">
        <ele>199.5</ele>
        <time>1970-01-01T02:06:09.000Z</time>
      </trkpt>
      <trkpt lat="44.93792" lon="0.8709">
        <ele>199.6</ele>
        <time>1970-01-01T02:06:10.000Z</time>
      </trkpt>
      <trkpt lat="44.93794" lon="0.87089">
        <ele>199.8</ele>
        <time>1970-01-01T02:06:11.000Z</time>
      </trkpt>
      <trkpt lat="44.93796" lon="0.87088">
        <ele>200</ele>
        <time>1970-01-01T02:06:12.000Z</time>
      </trkpt>
      <trkpt lat="44.93798" lon="0.87087">
        <ele>200.2</ele>
        <time>1970-01-01T02:06:13.000Z</time>
      </trkpt>
      <trkpt lat="44.938" lon="0.87086">
        <ele>200.4</ele>
        <time>1970-01-01T02:06:14.000Z</time>
      </trkpt>
      <trkpt lat="44.93802" lon="0.87085">
        <ele>200.6</ele>
        <time>1970-01-01T02:06:15.000Z</time>
      </trkpt>
      <trkpt lat="44.93804" lon="0.87084">
        <ele>200.7</ele>
        <time>1970-01-01T02:06:16.000Z</time>
      </trkpt>
      <trkpt lat="44.93805" lon="0.87083">
        <ele>200.9</ele>
        <time>1970-01-01T02:06:17.000Z</time>
      </trkpt>
      <trkpt lat="44.93807" lon="0.87082">
        <ele>201</ele>
        <time>1970-01-01T02:06:18.000Z</time>
      </trkpt>
      <trkpt lat="44.93809" lon="0.87081">
        <ele>201.2</ele>
        <time>1970-01-01T02:06:19.000Z</time>
      </trkpt>
      <trkpt lat="44.93811" lon="0.8708">
        <ele>201.3</ele>
        <time>1970-01-01T02:06:20.000Z</time>
      </trkpt>
      <trkpt lat="44.93812" lon="0.87078">
        <ele>201.5</ele>
        <time>1970-01-01T02:06:21.000Z</time>
      </trkpt>
      <trkpt lat="44.93814" lon="0.87077">
        <ele>201.6</ele>
        <time>1970-01-01T02:06:22.000Z</time>
      </trkpt>
      <trkpt lat="44.93815" lon="0.87076">
        <ele>201.7</ele>
        <time>1970-01-01T02:06:23.000Z</time>
      </trkpt>
      <trkpt lat="44.93816" lon="0.87074">
        <ele>201.8</ele>
        <time>1970-01-01T02:06:24.000Z</time>
      </trkpt>
      <trkpt lat="44.93817" lon="0.87073">
        <ele>201.9</ele>
        <time>1970-01-01T02:06:25.000Z</time>
      </trkpt>
      <trkpt lat="44.93818" lon="0.87071">
        <ele>202</ele>
        <time>1970-01-01T02:06:26.000Z</time>
      </trkpt>
      <trkpt lat="44.9382" lon="0.8707">
        <ele>202.1</ele>
        <time>1970-01-01T02:06:27.000Z</time>
      </trkpt>
      <trkpt lat="44.93821" lon="0.87068">
        <ele>202.2</ele>
        <time>1970-01-01T02:06:28.000Z</time>
      </trkpt>
      <trkpt lat="44.93823" lon="0.87067">
        <ele>202.3</ele>
        <time>1970-01-01T02:06:29.000Z</time>
      </trkpt>
      <trkpt lat="44.93825" lon="0.87065">
        <ele>202.4</ele>
        <time>1970-01-01T02:06:30.000Z</time>
      </trkpt>
      <trkpt lat="44.93826" lon="0.87064">
        <ele>202.5</ele>
        <time>1970-01-01T02:06:31.000Z</time>
      </trkpt>
      <trkpt lat="44.93828" lon="0.87063">
        <ele>202.5</ele>
        <time>1970-01-01T02:06:32.000Z</time>
      </trkpt>
      <trkpt lat="44.9383" lon="0.87062">
        <ele>202.6</ele>
        <time>1970-01-01T02:06:33.000Z</time>
      </trkpt>
      <trkpt lat="44.93831" lon="0.87061">
        <ele>202.7</ele>
        <time>1970-01-01T02:06:34.000Z</time>
      </trkpt>
      <trkpt lat="44.93833" lon="0.87061">
        <ele>202.7</ele>
        <time>1970-01-01T02:06:35.000Z</time>
      </trkpt>
      <trkpt lat="44.93835" lon="0.8706">
        <ele>202.8</ele>
        <time>1970-01-01T02:06:36.000Z</time>
      </trkpt>
      <trkpt lat="44.93837" lon="0.8706">
        <ele>202.8</ele>
        <time>1970-01-01T02:06:37.000Z</time>
      </trkpt>
      <trkpt lat="44.93838" lon="0.87059">
        <ele>202.8</ele>
        <time>1970-01-01T02:06:38.000Z</time>
      </trkpt>
      <trkpt lat="44.9384" lon="0.87058">
        <ele>202.9</ele>
        <time>1970-01-01T02:06:39.000Z</time>
      </trkpt>
      <trkpt lat="44.93841" lon="0.87058">
        <ele>202.9</ele>
        <time>1970-01-01T02:06:40.000Z</time>
      </trkpt>
      <trkpt lat="44.93843" lon="0.87057">
        <ele>202.9</ele>
        <time>1970-01-01T02:06:41.000Z</time>
      </trkpt>
      <trkpt lat="44.93844" lon="0.87056">
        <ele>202.9</ele>
        <time>1970-01-01T02:06:42.000Z</time>
      </trkpt>
      <trkpt lat="44.93846" lon="0.87055">
        <ele>203</ele>
        <time>1970-01-01T02:06:43.000Z</time>
      </trkpt>
      <trkpt lat="44.93847" lon="0.87054">
        <ele>203</ele>
        <time>1970-01-01T02:06:44.000Z</time>
      </trkpt>
      <trkpt lat="44.93849" lon="0.87053">
        <ele>203</ele>
        <time>1970-01-01T02:06:45.000Z</time>
      </trkpt>
      <trkpt lat="44.93851" lon="0.87052">
        <ele>203</ele>
        <time>1970-01-01T02:06:46.000Z</time>
      </trkpt>
      <trkpt lat="44.93852" lon="0.87051">
        <ele>203</ele>
        <time>1970-01-01T02:06:47.000Z</time>
      </trkpt>
      <trkpt lat="44.93854" lon="0.8705">
        <ele>203</ele>
        <time>1970-01-01T02:06:48.000Z</time>
      </trkpt>
      <trkpt lat="44.93855" lon="0.87049">
        <ele>203</ele>
        <time>1970-01-01T02:06:49.000Z</time>
      </trkpt>
      <trkpt lat="44.93857" lon="0.87048">
        <ele>203</ele>
        <time>1970-01-01T02:06:50.000Z</time>
      </trkpt>
      <trkpt lat="44.93859" lon="0.87047">
        <ele>202.9</ele>
        <time>1970-01-01T02:06:51.000Z</time>
      </trkpt>
      <trkpt lat="44.9386" lon="0.87046">
        <ele>202.9</ele>
        <time>1970-01-01T02:06:52.000Z</time>
      </trkpt>
      <trkpt lat="44.93862" lon="0.87045">
        <ele>202.9</ele>
        <time>1970-01-01T02:06:53.000Z</time>
      </trkpt>
      <trkpt lat="44.93864" lon="0.87045">
        <ele>202.8</ele>
        <time>1970-01-01T02:06:54.000Z</time>
      </trkpt>
      <trkpt lat="44.93866" lon="0.87044">
        <ele>202.8</ele>
        <time>1970-01-01T02:06:55.000Z</time>
      </trkpt>
      <trkpt lat="44.93868" lon="0.87043">
        <ele>202.7</ele>
        <time>1970-01-01T02:06:56.000Z</time>
      </trkpt>
      <trkpt lat="44.9387" lon="0.87042">
        <ele>202.7</ele>
        <time>1970-01-01T02:06:57.000Z</time>
      </trkpt>
      <trkpt lat="44.93872" lon="0.87041">
        <ele>202.6</ele>
        <time>1970-01-01T02:06:58.000Z</time>
      </trkpt>
      <trkpt lat="44.93874" lon="0.8704">
        <ele>202.5</ele>
        <time>1970-01-01T02:06:59.000Z</time>
      </trkpt>
      <trkpt lat="44.93876" lon="0.87038">
        <ele>202.4</ele>
        <time>1970-01-01T02:07:00.000Z</time>
      </trkpt>
      <trkpt lat="44.93878" lon="0.87037">
        <ele>202.3</ele>
        <time>1970-01-01T02:07:01.000Z</time>
      </trkpt>
      <trkpt lat="44.93881" lon="0.87036">
        <ele>202.2</ele>
        <time>1970-01-01T02:07:02.000Z</time>
      </trkpt>
      <trkpt lat="44.93883" lon="0.87034">
        <ele>202.1</ele>
        <time>1970-01-01T02:07:03.000Z</time>
      </trkpt>
      <trkpt lat="44.93886" lon="0.87033">
        <ele>202</ele>
        <time>1970-01-01T02:07:04.000Z</time>
      </trkpt>
      <trkpt lat="44.93888" lon="0.87032">
        <ele>201.9</ele>
        <time>1970-01-01T02:07:05.000Z</time>
      </trkpt>
      <trkpt lat="44.93891" lon="0.8703">
        <ele>201.7</ele>
        <time>1970-01-01T02:07:06.000Z</time>
      </trkpt>
      <trkpt lat="44.93894" lon="0.87029">
        <ele>201.6</ele>
        <time>1970-01-01T02:07:07.000Z</time>
      </trkpt>
      <trkpt lat="44.93896" lon="0.87028">
        <ele>201.4</ele>
        <time>1970-01-01T02:07:08.000Z</time>
      </trkpt>
      <trkpt lat="44.939" lon="0.87027">
        <ele>201.2</ele>
        <time>1970-01-01T02:07:09.000Z</time>
      </trkpt>
      <trkpt lat="44.93903" lon="0.87027">
        <ele>201</ele>
        <time>1970-01-01T02:07:10.000Z</time>
      </trkpt>
      <trkpt lat="44.93907" lon="0.87027">
        <ele>200.8</ele>
        <time>1970-01-01T02:07:11.000Z</time>
      </trkpt>
      <trkpt lat="44.93911" lon="0.87026">
        <ele>200.5</ele>
        <time>1970-01-01T02:07:12.000Z</time>
      </trkpt>
      <trkpt lat="44.93914" lon="0.87025">
        <ele>200.3</ele>
        <time>1970-01-01T02:07:13.000Z</time>
      </trkpt>
      <trkpt lat="44.93918" lon="0.87025">
        <ele>200</ele>
        <time>1970-01-01T02:07:14.000Z</time>
      </trkpt>
      <trkpt lat="44.93922" lon="0.87024">
        <ele>199.7</ele>
        <time>1970-01-01T02:07:15.000Z</time>
      </trkpt>
      <trkpt lat="44.93926" lon="0.87023">
        <ele>199.3</ele>
        <time>1970-01-01T02:07:16.000Z</time>
      </trkpt>
      <trkpt lat="44.93931" lon="0.87023">
        <ele>199</ele>
        <time>1970-01-01T02:07:17.000Z</time>
      </trkpt>
      <trkpt lat="44.93936" lon="0.87023">
        <ele>198.7</ele>
        <time>1970-01-01T02:07:18.000Z</time>
      </trkpt>
      <trkpt lat="44.93941" lon="0.87022">
        <ele>198.3</ele>
        <time>1970-01-01T02:07:19.000Z</time>
      </trkpt>
      <trkpt lat="44.93947" lon="0.87021">
        <ele>197.9</ele>
        <time>1970-01-01T02:07:20.000Z</time>
      </trkpt>
      <trkpt lat="44.93953" lon="0.8702">
        <ele>197.5</ele>
        <time>1970-01-01T02:07:21.000Z</time>
      </trkpt>
      <trkpt lat="44.93959" lon="0.87019">
        <ele>197.1</ele>
        <time>1970-01-01T02:07:22.000Z</time>
      </trkpt>
      <trkpt lat="44.93966" lon="0.87017">
        <ele>196.7</ele>
        <time>1970-01-01T02:07:23.000Z</time>
      </trkpt>
      <trkpt lat="44.93972" lon="0.87016">
        <ele>196.2</ele>
        <time>1970-01-01T02:07:24.000Z</time>
      </trkpt>
      <trkpt lat="44.93979" lon="0.87015">
        <ele>195.7</ele>
        <time>1970-01-01T02:07:25.000Z</time>
      </trkpt>
      <trkpt lat="44.93986" lon="0.87014">
        <ele>195.2</ele>
        <time>1970-01-01T02:07:26.000Z</time>
      </trkpt>
      <trkpt lat="44.93993" lon="0.87014">
        <ele>194.7</ele>
        <time>1970-01-01T02:07:27.000Z</time>
      </trkpt>
      <trkpt lat="44.94" lon="0.87013">
        <ele>194.2</ele>
        <time>1970-01-01T02:07:28.000Z</time>
      </trkpt>
      <trkpt lat="44.94007" lon="0.87012">
        <ele>193.8</ele>
        <time>1970-01-01T02:07:29.000Z</time>
      </trkpt>
      <trkpt lat="44.94014" lon="0.8701">
        <ele>193.3</ele>
        <time>1970-01-01T02:07:30.000Z</time>
      </trkpt>
      <trkpt lat="44.94021" lon="0.87008">
        <ele>193</ele>
        <time>1970-01-01T02:07:31.000Z</time>
      </trkpt>
      <trkpt lat="44.94028" lon="0.87006">
        <ele>192.7</ele>
        <time>1970-01-01T02:07:32.000Z</time>
      </trkpt>
      <trkpt lat="44.94035" lon="0.87004">
        <ele>192.4</ele>
        <time>1970-01-01T02:07:33.000Z</time>
      </trkpt>
      <trkpt lat="44.94041" lon="0.87001">
        <ele>192.2</ele>
        <time>1970-01-01T02:07:34.000Z</time>
      </trkpt>
      <trkpt lat="44.94047" lon="0.86997">
        <ele>192.1</ele>
        <time>1970-01-01T02:07:35.000Z</time>
      </trkpt>
      <trkpt lat="44.94052" lon="0.86993">
        <ele>191.9</ele>
        <time>1970-01-01T02:07:36.000Z</time>
      </trkpt>
      <trkpt lat="44.94056" lon="0.86987">
        <ele>191.8</ele>
        <time>1970-01-01T02:07:37.000Z</time>
      </trkpt>
      <trkpt lat="44.94061" lon="0.86981">
        <ele>191.7</ele>
        <time>1970-01-01T02:07:38.000Z</time>
      </trkpt>
      <trkpt lat="44.94066" lon="0.86975">
        <ele>191.7</ele>
        <time>1970-01-01T02:07:39.000Z</time>
      </trkpt>
      <trkpt lat="44.94071" lon="0.8697">
        <ele>191.6</ele>
        <time>1970-01-01T02:07:40.000Z</time>
      </trkpt>
      <trkpt lat="44.94075" lon="0.86965">
        <ele>191.5</ele>
        <time>1970-01-01T02:07:41.000Z</time>
      </trkpt>
      <trkpt lat="44.94079" lon="0.86961">
        <ele>191.5</ele>
        <time>1970-01-01T02:07:42.000Z</time>
      </trkpt>
      <trkpt lat="44.94083" lon="0.86956">
        <ele>191.5</ele>
        <time>1970-01-01T02:07:43.000Z</time>
      </trkpt>
      <trkpt lat="44.94087" lon="0.86951">
        <ele>191.5</ele>
        <time>1970-01-01T02:07:44.000Z</time>
      </trkpt>
      <trkpt lat="44.94089" lon="0.86947">
        <ele>191.5</ele>
        <time>1970-01-01T02:07:45.000Z</time>
      </trkpt>
      <trkpt lat="44.94092" lon="0.86943">
        <ele>191.5</ele>
        <time>1970-01-01T02:07:46.000Z</time>
      </trkpt>
      <trkpt lat="44.94095" lon="0.86939">
        <ele>191.6</ele>
        <time>1970-01-01T02:07:47.000Z</time>
      </trkpt>
      <trkpt lat="44.94098" lon="0.86935">
        <ele>191.6</ele>
        <time>1970-01-01T02:07:48.000Z</time>
      </trkpt>
      <trkpt lat="44.941" lon="0.86931">
        <ele>191.7</ele>
        <time>1970-01-01T02:07:49.000Z</time>
      </trkpt>
      <trkpt lat="44.94103" lon="0.86927">
        <ele>191.7</ele>
        <time>1970-01-01T02:07:50.000Z</time>
      </trkpt>
      <trkpt lat="44.94105" lon="0.86923">
        <ele>191.8</ele>
        <time>1970-01-01T02:07:51.000Z</time>
      </trkpt>
      <trkpt lat="44.94108" lon="0.86918">
        <ele>191.8</ele>
        <time>1970-01-01T02:07:52.000Z</time>
      </trkpt>
      <trkpt lat="44.9411" lon="0.86914">
        <ele>191.9</ele>
        <time>1970-01-01T02:07:53.000Z</time>
      </trkpt>
      <trkpt lat="44.94112" lon="0.86909">
        <ele>191.9</ele>
        <time>1970-01-01T02:07:54.000Z</time>
      </trkpt>
      <trkpt lat="44.94113" lon="0.86904">
        <ele>192</ele>
        <time>1970-01-01T02:07:55.000Z</time>
      </trkpt>
      <trkpt lat="44.94115" lon="0.869">
        <ele>192</ele>
        <time>1970-01-01T02:07:56.000Z</time>
      </trkpt>
      <trkpt lat="44.94117" lon="0.86895">
        <ele>192</ele>
        <time>1970-01-01T02:07:57.000Z</time>
      </trkpt>
      <trkpt lat="44.9412" lon="0.86891">
        <ele>192</ele>
        <time>1970-01-01T02:07:58.000Z</time>
      </trkpt>
      <trkpt lat="44.94122" lon="0.86886">
        <ele>192</ele>
        <time>1970-01-01T02:07:59.000Z</time>
      </trkpt>
      <trkpt lat="44.94125" lon="0.86882">
        <ele>191.9</ele>
        <time>1970-01-01T02:08:00.000Z</time>
      </trkpt>
      <trkpt lat="44.94128" lon="0.86877">
        <ele>191</ele>
        <time>1970-01-01T02:08:01.000Z</time>
      </trkpt>
      <trkpt lat="44.94131" lon="0.8687">
        <ele>190.2</ele>
        <time>1970-01-01T02:08:02.000Z</time>
      </trkpt>
      <trkpt lat="44.94136" lon="0.86863">
        <ele>189.1</ele>
        <time>1970-01-01T02:08:03.000Z</time>
      </trkpt>
      <trkpt lat="44.94145" lon="0.86857">
        <ele>187.9</ele>
        <time>1970-01-01T02:08:04.000Z</time>
      </trkpt>
      <trkpt lat="44.94155" lon="0.86853">
        <ele>187</ele>
        <time>1970-01-01T02:08:05.000Z</time>
      </trkpt>
      <trkpt lat="44.94165" lon="0.86852">
        <ele>186.5</ele>
        <time>1970-01-01T02:08:06.000Z</time>
      </trkpt>
      <trkpt lat="44.94172" lon="0.86853">
        <ele>186.2</ele>
        <time>1970-01-01T02:08:07.000Z</time>
      </trkpt>
      <trkpt lat="44.94179" lon="0.86853">
        <ele>186</ele>
        <time>1970-01-01T02:08:08.000Z</time>
      </trkpt>
      <trkpt lat="44.94186" lon="0.86854">
        <ele>185.9</ele>
        <time>1970-01-01T02:08:09.000Z</time>
      </trkpt>
      <trkpt lat="44.94192" lon="0.86856">
        <ele>185.9</ele>
        <time>1970-01-01T02:08:10.000Z</time>
      </trkpt>
      <trkpt lat="44.94199" lon="0.86857">
        <ele>185.8</ele>
        <time>1970-01-01T02:08:11.000Z</time>
      </trkpt>
      <trkpt lat="44.94205" lon="0.86858">
        <ele>185.9</ele>
        <time>1970-01-01T02:08:12.000Z</time>
      </trkpt>
      <trkpt lat="44.94211" lon="0.8686">
        <ele>185.9</ele>
        <time>1970-01-01T02:08:13.000Z</time>
      </trkpt>
      <trkpt lat="44.94217" lon="0.86861">
        <ele>186.1</ele>
        <time>1970-01-01T02:08:14.000Z</time>
      </trkpt>
      <trkpt lat="44.94223" lon="0.86862">
        <ele>186.3</ele>
        <time>1970-01-01T02:08:15.000Z</time>
      </trkpt>
      <trkpt lat="44.94228" lon="0.86863">
        <ele>186.5</ele>
        <time>1970-01-01T02:08:16.000Z</time>
      </trkpt>
      <trkpt lat="44.94234" lon="0.86865">
        <ele>186.7</ele>
        <time>1970-01-01T02:08:17.000Z</time>
      </trkpt>
      <trkpt lat="44.94239" lon="0.86866">
        <ele>187</ele>
        <time>1970-01-01T02:08:18.000Z</time>
      </trkpt>
      <trkpt lat="44.94243" lon="0.86868">
        <ele>187.2</ele>
        <time>1970-01-01T02:08:19.000Z</time>
      </trkpt>
      <trkpt lat="44.94247" lon="0.8687">
        <ele>187.4</ele>
        <time>1970-01-01T02:08:20.000Z</time>
      </trkpt>
      <trkpt lat="44.9425" lon="0.86871">
        <ele>187.5</ele>
        <time>1970-01-01T02:08:21.000Z</time>
      </trkpt>
      <trkpt lat="44.94253" lon="0.86873">
        <ele>187.6</ele>
        <time>1970-01-01T02:08:22.000Z</time>
      </trkpt>
      <trkpt lat="44.94256" lon="0.86874">
        <ele>187.7</ele>
        <time>1970-01-01T02:08:23.000Z</time>
      </trkpt>
      <trkpt lat="44.94259" lon="0.86876">
        <ele>187.8</ele>
        <time>1970-01-01T02:08:24.000Z</time>
      </trkpt>
      <trkpt lat="44.94262" lon="0.86878">
        <ele>187.5</ele>
        <time>1970-01-01T02:08:25.000Z</time>
      </trkpt>
      <trkpt lat="44.94266" lon="0.86879">
        <ele>187.1</ele>
        <time>1970-01-01T02:08:26.000Z</time>
      </trkpt>
      <trkpt lat="44.9427" lon="0.86882">
        <ele>186.7</ele>
        <time>1970-01-01T02:08:27.000Z</time>
      </trkpt>
      <trkpt lat="44.94274" lon="0.86884">
        <ele>186.2</ele>
        <time>1970-01-01T02:08:28.000Z</time>
      </trkpt>
      <trkpt lat="44.94279" lon="0.86887">
        <ele>185.7</ele>
        <time>1970-01-01T02:08:29.000Z</time>
      </trkpt>
      <trkpt lat="44.94284" lon="0.8689">
        <ele>185.2</ele>
        <time>1970-01-01T02:08:30.000Z</time>
      </trkpt>
      <trkpt lat="44.9429" lon="0.86893">
        <ele>184.6</ele>
        <time>1970-01-01T02:08:31.000Z</time>
      </trkpt>
      <trkpt lat="44.94296" lon="0.86897">
        <ele>184</ele>
        <time>1970-01-01T02:08:32.000Z</time>
      </trkpt>
      <trkpt lat="44.94302" lon="0.86903">
        <ele>183.3</ele>
        <time>1970-01-01T02:08:33.000Z</time>
      </trkpt>
      <trkpt lat="44.94306" lon="0.86912">
        <ele>182.7</ele>
        <time>1970-01-01T02:08:34.000Z</time>
      </trkpt>
      <trkpt lat="44.9431" lon="0.86923">
        <ele>182</ele>
        <time>1970-01-01T02:08:35.000Z</time>
      </trkpt>
      <trkpt lat="44.94312" lon="0.86934">
        <ele>181.4</ele>
        <time>1970-01-01T02:08:36.000Z</time>
      </trkpt>
      <trkpt lat="44.94312" lon="0.86946">
        <ele>180.8</ele>
        <time>1970-01-01T02:08:37.000Z</time>
      </trkpt>
      <trkpt lat="44.94312" lon="0.86958">
        <ele>180.2</ele>
        <time>1970-01-01T02:08:38.000Z</time>
      </trkpt>
      <trkpt lat="44.94312" lon="0.86971">
        <ele>179.5</ele>
        <time>1970-01-01T02:08:39.000Z</time>
      </trkpt>
      <trkpt lat="44.94311" lon="0.86984">
        <ele>178.8</ele>
        <time>1970-01-01T02:08:40.000Z</time>
      </trkpt>
      <trkpt lat="44.94309" lon="0.86996">
        <ele>178.2</ele>
        <time>1970-01-01T02:08:41.000Z</time>
      </trkpt>
      <trkpt lat="44.94304" lon="0.87008">
        <ele>177.6</ele>
        <time>1970-01-01T02:08:42.000Z</time>
      </trkpt>
      <trkpt lat="44.94298" lon="0.87018">
        <ele>177.1</ele>
        <time>1970-01-01T02:08:43.000Z</time>
      </trkpt>
      <trkpt lat="44.94292" lon="0.87028">
        <ele>176.5</ele>
        <time>1970-01-01T02:08:44.000Z</time>
      </trkpt>
      <trkpt lat="44.94287" lon="0.87038">
        <ele>175.9</ele>
        <time>1970-01-01T02:08:45.000Z</time>
      </trkpt>
      <trkpt lat="44.94284" lon="0.8705">
        <ele>175.3</ele>
        <time>1970-01-01T02:08:46.000Z</time>
      </trkpt>
      <trkpt lat="44.94283" lon="0.87064">
        <ele>174.6</ele>
        <time>1970-01-01T02:08:47.000Z</time>
      </trkpt>
      <trkpt lat="44.94284" lon="0.87076">
        <ele>174</ele>
        <time>1970-01-01T02:08:48.000Z</time>
      </trkpt>
      <trkpt lat="44.94287" lon="0.87085">
        <ele>173.5</ele>
        <time>1970-01-01T02:08:49.000Z</time>
      </trkpt>
      <trkpt lat="44.94291" lon="0.87092">
        <ele>173</ele>
        <time>1970-01-01T02:08:50.000Z</time>
      </trkpt>
      <trkpt lat="44.94297" lon="0.87098">
        <ele>172.4</ele>
        <time>1970-01-01T02:08:51.000Z</time>
      </trkpt>
      <trkpt lat="44.94305" lon="0.87106">
        <ele>171.6</ele>
        <time>1970-01-01T02:08:52.000Z</time>
      </trkpt>
      <trkpt lat="44.94313" lon="0.87116">
        <ele>170.8</ele>
        <time>1970-01-01T02:08:53.000Z</time>
      </trkpt>
      <trkpt lat="44.9432" lon="0.87128">
        <ele>169.9</ele>
        <time>1970-01-01T02:08:54.000Z</time>
      </trkpt>
      <trkpt lat="44.94326" lon="0.8714">
        <ele>169.1</ele>
        <time>1970-01-01T02:08:55.000Z</time>
      </trkpt>
      <trkpt lat="44.94332" lon="0.87152">
        <ele>168.3</ele>
        <time>1970-01-01T02:08:56.000Z</time>
      </trkpt>
      <trkpt lat="44.94339" lon="0.87164">
        <ele>167.5</ele>
        <time>1970-01-01T02:08:57.000Z</time>
      </trkpt>
      <trkpt lat="44.94346" lon="0.87176">
        <ele>166.7</ele>
        <time>1970-01-01T02:08:58.000Z</time>
      </trkpt>
      <trkpt lat="44.94353" lon="0.87188">
        <ele>165.9</ele>
        <time>1970-01-01T02:08:59.000Z</time>
      </trkpt>
      <trkpt lat="44.9436" lon="0.872">
        <ele>165.1</ele>
        <time>1970-01-01T02:09:00.000Z</time>
      </trkpt>
      <trkpt lat="44.94366" lon="0.87212">
        <ele>164.4</ele>
        <time>1970-01-01T02:09:01.000Z</time>
      </trkpt>
      <trkpt lat="44.94372" lon="0.87223">
        <ele>163.7</ele>
        <time>1970-01-01T02:09:02.000Z</time>
      </trkpt>
      <trkpt lat="44.94375" lon="0.87233">
        <ele>163.1</ele>
        <time>1970-01-01T02:09:03.000Z</time>
      </trkpt>
      <trkpt lat="44.94379" lon="0.87241">
        <ele>162.6</ele>
        <time>1970-01-01T02:09:04.000Z</time>
      </trkpt>
      <trkpt lat="44.94383" lon="0.87247">
        <ele>162.1</ele>
        <time>1970-01-01T02:09:05.000Z</time>
      </trkpt>
      <trkpt lat="44.94387" lon="0.87253">
        <ele>161.7</ele>
        <time>1970-01-01T02:09:06.000Z</time>
      </trkpt>
      <trkpt lat="44.9439" lon="0.87257">
        <ele>161.4</ele>
        <time>1970-01-01T02:09:07.000Z</time>
      </trkpt>
      <trkpt lat="44.94393" lon="0.87258">
        <ele>161.2</ele>
        <time>1970-01-01T02:09:08.000Z</time>
      </trkpt>
      <trkpt lat="44.94396" lon="0.87259">
        <ele>161</ele>
        <time>1970-01-01T02:09:09.000Z</time>
      </trkpt>
      <trkpt lat="44.944" lon="0.87255">
        <ele>162.1</ele>
        <time>1970-01-01T02:09:10.000Z</time>
      </trkpt>
      <trkpt lat="44.94404" lon="0.87251">
        <ele>162.5</ele>
        <time>1970-01-01T02:09:11.000Z</time>
      </trkpt>
      <trkpt lat="44.94408" lon="0.87246">
        <ele>162.5</ele>
        <time>1970-01-01T02:09:12.000Z</time>
      </trkpt>
      <trkpt lat="44.94412" lon="0.87243">
        <ele>162.5</ele>
        <time>1970-01-01T02:09:13.000Z</time>
      </trkpt>
      <trkpt lat="44.94416" lon="0.8724">
        <ele>163</ele>
        <time>1970-01-01T02:09:14.000Z</time>
      </trkpt>
      <trkpt lat="44.9442" lon="0.87238">
        <ele>164.9</ele>
        <time>1970-01-01T02:09:15.000Z</time>
      </trkpt>
      <trkpt lat="44.94424" lon="0.87237">
        <ele>164.9</ele>
        <time>1970-01-01T02:09:16.000Z</time>
      </trkpt>
      <trkpt lat="44.94429" lon="0.87239">
        <ele>163.9</ele>
        <time>1970-01-01T02:09:17.000Z</time>
      </trkpt>
      <trkpt lat="44.94433" lon="0.87242">
        <ele>163.9</ele>
        <time>1970-01-01T02:09:18.000Z</time>
      </trkpt>
      <trkpt lat="44.94437" lon="0.87246">
        <ele>163.9</ele>
        <time>1970-01-01T02:09:19.000Z</time>
      </trkpt>
      <trkpt lat="44.94441" lon="0.8725">
        <ele>165</ele>
        <time>1970-01-01T02:09:20.000Z</time>
      </trkpt>
      <trkpt lat="44.94445" lon="0.87256">
        <ele>162.4</ele>
        <time>1970-01-01T02:09:21.000Z</time>
      </trkpt>
      <trkpt lat="44.94448" lon="0.87264">
        <ele>162.4</ele>
        <time>1970-01-01T02:09:22.000Z</time>
      </trkpt>
      <trkpt lat="44.9445" lon="0.87273">
        <ele>160.1</ele>
        <time>1970-01-01T02:09:23.000Z</time>
      </trkpt>
      <trkpt lat="44.94451" lon="0.87283">
        <ele>160.8</ele>
        <time>1970-01-01T02:09:24.000Z</time>
      </trkpt>
      <trkpt lat="44.94453" lon="0.87293">
        <ele>158.8</ele>
        <time>1970-01-01T02:09:25.000Z</time>
      </trkpt>
      <trkpt lat="44.94455" lon="0.87304">
        <ele>158.8</ele>
        <time>1970-01-01T02:09:26.000Z</time>
      </trkpt>
      <trkpt lat="44.94457" lon="0.87315">
        <ele>156.8</ele>
        <time>1970-01-01T02:09:27.000Z</time>
      </trkpt>
      <trkpt lat="44.9446" lon="0.87326">
        <ele>155.3</ele>
        <time>1970-01-01T02:09:28.000Z</time>
      </trkpt>
      <trkpt lat="44.94463" lon="0.87336">
        <ele>155.3</ele>
        <time>1970-01-01T02:09:29.000Z</time>
      </trkpt>
      <trkpt lat="44.94467" lon="0.87346">
        <ele>153.5</ele>
        <time>1970-01-01T02:09:30.000Z</time>
      </trkpt>
      <trkpt lat="44.9447" lon="0.87357">
        <ele>153.5</ele>
        <time>1970-01-01T02:09:31.000Z</time>
      </trkpt>
      <trkpt lat="44.94473" lon="0.87368">
        <ele>151.8</ele>
        <time>1970-01-01T02:09:32.000Z</time>
      </trkpt>
      <trkpt lat="44.94476" lon="0.87379">
        <ele>149.8</ele>
        <time>1970-01-01T02:09:33.000Z</time>
      </trkpt>
      <trkpt lat="44.94479" lon="0.87389">
        <ele>149.8</ele>
        <time>1970-01-01T02:09:34.000Z</time>
      </trkpt>
      <trkpt lat="44.94483" lon="0.87396">
        <ele>148.4</ele>
        <time>1970-01-01T02:09:35.000Z</time>
      </trkpt>
      <trkpt lat="44.94488" lon="0.87399">
        <ele>148</ele>
        <time>1970-01-01T02:09:36.000Z</time>
      </trkpt>
      <trkpt lat="44.94494" lon="0.87397">
        <ele>148</ele>
        <time>1970-01-01T02:09:37.000Z</time>
      </trkpt>
      <trkpt lat="44.94502" lon="0.87393">
        <ele>148.1</ele>
        <time>1970-01-01T02:09:38.000Z</time>
      </trkpt>
      <trkpt lat="44.94508" lon="0.87389">
        <ele>149.7</ele>
        <time>1970-01-01T02:09:39.000Z</time>
      </trkpt>
      <trkpt lat="44.94514" lon="0.87385">
        <ele>149.9</ele>
        <time>1970-01-01T02:09:40.000Z</time>
      </trkpt>
      <trkpt lat="44.94518" lon="0.87382">
        <ele>150</ele>
        <time>1970-01-01T02:09:41.000Z</time>
      </trkpt>
      <trkpt lat="44.94522" lon="0.87379">
        <ele>150</ele>
        <time>1970-01-01T02:09:42.000Z</time>
      </trkpt>
      <trkpt lat="44.94527" lon="0.87376">
        <ele>151.3</ele>
        <time>1970-01-01T02:09:43.000Z</time>
      </trkpt>
      <trkpt lat="44.94531" lon="0.87373">
        <ele>151.3</ele>
        <time>1970-01-01T02:09:44.000Z</time>
      </trkpt>
      <trkpt lat="44.94535" lon="0.8737">
        <ele>151.3</ele>
        <time>1970-01-01T02:09:45.000Z</time>
      </trkpt>
      <trkpt lat="44.94539" lon="0.87368">
        <ele>151.4</ele>
        <time>1970-01-01T02:09:46.000Z</time>
      </trkpt>
      <trkpt lat="44.94543" lon="0.87365">
        <ele>151.4</ele>
        <time>1970-01-01T02:09:47.000Z</time>
      </trkpt>
      <trkpt lat="44.94546" lon="0.87363">
        <ele>151.4</ele>
        <time>1970-01-01T02:09:48.000Z</time>
      </trkpt>
      <trkpt lat="44.9455" lon="0.8736">
        <ele>151.9</ele>
        <time>1970-01-01T02:09:49.000Z</time>
      </trkpt>
      <trkpt lat="44.94553" lon="0.87357">
        <ele>152.9</ele>
        <time>1970-01-01T02:09:50.000Z</time>
      </trkpt>
      <trkpt lat="44.94556" lon="0.87354">
        <ele>152.9</ele>
        <time>1970-01-01T02:09:51.000Z</time>
      </trkpt>
      <trkpt lat="44.94558" lon="0.87351">
        <ele>152.9</ele>
        <time>1970-01-01T02:09:52.000Z</time>
      </trkpt>
      <trkpt lat="44.94561" lon="0.87349">
        <ele>153.3</ele>
        <time>1970-01-01T02:09:53.000Z</time>
      </trkpt>
      <trkpt lat="44.94563" lon="0.87346">
        <ele>153.3</ele>
        <time>1970-01-01T02:09:54.000Z</time>
      </trkpt>
      <trkpt lat="44.94564" lon="0.87344">
        <ele>153.3</ele>
        <time>1970-01-01T02:09:55.000Z</time>
      </trkpt>
      <trkpt lat="44.94565" lon="0.87341">
        <ele>154.2</ele>
        <time>1970-01-01T02:09:56.000Z</time>
      </trkpt>
      <trkpt lat="44.94565" lon="0.87339">
        <ele>154.2</ele>
        <time>1970-01-01T02:09:57.000Z</time>
      </trkpt>
      <trkpt lat="44.94566" lon="0.87337">
        <ele>154.2</ele>
        <time>1970-01-01T02:09:58.000Z</time>
      </trkpt>
      <trkpt lat="44.94568" lon="0.87335">
        <ele>154.3</ele>
        <time>1970-01-01T02:09:59.000Z</time>
      </trkpt>
      <trkpt lat="44.9457" lon="0.87333">
        <ele>154.3</ele>
        <time>1970-01-01T02:10:00.000Z</time>
      </trkpt>
      <trkpt lat="44.94572" lon="0.87331">
        <ele>154.3</ele>
        <time>1970-01-01T02:10:01.000Z</time>
      </trkpt>
      <trkpt lat="44.94575" lon="0.87329">
        <ele>154</ele>
        <time>1970-01-01T02:10:02.000Z</time>
      </trkpt>
      <trkpt lat="44.94577" lon="0.87326">
        <ele>154</ele>
        <time>1970-01-01T02:10:03.000Z</time>
      </trkpt>
      <trkpt lat="44.94579" lon="0.87323">
        <ele>154.7</ele>
        <time>1970-01-01T02:10:04.000Z</time>
      </trkpt>
      <trkpt lat="44.94581" lon="0.8732">
        <ele>154.8</ele>
        <time>1970-01-01T02:10:05.000Z</time>
      </trkpt>
      <trkpt lat="44.94583" lon="0.87317">
        <ele>154.8</ele>
        <time>1970-01-01T02:10:06.000Z</time>
      </trkpt>
      <trkpt lat="44.94586" lon="0.87314">
        <ele>154.4</ele>
        <time>1970-01-01T02:10:07.000Z</time>
      </trkpt>
      <trkpt lat="44.94589" lon="0.87312">
        <ele>154.5</ele>
        <time>1970-01-01T02:10:08.000Z</time>
      </trkpt>
      <trkpt lat="44.94592" lon="0.87309">
        <ele>154.5</ele>
        <time>1970-01-01T02:10:09.000Z</time>
      </trkpt>
      <trkpt lat="44.94594" lon="0.87307">
        <ele>155.2</ele>
        <time>1970-01-01T02:10:10.000Z</time>
      </trkpt>
      <trkpt lat="44.94596" lon="0.87305">
        <ele>155.2</ele>
        <time>1970-01-01T02:10:11.000Z</time>
      </trkpt>
      <trkpt lat="44.94598" lon="0.87303">
        <ele>155.1</ele>
        <time>1970-01-01T02:10:12.000Z</time>
      </trkpt>
      <trkpt lat="44.94601" lon="0.87301">
        <ele>155.1</ele>
        <time>1970-01-01T02:10:13.000Z</time>
      </trkpt>
      <trkpt lat="44.94603" lon="0.87299">
        <ele>155.1</ele>
        <time>1970-01-01T02:10:14.000Z</time>
      </trkpt>
      <trkpt lat="44.94605" lon="0.87297">
        <ele>155.1</ele>
        <time>1970-01-01T02:10:15.000Z</time>
      </trkpt>
      <trkpt lat="44.94607" lon="0.87296">
        <ele>155.2</ele>
        <time>1970-01-01T02:10:16.000Z</time>
      </trkpt>
      <trkpt lat="44.9461" lon="0.87295">
        <ele>155.7</ele>
        <time>1970-01-01T02:10:17.000Z</time>
      </trkpt>
      <trkpt lat="44.94612" lon="0.87293">
        <ele>155.7</ele>
        <time>1970-01-01T02:10:18.000Z</time>
      </trkpt>
      <trkpt lat="44.94615" lon="0.8729">
        <ele>155.7</ele>
        <time>1970-01-01T02:10:19.000Z</time>
      </trkpt>
      <trkpt lat="44.94618" lon="0.87288">
        <ele>155.8</ele>
        <time>1970-01-01T02:10:20.000Z</time>
      </trkpt>
      <trkpt lat="44.9462" lon="0.87286">
        <ele>155.9</ele>
        <time>1970-01-01T02:10:21.000Z</time>
      </trkpt>
      <trkpt lat="44.94621" lon="0.87283">
        <ele>156.2</ele>
        <time>1970-01-01T02:10:22.000Z</time>
      </trkpt>
      <trkpt lat="44.94622" lon="0.8728">
        <ele>156.2</ele>
        <time>1970-01-01T02:10:23.000Z</time>
      </trkpt>
      <trkpt lat="44.94623" lon="0.87278">
        <ele>156.2</ele>
        <time>1970-01-01T02:10:24.000Z</time>
      </trkpt>
      <trkpt lat="44.94625" lon="0.87275">
        <ele>156.2</ele>
        <time>1970-01-01T02:10:25.000Z</time>
      </trkpt>
      <trkpt lat="44.94626" lon="0.87272">
        <ele>156.3</ele>
        <time>1970-01-01T02:10:26.000Z</time>
      </trkpt>
      <trkpt lat="44.94628" lon="0.8727">
        <ele>156.4</ele>
        <time>1970-01-01T02:10:27.000Z</time>
      </trkpt>
      <trkpt lat="44.94629" lon="0.87267">
        <ele>156.4</ele>
        <time>1970-01-01T02:10:28.000Z</time>
      </trkpt>
      <trkpt lat="44.94631" lon="0.87264">
        <ele>156.4</ele>
        <time>1970-01-01T02:10:29.000Z</time>
      </trkpt>
      <trkpt lat="44.94632" lon="0.87261">
        <ele>156.4</ele>
        <time>1970-01-01T02:10:30.000Z</time>
      </trkpt>
      <trkpt lat="44.94634" lon="0.87258">
        <ele>157</ele>
        <time>1970-01-01T02:10:31.000Z</time>
      </trkpt>
      <trkpt lat="44.94635" lon="0.87255">
        <ele>157.5</ele>
        <time>1970-01-01T02:10:32.000Z</time>
      </trkpt>
      <trkpt lat="44.94637" lon="0.87252">
        <ele>157.6</ele>
        <time>1970-01-01T02:10:33.000Z</time>
      </trkpt>
      <trkpt lat="44.94638" lon="0.87249">
        <ele>157.6</ele>
        <time>1970-01-01T02:10:34.000Z</time>
      </trkpt>
      <trkpt lat="44.9464" lon="0.87246">
        <ele>157.6</ele>
        <time>1970-01-01T02:10:35.000Z</time>
      </trkpt>
      <trkpt lat="44.94643" lon="0.87243">
        <ele>157.6</ele>
        <time>1970-01-01T02:10:36.000Z</time>
      </trkpt>
      <trkpt lat="44.94646" lon="0.87239">
        <ele>158.6</ele>
        <time>1970-01-01T02:10:37.000Z</time>
      </trkpt>
      <trkpt lat="44.94648" lon="0.87236">
        <ele>159.1</ele>
        <time>1970-01-01T02:10:38.000Z</time>
      </trkpt>
      <trkpt lat="44.94649" lon="0.87231">
        <ele>159.1</ele>
        <time>1970-01-01T02:10:39.000Z</time>
      </trkpt>
      <trkpt lat="44.9465" lon="0.87227">
        <ele>159.1</ele>
        <time>1970-01-01T02:10:40.000Z</time>
      </trkpt>
      <trkpt lat="44.94651" lon="0.87222">
        <ele>159.2</ele>
        <time>1970-01-01T02:10:41.000Z</time>
      </trkpt>
      <trkpt lat="44.94652" lon="0.87217">
        <ele>160</ele>
        <time>1970-01-01T02:10:42.000Z</time>
      </trkpt>
      <trkpt lat="44.94653" lon="0.87213">
        <ele>160.1</ele>
        <time>1970-01-01T02:10:43.000Z</time>
      </trkpt>
      <trkpt lat="44.94655" lon="0.8721">
        <ele>160.1</ele>
        <time>1970-01-01T02:10:44.000Z</time>
      </trkpt>
      <trkpt lat="44.94657" lon="0.87205">
        <ele>160.1</ele>
        <time>1970-01-01T02:10:45.000Z</time>
      </trkpt>
      <trkpt lat="44.94658" lon="0.87201">
        <ele>161.2</ele>
        <time>1970-01-01T02:10:46.000Z</time>
      </trkpt>
      <trkpt lat="44.94659" lon="0.87196">
        <ele>161.2</ele>
        <time>1970-01-01T02:10:47.000Z</time>
      </trkpt>
      <trkpt lat="44.94661" lon="0.87192">
        <ele>161.3</ele>
        <time>1970-01-01T02:10:48.000Z</time>
      </trkpt>
      <trkpt lat="44.94663" lon="0.87188">
        <ele>161.3</ele>
        <time>1970-01-01T02:10:49.000Z</time>
      </trkpt>
      <trkpt lat="44.94663" lon="0.87183">
        <ele>162.5</ele>
        <time>1970-01-01T02:10:50.000Z</time>
      </trkpt>
      <trkpt lat="44.94664" lon="0.87178">
        <ele>162.5</ele>
        <time>1970-01-01T02:10:51.000Z</time>
      </trkpt>
      <trkpt lat="44.94664" lon="0.87173">
        <ele>162.5</ele>
        <time>1970-01-01T02:10:52.000Z</time>
      </trkpt>
      <trkpt lat="44.94665" lon="0.87168">
        <ele>164.2</ele>
        <time>1970-01-01T02:10:53.000Z</time>
      </trkpt>
      <trkpt lat="44.94667" lon="0.87164">
        <ele>164.2</ele>
        <time>1970-01-01T02:10:54.000Z</time>
      </trkpt>
      <trkpt lat="44.94668" lon="0.87159">
        <ele>164.3</ele>
        <time>1970-01-01T02:10:55.000Z</time>
      </trkpt>
      <trkpt lat="44.94669" lon="0.87153">
        <ele>164.3</ele>
        <time>1970-01-01T02:10:56.000Z</time>
      </trkpt>
      <trkpt lat="44.9467" lon="0.87148">
        <ele>165.6</ele>
        <time>1970-01-01T02:10:57.000Z</time>
      </trkpt>
      <trkpt lat="44.94671" lon="0.87143">
        <ele>165.6</ele>
        <time>1970-01-01T02:10:58.000Z</time>
      </trkpt>
      <trkpt lat="44.94672" lon="0.87139">
        <ele>165.6</ele>
        <time>1970-01-01T02:10:59.000Z</time>
      </trkpt>
      <trkpt lat="44.94673" lon="0.87134">
        <ele>167.2</ele>
        <time>1970-01-01T02:11:00.000Z</time>
      </trkpt>
      <trkpt lat="44.94674" lon="0.87129">
        <ele>167.2</ele>
        <time>1970-01-01T02:11:01.000Z</time>
      </trkpt>
      <trkpt lat="44.94675" lon="0.87124">
        <ele>167.2</ele>
        <time>1970-01-01T02:11:02.000Z</time>
      </trkpt>
      <trkpt lat="44.94675" lon="0.87119">
        <ele>167.3</ele>
        <time>1970-01-01T02:11:03.000Z</time>
      </trkpt>
      <trkpt lat="44.94676" lon="0.87114">
        <ele>168.8</ele>
        <time>1970-01-01T02:11:04.000Z</time>
      </trkpt>
      <trkpt lat="44.94677" lon="0.87108">
        <ele>168.9</ele>
        <time>1970-01-01T02:11:05.000Z</time>
      </trkpt>
      <trkpt lat="44.94678" lon="0.87103">
        <ele>168.9</ele>
        <time>1970-01-01T02:11:06.000Z</time>
      </trkpt>
      <trkpt lat="44.94679" lon="0.87098">
        <ele>170.4</ele>
        <time>1970-01-01T02:11:07.000Z</time>
      </trkpt>
      <trkpt lat="44.9468" lon="0.87093">
        <ele>170.4</ele>
        <time>1970-01-01T02:11:08.000Z</time>
      </trkpt>
      <trkpt lat="44.94681" lon="0.87088">
        <ele>170.5</ele>
        <time>1970-01-01T02:11:09.000Z</time>
      </trkpt>
      <trkpt lat="44.94682" lon="0.87083">
        <ele>172.1</ele>
        <time>1970-01-01T02:11:10.000Z</time>
      </trkpt>
      <trkpt lat="44.94683" lon="0.87078">
        <ele>170.7</ele>
        <time>1970-01-01T02:11:11.000Z</time>
      </trkpt>
      <trkpt lat="44.94684" lon="0.87074">
        <ele>170.7</ele>
        <time>1970-01-01T02:11:12.000Z</time>
      </trkpt>
      <trkpt lat="44.94685" lon="0.87069">
        <ele>170.8</ele>
        <time>1970-01-01T02:11:13.000Z</time>
      </trkpt>
      <trkpt lat="44.94687" lon="0.87065">
        <ele>172.2</ele>
        <time>1970-01-01T02:11:14.000Z</time>
      </trkpt>
      <trkpt lat="44.94688" lon="0.8706">
        <ele>172.2</ele>
        <time>1970-01-01T02:11:15.000Z</time>
      </trkpt>
      <trkpt lat="44.9469" lon="0.87056">
        <ele>172.2</ele>
        <time>1970-01-01T02:11:16.000Z</time>
      </trkpt>
      <trkpt lat="44.94692" lon="0.87053">
        <ele>172.2</ele>
        <time>1970-01-01T02:11:17.000Z</time>
      </trkpt>
      <trkpt lat="44.94694" lon="0.87049">
        <ele>173.7</ele>
        <time>1970-01-01T02:11:18.000Z</time>
      </trkpt>
      <trkpt lat="44.94696" lon="0.87046">
        <ele>172.7</ele>
        <time>1970-01-01T02:11:19.000Z</time>
      </trkpt>
      <trkpt lat="44.94697" lon="0.87042">
        <ele>172.7</ele>
        <time>1970-01-01T02:11:20.000Z</time>
      </trkpt>
      <trkpt lat="44.94698" lon="0.87039">
        <ele>172.7</ele>
        <time>1970-01-01T02:11:21.000Z</time>
      </trkpt>
      <trkpt lat="44.94699" lon="0.87035">
        <ele>172.7</ele>
        <time>1970-01-01T02:11:22.000Z</time>
      </trkpt>
      <trkpt lat="44.947" lon="0.87032">
        <ele>174.4</ele>
        <time>1970-01-01T02:11:23.000Z</time>
      </trkpt>
      <trkpt lat="44.947" lon="0.87028">
        <ele>174.4</ele>
        <time>1970-01-01T02:11:24.000Z</time>
      </trkpt>
      <trkpt lat="44.947" lon="0.87024">
        <ele>174.4</ele>
        <time>1970-01-01T02:11:25.000Z</time>
      </trkpt>
      <trkpt lat="44.94701" lon="0.87021">
        <ele>174.4</ele>
        <time>1970-01-01T02:11:26.000Z</time>
      </trkpt>
      <trkpt lat="44.94701" lon="0.87017">
        <ele>174.5</ele>
        <time>1970-01-01T02:11:27.000Z</time>
      </trkpt>
      <trkpt lat="44.94702" lon="0.87014">
        <ele>175.8</ele>
        <time>1970-01-01T02:11:28.000Z</time>
      </trkpt>
      <trkpt lat="44.94703" lon="0.8701">
        <ele>175.9</ele>
        <time>1970-01-01T02:11:29.000Z</time>
      </trkpt>
      <trkpt lat="44.94704" lon="0.87007">
        <ele>175.9</ele>
        <time>1970-01-01T02:11:30.000Z</time>
      </trkpt>
      <trkpt lat="44.94705" lon="0.87003">
        <ele>175.9</ele>
        <time>1970-01-01T02:11:31.000Z</time>
      </trkpt>
      <trkpt lat="44.94706" lon="0.86999">
        <ele>175.9</ele>
        <time>1970-01-01T02:11:32.000Z</time>
      </trkpt>
      <trkpt lat="44.94707" lon="0.86995">
        <ele>176.6</ele>
        <time>1970-01-01T02:11:33.000Z</time>
      </trkpt>
      <trkpt lat="44.94708" lon="0.86991">
        <ele>176.6</ele>
        <time>1970-01-01T02:11:34.000Z</time>
      </trkpt>
      <trkpt lat="44.94709" lon="0.86988">
        <ele>176.6</ele>
        <time>1970-01-01T02:11:35.000Z</time>
      </trkpt>
      <trkpt lat="44.94711" lon="0.86985">
        <ele>176.7</ele>
        <time>1970-01-01T02:11:36.000Z</time>
      </trkpt>
      <trkpt lat="44.94712" lon="0.86981">
        <ele>176.7</ele>
        <time>1970-01-01T02:11:37.000Z</time>
      </trkpt>
      <trkpt lat="44.94713" lon="0.86978">
        <ele>177.7</ele>
        <time>1970-01-01T02:11:38.000Z</time>
      </trkpt>
      <trkpt lat="44.94715" lon="0.86974">
        <ele>177.8</ele>
        <time>1970-01-01T02:11:39.000Z</time>
      </trkpt>
      <trkpt lat="44.94716" lon="0.86971">
        <ele>177.8</ele>
        <time>1970-01-01T02:11:40.000Z</time>
      </trkpt>
      <trkpt lat="44.94718" lon="0.86968">
        <ele>177.8</ele>
        <time>1970-01-01T02:11:41.000Z</time>
      </trkpt>
      <trkpt lat="44.94719" lon="0.86965">
        <ele>177.7</ele>
        <time>1970-01-01T02:11:42.000Z</time>
      </trkpt>
      <trkpt lat="44.94721" lon="0.86963">
        <ele>178.8</ele>
        <time>1970-01-01T02:11:43.000Z</time>
      </trkpt>
      <trkpt lat="44.94722" lon="0.8696">
        <ele>178.8</ele>
        <time>1970-01-01T02:11:44.000Z</time>
      </trkpt>
      <trkpt lat="44.94724" lon="0.86957">
        <ele>178.8</ele>
        <time>1970-01-01T02:11:45.000Z</time>
      </trkpt>
      <trkpt lat="44.94725" lon="0.86955">
        <ele>178.9</ele>
        <time>1970-01-01T02:11:46.000Z</time>
      </trkpt>
      <trkpt lat="44.94727" lon="0.86952">
        <ele>178.9</ele>
        <time>1970-01-01T02:11:47.000Z</time>
      </trkpt>
      <trkpt lat="44.94728" lon="0.86949">
        <ele>178.9</ele>
        <time>1970-01-01T02:11:48.000Z</time>
      </trkpt>
      <trkpt lat="44.94729" lon="0.86947">
        <ele>178.9</ele>
        <time>1970-01-01T02:11:49.000Z</time>
      </trkpt>
      <trkpt lat="44.9473" lon="0.86944">
        <ele>180.4</ele>
        <time>1970-01-01T02:11:50.000Z</time>
      </trkpt>
      <trkpt lat="44.94731" lon="0.86941">
        <ele>180.5</ele>
        <time>1970-01-01T02:11:51.000Z</time>
      </trkpt>
      <trkpt lat="44.94732" lon="0.86939">
        <ele>180.5</ele>
        <time>1970-01-01T02:11:52.000Z</time>
      </trkpt>
      <trkpt lat="44.94732" lon="0.86936">
        <ele>180.5</ele>
        <time>1970-01-01T02:11:53.000Z</time>
      </trkpt>
      <trkpt lat="44.94733" lon="0.86933">
        <ele>180.5</ele>
        <time>1970-01-01T02:11:54.000Z</time>
      </trkpt>
      <trkpt lat="44.94733" lon="0.8693">
        <ele>180.6</ele>
        <time>1970-01-01T02:11:55.000Z</time>
      </trkpt>
      <trkpt lat="44.94734" lon="0.86926">
        <ele>181.9</ele>
        <time>1970-01-01T02:11:56.000Z</time>
      </trkpt>
      <trkpt lat="44.94735" lon="0.86923">
        <ele>181.9</ele>
        <time>1970-01-01T02:11:57.000Z</time>
      </trkpt>
      <trkpt lat="44.94735" lon="0.8692">
        <ele>181.9</ele>
        <time>1970-01-01T02:11:58.000Z</time>
      </trkpt>
      <trkpt lat="44.94736" lon="0.86917">
        <ele>181.9</ele>
        <time>1970-01-01T02:11:59.000Z</time>
      </trkpt>
      <trkpt lat="44.94737" lon="0.86914">
        <ele>182</ele>
        <time>1970-01-01T02:12:00.000Z</time>
      </trkpt>
      <trkpt lat="44.94737" lon="0.86911">
        <ele>183.6</ele>
        <time>1970-01-01T02:12:01.000Z</time>
      </trkpt>
      <trkpt lat="44.94737" lon="0.86908">
        <ele>183.6</ele>
        <time>1970-01-01T02:12:02.000Z</time>
      </trkpt>
      <trkpt lat="44.94737" lon="0.86905">
        <ele>183.6</ele>
        <time>1970-01-01T02:12:03.000Z</time>
      </trkpt>
      <trkpt lat="44.94737" lon="0.86903">
        <ele>183.6</ele>
        <time>1970-01-01T02:12:04.000Z</time>
      </trkpt>
      <trkpt lat="44.94736" lon="0.86901">
        <ele>183.7</ele>
        <time>1970-01-01T02:12:05.000Z</time>
      </trkpt>
      <trkpt lat="44.94736" lon="0.869">
        <ele>183.7</ele>
        <time>1970-01-01T02:12:06.000Z</time>
      </trkpt>
      <trkpt lat="44.94736" lon="0.86899">
        <ele>183.7</ele>
        <time>1970-01-01T02:12:07.000Z</time>
      </trkpt>
      <trkpt lat="44.94736" lon="0.86898">
        <ele>183.7</ele>
        <time>1970-01-01T02:12:08.000Z</time>
      </trkpt>
      <trkpt lat="44.94735" lon="0.86898">
        <ele>183.8</ele>
        <time>1970-01-01T02:12:09.000Z</time>
      </trkpt>
      <trkpt lat="44.94735" lon="0.86898">
        <ele>183.8</ele>
        <time>1970-01-01T02:12:10.000Z</time>
      </trkpt>
      <trkpt lat="44.94734" lon="0.86898">
        <ele>183.8</ele>
        <time>1970-01-01T02:12:11.000Z</time>
      </trkpt>
      <trkpt lat="44.94733" lon="0.86899">
        <ele>183.8</ele>
        <time>1970-01-01T02:12:12.000Z</time>
      </trkpt>
      <trkpt lat="44.94732" lon="0.869">
        <ele>183.9</ele>
        <time>1970-01-01T02:12:13.000Z</time>
      </trkpt>
      <trkpt lat="44.94731" lon="0.869">
        <ele>183.9</ele>
        <time>1970-01-01T02:12:14.000Z</time>
      </trkpt>
      <trkpt lat="44.94729" lon="0.86901">
        <ele>184.3</ele>
        <time>1970-01-01T02:12:15.000Z</time>
      </trkpt>
      <trkpt lat="44.94728" lon="0.86902">
        <ele>184.4</ele>
        <time>1970-01-01T02:12:16.000Z</time>
      </trkpt>
      <trkpt lat="44.94726" lon="0.86902">
        <ele>184.4</ele>
        <time>1970-01-01T02:12:17.000Z</time>
      </trkpt>
      <trkpt lat="44.94724" lon="0.86903">
        <ele>184.4</ele>
        <time>1970-01-01T02:12:18.000Z</time>
      </trkpt>
      <trkpt lat="44.94721" lon="0.86904">
        <ele>184.4</ele>
        <time>1970-01-01T02:12:19.000Z</time>
      </trkpt>
      <trkpt lat="44.94719" lon="0.86905">
        <ele>184.5</ele>
        <time>1970-01-01T02:12:20.000Z</time>
      </trkpt>
      <trkpt lat="44.94717" lon="0.86906">
        <ele>185.3</ele>
        <time>1970-01-01T02:12:21.000Z</time>
      </trkpt>
      <trkpt lat="44.94715" lon="0.86906">
        <ele>185.3</ele>
        <time>1970-01-01T02:12:22.000Z</time>
      </trkpt>
      <trkpt lat="44.94713" lon="0.86907">
        <ele>185.3</ele>
        <time>1970-01-01T02:12:23.000Z</time>
      </trkpt>
      <trkpt lat="44.94711" lon="0.86908">
        <ele>185.3</ele>
        <time>1970-01-01T02:12:24.000Z</time>
      </trkpt>
      <trkpt lat="44.94709" lon="0.86908">
        <ele>185.4</ele>
        <time>1970-01-01T02:12:25.000Z</time>
      </trkpt>
      <trkpt lat="44.94708" lon="0.86909">
        <ele>185.4</ele>
        <time>1970-01-01T02:12:26.000Z</time>
      </trkpt>
      <trkpt lat="44.94706" lon="0.8691">
        <ele>186.5</ele>
        <time>1970-01-01T02:12:27.000Z</time>
      </trkpt>
      <trkpt lat="44.94704" lon="0.86911">
        <ele>186.6</ele>
        <time>1970-01-01T02:12:28.000Z</time>
      </trkpt>
      <trkpt lat="44.94703" lon="0.86912">
        <ele>186.6</ele>
        <time>1970-01-01T02:12:29.000Z</time>
      </trkpt>
      <trkpt lat="44.94701" lon="0.86912">
        <ele>186.6</ele>
        <time>1970-01-01T02:12:30.000Z</time>
      </trkpt>
      <trkpt lat="44.94699" lon="0.86913">
        <ele>184.3</ele>
        <time>1970-01-01T02:12:31.000Z</time>
      </trkpt>
      <trkpt lat="44.94698" lon="0.86913">
        <ele>184.3</ele>
        <time>1970-01-01T02:12:32.000Z</time>
      </trkpt>
      <trkpt lat="44.94696" lon="0.86913">
        <ele>184.4</ele>
        <time>1970-01-01T02:12:33.000Z</time>
      </trkpt>
      <trkpt lat="44.94694" lon="0.86914">
        <ele>185.9</ele>
        <time>1970-01-01T02:12:34.000Z</time>
      </trkpt>
      <trkpt lat="44.94692" lon="0.86915">
        <ele>185.9</ele>
        <time>1970-01-01T02:12:35.000Z</time>
      </trkpt>
      <trkpt lat="44.9469" lon="0.86916">
        <ele>185.9</ele>
        <time>1970-01-01T02:12:36.000Z</time>
      </trkpt>
      <trkpt lat="44.94687" lon="0.86917">
        <ele>186</ele>
        <time>1970-01-01T02:12:37.000Z</time>
      </trkpt>
      <trkpt lat="44.94685" lon="0.86917">
        <ele>186</ele>
        <time>1970-01-01T02:12:38.000Z</time>
      </trkpt>
      <trkpt lat="44.94683" lon="0.86918">
        <ele>186</ele>
        <time>1970-01-01T02:12:39.000Z</time>
      </trkpt>
      <trkpt lat="44.94681" lon="0.86919">
        <ele>187.5</ele>
        <time>1970-01-01T02:12:40.000Z</time>
      </trkpt>
      <trkpt lat="44.94678" lon="0.8692">
        <ele>187.5</ele>
        <time>1970-01-01T02:12:41.000Z</time>
      </trkpt>
      <trkpt lat="44.94675" lon="0.86922">
        <ele>187.5</ele>
        <time>1970-01-01T02:12:42.000Z</time>
      </trkpt>
      <trkpt lat="44.94672" lon="0.86922">
        <ele>187.5</ele>
        <time>1970-01-01T02:12:43.000Z</time>
      </trkpt>
      <trkpt lat="44.94669" lon="0.86923">
        <ele>189</ele>
        <time>1970-01-01T02:12:44.000Z</time>
      </trkpt>
      <trkpt lat="44.94666" lon="0.86923">
        <ele>189</ele>
        <time>1970-01-01T02:12:45.000Z</time>
      </trkpt>
      <trkpt lat="44.94663" lon="0.86923">
        <ele>189.1</ele>
        <time>1970-01-01T02:12:46.000Z</time>
      </trkpt>
      <trkpt lat="44.94661" lon="0.86924">
        <ele>189.1</ele>
        <time>1970-01-01T02:12:47.000Z</time>
      </trkpt>
      <trkpt lat="44.94659" lon="0.86924">
        <ele>189.1</ele>
        <time>1970-01-01T02:12:48.000Z</time>
      </trkpt>
      <trkpt lat="44.94657" lon="0.86924">
        <ele>190.5</ele>
        <time>1970-01-01T02:12:49.000Z</time>
      </trkpt>
      <trkpt lat="44.94654" lon="0.86924">
        <ele>190.5</ele>
        <time>1970-01-01T02:12:50.000Z</time>
      </trkpt>
      <trkpt lat="44.94652" lon="0.86924">
        <ele>190.5</ele>
        <time>1970-01-01T02:12:51.000Z</time>
      </trkpt>
      <trkpt lat="44.94649" lon="0.86924">
        <ele>190.5</ele>
        <time>1970-01-01T02:12:52.000Z</time>
      </trkpt>
      <trkpt lat="44.94646" lon="0.86925">
        <ele>190.6</ele>
        <time>1970-01-01T02:12:53.000Z</time>
      </trkpt>
      <trkpt lat="44.94644" lon="0.86925">
        <ele>192.1</ele>
        <time>1970-01-01T02:12:54.000Z</time>
      </trkpt>
      <trkpt lat="44.94642" lon="0.86925">
        <ele>192.1</ele>
        <time>1970-01-01T02:12:55.000Z</time>
      </trkpt>
      <trkpt lat="44.9464" lon="0.86925">
        <ele>192.1</ele>
        <time>1970-01-01T02:12:56.000Z</time>
      </trkpt>
      <trkpt lat="44.94638" lon="0.86926">
        <ele>192.1</ele>
        <time>1970-01-01T02:12:57.000Z</time>
      </trkpt>
      <trkpt lat="44.94635" lon="0.86926">
        <ele>192.2</ele>
        <time>1970-01-01T02:12:58.000Z</time>
      </trkpt>
      <trkpt lat="44.94633" lon="0.86926">
        <ele>193.6</ele>
        <time>1970-01-01T02:12:59.000Z</time>
      </trkpt>
      <trkpt lat="44.9463" lon="0.86926">
        <ele>193.7</ele>
        <time>1970-01-01T02:13:00.000Z</time>
      </trkpt>
      <trkpt lat="44.94628" lon="0.86927">
        <ele>193.7</ele>
        <time>1970-01-01T02:13:01.000Z</time>
      </trkpt>
      <trkpt lat="44.94626" lon="0.86927">
        <ele>193.7</ele>
        <time>1970-01-01T02:13:02.000Z</time>
      </trkpt>
      <trkpt lat="44.94624" lon="0.86927">
        <ele>193.7</ele>
        <time>1970-01-01T02:13:03.000Z</time>
      </trkpt>
      <trkpt lat="44.94621" lon="0.86927">
        <ele>193.8</ele>
        <time>1970-01-01T02:13:04.000Z</time>
      </trkpt>
      <trkpt lat="44.94619" lon="0.86926">
        <ele>194.9</ele>
        <time>1970-01-01T02:13:05.000Z</time>
      </trkpt>
      <trkpt lat="44.94617" lon="0.86926">
        <ele>195</ele>
        <time>1970-01-01T02:13:06.000Z</time>
      </trkpt>
      <trkpt lat="44.94615" lon="0.86925">
        <ele>195</ele>
        <time>1970-01-01T02:13:07.000Z</time>
      </trkpt>
      <trkpt lat="44.94613" lon="0.86925">
        <ele>195</ele>
        <time>1970-01-01T02:13:08.000Z</time>
      </trkpt>
      <trkpt lat="44.94611" lon="0.86924">
        <ele>195</ele>
        <time>1970-01-01T02:13:09.000Z</time>
      </trkpt>
      <trkpt lat="44.94609" lon="0.86923">
        <ele>196.3</ele>
        <time>1970-01-01T02:13:10.000Z</time>
      </trkpt>
      <trkpt lat="44.94607" lon="0.86922">
        <ele>196.3</ele>
        <time>1970-01-01T02:13:11.000Z</time>
      </trkpt>
      <trkpt lat="44.94605" lon="0.86921">
        <ele>196.4</ele>
        <time>1970-01-01T02:13:12.000Z</time>
      </trkpt>
      <trkpt lat="44.94603" lon="0.86919">
        <ele>196.4</ele>
        <time>1970-01-01T02:13:13.000Z</time>
      </trkpt>
      <trkpt lat="44.94601" lon="0.86918">
        <ele>196.4</ele>
        <time>1970-01-01T02:13:14.000Z</time>
      </trkpt>
      <trkpt lat="44.94599" lon="0.86917">
        <ele>196.4</ele>
        <time>1970-01-01T02:13:15.000Z</time>
      </trkpt>
      <trkpt lat="44.94597" lon="0.86915">
        <ele>196.5</ele>
        <time>1970-01-01T02:13:16.000Z</time>
      </trkpt>
      <trkpt lat="44.94596" lon="0.86914">
        <ele>197.7</ele>
        <time>1970-01-01T02:13:17.000Z</time>
      </trkpt>
      <trkpt lat="44.94594" lon="0.86913">
        <ele>197.7</ele>
        <time>1970-01-01T02:13:18.000Z</time>
      </trkpt>
      <trkpt lat="44.94592" lon="0.86912">
        <ele>199.3</ele>
        <time>1970-01-01T02:13:19.000Z</time>
      </trkpt>
      <trkpt lat="44.9459" lon="0.86911">
        <ele>199.3</ele>
        <time>1970-01-01T02:13:20.000Z</time>
      </trkpt>
      <trkpt lat="44.94589" lon="0.86909">
        <ele>199.3</ele>
        <time>1970-01-01T02:13:21.000Z</time>
      </trkpt>
      <trkpt lat="44.94587" lon="0.86908">
        <ele>199.3</ele>
        <time>1970-01-01T02:13:22.000Z</time>
      </trkpt>
      <trkpt lat="44.94585" lon="0.86907">
        <ele>199.4</ele>
        <time>1970-01-01T02:13:23.000Z</time>
      </trkpt>
      <trkpt lat="44.94584" lon="0.86906">
        <ele>200.7</ele>
        <time>1970-01-01T02:13:24.000Z</time>
      </trkpt>
      <trkpt lat="44.94582" lon="0.86904">
        <ele>200.7</ele>
        <time>1970-01-01T02:13:25.000Z</time>
      </trkpt>
      <trkpt lat="44.9458" lon="0.86903">
        <ele>200.7</ele>
        <time>1970-01-01T02:13:26.000Z</time>
      </trkpt>
      <trkpt lat="44.94579" lon="0.86902">
        <ele>200.8</ele>
        <time>1970-01-01T02:13:27.000Z</time>
      </trkpt>
      <trkpt lat="44.94577" lon="0.86901">
        <ele>200.8</ele>
        <time>1970-01-01T02:13:28.000Z</time>
      </trkpt>
      <trkpt lat="44.94576" lon="0.86899">
        <ele>200.8</ele>
        <time>1970-01-01T02:13:29.000Z</time>
      </trkpt>
      <trkpt lat="44.94574" lon="0.86898">
        <ele>200.8</ele>
        <time>1970-01-01T02:13:30.000Z</time>
      </trkpt>
      <trkpt lat="44.94573" lon="0.86896">
        <ele>201</ele>
        <time>1970-01-01T02:13:31.000Z</time>
      </trkpt>
      <trkpt lat="44.94571" lon="0.86895">
        <ele>201.1</ele>
        <time>1970-01-01T02:13:32.000Z</time>
      </trkpt>
      <trkpt lat="44.94569" lon="0.86894">
        <ele>201.2</ele>
        <time>1970-01-01T02:13:33.000Z</time>
      </trkpt>
      <trkpt lat="44.94567" lon="0.86893">
        <ele>201.3</ele>
        <time>1970-01-01T02:13:34.000Z</time>
      </trkpt>
      <trkpt lat="44.94565" lon="0.86892">
        <ele>201.4</ele>
        <time>1970-01-01T02:13:35.000Z</time>
      </trkpt>
      <trkpt lat="44.94563" lon="0.86891">
        <ele>201.6</ele>
        <time>1970-01-01T02:13:36.000Z</time>
      </trkpt>
      <trkpt lat="44.94561" lon="0.86889">
        <ele>201.7</ele>
        <time>1970-01-01T02:13:37.000Z</time>
      </trkpt>
      <trkpt lat="44.9456" lon="0.86888">
        <ele>201.8</ele>
        <time>1970-01-01T02:13:38.000Z</time>
      </trkpt>
      <trkpt lat="44.94558" lon="0.86887">
        <ele>201.9</ele>
        <time>1970-01-01T02:13:39.000Z</time>
      </trkpt>
      <trkpt lat="44.94556" lon="0.86886">
        <ele>202</ele>
        <time>1970-01-01T02:13:40.000Z</time>
      </trkpt>
      <trkpt lat="44.94555" lon="0.86885">
        <ele>202</ele>
        <time>1970-01-01T02:13:41.000Z</time>
      </trkpt>
      <trkpt lat="44.94554" lon="0.86884">
        <ele>202.1</ele>
        <time>1970-01-01T02:13:42.000Z</time>
      </trkpt>
      <trkpt lat="44.94552" lon="0.86883">
        <ele>202.2</ele>
        <time>1970-01-01T02:13:43.000Z</time>
      </trkpt>
      <trkpt lat="44.9455" lon="0.86881">
        <ele>202.3</ele>
        <time>1970-01-01T02:13:44.000Z</time>
      </trkpt>
      <trkpt lat="44.94548" lon="0.8688">
        <ele>202.5</ele>
        <time>1970-01-01T02:13:45.000Z</time>
      </trkpt>
      <trkpt lat="44.94546" lon="0.86879">
        <ele>202.6</ele>
        <time>1970-01-01T02:13:46.000Z</time>
      </trkpt>
      <trkpt lat="44.94543" lon="0.86878">
        <ele>202.7</ele>
        <time>1970-01-01T02:13:47.000Z</time>
      </trkpt>
      <trkpt lat="44.94541" lon="0.86876">
        <ele>202.8</ele>
        <time>1970-01-01T02:13:48.000Z</time>
      </trkpt>
      <trkpt lat="44.94539" lon="0.86875">
        <ele>202.9</ele>
        <time>1970-01-01T02:13:49.000Z</time>
      </trkpt>
      <trkpt lat="44.94537" lon="0.86873">
        <ele>203.1</ele>
        <time>1970-01-01T02:13:50.000Z</time>
      </trkpt>
      <trkpt lat="44.94536" lon="0.86871">
        <ele>203.2</ele>
        <time>1970-01-01T02:13:51.000Z</time>
      </trkpt>
      <trkpt lat="44.94534" lon="0.86869">
        <ele>203.3</ele>
        <time>1970-01-01T02:13:52.000Z</time>
      </trkpt>
      <trkpt lat="44.94533" lon="0.86867">
        <ele>203.4</ele>
        <time>1970-01-01T02:13:53.000Z</time>
      </trkpt>
      <trkpt lat="44.94531" lon="0.86865">
        <ele>203.5</ele>
        <time>1970-01-01T02:13:54.000Z</time>
      </trkpt>
      <trkpt lat="44.9453" lon="0.86862">
        <ele>203.6</ele>
        <time>1970-01-01T02:13:55.000Z</time>
      </trkpt>
      <trkpt lat="44.9453" lon="0.8686">
        <ele>203.6</ele>
        <time>1970-01-01T02:13:56.000Z</time>
      </trkpt>
      <trkpt lat="44.94529" lon="0.86857">
        <ele>203.7</ele>
        <time>1970-01-01T02:13:57.000Z</time>
      </trkpt>
      <trkpt lat="44.94528" lon="0.86854">
        <ele>203.8</ele>
        <time>1970-01-01T02:13:58.000Z</time>
      </trkpt>
      <trkpt lat="44.94528" lon="0.86851">
        <ele>203.9</ele>
        <time>1970-01-01T02:13:59.000Z</time>
      </trkpt>
      <trkpt lat="44.94527" lon="0.86848">
        <ele>204.1</ele>
        <time>1970-01-01T02:14:00.000Z</time>
      </trkpt>
      <trkpt lat="44.94527" lon="0.86845">
        <ele>204.2</ele>
        <time>1970-01-01T02:14:01.000Z</time>
      </trkpt>
      <trkpt lat="44.94527" lon="0.86842">
        <ele>204.3</ele>
        <time>1970-01-01T02:14:02.000Z</time>
      </trkpt>
      <trkpt lat="44.94527" lon="0.86838">
        <ele>204.4</ele>
        <time>1970-01-01T02:14:03.000Z</time>
      </trkpt>
      <trkpt lat="44.94527" lon="0.86835">
        <ele>204.5</ele>
        <time>1970-01-01T02:14:04.000Z</time>
      </trkpt>
      <trkpt lat="44.94527" lon="0.86832">
        <ele>204.6</ele>
        <time>1970-01-01T02:14:05.000Z</time>
      </trkpt>
      <trkpt lat="44.94526" lon="0.86829">
        <ele>204.7</ele>
        <time>1970-01-01T02:14:06.000Z</time>
      </trkpt>
      <trkpt lat="44.94526" lon="0.86826">
        <ele>204.8</ele>
        <time>1970-01-01T02:14:07.000Z</time>
      </trkpt>
      <trkpt lat="44.94526" lon="0.86823">
        <ele>204.9</ele>
        <time>1970-01-01T02:14:08.000Z</time>
      </trkpt>
      <trkpt lat="44.94526" lon="0.8682">
        <ele>205.1</ele>
        <time>1970-01-01T02:14:09.000Z</time>
      </trkpt>
      <trkpt lat="44.94526" lon="0.86816">
        <ele>205.2</ele>
        <time>1970-01-01T02:14:10.000Z</time>
      </trkpt>
      <trkpt lat="44.94526" lon="0.86813">
        <ele>205.3</ele>
        <time>1970-01-01T02:14:11.000Z</time>
      </trkpt>
      <trkpt lat="44.94526" lon="0.8681">
        <ele>205.5</ele>
        <time>1970-01-01T02:14:12.000Z</time>
      </trkpt>
      <trkpt lat="44.94526" lon="0.86807">
        <ele>205.6</ele>
        <time>1970-01-01T02:14:13.000Z</time>
      </trkpt>
      <trkpt lat="44.94526" lon="0.86803">
        <ele>205.8</ele>
        <time>1970-01-01T02:14:14.000Z</time>
      </trkpt>
      <trkpt lat="44.94527" lon="0.86799">
        <ele>205.9</ele>
        <time>1970-01-01T02:14:15.000Z</time>
      </trkpt>
      <trkpt lat="44.94527" lon="0.86795">
        <ele>206</ele>
        <time>1970-01-01T02:14:16.000Z</time>
      </trkpt>
      <trkpt lat="44.94527" lon="0.86791">
        <ele>206.1</ele>
        <time>1970-01-01T02:14:17.000Z</time>
      </trkpt>
      <trkpt lat="44.94528" lon="0.86788">
        <ele>206.2</ele>
        <time>1970-01-01T02:14:18.000Z</time>
      </trkpt>
      <trkpt lat="44.94528" lon="0.86784">
        <ele>206.3</ele>
        <time>1970-01-01T02:14:19.000Z</time>
      </trkpt>
      <trkpt lat="44.94529" lon="0.8678">
        <ele>206.4</ele>
        <time>1970-01-01T02:14:20.000Z</time>
      </trkpt>
      <trkpt lat="44.9453" lon="0.86776">
        <ele>206.5</ele>
        <time>1970-01-01T02:14:21.000Z</time>
      </trkpt>
      <trkpt lat="44.94531" lon="0.86773">
        <ele>206.5</ele>
        <time>1970-01-01T02:14:22.000Z</time>
      </trkpt>
      <trkpt lat="44.94532" lon="0.86769">
        <ele>206.6</ele>
        <time>1970-01-01T02:14:23.000Z</time>
      </trkpt>
      <trkpt lat="44.94533" lon="0.86765">
        <ele>206.7</ele>
        <time>1970-01-01T02:14:24.000Z</time>
      </trkpt>
      <trkpt lat="44.94534" lon="0.86761">
        <ele>206.8</ele>
        <time>1970-01-01T02:14:25.000Z</time>
      </trkpt>
      <trkpt lat="44.94535" lon="0.86757">
        <ele>206.8</ele>
        <time>1970-01-01T02:14:26.000Z</time>
      </trkpt>
      <trkpt lat="44.94536" lon="0.86753">
        <ele>206.9</ele>
        <time>1970-01-01T02:14:27.000Z</time>
      </trkpt>
      <trkpt lat="44.94537" lon="0.8675">
        <ele>206.9</ele>
        <time>1970-01-01T02:14:28.000Z</time>
      </trkpt>
      <trkpt lat="44.94538" lon="0.86746">
        <ele>207</ele>
        <time>1970-01-01T02:14:29.000Z</time>
      </trkpt>
      <trkpt lat="44.94539" lon="0.86742">
        <ele>207.1</ele>
        <time>1970-01-01T02:14:30.000Z</time>
      </trkpt>
      <trkpt lat="44.9454" lon="0.86738">
        <ele>207.2</ele>
        <time>1970-01-01T02:14:31.000Z</time>
      </trkpt>
      <trkpt lat="44.94541" lon="0.86734">
        <ele>207.2</ele>
        <time>1970-01-01T02:14:32.000Z</time>
      </trkpt>
      <trkpt lat="44.94542" lon="0.8673">
        <ele>207.2</ele>
        <time>1970-01-01T02:14:33.000Z</time>
      </trkpt>
      <trkpt lat="44.94543" lon="0.86726">
        <ele>207.2</ele>
        <time>1970-01-01T02:14:34.000Z</time>
      </trkpt>
      <trkpt lat="44.94544" lon="0.86722">
        <ele>207.2</ele>
        <time>1970-01-01T02:14:35.000Z</time>
      </trkpt>
      <trkpt lat="44.94545" lon="0.86719">
        <ele>207.2</ele>
        <time>1970-01-01T02:14:36.000Z</time>
      </trkpt>
      <trkpt lat="44.94546" lon="0.86714">
        <ele>207.2</ele>
        <time>1970-01-01T02:14:37.000Z</time>
      </trkpt>
      <trkpt lat="44.94547" lon="0.8671">
        <ele>207.1</ele>
        <time>1970-01-01T02:14:38.000Z</time>
      </trkpt>
      <trkpt lat="44.94548" lon="0.86706">
        <ele>207.1</ele>
        <time>1970-01-01T02:14:39.000Z</time>
      </trkpt>
      <trkpt lat="44.94549" lon="0.86702">
        <ele>207</ele>
        <time>1970-01-01T02:14:40.000Z</time>
      </trkpt>
      <trkpt lat="44.9455" lon="0.86698">
        <ele>206.9</ele>
        <time>1970-01-01T02:14:41.000Z</time>
      </trkpt>
      <trkpt lat="44.94551" lon="0.86694">
        <ele>206.8</ele>
        <time>1970-01-01T02:14:42.000Z</time>
      </trkpt>
      <trkpt lat="44.94551" lon="0.8669">
        <ele>206.6</ele>
        <time>1970-01-01T02:14:43.000Z</time>
      </trkpt>
      <trkpt lat="44.94552" lon="0.86686">
        <ele>206.5</ele>
        <time>1970-01-01T02:14:44.000Z</time>
      </trkpt>
      <trkpt lat="44.94552" lon="0.86683">
        <ele>206.4</ele>
        <time>1970-01-01T02:14:45.000Z</time>
      </trkpt>
      <trkpt lat="44.94552" lon="0.86679">
        <ele>206.3</ele>
        <time>1970-01-01T02:14:46.000Z</time>
      </trkpt>
      <trkpt lat="44.94553" lon="0.86675">
        <ele>206.1</ele>
        <time>1970-01-01T02:14:47.000Z</time>
      </trkpt>
      <trkpt lat="44.94553" lon="0.86671">
        <ele>205.9</ele>
        <time>1970-01-01T02:14:48.000Z</time>
      </trkpt>
      <trkpt lat="44.94553" lon="0.86667">
        <ele>205.8</ele>
        <time>1970-01-01T02:14:49.000Z</time>
      </trkpt>
      <trkpt lat="44.94553" lon="0.86664">
        <ele>205.7</ele>
        <time>1970-01-01T02:14:50.000Z</time>
      </trkpt>
      <trkpt lat="44.94553" lon="0.86661">
        <ele>205.5</ele>
        <time>1970-01-01T02:14:51.000Z</time>
      </trkpt>
      <trkpt lat="44.94553" lon="0.86658">
        <ele>205.4</ele>
        <time>1970-01-01T02:14:52.000Z</time>
      </trkpt>
      <trkpt lat="44.94553" lon="0.86655">
        <ele>205.2</ele>
        <time>1970-01-01T02:14:53.000Z</time>
      </trkpt>
      <trkpt lat="44.94553" lon="0.86653">
        <ele>205.2</ele>
        <time>1970-01-01T02:14:54.000Z</time>
      </trkpt>
      <trkpt lat="44.94553" lon="0.86652">
        <ele>205.1</ele>
        <time>1970-01-01T02:14:55.000Z</time>
      </trkpt>
      <trkpt lat="44.94553" lon="0.86652">
        <ele>205.1</ele>
        <time>1970-01-01T02:14:56.000Z</time>
      </trkpt>
      <trkpt lat="44.94553" lon="0.86652">
        <ele>205.1</ele>
        <time>1970-01-01T02:14:57.000Z</time>
      </trkpt>
      <trkpt lat="44.94553" lon="0.86651">
        <ele>205.1</ele>
        <time>1970-01-01T02:14:58.000Z</time>
      </trkpt>
      <trkpt lat="44.94553" lon="0.86651">
        <ele>205.1</ele>
        <time>1970-01-01T02:14:59.000Z</time>
      </trkpt>
      <trkpt lat="44.94553" lon="0.86651">
        <ele>205</ele>
        <time>1970-01-01T02:15:00.000Z</time>
      </trkpt>
      <trkpt lat="44.94553" lon="0.8665">
        <ele>205</ele>
        <time>1970-01-01T02:15:01.000Z</time>
      </trkpt>
      <trkpt lat="44.94553" lon="0.8665">
        <ele>205</ele>
        <time>1970-01-01T02:15:02.000Z</time>
      </trkpt>
      <trkpt lat="44.94554" lon="0.8665">
        <ele>205</ele>
        <time>1970-01-01T02:15:03.000Z</time>
      </trkpt>
      <trkpt lat="44.94554" lon="0.8665">
        <ele>204.9</ele>
        <time>1970-01-01T02:15:04.000Z</time>
      </trkpt>
      <trkpt lat="44.94554" lon="0.86649">
        <ele>204.9</ele>
        <time>1970-01-01T02:15:05.000Z</time>
      </trkpt>
      <trkpt lat="44.94554" lon="0.86649">
        <ele>204.9</ele>
        <time>1970-01-01T02:15:06.000Z</time>
      </trkpt>
      <trkpt lat="44.94554" lon="0.86648">
        <ele>204.9</ele>
        <time>1970-01-01T02:15:07.000Z</time>
      </trkpt>
      <trkpt lat="44.94554" lon="0.86648">
        <ele>204.8</ele>
        <time>1970-01-01T02:15:08.000Z</time>
      </trkpt>
      <trkpt lat="44.94554" lon="0.86647">
        <ele>204.8</ele>
        <time>1970-01-01T02:15:09.000Z</time>
      </trkpt>
      <trkpt lat="44.94554" lon="0.86647">
        <ele>204.8</ele>
        <time>1970-01-01T02:15:10.000Z</time>
      </trkpt>
      <trkpt lat="44.94554" lon="0.86646">
        <ele>204.7</ele>
        <time>1970-01-01T02:15:11.000Z</time>
      </trkpt>
      <trkpt lat="44.94554" lon="0.86646">
        <ele>204.7</ele>
        <time>1970-01-01T02:15:12.000Z</time>
      </trkpt>
      <trkpt lat="44.94554" lon="0.86645">
        <ele>204.7</ele>
        <time>1970-01-01T02:15:13.000Z</time>
      </trkpt>
      <trkpt lat="44.94553" lon="0.86644">
        <ele>204.6</ele>
        <time>1970-01-01T02:15:14.000Z</time>
      </trkpt>
      <trkpt lat="44.94553" lon="0.86643">
        <ele>204.5</ele>
        <time>1970-01-01T02:15:15.000Z</time>
      </trkpt>
      <trkpt lat="44.94552" lon="0.86642">
        <ele>204.5</ele>
        <time>1970-01-01T02:15:16.000Z</time>
      </trkpt>
      <trkpt lat="44.94552" lon="0.86642">
        <ele>204.5</ele>
        <time>1970-01-01T02:15:17.000Z</time>
      </trkpt>
      <trkpt lat="44.94552" lon="0.86641">
        <ele>204.4</ele>
        <time>1970-01-01T02:15:18.000Z</time>
      </trkpt>
      <trkpt lat="44.94552" lon="0.86641">
        <ele>204.4</ele>
        <time>1970-01-01T02:15:19.000Z</time>
      </trkpt>
      <trkpt lat="44.94551" lon="0.86641">
        <ele>204.4</ele>
        <time>1970-01-01T02:15:20.000Z</time>
      </trkpt>
      <trkpt lat="44.94551" lon="0.8664">
        <ele>204.4</ele>
        <time>1970-01-01T02:15:21.000Z</time>
      </trkpt>
      <trkpt lat="44.94551" lon="0.8664">
        <ele>204.4</ele>
        <time>1970-01-01T02:15:22.000Z</time>
      </trkpt>
      <trkpt lat="44.94551" lon="0.8664">
        <ele>204.4</ele>
        <time>1970-01-01T02:15:23.000Z</time>
      </trkpt>
      <trkpt lat="44.94551" lon="0.8664">
        <ele>204.4</ele>
        <time>1970-01-01T02:15:24.000Z</time>
      </trkpt>
      <trkpt lat="44.94551" lon="0.8664">
        <ele>204.4</ele>
        <time>1970-01-01T02:15:25.000Z</time>
      </trkpt>
      <trkpt lat="44.94551" lon="0.86639">
        <ele>204.4</ele>
        <time>1970-01-01T02:15:26.000Z</time>
      </trkpt>
      <trkpt lat="44.94551" lon="0.86639">
        <ele>204.5</ele>
        <time>1970-01-01T02:15:27.000Z</time>
      </trkpt>
      <trkpt lat="44.94551" lon="0.86639">
        <ele>204.5</ele>
        <time>1970-01-01T02:15:28.000Z</time>
      </trkpt>
      <trkpt lat="44.94551" lon="0.86639">
        <ele>204.5</ele>
        <time>1970-01-01T02:15:29.000Z</time>
      </trkpt>
      <trkpt lat="44.94551" lon="0.86639">
        <ele>204.5</ele>
        <time>1970-01-01T02:15:30.000Z</time>
      </trkpt>
      <trkpt lat="44.94551" lon="0.86639">
        <ele>204.5</ele>
        <time>1970-01-01T02:15:31.000Z</time>
      </trkpt>
      <trkpt lat="44.94551" lon="0.86638">
        <ele>204.5</ele>
        <time>1970-01-01T02:15:32.000Z</time>
      </trkpt>
      <trkpt lat="44.94552" lon="0.86638">
        <ele>204.5</ele>
        <time>1970-01-01T02:15:33.000Z</time>
      </trkpt>
      <trkpt lat="44.94552" lon="0.86638">
        <ele>204.5</ele>
        <time>1970-01-01T02:15:34.000Z</time>
      </trkpt>
      <trkpt lat="44.94552" lon="0.86639">
        <ele>204.5</ele>
        <time>1970-01-01T02:15:35.000Z</time>
      </trkpt>
      <trkpt lat="44.94552" lon="0.86639">
        <ele>204.5</ele>
        <time>1970-01-01T02:15:36.000Z</time>
      </trkpt>
      <trkpt lat="44.94551" lon="0.86638">
        <ele>204.6</ele>
        <time>1970-01-01T02:15:37.000Z</time>
      </trkpt>
      <trkpt lat="44.94551" lon="0.86638">
        <ele>204.6</ele>
        <time>1970-01-01T02:15:38.000Z</time>
      </trkpt>
      <trkpt lat="44.94551" lon="0.86638">
        <ele>204.6</ele>
        <time>1970-01-01T02:15:39.000Z</time>
      </trkpt>
      <trkpt lat="44.94551" lon="0.86638">
        <ele>204.6</ele>
        <time>1970-01-01T02:15:40.000Z</time>
      </trkpt>
      <trkpt lat="44.94551" lon="0.86638">
        <ele>204.6</ele>
        <time>1970-01-01T02:15:41.000Z</time>
      </trkpt>
      <trkpt lat="44.94551" lon="0.86638">
        <ele>204.6</ele>
        <time>1970-01-01T02:15:42.000Z</time>
      </trkpt>
      <trkpt lat="44.94551" lon="0.86638">
        <ele>204.6</ele>
        <time>1970-01-01T02:15:43.000Z</time>
      </trkpt>
      <trkpt lat="44.94551" lon="0.86637">
        <ele>204.7</ele>
        <time>1970-01-01T02:15:44.000Z</time>
      </trkpt>
      <trkpt lat="44.94551" lon="0.86637">
        <ele>204.7</ele>
        <time>1970-01-01T02:15:45.000Z</time>
      </trkpt>
      <trkpt lat="44.94551" lon="0.86637">
        <ele>204.7</ele>
        <time>1970-01-01T02:15:46.000Z</time>
      </trkpt>
      <trkpt lat="44.94551" lon="0.86637">
        <ele>204.7</ele>
        <time>1970-01-01T02:15:47.000Z</time>
      </trkpt>
      <trkpt lat="44.9455" lon="0.86637">
        <ele>204.7</ele>
        <time>1970-01-01T02:15:48.000Z</time>
      </trkpt>
      <trkpt lat="44.9455" lon="0.86636">
        <ele>204.7</ele>
        <time>1970-01-01T02:15:49.000Z</time>
      </trkpt>
      <trkpt lat="44.9455" lon="0.86636">
        <ele>204.8</ele>
        <time>1970-01-01T02:15:50.000Z</time>
      </trkpt>
      <trkpt lat="44.9455" lon="0.86636">
        <ele>204.8</ele>
        <time>1970-01-01T02:15:51.000Z</time>
      </trkpt>
      <trkpt lat="44.9455" lon="0.86636">
        <ele>204.8</ele>
        <time>1970-01-01T02:15:52.000Z</time>
      </trkpt>
      <trkpt lat="44.9455" lon="0.86636">
        <ele>204.8</ele>
        <time>1970-01-01T02:15:53.000Z</time>
      </trkpt>
      <trkpt lat="44.94549" lon="0.86636">
        <ele>204.8</ele>
        <time>1970-01-01T02:15:54.000Z</time>
      </trkpt>
      <trkpt lat="44.94549" lon="0.86636">
        <ele>204.8</ele>
        <time>1970-01-01T02:15:55.000Z</time>
      </trkpt>
      <trkpt lat="44.94549" lon="0.86636">
        <ele>204.8</ele>
        <time>1970-01-01T02:15:56.000Z</time>
      </trkpt>
      <trkpt lat="44.94549" lon="0.86636">
        <ele>204.8</ele>
        <time>1970-01-01T02:15:57.000Z</time>
      </trkpt>
      <trkpt lat="44.94549" lon="0.86636">
        <ele>204.8</ele>
        <time>1970-01-01T02:15:58.000Z</time>
      </trkpt>
      <trkpt lat="44.94549" lon="0.86636">
        <ele>204.9</ele>
        <time>1970-01-01T02:15:59.000Z</time>
      </trkpt>
      <trkpt lat="44.94549" lon="0.86635">
        <ele>204.9</ele>
        <time>1970-01-01T02:16:00.000Z</time>
      </trkpt>
      <trkpt lat="44.94549" lon="0.86635">
        <ele>204.9</ele>
        <time>1970-01-01T02:16:01.000Z</time>
      </trkpt>
      <trkpt lat="44.94549" lon="0.86635">
        <ele>204.9</ele>
        <time>1970-01-01T02:16:02.000Z</time>
      </trkpt>
      <trkpt lat="44.94549" lon="0.86635">
        <ele>204.9</ele>
        <time>1970-01-01T02:16:03.000Z</time>
      </trkpt>
      <trkpt lat="44.94548" lon="0.86634">
        <ele>203.5</ele>
        <time>1970-01-01T02:16:04.000Z</time>
      </trkpt>
      <trkpt lat="44.94548" lon="0.86634">
        <ele>203.5</ele>
        <time>1970-01-01T02:16:05.000Z</time>
      </trkpt>
      <trkpt lat="44.94548" lon="0.86634">
        <ele>203.5</ele>
        <time>1970-01-01T02:16:06.000Z</time>
      </trkpt>
      <trkpt lat="44.94548" lon="0.86634">
        <ele>203.6</ele>
        <time>1970-01-01T02:16:07.000Z</time>
      </trkpt>
      <trkpt lat="44.94547" lon="0.86634">
        <ele>203.6</ele>
        <time>1970-01-01T02:16:08.000Z</time>
      </trkpt>
      <trkpt lat="44.94547" lon="0.86633">
        <ele>203.6</ele>
        <time>1970-01-01T02:16:09.000Z</time>
      </trkpt>
      <trkpt lat="44.94547" lon="0.86633">
        <ele>203.6</ele>
        <time>1970-01-01T02:16:10.000Z</time>
      </trkpt>
      <trkpt lat="44.94547" lon="0.86633">
        <ele>203.6</ele>
        <time>1970-01-01T02:16:11.000Z</time>
      </trkpt>
      <trkpt lat="44.94547" lon="0.86633">
        <ele>203.6</ele>
        <time>1970-01-01T02:16:12.000Z</time>
      </trkpt>
      <trkpt lat="44.94548" lon="0.86633">
        <ele>203.6</ele>
        <time>1970-01-01T02:16:13.000Z</time>
      </trkpt>
      <trkpt lat="44.94548" lon="0.86633">
        <ele>203.6</ele>
        <time>1970-01-01T02:16:14.000Z</time>
      </trkpt>
      <trkpt lat="44.94548" lon="0.86633">
        <ele>203.6</ele>
        <time>1970-01-01T02:16:15.000Z</time>
      </trkpt>
      <trkpt lat="44.94548" lon="0.86633">
        <ele>203.6</ele>
        <time>1970-01-01T02:16:16.000Z</time>
      </trkpt>
      <trkpt lat="44.94548" lon="0.86632">
        <ele>203.7</ele>
        <time>1970-01-01T02:16:17.000Z</time>
      </trkpt>
      <trkpt lat="44.94548" lon="0.86632">
        <ele>203.7</ele>
        <time>1970-01-01T02:16:18.000Z</time>
      </trkpt>
      <trkpt lat="44.94548" lon="0.86632">
        <ele>205.1</ele>
        <time>1970-01-01T02:16:19.000Z</time>
      </trkpt>
      <trkpt lat="44.94548" lon="0.86632">
        <ele>205.1</ele>
        <time>1970-01-01T02:16:20.000Z</time>
      </trkpt>
      <trkpt lat="44.94549" lon="0.86632">
        <ele>205.1</ele>
        <time>1970-01-01T02:16:21.000Z</time>
      </trkpt>
      <trkpt lat="44.94549" lon="0.86632">
        <ele>205.1</ele>
        <time>1970-01-01T02:16:22.000Z</time>
      </trkpt>
      <trkpt lat="44.94549" lon="0.86632">
        <ele>205.1</ele>
        <time>1970-01-01T02:16:23.000Z</time>
      </trkpt>
      <trkpt lat="44.94549" lon="0.86633">
        <ele>205.1</ele>
        <time>1970-01-01T02:16:24.000Z</time>
      </trkpt>
      <trkpt lat="44.94549" lon="0.86633">
        <ele>205.1</ele>
        <time>1970-01-01T02:16:25.000Z</time>
      </trkpt>
      <trkpt lat="44.94549" lon="0.86633">
        <ele>205.2</ele>
        <time>1970-01-01T02:16:26.000Z</time>
      </trkpt>
      <trkpt lat="44.94549" lon="0.86633">
        <ele>205.2</ele>
        <time>1970-01-01T02:16:27.000Z</time>
      </trkpt>
      <trkpt lat="44.94549" lon="0.86633">
        <ele>205.2</ele>
        <time>1970-01-01T02:16:28.000Z</time>
      </trkpt>
      <trkpt lat="44.94549" lon="0.86633">
        <ele>205.2</ele>
        <time>1970-01-01T02:16:29.000Z</time>
      </trkpt>
      <trkpt lat="44.94549" lon="0.86633">
        <ele>205.2</ele>
        <time>1970-01-01T02:16:30.000Z</time>
      </trkpt>
      <trkpt lat="44.94549" lon="0.86632">
        <ele>205.2</ele>
        <time>1970-01-01T02:16:31.000Z</time>
      </trkpt>
      <trkpt lat="44.94549" lon="0.86632">
        <ele>205.2</ele>
        <time>1970-01-01T02:16:32.000Z</time>
      </trkpt>
      <trkpt lat="44.94549" lon="0.86632">
        <ele>205.2</ele>
        <time>1970-01-01T02:16:33.000Z</time>
      </trkpt>
      <trkpt lat="44.94549" lon="0.86632">
        <ele>205.2</ele>
        <time>1970-01-01T02:16:34.000Z</time>
      </trkpt>
      <trkpt lat="44.94549" lon="0.86632">
        <ele>205.2</ele>
        <time>1970-01-01T02:16:35.000Z</time>
      </trkpt>
      <trkpt lat="44.94549" lon="0.86632">
        <ele>205.3</ele>
        <time>1970-01-01T02:16:36.000Z</time>
      </trkpt>
      <trkpt lat="44.94549" lon="0.86632">
        <ele>205.3</ele>
        <time>1970-01-01T02:16:37.000Z</time>
      </trkpt>
      <trkpt lat="44.94549" lon="0.86633">
        <ele>205.3</ele>
        <time>1970-01-01T02:16:38.000Z</time>
      </trkpt>
      <trkpt lat="44.94549" lon="0.86633">
        <ele>205.3</ele>
        <time>1970-01-01T02:16:39.000Z</time>
      </trkpt>
      <trkpt lat="44.94549" lon="0.86633">
        <ele>205.3</ele>
        <time>1970-01-01T02:16:40.000Z</time>
      </trkpt>
      <trkpt lat="44.94549" lon="0.86633">
        <ele>205.3</ele>
        <time>1970-01-01T02:16:41.000Z</time>
      </trkpt>
      <trkpt lat="44.9455" lon="0.86633">
        <ele>205.3</ele>
        <time>1970-01-01T02:16:42.000Z</time>
      </trkpt>
      <trkpt lat="44.9455" lon="0.86633">
        <ele>205.3</ele>
        <time>1970-01-01T02:16:43.000Z</time>
      </trkpt>
      <trkpt lat="44.9455" lon="0.86633">
        <ele>205.3</ele>
        <time>1970-01-01T02:16:44.000Z</time>
      </trkpt>
      <trkpt lat="44.9455" lon="0.86633">
        <ele>205.4</ele>
        <time>1970-01-01T02:16:45.000Z</time>
      </trkpt>
      <trkpt lat="44.9455" lon="0.86632">
        <ele>205.4</ele>
        <time>1970-01-01T02:16:46.000Z</time>
      </trkpt>
      <trkpt lat="44.9455" lon="0.86632">
        <ele>205.4</ele>
        <time>1970-01-01T02:16:47.000Z</time>
      </trkpt>
      <trkpt lat="44.9455" lon="0.86632">
        <ele>205.4</ele>
        <time>1970-01-01T02:16:48.000Z</time>
      </trkpt>
      <trkpt lat="44.9455" lon="0.86632">
        <ele>205.4</ele>
        <time>1970-01-01T02:16:49.000Z</time>
      </trkpt>
      <trkpt lat="44.9455" lon="0.86632">
        <ele>205.4</ele>
        <time>1970-01-01T02:16:50.000Z</time>
      </trkpt>
      <trkpt lat="44.94549" lon="0.86631">
        <ele>205.4</ele>
        <time>1970-01-01T02:16:51.000Z</time>
      </trkpt>
      <trkpt lat="44.94549" lon="0.86631">
        <ele>205.4</ele>
        <time>1970-01-01T02:16:52.000Z</time>
      </trkpt>
      <trkpt lat="44.94549" lon="0.86631">
        <ele>205.4</ele>
        <time>1970-01-01T02:16:53.000Z</time>
      </trkpt>
      <trkpt lat="44.94549" lon="0.86631">
        <ele>205.5</ele>
        <time>1970-01-01T02:16:54.000Z</time>
      </trkpt>
      <trkpt lat="44.94549" lon="0.86631">
        <ele>205.5</ele>
        <time>1970-01-01T02:16:55.000Z</time>
      </trkpt>
      <trkpt lat="44.94549" lon="0.8663">
        <ele>205.5</ele>
        <time>1970-01-01T02:16:56.000Z</time>
      </trkpt>
      <trkpt lat="44.94549" lon="0.8663">
        <ele>205.5</ele>
        <time>1970-01-01T02:16:57.000Z</time>
      </trkpt>
      <trkpt lat="44.94549" lon="0.8663">
        <ele>205.5</ele>
        <time>1970-01-01T02:16:58.000Z</time>
      </trkpt>
      <trkpt lat="44.94549" lon="0.8663">
        <ele>205.5</ele>
        <time>1970-01-01T02:16:59.000Z</time>
      </trkpt>
      <trkpt lat="44.94549" lon="0.8663">
        <ele>205.5</ele>
        <time>1970-01-01T02:17:00.000Z</time>
      </trkpt>
      <trkpt lat="44.94549" lon="0.8663">
        <ele>205.5</ele>
        <time>1970-01-01T02:17:01.000Z</time>
      </trkpt>
      <trkpt lat="44.94549" lon="0.8663">
        <ele>205.5</ele>
        <time>1970-01-01T02:17:02.000Z</time>
      </trkpt>
      <trkpt lat="44.94549" lon="0.8663">
        <ele>205.6</ele>
        <time>1970-01-01T02:17:03.000Z</time>
      </trkpt>
      <trkpt lat="44.94549" lon="0.8663">
        <ele>205.6</ele>
        <time>1970-01-01T02:17:04.000Z</time>
      </trkpt>
      <trkpt lat="44.94549" lon="0.8663">
        <ele>205.6</ele>
        <time>1970-01-01T02:17:05.000Z</time>
      </trkpt>
      <trkpt lat="44.94549" lon="0.8663">
        <ele>205.6</ele>
        <time>1970-01-01T02:17:06.000Z</time>
      </trkpt>
      <trkpt lat="44.94549" lon="0.8663">
        <ele>205.6</ele>
        <time>1970-01-01T02:17:07.000Z</time>
      </trkpt>
      <trkpt lat="44.9455" lon="0.8663">
        <ele>205.6</ele>
        <time>1970-01-01T02:17:08.000Z</time>
      </trkpt>
      <trkpt lat="44.9455" lon="0.8663">
        <ele>205.6</ele>
        <time>1970-01-01T02:17:09.000Z</time>
      </trkpt>
      <trkpt lat="44.9455" lon="0.8663">
        <ele>205.6</ele>
        <time>1970-01-01T02:17:10.000Z</time>
      </trkpt>
      <trkpt lat="44.94549" lon="0.8663">
        <ele>205.6</ele>
        <time>1970-01-01T02:17:11.000Z</time>
      </trkpt>
      <trkpt lat="44.94549" lon="0.86631">
        <ele>205.7</ele>
        <time>1970-01-01T02:17:12.000Z</time>
      </trkpt>
      <trkpt lat="44.94549" lon="0.86631">
        <ele>205.7</ele>
        <time>1970-01-01T02:17:13.000Z</time>
      </trkpt>
      <trkpt lat="44.94549" lon="0.86631">
        <ele>205.7</ele>
        <time>1970-01-01T02:17:14.000Z</time>
      </trkpt>
      <trkpt lat="44.9455" lon="0.86631">
        <ele>205.7</ele>
        <time>1970-01-01T02:17:15.000Z</time>
      </trkpt>
      <trkpt lat="44.9455" lon="0.86631">
        <ele>205.7</ele>
        <time>1970-01-01T02:17:16.000Z</time>
      </trkpt>
      <trkpt lat="44.9455" lon="0.86631">
        <ele>205.7</ele>
        <time>1970-01-01T02:17:17.000Z</time>
      </trkpt>
      <trkpt lat="44.9455" lon="0.86631">
        <ele>205.7</ele>
        <time>1970-01-01T02:17:18.000Z</time>
      </trkpt>
      <trkpt lat="44.9455" lon="0.86631">
        <ele>205.7</ele>
        <time>1970-01-01T02:17:19.000Z</time>
      </trkpt>
      <trkpt lat="44.9455" lon="0.86631">
        <ele>205.7</ele>
        <time>1970-01-01T02:17:20.000Z</time>
      </trkpt>
      <trkpt lat="44.9455" lon="0.86631">
        <ele>205.7</ele>
        <time>1970-01-01T02:17:21.000Z</time>
      </trkpt>
      <trkpt lat="44.9455" lon="0.86631">
        <ele>205.8</ele>
        <time>1970-01-01T02:17:22.000Z</time>
      </trkpt>
      <trkpt lat="44.94549" lon="0.86631">
        <ele>205.8</ele>
        <time>1970-01-01T02:17:23.000Z</time>
      </trkpt>
      <trkpt lat="44.94549" lon="0.86631">
        <ele>205.8</ele>
        <time>1970-01-01T02:17:24.000Z</time>
      </trkpt>
      <trkpt lat="44.94549" lon="0.86632">
        <ele>205.8</ele>
        <time>1970-01-01T02:17:25.000Z</time>
      </trkpt>
      <trkpt lat="44.9455" lon="0.86632">
        <ele>205.8</ele>
        <time>1970-01-01T02:17:26.000Z</time>
      </trkpt>
      <trkpt lat="44.94549" lon="0.86632">
        <ele>205.8</ele>
        <time>1970-01-01T02:17:27.000Z</time>
      </trkpt>
      <trkpt lat="44.94549" lon="0.86632">
        <ele>205.8</ele>
        <time>1970-01-01T02:17:28.000Z</time>
      </trkpt>
      <trkpt lat="44.94549" lon="0.86632">
        <ele>205.8</ele>
        <time>1970-01-01T02:17:29.000Z</time>
      </trkpt>
      <trkpt lat="44.94549" lon="0.86632">
        <ele>205.8</ele>
        <time>1970-01-01T02:17:30.000Z</time>
      </trkpt>
      <trkpt lat="44.94549" lon="0.86632">
        <ele>205.9</ele>
        <time>1970-01-01T02:17:31.000Z</time>
      </trkpt>
      <trkpt lat="44.94549" lon="0.86631">
        <ele>205.9</ele>
        <time>1970-01-01T02:17:32.000Z</time>
      </trkpt>
      <trkpt lat="44.94549" lon="0.86631">
        <ele>205.9</ele>
        <time>1970-01-01T02:17:33.000Z</time>
      </trkpt>
      <trkpt lat="44.94549" lon="0.86631">
        <ele>205.9</ele>
        <time>1970-01-01T02:17:34.000Z</time>
      </trkpt>
      <trkpt lat="44.94562" lon="0.86632">
        <ele>206.7</ele>
        <time>1970-01-01T02:17:35.000Z</time>
      </trkpt>
      <trkpt lat="44.94562" lon="0.86631">
        <ele>206.8</ele>
        <time>1970-01-01T02:17:36.000Z</time>
      </trkpt>
      <trkpt lat="44.94563" lon="0.86629">
        <ele>206.8</ele>
        <time>1970-01-01T02:20:51.000Z</time>
      </trkpt>
      <trkpt lat="44.94564" lon="0.86627">
        <ele>206.8</ele>
        <time>1970-01-01T02:20:52.000Z</time>
      </trkpt>
      <trkpt lat="44.94565" lon="0.86623">
        <ele>206.8</ele>
        <time>1970-01-01T02:20:53.000Z</time>
      </trkpt>
      <trkpt lat="44.94567" lon="0.86619">
        <ele>207</ele>
        <time>1970-01-01T02:20:54.000Z</time>
      </trkpt>
      <trkpt lat="44.94568" lon="0.86614">
        <ele>207</ele>
        <time>1970-01-01T02:20:55.000Z</time>
      </trkpt>
      <trkpt lat="44.9457" lon="0.86608">
        <ele>207</ele>
        <time>1970-01-01T02:20:56.000Z</time>
      </trkpt>
      <trkpt lat="44.94572" lon="0.86603">
        <ele>207.2</ele>
        <time>1970-01-01T02:20:57.000Z</time>
      </trkpt>
      <trkpt lat="44.94576" lon="0.86597">
        <ele>207.6</ele>
        <time>1970-01-01T02:20:58.000Z</time>
      </trkpt>
      <trkpt lat="44.94579" lon="0.86592">
        <ele>207.6</ele>
        <time>1970-01-01T02:20:59.000Z</time>
      </trkpt>
      <trkpt lat="44.94583" lon="0.86589">
        <ele>207.6</ele>
        <time>1970-01-01T02:21:00.000Z</time>
      </trkpt>
      <trkpt lat="44.94587" lon="0.86586">
        <ele>207.4</ele>
        <time>1970-01-01T02:21:01.000Z</time>
      </trkpt>
      <trkpt lat="44.94591" lon="0.86584">
        <ele>207.9</ele>
        <time>1970-01-01T02:21:02.000Z</time>
      </trkpt>
      <trkpt lat="44.94594" lon="0.86582">
        <ele>207.9</ele>
        <time>1970-01-01T02:21:03.000Z</time>
      </trkpt>
      <trkpt lat="44.94598" lon="0.8658">
        <ele>207.4</ele>
        <time>1970-01-01T02:21:04.000Z</time>
      </trkpt>
      <trkpt lat="44.94601" lon="0.86579">
        <ele>207.4</ele>
        <time>1970-01-01T02:21:05.000Z</time>
      </trkpt>
      <trkpt lat="44.94605" lon="0.86577">
        <ele>207.4</ele>
        <time>1970-01-01T02:21:06.000Z</time>
      </trkpt>
      <trkpt lat="44.94608" lon="0.86575">
        <ele>207.4</ele>
        <time>1970-01-01T02:21:07.000Z</time>
      </trkpt>
      <trkpt lat="44.94611" lon="0.86573">
        <ele>206.9</ele>
        <time>1970-01-01T02:21:08.000Z</time>
      </trkpt>
      <trkpt lat="44.94613" lon="0.86571">
        <ele>206.9</ele>
        <time>1970-01-01T02:21:09.000Z</time>
      </trkpt>
      <trkpt lat="44.94616" lon="0.86568">
        <ele>207.6</ele>
        <time>1970-01-01T02:21:10.000Z</time>
      </trkpt>
      <trkpt lat="44.94618" lon="0.86566">
        <ele>207.6</ele>
        <time>1970-01-01T02:21:11.000Z</time>
      </trkpt>
      <trkpt lat="44.9462" lon="0.86564">
        <ele>207.6</ele>
        <time>1970-01-01T02:21:12.000Z</time>
      </trkpt>
      <trkpt lat="44.94623" lon="0.86562">
        <ele>207</ele>
        <time>1970-01-01T02:21:13.000Z</time>
      </trkpt>
      <trkpt lat="44.94625" lon="0.8656">
        <ele>207</ele>
        <time>1970-01-01T02:21:14.000Z</time>
      </trkpt>
      <trkpt lat="44.94627" lon="0.86557">
        <ele>207.1</ele>
        <time>1970-01-01T02:21:15.000Z</time>
      </trkpt>
      <trkpt lat="44.94629" lon="0.86555">
        <ele>207.1</ele>
        <time>1970-01-01T02:21:16.000Z</time>
      </trkpt>
      <trkpt lat="44.94631" lon="0.86552">
        <ele>207.1</ele>
        <time>1970-01-01T02:21:17.000Z</time>
      </trkpt>
      <trkpt lat="44.94634" lon="0.8655">
        <ele>207.4</ele>
        <time>1970-01-01T02:21:18.000Z</time>
      </trkpt>
      <trkpt lat="44.94636" lon="0.86548">
        <ele>207.4</ele>
        <time>1970-01-01T02:21:19.000Z</time>
      </trkpt>
      <trkpt lat="44.94638" lon="0.86546">
        <ele>207.4</ele>
        <time>1970-01-01T02:21:20.000Z</time>
      </trkpt>
      <trkpt lat="44.9464" lon="0.86544">
        <ele>207.4</ele>
        <time>1970-01-01T02:21:21.000Z</time>
      </trkpt>
      <trkpt lat="44.94642" lon="0.86542">
        <ele>207.4</ele>
        <time>1970-01-01T02:21:22.000Z</time>
      </trkpt>
      <trkpt lat="44.94644" lon="0.86539">
        <ele>207.4</ele>
        <time>1970-01-01T02:21:23.000Z</time>
      </trkpt>
      <trkpt lat="44.94645" lon="0.86537">
        <ele>207.4</ele>
        <time>1970-01-01T02:21:24.000Z</time>
      </trkpt>
      <trkpt lat="44.94647" lon="0.86535">
        <ele>206.9</ele>
        <time>1970-01-01T02:21:25.000Z</time>
      </trkpt>
      <trkpt lat="44.94649" lon="0.86532">
        <ele>207.9</ele>
        <time>1970-01-01T02:21:26.000Z</time>
      </trkpt>
      <trkpt lat="44.9465" lon="0.86529">
        <ele>207.9</ele>
        <time>1970-01-01T02:21:27.000Z</time>
      </trkpt>
      <trkpt lat="44.94652" lon="0.86527">
        <ele>207.9</ele>
        <time>1970-01-01T02:21:28.000Z</time>
      </trkpt>
      <trkpt lat="44.94653" lon="0.86524">
        <ele>207.9</ele>
        <time>1970-01-01T02:21:29.000Z</time>
      </trkpt>
      <trkpt lat="44.94655" lon="0.86521">
        <ele>207.9</ele>
        <time>1970-01-01T02:21:30.000Z</time>
      </trkpt>
      <trkpt lat="44.94656" lon="0.86519">
        <ele>207.9</ele>
        <time>1970-01-01T02:21:31.000Z</time>
      </trkpt>
      <trkpt lat="44.94658" lon="0.86516">
        <ele>208.1</ele>
        <time>1970-01-01T02:21:32.000Z</time>
      </trkpt>
      <trkpt lat="44.94659" lon="0.86514">
        <ele>208.1</ele>
        <time>1970-01-01T02:21:33.000Z</time>
      </trkpt>
      <trkpt lat="44.94661" lon="0.86511">
        <ele>208.1</ele>
        <time>1970-01-01T02:21:34.000Z</time>
      </trkpt>
      <trkpt lat="44.94663" lon="0.86507">
        <ele>208.1</ele>
        <time>1970-01-01T02:21:35.000Z</time>
      </trkpt>
      <trkpt lat="44.94665" lon="0.86503">
        <ele>208.1</ele>
        <time>1970-01-01T02:21:36.000Z</time>
      </trkpt>
      <trkpt lat="44.94667" lon="0.86499">
        <ele>209</ele>
        <time>1970-01-01T02:21:37.000Z</time>
      </trkpt>
      <trkpt lat="44.9467" lon="0.86496">
        <ele>209</ele>
        <time>1970-01-01T02:21:38.000Z</time>
      </trkpt>
      <trkpt lat="44.94672" lon="0.86493">
        <ele>208.1</ele>
        <time>1970-01-01T02:21:39.000Z</time>
      </trkpt>
      <trkpt lat="44.94675" lon="0.8649">
        <ele>208.2</ele>
        <time>1970-01-01T02:21:40.000Z</time>
      </trkpt>
      <trkpt lat="44.94678" lon="0.86487">
        <ele>208.2</ele>
        <time>1970-01-01T02:21:41.000Z</time>
      </trkpt>
      <trkpt lat="44.94681" lon="0.86485">
        <ele>208.2</ele>
        <time>1970-01-01T02:21:42.000Z</time>
      </trkpt>
      <trkpt lat="44.94685" lon="0.86483">
        <ele>208.4</ele>
        <time>1970-01-01T02:21:43.000Z</time>
      </trkpt>
      <trkpt lat="44.94688" lon="0.86481">
        <ele>208.4</ele>
        <time>1970-01-01T02:21:44.000Z</time>
      </trkpt>
      <trkpt lat="44.9469" lon="0.86479">
        <ele>208.4</ele>
        <time>1970-01-01T02:21:45.000Z</time>
      </trkpt>
      <trkpt lat="44.94693" lon="0.86477">
        <ele>208.4</ele>
        <time>1970-01-01T02:21:46.000Z</time>
      </trkpt>
      <trkpt lat="44.94695" lon="0.86475">
        <ele>207.6</ele>
        <time>1970-01-01T02:21:47.000Z</time>
      </trkpt>
      <trkpt lat="44.94697" lon="0.86473">
        <ele>207.6</ele>
        <time>1970-01-01T02:21:48.000Z</time>
      </trkpt>
      <trkpt lat="44.947" lon="0.86471">
        <ele>207.6</ele>
        <time>1970-01-01T02:21:49.000Z</time>
      </trkpt>
      <trkpt lat="44.94703" lon="0.86469">
        <ele>207.6</ele>
        <time>1970-01-01T02:21:50.000Z</time>
      </trkpt>
      <trkpt lat="44.94705" lon="0.86467">
        <ele>207.6</ele>
        <time>1970-01-01T02:21:51.000Z</time>
      </trkpt>
      <trkpt lat="44.94708" lon="0.86464">
        <ele>208.2</ele>
        <time>1970-01-01T02:21:52.000Z</time>
      </trkpt>
      <trkpt lat="44.94711" lon="0.86462">
        <ele>208.2</ele>
        <time>1970-01-01T02:21:53.000Z</time>
      </trkpt>
      <trkpt lat="44.94713" lon="0.86459">
        <ele>208.2</ele>
        <time>1970-01-01T02:21:54.000Z</time>
      </trkpt>
      <trkpt lat="44.94717" lon="0.86457">
        <ele>208.2</ele>
        <time>1970-01-01T02:21:55.000Z</time>
      </trkpt>
      <trkpt lat="44.9472" lon="0.86454">
        <ele>207.5</ele>
        <time>1970-01-01T02:21:56.000Z</time>
      </trkpt>
      <trkpt lat="44.94723" lon="0.86451">
        <ele>207.5</ele>
        <time>1970-01-01T02:21:57.000Z</time>
      </trkpt>
      <trkpt lat="44.94726" lon="0.86448">
        <ele>208.5</ele>
        <time>1970-01-01T02:21:58.000Z</time>
      </trkpt>
      <trkpt lat="44.94729" lon="0.86445">
        <ele>208.6</ele>
        <time>1970-01-01T02:21:59.000Z</time>
      </trkpt>
      <trkpt lat="44.94732" lon="0.86441">
        <ele>208</ele>
        <time>1970-01-01T02:22:00.000Z</time>
      </trkpt>
      <trkpt lat="44.94735" lon="0.86438">
        <ele>208</ele>
        <time>1970-01-01T02:22:01.000Z</time>
      </trkpt>
      <trkpt lat="44.94738" lon="0.86435">
        <ele>208</ele>
        <time>1970-01-01T02:22:02.000Z</time>
      </trkpt>
      <trkpt lat="44.94741" lon="0.86433">
        <ele>208</ele>
        <time>1970-01-01T02:22:03.000Z</time>
      </trkpt>
      <trkpt lat="44.94745" lon="0.8643">
        <ele>208.5</ele>
        <time>1970-01-01T02:22:04.000Z</time>
      </trkpt>
      <trkpt lat="44.94748" lon="0.86428">
        <ele>208.5</ele>
        <time>1970-01-01T02:22:05.000Z</time>
      </trkpt>
      <trkpt lat="44.94751" lon="0.86425">
        <ele>208.5</ele>
        <time>1970-01-01T02:22:06.000Z</time>
      </trkpt>
      <trkpt lat="44.94754" lon="0.86423">
        <ele>208.5</ele>
        <time>1970-01-01T02:22:07.000Z</time>
      </trkpt>
      <trkpt lat="44.94757" lon="0.86421">
        <ele>208.5</ele>
        <time>1970-01-01T02:22:08.000Z</time>
      </trkpt>
      <trkpt lat="44.94761" lon="0.86419">
        <ele>208.6</ele>
        <time>1970-01-01T02:22:09.000Z</time>
      </trkpt>
      <trkpt lat="44.94764" lon="0.86418">
        <ele>208.6</ele>
        <time>1970-01-01T02:22:10.000Z</time>
      </trkpt>
      <trkpt lat="44.94768" lon="0.86416">
        <ele>208.6</ele>
        <time>1970-01-01T02:22:11.000Z</time>
      </trkpt>
      <trkpt lat="44.94771" lon="0.86415">
        <ele>208.7</ele>
        <time>1970-01-01T02:22:12.000Z</time>
      </trkpt>
      <trkpt lat="44.94774" lon="0.86414">
        <ele>208.7</ele>
        <time>1970-01-01T02:22:13.000Z</time>
      </trkpt>
      <trkpt lat="44.94778" lon="0.86413">
        <ele>208.8</ele>
        <time>1970-01-01T02:22:14.000Z</time>
      </trkpt>
      <trkpt lat="44.94781" lon="0.86412">
        <ele>208.8</ele>
        <time>1970-01-01T02:22:15.000Z</time>
      </trkpt>
      <trkpt lat="44.94784" lon="0.86411">
        <ele>208.8</ele>
        <time>1970-01-01T02:22:16.000Z</time>
      </trkpt>
      <trkpt lat="44.94788" lon="0.86411">
        <ele>208.8</ele>
        <time>1970-01-01T02:22:17.000Z</time>
      </trkpt>
      <trkpt lat="44.94791" lon="0.8641">
        <ele>208.8</ele>
        <time>1970-01-01T02:22:18.000Z</time>
      </trkpt>
      <trkpt lat="44.94794" lon="0.8641">
        <ele>208.8</ele>
        <time>1970-01-01T02:22:19.000Z</time>
      </trkpt>
      <trkpt lat="44.94798" lon="0.8641">
        <ele>208.8</ele>
        <time>1970-01-01T02:22:20.000Z</time>
      </trkpt>
      <trkpt lat="44.94801" lon="0.8641">
        <ele>208.8</ele>
        <time>1970-01-01T02:22:21.000Z</time>
      </trkpt>
      <trkpt lat="44.94804" lon="0.8641">
        <ele>208.8</ele>
        <time>1970-01-01T02:22:22.000Z</time>
      </trkpt>
      <trkpt lat="44.94807" lon="0.86411">
        <ele>208.9</ele>
        <time>1970-01-01T02:22:23.000Z</time>
      </trkpt>
      <trkpt lat="44.94811" lon="0.86411">
        <ele>208.9</ele>
        <time>1970-01-01T02:22:24.000Z</time>
      </trkpt>
      <trkpt lat="44.94814" lon="0.86411">
        <ele>208.9</ele>
        <time>1970-01-01T02:22:25.000Z</time>
      </trkpt>
      <trkpt lat="44.94817" lon="0.8641">
        <ele>208.9</ele>
        <time>1970-01-01T02:22:26.000Z</time>
      </trkpt>
      <trkpt lat="44.9482" lon="0.8641">
        <ele>208.9</ele>
        <time>1970-01-01T02:22:27.000Z</time>
      </trkpt>
      <trkpt lat="44.94823" lon="0.8641">
        <ele>208.8</ele>
        <time>1970-01-01T02:22:28.000Z</time>
      </trkpt>
      <trkpt lat="44.94826" lon="0.8641">
        <ele>208.8</ele>
        <time>1970-01-01T02:22:29.000Z</time>
      </trkpt>
      <trkpt lat="44.94829" lon="0.86412">
        <ele>208.7</ele>
        <time>1970-01-01T02:22:30.000Z</time>
      </trkpt>
      <trkpt lat="44.94831" lon="0.86414">
        <ele>208.5</ele>
        <time>1970-01-01T02:22:31.000Z</time>
      </trkpt>
      <trkpt lat="44.94833" lon="0.86417">
        <ele>208.4</ele>
        <time>1970-01-01T02:22:32.000Z</time>
      </trkpt>
      <trkpt lat="44.94835" lon="0.8642">
        <ele>208.3</ele>
        <time>1970-01-01T02:22:33.000Z</time>
      </trkpt>
      <trkpt lat="44.94837" lon="0.86423">
        <ele>208.2</ele>
        <time>1970-01-01T02:22:34.000Z</time>
      </trkpt>
      <trkpt lat="44.94839" lon="0.86428">
        <ele>208.1</ele>
        <time>1970-01-01T02:22:35.000Z</time>
      </trkpt>
      <trkpt lat="44.94841" lon="0.86432">
        <ele>208</ele>
        <time>1970-01-01T02:22:36.000Z</time>
      </trkpt>
      <trkpt lat="44.94843" lon="0.86438">
        <ele>207.8</ele>
        <time>1970-01-01T02:22:37.000Z</time>
      </trkpt>
      <trkpt lat="44.94845" lon="0.86443">
        <ele>207.6</ele>
        <time>1970-01-01T02:22:38.000Z</time>
      </trkpt>
      <trkpt lat="44.94848" lon="0.86446">
        <ele>207.4</ele>
        <time>1970-01-01T02:22:39.000Z</time>
      </trkpt>
      <trkpt lat="44.94851" lon="0.86449">
        <ele>207.2</ele>
        <time>1970-01-01T02:22:40.000Z</time>
      </trkpt>
      <trkpt lat="44.94855" lon="0.8645">
        <ele>207.1</ele>
        <time>1970-01-01T02:22:41.000Z</time>
      </trkpt>
      <trkpt lat="44.94858" lon="0.8645">
        <ele>206.9</ele>
        <time>1970-01-01T02:22:42.000Z</time>
      </trkpt>
      <trkpt lat="44.94862" lon="0.86449">
        <ele>206.7</ele>
        <time>1970-01-01T02:22:43.000Z</time>
      </trkpt>
      <trkpt lat="44.94867" lon="0.86448">
        <ele>206.4</ele>
        <time>1970-01-01T02:22:44.000Z</time>
      </trkpt>
      <trkpt lat="44.94871" lon="0.86448">
        <ele>206.2</ele>
        <time>1970-01-01T02:22:45.000Z</time>
      </trkpt>
      <trkpt lat="44.94876" lon="0.86447">
        <ele>205.9</ele>
        <time>1970-01-01T02:22:46.000Z</time>
      </trkpt>
      <trkpt lat="44.94881" lon="0.86446">
        <ele>205.7</ele>
        <time>1970-01-01T02:22:47.000Z</time>
      </trkpt>
      <trkpt lat="44.94886" lon="0.86445">
        <ele>205.4</ele>
        <time>1970-01-01T02:22:48.000Z</time>
      </trkpt>
      <trkpt lat="44.94891" lon="0.86444">
        <ele>205.1</ele>
        <time>1970-01-01T02:22:49.000Z</time>
      </trkpt>
      <trkpt lat="44.94897" lon="0.86443">
        <ele>204.8</ele>
        <time>1970-01-01T02:22:50.000Z</time>
      </trkpt>
      <trkpt lat="44.94903" lon="0.86442">
        <ele>204.5</ele>
        <time>1970-01-01T02:22:51.000Z</time>
      </trkpt>
      <trkpt lat="44.94909" lon="0.86441">
        <ele>204.2</ele>
        <time>1970-01-01T02:22:52.000Z</time>
      </trkpt>
      <trkpt lat="44.94915" lon="0.8644">
        <ele>203.9</ele>
        <time>1970-01-01T02:22:53.000Z</time>
      </trkpt>
      <trkpt lat="44.94921" lon="0.86439">
        <ele>203.6</ele>
        <time>1970-01-01T02:22:54.000Z</time>
      </trkpt>
      <trkpt lat="44.94927" lon="0.86437">
        <ele>203.2</ele>
        <time>1970-01-01T02:22:55.000Z</time>
      </trkpt>
      <trkpt lat="44.94933" lon="0.86436">
        <ele>202.9</ele>
        <time>1970-01-01T02:22:56.000Z</time>
      </trkpt>
      <trkpt lat="44.9494" lon="0.86435">
        <ele>202.6</ele>
        <time>1970-01-01T02:22:57.000Z</time>
      </trkpt>
      <trkpt lat="44.94946" lon="0.86434">
        <ele>202.4</ele>
        <time>1970-01-01T02:22:58.000Z</time>
      </trkpt>
      <trkpt lat="44.94952" lon="0.86433">
        <ele>202.2</ele>
        <time>1970-01-01T02:22:59.000Z</time>
      </trkpt>
      <trkpt lat="44.94958" lon="0.86432">
        <ele>202</ele>
        <time>1970-01-01T02:23:00.000Z</time>
      </trkpt>
      <trkpt lat="44.94965" lon="0.86431">
        <ele>201.8</ele>
        <time>1970-01-01T02:23:01.000Z</time>
      </trkpt>
      <trkpt lat="44.94972" lon="0.8643">
        <ele>201.7</ele>
        <time>1970-01-01T02:23:02.000Z</time>
      </trkpt>
      <trkpt lat="44.9498" lon="0.86429">
        <ele>201.6</ele>
        <time>1970-01-01T02:23:03.000Z</time>
      </trkpt>
      <trkpt lat="44.94987" lon="0.86428">
        <ele>201.7</ele>
        <time>1970-01-01T02:23:04.000Z</time>
      </trkpt>
      <trkpt lat="44.94994" lon="0.86426">
        <ele>201.8</ele>
        <time>1970-01-01T02:23:05.000Z</time>
      </trkpt>
      <trkpt lat="44.95001" lon="0.86426">
        <ele>201.9</ele>
        <time>1970-01-01T02:23:06.000Z</time>
      </trkpt>
      <trkpt lat="44.95008" lon="0.86425">
        <ele>202</ele>
        <time>1970-01-01T02:23:07.000Z</time>
      </trkpt>
      <trkpt lat="44.95014" lon="0.86424">
        <ele>202.1</ele>
        <time>1970-01-01T02:23:08.000Z</time>
      </trkpt>
      <trkpt lat="44.9502" lon="0.86424">
        <ele>202.2</ele>
        <time>1970-01-01T02:23:09.000Z</time>
      </trkpt>
      <trkpt lat="44.95026" lon="0.86423">
        <ele>202.3</ele>
        <time>1970-01-01T02:23:10.000Z</time>
      </trkpt>
      <trkpt lat="44.95032" lon="0.86423">
        <ele>202.4</ele>
        <time>1970-01-01T02:23:11.000Z</time>
      </trkpt>
      <trkpt lat="44.95037" lon="0.86423">
        <ele>202.5</ele>
        <time>1970-01-01T02:23:12.000Z</time>
      </trkpt>
      <trkpt lat="44.95043" lon="0.86422">
        <ele>202.6</ele>
        <time>1970-01-01T02:23:13.000Z</time>
      </trkpt>
      <trkpt lat="44.95049" lon="0.86422">
        <ele>202.6</ele>
        <time>1970-01-01T02:23:14.000Z</time>
      </trkpt>
      <trkpt lat="44.95054" lon="0.86422">
        <ele>202.7</ele>
        <time>1970-01-01T02:23:15.000Z</time>
      </trkpt>
      <trkpt lat="44.95059" lon="0.86421">
        <ele>202.8</ele>
        <time>1970-01-01T02:23:16.000Z</time>
      </trkpt>
      <trkpt lat="44.95064" lon="0.8642">
        <ele>202.8</ele>
        <time>1970-01-01T02:23:17.000Z</time>
      </trkpt>
      <trkpt lat="44.95069" lon="0.86419">
        <ele>202.9</ele>
        <time>1970-01-01T02:23:18.000Z</time>
      </trkpt>
      <trkpt lat="44.95073" lon="0.86418">
        <ele>202.9</ele>
        <time>1970-01-01T02:23:19.000Z</time>
      </trkpt>
      <trkpt lat="44.95077" lon="0.86417">
        <ele>202.9</ele>
        <time>1970-01-01T02:23:20.000Z</time>
      </trkpt>
      <trkpt lat="44.95081" lon="0.86415">
        <ele>202.9</ele>
        <time>1970-01-01T02:23:21.000Z</time>
      </trkpt>
      <trkpt lat="44.95085" lon="0.86414">
        <ele>202.9</ele>
        <time>1970-01-01T02:23:22.000Z</time>
      </trkpt>
      <trkpt lat="44.95089" lon="0.86413">
        <ele>202.9</ele>
        <time>1970-01-01T02:23:23.000Z</time>
      </trkpt>
      <trkpt lat="44.95093" lon="0.86413">
        <ele>202.8</ele>
        <time>1970-01-01T02:23:24.000Z</time>
      </trkpt>
      <trkpt lat="44.95097" lon="0.86413">
        <ele>202.7</ele>
        <time>1970-01-01T02:23:25.000Z</time>
      </trkpt>
      <trkpt lat="44.95101" lon="0.86413">
        <ele>202.7</ele>
        <time>1970-01-01T02:23:26.000Z</time>
      </trkpt>
      <trkpt lat="44.95105" lon="0.86413">
        <ele>202.6</ele>
        <time>1970-01-01T02:23:27.000Z</time>
      </trkpt>
      <trkpt lat="44.9511" lon="0.86412">
        <ele>202.5</ele>
        <time>1970-01-01T02:23:28.000Z</time>
      </trkpt>
      <trkpt lat="44.95115" lon="0.8641">
        <ele>202.3</ele>
        <time>1970-01-01T02:23:29.000Z</time>
      </trkpt>
      <trkpt lat="44.9512" lon="0.86409">
        <ele>202.2</ele>
        <time>1970-01-01T02:23:30.000Z</time>
      </trkpt>
      <trkpt lat="44.95124" lon="0.86407">
        <ele>202.2</ele>
        <time>1970-01-01T02:23:31.000Z</time>
      </trkpt>
      <trkpt lat="44.95128" lon="0.86405">
        <ele>202.1</ele>
        <time>1970-01-01T02:23:32.000Z</time>
      </trkpt>
      <trkpt lat="44.95132" lon="0.86403">
        <ele>202.1</ele>
        <time>1970-01-01T02:23:33.000Z</time>
      </trkpt>
      <trkpt lat="44.95137" lon="0.86402">
        <ele>202.1</ele>
        <time>1970-01-01T02:23:34.000Z</time>
      </trkpt>
      <trkpt lat="44.95142" lon="0.86401">
        <ele>202.1</ele>
        <time>1970-01-01T02:23:35.000Z</time>
      </trkpt>
      <trkpt lat="44.95147" lon="0.864">
        <ele>202.1</ele>
        <time>1970-01-01T02:23:36.000Z</time>
      </trkpt>
      <trkpt lat="44.95152" lon="0.86399">
        <ele>202.2</ele>
        <time>1970-01-01T02:23:37.000Z</time>
      </trkpt>
      <trkpt lat="44.95157" lon="0.86398">
        <ele>202.3</ele>
        <time>1970-01-01T02:23:38.000Z</time>
      </trkpt>
      <trkpt lat="44.95163" lon="0.86397">
        <ele>202.4</ele>
        <time>1970-01-01T02:23:39.000Z</time>
      </trkpt>
      <trkpt lat="44.95167" lon="0.86396">
        <ele>202.5</ele>
        <time>1970-01-01T02:23:40.000Z</time>
      </trkpt>
      <trkpt lat="44.95172" lon="0.86396">
        <ele>202.7</ele>
        <time>1970-01-01T02:23:41.000Z</time>
      </trkpt>
      <trkpt lat="44.95177" lon="0.86396">
        <ele>202.9</ele>
        <time>1970-01-01T02:23:42.000Z</time>
      </trkpt>
      <trkpt lat="44.95183" lon="0.86396">
        <ele>203.1</ele>
        <time>1970-01-01T02:23:43.000Z</time>
      </trkpt>
      <trkpt lat="44.95188" lon="0.86397">
        <ele>203.3</ele>
        <time>1970-01-01T02:23:44.000Z</time>
      </trkpt>
      <trkpt lat="44.95194" lon="0.86397">
        <ele>203.6</ele>
        <time>1970-01-01T02:23:45.000Z</time>
      </trkpt>
      <trkpt lat="44.95199" lon="0.86397">
        <ele>203.8</ele>
        <time>1970-01-01T02:23:46.000Z</time>
      </trkpt>
      <trkpt lat="44.95203" lon="0.86397">
        <ele>204</ele>
        <time>1970-01-01T02:23:47.000Z</time>
      </trkpt>
      <trkpt lat="44.95206" lon="0.86397">
        <ele>204.2</ele>
        <time>1970-01-01T02:23:48.000Z</time>
      </trkpt>
      <trkpt lat="44.95209" lon="0.86396">
        <ele>204.3</ele>
        <time>1970-01-01T02:23:49.000Z</time>
      </trkpt>
      <trkpt lat="44.95211" lon="0.86395">
        <ele>204.5</ele>
        <time>1970-01-01T02:23:50.000Z</time>
      </trkpt>
      <trkpt lat="44.95213" lon="0.86394">
        <ele>204.6</ele>
        <time>1970-01-01T02:23:51.000Z</time>
      </trkpt>
      <trkpt lat="44.95215" lon="0.86392">
        <ele>204.7</ele>
        <time>1970-01-01T02:23:52.000Z</time>
      </trkpt>
      <trkpt lat="44.95218" lon="0.86391">
        <ele>204.8</ele>
        <time>1970-01-01T02:23:53.000Z</time>
      </trkpt>
      <trkpt lat="44.95221" lon="0.8639">
        <ele>205</ele>
        <time>1970-01-01T02:23:54.000Z</time>
      </trkpt>
      <trkpt lat="44.95224" lon="0.86388">
        <ele>205.2</ele>
        <time>1970-01-01T02:23:55.000Z</time>
      </trkpt>
      <trkpt lat="44.95228" lon="0.86387">
        <ele>205.4</ele>
        <time>1970-01-01T02:23:56.000Z</time>
      </trkpt>
      <trkpt lat="44.95231" lon="0.86385">
        <ele>205.5</ele>
        <time>1970-01-01T02:23:57.000Z</time>
      </trkpt>
      <trkpt lat="44.95235" lon="0.86384">
        <ele>205.6</ele>
        <time>1970-01-01T02:23:58.000Z</time>
      </trkpt>
      <trkpt lat="44.95238" lon="0.86382">
        <ele>205.8</ele>
        <time>1970-01-01T02:23:59.000Z</time>
      </trkpt>
      <trkpt lat="44.95241" lon="0.8638">
        <ele>205.8</ele>
        <time>1970-01-01T02:24:00.000Z</time>
      </trkpt>
      <trkpt lat="44.95244" lon="0.86378">
        <ele>205.9</ele>
        <time>1970-01-01T02:24:01.000Z</time>
      </trkpt>
      <trkpt lat="44.95247" lon="0.86377">
        <ele>206</ele>
        <time>1970-01-01T02:24:02.000Z</time>
      </trkpt>
      <trkpt lat="44.95251" lon="0.86376">
        <ele>206.1</ele>
        <time>1970-01-01T02:24:03.000Z</time>
      </trkpt>
      <trkpt lat="44.95255" lon="0.86376">
        <ele>206.1</ele>
        <time>1970-01-01T02:24:04.000Z</time>
      </trkpt>
      <trkpt lat="44.95259" lon="0.86377">
        <ele>206.2</ele>
        <time>1970-01-01T02:24:05.000Z</time>
      </trkpt>
      <trkpt lat="44.95264" lon="0.86377">
        <ele>206.3</ele>
        <time>1970-01-01T02:24:06.000Z</time>
      </trkpt>
      <trkpt lat="44.95268" lon="0.86378">
        <ele>206.4</ele>
        <time>1970-01-01T02:24:07.000Z</time>
      </trkpt>
      <trkpt lat="44.95272" lon="0.86378">
        <ele>206.5</ele>
        <time>1970-01-01T02:24:08.000Z</time>
      </trkpt>
      <trkpt lat="44.95276" lon="0.86378">
        <ele>206.6</ele>
        <time>1970-01-01T02:24:09.000Z</time>
      </trkpt>
      <trkpt lat="44.9528" lon="0.86377">
        <ele>206.7</ele>
        <time>1970-01-01T02:24:10.000Z</time>
      </trkpt>
      <trkpt lat="44.95284" lon="0.86377">
        <ele>206.9</ele>
        <time>1970-01-01T02:24:11.000Z</time>
      </trkpt>
      <trkpt lat="44.95288" lon="0.86376">
        <ele>207</ele>
        <time>1970-01-01T02:24:12.000Z</time>
      </trkpt>
      <trkpt lat="44.95292" lon="0.86377">
        <ele>207.1</ele>
        <time>1970-01-01T02:24:13.000Z</time>
      </trkpt>
      <trkpt lat="44.95296" lon="0.86378">
        <ele>207.2</ele>
        <time>1970-01-01T02:24:14.000Z</time>
      </trkpt>
      <trkpt lat="44.95299" lon="0.86378">
        <ele>207.5</ele>
        <time>1970-01-01T02:24:15.000Z</time>
      </trkpt>
      <trkpt lat="44.95302" lon="0.86379">
        <ele>207.7</ele>
        <time>1970-01-01T02:24:16.000Z</time>
      </trkpt>
      <trkpt lat="44.95305" lon="0.8638">
        <ele>208</ele>
        <time>1970-01-01T02:24:17.000Z</time>
      </trkpt>
      <trkpt lat="44.95309" lon="0.86381">
        <ele>208.2</ele>
        <time>1970-01-01T02:24:18.000Z</time>
      </trkpt>
      <trkpt lat="44.95312" lon="0.86382">
        <ele>208.5</ele>
        <time>1970-01-01T02:24:19.000Z</time>
      </trkpt>
      <trkpt lat="44.95315" lon="0.86382">
        <ele>208.7</ele>
        <time>1970-01-01T02:24:20.000Z</time>
      </trkpt>
      <trkpt lat="44.95318" lon="0.86383">
        <ele>208.9</ele>
        <time>1970-01-01T02:24:21.000Z</time>
      </trkpt>
      <trkpt lat="44.95322" lon="0.86384">
        <ele>209.2</ele>
        <time>1970-01-01T02:24:22.000Z</time>
      </trkpt>
      <trkpt lat="44.95325" lon="0.86384">
        <ele>209.5</ele>
        <time>1970-01-01T02:24:23.000Z</time>
      </trkpt>
      <trkpt lat="44.95328" lon="0.86385">
        <ele>209.7</ele>
        <time>1970-01-01T02:24:24.000Z</time>
      </trkpt>
      <trkpt lat="44.95331" lon="0.86386">
        <ele>210</ele>
        <time>1970-01-01T02:24:25.000Z</time>
      </trkpt>
      <trkpt lat="44.95334" lon="0.86386">
        <ele>210.2</ele>
        <time>1970-01-01T02:24:26.000Z</time>
      </trkpt>
      <trkpt lat="44.95337" lon="0.86387">
        <ele>210.5</ele>
        <time>1970-01-01T02:24:27.000Z</time>
      </trkpt>
      <trkpt lat="44.95341" lon="0.86388">
        <ele>210.7</ele>
        <time>1970-01-01T02:24:28.000Z</time>
      </trkpt>
      <trkpt lat="44.95344" lon="0.86389">
        <ele>211</ele>
        <time>1970-01-01T02:24:29.000Z</time>
      </trkpt>
      <trkpt lat="44.95347" lon="0.86389">
        <ele>211.3</ele>
        <time>1970-01-01T02:24:30.000Z</time>
      </trkpt>
      <trkpt lat="44.95349" lon="0.8639">
        <ele>211.5</ele>
        <time>1970-01-01T02:24:31.000Z</time>
      </trkpt>
      <trkpt lat="44.95352" lon="0.86392">
        <ele>211.8</ele>
        <time>1970-01-01T02:24:32.000Z</time>
      </trkpt>
      <trkpt lat="44.95355" lon="0.86393">
        <ele>212</ele>
        <time>1970-01-01T02:24:33.000Z</time>
      </trkpt>
      <trkpt lat="44.95358" lon="0.86394">
        <ele>212.3</ele>
        <time>1970-01-01T02:24:34.000Z</time>
      </trkpt>
      <trkpt lat="44.95361" lon="0.86396">
        <ele>212.6</ele>
        <time>1970-01-01T02:24:35.000Z</time>
      </trkpt>
      <trkpt lat="44.95364" lon="0.86398">
        <ele>212.9</ele>
        <time>1970-01-01T02:24:36.000Z</time>
      </trkpt>
      <trkpt lat="44.95366" lon="0.86399">
        <ele>213.2</ele>
        <time>1970-01-01T02:24:37.000Z</time>
      </trkpt>
      <trkpt lat="44.95369" lon="0.86401">
        <ele>213.5</ele>
        <time>1970-01-01T02:24:38.000Z</time>
      </trkpt>
      <trkpt lat="44.95372" lon="0.86404">
        <ele>213.8</ele>
        <time>1970-01-01T02:24:39.000Z</time>
      </trkpt>
      <trkpt lat="44.95375" lon="0.86406">
        <ele>214.1</ele>
        <time>1970-01-01T02:24:40.000Z</time>
      </trkpt>
      <trkpt lat="44.95377" lon="0.86408">
        <ele>214.4</ele>
        <time>1970-01-01T02:24:41.000Z</time>
      </trkpt>
      <trkpt lat="44.9538" lon="0.8641">
        <ele>214.7</ele>
        <time>1970-01-01T02:24:42.000Z</time>
      </trkpt>
      <trkpt lat="44.95382" lon="0.86413">
        <ele>215</ele>
        <time>1970-01-01T02:24:43.000Z</time>
      </trkpt>
      <trkpt lat="44.95384" lon="0.86416">
        <ele>215.3</ele>
        <time>1970-01-01T02:24:44.000Z</time>
      </trkpt>
      <trkpt lat="44.95387" lon="0.86419">
        <ele>215.6</ele>
        <time>1970-01-01T02:24:45.000Z</time>
      </trkpt>
      <trkpt lat="44.95388" lon="0.86422">
        <ele>215.9</ele>
        <time>1970-01-01T02:24:46.000Z</time>
      </trkpt>
      <trkpt lat="44.9539" lon="0.86426">
        <ele>216.2</ele>
        <time>1970-01-01T02:24:47.000Z</time>
      </trkpt>
      <trkpt lat="44.95391" lon="0.86429">
        <ele>216.4</ele>
        <time>1970-01-01T02:24:48.000Z</time>
      </trkpt>
      <trkpt lat="44.95392" lon="0.86433">
        <ele>216.7</ele>
        <time>1970-01-01T02:24:49.000Z</time>
      </trkpt>
      <trkpt lat="44.95393" lon="0.86437">
        <ele>217</ele>
        <time>1970-01-01T02:24:50.000Z</time>
      </trkpt>
      <trkpt lat="44.95394" lon="0.86441">
        <ele>217.2</ele>
        <time>1970-01-01T02:24:51.000Z</time>
      </trkpt>
      <trkpt lat="44.95395" lon="0.86445">
        <ele>217.5</ele>
        <time>1970-01-01T02:24:52.000Z</time>
      </trkpt>
      <trkpt lat="44.95395" lon="0.86449">
        <ele>217.7</ele>
        <time>1970-01-01T02:24:53.000Z</time>
      </trkpt>
      <trkpt lat="44.95396" lon="0.86453">
        <ele>218</ele>
        <time>1970-01-01T02:24:54.000Z</time>
      </trkpt>
      <trkpt lat="44.95396" lon="0.86457">
        <ele>218.2</ele>
        <time>1970-01-01T02:24:55.000Z</time>
      </trkpt>
      <trkpt lat="44.95397" lon="0.86462">
        <ele>218.5</ele>
        <time>1970-01-01T02:24:56.000Z</time>
      </trkpt>
      <trkpt lat="44.95398" lon="0.86466">
        <ele>218.7</ele>
        <time>1970-01-01T02:24:57.000Z</time>
      </trkpt>
      <trkpt lat="44.95399" lon="0.8647">
        <ele>218.9</ele>
        <time>1970-01-01T02:24:58.000Z</time>
      </trkpt>
      <trkpt lat="44.954" lon="0.86474">
        <ele>219.1</ele>
        <time>1970-01-01T02:24:59.000Z</time>
      </trkpt>
      <trkpt lat="44.95401" lon="0.86478">
        <ele>219.3</ele>
        <time>1970-01-01T02:25:00.000Z</time>
      </trkpt>
      <trkpt lat="44.95402" lon="0.86482">
        <ele>219.4</ele>
        <time>1970-01-01T02:25:01.000Z</time>
      </trkpt>
      <trkpt lat="44.95404" lon="0.86486">
        <ele>219.6</ele>
        <time>1970-01-01T02:25:02.000Z</time>
      </trkpt>
      <trkpt lat="44.95405" lon="0.86489">
        <ele>219.7</ele>
        <time>1970-01-01T02:25:03.000Z</time>
      </trkpt>
      <trkpt lat="44.95406" lon="0.86493">
        <ele>219.8</ele>
        <time>1970-01-01T02:25:04.000Z</time>
      </trkpt>
      <trkpt lat="44.95408" lon="0.86496">
        <ele>219.9</ele>
        <time>1970-01-01T02:25:05.000Z</time>
      </trkpt>
      <trkpt lat="44.9541" lon="0.865">
        <ele>220</ele>
        <time>1970-01-01T02:25:06.000Z</time>
      </trkpt>
      <trkpt lat="44.95412" lon="0.86503">
        <ele>220.1</ele>
        <time>1970-01-01T02:25:07.000Z</time>
      </trkpt>
      <trkpt lat="44.95415" lon="0.86506">
        <ele>220.1</ele>
        <time>1970-01-01T02:25:08.000Z</time>
      </trkpt>
      <trkpt lat="44.95418" lon="0.86509">
        <ele>220.1</ele>
        <time>1970-01-01T02:25:09.000Z</time>
      </trkpt>
      <trkpt lat="44.95421" lon="0.86512">
        <ele>220.1</ele>
        <time>1970-01-01T02:25:10.000Z</time>
      </trkpt>
      <trkpt lat="44.95424" lon="0.86515">
        <ele>220</ele>
        <time>1970-01-01T02:25:11.000Z</time>
      </trkpt>
      <trkpt lat="44.95427" lon="0.86519">
        <ele>219.9</ele>
        <time>1970-01-01T02:25:12.000Z</time>
      </trkpt>
      <trkpt lat="44.9543" lon="0.86522">
        <ele>219.9</ele>
        <time>1970-01-01T02:25:13.000Z</time>
      </trkpt>
      <trkpt lat="44.95433" lon="0.86525">
        <ele>219.7</ele>
        <time>1970-01-01T02:25:14.000Z</time>
      </trkpt>
      <trkpt lat="44.95437" lon="0.86529">
        <ele>219.6</ele>
        <time>1970-01-01T02:25:15.000Z</time>
      </trkpt>
      <trkpt lat="44.9544" lon="0.86532">
        <ele>219.5</ele>
        <time>1970-01-01T02:25:16.000Z</time>
      </trkpt>
      <trkpt lat="44.95443" lon="0.86536">
        <ele>219.4</ele>
        <time>1970-01-01T02:25:17.000Z</time>
      </trkpt>
      <trkpt lat="44.95447" lon="0.8654">
        <ele>219.2</ele>
        <time>1970-01-01T02:25:18.000Z</time>
      </trkpt>
      <trkpt lat="44.9545" lon="0.86545">
        <ele>219.1</ele>
        <time>1970-01-01T02:25:19.000Z</time>
      </trkpt>
      <trkpt lat="44.95452" lon="0.8655">
        <ele>218.9</ele>
        <time>1970-01-01T02:25:20.000Z</time>
      </trkpt>
      <trkpt lat="44.95455" lon="0.86555">
        <ele>218.8</ele>
        <time>1970-01-01T02:25:21.000Z</time>
      </trkpt>
      <trkpt lat="44.95457" lon="0.8656">
        <ele>218.6</ele>
        <time>1970-01-01T02:25:22.000Z</time>
      </trkpt>
      <trkpt lat="44.95459" lon="0.86566">
        <ele>218.5</ele>
        <time>1970-01-01T02:25:23.000Z</time>
      </trkpt>
      <trkpt lat="44.95462" lon="0.86572">
        <ele>218.3</ele>
        <time>1970-01-01T02:25:24.000Z</time>
      </trkpt>
      <trkpt lat="44.95465" lon="0.86577">
        <ele>218.1</ele>
        <time>1970-01-01T02:25:25.000Z</time>
      </trkpt>
      <trkpt lat="44.95468" lon="0.86581">
        <ele>217.9</ele>
        <time>1970-01-01T02:25:26.000Z</time>
      </trkpt>
      <trkpt lat="44.95473" lon="0.86583">
        <ele>217.7</ele>
        <time>1970-01-01T02:25:27.000Z</time>
      </trkpt>
      <trkpt lat="44.95477" lon="0.86584">
        <ele>217.4</ele>
        <time>1970-01-01T02:25:28.000Z</time>
      </trkpt>
      <trkpt lat="44.95481" lon="0.86585">
        <ele>217.2</ele>
        <time>1970-01-01T02:25:29.000Z</time>
      </trkpt>
      <trkpt lat="44.95485" lon="0.86586">
        <ele>217.1</ele>
        <time>1970-01-01T02:25:30.000Z</time>
      </trkpt>
      <trkpt lat="44.95489" lon="0.86586">
        <ele>216.9</ele>
        <time>1970-01-01T02:25:31.000Z</time>
      </trkpt>
      <trkpt lat="44.95492" lon="0.86586">
        <ele>216.3</ele>
        <time>1970-01-01T02:25:32.000Z</time>
      </trkpt>
      <trkpt lat="44.95496" lon="0.86586">
        <ele>216.6</ele>
        <time>1970-01-01T02:25:33.000Z</time>
      </trkpt>
      <trkpt lat="44.955" lon="0.86586">
        <ele>217</ele>
        <time>1970-01-01T02:25:34.000Z</time>
      </trkpt>
      <trkpt lat="44.95504" lon="0.86586">
        <ele>217.4</ele>
        <time>1970-01-01T02:25:35.000Z</time>
      </trkpt>
      <trkpt lat="44.95507" lon="0.86585">
        <ele>217.7</ele>
        <time>1970-01-01T02:25:36.000Z</time>
      </trkpt>
      <trkpt lat="44.95511" lon="0.86585">
        <ele>218.1</ele>
        <time>1970-01-01T02:25:37.000Z</time>
      </trkpt>
      <trkpt lat="44.95515" lon="0.86585">
        <ele>218.4</ele>
        <time>1970-01-01T02:25:38.000Z</time>
      </trkpt>
      <trkpt lat="44.95519" lon="0.86584">
        <ele>218.8</ele>
        <time>1970-01-01T02:25:39.000Z</time>
      </trkpt>
      <trkpt lat="44.95522" lon="0.86584">
        <ele>219.1</ele>
        <time>1970-01-01T02:25:40.000Z</time>
      </trkpt>
      <trkpt lat="44.95526" lon="0.86584">
        <ele>219.4</ele>
        <time>1970-01-01T02:25:41.000Z</time>
      </trkpt>
      <trkpt lat="44.95529" lon="0.86583">
        <ele>219.7</ele>
        <time>1970-01-01T02:25:42.000Z</time>
      </trkpt>
      <trkpt lat="44.95533" lon="0.86583">
        <ele>220</ele>
        <time>1970-01-01T02:25:43.000Z</time>
      </trkpt>
      <trkpt lat="44.95537" lon="0.86582">
        <ele>220.3</ele>
        <time>1970-01-01T02:25:44.000Z</time>
      </trkpt>
      <trkpt lat="44.9554" lon="0.8658">
        <ele>220.6</ele>
        <time>1970-01-01T02:25:45.000Z</time>
      </trkpt>
      <trkpt lat="44.95544" lon="0.86578">
        <ele>221</ele>
        <time>1970-01-01T02:25:46.000Z</time>
      </trkpt>
      <trkpt lat="44.95547" lon="0.86575">
        <ele>221.3</ele>
        <time>1970-01-01T02:25:47.000Z</time>
      </trkpt>
      <trkpt lat="44.95551" lon="0.86573">
        <ele>221.6</ele>
        <time>1970-01-01T02:25:48.000Z</time>
      </trkpt>
      <trkpt lat="44.95554" lon="0.86571">
        <ele>221.9</ele>
        <time>1970-01-01T02:25:49.000Z</time>
      </trkpt>
      <trkpt lat="44.95557" lon="0.86569">
        <ele>222.2</ele>
        <time>1970-01-01T02:25:50.000Z</time>
      </trkpt>
      <trkpt lat="44.9556" lon="0.86567">
        <ele>222.5</ele>
        <time>1970-01-01T02:25:51.000Z</time>
      </trkpt>
      <trkpt lat="44.95563" lon="0.86565">
        <ele>222.8</ele>
        <time>1970-01-01T02:25:52.000Z</time>
      </trkpt>
      <trkpt lat="44.95566" lon="0.86563">
        <ele>223.1</ele>
        <time>1970-01-01T02:25:53.000Z</time>
      </trkpt>
      <trkpt lat="44.95569" lon="0.86561">
        <ele>223.3</ele>
        <time>1970-01-01T02:25:54.000Z</time>
      </trkpt>
      <trkpt lat="44.95572" lon="0.86559">
        <ele>223.6</ele>
        <time>1970-01-01T02:25:55.000Z</time>
      </trkpt>
      <trkpt lat="44.95574" lon="0.86557">
        <ele>223.8</ele>
        <time>1970-01-01T02:25:56.000Z</time>
      </trkpt>
      <trkpt lat="44.95577" lon="0.86554">
        <ele>224.1</ele>
        <time>1970-01-01T02:25:57.000Z</time>
      </trkpt>
      <trkpt lat="44.9558" lon="0.86552">
        <ele>224.3</ele>
        <time>1970-01-01T02:25:58.000Z</time>
      </trkpt>
      <trkpt lat="44.95583" lon="0.86549">
        <ele>224.6</ele>
        <time>1970-01-01T02:25:59.000Z</time>
      </trkpt>
      <trkpt lat="44.95585" lon="0.86547">
        <ele>224.8</ele>
        <time>1970-01-01T02:26:00.000Z</time>
      </trkpt>
      <trkpt lat="44.95588" lon="0.86545">
        <ele>225.1</ele>
        <time>1970-01-01T02:26:01.000Z</time>
      </trkpt>
      <trkpt lat="44.95591" lon="0.86542">
        <ele>225.3</ele>
        <time>1970-01-01T02:26:02.000Z</time>
      </trkpt>
      <trkpt lat="44.95594" lon="0.86539">
        <ele>225.6</ele>
        <time>1970-01-01T02:26:03.000Z</time>
      </trkpt>
      <trkpt lat="44.95597" lon="0.86536">
        <ele>225.8</ele>
        <time>1970-01-01T02:26:04.000Z</time>
      </trkpt>
      <trkpt lat="44.956" lon="0.86533">
        <ele>226.1</ele>
        <time>1970-01-01T02:26:05.000Z</time>
      </trkpt>
      <trkpt lat="44.95604" lon="0.8653">
        <ele>226.3</ele>
        <time>1970-01-01T02:26:06.000Z</time>
      </trkpt>
      <trkpt lat="44.95607" lon="0.86526">
        <ele>226.7</ele>
        <time>1970-01-01T02:26:07.000Z</time>
      </trkpt>
      <trkpt lat="44.9561" lon="0.86522">
        <ele>227</ele>
        <time>1970-01-01T02:26:08.000Z</time>
      </trkpt>
      <trkpt lat="44.95614" lon="0.86518">
        <ele>227.3</ele>
        <time>1970-01-01T02:26:09.000Z</time>
      </trkpt>
      <trkpt lat="44.95617" lon="0.86515">
        <ele>227.6</ele>
        <time>1970-01-01T02:26:10.000Z</time>
      </trkpt>
      <trkpt lat="44.95621" lon="0.86511">
        <ele>228</ele>
        <time>1970-01-01T02:26:11.000Z</time>
      </trkpt>
      <trkpt lat="44.95625" lon="0.86508">
        <ele>228.3</ele>
        <time>1970-01-01T02:26:12.000Z</time>
      </trkpt>
      <trkpt lat="44.95629" lon="0.86505">
        <ele>228.6</ele>
        <time>1970-01-01T02:26:13.000Z</time>
      </trkpt>
      <trkpt lat="44.95633" lon="0.86502">
        <ele>229</ele>
        <time>1970-01-01T02:26:14.000Z</time>
      </trkpt>
      <trkpt lat="44.95636" lon="0.86499">
        <ele>229.3</ele>
        <time>1970-01-01T02:26:15.000Z</time>
      </trkpt>
      <trkpt lat="44.9564" lon="0.86496">
        <ele>229.5</ele>
        <time>1970-01-01T02:26:16.000Z</time>
      </trkpt>
      <trkpt lat="44.95644" lon="0.86493">
        <ele>229.8</ele>
        <time>1970-01-01T02:26:17.000Z</time>
      </trkpt>
      <trkpt lat="44.95647" lon="0.86491">
        <ele>230.1</ele>
        <time>1970-01-01T02:26:18.000Z</time>
      </trkpt>
      <trkpt lat="44.95651" lon="0.86488">
        <ele>230.3</ele>
        <time>1970-01-01T02:26:19.000Z</time>
      </trkpt>
      <trkpt lat="44.95654" lon="0.86485">
        <ele>230.5</ele>
        <time>1970-01-01T02:26:20.000Z</time>
      </trkpt>
      <trkpt lat="44.95658" lon="0.86483">
        <ele>230.8</ele>
        <time>1970-01-01T02:26:21.000Z</time>
      </trkpt>
      <trkpt lat="44.95661" lon="0.8648">
        <ele>231</ele>
        <time>1970-01-01T02:26:22.000Z</time>
      </trkpt>
      <trkpt lat="44.95664" lon="0.86478">
        <ele>231.2</ele>
        <time>1970-01-01T02:26:23.000Z</time>
      </trkpt>
      <trkpt lat="44.95668" lon="0.86476">
        <ele>231.5</ele>
        <time>1970-01-01T02:26:24.000Z</time>
      </trkpt>
      <trkpt lat="44.95671" lon="0.86474">
        <ele>231.7</ele>
        <time>1970-01-01T02:26:25.000Z</time>
      </trkpt>
      <trkpt lat="44.95675" lon="0.86472">
        <ele>231.9</ele>
        <time>1970-01-01T02:26:26.000Z</time>
      </trkpt>
      <trkpt lat="44.95678" lon="0.86471">
        <ele>232.1</ele>
        <time>1970-01-01T02:26:27.000Z</time>
      </trkpt>
      <trkpt lat="44.95682" lon="0.86469">
        <ele>232.3</ele>
        <time>1970-01-01T02:26:28.000Z</time>
      </trkpt>
      <trkpt lat="44.95685" lon="0.86467">
        <ele>232.6</ele>
        <time>1970-01-01T02:26:29.000Z</time>
      </trkpt>
      <trkpt lat="44.95688" lon="0.86465">
        <ele>232.8</ele>
        <time>1970-01-01T02:26:30.000Z</time>
      </trkpt>
      <trkpt lat="44.95692" lon="0.86463">
        <ele>233</ele>
        <time>1970-01-01T02:26:31.000Z</time>
      </trkpt>
      <trkpt lat="44.95695" lon="0.86461">
        <ele>233.2</ele>
        <time>1970-01-01T02:26:32.000Z</time>
      </trkpt>
      <trkpt lat="44.95698" lon="0.86459">
        <ele>233.4</ele>
        <time>1970-01-01T02:26:33.000Z</time>
      </trkpt>
      <trkpt lat="44.95701" lon="0.86458">
        <ele>233.6</ele>
        <time>1970-01-01T02:26:34.000Z</time>
      </trkpt>
      <trkpt lat="44.95704" lon="0.86456">
        <ele>233.6</ele>
        <time>1970-01-01T02:26:35.000Z</time>
      </trkpt>
      <trkpt lat="44.95707" lon="0.86454">
        <ele>233.7</ele>
        <time>1970-01-01T02:26:36.000Z</time>
      </trkpt>
      <trkpt lat="44.95709" lon="0.86452">
        <ele>233.7</ele>
        <time>1970-01-01T02:26:37.000Z</time>
      </trkpt>
      <trkpt lat="44.95712" lon="0.8645">
        <ele>233.8</ele>
        <time>1970-01-01T02:26:38.000Z</time>
      </trkpt>
      <trkpt lat="44.95714" lon="0.86448">
        <ele>233.9</ele>
        <time>1970-01-01T02:26:39.000Z</time>
      </trkpt>
      <trkpt lat="44.95716" lon="0.86446">
        <ele>233.9</ele>
        <time>1970-01-01T02:26:40.000Z</time>
      </trkpt>
      <trkpt lat="44.95718" lon="0.86443">
        <ele>234</ele>
        <time>1970-01-01T02:26:41.000Z</time>
      </trkpt>
      <trkpt lat="44.9572" lon="0.86441">
        <ele>234.1</ele>
        <time>1970-01-01T02:26:42.000Z</time>
      </trkpt>
      <trkpt lat="44.95722" lon="0.86439">
        <ele>234.2</ele>
        <time>1970-01-01T02:26:43.000Z</time>
      </trkpt>
      <trkpt lat="44.95724" lon="0.86436">
        <ele>234.4</ele>
        <time>1970-01-01T02:26:44.000Z</time>
      </trkpt>
      <trkpt lat="44.95727" lon="0.86433">
        <ele>234.6</ele>
        <time>1970-01-01T02:26:45.000Z</time>
      </trkpt>
      <trkpt lat="44.9573" lon="0.86431">
        <ele>234.8</ele>
        <time>1970-01-01T02:26:46.000Z</time>
      </trkpt>
      <trkpt lat="44.95732" lon="0.86429">
        <ele>235</ele>
        <time>1970-01-01T02:26:47.000Z</time>
      </trkpt>
      <trkpt lat="44.95734" lon="0.86427">
        <ele>235.1</ele>
        <time>1970-01-01T02:26:48.000Z</time>
      </trkpt>
      <trkpt lat="44.95737" lon="0.86424">
        <ele>235.3</ele>
        <time>1970-01-01T02:26:49.000Z</time>
      </trkpt>
      <trkpt lat="44.95739" lon="0.86422">
        <ele>235.4</ele>
        <time>1970-01-01T02:26:50.000Z</time>
      </trkpt>
      <trkpt lat="44.95742" lon="0.8642">
        <ele>235.6</ele>
        <time>1970-01-01T02:26:51.000Z</time>
      </trkpt>
      <trkpt lat="44.95745" lon="0.86418">
        <ele>235.8</ele>
        <time>1970-01-01T02:26:52.000Z</time>
      </trkpt>
      <trkpt lat="44.95748" lon="0.86416">
        <ele>235.9</ele>
        <time>1970-01-01T02:26:53.000Z</time>
      </trkpt>
      <trkpt lat="44.9575" lon="0.86414">
        <ele>236.1</ele>
        <time>1970-01-01T02:26:54.000Z</time>
      </trkpt>
      <trkpt lat="44.95752" lon="0.86411">
        <ele>236.2</ele>
        <time>1970-01-01T02:26:55.000Z</time>
      </trkpt>
      <trkpt lat="44.95755" lon="0.86409">
        <ele>236.4</ele>
        <time>1970-01-01T02:26:56.000Z</time>
      </trkpt>
      <trkpt lat="44.95757" lon="0.86406">
        <ele>236.6</ele>
        <time>1970-01-01T02:26:57.000Z</time>
      </trkpt>
      <trkpt lat="44.9576" lon="0.86404">
        <ele>236.7</ele>
        <time>1970-01-01T02:26:58.000Z</time>
      </trkpt>
      <trkpt lat="44.95764" lon="0.86401">
        <ele>236.8</ele>
        <time>1970-01-01T02:26:59.000Z</time>
      </trkpt>
      <trkpt lat="44.95767" lon="0.86399">
        <ele>237</ele>
        <time>1970-01-01T02:27:00.000Z</time>
      </trkpt>
      <trkpt lat="44.95771" lon="0.86396">
        <ele>237</ele>
        <time>1970-01-01T02:27:01.000Z</time>
      </trkpt>
      <trkpt lat="44.95774" lon="0.86394">
        <ele>237.1</ele>
        <time>1970-01-01T02:27:02.000Z</time>
      </trkpt>
      <trkpt lat="44.95776" lon="0.86392">
        <ele>237.2</ele>
        <time>1970-01-01T02:27:03.000Z</time>
      </trkpt>
      <trkpt lat="44.95779" lon="0.8639">
        <ele>237.2</ele>
        <time>1970-01-01T02:27:04.000Z</time>
      </trkpt>
      <trkpt lat="44.95783" lon="0.86388">
        <ele>237.3</ele>
        <time>1970-01-01T02:27:05.000Z</time>
      </trkpt>
      <trkpt lat="44.95786" lon="0.86385">
        <ele>237.4</ele>
        <time>1970-01-01T02:27:06.000Z</time>
      </trkpt>
      <trkpt lat="44.95789" lon="0.86382">
        <ele>237.4</ele>
        <time>1970-01-01T02:27:07.000Z</time>
      </trkpt>
      <trkpt lat="44.95792" lon="0.86379">
        <ele>237.5</ele>
        <time>1970-01-01T02:27:08.000Z</time>
      </trkpt>
      <trkpt lat="44.95795" lon="0.86376">
        <ele>237.6</ele>
        <time>1970-01-01T02:27:09.000Z</time>
      </trkpt>
      <trkpt lat="44.95798" lon="0.86374">
        <ele>237.6</ele>
        <time>1970-01-01T02:27:10.000Z</time>
      </trkpt>
      <trkpt lat="44.95801" lon="0.86371">
        <ele>237.7</ele>
        <time>1970-01-01T02:27:11.000Z</time>
      </trkpt>
      <trkpt lat="44.95804" lon="0.86369">
        <ele>237.8</ele>
        <time>1970-01-01T02:27:12.000Z</time>
      </trkpt>
      <trkpt lat="44.95807" lon="0.86366">
        <ele>237.8</ele>
        <time>1970-01-01T02:27:13.000Z</time>
      </trkpt>
      <trkpt lat="44.95809" lon="0.86363">
        <ele>237.8</ele>
        <time>1970-01-01T02:27:14.000Z</time>
      </trkpt>
      <trkpt lat="44.95812" lon="0.86361">
        <ele>237.9</ele>
        <time>1970-01-01T02:27:15.000Z</time>
      </trkpt>
      <trkpt lat="44.95815" lon="0.86358">
        <ele>237.9</ele>
        <time>1970-01-01T02:27:16.000Z</time>
      </trkpt>
      <trkpt lat="44.95818" lon="0.86356">
        <ele>238</ele>
        <time>1970-01-01T02:27:17.000Z</time>
      </trkpt>
      <trkpt lat="44.95822" lon="0.86353">
        <ele>238</ele>
        <time>1970-01-01T02:27:18.000Z</time>
      </trkpt>
      <trkpt lat="44.95825" lon="0.86351">
        <ele>238</ele>
        <time>1970-01-01T02:27:19.000Z</time>
      </trkpt>
      <trkpt lat="44.95829" lon="0.86348">
        <ele>238.1</ele>
        <time>1970-01-01T02:27:20.000Z</time>
      </trkpt>
      <trkpt lat="44.95833" lon="0.86345">
        <ele>238.1</ele>
        <time>1970-01-01T02:27:21.000Z</time>
      </trkpt>
      <trkpt lat="44.95836" lon="0.86343">
        <ele>238.2</ele>
        <time>1970-01-01T02:27:22.000Z</time>
      </trkpt>
      <trkpt lat="44.95839" lon="0.8634">
        <ele>238.2</ele>
        <time>1970-01-01T02:27:23.000Z</time>
      </trkpt>
      <trkpt lat="44.95843" lon="0.86338">
        <ele>238.3</ele>
        <time>1970-01-01T02:27:24.000Z</time>
      </trkpt>
      <trkpt lat="44.95846" lon="0.86336">
        <ele>238.4</ele>
        <time>1970-01-01T02:27:25.000Z</time>
      </trkpt>
      <trkpt lat="44.9585" lon="0.86334">
        <ele>238.4</ele>
        <time>1970-01-01T02:27:26.000Z</time>
      </trkpt>
      <trkpt lat="44.95853" lon="0.86331">
        <ele>238.5</ele>
        <time>1970-01-01T02:27:27.000Z</time>
      </trkpt>
      <trkpt lat="44.95857" lon="0.86329">
        <ele>238.6</ele>
        <time>1970-01-01T02:27:28.000Z</time>
      </trkpt>
      <trkpt lat="44.9586" lon="0.86327">
        <ele>238.7</ele>
        <time>1970-01-01T02:27:29.000Z</time>
      </trkpt>
      <trkpt lat="44.95863" lon="0.86325">
        <ele>238.8</ele>
        <time>1970-01-01T02:27:30.000Z</time>
      </trkpt>
      <trkpt lat="44.95866" lon="0.86323">
        <ele>238.8</ele>
        <time>1970-01-01T02:27:31.000Z</time>
      </trkpt>
      <trkpt lat="44.95869" lon="0.8632">
        <ele>238.9</ele>
        <time>1970-01-01T02:27:32.000Z</time>
      </trkpt>
      <trkpt lat="44.95871" lon="0.86316">
        <ele>238.9</ele>
        <time>1970-01-01T02:27:33.000Z</time>
      </trkpt>
      <trkpt lat="44.95872" lon="0.86311">
        <ele>238.9</ele>
        <time>1970-01-01T02:27:34.000Z</time>
      </trkpt>
      <trkpt lat="44.95872" lon="0.86306">
        <ele>238.8</ele>
        <time>1970-01-01T02:27:35.000Z</time>
      </trkpt>
      <trkpt lat="44.95872" lon="0.863">
        <ele>238.8</ele>
        <time>1970-01-01T02:27:36.000Z</time>
      </trkpt>
      <trkpt lat="44.95871" lon="0.86295">
        <ele>238.7</ele>
        <time>1970-01-01T02:27:37.000Z</time>
      </trkpt>
      <trkpt lat="44.95871" lon="0.86289">
        <ele>238.5</ele>
        <time>1970-01-01T02:27:38.000Z</time>
      </trkpt>
      <trkpt lat="44.9587" lon="0.86283">
        <ele>238.4</ele>
        <time>1970-01-01T02:27:39.000Z</time>
      </trkpt>
      <trkpt lat="44.95871" lon="0.86277">
        <ele>238.2</ele>
        <time>1970-01-01T02:27:40.000Z</time>
      </trkpt>
      <trkpt lat="44.95872" lon="0.86271">
        <ele>238.1</ele>
        <time>1970-01-01T02:27:41.000Z</time>
      </trkpt>
      <trkpt lat="44.95875" lon="0.86265">
        <ele>237.9</ele>
        <time>1970-01-01T02:27:42.000Z</time>
      </trkpt>
      <trkpt lat="44.95879" lon="0.86259">
        <ele>237.8</ele>
        <time>1970-01-01T02:27:43.000Z</time>
      </trkpt>
      <trkpt lat="44.95883" lon="0.86254">
        <ele>237.7</ele>
        <time>1970-01-01T02:27:44.000Z</time>
      </trkpt>
      <trkpt lat="44.95887" lon="0.8625">
        <ele>237.7</ele>
        <time>1970-01-01T02:27:45.000Z</time>
      </trkpt>
      <trkpt lat="44.95891" lon="0.86246">
        <ele>237.6</ele>
        <time>1970-01-01T02:27:46.000Z</time>
      </trkpt>
      <trkpt lat="44.95895" lon="0.86242">
        <ele>237.7</ele>
        <time>1970-01-01T02:27:47.000Z</time>
      </trkpt>
      <trkpt lat="44.95899" lon="0.86238">
        <ele>237.7</ele>
        <time>1970-01-01T02:27:48.000Z</time>
      </trkpt>
      <trkpt lat="44.95902" lon="0.86235">
        <ele>237.8</ele>
        <time>1970-01-01T02:27:49.000Z</time>
      </trkpt>
      <trkpt lat="44.95906" lon="0.86231">
        <ele>237.9</ele>
        <time>1970-01-01T02:27:50.000Z</time>
      </trkpt>
      <trkpt lat="44.95908" lon="0.86227">
        <ele>238</ele>
        <time>1970-01-01T02:27:51.000Z</time>
      </trkpt>
      <trkpt lat="44.95911" lon="0.86222">
        <ele>238</ele>
        <time>1970-01-01T02:27:52.000Z</time>
      </trkpt>
      <trkpt lat="44.95913" lon="0.86216">
        <ele>238.1</ele>
        <time>1970-01-01T02:27:53.000Z</time>
      </trkpt>
      <trkpt lat="44.95915" lon="0.8621">
        <ele>238.1</ele>
        <time>1970-01-01T02:27:54.000Z</time>
      </trkpt>
      <trkpt lat="44.95917" lon="0.86204">
        <ele>238.1</ele>
        <time>1970-01-01T02:27:55.000Z</time>
      </trkpt>
      <trkpt lat="44.95919" lon="0.86198">
        <ele>238</ele>
        <time>1970-01-01T02:27:56.000Z</time>
      </trkpt>
      <trkpt lat="44.9592" lon="0.86193">
        <ele>238</ele>
        <time>1970-01-01T02:27:57.000Z</time>
      </trkpt>
      <trkpt lat="44.95922" lon="0.86187">
        <ele>238</ele>
        <time>1970-01-01T02:27:58.000Z</time>
      </trkpt>
      <trkpt lat="44.95924" lon="0.8618">
        <ele>237.9</ele>
        <time>1970-01-01T02:27:59.000Z</time>
      </trkpt>
      <trkpt lat="44.95926" lon="0.86174">
        <ele>237.9</ele>
        <time>1970-01-01T02:28:00.000Z</time>
      </trkpt>
      <trkpt lat="44.95927" lon="0.86168">
        <ele>237.8</ele>
        <time>1970-01-01T02:28:01.000Z</time>
      </trkpt>
      <trkpt lat="44.95928" lon="0.86161">
        <ele>237.8</ele>
        <time>1970-01-01T02:28:02.000Z</time>
      </trkpt>
      <trkpt lat="44.95929" lon="0.86154">
        <ele>237.7</ele>
        <time>1970-01-01T02:28:03.000Z</time>
      </trkpt>
      <trkpt lat="44.95929" lon="0.86148">
        <ele>237.7</ele>
        <time>1970-01-01T02:28:04.000Z</time>
      </trkpt>
      <trkpt lat="44.9593" lon="0.86141">
        <ele>237.7</ele>
        <time>1970-01-01T02:28:05.000Z</time>
      </trkpt>
      <trkpt lat="44.9593" lon="0.86135">
        <ele>237.7</ele>
        <time>1970-01-01T02:28:06.000Z</time>
      </trkpt>
      <trkpt lat="44.95929" lon="0.86129">
        <ele>237.7</ele>
        <time>1970-01-01T02:28:07.000Z</time>
      </trkpt>
      <trkpt lat="44.95928" lon="0.86123">
        <ele>237.7</ele>
        <time>1970-01-01T02:28:08.000Z</time>
      </trkpt>
      <trkpt lat="44.95927" lon="0.86116">
        <ele>237.7</ele>
        <time>1970-01-01T02:28:09.000Z</time>
      </trkpt>
      <trkpt lat="44.95926" lon="0.8611">
        <ele>237.7</ele>
        <time>1970-01-01T02:28:10.000Z</time>
      </trkpt>
      <trkpt lat="44.95926" lon="0.86105">
        <ele>237.8</ele>
        <time>1970-01-01T02:28:11.000Z</time>
      </trkpt>
      <trkpt lat="44.95927" lon="0.86099">
        <ele>237.9</ele>
        <time>1970-01-01T02:28:12.000Z</time>
      </trkpt>
      <trkpt lat="44.95927" lon="0.86094">
        <ele>238</ele>
        <time>1970-01-01T02:28:13.000Z</time>
      </trkpt>
      <trkpt lat="44.95928" lon="0.86089">
        <ele>238</ele>
        <time>1970-01-01T02:28:14.000Z</time>
      </trkpt>
      <trkpt lat="44.95928" lon="0.86083">
        <ele>238.1</ele>
        <time>1970-01-01T02:28:15.000Z</time>
      </trkpt>
      <trkpt lat="44.95929" lon="0.86078">
        <ele>238.2</ele>
        <time>1970-01-01T02:28:16.000Z</time>
      </trkpt>
      <trkpt lat="44.9593" lon="0.86073">
        <ele>238.3</ele>
        <time>1970-01-01T02:28:17.000Z</time>
      </trkpt>
      <trkpt lat="44.95931" lon="0.86068">
        <ele>238.4</ele>
        <time>1970-01-01T02:28:18.000Z</time>
      </trkpt>
      <trkpt lat="44.95932" lon="0.86062">
        <ele>238.4</ele>
        <time>1970-01-01T02:28:19.000Z</time>
      </trkpt>
      <trkpt lat="44.95932" lon="0.86057">
        <ele>238.5</ele>
        <time>1970-01-01T02:28:20.000Z</time>
      </trkpt>
      <trkpt lat="44.95934" lon="0.86052">
        <ele>238.6</ele>
        <time>1970-01-01T02:28:21.000Z</time>
      </trkpt>
      <trkpt lat="44.95934" lon="0.86047">
        <ele>238.7</ele>
        <time>1970-01-01T02:28:22.000Z</time>
      </trkpt>
      <trkpt lat="44.95935" lon="0.86042">
        <ele>238.8</ele>
        <time>1970-01-01T02:28:23.000Z</time>
      </trkpt>
      <trkpt lat="44.95936" lon="0.86037">
        <ele>238.9</ele>
        <time>1970-01-01T02:28:24.000Z</time>
      </trkpt>
      <trkpt lat="44.95937" lon="0.86032">
        <ele>239</ele>
        <time>1970-01-01T02:28:25.000Z</time>
      </trkpt>
      <trkpt lat="44.95938" lon="0.86027">
        <ele>239.1</ele>
        <time>1970-01-01T02:28:26.000Z</time>
      </trkpt>
      <trkpt lat="44.95939" lon="0.86021">
        <ele>239.2</ele>
        <time>1970-01-01T02:28:27.000Z</time>
      </trkpt>
      <trkpt lat="44.95939" lon="0.86016">
        <ele>239.2</ele>
        <time>1970-01-01T02:28:28.000Z</time>
      </trkpt>
      <trkpt lat="44.9594" lon="0.86011">
        <ele>239.3</ele>
        <time>1970-01-01T02:28:29.000Z</time>
      </trkpt>
      <trkpt lat="44.95941" lon="0.86006">
        <ele>239.4</ele>
        <time>1970-01-01T02:28:30.000Z</time>
      </trkpt>
      <trkpt lat="44.95942" lon="0.86001">
        <ele>239.4</ele>
        <time>1970-01-01T02:28:31.000Z</time>
      </trkpt>
      <trkpt lat="44.95943" lon="0.85995">
        <ele>239.5</ele>
        <time>1970-01-01T02:28:32.000Z</time>
      </trkpt>
      <trkpt lat="44.95944" lon="0.8599">
        <ele>239.6</ele>
        <time>1970-01-01T02:28:33.000Z</time>
      </trkpt>
      <trkpt lat="44.95945" lon="0.85985">
        <ele>239.7</ele>
        <time>1970-01-01T02:28:34.000Z</time>
      </trkpt>
      <trkpt lat="44.95946" lon="0.85979">
        <ele>239.8</ele>
        <time>1970-01-01T02:28:35.000Z</time>
      </trkpt>
      <trkpt lat="44.95948" lon="0.85975">
        <ele>239.8</ele>
        <time>1970-01-01T02:28:36.000Z</time>
      </trkpt>
      <trkpt lat="44.95949" lon="0.8597">
        <ele>239.9</ele>
        <time>1970-01-01T02:28:37.000Z</time>
      </trkpt>
      <trkpt lat="44.9595" lon="0.85965">
        <ele>240</ele>
        <time>1970-01-01T02:28:38.000Z</time>
      </trkpt>
      <trkpt lat="44.95951" lon="0.85961">
        <ele>240.1</ele>
        <time>1970-01-01T02:28:39.000Z</time>
      </trkpt>
      <trkpt lat="44.95952" lon="0.85956">
        <ele>240.2</ele>
        <time>1970-01-01T02:28:40.000Z</time>
      </trkpt>
      <trkpt lat="44.95953" lon="0.85951">
        <ele>240.3</ele>
        <time>1970-01-01T02:28:41.000Z</time>
      </trkpt>
      <trkpt lat="44.95954" lon="0.85946">
        <ele>240.4</ele>
        <time>1970-01-01T02:28:42.000Z</time>
      </trkpt>
      <trkpt lat="44.95954" lon="0.85941">
        <ele>240.6</ele>
        <time>1970-01-01T02:28:43.000Z</time>
      </trkpt>
      <trkpt lat="44.95955" lon="0.85936">
        <ele>240.7</ele>
        <time>1970-01-01T02:28:44.000Z</time>
      </trkpt>
      <trkpt lat="44.95956" lon="0.85931">
        <ele>240.9</ele>
        <time>1970-01-01T02:28:45.000Z</time>
      </trkpt>
      <trkpt lat="44.95956" lon="0.85926">
        <ele>241</ele>
        <time>1970-01-01T02:28:46.000Z</time>
      </trkpt>
      <trkpt lat="44.95957" lon="0.85921">
        <ele>241.2</ele>
        <time>1970-01-01T02:28:47.000Z</time>
      </trkpt>
      <trkpt lat="44.95957" lon="0.85917">
        <ele>241.4</ele>
        <time>1970-01-01T02:28:48.000Z</time>
      </trkpt>
      <trkpt lat="44.95958" lon="0.85912">
        <ele>241.5</ele>
        <time>1970-01-01T02:28:49.000Z</time>
      </trkpt>
      <trkpt lat="44.95959" lon="0.85908">
        <ele>241.7</ele>
        <time>1970-01-01T02:28:50.000Z</time>
      </trkpt>
      <trkpt lat="44.95959" lon="0.85903">
        <ele>241.9</ele>
        <time>1970-01-01T02:28:51.000Z</time>
      </trkpt>
      <trkpt lat="44.9596" lon="0.85898">
        <ele>242.1</ele>
        <time>1970-01-01T02:28:52.000Z</time>
      </trkpt>
      <trkpt lat="44.9596" lon="0.85894">
        <ele>242.3</ele>
        <time>1970-01-01T02:28:53.000Z</time>
      </trkpt>
      <trkpt lat="44.95961" lon="0.85889">
        <ele>242.6</ele>
        <time>1970-01-01T02:28:54.000Z</time>
      </trkpt>
      <trkpt lat="44.95961" lon="0.85884">
        <ele>242.9</ele>
        <time>1970-01-01T02:28:55.000Z</time>
      </trkpt>
      <trkpt lat="44.95961" lon="0.85879">
        <ele>243.1</ele>
        <time>1970-01-01T02:28:56.000Z</time>
      </trkpt>
      <trkpt lat="44.95962" lon="0.85875">
        <ele>243.4</ele>
        <time>1970-01-01T02:28:57.000Z</time>
      </trkpt>
      <trkpt lat="44.95962" lon="0.8587">
        <ele>243.6</ele>
        <time>1970-01-01T02:28:58.000Z</time>
      </trkpt>
      <trkpt lat="44.95963" lon="0.85866">
        <ele>243.8</ele>
        <time>1970-01-01T02:28:59.000Z</time>
      </trkpt>
      <trkpt lat="44.95963" lon="0.85861">
        <ele>244.1</ele>
        <time>1970-01-01T02:29:00.000Z</time>
      </trkpt>
      <trkpt lat="44.95964" lon="0.85857">
        <ele>244.3</ele>
        <time>1970-01-01T02:29:01.000Z</time>
      </trkpt>
      <trkpt lat="44.95965" lon="0.85852">
        <ele>244.5</ele>
        <time>1970-01-01T02:29:02.000Z</time>
      </trkpt>
      <trkpt lat="44.95967" lon="0.85849">
        <ele>245</ele>
        <time>1970-01-01T02:29:03.000Z</time>
      </trkpt>
      <trkpt lat="44.9597" lon="0.85847">
        <ele>245.2</ele>
        <time>1970-01-01T02:29:04.000Z</time>
      </trkpt>
      <trkpt lat="44.95973" lon="0.85846">
        <ele>245.4</ele>
        <time>1970-01-01T02:29:05.000Z</time>
      </trkpt>
      <trkpt lat="44.95977" lon="0.85845">
        <ele>245.5</ele>
        <time>1970-01-01T02:29:06.000Z</time>
      </trkpt>
      <trkpt lat="44.9598" lon="0.85846">
        <ele>245.7</ele>
        <time>1970-01-01T02:29:07.000Z</time>
      </trkpt>
      <trkpt lat="44.95983" lon="0.85846">
        <ele>245.9</ele>
        <time>1970-01-01T02:29:08.000Z</time>
      </trkpt>
      <trkpt lat="44.95987" lon="0.85846">
        <ele>246</ele>
        <time>1970-01-01T02:29:09.000Z</time>
      </trkpt>
      <trkpt lat="44.9599" lon="0.85847">
        <ele>246.2</ele>
        <time>1970-01-01T02:29:10.000Z</time>
      </trkpt>
      <trkpt lat="44.95994" lon="0.85847">
        <ele>246.4</ele>
        <time>1970-01-01T02:29:11.000Z</time>
      </trkpt>
      <trkpt lat="44.95997" lon="0.85847">
        <ele>246.7</ele>
        <time>1970-01-01T02:29:12.000Z</time>
      </trkpt>
      <trkpt lat="44.96" lon="0.85848">
        <ele>246.9</ele>
        <time>1970-01-01T02:29:13.000Z</time>
      </trkpt>
      <trkpt lat="44.96004" lon="0.85848">
        <ele>247.2</ele>
        <time>1970-01-01T02:29:14.000Z</time>
      </trkpt>
      <trkpt lat="44.96007" lon="0.85848">
        <ele>247.4</ele>
        <time>1970-01-01T02:29:15.000Z</time>
      </trkpt>
      <trkpt lat="44.9601" lon="0.85848">
        <ele>247.7</ele>
        <time>1970-01-01T02:29:16.000Z</time>
      </trkpt>
      <trkpt lat="44.96013" lon="0.85848">
        <ele>248</ele>
        <time>1970-01-01T02:29:17.000Z</time>
      </trkpt>
      <trkpt lat="44.96017" lon="0.85847">
        <ele>248.3</ele>
        <time>1970-01-01T02:29:18.000Z</time>
      </trkpt>
      <trkpt lat="44.9602" lon="0.85847">
        <ele>248.6</ele>
        <time>1970-01-01T02:29:19.000Z</time>
      </trkpt>
      <trkpt lat="44.96023" lon="0.85848">
        <ele>248.9</ele>
        <time>1970-01-01T02:29:20.000Z</time>
      </trkpt>
      <trkpt lat="44.96025" lon="0.85848">
        <ele>249.2</ele>
        <time>1970-01-01T02:29:21.000Z</time>
      </trkpt>
      <trkpt lat="44.96028" lon="0.85849">
        <ele>249.5</ele>
        <time>1970-01-01T02:29:22.000Z</time>
      </trkpt>
      <trkpt lat="44.9603" lon="0.8585">
        <ele>249.7</ele>
        <time>1970-01-01T02:29:23.000Z</time>
      </trkpt>
      <trkpt lat="44.96032" lon="0.85852">
        <ele>249.8</ele>
        <time>1970-01-01T02:29:24.000Z</time>
      </trkpt>
      <trkpt lat="44.96034" lon="0.85855">
        <ele>249.8</ele>
        <time>1970-01-01T02:29:25.000Z</time>
      </trkpt>
      <trkpt lat="44.96036" lon="0.85858">
        <ele>249.9</ele>
        <time>1970-01-01T02:29:26.000Z</time>
      </trkpt>
      <trkpt lat="44.96038" lon="0.8586">
        <ele>250</ele>
        <time>1970-01-01T02:29:27.000Z</time>
      </trkpt>
      <trkpt lat="44.9604" lon="0.85863">
        <ele>250.1</ele>
        <time>1970-01-01T02:29:28.000Z</time>
      </trkpt>
      <trkpt lat="44.96043" lon="0.85866">
        <ele>250.2</ele>
        <time>1970-01-01T02:29:29.000Z</time>
      </trkpt>
      <trkpt lat="44.96045" lon="0.85869">
        <ele>250.2</ele>
        <time>1970-01-01T02:29:30.000Z</time>
      </trkpt>
      <trkpt lat="44.96047" lon="0.85871">
        <ele>250.3</ele>
        <time>1970-01-01T02:29:31.000Z</time>
      </trkpt>
      <trkpt lat="44.9605" lon="0.85873">
        <ele>250.3</ele>
        <time>1970-01-01T02:29:32.000Z</time>
      </trkpt>
      <trkpt lat="44.96052" lon="0.85874">
        <ele>250.4</ele>
        <time>1970-01-01T02:29:33.000Z</time>
      </trkpt>
      <trkpt lat="44.96055" lon="0.85874">
        <ele>250.4</ele>
        <time>1970-01-01T02:29:34.000Z</time>
      </trkpt>
      <trkpt lat="44.96058" lon="0.85872">
        <ele>250.5</ele>
        <time>1970-01-01T02:29:35.000Z</time>
      </trkpt>
      <trkpt lat="44.9606" lon="0.85869">
        <ele>250.5</ele>
        <time>1970-01-01T02:29:36.000Z</time>
      </trkpt>
      <trkpt lat="44.96062" lon="0.85864">
        <ele>250.5</ele>
        <time>1970-01-01T02:29:37.000Z</time>
      </trkpt>
      <trkpt lat="44.96063" lon="0.85858">
        <ele>250.4</ele>
        <time>1970-01-01T02:29:38.000Z</time>
      </trkpt>
      <trkpt lat="44.96064" lon="0.85852">
        <ele>250.4</ele>
        <time>1970-01-01T02:29:39.000Z</time>
      </trkpt>
      <trkpt lat="44.96064" lon="0.85845">
        <ele>250.4</ele>
        <time>1970-01-01T02:29:40.000Z</time>
      </trkpt>
      <trkpt lat="44.96064" lon="0.85839">
        <ele>250.3</ele>
        <time>1970-01-01T02:29:41.000Z</time>
      </trkpt>
      <trkpt lat="44.96064" lon="0.85832">
        <ele>250.2</ele>
        <time>1970-01-01T02:29:42.000Z</time>
      </trkpt>
      <trkpt lat="44.96064" lon="0.85826">
        <ele>250.1</ele>
        <time>1970-01-01T02:29:43.000Z</time>
      </trkpt>
      <trkpt lat="44.96065" lon="0.8582">
        <ele>249.9</ele>
        <time>1970-01-01T02:29:44.000Z</time>
      </trkpt>
      <trkpt lat="44.96065" lon="0.85814">
        <ele>249.7</ele>
        <time>1970-01-01T02:29:45.000Z</time>
      </trkpt>
      <trkpt lat="44.96065" lon="0.85808">
        <ele>249.5</ele>
        <time>1970-01-01T02:29:46.000Z</time>
      </trkpt>
      <trkpt lat="44.96064" lon="0.85802">
        <ele>249.3</ele>
        <time>1970-01-01T02:29:47.000Z</time>
      </trkpt>
      <trkpt lat="44.96063" lon="0.85795">
        <ele>249.1</ele>
        <time>1970-01-01T02:29:48.000Z</time>
      </trkpt>
      <trkpt lat="44.96062" lon="0.85788">
        <ele>248.8</ele>
        <time>1970-01-01T02:29:49.000Z</time>
      </trkpt>
      <trkpt lat="44.96061" lon="0.8578">
        <ele>248.5</ele>
        <time>1970-01-01T02:29:50.000Z</time>
      </trkpt>
      <trkpt lat="44.9606" lon="0.85771">
        <ele>248.2</ele>
        <time>1970-01-01T02:29:51.000Z</time>
      </trkpt>
      <trkpt lat="44.96058" lon="0.85763">
        <ele>247.9</ele>
        <time>1970-01-01T02:29:52.000Z</time>
      </trkpt>
      <trkpt lat="44.96057" lon="0.85754">
        <ele>247.6</ele>
        <time>1970-01-01T02:29:53.000Z</time>
      </trkpt>
      <trkpt lat="44.96056" lon="0.85746">
        <ele>247.4</ele>
        <time>1970-01-01T02:29:54.000Z</time>
      </trkpt>
      <trkpt lat="44.96055" lon="0.85737">
        <ele>247.1</ele>
        <time>1970-01-01T02:29:55.000Z</time>
      </trkpt>
      <trkpt lat="44.96055" lon="0.85728">
        <ele>246.9</ele>
        <time>1970-01-01T02:29:56.000Z</time>
      </trkpt>
      <trkpt lat="44.96056" lon="0.8572">
        <ele>246.7</ele>
        <time>1970-01-01T02:29:57.000Z</time>
      </trkpt>
      <trkpt lat="44.96057" lon="0.85712">
        <ele>246.5</ele>
        <time>1970-01-01T02:29:58.000Z</time>
      </trkpt>
      <trkpt lat="44.96057" lon="0.85704">
        <ele>246.3</ele>
        <time>1970-01-01T02:29:59.000Z</time>
      </trkpt>
      <trkpt lat="44.96058" lon="0.85696">
        <ele>246.1</ele>
        <time>1970-01-01T02:30:00.000Z</time>
      </trkpt>
      <trkpt lat="44.96059" lon="0.85688">
        <ele>245.9</ele>
        <time>1970-01-01T02:30:01.000Z</time>
      </trkpt>
      <trkpt lat="44.96061" lon="0.8568">
        <ele>245.6</ele>
        <time>1970-01-01T02:30:02.000Z</time>
      </trkpt>
      <trkpt lat="44.96063" lon="0.85672">
        <ele>245.4</ele>
        <time>1970-01-01T02:30:03.000Z</time>
      </trkpt>
      <trkpt lat="44.96065" lon="0.85664">
        <ele>245.3</ele>
        <time>1970-01-01T02:30:04.000Z</time>
      </trkpt>
      <trkpt lat="44.96067" lon="0.85655">
        <ele>245.1</ele>
        <time>1970-01-01T02:30:05.000Z</time>
      </trkpt>
      <trkpt lat="44.96069" lon="0.85647">
        <ele>244.9</ele>
        <time>1970-01-01T02:30:06.000Z</time>
      </trkpt>
      <trkpt lat="44.96071" lon="0.8564">
        <ele>244.8</ele>
        <time>1970-01-01T02:30:07.000Z</time>
      </trkpt>
      <trkpt lat="44.96073" lon="0.85632">
        <ele>244.6</ele>
        <time>1970-01-01T02:30:08.000Z</time>
      </trkpt>
      <trkpt lat="44.96074" lon="0.85625">
        <ele>244.5</ele>
        <time>1970-01-01T02:30:09.000Z</time>
      </trkpt>
      <trkpt lat="44.96076" lon="0.85617">
        <ele>244.5</ele>
        <time>1970-01-01T02:30:10.000Z</time>
      </trkpt>
      <trkpt lat="44.96077" lon="0.8561">
        <ele>244.4</ele>
        <time>1970-01-01T02:30:11.000Z</time>
      </trkpt>
      <trkpt lat="44.96079" lon="0.85603">
        <ele>244.4</ele>
        <time>1970-01-01T02:30:12.000Z</time>
      </trkpt>
      <trkpt lat="44.96081" lon="0.85596">
        <ele>244.5</ele>
        <time>1970-01-01T02:30:13.000Z</time>
      </trkpt>
      <trkpt lat="44.96083" lon="0.8559">
        <ele>244.5</ele>
        <time>1970-01-01T02:30:14.000Z</time>
      </trkpt>
      <trkpt lat="44.96085" lon="0.85585">
        <ele>244.6</ele>
        <time>1970-01-01T02:30:15.000Z</time>
      </trkpt>
      <trkpt lat="44.96088" lon="0.85579">
        <ele>244.7</ele>
        <time>1970-01-01T02:30:16.000Z</time>
      </trkpt>
      <trkpt lat="44.9609" lon="0.85574">
        <ele>244.8</ele>
        <time>1970-01-01T02:30:17.000Z</time>
      </trkpt>
      <trkpt lat="44.96092" lon="0.85568">
        <ele>245</ele>
        <time>1970-01-01T02:30:18.000Z</time>
      </trkpt>
      <trkpt lat="44.96094" lon="0.85562">
        <ele>245.1</ele>
        <time>1970-01-01T02:30:19.000Z</time>
      </trkpt>
      <trkpt lat="44.96095" lon="0.85556">
        <ele>245.3</ele>
        <time>1970-01-01T02:30:20.000Z</time>
      </trkpt>
      <trkpt lat="44.96097" lon="0.85549">
        <ele>245.6</ele>
        <time>1970-01-01T02:30:21.000Z</time>
      </trkpt>
      <trkpt lat="44.96099" lon="0.85543">
        <ele>245.8</ele>
        <time>1970-01-01T02:30:22.000Z</time>
      </trkpt>
      <trkpt lat="44.961" lon="0.85537">
        <ele>246.1</ele>
        <time>1970-01-01T02:30:23.000Z</time>
      </trkpt>
      <trkpt lat="44.96102" lon="0.85532">
        <ele>246.5</ele>
        <time>1970-01-01T02:30:24.000Z</time>
      </trkpt>
      <trkpt lat="44.96103" lon="0.85526">
        <ele>246.8</ele>
        <time>1970-01-01T02:30:25.000Z</time>
      </trkpt>
      <trkpt lat="44.96105" lon="0.85521">
        <ele>247.1</ele>
        <time>1970-01-01T02:30:26.000Z</time>
      </trkpt>
      <trkpt lat="44.96106" lon="0.85516">
        <ele>247.4</ele>
        <time>1970-01-01T02:30:27.000Z</time>
      </trkpt>
      <trkpt lat="44.96107" lon="0.85512">
        <ele>247.6</ele>
        <time>1970-01-01T02:30:28.000Z</time>
      </trkpt>
      <trkpt lat="44.96109" lon="0.85507">
        <ele>247.9</ele>
        <time>1970-01-01T02:30:29.000Z</time>
      </trkpt>
      <trkpt lat="44.9611" lon="0.85502">
        <ele>248.2</ele>
        <time>1970-01-01T02:30:30.000Z</time>
      </trkpt>
      <trkpt lat="44.96111" lon="0.85496">
        <ele>248.4</ele>
        <time>1970-01-01T02:30:31.000Z</time>
      </trkpt>
      <trkpt lat="44.96112" lon="0.85491">
        <ele>248.7</ele>
        <time>1970-01-01T02:30:32.000Z</time>
      </trkpt>
      <trkpt lat="44.96113" lon="0.85486">
        <ele>248.9</ele>
        <time>1970-01-01T02:30:33.000Z</time>
      </trkpt>
      <trkpt lat="44.96114" lon="0.8548">
        <ele>249.1</ele>
        <time>1970-01-01T02:30:34.000Z</time>
      </trkpt>
      <trkpt lat="44.96114" lon="0.85475">
        <ele>249.3</ele>
        <time>1970-01-01T02:30:35.000Z</time>
      </trkpt>
      <trkpt lat="44.96115" lon="0.85469">
        <ele>249.5</ele>
        <time>1970-01-01T02:30:36.000Z</time>
      </trkpt>
      <trkpt lat="44.96116" lon="0.85464">
        <ele>249.7</ele>
        <time>1970-01-01T02:30:37.000Z</time>
      </trkpt>
      <trkpt lat="44.96117" lon="0.85459">
        <ele>249.9</ele>
        <time>1970-01-01T02:30:38.000Z</time>
      </trkpt>
      <trkpt lat="44.96118" lon="0.85454">
        <ele>250</ele>
        <time>1970-01-01T02:30:39.000Z</time>
      </trkpt>
      <trkpt lat="44.96119" lon="0.85449">
        <ele>250.1</ele>
        <time>1970-01-01T02:30:40.000Z</time>
      </trkpt>
      <trkpt lat="44.9612" lon="0.85444">
        <ele>250.2</ele>
        <time>1970-01-01T02:30:41.000Z</time>
      </trkpt>
      <trkpt lat="44.96122" lon="0.85439">
        <ele>250.2</ele>
        <time>1970-01-01T02:30:42.000Z</time>
      </trkpt>
      <trkpt lat="44.96124" lon="0.85433">
        <ele>250.2</ele>
        <time>1970-01-01T02:30:43.000Z</time>
      </trkpt>
      <trkpt lat="44.96125" lon="0.85427">
        <ele>250.2</ele>
        <time>1970-01-01T02:30:44.000Z</time>
      </trkpt>
      <trkpt lat="44.96127" lon="0.85421">
        <ele>250.1</ele>
        <time>1970-01-01T02:30:45.000Z</time>
      </trkpt>
      <trkpt lat="44.96129" lon="0.85414">
        <ele>250</ele>
        <time>1970-01-01T02:30:46.000Z</time>
      </trkpt>
      <trkpt lat="44.96131" lon="0.85408">
        <ele>249.8</ele>
        <time>1970-01-01T02:30:47.000Z</time>
      </trkpt>
      <trkpt lat="44.96132" lon="0.85401">
        <ele>249.6</ele>
        <time>1970-01-01T02:30:48.000Z</time>
      </trkpt>
      <trkpt lat="44.96134" lon="0.85394">
        <ele>249.4</ele>
        <time>1970-01-01T02:30:49.000Z</time>
      </trkpt>
      <trkpt lat="44.96136" lon="0.85388">
        <ele>249.2</ele>
        <time>1970-01-01T02:30:50.000Z</time>
      </trkpt>
      <trkpt lat="44.96138" lon="0.85381">
        <ele>248.9</ele>
        <time>1970-01-01T02:30:51.000Z</time>
      </trkpt>
      <trkpt lat="44.9614" lon="0.85374">
        <ele>248.6</ele>
        <time>1970-01-01T02:30:52.000Z</time>
      </trkpt>
      <trkpt lat="44.96142" lon="0.85366">
        <ele>248.2</ele>
        <time>1970-01-01T02:30:53.000Z</time>
      </trkpt>
      <trkpt lat="44.96144" lon="0.85359">
        <ele>247.8</ele>
        <time>1970-01-01T02:30:54.000Z</time>
      </trkpt>
      <trkpt lat="44.96146" lon="0.85352">
        <ele>247.4</ele>
        <time>1970-01-01T02:30:55.000Z</time>
      </trkpt>
      <trkpt lat="44.96149" lon="0.85344">
        <ele>246.8</ele>
        <time>1970-01-01T02:30:56.000Z</time>
      </trkpt>
      <trkpt lat="44.96151" lon="0.85335">
        <ele>246.3</ele>
        <time>1970-01-01T02:30:57.000Z</time>
      </trkpt>
      <trkpt lat="44.96155" lon="0.85326">
        <ele>245.6</ele>
        <time>1970-01-01T02:30:58.000Z</time>
      </trkpt>
      <trkpt lat="44.96159" lon="0.85317">
        <ele>245.1</ele>
        <time>1970-01-01T02:30:59.000Z</time>
      </trkpt>
      <trkpt lat="44.96163" lon="0.85309">
        <ele>244.6</ele>
        <time>1970-01-01T02:31:00.000Z</time>
      </trkpt>
      <trkpt lat="44.96167" lon="0.853">
        <ele>244.1</ele>
        <time>1970-01-01T02:31:01.000Z</time>
      </trkpt>
      <trkpt lat="44.96171" lon="0.85292">
        <ele>243.8</ele>
        <time>1970-01-01T02:31:02.000Z</time>
      </trkpt>
      <trkpt lat="44.96175" lon="0.85284">
        <ele>243.5</ele>
        <time>1970-01-01T02:31:03.000Z</time>
      </trkpt>
      <trkpt lat="44.96179" lon="0.85276">
        <ele>243.3</ele>
        <time>1970-01-01T02:31:04.000Z</time>
      </trkpt>
      <trkpt lat="44.96183" lon="0.85269">
        <ele>243.1</ele>
        <time>1970-01-01T02:31:05.000Z</time>
      </trkpt>
      <trkpt lat="44.96187" lon="0.85261">
        <ele>242.9</ele>
        <time>1970-01-01T02:31:06.000Z</time>
      </trkpt>
      <trkpt lat="44.9619" lon="0.85253">
        <ele>242.7</ele>
        <time>1970-01-01T02:31:07.000Z</time>
      </trkpt>
      <trkpt lat="44.96194" lon="0.85245">
        <ele>242.5</ele>
        <time>1970-01-01T02:31:08.000Z</time>
      </trkpt>
      <trkpt lat="44.96197" lon="0.85238">
        <ele>242.3</ele>
        <time>1970-01-01T02:31:09.000Z</time>
      </trkpt>
      <trkpt lat="44.96201" lon="0.8523">
        <ele>242.1</ele>
        <time>1970-01-01T02:31:10.000Z</time>
      </trkpt>
      <trkpt lat="44.96205" lon="0.85223">
        <ele>241.9</ele>
        <time>1970-01-01T02:31:11.000Z</time>
      </trkpt>
      <trkpt lat="44.96209" lon="0.85216">
        <ele>241.7</ele>
        <time>1970-01-01T02:31:12.000Z</time>
      </trkpt>
      <trkpt lat="44.96214" lon="0.85209">
        <ele>241.6</ele>
        <time>1970-01-01T02:31:13.000Z</time>
      </trkpt>
      <trkpt lat="44.96218" lon="0.85202">
        <ele>241.5</ele>
        <time>1970-01-01T02:31:14.000Z</time>
      </trkpt>
      <trkpt lat="44.96222" lon="0.85196">
        <ele>241.4</ele>
        <time>1970-01-01T02:31:15.000Z</time>
      </trkpt>
      <trkpt lat="44.96226" lon="0.85189">
        <ele>241.3</ele>
        <time>1970-01-01T02:31:16.000Z</time>
      </trkpt>
      <trkpt lat="44.9623" lon="0.85182">
        <ele>241.2</ele>
        <time>1970-01-01T02:31:17.000Z</time>
      </trkpt>
      <trkpt lat="44.96234" lon="0.85175">
        <ele>241.1</ele>
        <time>1970-01-01T02:31:18.000Z</time>
      </trkpt>
      <trkpt lat="44.96238" lon="0.85169">
        <ele>241.1</ele>
        <time>1970-01-01T02:31:19.000Z</time>
      </trkpt>
      <trkpt lat="44.96242" lon="0.85162">
        <ele>241</ele>
        <time>1970-01-01T02:31:20.000Z</time>
      </trkpt>
      <trkpt lat="44.96245" lon="0.85156">
        <ele>241</ele>
        <time>1970-01-01T02:31:21.000Z</time>
      </trkpt>
      <trkpt lat="44.96249" lon="0.85149">
        <ele>241</ele>
        <time>1970-01-01T02:31:22.000Z</time>
      </trkpt>
      <trkpt lat="44.96253" lon="0.85143">
        <ele>240.9</ele>
        <time>1970-01-01T02:31:23.000Z</time>
      </trkpt>
      <trkpt lat="44.96257" lon="0.85136">
        <ele>240.8</ele>
        <time>1970-01-01T02:31:24.000Z</time>
      </trkpt>
      <trkpt lat="44.9626" lon="0.8513">
        <ele>240.7</ele>
        <time>1970-01-01T02:31:25.000Z</time>
      </trkpt>
      <trkpt lat="44.96263" lon="0.85123">
        <ele>240.6</ele>
        <time>1970-01-01T02:31:26.000Z</time>
      </trkpt>
      <trkpt lat="44.96266" lon="0.85116">
        <ele>240.5</ele>
        <time>1970-01-01T02:31:27.000Z</time>
      </trkpt>
      <trkpt lat="44.9627" lon="0.85109">
        <ele>240.4</ele>
        <time>1970-01-01T02:31:28.000Z</time>
      </trkpt>
      <trkpt lat="44.96273" lon="0.85103">
        <ele>240.2</ele>
        <time>1970-01-01T02:31:29.000Z</time>
      </trkpt>
      <trkpt lat="44.96275" lon="0.85096">
        <ele>240</ele>
        <time>1970-01-01T02:31:30.000Z</time>
      </trkpt>
      <trkpt lat="44.96278" lon="0.85089">
        <ele>239.8</ele>
        <time>1970-01-01T02:31:31.000Z</time>
      </trkpt>
      <trkpt lat="44.96282" lon="0.85082">
        <ele>239.6</ele>
        <time>1970-01-01T02:31:32.000Z</time>
      </trkpt>
      <trkpt lat="44.96285" lon="0.85075">
        <ele>239.4</ele>
        <time>1970-01-01T02:31:33.000Z</time>
      </trkpt>
      <trkpt lat="44.96288" lon="0.85067">
        <ele>239.1</ele>
        <time>1970-01-01T02:31:34.000Z</time>
      </trkpt>
      <trkpt lat="44.96292" lon="0.85059">
        <ele>238.9</ele>
        <time>1970-01-01T02:31:35.000Z</time>
      </trkpt>
      <trkpt lat="44.96295" lon="0.85051">
        <ele>238.7</ele>
        <time>1970-01-01T02:31:36.000Z</time>
      </trkpt>
      <trkpt lat="44.96298" lon="0.85043">
        <ele>238.5</ele>
        <time>1970-01-01T02:31:37.000Z</time>
      </trkpt>
      <trkpt lat="44.96301" lon="0.85035">
        <ele>238.3</ele>
        <time>1970-01-01T02:31:38.000Z</time>
      </trkpt>
      <trkpt lat="44.96304" lon="0.85027">
        <ele>238.2</ele>
        <time>1970-01-01T02:31:39.000Z</time>
      </trkpt>
      <trkpt lat="44.96307" lon="0.85019">
        <ele>238.1</ele>
        <time>1970-01-01T02:31:40.000Z</time>
      </trkpt>
      <trkpt lat="44.9631" lon="0.85011">
        <ele>238</ele>
        <time>1970-01-01T02:31:41.000Z</time>
      </trkpt>
      <trkpt lat="44.96312" lon="0.85003">
        <ele>237.9</ele>
        <time>1970-01-01T02:31:42.000Z</time>
      </trkpt>
      <trkpt lat="44.96314" lon="0.84995">
        <ele>237.7</ele>
        <time>1970-01-01T02:31:43.000Z</time>
      </trkpt>
      <trkpt lat="44.96315" lon="0.84986">
        <ele>237.7</ele>
        <time>1970-01-01T02:31:44.000Z</time>
      </trkpt>
      <trkpt lat="44.96316" lon="0.84978">
        <ele>237.6</ele>
        <time>1970-01-01T02:31:45.000Z</time>
      </trkpt>
      <trkpt lat="44.96319" lon="0.84971">
        <ele>237.6</ele>
        <time>1970-01-01T02:31:46.000Z</time>
      </trkpt>
      <trkpt lat="44.96322" lon="0.84964">
        <ele>237.6</ele>
        <time>1970-01-01T02:31:47.000Z</time>
      </trkpt>
      <trkpt lat="44.96325" lon="0.84957">
        <ele>237.6</ele>
        <time>1970-01-01T02:31:48.000Z</time>
      </trkpt>
      <trkpt lat="44.96328" lon="0.84951">
        <ele>237.7</ele>
        <time>1970-01-01T02:31:49.000Z</time>
      </trkpt>
      <trkpt lat="44.96332" lon="0.84946">
        <ele>237.7</ele>
        <time>1970-01-01T02:31:50.000Z</time>
      </trkpt>
      <trkpt lat="44.96335" lon="0.84941">
        <ele>237.8</ele>
        <time>1970-01-01T02:31:51.000Z</time>
      </trkpt>
      <trkpt lat="44.96339" lon="0.84935">
        <ele>237.8</ele>
        <time>1970-01-01T02:31:52.000Z</time>
      </trkpt>
      <trkpt lat="44.96343" lon="0.84931">
        <ele>237.9</ele>
        <time>1970-01-01T02:31:53.000Z</time>
      </trkpt>
      <trkpt lat="44.96347" lon="0.84927">
        <ele>238</ele>
        <time>1970-01-01T02:31:54.000Z</time>
      </trkpt>
      <trkpt lat="44.96351" lon="0.84923">
        <ele>238</ele>
        <time>1970-01-01T02:31:55.000Z</time>
      </trkpt>
      <trkpt lat="44.96356" lon="0.84918">
        <ele>238.1</ele>
        <time>1970-01-01T02:31:56.000Z</time>
      </trkpt>
      <trkpt lat="44.9636" lon="0.84914">
        <ele>238.1</ele>
        <time>1970-01-01T02:31:57.000Z</time>
      </trkpt>
      <trkpt lat="44.96364" lon="0.84909">
        <ele>238.1</ele>
        <time>1970-01-01T02:31:58.000Z</time>
      </trkpt>
      <trkpt lat="44.96367" lon="0.84903">
        <ele>238.2</ele>
        <time>1970-01-01T02:31:59.000Z</time>
      </trkpt>
      <trkpt lat="44.9637" lon="0.84898">
        <ele>238.2</ele>
        <time>1970-01-01T02:32:00.000Z</time>
      </trkpt>
      <trkpt lat="44.96373" lon="0.84893">
        <ele>238.3</ele>
        <time>1970-01-01T02:32:01.000Z</time>
      </trkpt>
      <trkpt lat="44.96376" lon="0.84888">
        <ele>238.4</ele>
        <time>1970-01-01T02:32:02.000Z</time>
      </trkpt>
      <trkpt lat="44.96379" lon="0.84883">
        <ele>238.6</ele>
        <time>1970-01-01T02:32:03.000Z</time>
      </trkpt>
      <trkpt lat="44.96382" lon="0.84877">
        <ele>238.7</ele>
        <time>1970-01-01T02:32:04.000Z</time>
      </trkpt>
      <trkpt lat="44.96385" lon="0.84872">
        <ele>238.9</ele>
        <time>1970-01-01T02:32:05.000Z</time>
      </trkpt>
      <trkpt lat="44.96388" lon="0.84867">
        <ele>239.1</ele>
        <time>1970-01-01T02:32:06.000Z</time>
      </trkpt>
      <trkpt lat="44.9639" lon="0.84861">
        <ele>239.2</ele>
        <time>1970-01-01T02:32:07.000Z</time>
      </trkpt>
      <trkpt lat="44.96393" lon="0.84856">
        <ele>239.4</ele>
        <time>1970-01-01T02:32:08.000Z</time>
      </trkpt>
      <trkpt lat="44.96396" lon="0.8485">
        <ele>239.6</ele>
        <time>1970-01-01T02:32:09.000Z</time>
      </trkpt>
      <trkpt lat="44.96399" lon="0.84845">
        <ele>239.8</ele>
        <time>1970-01-01T02:32:10.000Z</time>
      </trkpt>
      <trkpt lat="44.96402" lon="0.8484">
        <ele>240</ele>
        <time>1970-01-01T02:32:11.000Z</time>
      </trkpt>
      <trkpt lat="44.96405" lon="0.84835">
        <ele>240.2</ele>
        <time>1970-01-01T02:32:12.000Z</time>
      </trkpt>
      <trkpt lat="44.96408" lon="0.84829">
        <ele>240.4</ele>
        <time>1970-01-01T02:32:13.000Z</time>
      </trkpt>
      <trkpt lat="44.9641" lon="0.84823">
        <ele>240.7</ele>
        <time>1970-01-01T02:32:14.000Z</time>
      </trkpt>
      <trkpt lat="44.96412" lon="0.84817">
        <ele>240.9</ele>
        <time>1970-01-01T02:32:15.000Z</time>
      </trkpt>
      <trkpt lat="44.96414" lon="0.84812">
        <ele>241</ele>
        <time>1970-01-01T02:32:16.000Z</time>
      </trkpt>
      <trkpt lat="44.96416" lon="0.84807">
        <ele>241.2</ele>
        <time>1970-01-01T02:32:17.000Z</time>
      </trkpt>
      <trkpt lat="44.96418" lon="0.84802">
        <ele>241.3</ele>
        <time>1970-01-01T02:32:18.000Z</time>
      </trkpt>
      <trkpt lat="44.96421" lon="0.84798">
        <ele>241.4</ele>
        <time>1970-01-01T02:32:19.000Z</time>
      </trkpt>
      <trkpt lat="44.96424" lon="0.84793">
        <ele>241.5</ele>
        <time>1970-01-01T02:32:20.000Z</time>
      </trkpt>
      <trkpt lat="44.96428" lon="0.84789">
        <ele>241.6</ele>
        <time>1970-01-01T02:32:21.000Z</time>
      </trkpt>
      <trkpt lat="44.96431" lon="0.84785">
        <ele>241.7</ele>
        <time>1970-01-01T02:32:22.000Z</time>
      </trkpt>
      <trkpt lat="44.96435" lon="0.84781">
        <ele>241.8</ele>
        <time>1970-01-01T02:32:23.000Z</time>
      </trkpt>
      <trkpt lat="44.96438" lon="0.84777">
        <ele>241.9</ele>
        <time>1970-01-01T02:32:24.000Z</time>
      </trkpt>
      <trkpt lat="44.96442" lon="0.84774">
        <ele>242.1</ele>
        <time>1970-01-01T02:32:25.000Z</time>
      </trkpt>
      <trkpt lat="44.96445" lon="0.8477">
        <ele>242.3</ele>
        <time>1970-01-01T02:32:26.000Z</time>
      </trkpt>
      <trkpt lat="44.96447" lon="0.84765">
        <ele>242.5</ele>
        <time>1970-01-01T02:32:27.000Z</time>
      </trkpt>
      <trkpt lat="44.96447" lon="0.8476">
        <ele>243.3</ele>
        <time>1970-01-01T02:32:28.000Z</time>
      </trkpt>
      <trkpt lat="44.96447" lon="0.84755">
        <ele>243.5</ele>
        <time>1970-01-01T02:32:29.000Z</time>
      </trkpt>
      <trkpt lat="44.96446" lon="0.84751">
        <ele>243.7</ele>
        <time>1970-01-01T02:32:30.000Z</time>
      </trkpt>
      <trkpt lat="44.96444" lon="0.84747">
        <ele>243.8</ele>
        <time>1970-01-01T02:32:31.000Z</time>
      </trkpt>
      <trkpt lat="44.96443" lon="0.84744">
        <ele>244</ele>
        <time>1970-01-01T02:32:32.000Z</time>
      </trkpt>
      <trkpt lat="44.96442" lon="0.8474">
        <ele>244.2</ele>
        <time>1970-01-01T02:32:33.000Z</time>
      </trkpt>
      <trkpt lat="44.96441" lon="0.84736">
        <ele>244.3</ele>
        <time>1970-01-01T02:32:34.000Z</time>
      </trkpt>
      <trkpt lat="44.9644" lon="0.84732">
        <ele>244.5</ele>
        <time>1970-01-01T02:32:35.000Z</time>
      </trkpt>
      <trkpt lat="44.96439" lon="0.84728">
        <ele>244.6</ele>
        <time>1970-01-01T02:32:36.000Z</time>
      </trkpt>
      <trkpt lat="44.96438" lon="0.84725">
        <ele>244.8</ele>
        <time>1970-01-01T02:32:37.000Z</time>
      </trkpt>
      <trkpt lat="44.96436" lon="0.84721">
        <ele>244.9</ele>
        <time>1970-01-01T02:32:38.000Z</time>
      </trkpt>
      <trkpt lat="44.96435" lon="0.84717">
        <ele>245.1</ele>
        <time>1970-01-01T02:32:39.000Z</time>
      </trkpt>
      <trkpt lat="44.96434" lon="0.84712">
        <ele>245.3</ele>
        <time>1970-01-01T02:32:40.000Z</time>
      </trkpt>
      <trkpt lat="44.96433" lon="0.84708">
        <ele>245.4</ele>
        <time>1970-01-01T02:32:41.000Z</time>
      </trkpt>
      <trkpt lat="44.96432" lon="0.84704">
        <ele>245.5</ele>
        <time>1970-01-01T02:32:42.000Z</time>
      </trkpt>
      <trkpt lat="44.96431" lon="0.84699">
        <ele>245.6</ele>
        <time>1970-01-01T02:32:43.000Z</time>
      </trkpt>
      <trkpt lat="44.96431" lon="0.84695">
        <ele>245.8</ele>
        <time>1970-01-01T02:32:44.000Z</time>
      </trkpt>
      <trkpt lat="44.9643" lon="0.8469">
        <ele>245.9</ele>
        <time>1970-01-01T02:32:45.000Z</time>
      </trkpt>
      <trkpt lat="44.96429" lon="0.84685">
        <ele>246</ele>
        <time>1970-01-01T02:32:46.000Z</time>
      </trkpt>
      <trkpt lat="44.96429" lon="0.8468">
        <ele>246.1</ele>
        <time>1970-01-01T02:32:47.000Z</time>
      </trkpt>
      <trkpt lat="44.96428" lon="0.84675">
        <ele>246.2</ele>
        <time>1970-01-01T02:32:48.000Z</time>
      </trkpt>
      <trkpt lat="44.96426" lon="0.8467">
        <ele>246.3</ele>
        <time>1970-01-01T02:32:49.000Z</time>
      </trkpt>
      <trkpt lat="44.96425" lon="0.84664">
        <ele>246.4</ele>
        <time>1970-01-01T02:32:50.000Z</time>
      </trkpt>
      <trkpt lat="44.96424" lon="0.84659">
        <ele>246.5</ele>
        <time>1970-01-01T02:32:51.000Z</time>
      </trkpt>
      <trkpt lat="44.96422" lon="0.84653">
        <ele>246.6</ele>
        <time>1970-01-01T02:32:52.000Z</time>
      </trkpt>
      <trkpt lat="44.96421" lon="0.84647">
        <ele>246.7</ele>
        <time>1970-01-01T02:32:53.000Z</time>
      </trkpt>
      <trkpt lat="44.9642" lon="0.84641">
        <ele>246.8</ele>
        <time>1970-01-01T02:32:54.000Z</time>
      </trkpt>
      <trkpt lat="44.96419" lon="0.84636">
        <ele>246.9</ele>
        <time>1970-01-01T02:32:55.000Z</time>
      </trkpt>
      <trkpt lat="44.96418" lon="0.8463">
        <ele>247</ele>
        <time>1970-01-01T02:32:56.000Z</time>
      </trkpt>
      <trkpt lat="44.96418" lon="0.84624">
        <ele>247.1</ele>
        <time>1970-01-01T02:32:57.000Z</time>
      </trkpt>
      <trkpt lat="44.96417" lon="0.84618">
        <ele>247.2</ele>
        <time>1970-01-01T02:32:58.000Z</time>
      </trkpt>
      <trkpt lat="44.96417" lon="0.84613">
        <ele>247.3</ele>
        <time>1970-01-01T02:32:59.000Z</time>
      </trkpt>
      <trkpt lat="44.96416" lon="0.84607">
        <ele>247.3</ele>
        <time>1970-01-01T02:33:00.000Z</time>
      </trkpt>
      <trkpt lat="44.96414" lon="0.84602">
        <ele>247.4</ele>
        <time>1970-01-01T02:33:01.000Z</time>
      </trkpt>
      <trkpt lat="44.96412" lon="0.84597">
        <ele>247.5</ele>
        <time>1970-01-01T02:33:02.000Z</time>
      </trkpt>
      <trkpt lat="44.9641" lon="0.84592">
        <ele>247.5</ele>
        <time>1970-01-01T02:33:03.000Z</time>
      </trkpt>
      <trkpt lat="44.96409" lon="0.84586">
        <ele>247.6</ele>
        <time>1970-01-01T02:33:04.000Z</time>
      </trkpt>
      <trkpt lat="44.96407" lon="0.84581">
        <ele>247.7</ele>
        <time>1970-01-01T02:33:05.000Z</time>
      </trkpt>
      <trkpt lat="44.96405" lon="0.84575">
        <ele>247.7</ele>
        <time>1970-01-01T02:33:06.000Z</time>
      </trkpt>
      <trkpt lat="44.96404" lon="0.8457">
        <ele>247.8</ele>
        <time>1970-01-01T02:33:07.000Z</time>
      </trkpt>
      <trkpt lat="44.96402" lon="0.84564">
        <ele>247.9</ele>
        <time>1970-01-01T02:33:08.000Z</time>
      </trkpt>
      <trkpt lat="44.964" lon="0.84559">
        <ele>248</ele>
        <time>1970-01-01T02:33:09.000Z</time>
      </trkpt>
      <trkpt lat="44.96399" lon="0.84553">
        <ele>248.1</ele>
        <time>1970-01-01T02:33:10.000Z</time>
      </trkpt>
      <trkpt lat="44.96397" lon="0.84547">
        <ele>248.1</ele>
        <time>1970-01-01T02:33:11.000Z</time>
      </trkpt>
      <trkpt lat="44.96396" lon="0.84542">
        <ele>248.2</ele>
        <time>1970-01-01T02:33:12.000Z</time>
      </trkpt>
      <trkpt lat="44.96394" lon="0.84537">
        <ele>248.3</ele>
        <time>1970-01-01T02:33:13.000Z</time>
      </trkpt>
      <trkpt lat="44.96392" lon="0.84532">
        <ele>248.3</ele>
        <time>1970-01-01T02:33:14.000Z</time>
      </trkpt>
      <trkpt lat="44.96389" lon="0.84528">
        <ele>248.4</ele>
        <time>1970-01-01T02:33:15.000Z</time>
      </trkpt>
      <trkpt lat="44.96387" lon="0.84523">
        <ele>248.4</ele>
        <time>1970-01-01T02:33:16.000Z</time>
      </trkpt>
      <trkpt lat="44.96384" lon="0.84519">
        <ele>248.5</ele>
        <time>1970-01-01T02:33:17.000Z</time>
      </trkpt>
      <trkpt lat="44.96381" lon="0.84515">
        <ele>248.5</ele>
        <time>1970-01-01T02:33:18.000Z</time>
      </trkpt>
      <trkpt lat="44.96378" lon="0.8451">
        <ele>248.5</ele>
        <time>1970-01-01T02:33:19.000Z</time>
      </trkpt>
      <trkpt lat="44.96375" lon="0.84506">
        <ele>248.6</ele>
        <time>1970-01-01T02:33:20.000Z</time>
      </trkpt>
      <trkpt lat="44.96373" lon="0.84503">
        <ele>248.6</ele>
        <time>1970-01-01T02:33:21.000Z</time>
      </trkpt>
      <trkpt lat="44.9637" lon="0.84499">
        <ele>248.6</ele>
        <time>1970-01-01T02:33:22.000Z</time>
      </trkpt>
      <trkpt lat="44.96368" lon="0.84497">
        <ele>248.6</ele>
        <time>1970-01-01T02:33:23.000Z</time>
      </trkpt>
      <trkpt lat="44.96366" lon="0.84494">
        <ele>248.6</ele>
        <time>1970-01-01T02:33:24.000Z</time>
      </trkpt>
      <trkpt lat="44.96364" lon="0.84491">
        <ele>248.6</ele>
        <time>1970-01-01T02:33:25.000Z</time>
      </trkpt>
      <trkpt lat="44.96362" lon="0.84488">
        <ele>248.6</ele>
        <time>1970-01-01T02:33:26.000Z</time>
      </trkpt>
      <trkpt lat="44.9636" lon="0.84485">
        <ele>248.6</ele>
        <time>1970-01-01T02:33:27.000Z</time>
      </trkpt>
      <trkpt lat="44.96358" lon="0.84482">
        <ele>248.6</ele>
        <time>1970-01-01T02:33:28.000Z</time>
      </trkpt>
      <trkpt lat="44.96356" lon="0.84478">
        <ele>248.6</ele>
        <time>1970-01-01T02:33:29.000Z</time>
      </trkpt>
      <trkpt lat="44.96354" lon="0.84474">
        <ele>248.6</ele>
        <time>1970-01-01T02:33:30.000Z</time>
      </trkpt>
      <trkpt lat="44.96351" lon="0.8447">
        <ele>248.7</ele>
        <time>1970-01-01T02:33:31.000Z</time>
      </trkpt>
      <trkpt lat="44.96347" lon="0.84464">
        <ele>248.7</ele>
        <time>1970-01-01T02:33:32.000Z</time>
      </trkpt>
      <trkpt lat="44.96344" lon="0.84459">
        <ele>248.7</ele>
        <time>1970-01-01T02:33:33.000Z</time>
      </trkpt>
      <trkpt lat="44.96341" lon="0.84453">
        <ele>248.7</ele>
        <time>1970-01-01T02:33:34.000Z</time>
      </trkpt>
      <trkpt lat="44.96339" lon="0.84448">
        <ele>248.8</ele>
        <time>1970-01-01T02:33:35.000Z</time>
      </trkpt>
      <trkpt lat="44.96336" lon="0.84443">
        <ele>248.8</ele>
        <time>1970-01-01T02:33:36.000Z</time>
      </trkpt>
      <trkpt lat="44.96333" lon="0.84437">
        <ele>248.8</ele>
        <time>1970-01-01T02:33:37.000Z</time>
      </trkpt>
      <trkpt lat="44.9633" lon="0.84432">
        <ele>248.8</ele>
        <time>1970-01-01T02:33:38.000Z</time>
      </trkpt>
      <trkpt lat="44.96327" lon="0.84427">
        <ele>248.9</ele>
        <time>1970-01-01T02:33:39.000Z</time>
      </trkpt>
      <trkpt lat="44.96324" lon="0.84422">
        <ele>248.9</ele>
        <time>1970-01-01T02:33:40.000Z</time>
      </trkpt>
      <trkpt lat="44.96321" lon="0.84416">
        <ele>248.9</ele>
        <time>1970-01-01T02:33:41.000Z</time>
      </trkpt>
      <trkpt lat="44.96318" lon="0.84411">
        <ele>248.9</ele>
        <time>1970-01-01T02:33:42.000Z</time>
      </trkpt>
      <trkpt lat="44.96314" lon="0.84406">
        <ele>248.9</ele>
        <time>1970-01-01T02:33:43.000Z</time>
      </trkpt>
      <trkpt lat="44.9631" lon="0.84401">
        <ele>248.9</ele>
        <time>1970-01-01T02:33:44.000Z</time>
      </trkpt>
      <trkpt lat="44.96306" lon="0.84396">
        <ele>249</ele>
        <time>1970-01-01T02:33:45.000Z</time>
      </trkpt>
      <trkpt lat="44.96303" lon="0.84391">
        <ele>249</ele>
        <time>1970-01-01T02:33:46.000Z</time>
      </trkpt>
      <trkpt lat="44.96299" lon="0.84387">
        <ele>249</ele>
        <time>1970-01-01T02:33:47.000Z</time>
      </trkpt>
      <trkpt lat="44.96295" lon="0.84382">
        <ele>249</ele>
        <time>1970-01-01T02:33:48.000Z</time>
      </trkpt>
      <trkpt lat="44.96291" lon="0.84377">
        <ele>248.9</ele>
        <time>1970-01-01T02:33:49.000Z</time>
      </trkpt>
      <trkpt lat="44.96287" lon="0.84372">
        <ele>248.9</ele>
        <time>1970-01-01T02:33:50.000Z</time>
      </trkpt>
      <trkpt lat="44.96282" lon="0.84368">
        <ele>248.8</ele>
        <time>1970-01-01T02:33:51.000Z</time>
      </trkpt>
      <trkpt lat="44.96277" lon="0.84364">
        <ele>248.7</ele>
        <time>1970-01-01T02:33:52.000Z</time>
      </trkpt>
      <trkpt lat="44.96272" lon="0.84359">
        <ele>248.6</ele>
        <time>1970-01-01T02:33:53.000Z</time>
      </trkpt>
      <trkpt lat="44.96267" lon="0.84355">
        <ele>248.3</ele>
        <time>1970-01-01T02:33:54.000Z</time>
      </trkpt>
      <trkpt lat="44.96262" lon="0.8435">
        <ele>248.1</ele>
        <time>1970-01-01T02:33:55.000Z</time>
      </trkpt>
      <trkpt lat="44.96256" lon="0.84345">
        <ele>247.9</ele>
        <time>1970-01-01T02:33:56.000Z</time>
      </trkpt>
      <trkpt lat="44.96251" lon="0.8434">
        <ele>247.7</ele>
        <time>1970-01-01T02:33:57.000Z</time>
      </trkpt>
      <trkpt lat="44.96246" lon="0.84335">
        <ele>247.4</ele>
        <time>1970-01-01T02:33:58.000Z</time>
      </trkpt>
      <trkpt lat="44.96241" lon="0.8433">
        <ele>247.2</ele>
        <time>1970-01-01T02:33:59.000Z</time>
      </trkpt>
      <trkpt lat="44.96236" lon="0.84325">
        <ele>247</ele>
        <time>1970-01-01T02:34:00.000Z</time>
      </trkpt>
      <trkpt lat="44.96231" lon="0.8432">
        <ele>246.7</ele>
        <time>1970-01-01T02:34:01.000Z</time>
      </trkpt>
      <trkpt lat="44.96226" lon="0.84314">
        <ele>246.5</ele>
        <time>1970-01-01T02:34:02.000Z</time>
      </trkpt>
      <trkpt lat="44.96221" lon="0.84308">
        <ele>246.3</ele>
        <time>1970-01-01T02:34:03.000Z</time>
      </trkpt>
      <trkpt lat="44.96216" lon="0.84301">
        <ele>246</ele>
        <time>1970-01-01T02:34:04.000Z</time>
      </trkpt>
      <trkpt lat="44.96211" lon="0.84295">
        <ele>245.8</ele>
        <time>1970-01-01T02:34:05.000Z</time>
      </trkpt>
      <trkpt lat="44.96207" lon="0.84289">
        <ele>245.7</ele>
        <time>1970-01-01T02:34:06.000Z</time>
      </trkpt>
      <trkpt lat="44.96203" lon="0.84282">
        <ele>245.6</ele>
        <time>1970-01-01T02:34:07.000Z</time>
      </trkpt>
      <trkpt lat="44.962" lon="0.84276">
        <ele>245.5</ele>
        <time>1970-01-01T02:34:08.000Z</time>
      </trkpt>
      <trkpt lat="44.96197" lon="0.8427">
        <ele>245.4</ele>
        <time>1970-01-01T02:34:09.000Z</time>
      </trkpt>
      <trkpt lat="44.96195" lon="0.84265">
        <ele>245.4</ele>
        <time>1970-01-01T02:34:10.000Z</time>
      </trkpt>
      <trkpt lat="44.96194" lon="0.8426">
        <ele>245.4</ele>
        <time>1970-01-01T02:34:11.000Z</time>
      </trkpt>
      <trkpt lat="44.96194" lon="0.84256">
        <ele>244.5</ele>
        <time>1970-01-01T02:34:12.000Z</time>
      </trkpt>
      <trkpt lat="44.96196" lon="0.84252">
        <ele>244.3</ele>
        <time>1970-01-01T02:34:13.000Z</time>
      </trkpt>
      <trkpt lat="44.96198" lon="0.84249">
        <ele>244.2</ele>
        <time>1970-01-01T02:34:14.000Z</time>
      </trkpt>
      <trkpt lat="44.96201" lon="0.84246">
        <ele>244</ele>
        <time>1970-01-01T02:34:15.000Z</time>
      </trkpt>
      <trkpt lat="44.96204" lon="0.84242">
        <ele>243.8</ele>
        <time>1970-01-01T02:34:16.000Z</time>
      </trkpt>
      <trkpt lat="44.96206" lon="0.84237">
        <ele>243.6</ele>
        <time>1970-01-01T02:34:17.000Z</time>
      </trkpt>
      <trkpt lat="44.96208" lon="0.84232">
        <ele>243.4</ele>
        <time>1970-01-01T02:34:18.000Z</time>
      </trkpt>
      <trkpt lat="44.96209" lon="0.84227">
        <ele>243.2</ele>
        <time>1970-01-01T02:34:19.000Z</time>
      </trkpt>
      <trkpt lat="44.96211" lon="0.84222">
        <ele>243</ele>
        <time>1970-01-01T02:34:20.000Z</time>
      </trkpt>
      <trkpt lat="44.96213" lon="0.84217">
        <ele>242.8</ele>
        <time>1970-01-01T02:34:21.000Z</time>
      </trkpt>
      <trkpt lat="44.96215" lon="0.84212">
        <ele>242.5</ele>
        <time>1970-01-01T02:34:22.000Z</time>
      </trkpt>
      <trkpt lat="44.96216" lon="0.84206">
        <ele>242.3</ele>
        <time>1970-01-01T02:34:23.000Z</time>
      </trkpt>
      <trkpt lat="44.96218" lon="0.842">
        <ele>242.1</ele>
        <time>1970-01-01T02:34:24.000Z</time>
      </trkpt>
      <trkpt lat="44.96219" lon="0.84195">
        <ele>241.9</ele>
        <time>1970-01-01T02:34:25.000Z</time>
      </trkpt>
      <trkpt lat="44.96221" lon="0.8419">
        <ele>241.7</ele>
        <time>1970-01-01T02:34:26.000Z</time>
      </trkpt>
      <trkpt lat="44.96223" lon="0.84185">
        <ele>241.5</ele>
        <time>1970-01-01T02:34:27.000Z</time>
      </trkpt>
      <trkpt lat="44.96224" lon="0.84181">
        <ele>241.3</ele>
        <time>1970-01-01T02:34:28.000Z</time>
      </trkpt>
      <trkpt lat="44.96226" lon="0.84177">
        <ele>241.2</ele>
        <time>1970-01-01T02:34:29.000Z</time>
      </trkpt>
      <trkpt lat="44.96227" lon="0.84172">
        <ele>241</ele>
        <time>1970-01-01T02:34:30.000Z</time>
      </trkpt>
      <trkpt lat="44.96228" lon="0.84167">
        <ele>240.8</ele>
        <time>1970-01-01T02:34:31.000Z</time>
      </trkpt>
      <trkpt lat="44.96229" lon="0.84162">
        <ele>240.6</ele>
        <time>1970-01-01T02:34:32.000Z</time>
      </trkpt>
      <trkpt lat="44.9623" lon="0.84157">
        <ele>240.4</ele>
        <time>1970-01-01T02:34:33.000Z</time>
      </trkpt>
      <trkpt lat="44.96231" lon="0.84152">
        <ele>240.2</ele>
        <time>1970-01-01T02:34:34.000Z</time>
      </trkpt>
      <trkpt lat="44.96232" lon="0.84147">
        <ele>240</ele>
        <time>1970-01-01T02:34:35.000Z</time>
      </trkpt>
      <trkpt lat="44.96232" lon="0.84141">
        <ele>239.8</ele>
        <time>1970-01-01T02:34:36.000Z</time>
      </trkpt>
      <trkpt lat="44.96233" lon="0.84135">
        <ele>239.6</ele>
        <time>1970-01-01T02:34:37.000Z</time>
      </trkpt>
      <trkpt lat="44.96235" lon="0.8413">
        <ele>239.4</ele>
        <time>1970-01-01T02:34:38.000Z</time>
      </trkpt>
      <trkpt lat="44.96237" lon="0.84124">
        <ele>239.1</ele>
        <time>1970-01-01T02:34:39.000Z</time>
      </trkpt>
      <trkpt lat="44.96239" lon="0.84118">
        <ele>238.9</ele>
        <time>1970-01-01T02:34:40.000Z</time>
      </trkpt>
      <trkpt lat="44.9624" lon="0.84111">
        <ele>238.7</ele>
        <time>1970-01-01T02:34:41.000Z</time>
      </trkpt>
      <trkpt lat="44.96242" lon="0.84105">
        <ele>238.4</ele>
        <time>1970-01-01T02:34:42.000Z</time>
      </trkpt>
      <trkpt lat="44.96244" lon="0.84098">
        <ele>238.1</ele>
        <time>1970-01-01T02:34:43.000Z</time>
      </trkpt>
      <trkpt lat="44.96246" lon="0.84092">
        <ele>237.9</ele>
        <time>1970-01-01T02:34:44.000Z</time>
      </trkpt>
      <trkpt lat="44.96248" lon="0.84085">
        <ele>237.6</ele>
        <time>1970-01-01T02:34:45.000Z</time>
      </trkpt>
      <trkpt lat="44.9625" lon="0.84079">
        <ele>237.3</ele>
        <time>1970-01-01T02:34:46.000Z</time>
      </trkpt>
      <trkpt lat="44.96253" lon="0.84072">
        <ele>237.1</ele>
        <time>1970-01-01T02:34:47.000Z</time>
      </trkpt>
      <trkpt lat="44.96256" lon="0.84065">
        <ele>236.8</ele>
        <time>1970-01-01T02:34:48.000Z</time>
      </trkpt>
      <trkpt lat="44.96258" lon="0.84058">
        <ele>236.5</ele>
        <time>1970-01-01T02:34:49.000Z</time>
      </trkpt>
      <trkpt lat="44.96261" lon="0.84051">
        <ele>236.2</ele>
        <time>1970-01-01T02:34:50.000Z</time>
      </trkpt>
      <trkpt lat="44.96264" lon="0.84044">
        <ele>235.9</ele>
        <time>1970-01-01T02:34:51.000Z</time>
      </trkpt>
      <trkpt lat="44.96267" lon="0.84037">
        <ele>235.6</ele>
        <time>1970-01-01T02:34:52.000Z</time>
      </trkpt>
      <trkpt lat="44.96269" lon="0.84029">
        <ele>235.3</ele>
        <time>1970-01-01T02:34:53.000Z</time>
      </trkpt>
      <trkpt lat="44.96271" lon="0.8402">
        <ele>234.9</ele>
        <time>1970-01-01T02:34:54.000Z</time>
      </trkpt>
      <trkpt lat="44.96274" lon="0.84011">
        <ele>234.6</ele>
        <time>1970-01-01T02:34:55.000Z</time>
      </trkpt>
      <trkpt lat="44.96277" lon="0.84003">
        <ele>234.2</ele>
        <time>1970-01-01T02:34:56.000Z</time>
      </trkpt>
      <trkpt lat="44.9628" lon="0.83994">
        <ele>233.9</ele>
        <time>1970-01-01T02:34:57.000Z</time>
      </trkpt>
      <trkpt lat="44.96283" lon="0.83984">
        <ele>233.5</ele>
        <time>1970-01-01T02:34:58.000Z</time>
      </trkpt>
      <trkpt lat="44.96286" lon="0.83975">
        <ele>233.1</ele>
        <time>1970-01-01T02:34:59.000Z</time>
      </trkpt>
      <trkpt lat="44.96289" lon="0.83965">
        <ele>232.7</ele>
        <time>1970-01-01T02:35:00.000Z</time>
      </trkpt>
      <trkpt lat="44.96292" lon="0.83954">
        <ele>232.3</ele>
        <time>1970-01-01T02:35:01.000Z</time>
      </trkpt>
      <trkpt lat="44.96295" lon="0.83944">
        <ele>231.9</ele>
        <time>1970-01-01T02:35:02.000Z</time>
      </trkpt>
      <trkpt lat="44.96299" lon="0.83934">
        <ele>231.5</ele>
        <time>1970-01-01T02:35:03.000Z</time>
      </trkpt>
      <trkpt lat="44.96302" lon="0.83924">
        <ele>231.1</ele>
        <time>1970-01-01T02:35:04.000Z</time>
      </trkpt>
      <trkpt lat="44.96306" lon="0.83914">
        <ele>230.7</ele>
        <time>1970-01-01T02:35:05.000Z</time>
      </trkpt>
      <trkpt lat="44.96309" lon="0.83905">
        <ele>230.3</ele>
        <time>1970-01-01T02:35:06.000Z</time>
      </trkpt>
      <trkpt lat="44.96313" lon="0.83895">
        <ele>229.9</ele>
        <time>1970-01-01T02:35:07.000Z</time>
      </trkpt>
      <trkpt lat="44.96316" lon="0.83885">
        <ele>229.5</ele>
        <time>1970-01-01T02:35:08.000Z</time>
      </trkpt>
      <trkpt lat="44.96318" lon="0.83875">
        <ele>229.1</ele>
        <time>1970-01-01T02:35:09.000Z</time>
      </trkpt>
      <trkpt lat="44.9632" lon="0.83865">
        <ele>228.7</ele>
        <time>1970-01-01T02:35:10.000Z</time>
      </trkpt>
      <trkpt lat="44.96321" lon="0.83854">
        <ele>228.3</ele>
        <time>1970-01-01T02:35:11.000Z</time>
      </trkpt>
      <trkpt lat="44.9632" lon="0.83842">
        <ele>227.9</ele>
        <time>1970-01-01T02:35:12.000Z</time>
      </trkpt>
      <trkpt lat="44.96318" lon="0.83831">
        <ele>227.5</ele>
        <time>1970-01-01T02:35:13.000Z</time>
      </trkpt>
      <trkpt lat="44.96315" lon="0.83819">
        <ele>226.8</ele>
        <time>1970-01-01T02:35:14.000Z</time>
      </trkpt>
      <trkpt lat="44.96312" lon="0.83808">
        <ele>226.9</ele>
        <time>1970-01-01T02:35:15.000Z</time>
      </trkpt>
      <trkpt lat="44.9631" lon="0.83797">
        <ele>226.4</ele>
        <time>1970-01-01T02:35:16.000Z</time>
      </trkpt>
      <trkpt lat="44.96308" lon="0.83786">
        <ele>226.6</ele>
        <time>1970-01-01T02:35:17.000Z</time>
      </trkpt>
      <trkpt lat="44.96307" lon="0.83775">
        <ele>226.7</ele>
        <time>1970-01-01T02:35:18.000Z</time>
      </trkpt>
      <trkpt lat="44.96306" lon="0.83765">
        <ele>226.3</ele>
        <time>1970-01-01T02:35:19.000Z</time>
      </trkpt>
      <trkpt lat="44.96307" lon="0.83754">
        <ele>226.3</ele>
        <time>1970-01-01T02:35:20.000Z</time>
      </trkpt>
      <trkpt lat="44.96309" lon="0.83745">
        <ele>226</ele>
        <time>1970-01-01T02:35:21.000Z</time>
      </trkpt>
      <trkpt lat="44.96312" lon="0.83736">
        <ele>225.5</ele>
        <time>1970-01-01T02:35:22.000Z</time>
      </trkpt>
      <trkpt lat="44.96315" lon="0.83727">
        <ele>225.6</ele>
        <time>1970-01-01T02:35:23.000Z</time>
      </trkpt>
      <trkpt lat="44.96318" lon="0.83719">
        <ele>225.5</ele>
        <time>1970-01-01T02:35:24.000Z</time>
      </trkpt>
      <trkpt lat="44.96321" lon="0.83711">
        <ele>225.5</ele>
        <time>1970-01-01T02:35:25.000Z</time>
      </trkpt>
      <trkpt lat="44.96324" lon="0.83703">
        <ele>225.5</ele>
        <time>1970-01-01T02:35:26.000Z</time>
      </trkpt>
      <trkpt lat="44.96326" lon="0.83695">
        <ele>225.5</ele>
        <time>1970-01-01T02:35:27.000Z</time>
      </trkpt>
      <trkpt lat="44.96329" lon="0.83686">
        <ele>225.6</ele>
        <time>1970-01-01T02:35:28.000Z</time>
      </trkpt>
      <trkpt lat="44.96331" lon="0.83678">
        <ele>225.8</ele>
        <time>1970-01-01T02:35:29.000Z</time>
      </trkpt>
      <trkpt lat="44.96333" lon="0.83669">
        <ele>225.9</ele>
        <time>1970-01-01T02:35:30.000Z</time>
      </trkpt>
      <trkpt lat="44.96334" lon="0.83661">
        <ele>226</ele>
        <time>1970-01-01T02:35:31.000Z</time>
      </trkpt>
      <trkpt lat="44.96335" lon="0.83653">
        <ele>226</ele>
        <time>1970-01-01T02:35:32.000Z</time>
      </trkpt>
      <trkpt lat="44.96336" lon="0.83644">
        <ele>226.6</ele>
        <time>1970-01-01T02:35:33.000Z</time>
      </trkpt>
      <trkpt lat="44.96336" lon="0.83636">
        <ele>226.7</ele>
        <time>1970-01-01T02:35:34.000Z</time>
      </trkpt>
      <trkpt lat="44.96337" lon="0.83627">
        <ele>227.4</ele>
        <time>1970-01-01T02:35:35.000Z</time>
      </trkpt>
      <trkpt lat="44.96338" lon="0.83619">
        <ele>227.4</ele>
        <time>1970-01-01T02:35:36.000Z</time>
      </trkpt>
      <trkpt lat="44.96338" lon="0.83611">
        <ele>228.1</ele>
        <time>1970-01-01T02:35:37.000Z</time>
      </trkpt>
      <trkpt lat="44.96338" lon="0.83602">
        <ele>228.2</ele>
        <time>1970-01-01T02:35:38.000Z</time>
      </trkpt>
      <trkpt lat="44.96337" lon="0.83594">
        <ele>228.6</ele>
        <time>1970-01-01T02:35:39.000Z</time>
      </trkpt>
      <trkpt lat="44.96336" lon="0.83587">
        <ele>228.7</ele>
        <time>1970-01-01T02:35:40.000Z</time>
      </trkpt>
      <trkpt lat="44.96335" lon="0.8358">
        <ele>228.8</ele>
        <time>1970-01-01T02:35:41.000Z</time>
      </trkpt>
      <trkpt lat="44.96333" lon="0.83574">
        <ele>229.8</ele>
        <time>1970-01-01T02:35:42.000Z</time>
      </trkpt>
      <trkpt lat="44.96332" lon="0.83568">
        <ele>229.8</ele>
        <time>1970-01-01T02:35:43.000Z</time>
      </trkpt>
      <trkpt lat="44.9633" lon="0.83562">
        <ele>230</ele>
        <time>1970-01-01T02:35:44.000Z</time>
      </trkpt>
      <trkpt lat="44.96327" lon="0.83556">
        <ele>230.1</ele>
        <time>1970-01-01T02:35:45.000Z</time>
      </trkpt>
      <trkpt lat="44.96325" lon="0.8355">
        <ele>230.1</ele>
        <time>1970-01-01T02:35:46.000Z</time>
      </trkpt>
      <trkpt lat="44.96322" lon="0.83545">
        <ele>231.3</ele>
        <time>1970-01-01T02:35:47.000Z</time>
      </trkpt>
      <trkpt lat="44.96319" lon="0.83541">
        <ele>231.4</ele>
        <time>1970-01-01T02:35:48.000Z</time>
      </trkpt>
      <trkpt lat="44.96315" lon="0.83536">
        <ele>231.4</ele>
        <time>1970-01-01T02:35:49.000Z</time>
      </trkpt>
      <trkpt lat="44.96311" lon="0.83532">
        <ele>231.5</ele>
        <time>1970-01-01T02:35:50.000Z</time>
      </trkpt>
      <trkpt lat="44.96307" lon="0.83527">
        <ele>233</ele>
        <time>1970-01-01T02:35:51.000Z</time>
      </trkpt>
      <trkpt lat="44.96302" lon="0.83523">
        <ele>233.1</ele>
        <time>1970-01-01T02:35:52.000Z</time>
      </trkpt>
      <trkpt lat="44.96298" lon="0.83519">
        <ele>233.1</ele>
        <time>1970-01-01T02:35:53.000Z</time>
      </trkpt>
      <trkpt lat="44.96293" lon="0.83514">
        <ele>233.8</ele>
        <time>1970-01-01T02:35:54.000Z</time>
      </trkpt>
      <trkpt lat="44.96289" lon="0.8351">
        <ele>234.4</ele>
        <time>1970-01-01T02:35:55.000Z</time>
      </trkpt>
      <trkpt lat="44.96285" lon="0.83506">
        <ele>235</ele>
        <time>1970-01-01T02:35:56.000Z</time>
      </trkpt>
      <trkpt lat="44.96281" lon="0.83502">
        <ele>235</ele>
        <time>1970-01-01T02:35:57.000Z</time>
      </trkpt>
      <trkpt lat="44.96276" lon="0.83498">
        <ele>235.1</ele>
        <time>1970-01-01T02:35:58.000Z</time>
      </trkpt>
      <trkpt lat="44.96272" lon="0.83493">
        <ele>235.9</ele>
        <time>1970-01-01T02:35:59.000Z</time>
      </trkpt>
      <trkpt lat="44.96267" lon="0.83489">
        <ele>235.9</ele>
        <time>1970-01-01T02:36:00.000Z</time>
      </trkpt>
      <trkpt lat="44.96263" lon="0.83484">
        <ele>236</ele>
        <time>1970-01-01T02:36:01.000Z</time>
      </trkpt>
      <trkpt lat="44.96259" lon="0.8348">
        <ele>236.2</ele>
        <time>1970-01-01T02:36:02.000Z</time>
      </trkpt>
      <trkpt lat="44.96255" lon="0.83475">
        <ele>236.5</ele>
        <time>1970-01-01T02:36:03.000Z</time>
      </trkpt>
      <trkpt lat="44.9625" lon="0.83471">
        <ele>236.6</ele>
        <time>1970-01-01T02:36:04.000Z</time>
      </trkpt>
      <trkpt lat="44.96245" lon="0.83467">
        <ele>236.8</ele>
        <time>1970-01-01T02:36:05.000Z</time>
      </trkpt>
      <trkpt lat="44.9624" lon="0.83463">
        <ele>236.9</ele>
        <time>1970-01-01T02:36:06.000Z</time>
      </trkpt>
      <trkpt lat="44.96235" lon="0.83459">
        <ele>237.1</ele>
        <time>1970-01-01T02:36:07.000Z</time>
      </trkpt>
      <trkpt lat="44.9623" lon="0.83456">
        <ele>237.1</ele>
        <time>1970-01-01T02:36:08.000Z</time>
      </trkpt>
      <trkpt lat="44.96223" lon="0.83454">
        <ele>237.3</ele>
        <time>1970-01-01T02:36:09.000Z</time>
      </trkpt>
      <trkpt lat="44.96217" lon="0.83452">
        <ele>237.3</ele>
        <time>1970-01-01T02:36:10.000Z</time>
      </trkpt>
      <trkpt lat="44.96212" lon="0.83451">
        <ele>237.3</ele>
        <time>1970-01-01T02:36:11.000Z</time>
      </trkpt>
      <trkpt lat="44.96206" lon="0.83449">
        <ele>237.4</ele>
        <time>1970-01-01T02:36:12.000Z</time>
      </trkpt>
      <trkpt lat="44.962" lon="0.83448">
        <ele>237.3</ele>
        <time>1970-01-01T02:36:13.000Z</time>
      </trkpt>
      <trkpt lat="44.96195" lon="0.83446">
        <ele>237.4</ele>
        <time>1970-01-01T02:36:14.000Z</time>
      </trkpt>
      <trkpt lat="44.96189" lon="0.83444">
        <ele>237.5</ele>
        <time>1970-01-01T02:36:15.000Z</time>
      </trkpt>
      <trkpt lat="44.96184" lon="0.83442">
        <ele>237.6</ele>
        <time>1970-01-01T02:36:16.000Z</time>
      </trkpt>
      <trkpt lat="44.96178" lon="0.83439">
        <ele>237.7</ele>
        <time>1970-01-01T02:36:17.000Z</time>
      </trkpt>
      <trkpt lat="44.96173" lon="0.83436">
        <ele>237.8</ele>
        <time>1970-01-01T02:36:18.000Z</time>
      </trkpt>
      <trkpt lat="44.96167" lon="0.83434">
        <ele>237.8</ele>
        <time>1970-01-01T02:36:19.000Z</time>
      </trkpt>
      <trkpt lat="44.96162" lon="0.83432">
        <ele>237.9</ele>
        <time>1970-01-01T02:36:20.000Z</time>
      </trkpt>
      <trkpt lat="44.96157" lon="0.83429">
        <ele>237.9</ele>
        <time>1970-01-01T02:36:21.000Z</time>
      </trkpt>
      <trkpt lat="44.96152" lon="0.83427">
        <ele>238</ele>
        <time>1970-01-01T02:36:22.000Z</time>
      </trkpt>
      <trkpt lat="44.96148" lon="0.83424">
        <ele>238.2</ele>
        <time>1970-01-01T02:36:23.000Z</time>
      </trkpt>
      <trkpt lat="44.96144" lon="0.83422">
        <ele>238.2</ele>
        <time>1970-01-01T02:36:24.000Z</time>
      </trkpt>
      <trkpt lat="44.9614" lon="0.83421">
        <ele>238.3</ele>
        <time>1970-01-01T02:36:25.000Z</time>
      </trkpt>
      <trkpt lat="44.96138" lon="0.8342">
        <ele>238.4</ele>
        <time>1970-01-01T02:36:26.000Z</time>
      </trkpt>
      <trkpt lat="44.96136" lon="0.83419">
        <ele>238.5</ele>
        <time>1970-01-01T02:36:27.000Z</time>
      </trkpt>
      <trkpt lat="44.96134" lon="0.83417">
        <ele>238.6</ele>
        <time>1970-01-01T02:36:28.000Z</time>
      </trkpt>
      <trkpt lat="44.96132" lon="0.83416">
        <ele>238.6</ele>
        <time>1970-01-01T02:36:29.000Z</time>
      </trkpt>
      <trkpt lat="44.9613" lon="0.83415">
        <ele>238.7</ele>
        <time>1970-01-01T02:36:30.000Z</time>
      </trkpt>
      <trkpt lat="44.96128" lon="0.83415">
        <ele>238.8</ele>
        <time>1970-01-01T02:36:31.000Z</time>
      </trkpt>
      <trkpt lat="44.96125" lon="0.83415">
        <ele>238.8</ele>
        <time>1970-01-01T02:36:32.000Z</time>
      </trkpt>
      <trkpt lat="44.96122" lon="0.83415">
        <ele>238.9</ele>
        <time>1970-01-01T02:36:33.000Z</time>
      </trkpt>
      <trkpt lat="44.96118" lon="0.83415">
        <ele>239</ele>
        <time>1970-01-01T02:36:34.000Z</time>
      </trkpt>
      <trkpt lat="44.96115" lon="0.83415">
        <ele>239</ele>
        <time>1970-01-01T02:36:35.000Z</time>
      </trkpt>
      <trkpt lat="44.96111" lon="0.83415">
        <ele>239.1</ele>
        <time>1970-01-01T02:36:36.000Z</time>
      </trkpt>
      <trkpt lat="44.96107" lon="0.83415">
        <ele>239.1</ele>
        <time>1970-01-01T02:36:37.000Z</time>
      </trkpt>
      <trkpt lat="44.96103" lon="0.83415">
        <ele>239.1</ele>
        <time>1970-01-01T02:36:38.000Z</time>
      </trkpt>
      <trkpt lat="44.96098" lon="0.83415">
        <ele>239.1</ele>
        <time>1970-01-01T02:36:39.000Z</time>
      </trkpt>
      <trkpt lat="44.96094" lon="0.83415">
        <ele>239.1</ele>
        <time>1970-01-01T02:36:40.000Z</time>
      </trkpt>
      <trkpt lat="44.9609" lon="0.83414">
        <ele>239.1</ele>
        <time>1970-01-01T02:36:41.000Z</time>
      </trkpt>
      <trkpt lat="44.96087" lon="0.83414">
        <ele>239.1</ele>
        <time>1970-01-01T02:36:42.000Z</time>
      </trkpt>
      <trkpt lat="44.96082" lon="0.83413">
        <ele>239.2</ele>
        <time>1970-01-01T02:36:43.000Z</time>
      </trkpt>
      <trkpt lat="44.96078" lon="0.83414">
        <ele>239.2</ele>
        <time>1970-01-01T02:36:44.000Z</time>
      </trkpt>
      <trkpt lat="44.96074" lon="0.83414">
        <ele>239.2</ele>
        <time>1970-01-01T02:36:45.000Z</time>
      </trkpt>
      <trkpt lat="44.96069" lon="0.83414">
        <ele>239.2</ele>
        <time>1970-01-01T02:36:46.000Z</time>
      </trkpt>
      <trkpt lat="44.96065" lon="0.83414">
        <ele>239.2</ele>
        <time>1970-01-01T02:36:47.000Z</time>
      </trkpt>
      <trkpt lat="44.96061" lon="0.83413">
        <ele>239.2</ele>
        <time>1970-01-01T02:36:48.000Z</time>
      </trkpt>
      <trkpt lat="44.96056" lon="0.83412">
        <ele>239.2</ele>
        <time>1970-01-01T02:36:49.000Z</time>
      </trkpt>
      <trkpt lat="44.96052" lon="0.83411">
        <ele>239.2</ele>
        <time>1970-01-01T02:36:50.000Z</time>
      </trkpt>
      <trkpt lat="44.96048" lon="0.83409">
        <ele>239.2</ele>
        <time>1970-01-01T02:36:51.000Z</time>
      </trkpt>
      <trkpt lat="44.96044" lon="0.83407">
        <ele>239.1</ele>
        <time>1970-01-01T02:36:52.000Z</time>
      </trkpt>
      <trkpt lat="44.9604" lon="0.83405">
        <ele>239.1</ele>
        <time>1970-01-01T02:36:53.000Z</time>
      </trkpt>
      <trkpt lat="44.96036" lon="0.83402">
        <ele>239.1</ele>
        <time>1970-01-01T02:36:54.000Z</time>
      </trkpt>
      <trkpt lat="44.96032" lon="0.83401">
        <ele>239</ele>
        <time>1970-01-01T02:36:55.000Z</time>
      </trkpt>
      <trkpt lat="44.96027" lon="0.83399">
        <ele>238.9</ele>
        <time>1970-01-01T02:36:56.000Z</time>
      </trkpt>
      <trkpt lat="44.96023" lon="0.83398">
        <ele>238.8</ele>
        <time>1970-01-01T02:36:57.000Z</time>
      </trkpt>
      <trkpt lat="44.96018" lon="0.83397">
        <ele>238.7</ele>
        <time>1970-01-01T02:36:58.000Z</time>
      </trkpt>
      <trkpt lat="44.96013" lon="0.83396">
        <ele>238.5</ele>
        <time>1970-01-01T02:36:59.000Z</time>
      </trkpt>
      <trkpt lat="44.96008" lon="0.83394">
        <ele>238.4</ele>
        <time>1970-01-01T02:37:00.000Z</time>
      </trkpt>
      <trkpt lat="44.96002" lon="0.83394">
        <ele>238.2</ele>
        <time>1970-01-01T02:37:01.000Z</time>
      </trkpt>
      <trkpt lat="44.95997" lon="0.83394">
        <ele>238</ele>
        <time>1970-01-01T02:37:02.000Z</time>
      </trkpt>
      <trkpt lat="44.95991" lon="0.83394">
        <ele>237.9</ele>
        <time>1970-01-01T02:37:03.000Z</time>
      </trkpt>
      <trkpt lat="44.95986" lon="0.83396">
        <ele>237.7</ele>
        <time>1970-01-01T02:37:04.000Z</time>
      </trkpt>
      <trkpt lat="44.95981" lon="0.83397">
        <ele>237.6</ele>
        <time>1970-01-01T02:37:05.000Z</time>
      </trkpt>
      <trkpt lat="44.95976" lon="0.83398">
        <ele>237.5</ele>
        <time>1970-01-01T02:37:06.000Z</time>
      </trkpt>
      <trkpt lat="44.95971" lon="0.83399">
        <ele>237.4</ele>
        <time>1970-01-01T02:37:07.000Z</time>
      </trkpt>
      <trkpt lat="44.95966" lon="0.834">
        <ele>237.3</ele>
        <time>1970-01-01T02:37:08.000Z</time>
      </trkpt>
      <trkpt lat="44.95962" lon="0.834">
        <ele>237.2</ele>
        <time>1970-01-01T02:37:09.000Z</time>
      </trkpt>
      <trkpt lat="44.95957" lon="0.834">
        <ele>237.2</ele>
        <time>1970-01-01T02:37:10.000Z</time>
      </trkpt>
      <trkpt lat="44.95952" lon="0.834">
        <ele>237.1</ele>
        <time>1970-01-01T02:37:11.000Z</time>
      </trkpt>
      <trkpt lat="44.95947" lon="0.834">
        <ele>237.1</ele>
        <time>1970-01-01T02:37:12.000Z</time>
      </trkpt>
      <trkpt lat="44.95942" lon="0.83401">
        <ele>237.1</ele>
        <time>1970-01-01T02:37:13.000Z</time>
      </trkpt>
      <trkpt lat="44.95937" lon="0.83401">
        <ele>237.1</ele>
        <time>1970-01-01T02:37:14.000Z</time>
      </trkpt>
      <trkpt lat="44.95932" lon="0.834">
        <ele>237.2</ele>
        <time>1970-01-01T02:37:15.000Z</time>
      </trkpt>
      <trkpt lat="44.95927" lon="0.834">
        <ele>237.2</ele>
        <time>1970-01-01T02:37:16.000Z</time>
      </trkpt>
      <trkpt lat="44.95922" lon="0.834">
        <ele>237.3</ele>
        <time>1970-01-01T02:37:17.000Z</time>
      </trkpt>
      <trkpt lat="44.95918" lon="0.834">
        <ele>237.5</ele>
        <time>1970-01-01T02:37:18.000Z</time>
      </trkpt>
      <trkpt lat="44.95913" lon="0.834">
        <ele>237.6</ele>
        <time>1970-01-01T02:37:19.000Z</time>
      </trkpt>
      <trkpt lat="44.95909" lon="0.834">
        <ele>237.7</ele>
        <time>1970-01-01T02:37:20.000Z</time>
      </trkpt>
      <trkpt lat="44.95905" lon="0.83401">
        <ele>237.8</ele>
        <time>1970-01-01T02:37:21.000Z</time>
      </trkpt>
      <trkpt lat="44.95901" lon="0.83402">
        <ele>237.9</ele>
        <time>1970-01-01T02:37:22.000Z</time>
      </trkpt>
      <trkpt lat="44.95897" lon="0.83403">
        <ele>238</ele>
        <time>1970-01-01T02:37:23.000Z</time>
      </trkpt>
      <trkpt lat="44.95893" lon="0.83404">
        <ele>238.1</ele>
        <time>1970-01-01T02:37:24.000Z</time>
      </trkpt>
      <trkpt lat="44.9589" lon="0.83405">
        <ele>238.2</ele>
        <time>1970-01-01T02:37:25.000Z</time>
      </trkpt>
      <trkpt lat="44.95887" lon="0.83407">
        <ele>238.2</ele>
        <time>1970-01-01T02:37:26.000Z</time>
      </trkpt>
      <trkpt lat="44.95884" lon="0.83409">
        <ele>237.8</ele>
        <time>1970-01-01T02:37:27.000Z</time>
      </trkpt>
      <trkpt lat="44.95881" lon="0.83411">
        <ele>237.7</ele>
        <time>1970-01-01T02:37:28.000Z</time>
      </trkpt>
      <trkpt lat="44.95878" lon="0.83414">
        <ele>237.6</ele>
        <time>1970-01-01T02:37:29.000Z</time>
      </trkpt>
      <trkpt lat="44.95874" lon="0.83417">
        <ele>237.6</ele>
        <time>1970-01-01T02:37:30.000Z</time>
      </trkpt>
      <trkpt lat="44.95871" lon="0.8342">
        <ele>237.1</ele>
        <time>1970-01-01T02:37:31.000Z</time>
      </trkpt>
      <trkpt lat="44.95867" lon="0.83423">
        <ele>237.1</ele>
        <time>1970-01-01T02:37:32.000Z</time>
      </trkpt>
      <trkpt lat="44.95863" lon="0.83427">
        <ele>237</ele>
        <time>1970-01-01T02:37:33.000Z</time>
      </trkpt>
      <trkpt lat="44.95859" lon="0.83431">
        <ele>236.4</ele>
        <time>1970-01-01T02:37:34.000Z</time>
      </trkpt>
      <trkpt lat="44.95856" lon="0.83436">
        <ele>236.3</ele>
        <time>1970-01-01T02:37:35.000Z</time>
      </trkpt>
      <trkpt lat="44.95852" lon="0.83441">
        <ele>236.3</ele>
        <time>1970-01-01T02:37:36.000Z</time>
      </trkpt>
      <trkpt lat="44.95849" lon="0.83446">
        <ele>235.8</ele>
        <time>1970-01-01T02:37:37.000Z</time>
      </trkpt>
      <trkpt lat="44.95846" lon="0.8345">
        <ele>235.3</ele>
        <time>1970-01-01T02:37:38.000Z</time>
      </trkpt>
      <trkpt lat="44.95842" lon="0.83454">
        <ele>235.3</ele>
        <time>1970-01-01T02:37:39.000Z</time>
      </trkpt>
      <trkpt lat="44.95839" lon="0.83458">
        <ele>235.3</ele>
        <time>1970-01-01T02:37:40.000Z</time>
      </trkpt>
      <trkpt lat="44.95835" lon="0.83462">
        <ele>234.6</ele>
        <time>1970-01-01T02:37:41.000Z</time>
      </trkpt>
      <trkpt lat="44.95832" lon="0.83466">
        <ele>234.5</ele>
        <time>1970-01-01T02:37:42.000Z</time>
      </trkpt>
      <trkpt lat="44.95829" lon="0.8347">
        <ele>234.5</ele>
        <time>1970-01-01T02:37:43.000Z</time>
      </trkpt>
      <trkpt lat="44.95825" lon="0.83473">
        <ele>234.4</ele>
        <time>1970-01-01T02:37:44.000Z</time>
      </trkpt>
      <trkpt lat="44.95822" lon="0.83477">
        <ele>234.1</ele>
        <time>1970-01-01T02:37:45.000Z</time>
      </trkpt>
      <trkpt lat="44.95818" lon="0.8348">
        <ele>233.8</ele>
        <time>1970-01-01T02:37:46.000Z</time>
      </trkpt>
      <trkpt lat="44.95814" lon="0.83484">
        <ele>233.8</ele>
        <time>1970-01-01T02:37:47.000Z</time>
      </trkpt>
      <trkpt lat="44.9581" lon="0.83487">
        <ele>233.4</ele>
        <time>1970-01-01T02:37:48.000Z</time>
      </trkpt>
      <trkpt lat="44.95806" lon="0.83489">
        <ele>233.4</ele>
        <time>1970-01-01T02:37:49.000Z</time>
      </trkpt>
      <trkpt lat="44.95802" lon="0.83492">
        <ele>233.4</ele>
        <time>1970-01-01T02:37:50.000Z</time>
      </trkpt>
      <trkpt lat="44.95798" lon="0.83494">
        <ele>232.9</ele>
        <time>1970-01-01T02:37:51.000Z</time>
      </trkpt>
      <trkpt lat="44.95794" lon="0.83496">
        <ele>232.5</ele>
        <time>1970-01-01T02:37:52.000Z</time>
      </trkpt>
      <trkpt lat="44.95789" lon="0.83499">
        <ele>232.5</ele>
        <time>1970-01-01T02:37:53.000Z</time>
      </trkpt>
      <trkpt lat="44.95784" lon="0.83501">
        <ele>231.9</ele>
        <time>1970-01-01T02:37:54.000Z</time>
      </trkpt>
      <trkpt lat="44.95779" lon="0.83503">
        <ele>231.9</ele>
        <time>1970-01-01T02:37:55.000Z</time>
      </trkpt>
      <trkpt lat="44.95774" lon="0.83506">
        <ele>231</ele>
        <time>1970-01-01T02:37:56.000Z</time>
      </trkpt>
      <trkpt lat="44.95769" lon="0.83508">
        <ele>231</ele>
        <time>1970-01-01T02:37:57.000Z</time>
      </trkpt>
      <trkpt lat="44.95764" lon="0.83511">
        <ele>231</ele>
        <time>1970-01-01T02:37:58.000Z</time>
      </trkpt>
      <trkpt lat="44.95759" lon="0.83515">
        <ele>229.9</ele>
        <time>1970-01-01T02:37:59.000Z</time>
      </trkpt>
      <trkpt lat="44.95754" lon="0.8352">
        <ele>229.8</ele>
        <time>1970-01-01T02:38:00.000Z</time>
      </trkpt>
      <trkpt lat="44.9575" lon="0.83526">
        <ele>229</ele>
        <time>1970-01-01T02:38:01.000Z</time>
      </trkpt>
      <trkpt lat="44.95745" lon="0.83531">
        <ele>228.3</ele>
        <time>1970-01-01T02:38:02.000Z</time>
      </trkpt>
      <trkpt lat="44.95741" lon="0.83537">
        <ele>228.2</ele>
        <time>1970-01-01T02:38:03.000Z</time>
      </trkpt>
      <trkpt lat="44.95737" lon="0.83543">
        <ele>227.3</ele>
        <time>1970-01-01T02:38:04.000Z</time>
      </trkpt>
      <trkpt lat="44.95733" lon="0.83549">
        <ele>226.3</ele>
        <time>1970-01-01T02:38:05.000Z</time>
      </trkpt>
      <trkpt lat="44.95729" lon="0.83556">
        <ele>226.3</ele>
        <time>1970-01-01T02:38:06.000Z</time>
      </trkpt>
      <trkpt lat="44.95723" lon="0.8356">
        <ele>225.1</ele>
        <time>1970-01-01T02:38:07.000Z</time>
      </trkpt>
      <trkpt lat="44.95717" lon="0.83563">
        <ele>225.1</ele>
        <time>1970-01-01T02:38:08.000Z</time>
      </trkpt>
      <trkpt lat="44.95711" lon="0.83563">
        <ele>224</ele>
        <time>1970-01-01T02:38:09.000Z</time>
      </trkpt>
      <trkpt lat="44.95706" lon="0.83561">
        <ele>224</ele>
        <time>1970-01-01T02:38:10.000Z</time>
      </trkpt>
      <trkpt lat="44.95701" lon="0.83557">
        <ele>223</ele>
        <time>1970-01-01T02:38:11.000Z</time>
      </trkpt>
      <trkpt lat="44.95697" lon="0.83553">
        <ele>223</ele>
        <time>1970-01-01T02:38:12.000Z</time>
      </trkpt>
      <trkpt lat="44.95692" lon="0.8355">
        <ele>223</ele>
        <time>1970-01-01T02:38:13.000Z</time>
      </trkpt>
      <trkpt lat="44.95686" lon="0.83547">
        <ele>222.5</ele>
        <time>1970-01-01T02:38:14.000Z</time>
      </trkpt>
      <trkpt lat="44.9568" lon="0.83545">
        <ele>222.5</ele>
        <time>1970-01-01T02:38:15.000Z</time>
      </trkpt>
      <trkpt lat="44.95674" lon="0.83543">
        <ele>221.2</ele>
        <time>1970-01-01T02:38:16.000Z</time>
      </trkpt>
      <trkpt lat="44.95668" lon="0.83541">
        <ele>221.2</ele>
        <time>1970-01-01T02:38:17.000Z</time>
      </trkpt>
      <trkpt lat="44.95661" lon="0.83537">
        <ele>219.4</ele>
        <time>1970-01-01T02:38:18.000Z</time>
      </trkpt>
      <trkpt lat="44.95655" lon="0.83532">
        <ele>219.4</ele>
        <time>1970-01-01T02:38:19.000Z</time>
      </trkpt>
      <trkpt lat="44.95649" lon="0.83527">
        <ele>218</ele>
        <time>1970-01-01T02:38:20.000Z</time>
      </trkpt>
      <trkpt lat="44.95642" lon="0.83523">
        <ele>217.9</ele>
        <time>1970-01-01T02:38:21.000Z</time>
      </trkpt>
      <trkpt lat="44.95635" lon="0.83521">
        <ele>215.9</ele>
        <time>1970-01-01T02:38:22.000Z</time>
      </trkpt>
      <trkpt lat="44.95627" lon="0.83519">
        <ele>213.9</ele>
        <time>1970-01-01T02:38:23.000Z</time>
      </trkpt>
      <trkpt lat="44.95619" lon="0.83516">
        <ele>213.8</ele>
        <time>1970-01-01T02:38:24.000Z</time>
      </trkpt>
      <trkpt lat="44.95611" lon="0.83512">
        <ele>211.6</ele>
        <time>1970-01-01T02:38:25.000Z</time>
      </trkpt>
      <trkpt lat="44.95603" lon="0.83507">
        <ele>209.3</ele>
        <time>1970-01-01T02:38:26.000Z</time>
      </trkpt>
      <trkpt lat="44.95594" lon="0.83502">
        <ele>209.2</ele>
        <time>1970-01-01T02:38:27.000Z</time>
      </trkpt>
      <trkpt lat="44.95584" lon="0.83496">
        <ele>207</ele>
        <time>1970-01-01T02:38:28.000Z</time>
      </trkpt>
      <trkpt lat="44.95575" lon="0.83491">
        <ele>204.3</ele>
        <time>1970-01-01T02:38:29.000Z</time>
      </trkpt>
      <trkpt lat="44.95564" lon="0.83485">
        <ele>202.1</ele>
        <time>1970-01-01T02:38:30.000Z</time>
      </trkpt>
      <trkpt lat="44.95554" lon="0.83479">
        <ele>199.9</ele>
        <time>1970-01-01T02:38:31.000Z</time>
      </trkpt>
      <trkpt lat="44.95543" lon="0.83474">
        <ele>198.3</ele>
        <time>1970-01-01T02:38:32.000Z</time>
      </trkpt>
      <trkpt lat="44.95533" lon="0.83469">
        <ele>198.2</ele>
        <time>1970-01-01T02:38:33.000Z</time>
      </trkpt>
      <trkpt lat="44.95522" lon="0.83464">
        <ele>196.7</ele>
        <time>1970-01-01T02:38:34.000Z</time>
      </trkpt>
      <trkpt lat="44.9551" lon="0.8346">
        <ele>195.5</ele>
        <time>1970-01-01T02:38:35.000Z</time>
      </trkpt>
      <trkpt lat="44.95499" lon="0.83456">
        <ele>194.6</ele>
        <time>1970-01-01T02:38:36.000Z</time>
      </trkpt>
      <trkpt lat="44.95488" lon="0.83454">
        <ele>193.8</ele>
        <time>1970-01-01T02:38:37.000Z</time>
      </trkpt>
      <trkpt lat="44.95477" lon="0.83451">
        <ele>193.4</ele>
        <time>1970-01-01T02:38:38.000Z</time>
      </trkpt>
      <trkpt lat="44.95466" lon="0.83451">
        <ele>192.9</ele>
        <time>1970-01-01T02:38:39.000Z</time>
      </trkpt>
      <trkpt lat="44.95457" lon="0.8345">
        <ele>192.2</ele>
        <time>1970-01-01T02:38:40.000Z</time>
      </trkpt>
      <trkpt lat="44.95447" lon="0.83449">
        <ele>192.1</ele>
        <time>1970-01-01T02:38:41.000Z</time>
      </trkpt>
      <trkpt lat="44.95439" lon="0.83444">
        <ele>191.2</ele>
        <time>1970-01-01T02:38:42.000Z</time>
      </trkpt>
      <trkpt lat="44.95432" lon="0.83437">
        <ele>190.2</ele>
        <time>1970-01-01T02:38:43.000Z</time>
      </trkpt>
      <trkpt lat="44.95426" lon="0.83427">
        <ele>190.3</ele>
        <time>1970-01-01T02:38:44.000Z</time>
      </trkpt>
      <trkpt lat="44.95422" lon="0.83418">
        <ele>189.5</ele>
        <time>1970-01-01T02:38:45.000Z</time>
      </trkpt>
      <trkpt lat="44.95419" lon="0.83409">
        <ele>189.8</ele>
        <time>1970-01-01T02:38:46.000Z</time>
      </trkpt>
      <trkpt lat="44.95415" lon="0.83402">
        <ele>189.8</ele>
        <time>1970-01-01T02:38:47.000Z</time>
      </trkpt>
      <trkpt lat="44.95411" lon="0.83395">
        <ele>189.7</ele>
        <time>1970-01-01T02:38:48.000Z</time>
      </trkpt>
      <trkpt lat="44.95406" lon="0.83387">
        <ele>189.6</ele>
        <time>1970-01-01T02:38:49.000Z</time>
      </trkpt>
      <trkpt lat="44.95402" lon="0.83381">
        <ele>189.6</ele>
        <time>1970-01-01T02:38:50.000Z</time>
      </trkpt>
      <trkpt lat="44.95396" lon="0.83375">
        <ele>190</ele>
        <time>1970-01-01T02:38:51.000Z</time>
      </trkpt>
      <trkpt lat="44.95391" lon="0.83369">
        <ele>189.9</ele>
        <time>1970-01-01T02:38:52.000Z</time>
      </trkpt>
      <trkpt lat="44.95385" lon="0.83363">
        <ele>189.2</ele>
        <time>1970-01-01T02:38:53.000Z</time>
      </trkpt>
      <trkpt lat="44.95379" lon="0.83357">
        <ele>190.5</ele>
        <time>1970-01-01T02:38:54.000Z</time>
      </trkpt>
      <trkpt lat="44.95374" lon="0.83352">
        <ele>189.6</ele>
        <time>1970-01-01T02:38:55.000Z</time>
      </trkpt>
      <trkpt lat="44.95368" lon="0.83347">
        <ele>189.6</ele>
        <time>1970-01-01T02:38:56.000Z</time>
      </trkpt>
      <trkpt lat="44.95363" lon="0.83342">
        <ele>189.5</ele>
        <time>1970-01-01T02:38:57.000Z</time>
      </trkpt>
      <trkpt lat="44.95358" lon="0.83339">
        <ele>190.1</ele>
        <time>1970-01-01T02:38:58.000Z</time>
      </trkpt>
      <trkpt lat="44.95353" lon="0.83335">
        <ele>190</ele>
        <time>1970-01-01T02:38:59.000Z</time>
      </trkpt>
      <trkpt lat="44.9535" lon="0.83334">
        <ele>189.3</ele>
        <time>1970-01-01T02:39:00.000Z</time>
      </trkpt>
      <trkpt lat="44.95347" lon="0.83333">
        <ele>189.3</ele>
        <time>1970-01-01T02:39:01.000Z</time>
      </trkpt>
      <trkpt lat="44.95344" lon="0.83333">
        <ele>189.2</ele>
        <time>1970-01-01T02:39:02.000Z</time>
      </trkpt>
      <trkpt lat="44.95342" lon="0.83333">
        <ele>189.2</ele>
        <time>1970-01-01T02:39:03.000Z</time>
      </trkpt>
      <trkpt lat="44.9534" lon="0.83332">
        <ele>189.2</ele>
        <time>1970-01-01T02:39:04.000Z</time>
      </trkpt>
      <trkpt lat="44.95338" lon="0.8333">
        <ele>188.6</ele>
        <time>1970-01-01T02:39:05.000Z</time>
      </trkpt>
      <trkpt lat="44.95335" lon="0.83328">
        <ele>188.6</ele>
        <time>1970-01-01T02:39:06.000Z</time>
      </trkpt>
      <trkpt lat="44.95333" lon="0.83325">
        <ele>188.6</ele>
        <time>1970-01-01T02:39:07.000Z</time>
      </trkpt>
      <trkpt lat="44.95331" lon="0.83323">
        <ele>189.5</ele>
        <time>1970-01-01T02:39:08.000Z</time>
      </trkpt>
      <trkpt lat="44.95329" lon="0.8332">
        <ele>189.4</ele>
        <time>1970-01-01T02:39:09.000Z</time>
      </trkpt>
      <trkpt lat="44.95327" lon="0.83317">
        <ele>189.4</ele>
        <time>1970-01-01T02:39:10.000Z</time>
      </trkpt>
      <trkpt lat="44.95325" lon="0.83313">
        <ele>188.9</ele>
        <time>1970-01-01T02:39:11.000Z</time>
      </trkpt>
      <trkpt lat="44.95323" lon="0.8331">
        <ele>188.8</ele>
        <time>1970-01-01T02:39:12.000Z</time>
      </trkpt>
      <trkpt lat="44.95321" lon="0.83306">
        <ele>189.6</ele>
        <time>1970-01-01T02:39:13.000Z</time>
      </trkpt>
      <trkpt lat="44.95319" lon="0.83301">
        <ele>189.6</ele>
        <time>1970-01-01T02:39:14.000Z</time>
      </trkpt>
      <trkpt lat="44.95317" lon="0.83297">
        <ele>189.5</ele>
        <time>1970-01-01T02:39:15.000Z</time>
      </trkpt>
      <trkpt lat="44.95314" lon="0.83292">
        <ele>189.5</ele>
        <time>1970-01-01T02:39:16.000Z</time>
      </trkpt>
      <trkpt lat="44.95311" lon="0.83288">
        <ele>190.2</ele>
        <time>1970-01-01T02:39:17.000Z</time>
      </trkpt>
      <trkpt lat="44.95309" lon="0.83283">
        <ele>190.2</ele>
        <time>1970-01-01T02:39:18.000Z</time>
      </trkpt>
      <trkpt lat="44.95307" lon="0.83276">
        <ele>190.1</ele>
        <time>1970-01-01T02:39:19.000Z</time>
      </trkpt>
      <trkpt lat="44.95305" lon="0.8327">
        <ele>191</ele>
        <time>1970-01-01T02:39:20.000Z</time>
      </trkpt>
      <trkpt lat="44.95303" lon="0.83266">
        <ele>191</ele>
        <time>1970-01-01T02:39:21.000Z</time>
      </trkpt>
      <trkpt lat="44.95301" lon="0.83262">
        <ele>190.5</ele>
        <time>1970-01-01T02:39:22.000Z</time>
      </trkpt>
      <trkpt lat="44.95298" lon="0.83259">
        <ele>190.5</ele>
        <time>1970-01-01T02:39:23.000Z</time>
      </trkpt>
      <trkpt lat="44.95296" lon="0.83257">
        <ele>190.4</ele>
        <time>1970-01-01T02:39:24.000Z</time>
      </trkpt>
      <trkpt lat="44.95295" lon="0.83255">
        <ele>191.4</ele>
        <time>1970-01-01T02:39:25.000Z</time>
      </trkpt>
      <trkpt lat="44.95293" lon="0.83254">
        <ele>191.4</ele>
        <time>1970-01-01T02:39:26.000Z</time>
      </trkpt>
      <trkpt lat="44.95291" lon="0.83253">
        <ele>191.3</ele>
        <time>1970-01-01T02:39:27.000Z</time>
      </trkpt>
      <trkpt lat="44.95289" lon="0.83251">
        <ele>191.2</ele>
        <time>1970-01-01T02:39:28.000Z</time>
      </trkpt>
      <trkpt lat="44.95287" lon="0.83249">
        <ele>191.1</ele>
        <time>1970-01-01T02:39:29.000Z</time>
      </trkpt>
      <trkpt lat="44.95285" lon="0.83245">
        <ele>191.1</ele>
        <time>1970-01-01T02:39:30.000Z</time>
      </trkpt>
      <trkpt lat="44.95284" lon="0.83242">
        <ele>191.1</ele>
        <time>1970-01-01T02:39:31.000Z</time>
      </trkpt>
      <trkpt lat="44.95283" lon="0.83238">
        <ele>192</ele>
        <time>1970-01-01T02:39:32.000Z</time>
      </trkpt>
      <trkpt lat="44.95282" lon="0.83234">
        <ele>192</ele>
        <time>1970-01-01T02:39:33.000Z</time>
      </trkpt>
      <trkpt lat="44.9528" lon="0.83231">
        <ele>191.9</ele>
        <time>1970-01-01T02:39:34.000Z</time>
      </trkpt>
      <trkpt lat="44.95277" lon="0.83228">
        <ele>191.6</ele>
        <time>1970-01-01T02:39:35.000Z</time>
      </trkpt>
      <trkpt lat="44.95274" lon="0.83225">
        <ele>191.5</ele>
        <time>1970-01-01T02:39:36.000Z</time>
      </trkpt>
      <trkpt lat="44.95272" lon="0.83222">
        <ele>191.5</ele>
        <time>1970-01-01T02:39:37.000Z</time>
      </trkpt>
      <trkpt lat="44.9527" lon="0.83219">
        <ele>192.3</ele>
        <time>1970-01-01T02:39:38.000Z</time>
      </trkpt>
      <trkpt lat="44.95268" lon="0.83216">
        <ele>192.3</ele>
        <time>1970-01-01T02:39:39.000Z</time>
      </trkpt>
      <trkpt lat="44.95265" lon="0.83212">
        <ele>192.2</ele>
        <time>1970-01-01T02:39:40.000Z</time>
      </trkpt>
      <trkpt lat="44.95263" lon="0.83208">
        <ele>191.6</ele>
        <time>1970-01-01T02:39:41.000Z</time>
      </trkpt>
      <trkpt lat="44.95261" lon="0.83204">
        <ele>192.3</ele>
        <time>1970-01-01T02:39:42.000Z</time>
      </trkpt>
      <trkpt lat="44.95259" lon="0.832">
        <ele>192.3</ele>
        <time>1970-01-01T02:39:43.000Z</time>
      </trkpt>
      <trkpt lat="44.95257" lon="0.83197">
        <ele>192.2</ele>
        <time>1970-01-01T02:39:44.000Z</time>
      </trkpt>
      <trkpt lat="44.95255" lon="0.83193">
        <ele>192.2</ele>
        <time>1970-01-01T02:39:45.000Z</time>
      </trkpt>
      <trkpt lat="44.95253" lon="0.83191">
        <ele>191.1</ele>
        <time>1970-01-01T02:39:46.000Z</time>
      </trkpt>
      <trkpt lat="44.9525" lon="0.83188">
        <ele>191</ele>
        <time>1970-01-01T02:39:47.000Z</time>
      </trkpt>
      <trkpt lat="44.95248" lon="0.83186">
        <ele>191.4</ele>
        <time>1970-01-01T02:39:48.000Z</time>
      </trkpt>
      <trkpt lat="44.95245" lon="0.83184">
        <ele>191.3</ele>
        <time>1970-01-01T02:39:49.000Z</time>
      </trkpt>
      <trkpt lat="44.95242" lon="0.83182">
        <ele>191.3</ele>
        <time>1970-01-01T02:39:50.000Z</time>
      </trkpt>
      <trkpt lat="44.95239" lon="0.8318">
        <ele>190</ele>
        <time>1970-01-01T02:39:51.000Z</time>
      </trkpt>
      <trkpt lat="44.95236" lon="0.83178">
        <ele>190</ele>
        <time>1970-01-01T02:39:52.000Z</time>
      </trkpt>
      <trkpt lat="44.95233" lon="0.83176">
        <ele>190</ele>
        <time>1970-01-01T02:39:53.000Z</time>
      </trkpt>
      <trkpt lat="44.95231" lon="0.83173">
        <ele>189.9</ele>
        <time>1970-01-01T02:39:54.000Z</time>
      </trkpt>
      <trkpt lat="44.9523" lon="0.8317">
        <ele>189.9</ele>
        <time>1970-01-01T02:39:55.000Z</time>
      </trkpt>
      <trkpt lat="44.95228" lon="0.83167">
        <ele>189</ele>
        <time>1970-01-01T02:39:56.000Z</time>
      </trkpt>
      <trkpt lat="44.95225" lon="0.83164">
        <ele>189</ele>
        <time>1970-01-01T02:39:57.000Z</time>
      </trkpt>
      <trkpt lat="44.95223" lon="0.8316">
        <ele>188.9</ele>
        <time>1970-01-01T02:39:58.000Z</time>
      </trkpt>
      <trkpt lat="44.95221" lon="0.83156">
        <ele>188.9</ele>
        <time>1970-01-01T02:39:59.000Z</time>
      </trkpt>
      <trkpt lat="44.95219" lon="0.83152">
        <ele>189.1</ele>
        <time>1970-01-01T02:40:00.000Z</time>
      </trkpt>
      <trkpt lat="44.95217" lon="0.83148">
        <ele>189</ele>
        <time>1970-01-01T02:40:01.000Z</time>
      </trkpt>
      <trkpt lat="44.95216" lon="0.83143">
        <ele>188.3</ele>
        <time>1970-01-01T02:40:02.000Z</time>
      </trkpt>
      <trkpt lat="44.95215" lon="0.83138">
        <ele>188.2</ele>
        <time>1970-01-01T02:40:03.000Z</time>
      </trkpt>
      <trkpt lat="44.95215" lon="0.83133">
        <ele>188.2</ele>
        <time>1970-01-01T02:40:04.000Z</time>
      </trkpt>
      <trkpt lat="44.95214" lon="0.83127">
        <ele>188.2</ele>
        <time>1970-01-01T02:40:05.000Z</time>
      </trkpt>
      <trkpt lat="44.95214" lon="0.83121">
        <ele>188.2</ele>
        <time>1970-01-01T02:40:06.000Z</time>
      </trkpt>
      <trkpt lat="44.95213" lon="0.83116">
        <ele>187.8</ele>
        <time>1970-01-01T02:40:07.000Z</time>
      </trkpt>
      <trkpt lat="44.95211" lon="0.83111">
        <ele>187.7</ele>
        <time>1970-01-01T02:40:08.000Z</time>
      </trkpt>
      <trkpt lat="44.9521" lon="0.83106">
        <ele>187.7</ele>
        <time>1970-01-01T02:40:09.000Z</time>
      </trkpt>
      <trkpt lat="44.95209" lon="0.83102">
        <ele>187.7</ele>
        <time>1970-01-01T02:40:10.000Z</time>
      </trkpt>
      <trkpt lat="44.95208" lon="0.83097">
        <ele>186.8</ele>
        <time>1970-01-01T02:40:11.000Z</time>
      </trkpt>
      <trkpt lat="44.95208" lon="0.83093">
        <ele>186.8</ele>
        <time>1970-01-01T02:40:12.000Z</time>
      </trkpt>
      <trkpt lat="44.95208" lon="0.83088">
        <ele>186.7</ele>
        <time>1970-01-01T02:40:13.000Z</time>
      </trkpt>
      <trkpt lat="44.95207" lon="0.83083">
        <ele>185.6</ele>
        <time>1970-01-01T02:40:14.000Z</time>
      </trkpt>
      <trkpt lat="44.95207" lon="0.83079">
        <ele>185.6</ele>
        <time>1970-01-01T02:40:15.000Z</time>
      </trkpt>
      <trkpt lat="44.95206" lon="0.83075">
        <ele>185.5</ele>
        <time>1970-01-01T02:40:16.000Z</time>
      </trkpt>
      <trkpt lat="44.95206" lon="0.8307">
        <ele>185.5</ele>
        <time>1970-01-01T02:40:17.000Z</time>
      </trkpt>
      <trkpt lat="44.95206" lon="0.83065">
        <ele>184.4</ele>
        <time>1970-01-01T02:40:18.000Z</time>
      </trkpt>
      <trkpt lat="44.95205" lon="0.8306">
        <ele>184.4</ele>
        <time>1970-01-01T02:40:19.000Z</time>
      </trkpt>
      <trkpt lat="44.95205" lon="0.83055">
        <ele>184.3</ele>
        <time>1970-01-01T02:40:20.000Z</time>
      </trkpt>
      <trkpt lat="44.95205" lon="0.8305">
        <ele>184.3</ele>
        <time>1970-01-01T02:40:21.000Z</time>
      </trkpt>
      <trkpt lat="44.95205" lon="0.83045">
        <ele>183.5</ele>
        <time>1970-01-01T02:40:22.000Z</time>
      </trkpt>
      <trkpt lat="44.95204" lon="0.83041">
        <ele>183.2</ele>
        <time>1970-01-01T02:40:23.000Z</time>
      </trkpt>
      <trkpt lat="44.95203" lon="0.83037">
        <ele>183.2</ele>
        <time>1970-01-01T02:40:24.000Z</time>
      </trkpt>
      <trkpt lat="44.95203" lon="0.83033">
        <ele>183.2</ele>
        <time>1970-01-01T02:40:25.000Z</time>
      </trkpt>
      <trkpt lat="44.95201" lon="0.83029">
        <ele>182.8</ele>
        <time>1970-01-01T02:40:26.000Z</time>
      </trkpt>
      <trkpt lat="44.952" lon="0.83025">
        <ele>182.8</ele>
        <time>1970-01-01T02:40:27.000Z</time>
      </trkpt>
      <trkpt lat="44.95198" lon="0.83022">
        <ele>182.7</ele>
        <time>1970-01-01T02:40:28.000Z</time>
      </trkpt>
      <trkpt lat="44.95195" lon="0.83019">
        <ele>182.7</ele>
        <time>1970-01-01T02:40:29.000Z</time>
      </trkpt>
      <trkpt lat="44.95193" lon="0.83016">
        <ele>182.6</ele>
        <time>1970-01-01T02:40:30.000Z</time>
      </trkpt>
      <trkpt lat="44.95191" lon="0.83012">
        <ele>182</ele>
        <time>1970-01-01T02:40:31.000Z</time>
      </trkpt>
      <trkpt lat="44.9519" lon="0.83006">
        <ele>181.9</ele>
        <time>1970-01-01T02:40:32.000Z</time>
      </trkpt>
      <trkpt lat="44.9519" lon="0.83">
        <ele>181.9</ele>
        <time>1970-01-01T02:40:33.000Z</time>
      </trkpt>
      <trkpt lat="44.95189" lon="0.82993">
        <ele>181.4</ele>
        <time>1970-01-01T02:40:34.000Z</time>
      </trkpt>
      <trkpt lat="44.95187" lon="0.82987">
        <ele>181.4</ele>
        <time>1970-01-01T02:40:35.000Z</time>
      </trkpt>
      <trkpt lat="44.95185" lon="0.8298">
        <ele>181.2</ele>
        <time>1970-01-01T02:40:36.000Z</time>
      </trkpt>
      <trkpt lat="44.95184" lon="0.82973">
        <ele>181.1</ele>
        <time>1970-01-01T02:40:37.000Z</time>
      </trkpt>
      <trkpt lat="44.95183" lon="0.82966">
        <ele>181.1</ele>
        <time>1970-01-01T02:40:38.000Z</time>
      </trkpt>
      <trkpt lat="44.95182" lon="0.82959">
        <ele>180.8</ele>
        <time>1970-01-01T02:40:39.000Z</time>
      </trkpt>
      <trkpt lat="44.9518" lon="0.82951">
        <ele>180.8</ele>
        <time>1970-01-01T02:40:40.000Z</time>
      </trkpt>
      <trkpt lat="44.9518" lon="0.82944">
        <ele>179.7</ele>
        <time>1970-01-01T02:40:41.000Z</time>
      </trkpt>
      <trkpt lat="44.95178" lon="0.82937">
        <ele>179.7</ele>
        <time>1970-01-01T02:40:42.000Z</time>
      </trkpt>
      <trkpt lat="44.95177" lon="0.82929">
        <ele>179.2</ele>
        <time>1970-01-01T02:40:43.000Z</time>
      </trkpt>
      <trkpt lat="44.95175" lon="0.82922">
        <ele>179.1</ele>
        <time>1970-01-01T02:40:44.000Z</time>
      </trkpt>
      <trkpt lat="44.95173" lon="0.82915">
        <ele>179.1</ele>
        <time>1970-01-01T02:40:45.000Z</time>
      </trkpt>
      <trkpt lat="44.9517" lon="0.82909">
        <ele>178.7</ele>
        <time>1970-01-01T02:40:46.000Z</time>
      </trkpt>
      <trkpt lat="44.95168" lon="0.82901">
        <ele>178.6</ele>
        <time>1970-01-01T02:40:47.000Z</time>
      </trkpt>
      <trkpt lat="44.95166" lon="0.82893">
        <ele>178.3</ele>
        <time>1970-01-01T02:40:48.000Z</time>
      </trkpt>
      <trkpt lat="44.95164" lon="0.82884">
        <ele>178.2</ele>
        <time>1970-01-01T02:40:49.000Z</time>
      </trkpt>
      <trkpt lat="44.95163" lon="0.82876">
        <ele>178.2</ele>
        <time>1970-01-01T02:40:50.000Z</time>
      </trkpt>
      <trkpt lat="44.95162" lon="0.82868">
        <ele>178.1</ele>
        <time>1970-01-01T02:40:51.000Z</time>
      </trkpt>
      <trkpt lat="44.9516" lon="0.8286">
        <ele>178.3</ele>
        <time>1970-01-01T02:40:52.000Z</time>
      </trkpt>
      <trkpt lat="44.9516" lon="0.82852">
        <ele>178.2</ele>
        <time>1970-01-01T02:40:53.000Z</time>
      </trkpt>
      <trkpt lat="44.9516" lon="0.82843">
        <ele>178.5</ele>
        <time>1970-01-01T02:40:54.000Z</time>
      </trkpt>
      <trkpt lat="44.95162" lon="0.82835">
        <ele>178.4</ele>
        <time>1970-01-01T02:40:55.000Z</time>
      </trkpt>
      <trkpt lat="44.95163" lon="0.82828">
        <ele>178.4</ele>
        <time>1970-01-01T02:40:56.000Z</time>
      </trkpt>
      <trkpt lat="44.95163" lon="0.82821">
        <ele>178.6</ele>
        <time>1970-01-01T02:40:57.000Z</time>
      </trkpt>
      <trkpt lat="44.95162" lon="0.82815">
        <ele>178.6</ele>
        <time>1970-01-01T02:40:58.000Z</time>
      </trkpt>
      <trkpt lat="44.95161" lon="0.82811">
        <ele>178.5</ele>
        <time>1970-01-01T02:40:59.000Z</time>
      </trkpt>
      <trkpt lat="44.95159" lon="0.82808">
        <ele>178.7</ele>
        <time>1970-01-01T02:41:00.000Z</time>
      </trkpt>
      <trkpt lat="44.95156" lon="0.82806">
        <ele>178.7</ele>
        <time>1970-01-01T02:41:01.000Z</time>
      </trkpt>
      <trkpt lat="44.95154" lon="0.82804">
        <ele>178.6</ele>
        <time>1970-01-01T02:41:02.000Z</time>
      </trkpt>
      <trkpt lat="44.95151" lon="0.82801">
        <ele>178.6</ele>
        <time>1970-01-01T02:41:03.000Z</time>
      </trkpt>
      <trkpt lat="44.95149" lon="0.82799">
        <ele>178.6</ele>
        <time>1970-01-01T02:41:04.000Z</time>
      </trkpt>
      <trkpt lat="44.95146" lon="0.82797">
        <ele>178.5</ele>
        <time>1970-01-01T02:41:05.000Z</time>
      </trkpt>
      <trkpt lat="44.95143" lon="0.82795">
        <ele>178.8</ele>
        <time>1970-01-01T02:41:06.000Z</time>
      </trkpt>
      <trkpt lat="44.9514" lon="0.82793">
        <ele>178.8</ele>
        <time>1970-01-01T02:41:07.000Z</time>
      </trkpt>
      <trkpt lat="44.95137" lon="0.82791">
        <ele>179</ele>
        <time>1970-01-01T02:41:08.000Z</time>
      </trkpt>
      <trkpt lat="44.95134" lon="0.82789">
        <ele>179</ele>
        <time>1970-01-01T02:41:09.000Z</time>
      </trkpt>
      <trkpt lat="44.95131" lon="0.82786">
        <ele>179.8</ele>
        <time>1970-01-01T02:41:10.000Z</time>
      </trkpt>
      <trkpt lat="44.95129" lon="0.82784">
        <ele>179.7</ele>
        <time>1970-01-01T02:41:11.000Z</time>
      </trkpt>
      <trkpt lat="44.95126" lon="0.82782">
        <ele>179.7</ele>
        <time>1970-01-01T02:41:12.000Z</time>
      </trkpt>
      <trkpt lat="44.95124" lon="0.82779">
        <ele>179.7</ele>
        <time>1970-01-01T02:41:13.000Z</time>
      </trkpt>
      <trkpt lat="44.95122" lon="0.82777">
        <ele>179.6</ele>
        <time>1970-01-01T02:41:14.000Z</time>
      </trkpt>
      <trkpt lat="44.95119" lon="0.82774">
        <ele>181.3</ele>
        <time>1970-01-01T02:41:15.000Z</time>
      </trkpt>
      <trkpt lat="44.95117" lon="0.82772">
        <ele>181.2</ele>
        <time>1970-01-01T02:41:16.000Z</time>
      </trkpt>
      <trkpt lat="44.95115" lon="0.82769">
        <ele>181.2</ele>
        <time>1970-01-01T02:41:17.000Z</time>
      </trkpt>
      <trkpt lat="44.95113" lon="0.82767">
        <ele>181.1</ele>
        <time>1970-01-01T02:41:18.000Z</time>
      </trkpt>
      <trkpt lat="44.95111" lon="0.82766">
        <ele>181.1</ele>
        <time>1970-01-01T02:41:19.000Z</time>
      </trkpt>
      <trkpt lat="44.95109" lon="0.82764">
        <ele>181.1</ele>
        <time>1970-01-01T02:41:20.000Z</time>
      </trkpt>
      <trkpt lat="44.95106" lon="0.82762">
        <ele>182.4</ele>
        <time>1970-01-01T02:41:21.000Z</time>
      </trkpt>
      <trkpt lat="44.95104" lon="0.8276">
        <ele>182.4</ele>
        <time>1970-01-01T02:41:22.000Z</time>
      </trkpt>
      <trkpt lat="44.95102" lon="0.82758">
        <ele>183.1</ele>
        <time>1970-01-01T02:41:23.000Z</time>
      </trkpt>
      <trkpt lat="44.951" lon="0.82755">
        <ele>183</ele>
        <time>1970-01-01T02:41:24.000Z</time>
      </trkpt>
      <trkpt lat="44.95097" lon="0.82753">
        <ele>183</ele>
        <time>1970-01-01T02:41:25.000Z</time>
      </trkpt>
      <trkpt lat="44.95095" lon="0.82751">
        <ele>184.6</ele>
        <time>1970-01-01T02:41:26.000Z</time>
      </trkpt>
      <trkpt lat="44.95093" lon="0.82748">
        <ele>184.6</ele>
        <time>1970-01-01T02:41:27.000Z</time>
      </trkpt>
      <trkpt lat="44.9509" lon="0.82745">
        <ele>184.5</ele>
        <time>1970-01-01T02:41:28.000Z</time>
      </trkpt>
      <trkpt lat="44.95088" lon="0.82742">
        <ele>184.5</ele>
        <time>1970-01-01T02:41:29.000Z</time>
      </trkpt>
      <trkpt lat="44.95086" lon="0.8274">
        <ele>185.5</ele>
        <time>1970-01-01T02:41:30.000Z</time>
      </trkpt>
      <trkpt lat="44.95084" lon="0.82737">
        <ele>185.4</ele>
        <time>1970-01-01T02:41:31.000Z</time>
      </trkpt>
      <trkpt lat="44.95082" lon="0.82734">
        <ele>187.5</ele>
        <time>1970-01-01T02:41:32.000Z</time>
      </trkpt>
      <trkpt lat="44.95079" lon="0.82731">
        <ele>187.4</ele>
        <time>1970-01-01T02:41:33.000Z</time>
      </trkpt>
      <trkpt lat="44.95077" lon="0.82728">
        <ele>187.4</ele>
        <time>1970-01-01T02:41:34.000Z</time>
      </trkpt>
      <trkpt lat="44.95075" lon="0.82725">
        <ele>187.4</ele>
        <time>1970-01-01T02:41:35.000Z</time>
      </trkpt>
      <trkpt lat="44.95073" lon="0.82721">
        <ele>188.3</ele>
        <time>1970-01-01T02:41:36.000Z</time>
      </trkpt>
      <trkpt lat="44.95072" lon="0.82717">
        <ele>188.3</ele>
        <time>1970-01-01T02:41:37.000Z</time>
      </trkpt>
      <trkpt lat="44.9507" lon="0.82714">
        <ele>190</ele>
        <time>1970-01-01T02:41:38.000Z</time>
      </trkpt>
      <trkpt lat="44.95069" lon="0.8271">
        <ele>189.9</ele>
        <time>1970-01-01T02:41:39.000Z</time>
      </trkpt>
      <trkpt lat="44.95069" lon="0.82706">
        <ele>190.8</ele>
        <time>1970-01-01T02:41:40.000Z</time>
      </trkpt>
      <trkpt lat="44.95069" lon="0.82701">
        <ele>190.8</ele>
        <time>1970-01-01T02:41:41.000Z</time>
      </trkpt>
      <trkpt lat="44.95069" lon="0.82697">
        <ele>190.8</ele>
        <time>1970-01-01T02:41:42.000Z</time>
      </trkpt>
      <trkpt lat="44.9507" lon="0.82693">
        <ele>190.7</ele>
        <time>1970-01-01T02:41:43.000Z</time>
      </trkpt>
      <trkpt lat="44.9507" lon="0.82689">
        <ele>191.9</ele>
        <time>1970-01-01T02:41:44.000Z</time>
      </trkpt>
      <trkpt lat="44.95071" lon="0.82684">
        <ele>190.6</ele>
        <time>1970-01-01T02:41:45.000Z</time>
      </trkpt>
      <trkpt lat="44.95072" lon="0.8268">
        <ele>190.5</ele>
        <time>1970-01-01T02:41:46.000Z</time>
      </trkpt>
      <trkpt lat="44.95074" lon="0.82677">
        <ele>190.5</ele>
        <time>1970-01-01T02:41:47.000Z</time>
      </trkpt>
      <trkpt lat="44.95075" lon="0.82673">
        <ele>190.5</ele>
        <time>1970-01-01T02:41:48.000Z</time>
      </trkpt>
      <trkpt lat="44.95076" lon="0.82669">
        <ele>191.7</ele>
        <time>1970-01-01T02:41:49.000Z</time>
      </trkpt>
      <trkpt lat="44.95077" lon="0.82665">
        <ele>191.6</ele>
        <time>1970-01-01T02:41:50.000Z</time>
      </trkpt>
      <trkpt lat="44.95078" lon="0.82662">
        <ele>191.6</ele>
        <time>1970-01-01T02:41:51.000Z</time>
      </trkpt>
      <trkpt lat="44.95079" lon="0.82659">
        <ele>191.6</ele>
        <time>1970-01-01T02:41:52.000Z</time>
      </trkpt>
      <trkpt lat="44.9508" lon="0.82656">
        <ele>191.5</ele>
        <time>1970-01-01T02:41:53.000Z</time>
      </trkpt>
      <trkpt lat="44.9508" lon="0.82653">
        <ele>192.4</ele>
        <time>1970-01-01T02:41:54.000Z</time>
      </trkpt>
      <trkpt lat="44.95079" lon="0.82651">
        <ele>192.6</ele>
        <time>1970-01-01T02:41:55.000Z</time>
      </trkpt>
      <trkpt lat="44.95077" lon="0.82648">
        <ele>192.8</ele>
        <time>1970-01-01T02:41:56.000Z</time>
      </trkpt>
      <trkpt lat="44.95075" lon="0.82646">
        <ele>193</ele>
        <time>1970-01-01T02:41:57.000Z</time>
      </trkpt>
      <trkpt lat="44.95073" lon="0.82644">
        <ele>193.3</ele>
        <time>1970-01-01T02:41:58.000Z</time>
      </trkpt>
      <trkpt lat="44.95071" lon="0.82642">
        <ele>193.6</ele>
        <time>1970-01-01T02:41:59.000Z</time>
      </trkpt>
      <trkpt lat="44.95069" lon="0.82641">
        <ele>193.8</ele>
        <time>1970-01-01T02:42:00.000Z</time>
      </trkpt>
      <trkpt lat="44.95066" lon="0.8264">
        <ele>194.1</ele>
        <time>1970-01-01T02:42:01.000Z</time>
      </trkpt>
      <trkpt lat="44.95064" lon="0.82638">
        <ele>194.4</ele>
        <time>1970-01-01T02:42:02.000Z</time>
      </trkpt>
      <trkpt lat="44.95061" lon="0.82636">
        <ele>194.7</ele>
        <time>1970-01-01T02:42:03.000Z</time>
      </trkpt>
      <trkpt lat="44.95058" lon="0.82634">
        <ele>195</ele>
        <time>1970-01-01T02:42:04.000Z</time>
      </trkpt>
      <trkpt lat="44.95056" lon="0.82633">
        <ele>195.3</ele>
        <time>1970-01-01T02:42:05.000Z</time>
      </trkpt>
      <trkpt lat="44.95053" lon="0.82631">
        <ele>195.6</ele>
        <time>1970-01-01T02:42:06.000Z</time>
      </trkpt>
      <trkpt lat="44.95051" lon="0.8263">
        <ele>195.9</ele>
        <time>1970-01-01T02:42:07.000Z</time>
      </trkpt>
      <trkpt lat="44.95049" lon="0.82628">
        <ele>196.2</ele>
        <time>1970-01-01T02:42:08.000Z</time>
      </trkpt>
      <trkpt lat="44.95047" lon="0.82627">
        <ele>196.5</ele>
        <time>1970-01-01T02:42:09.000Z</time>
      </trkpt>
      <trkpt lat="44.95045" lon="0.82626">
        <ele>196.8</ele>
        <time>1970-01-01T02:42:10.000Z</time>
      </trkpt>
      <trkpt lat="44.95043" lon="0.82624">
        <ele>197</ele>
        <time>1970-01-01T02:42:11.000Z</time>
      </trkpt>
      <trkpt lat="44.95041" lon="0.82623">
        <ele>197.4</ele>
        <time>1970-01-01T02:42:12.000Z</time>
      </trkpt>
      <trkpt lat="44.95039" lon="0.82621">
        <ele>197.7</ele>
        <time>1970-01-01T02:42:13.000Z</time>
      </trkpt>
      <trkpt lat="44.95037" lon="0.8262">
        <ele>198.1</ele>
        <time>1970-01-01T02:42:14.000Z</time>
      </trkpt>
      <trkpt lat="44.95035" lon="0.82618">
        <ele>198.4</ele>
        <time>1970-01-01T02:42:15.000Z</time>
      </trkpt>
      <trkpt lat="44.95033" lon="0.82617">
        <ele>198.7</ele>
        <time>1970-01-01T02:42:16.000Z</time>
      </trkpt>
      <trkpt lat="44.95031" lon="0.82616">
        <ele>199.1</ele>
        <time>1970-01-01T02:42:17.000Z</time>
      </trkpt>
      <trkpt lat="44.95029" lon="0.82615">
        <ele>199.4</ele>
        <time>1970-01-01T02:42:18.000Z</time>
      </trkpt>
      <trkpt lat="44.95027" lon="0.82614">
        <ele>199.7</ele>
        <time>1970-01-01T02:42:19.000Z</time>
      </trkpt>
      <trkpt lat="44.95025" lon="0.82614">
        <ele>200</ele>
        <time>1970-01-01T02:42:20.000Z</time>
      </trkpt>
      <trkpt lat="44.95023" lon="0.82613">
        <ele>200.3</ele>
        <time>1970-01-01T02:42:21.000Z</time>
      </trkpt>
      <trkpt lat="44.95021" lon="0.82612">
        <ele>200.6</ele>
        <time>1970-01-01T02:42:22.000Z</time>
      </trkpt>
      <trkpt lat="44.95019" lon="0.82611">
        <ele>200.9</ele>
        <time>1970-01-01T02:42:23.000Z</time>
      </trkpt>
      <trkpt lat="44.95017" lon="0.8261">
        <ele>201.3</ele>
        <time>1970-01-01T02:42:24.000Z</time>
      </trkpt>
      <trkpt lat="44.95016" lon="0.82609">
        <ele>201.6</ele>
        <time>1970-01-01T02:42:25.000Z</time>
      </trkpt>
      <trkpt lat="44.95014" lon="0.82608">
        <ele>201.9</ele>
        <time>1970-01-01T02:42:26.000Z</time>
      </trkpt>
      <trkpt lat="44.95012" lon="0.82607">
        <ele>202.2</ele>
        <time>1970-01-01T02:42:27.000Z</time>
      </trkpt>
      <trkpt lat="44.9501" lon="0.82606">
        <ele>202.5</ele>
        <time>1970-01-01T02:42:28.000Z</time>
      </trkpt>
      <trkpt lat="44.95008" lon="0.82605">
        <ele>202.8</ele>
        <time>1970-01-01T02:42:29.000Z</time>
      </trkpt>
      <trkpt lat="44.95006" lon="0.82604">
        <ele>203.1</ele>
        <time>1970-01-01T02:42:30.000Z</time>
      </trkpt>
      <trkpt lat="44.95004" lon="0.82603">
        <ele>203.4</ele>
        <time>1970-01-01T02:42:31.000Z</time>
      </trkpt>
      <trkpt lat="44.95002" lon="0.82602">
        <ele>203.7</ele>
        <time>1970-01-01T02:42:32.000Z</time>
      </trkpt>
      <trkpt lat="44.95" lon="0.82601">
        <ele>204</ele>
        <time>1970-01-01T02:42:33.000Z</time>
      </trkpt>
      <trkpt lat="44.94998" lon="0.82599">
        <ele>204.2</ele>
        <time>1970-01-01T02:42:34.000Z</time>
      </trkpt>
      <trkpt lat="44.94996" lon="0.82597">
        <ele>204.5</ele>
        <time>1970-01-01T02:42:35.000Z</time>
      </trkpt>
      <trkpt lat="44.94994" lon="0.82596">
        <ele>204.7</ele>
        <time>1970-01-01T02:42:36.000Z</time>
      </trkpt>
      <trkpt lat="44.94992" lon="0.82594">
        <ele>205</ele>
        <time>1970-01-01T02:42:37.000Z</time>
      </trkpt>
      <trkpt lat="44.94991" lon="0.82592">
        <ele>205.3</ele>
        <time>1970-01-01T02:42:38.000Z</time>
      </trkpt>
      <trkpt lat="44.94989" lon="0.82591">
        <ele>205.5</ele>
        <time>1970-01-01T02:42:39.000Z</time>
      </trkpt>
      <trkpt lat="44.94988" lon="0.82588">
        <ele>205.8</ele>
        <time>1970-01-01T02:42:40.000Z</time>
      </trkpt>
      <trkpt lat="44.94986" lon="0.82586">
        <ele>206.1</ele>
        <time>1970-01-01T02:42:41.000Z</time>
      </trkpt>
      <trkpt lat="44.94985" lon="0.82584">
        <ele>206.4</ele>
        <time>1970-01-01T02:42:42.000Z</time>
      </trkpt>
      <trkpt lat="44.94983" lon="0.82582">
        <ele>206.7</ele>
        <time>1970-01-01T02:42:43.000Z</time>
      </trkpt>
      <trkpt lat="44.94982" lon="0.82579">
        <ele>207</ele>
        <time>1970-01-01T02:42:44.000Z</time>
      </trkpt>
      <trkpt lat="44.9498" lon="0.82577">
        <ele>207.3</ele>
        <time>1970-01-01T02:42:45.000Z</time>
      </trkpt>
      <trkpt lat="44.94979" lon="0.82575">
        <ele>207.5</ele>
        <time>1970-01-01T02:42:46.000Z</time>
      </trkpt>
      <trkpt lat="44.94977" lon="0.82573">
        <ele>207.8</ele>
        <time>1970-01-01T02:42:47.000Z</time>
      </trkpt>
      <trkpt lat="44.94975" lon="0.82571">
        <ele>208.1</ele>
        <time>1970-01-01T02:42:48.000Z</time>
      </trkpt>
      <trkpt lat="44.94973" lon="0.82568">
        <ele>208.4</ele>
        <time>1970-01-01T02:42:49.000Z</time>
      </trkpt>
      <trkpt lat="44.94972" lon="0.82566">
        <ele>208.6</ele>
        <time>1970-01-01T02:42:50.000Z</time>
      </trkpt>
      <trkpt lat="44.9497" lon="0.82563">
        <ele>208.9</ele>
        <time>1970-01-01T02:42:51.000Z</time>
      </trkpt>
      <trkpt lat="44.94969" lon="0.82561">
        <ele>209.1</ele>
        <time>1970-01-01T02:42:52.000Z</time>
      </trkpt>
      <trkpt lat="44.94967" lon="0.82558">
        <ele>209.3</ele>
        <time>1970-01-01T02:42:53.000Z</time>
      </trkpt>
      <trkpt lat="44.94966" lon="0.82556">
        <ele>209.4</ele>
        <time>1970-01-01T02:42:54.000Z</time>
      </trkpt>
      <trkpt lat="44.94964" lon="0.82555">
        <ele>209.6</ele>
        <time>1970-01-01T02:42:55.000Z</time>
      </trkpt>
      <trkpt lat="44.94962" lon="0.82554">
        <ele>209.8</ele>
        <time>1970-01-01T02:42:56.000Z</time>
      </trkpt>
      <trkpt lat="44.9496" lon="0.82553">
        <ele>209.9</ele>
        <time>1970-01-01T02:42:57.000Z</time>
      </trkpt>
      <trkpt lat="44.94958" lon="0.82552">
        <ele>210</ele>
        <time>1970-01-01T02:42:58.000Z</time>
      </trkpt>
      <trkpt lat="44.94956" lon="0.82553">
        <ele>210.1</ele>
        <time>1970-01-01T02:42:59.000Z</time>
      </trkpt>
      <trkpt lat="44.94954" lon="0.82555">
        <ele>210.2</ele>
        <time>1970-01-01T02:43:00.000Z</time>
      </trkpt>
      <trkpt lat="44.94951" lon="0.82557">
        <ele>210.4</ele>
        <time>1970-01-01T02:43:01.000Z</time>
      </trkpt>
      <trkpt lat="44.94947" lon="0.8256">
        <ele>210.5</ele>
        <time>1970-01-01T02:43:02.000Z</time>
      </trkpt>
      <trkpt lat="44.94943" lon="0.82562">
        <ele>210.7</ele>
        <time>1970-01-01T02:43:03.000Z</time>
      </trkpt>
      <trkpt lat="44.9494" lon="0.82564">
        <ele>210.8</ele>
        <time>1970-01-01T02:43:04.000Z</time>
      </trkpt>
      <trkpt lat="44.94936" lon="0.82566">
        <ele>210.9</ele>
        <time>1970-01-01T02:43:05.000Z</time>
      </trkpt>
      <trkpt lat="44.94933" lon="0.82568">
        <ele>211</ele>
        <time>1970-01-01T02:43:06.000Z</time>
      </trkpt>
      <trkpt lat="44.94929" lon="0.82571">
        <ele>211.1</ele>
        <time>1970-01-01T02:43:07.000Z</time>
      </trkpt>
      <trkpt lat="44.94926" lon="0.82574">
        <ele>211.2</ele>
        <time>1970-01-01T02:43:08.000Z</time>
      </trkpt>
      <trkpt lat="44.94923" lon="0.82578">
        <ele>211.3</ele>
        <time>1970-01-01T02:43:09.000Z</time>
      </trkpt>
      <trkpt lat="44.9492" lon="0.82583">
        <ele>211.4</ele>
        <time>1970-01-01T02:43:10.000Z</time>
      </trkpt>
      <trkpt lat="44.94918" lon="0.82587">
        <ele>211.4</ele>
        <time>1970-01-01T02:43:11.000Z</time>
      </trkpt>
      <trkpt lat="44.94915" lon="0.82592">
        <ele>211.5</ele>
        <time>1970-01-01T02:43:12.000Z</time>
      </trkpt>
      <trkpt lat="44.94913" lon="0.82597">
        <ele>211.6</ele>
        <time>1970-01-01T02:43:13.000Z</time>
      </trkpt>
      <trkpt lat="44.94911" lon="0.82602">
        <ele>211.7</ele>
        <time>1970-01-01T02:43:14.000Z</time>
      </trkpt>
      <trkpt lat="44.94909" lon="0.82606">
        <ele>211.7</ele>
        <time>1970-01-01T02:43:15.000Z</time>
      </trkpt>
      <trkpt lat="44.94908" lon="0.82611">
        <ele>211.8</ele>
        <time>1970-01-01T02:43:16.000Z</time>
      </trkpt>
      <trkpt lat="44.94906" lon="0.82616">
        <ele>211.8</ele>
        <time>1970-01-01T02:43:17.000Z</time>
      </trkpt>
      <trkpt lat="44.94903" lon="0.82621">
        <ele>211.9</ele>
        <time>1970-01-01T02:43:18.000Z</time>
      </trkpt>
      <trkpt lat="44.949" lon="0.82625">
        <ele>211.9</ele>
        <time>1970-01-01T02:43:19.000Z</time>
      </trkpt>
      <trkpt lat="44.94897" lon="0.82627">
        <ele>211.9</ele>
        <time>1970-01-01T02:43:20.000Z</time>
      </trkpt>
      <trkpt lat="44.94894" lon="0.82627">
        <ele>211.9</ele>
        <time>1970-01-01T02:43:21.000Z</time>
      </trkpt>
      <trkpt lat="44.94891" lon="0.82627">
        <ele>211.8</ele>
        <time>1970-01-01T02:43:22.000Z</time>
      </trkpt>
      <trkpt lat="44.94889" lon="0.82625">
        <ele>211.7</ele>
        <time>1970-01-01T02:43:23.000Z</time>
      </trkpt>
      <trkpt lat="44.94888" lon="0.82622">
        <ele>211.9</ele>
        <time>1970-01-01T02:43:24.000Z</time>
      </trkpt>
      <trkpt lat="44.94886" lon="0.82619">
        <ele>211.5</ele>
        <time>1970-01-01T02:43:25.000Z</time>
      </trkpt>
      <trkpt lat="44.94884" lon="0.82615">
        <ele>211.4</ele>
        <time>1970-01-01T02:43:26.000Z</time>
      </trkpt>
      <trkpt lat="44.94883" lon="0.82611">
        <ele>211.4</ele>
        <time>1970-01-01T02:43:27.000Z</time>
      </trkpt>
      <trkpt lat="44.94881" lon="0.82606">
        <ele>211.3</ele>
        <time>1970-01-01T02:43:28.000Z</time>
      </trkpt>
      <trkpt lat="44.9488" lon="0.82601">
        <ele>210.9</ele>
        <time>1970-01-01T02:43:29.000Z</time>
      </trkpt>
      <trkpt lat="44.94878" lon="0.82596">
        <ele>210.9</ele>
        <time>1970-01-01T02:43:30.000Z</time>
      </trkpt>
      <trkpt lat="44.94877" lon="0.82591">
        <ele>210.8</ele>
        <time>1970-01-01T02:43:31.000Z</time>
      </trkpt>
      <trkpt lat="44.94875" lon="0.82586">
        <ele>210.3</ele>
        <time>1970-01-01T02:43:32.000Z</time>
      </trkpt>
      <trkpt lat="44.94874" lon="0.82581">
        <ele>210.2</ele>
        <time>1970-01-01T02:43:33.000Z</time>
      </trkpt>
      <trkpt lat="44.94873" lon="0.82576">
        <ele>210.1</ele>
        <time>1970-01-01T02:43:34.000Z</time>
      </trkpt>
      <trkpt lat="44.94872" lon="0.82571">
        <ele>210.1</ele>
        <time>1970-01-01T02:43:35.000Z</time>
      </trkpt>
      <trkpt lat="44.94872" lon="0.82565">
        <ele>209.7</ele>
        <time>1970-01-01T02:43:36.000Z</time>
      </trkpt>
      <trkpt lat="44.94871" lon="0.82559">
        <ele>209.6</ele>
        <time>1970-01-01T02:43:37.000Z</time>
      </trkpt>
      <trkpt lat="44.9487" lon="0.82554">
        <ele>209.6</ele>
        <time>1970-01-01T02:43:38.000Z</time>
      </trkpt>
      <trkpt lat="44.94869" lon="0.82547">
        <ele>209.1</ele>
        <time>1970-01-01T02:43:39.000Z</time>
      </trkpt>
      <trkpt lat="44.94869" lon="0.82541">
        <ele>209.1</ele>
        <time>1970-01-01T02:43:40.000Z</time>
      </trkpt>
      <trkpt lat="44.94868" lon="0.82534">
        <ele>208.6</ele>
        <time>1970-01-01T02:43:41.000Z</time>
      </trkpt>
      <trkpt lat="44.94867" lon="0.82527">
        <ele>208.6</ele>
        <time>1970-01-01T02:43:42.000Z</time>
      </trkpt>
      <trkpt lat="44.94866" lon="0.8252">
        <ele>208.5</ele>
        <time>1970-01-01T02:43:43.000Z</time>
      </trkpt>
      <trkpt lat="44.94865" lon="0.82512">
        <ele>208.1</ele>
        <time>1970-01-01T02:43:44.000Z</time>
      </trkpt>
      <trkpt lat="44.94864" lon="0.82504">
        <ele>208.1</ele>
        <time>1970-01-01T02:43:45.000Z</time>
      </trkpt>
      <trkpt lat="44.94864" lon="0.82496">
        <ele>207.1</ele>
        <time>1970-01-01T02:43:46.000Z</time>
      </trkpt>
      <trkpt lat="44.94863" lon="0.82486">
        <ele>207</ele>
        <time>1970-01-01T02:43:47.000Z</time>
      </trkpt>
      <trkpt lat="44.94862" lon="0.82477">
        <ele>206.9</ele>
        <time>1970-01-01T02:43:48.000Z</time>
      </trkpt>
      <trkpt lat="44.94862" lon="0.82467">
        <ele>206.7</ele>
        <time>1970-01-01T02:43:49.000Z</time>
      </trkpt>
      <trkpt lat="44.94861" lon="0.82458">
        <ele>206.6</ele>
        <time>1970-01-01T02:43:50.000Z</time>
      </trkpt>
      <trkpt lat="44.94861" lon="0.82447">
        <ele>206.5</ele>
        <time>1970-01-01T02:43:51.000Z</time>
      </trkpt>
      <trkpt lat="44.94861" lon="0.82437">
        <ele>206.4</ele>
        <time>1970-01-01T02:43:52.000Z</time>
      </trkpt>
      <trkpt lat="44.9486" lon="0.82427">
        <ele>206.3</ele>
        <time>1970-01-01T02:43:53.000Z</time>
      </trkpt>
      <trkpt lat="44.9486" lon="0.82417">
        <ele>206.2</ele>
        <time>1970-01-01T02:43:54.000Z</time>
      </trkpt>
      <trkpt lat="44.94859" lon="0.82408">
        <ele>206.1</ele>
        <time>1970-01-01T02:43:55.000Z</time>
      </trkpt>
      <trkpt lat="44.94858" lon="0.82399">
        <ele>206.1</ele>
        <time>1970-01-01T02:43:56.000Z</time>
      </trkpt>
      <trkpt lat="44.94857" lon="0.8239">
        <ele>206.1</ele>
        <time>1970-01-01T02:43:57.000Z</time>
      </trkpt>
      <trkpt lat="44.94855" lon="0.82382">
        <ele>206.1</ele>
        <time>1970-01-01T02:43:58.000Z</time>
      </trkpt>
      <trkpt lat="44.94853" lon="0.82374">
        <ele>206</ele>
        <time>1970-01-01T02:43:59.000Z</time>
      </trkpt>
      <trkpt lat="44.94852" lon="0.82366">
        <ele>206</ele>
        <time>1970-01-01T02:44:00.000Z</time>
      </trkpt>
      <trkpt lat="44.94852" lon="0.82358">
        <ele>206</ele>
        <time>1970-01-01T02:44:01.000Z</time>
      </trkpt>
      <trkpt lat="44.94851" lon="0.8235">
        <ele>205.9</ele>
        <time>1970-01-01T02:44:02.000Z</time>
      </trkpt>
      <trkpt lat="44.94851" lon="0.82343">
        <ele>205.9</ele>
        <time>1970-01-01T02:44:03.000Z</time>
      </trkpt>
      <trkpt lat="44.9485" lon="0.82335">
        <ele>205.9</ele>
        <time>1970-01-01T02:44:04.000Z</time>
      </trkpt>
      <trkpt lat="44.94849" lon="0.82328">
        <ele>206</ele>
        <time>1970-01-01T02:44:05.000Z</time>
      </trkpt>
      <trkpt lat="44.94848" lon="0.82322">
        <ele>206</ele>
        <time>1970-01-01T02:44:06.000Z</time>
      </trkpt>
      <trkpt lat="44.94847" lon="0.82315">
        <ele>206</ele>
        <time>1970-01-01T02:44:07.000Z</time>
      </trkpt>
      <trkpt lat="44.94846" lon="0.82309">
        <ele>206.1</ele>
        <time>1970-01-01T02:44:08.000Z</time>
      </trkpt>
      <trkpt lat="44.94845" lon="0.82302">
        <ele>206.2</ele>
        <time>1970-01-01T02:44:09.000Z</time>
      </trkpt>
      <trkpt lat="44.94843" lon="0.82296">
        <ele>206.3</ele>
        <time>1970-01-01T02:44:10.000Z</time>
      </trkpt>
      <trkpt lat="44.94842" lon="0.8229">
        <ele>206.4</ele>
        <time>1970-01-01T02:44:11.000Z</time>
      </trkpt>
      <trkpt lat="44.9484" lon="0.82283">
        <ele>206.5</ele>
        <time>1970-01-01T02:44:12.000Z</time>
      </trkpt>
      <trkpt lat="44.94838" lon="0.82277">
        <ele>206.6</ele>
        <time>1970-01-01T02:44:13.000Z</time>
      </trkpt>
      <trkpt lat="44.94836" lon="0.82271">
        <ele>206.8</ele>
        <time>1970-01-01T02:44:14.000Z</time>
      </trkpt>
      <trkpt lat="44.94833" lon="0.82265">
        <ele>206.9</ele>
        <time>1970-01-01T02:44:15.000Z</time>
      </trkpt>
      <trkpt lat="44.94831" lon="0.82259">
        <ele>207</ele>
        <time>1970-01-01T02:44:16.000Z</time>
      </trkpt>
      <trkpt lat="44.94828" lon="0.82253">
        <ele>207.1</ele>
        <time>1970-01-01T02:44:17.000Z</time>
      </trkpt>
      <trkpt lat="44.94826" lon="0.82247">
        <ele>207.3</ele>
        <time>1970-01-01T02:44:18.000Z</time>
      </trkpt>
      <trkpt lat="44.94823" lon="0.82241">
        <ele>207.5</ele>
        <time>1970-01-01T02:44:19.000Z</time>
      </trkpt>
      <trkpt lat="44.9482" lon="0.82236">
        <ele>207.6</ele>
        <time>1970-01-01T02:44:20.000Z</time>
      </trkpt>
      <trkpt lat="44.94817" lon="0.8223">
        <ele>207.8</ele>
        <time>1970-01-01T02:44:21.000Z</time>
      </trkpt>
      <trkpt lat="44.94814" lon="0.82224">
        <ele>208.1</ele>
        <time>1970-01-01T02:44:22.000Z</time>
      </trkpt>
      <trkpt lat="44.9481" lon="0.82218">
        <ele>208.3</ele>
        <time>1970-01-01T02:44:23.000Z</time>
      </trkpt>
      <trkpt lat="44.94807" lon="0.82213">
        <ele>208.5</ele>
        <time>1970-01-01T02:44:24.000Z</time>
      </trkpt>
      <trkpt lat="44.94803" lon="0.82207">
        <ele>208.7</ele>
        <time>1970-01-01T02:44:25.000Z</time>
      </trkpt>
      <trkpt lat="44.94799" lon="0.82202">
        <ele>208.9</ele>
        <time>1970-01-01T02:44:26.000Z</time>
      </trkpt>
      <trkpt lat="44.94795" lon="0.82197">
        <ele>209.1</ele>
        <time>1970-01-01T02:44:27.000Z</time>
      </trkpt>
      <trkpt lat="44.94791" lon="0.82192">
        <ele>209.4</ele>
        <time>1970-01-01T02:44:28.000Z</time>
      </trkpt>
      <trkpt lat="44.94786" lon="0.82188">
        <ele>209.6</ele>
        <time>1970-01-01T02:44:29.000Z</time>
      </trkpt>
      <trkpt lat="44.94782" lon="0.82183">
        <ele>209.8</ele>
        <time>1970-01-01T02:44:30.000Z</time>
      </trkpt>
      <trkpt lat="44.94778" lon="0.82178">
        <ele>210</ele>
        <time>1970-01-01T02:44:31.000Z</time>
      </trkpt>
      <trkpt lat="44.94774" lon="0.82174">
        <ele>210.2</ele>
        <time>1970-01-01T02:44:32.000Z</time>
      </trkpt>
      <trkpt lat="44.9477" lon="0.8217">
        <ele>210.4</ele>
        <time>1970-01-01T02:44:33.000Z</time>
      </trkpt>
      <trkpt lat="44.94765" lon="0.82166">
        <ele>210.6</ele>
        <time>1970-01-01T02:44:34.000Z</time>
      </trkpt>
      <trkpt lat="44.94761" lon="0.82162">
        <ele>210.8</ele>
        <time>1970-01-01T02:44:35.000Z</time>
      </trkpt>
      <trkpt lat="44.94758" lon="0.82159">
        <ele>210.9</ele>
        <time>1970-01-01T02:44:36.000Z</time>
      </trkpt>
      <trkpt lat="44.94754" lon="0.82155">
        <ele>211.1</ele>
        <time>1970-01-01T02:44:37.000Z</time>
      </trkpt>
      <trkpt lat="44.94751" lon="0.82152">
        <ele>211.2</ele>
        <time>1970-01-01T02:44:38.000Z</time>
      </trkpt>
      <trkpt lat="44.94748" lon="0.82148">
        <ele>211.4</ele>
        <time>1970-01-01T02:44:39.000Z</time>
      </trkpt>
      <trkpt lat="44.94745" lon="0.82144">
        <ele>211.6</ele>
        <time>1970-01-01T02:44:40.000Z</time>
      </trkpt>
      <trkpt lat="44.94741" lon="0.8214">
        <ele>211.7</ele>
        <time>1970-01-01T02:44:41.000Z</time>
      </trkpt>
      <trkpt lat="44.94738" lon="0.82137">
        <ele>211.9</ele>
        <time>1970-01-01T02:44:42.000Z</time>
      </trkpt>
      <trkpt lat="44.94735" lon="0.82133">
        <ele>212.1</ele>
        <time>1970-01-01T02:44:43.000Z</time>
      </trkpt>
      <trkpt lat="44.94732" lon="0.82128">
        <ele>212.2</ele>
        <time>1970-01-01T02:44:44.000Z</time>
      </trkpt>
      <trkpt lat="44.94729" lon="0.82124">
        <ele>212.3</ele>
        <time>1970-01-01T02:44:45.000Z</time>
      </trkpt>
      <trkpt lat="44.94726" lon="0.8212">
        <ele>212.4</ele>
        <time>1970-01-01T02:44:46.000Z</time>
      </trkpt>
      <trkpt lat="44.94723" lon="0.82115">
        <ele>212.5</ele>
        <time>1970-01-01T02:44:47.000Z</time>
      </trkpt>
      <trkpt lat="44.94721" lon="0.82111">
        <ele>212.5</ele>
        <time>1970-01-01T02:44:48.000Z</time>
      </trkpt>
      <trkpt lat="44.94718" lon="0.82106">
        <ele>212.5</ele>
        <time>1970-01-01T02:44:49.000Z</time>
      </trkpt>
      <trkpt lat="44.94716" lon="0.82101">
        <ele>212.5</ele>
        <time>1970-01-01T02:44:50.000Z</time>
      </trkpt>
      <trkpt lat="44.94713" lon="0.82096">
        <ele>212.5</ele>
        <time>1970-01-01T02:44:51.000Z</time>
      </trkpt>
      <trkpt lat="44.94711" lon="0.82091">
        <ele>212.4</ele>
        <time>1970-01-01T02:44:52.000Z</time>
      </trkpt>
      <trkpt lat="44.94709" lon="0.82086">
        <ele>212.3</ele>
        <time>1970-01-01T02:44:53.000Z</time>
      </trkpt>
      <trkpt lat="44.94707" lon="0.8208">
        <ele>212.1</ele>
        <time>1970-01-01T02:44:54.000Z</time>
      </trkpt>
      <trkpt lat="44.94705" lon="0.82074">
        <ele>212</ele>
        <time>1970-01-01T02:44:55.000Z</time>
      </trkpt>
      <trkpt lat="44.94703" lon="0.82068">
        <ele>211.8</ele>
        <time>1970-01-01T02:44:56.000Z</time>
      </trkpt>
      <trkpt lat="44.94701" lon="0.82061">
        <ele>211.6</ele>
        <time>1970-01-01T02:44:57.000Z</time>
      </trkpt>
      <trkpt lat="44.94699" lon="0.82055">
        <ele>211.4</ele>
        <time>1970-01-01T02:44:58.000Z</time>
      </trkpt>
      <trkpt lat="44.94698" lon="0.82047">
        <ele>211.1</ele>
        <time>1970-01-01T02:44:59.000Z</time>
      </trkpt>
      <trkpt lat="44.94696" lon="0.82039">
        <ele>210.9</ele>
        <time>1970-01-01T02:45:00.000Z</time>
      </trkpt>
      <trkpt lat="44.94695" lon="0.82031">
        <ele>210.6</ele>
        <time>1970-01-01T02:45:01.000Z</time>
      </trkpt>
      <trkpt lat="44.94694" lon="0.82022">
        <ele>210.4</ele>
        <time>1970-01-01T02:45:02.000Z</time>
      </trkpt>
      <trkpt lat="44.94692" lon="0.82013">
        <ele>210.6</ele>
        <time>1970-01-01T02:45:03.000Z</time>
      </trkpt>
      <trkpt lat="44.9469" lon="0.82005">
        <ele>210.9</ele>
        <time>1970-01-01T02:45:04.000Z</time>
      </trkpt>
      <trkpt lat="44.94688" lon="0.81998">
        <ele>211.2</ele>
        <time>1970-01-01T02:45:05.000Z</time>
      </trkpt>
      <trkpt lat="44.94687" lon="0.81991">
        <ele>211.5</ele>
        <time>1970-01-01T02:45:06.000Z</time>
      </trkpt>
      <trkpt lat="44.94685" lon="0.81984">
        <ele>211.8</ele>
        <time>1970-01-01T02:45:07.000Z</time>
      </trkpt>
      <trkpt lat="44.94684" lon="0.81978">
        <ele>212</ele>
        <time>1970-01-01T02:45:08.000Z</time>
      </trkpt>
      <trkpt lat="44.94684" lon="0.81971">
        <ele>212.2</ele>
        <time>1970-01-01T02:45:09.000Z</time>
      </trkpt>
      <trkpt lat="44.94683" lon="0.81965">
        <ele>212.4</ele>
        <time>1970-01-01T02:45:10.000Z</time>
      </trkpt>
      <trkpt lat="44.94684" lon="0.81959">
        <ele>212.6</ele>
        <time>1970-01-01T02:45:11.000Z</time>
      </trkpt>
      <trkpt lat="44.94684" lon="0.81953">
        <ele>212.8</ele>
        <time>1970-01-01T02:45:12.000Z</time>
      </trkpt>
      <trkpt lat="44.94685" lon="0.81947">
        <ele>213</ele>
        <time>1970-01-01T02:45:13.000Z</time>
      </trkpt>
      <trkpt lat="44.94686" lon="0.81941">
        <ele>213.1</ele>
        <time>1970-01-01T02:45:14.000Z</time>
      </trkpt>
      <trkpt lat="44.94688" lon="0.81936">
        <ele>213.3</ele>
        <time>1970-01-01T02:45:15.000Z</time>
      </trkpt>
      <trkpt lat="44.94689" lon="0.8193">
        <ele>213.5</ele>
        <time>1970-01-01T02:45:16.000Z</time>
      </trkpt>
      <trkpt lat="44.94689" lon="0.81925">
        <ele>213.6</ele>
        <time>1970-01-01T02:45:17.000Z</time>
      </trkpt>
      <trkpt lat="44.9469" lon="0.8192">
        <ele>213.7</ele>
        <time>1970-01-01T02:45:18.000Z</time>
      </trkpt>
      <trkpt lat="44.9469" lon="0.81916">
        <ele>213.9</ele>
        <time>1970-01-01T02:45:19.000Z</time>
      </trkpt>
      <trkpt lat="44.9469" lon="0.81911">
        <ele>214</ele>
        <time>1970-01-01T02:45:20.000Z</time>
      </trkpt>
      <trkpt lat="44.9469" lon="0.81907">
        <ele>214.1</ele>
        <time>1970-01-01T02:45:21.000Z</time>
      </trkpt>
      <trkpt lat="44.94689" lon="0.81902">
        <ele>214.2</ele>
        <time>1970-01-01T02:45:22.000Z</time>
      </trkpt>
      <trkpt lat="44.94689" lon="0.81897">
        <ele>214.4</ele>
        <time>1970-01-01T02:45:23.000Z</time>
      </trkpt>
      <trkpt lat="44.94687" lon="0.81893">
        <ele>214.5</ele>
        <time>1970-01-01T02:45:24.000Z</time>
      </trkpt>
      <trkpt lat="44.94686" lon="0.81888">
        <ele>214.7</ele>
        <time>1970-01-01T02:45:25.000Z</time>
      </trkpt>
      <trkpt lat="44.94685" lon="0.81884">
        <ele>214.8</ele>
        <time>1970-01-01T02:45:26.000Z</time>
      </trkpt>
      <trkpt lat="44.94684" lon="0.81879">
        <ele>215</ele>
        <time>1970-01-01T02:45:27.000Z</time>
      </trkpt>
      <trkpt lat="44.94682" lon="0.81875">
        <ele>215.2</ele>
        <time>1970-01-01T02:45:28.000Z</time>
      </trkpt>
      <trkpt lat="44.9468" lon="0.8187">
        <ele>215.4</ele>
        <time>1970-01-01T02:45:29.000Z</time>
      </trkpt>
      <trkpt lat="44.94678" lon="0.81865">
        <ele>215.7</ele>
        <time>1970-01-01T02:45:30.000Z</time>
      </trkpt>
      <trkpt lat="44.94675" lon="0.81861">
        <ele>215.9</ele>
        <time>1970-01-01T02:45:31.000Z</time>
      </trkpt>
      <trkpt lat="44.94673" lon="0.81856">
        <ele>216.1</ele>
        <time>1970-01-01T02:45:32.000Z</time>
      </trkpt>
      <trkpt lat="44.94671" lon="0.81852">
        <ele>216.4</ele>
        <time>1970-01-01T02:45:33.000Z</time>
      </trkpt>
      <trkpt lat="44.94669" lon="0.81848">
        <ele>216.7</ele>
        <time>1970-01-01T02:45:34.000Z</time>
      </trkpt>
      <trkpt lat="44.94667" lon="0.81844">
        <ele>216.9</ele>
        <time>1970-01-01T02:45:35.000Z</time>
      </trkpt>
      <trkpt lat="44.94664" lon="0.81841">
        <ele>217.2</ele>
        <time>1970-01-01T02:45:36.000Z</time>
      </trkpt>
      <trkpt lat="44.94662" lon="0.81838">
        <ele>217.5</ele>
        <time>1970-01-01T02:45:37.000Z</time>
      </trkpt>
      <trkpt lat="44.94658" lon="0.81836">
        <ele>218.3</ele>
        <time>1970-01-01T02:45:38.000Z</time>
      </trkpt>
      <trkpt lat="44.94655" lon="0.81837">
        <ele>218.3</ele>
        <time>1970-01-01T02:45:39.000Z</time>
      </trkpt>
      <trkpt lat="44.94652" lon="0.8184">
        <ele>218.3</ele>
        <time>1970-01-01T02:45:40.000Z</time>
      </trkpt>
      <trkpt lat="44.9465" lon="0.81844">
        <ele>218.4</ele>
        <time>1970-01-01T02:45:41.000Z</time>
      </trkpt>
      <trkpt lat="44.94648" lon="0.8185">
        <ele>218.5</ele>
        <time>1970-01-01T02:45:42.000Z</time>
      </trkpt>
      <trkpt lat="44.94646" lon="0.81855">
        <ele>218.7</ele>
        <time>1970-01-01T02:45:43.000Z</time>
      </trkpt>
      <trkpt lat="44.94644" lon="0.8186">
        <ele>218.8</ele>
        <time>1970-01-01T02:45:44.000Z</time>
      </trkpt>
      <trkpt lat="44.94643" lon="0.81864">
        <ele>219</ele>
        <time>1970-01-01T02:45:45.000Z</time>
      </trkpt>
      <trkpt lat="44.94641" lon="0.81869">
        <ele>219.2</ele>
        <time>1970-01-01T02:45:46.000Z</time>
      </trkpt>
      <trkpt lat="44.94639" lon="0.81874">
        <ele>219.4</ele>
        <time>1970-01-01T02:45:47.000Z</time>
      </trkpt>
      <trkpt lat="44.94637" lon="0.81878">
        <ele>219.6</ele>
        <time>1970-01-01T02:45:48.000Z</time>
      </trkpt>
      <trkpt lat="44.94635" lon="0.81883">
        <ele>219.7</ele>
        <time>1970-01-01T02:45:49.000Z</time>
      </trkpt>
      <trkpt lat="44.94633" lon="0.81887">
        <ele>220</ele>
        <time>1970-01-01T02:45:50.000Z</time>
      </trkpt>
      <trkpt lat="44.94631" lon="0.81891">
        <ele>220.2</ele>
        <time>1970-01-01T02:45:51.000Z</time>
      </trkpt>
      <trkpt lat="44.94629" lon="0.81896">
        <ele>220.4</ele>
        <time>1970-01-01T02:45:52.000Z</time>
      </trkpt>
      <trkpt lat="44.94627" lon="0.819">
        <ele>220.6</ele>
        <time>1970-01-01T02:45:53.000Z</time>
      </trkpt>
      <trkpt lat="44.94625" lon="0.81904">
        <ele>220.9</ele>
        <time>1970-01-01T02:45:54.000Z</time>
      </trkpt>
      <trkpt lat="44.94623" lon="0.81909">
        <ele>221.1</ele>
        <time>1970-01-01T02:45:55.000Z</time>
      </trkpt>
      <trkpt lat="44.94621" lon="0.81914">
        <ele>221.4</ele>
        <time>1970-01-01T02:45:56.000Z</time>
      </trkpt>
      <trkpt lat="44.94619" lon="0.81918">
        <ele>221.6</ele>
        <time>1970-01-01T02:45:57.000Z</time>
      </trkpt>
      <trkpt lat="44.94617" lon="0.81923">
        <ele>221.9</ele>
        <time>1970-01-01T02:45:58.000Z</time>
      </trkpt>
      <trkpt lat="44.94615" lon="0.81928">
        <ele>222.2</ele>
        <time>1970-01-01T02:45:59.000Z</time>
      </trkpt>
      <trkpt lat="44.94613" lon="0.81932">
        <ele>222.5</ele>
        <time>1970-01-01T02:46:00.000Z</time>
      </trkpt>
      <trkpt lat="44.94611" lon="0.81937">
        <ele>222.8</ele>
        <time>1970-01-01T02:46:01.000Z</time>
      </trkpt>
      <trkpt lat="44.94608" lon="0.81941">
        <ele>223</ele>
        <time>1970-01-01T02:46:02.000Z</time>
      </trkpt>
      <trkpt lat="44.94606" lon="0.81945">
        <ele>223.3</ele>
        <time>1970-01-01T02:46:03.000Z</time>
      </trkpt>
      <trkpt lat="44.94604" lon="0.81948">
        <ele>223.6</ele>
        <time>1970-01-01T02:46:04.000Z</time>
      </trkpt>
      <trkpt lat="44.94601" lon="0.81952">
        <ele>223.8</ele>
        <time>1970-01-01T02:46:05.000Z</time>
      </trkpt>
      <trkpt lat="44.94599" lon="0.81956">
        <ele>224</ele>
        <time>1970-01-01T02:46:06.000Z</time>
      </trkpt>
      <trkpt lat="44.94597" lon="0.8196">
        <ele>224.5</ele>
        <time>1970-01-01T02:46:07.000Z</time>
      </trkpt>
      <trkpt lat="44.94594" lon="0.81964">
        <ele>224.7</ele>
        <time>1970-01-01T02:46:08.000Z</time>
      </trkpt>
      <trkpt lat="44.94592" lon="0.81968">
        <ele>224.8</ele>
        <time>1970-01-01T02:46:09.000Z</time>
      </trkpt>
      <trkpt lat="44.9459" lon="0.81972">
        <ele>225</ele>
        <time>1970-01-01T02:46:10.000Z</time>
      </trkpt>
      <trkpt lat="44.94588" lon="0.81976">
        <ele>225.2</ele>
        <time>1970-01-01T02:46:11.000Z</time>
      </trkpt>
      <trkpt lat="44.94585" lon="0.8198">
        <ele>225.3</ele>
        <time>1970-01-01T02:46:12.000Z</time>
      </trkpt>
      <trkpt lat="44.94583" lon="0.81984">
        <ele>225.5</ele>
        <time>1970-01-01T02:46:13.000Z</time>
      </trkpt>
      <trkpt lat="44.94581" lon="0.81988">
        <ele>225.6</ele>
        <time>1970-01-01T02:46:14.000Z</time>
      </trkpt>
      <trkpt lat="44.94579" lon="0.81992">
        <ele>225.8</ele>
        <time>1970-01-01T02:46:15.000Z</time>
      </trkpt>
      <trkpt lat="44.94577" lon="0.81995">
        <ele>225.9</ele>
        <time>1970-01-01T02:46:16.000Z</time>
      </trkpt>
      <trkpt lat="44.94574" lon="0.81999">
        <ele>226</ele>
        <time>1970-01-01T02:46:17.000Z</time>
      </trkpt>
      <trkpt lat="44.94572" lon="0.82002">
        <ele>226.1</ele>
        <time>1970-01-01T02:46:18.000Z</time>
      </trkpt>
      <trkpt lat="44.94569" lon="0.82006">
        <ele>226.2</ele>
        <time>1970-01-01T02:46:19.000Z</time>
      </trkpt>
      <trkpt lat="44.94567" lon="0.82009">
        <ele>226.3</ele>
        <time>1970-01-01T02:46:20.000Z</time>
      </trkpt>
      <trkpt lat="44.94564" lon="0.82013">
        <ele>226.4</ele>
        <time>1970-01-01T02:46:21.000Z</time>
      </trkpt>
      <trkpt lat="44.94562" lon="0.82016">
        <ele>226.5</ele>
        <time>1970-01-01T02:46:22.000Z</time>
      </trkpt>
      <trkpt lat="44.94559" lon="0.82019">
        <ele>226.6</ele>
        <time>1970-01-01T02:46:23.000Z</time>
      </trkpt>
      <trkpt lat="44.94556" lon="0.82023">
        <ele>226.7</ele>
        <time>1970-01-01T02:46:24.000Z</time>
      </trkpt>
      <trkpt lat="44.94554" lon="0.82026">
        <ele>226.7</ele>
        <time>1970-01-01T02:46:25.000Z</time>
      </trkpt>
      <trkpt lat="44.94551" lon="0.8203">
        <ele>226.8</ele>
        <time>1970-01-01T02:46:26.000Z</time>
      </trkpt>
      <trkpt lat="44.94549" lon="0.82034">
        <ele>226.9</ele>
        <time>1970-01-01T02:46:27.000Z</time>
      </trkpt>
      <trkpt lat="44.94547" lon="0.82038">
        <ele>226.9</ele>
        <time>1970-01-01T02:46:28.000Z</time>
      </trkpt>
      <trkpt lat="44.94545" lon="0.82042">
        <ele>226.9</ele>
        <time>1970-01-01T02:46:29.000Z</time>
      </trkpt>
      <trkpt lat="44.94543" lon="0.82046">
        <ele>227</ele>
        <time>1970-01-01T02:46:30.000Z</time>
      </trkpt>
      <trkpt lat="44.94541" lon="0.8205">
        <ele>227</ele>
        <time>1970-01-01T02:46:31.000Z</time>
      </trkpt>
      <trkpt lat="44.94538" lon="0.82055">
        <ele>227</ele>
        <time>1970-01-01T02:46:32.000Z</time>
      </trkpt>
      <trkpt lat="44.94536" lon="0.82059">
        <ele>226.9</ele>
        <time>1970-01-01T02:46:33.000Z</time>
      </trkpt>
      <trkpt lat="44.94534" lon="0.82064">
        <ele>226.9</ele>
        <time>1970-01-01T02:46:34.000Z</time>
      </trkpt>
      <trkpt lat="44.94533" lon="0.82069">
        <ele>226.9</ele>
        <time>1970-01-01T02:46:35.000Z</time>
      </trkpt>
      <trkpt lat="44.94531" lon="0.82074">
        <ele>226.8</ele>
        <time>1970-01-01T02:46:36.000Z</time>
      </trkpt>
      <trkpt lat="44.94529" lon="0.82079">
        <ele>226.7</ele>
        <time>1970-01-01T02:46:37.000Z</time>
      </trkpt>
      <trkpt lat="44.94527" lon="0.82084">
        <ele>226.6</ele>
        <time>1970-01-01T02:46:38.000Z</time>
      </trkpt>
      <trkpt lat="44.94525" lon="0.82089">
        <ele>226.5</ele>
        <time>1970-01-01T02:46:39.000Z</time>
      </trkpt>
      <trkpt lat="44.94522" lon="0.82094">
        <ele>226.3</ele>
        <time>1970-01-01T02:46:40.000Z</time>
      </trkpt>
      <trkpt lat="44.9452" lon="0.82099">
        <ele>226.2</ele>
        <time>1970-01-01T02:46:41.000Z</time>
      </trkpt>
      <trkpt lat="44.94517" lon="0.82103">
        <ele>226</ele>
        <time>1970-01-01T02:46:42.000Z</time>
      </trkpt>
      <trkpt lat="44.94513" lon="0.82108">
        <ele>225.8</ele>
        <time>1970-01-01T02:46:43.000Z</time>
      </trkpt>
      <trkpt lat="44.9451" lon="0.82112">
        <ele>225.6</ele>
        <time>1970-01-01T02:46:44.000Z</time>
      </trkpt>
      <trkpt lat="44.94507" lon="0.82116">
        <ele>225.5</ele>
        <time>1970-01-01T02:46:45.000Z</time>
      </trkpt>
      <trkpt lat="44.94503" lon="0.8212">
        <ele>225.4</ele>
        <time>1970-01-01T02:46:46.000Z</time>
      </trkpt>
      <trkpt lat="44.94499" lon="0.82125">
        <ele>225.2</ele>
        <time>1970-01-01T02:46:47.000Z</time>
      </trkpt>
      <trkpt lat="44.94496" lon="0.82129">
        <ele>225.1</ele>
        <time>1970-01-01T02:46:48.000Z</time>
      </trkpt>
      <trkpt lat="44.94492" lon="0.82133">
        <ele>224.9</ele>
        <time>1970-01-01T02:46:49.000Z</time>
      </trkpt>
      <trkpt lat="44.94488" lon="0.82137">
        <ele>224.8</ele>
        <time>1970-01-01T02:46:50.000Z</time>
      </trkpt>
      <trkpt lat="44.94483" lon="0.82141">
        <ele>224.7</ele>
        <time>1970-01-01T02:46:51.000Z</time>
      </trkpt>
      <trkpt lat="44.94479" lon="0.82144">
        <ele>224.6</ele>
        <time>1970-01-01T02:46:52.000Z</time>
      </trkpt>
      <trkpt lat="44.94474" lon="0.82147">
        <ele>224.5</ele>
        <time>1970-01-01T02:46:53.000Z</time>
      </trkpt>
      <trkpt lat="44.9447" lon="0.82151">
        <ele>224.4</ele>
        <time>1970-01-01T02:46:54.000Z</time>
      </trkpt>
      <trkpt lat="44.94465" lon="0.82154">
        <ele>224.4</ele>
        <time>1970-01-01T02:46:55.000Z</time>
      </trkpt>
      <trkpt lat="44.94461" lon="0.82157">
        <ele>224.3</ele>
        <time>1970-01-01T02:46:56.000Z</time>
      </trkpt>
      <trkpt lat="44.94457" lon="0.8216">
        <ele>224.3</ele>
        <time>1970-01-01T02:46:57.000Z</time>
      </trkpt>
      <trkpt lat="44.94452" lon="0.82163">
        <ele>224.3</ele>
        <time>1970-01-01T02:46:58.000Z</time>
      </trkpt>
      <trkpt lat="44.94448" lon="0.82166">
        <ele>224.3</ele>
        <time>1970-01-01T02:46:59.000Z</time>
      </trkpt>
      <trkpt lat="44.94444" lon="0.8217">
        <ele>224.4</ele>
        <time>1970-01-01T02:47:00.000Z</time>
      </trkpt>
      <trkpt lat="44.94439" lon="0.82173">
        <ele>224.4</ele>
        <time>1970-01-01T02:47:01.000Z</time>
      </trkpt>
      <trkpt lat="44.94435" lon="0.82177">
        <ele>224.4</ele>
        <time>1970-01-01T02:47:02.000Z</time>
      </trkpt>
      <trkpt lat="44.94432" lon="0.82181">
        <ele>224.5</ele>
        <time>1970-01-01T02:47:03.000Z</time>
      </trkpt>
      <trkpt lat="44.94428" lon="0.82184">
        <ele>224.5</ele>
        <time>1970-01-01T02:47:04.000Z</time>
      </trkpt>
      <trkpt lat="44.94425" lon="0.82188">
        <ele>224.5</ele>
        <time>1970-01-01T02:47:05.000Z</time>
      </trkpt>
      <trkpt lat="44.94421" lon="0.82192">
        <ele>224.6</ele>
        <time>1970-01-01T02:47:06.000Z</time>
      </trkpt>
      <trkpt lat="44.94418" lon="0.82196">
        <ele>224.6</ele>
        <time>1970-01-01T02:47:07.000Z</time>
      </trkpt>
      <trkpt lat="44.94414" lon="0.822">
        <ele>224.6</ele>
        <time>1970-01-01T02:47:08.000Z</time>
      </trkpt>
      <trkpt lat="44.94411" lon="0.82205">
        <ele>224.6</ele>
        <time>1970-01-01T02:47:09.000Z</time>
      </trkpt>
      <trkpt lat="44.94408" lon="0.82209">
        <ele>224.6</ele>
        <time>1970-01-01T02:47:10.000Z</time>
      </trkpt>
      <trkpt lat="44.94405" lon="0.82214">
        <ele>224.5</ele>
        <time>1970-01-01T02:47:11.000Z</time>
      </trkpt>
      <trkpt lat="44.94402" lon="0.82219">
        <ele>224.5</ele>
        <time>1970-01-01T02:47:12.000Z</time>
      </trkpt>
      <trkpt lat="44.94399" lon="0.82224">
        <ele>224.4</ele>
        <time>1970-01-01T02:47:13.000Z</time>
      </trkpt>
      <trkpt lat="44.94396" lon="0.82228">
        <ele>224.3</ele>
        <time>1970-01-01T02:47:14.000Z</time>
      </trkpt>
      <trkpt lat="44.94392" lon="0.8223">
        <ele>224.3</ele>
        <time>1970-01-01T02:47:15.000Z</time>
      </trkpt>
      <trkpt lat="44.94388" lon="0.82229">
        <ele>224.2</ele>
        <time>1970-01-01T02:47:16.000Z</time>
      </trkpt>
      <trkpt lat="44.94383" lon="0.82226">
        <ele>224.1</ele>
        <time>1970-01-01T02:47:17.000Z</time>
      </trkpt>
      <trkpt lat="44.94379" lon="0.82223">
        <ele>224</ele>
        <time>1970-01-01T02:47:18.000Z</time>
      </trkpt>
      <trkpt lat="44.94375" lon="0.82219">
        <ele>223.9</ele>
        <time>1970-01-01T02:47:19.000Z</time>
      </trkpt>
      <trkpt lat="44.94371" lon="0.82215">
        <ele>223.8</ele>
        <time>1970-01-01T02:47:20.000Z</time>
      </trkpt>
      <trkpt lat="44.94368" lon="0.82212">
        <ele>223.6</ele>
        <time>1970-01-01T02:47:21.000Z</time>
      </trkpt>
      <trkpt lat="44.94364" lon="0.82208">
        <ele>223.5</ele>
        <time>1970-01-01T02:47:22.000Z</time>
      </trkpt>
      <trkpt lat="44.9436" lon="0.82204">
        <ele>223.4</ele>
        <time>1970-01-01T02:47:23.000Z</time>
      </trkpt>
      <trkpt lat="44.94357" lon="0.822">
        <ele>223.2</ele>
        <time>1970-01-01T02:47:24.000Z</time>
      </trkpt>
      <trkpt lat="44.94353" lon="0.82196">
        <ele>223.1</ele>
        <time>1970-01-01T02:47:25.000Z</time>
      </trkpt>
      <trkpt lat="44.94349" lon="0.82192">
        <ele>222.9</ele>
        <time>1970-01-01T02:47:26.000Z</time>
      </trkpt>
      <trkpt lat="44.94346" lon="0.82188">
        <ele>222.7</ele>
        <time>1970-01-01T02:47:27.000Z</time>
      </trkpt>
      <trkpt lat="44.94342" lon="0.82186">
        <ele>222.6</ele>
        <time>1970-01-01T02:47:28.000Z</time>
      </trkpt>
      <trkpt lat="44.94339" lon="0.82187">
        <ele>222.5</ele>
        <time>1970-01-01T02:47:29.000Z</time>
      </trkpt>
      <trkpt lat="44.94337" lon="0.8219">
        <ele>222.5</ele>
        <time>1970-01-01T02:47:30.000Z</time>
      </trkpt>
      <trkpt lat="44.94335" lon="0.82195">
        <ele>222.3</ele>
        <time>1970-01-01T02:47:31.000Z</time>
      </trkpt>
      <trkpt lat="44.94334" lon="0.82201">
        <ele>222.2</ele>
        <time>1970-01-01T02:47:32.000Z</time>
      </trkpt>
      <trkpt lat="44.94333" lon="0.82207">
        <ele>222</ele>
        <time>1970-01-01T02:47:33.000Z</time>
      </trkpt>
      <trkpt lat="44.94332" lon="0.82214">
        <ele>221.8</ele>
        <time>1970-01-01T02:47:34.000Z</time>
      </trkpt>
      <trkpt lat="44.94332" lon="0.82221">
        <ele>221.5</ele>
        <time>1970-01-01T02:47:35.000Z</time>
      </trkpt>
      <trkpt lat="44.94331" lon="0.82228">
        <ele>221.3</ele>
        <time>1970-01-01T02:47:36.000Z</time>
      </trkpt>
      <trkpt lat="44.9433" lon="0.82236">
        <ele>220.9</ele>
        <time>1970-01-01T02:47:37.000Z</time>
      </trkpt>
      <trkpt lat="44.94329" lon="0.82244">
        <ele>220.6</ele>
        <time>1970-01-01T02:47:38.000Z</time>
      </trkpt>
      <trkpt lat="44.94328" lon="0.82252">
        <ele>220.2</ele>
        <time>1970-01-01T02:47:39.000Z</time>
      </trkpt>
      <trkpt lat="44.94327" lon="0.8226">
        <ele>219.8</ele>
        <time>1970-01-01T02:47:40.000Z</time>
      </trkpt>
      <trkpt lat="44.94326" lon="0.82269">
        <ele>219.3</ele>
        <time>1970-01-01T02:47:41.000Z</time>
      </trkpt>
      <trkpt lat="44.94326" lon="0.82279">
        <ele>218.9</ele>
        <time>1970-01-01T02:47:42.000Z</time>
      </trkpt>
      <trkpt lat="44.94325" lon="0.82288">
        <ele>218.4</ele>
        <time>1970-01-01T02:47:43.000Z</time>
      </trkpt>
      <trkpt lat="44.94324" lon="0.82298">
        <ele>217.9</ele>
        <time>1970-01-01T02:47:44.000Z</time>
      </trkpt>
      <trkpt lat="44.94323" lon="0.82308">
        <ele>217.4</ele>
        <time>1970-01-01T02:47:45.000Z</time>
      </trkpt>
      <trkpt lat="44.94322" lon="0.82319">
        <ele>217</ele>
        <time>1970-01-01T02:47:46.000Z</time>
      </trkpt>
      <trkpt lat="44.9432" lon="0.82329">
        <ele>216.5</ele>
        <time>1970-01-01T02:47:47.000Z</time>
      </trkpt>
      <trkpt lat="44.94319" lon="0.82339">
        <ele>216.1</ele>
        <time>1970-01-01T02:47:48.000Z</time>
      </trkpt>
      <trkpt lat="44.94317" lon="0.82349">
        <ele>215.7</ele>
        <time>1970-01-01T02:47:49.000Z</time>
      </trkpt>
      <trkpt lat="44.94314" lon="0.82359">
        <ele>215.3</ele>
        <time>1970-01-01T02:47:50.000Z</time>
      </trkpt>
      <trkpt lat="44.9431" lon="0.82368">
        <ele>214.9</ele>
        <time>1970-01-01T02:47:51.000Z</time>
      </trkpt>
      <trkpt lat="44.94306" lon="0.82377">
        <ele>214.5</ele>
        <time>1970-01-01T02:47:52.000Z</time>
      </trkpt>
      <trkpt lat="44.94303" lon="0.82387">
        <ele>214.2</ele>
        <time>1970-01-01T02:47:53.000Z</time>
      </trkpt>
      <trkpt lat="44.943" lon="0.82396">
        <ele>214</ele>
        <time>1970-01-01T02:47:54.000Z</time>
      </trkpt>
      <trkpt lat="44.94297" lon="0.82405">
        <ele>213.8</ele>
        <time>1970-01-01T02:47:55.000Z</time>
      </trkpt>
      <trkpt lat="44.94294" lon="0.82413">
        <ele>213.6</ele>
        <time>1970-01-01T02:47:56.000Z</time>
      </trkpt>
      <trkpt lat="44.94292" lon="0.82422">
        <ele>213.5</ele>
        <time>1970-01-01T02:47:57.000Z</time>
      </trkpt>
      <trkpt lat="44.9429" lon="0.8243">
        <ele>213.3</ele>
        <time>1970-01-01T02:47:58.000Z</time>
      </trkpt>
      <trkpt lat="44.94289" lon="0.82439">
        <ele>213.1</ele>
        <time>1970-01-01T02:47:59.000Z</time>
      </trkpt>
      <trkpt lat="44.94289" lon="0.82448">
        <ele>213</ele>
        <time>1970-01-01T02:48:00.000Z</time>
      </trkpt>
      <trkpt lat="44.94288" lon="0.82457">
        <ele>212.8</ele>
        <time>1970-01-01T02:48:01.000Z</time>
      </trkpt>
      <trkpt lat="44.94287" lon="0.82465">
        <ele>212.6</ele>
        <time>1970-01-01T02:48:02.000Z</time>
      </trkpt>
      <trkpt lat="44.94286" lon="0.82473">
        <ele>212.4</ele>
        <time>1970-01-01T02:48:03.000Z</time>
      </trkpt>
      <trkpt lat="44.94284" lon="0.82481">
        <ele>212.2</ele>
        <time>1970-01-01T02:48:04.000Z</time>
      </trkpt>
      <trkpt lat="44.94283" lon="0.82489">
        <ele>212</ele>
        <time>1970-01-01T02:48:05.000Z</time>
      </trkpt>
      <trkpt lat="44.94281" lon="0.82498">
        <ele>211.9</ele>
        <time>1970-01-01T02:48:06.000Z</time>
      </trkpt>
      <trkpt lat="44.9428" lon="0.82506">
        <ele>211.7</ele>
        <time>1970-01-01T02:48:07.000Z</time>
      </trkpt>
      <trkpt lat="44.94278" lon="0.82515">
        <ele>211.6</ele>
        <time>1970-01-01T02:48:08.000Z</time>
      </trkpt>
      <trkpt lat="44.94276" lon="0.82523">
        <ele>211.6</ele>
        <time>1970-01-01T02:48:09.000Z</time>
      </trkpt>
      <trkpt lat="44.94274" lon="0.82532">
        <ele>211.5</ele>
        <time>1970-01-01T02:48:10.000Z</time>
      </trkpt>
      <trkpt lat="44.94272" lon="0.8254">
        <ele>211.5</ele>
        <time>1970-01-01T02:48:11.000Z</time>
      </trkpt>
      <trkpt lat="44.94271" lon="0.82548">
        <ele>211.6</ele>
        <time>1970-01-01T02:48:12.000Z</time>
      </trkpt>
      <trkpt lat="44.9427" lon="0.82556">
        <ele>211.6</ele>
        <time>1970-01-01T02:48:13.000Z</time>
      </trkpt>
      <trkpt lat="44.94269" lon="0.82564">
        <ele>211.7</ele>
        <time>1970-01-01T02:48:14.000Z</time>
      </trkpt>
      <trkpt lat="44.94268" lon="0.82572">
        <ele>211.8</ele>
        <time>1970-01-01T02:48:15.000Z</time>
      </trkpt>
      <trkpt lat="44.94267" lon="0.8258">
        <ele>211.8</ele>
        <time>1970-01-01T02:48:16.000Z</time>
      </trkpt>
      <trkpt lat="44.94267" lon="0.82587">
        <ele>211.8</ele>
        <time>1970-01-01T02:48:17.000Z</time>
      </trkpt>
      <trkpt lat="44.94267" lon="0.82594">
        <ele>211.8</ele>
        <time>1970-01-01T02:48:18.000Z</time>
      </trkpt>
      <trkpt lat="44.94268" lon="0.826">
        <ele>211.9</ele>
        <time>1970-01-01T02:48:19.000Z</time>
      </trkpt>
      <trkpt lat="44.94268" lon="0.82607">
        <ele>212</ele>
        <time>1970-01-01T02:48:20.000Z</time>
      </trkpt>
      <trkpt lat="44.94268" lon="0.82613">
        <ele>212.2</ele>
        <time>1970-01-01T02:48:21.000Z</time>
      </trkpt>
      <trkpt lat="44.94268" lon="0.8262">
        <ele>212.4</ele>
        <time>1970-01-01T02:48:22.000Z</time>
      </trkpt>
      <trkpt lat="44.94268" lon="0.82626">
        <ele>212.6</ele>
        <time>1970-01-01T02:48:23.000Z</time>
      </trkpt>
      <trkpt lat="44.94268" lon="0.82632">
        <ele>212.8</ele>
        <time>1970-01-01T02:48:24.000Z</time>
      </trkpt>
      <trkpt lat="44.94268" lon="0.82637">
        <ele>213</ele>
        <time>1970-01-01T02:48:25.000Z</time>
      </trkpt>
      <trkpt lat="44.94268" lon="0.82642">
        <ele>213.3</ele>
        <time>1970-01-01T02:48:26.000Z</time>
      </trkpt>
      <trkpt lat="44.94268" lon="0.82647">
        <ele>213.6</ele>
        <time>1970-01-01T02:48:27.000Z</time>
      </trkpt>
      <trkpt lat="44.94269" lon="0.82653">
        <ele>213.9</ele>
        <time>1970-01-01T02:48:28.000Z</time>
      </trkpt>
      <trkpt lat="44.94269" lon="0.82657">
        <ele>214.2</ele>
        <time>1970-01-01T02:48:29.000Z</time>
      </trkpt>
      <trkpt lat="44.9427" lon="0.82662">
        <ele>214.5</ele>
        <time>1970-01-01T02:48:30.000Z</time>
      </trkpt>
      <trkpt lat="44.94271" lon="0.82667">
        <ele>214.8</ele>
        <time>1970-01-01T02:48:31.000Z</time>
      </trkpt>
      <trkpt lat="44.94271" lon="0.82671">
        <ele>215.1</ele>
        <time>1970-01-01T02:48:32.000Z</time>
      </trkpt>
      <trkpt lat="44.94271" lon="0.82675">
        <ele>215.4</ele>
        <time>1970-01-01T02:48:33.000Z</time>
      </trkpt>
      <trkpt lat="44.94271" lon="0.8268">
        <ele>215.7</ele>
        <time>1970-01-01T02:48:34.000Z</time>
      </trkpt>
      <trkpt lat="44.94271" lon="0.82684">
        <ele>216.1</ele>
        <time>1970-01-01T02:48:35.000Z</time>
      </trkpt>
      <trkpt lat="44.94271" lon="0.82688">
        <ele>216.3</ele>
        <time>1970-01-01T02:48:36.000Z</time>
      </trkpt>
      <trkpt lat="44.94271" lon="0.82692">
        <ele>216.6</ele>
        <time>1970-01-01T02:48:37.000Z</time>
      </trkpt>
      <trkpt lat="44.94271" lon="0.82696">
        <ele>216.9</ele>
        <time>1970-01-01T02:48:38.000Z</time>
      </trkpt>
      <trkpt lat="44.9427" lon="0.82701">
        <ele>217.2</ele>
        <time>1970-01-01T02:48:39.000Z</time>
      </trkpt>
      <trkpt lat="44.9427" lon="0.82705">
        <ele>217.4</ele>
        <time>1970-01-01T02:48:40.000Z</time>
      </trkpt>
      <trkpt lat="44.9427" lon="0.82709">
        <ele>217.6</ele>
        <time>1970-01-01T02:48:41.000Z</time>
      </trkpt>
      <trkpt lat="44.9427" lon="0.82714">
        <ele>217.8</ele>
        <time>1970-01-01T02:48:42.000Z</time>
      </trkpt>
      <trkpt lat="44.9427" lon="0.82718">
        <ele>218</ele>
        <time>1970-01-01T02:48:43.000Z</time>
      </trkpt>
      <trkpt lat="44.9427" lon="0.82723">
        <ele>218.2</ele>
        <time>1970-01-01T02:48:44.000Z</time>
      </trkpt>
      <trkpt lat="44.94269" lon="0.82727">
        <ele>218.4</ele>
        <time>1970-01-01T02:48:45.000Z</time>
      </trkpt>
      <trkpt lat="44.94269" lon="0.82731">
        <ele>218.5</ele>
        <time>1970-01-01T02:48:46.000Z</time>
      </trkpt>
      <trkpt lat="44.94269" lon="0.82735">
        <ele>218.6</ele>
        <time>1970-01-01T02:48:47.000Z</time>
      </trkpt>
      <trkpt lat="44.94269" lon="0.82739">
        <ele>218.7</ele>
        <time>1970-01-01T02:48:48.000Z</time>
      </trkpt>
      <trkpt lat="44.94269" lon="0.82743">
        <ele>218.8</ele>
        <time>1970-01-01T02:48:49.000Z</time>
      </trkpt>
      <trkpt lat="44.9427" lon="0.82747">
        <ele>218.9</ele>
        <time>1970-01-01T02:48:50.000Z</time>
      </trkpt>
      <trkpt lat="44.9427" lon="0.82751">
        <ele>219</ele>
        <time>1970-01-01T02:48:51.000Z</time>
      </trkpt>
      <trkpt lat="44.9427" lon="0.82756">
        <ele>219</ele>
        <time>1970-01-01T02:48:52.000Z</time>
      </trkpt>
      <trkpt lat="44.9427" lon="0.82761">
        <ele>219.1</ele>
        <time>1970-01-01T02:48:53.000Z</time>
      </trkpt>
      <trkpt lat="44.9427" lon="0.82766">
        <ele>219.1</ele>
        <time>1970-01-01T02:48:54.000Z</time>
      </trkpt>
      <trkpt lat="44.9427" lon="0.82771">
        <ele>219.1</ele>
        <time>1970-01-01T02:48:55.000Z</time>
      </trkpt>
      <trkpt lat="44.9427" lon="0.82776">
        <ele>219</ele>
        <time>1970-01-01T02:48:56.000Z</time>
      </trkpt>
      <trkpt lat="44.9427" lon="0.82781">
        <ele>218.9</ele>
        <time>1970-01-01T02:48:57.000Z</time>
      </trkpt>
      <trkpt lat="44.9427" lon="0.82787">
        <ele>218.8</ele>
        <time>1970-01-01T02:48:58.000Z</time>
      </trkpt>
      <trkpt lat="44.94271" lon="0.82793">
        <ele>218.7</ele>
        <time>1970-01-01T02:48:59.000Z</time>
      </trkpt>
      <trkpt lat="44.94271" lon="0.82799">
        <ele>218.6</ele>
        <time>1970-01-01T02:49:00.000Z</time>
      </trkpt>
      <trkpt lat="44.94272" lon="0.82805">
        <ele>218.4</ele>
        <time>1970-01-01T02:49:01.000Z</time>
      </trkpt>
      <trkpt lat="44.94272" lon="0.82811">
        <ele>218.3</ele>
        <time>1970-01-01T02:49:02.000Z</time>
      </trkpt>
      <trkpt lat="44.94272" lon="0.82817">
        <ele>218.1</ele>
        <time>1970-01-01T02:49:03.000Z</time>
      </trkpt>
      <trkpt lat="44.94273" lon="0.82823">
        <ele>218</ele>
        <time>1970-01-01T02:49:04.000Z</time>
      </trkpt>
      <trkpt lat="44.94273" lon="0.82829">
        <ele>217.9</ele>
        <time>1970-01-01T02:49:05.000Z</time>
      </trkpt>
      <trkpt lat="44.94274" lon="0.82835">
        <ele>217.8</ele>
        <time>1970-01-01T02:49:06.000Z</time>
      </trkpt>
      <trkpt lat="44.94275" lon="0.82841">
        <ele>217.7</ele>
        <time>1970-01-01T02:49:07.000Z</time>
      </trkpt>
      <trkpt lat="44.94277" lon="0.82847">
        <ele>217.6</ele>
        <time>1970-01-01T02:49:08.000Z</time>
      </trkpt>
      <trkpt lat="44.94278" lon="0.82853">
        <ele>217.4</ele>
        <time>1970-01-01T02:49:09.000Z</time>
      </trkpt>
      <trkpt lat="44.9428" lon="0.82858">
        <ele>217.2</ele>
        <time>1970-01-01T02:49:10.000Z</time>
      </trkpt>
      <trkpt lat="44.94281" lon="0.82864">
        <ele>216.9</ele>
        <time>1970-01-01T02:49:11.000Z</time>
      </trkpt>
      <trkpt lat="44.94283" lon="0.82871">
        <ele>216.6</ele>
        <time>1970-01-01T02:49:12.000Z</time>
      </trkpt>
      <trkpt lat="44.94285" lon="0.82877">
        <ele>216.3</ele>
        <time>1970-01-01T02:49:13.000Z</time>
      </trkpt>
      <trkpt lat="44.94287" lon="0.82884">
        <ele>215.8</ele>
        <time>1970-01-01T02:49:14.000Z</time>
      </trkpt>
      <trkpt lat="44.94288" lon="0.82892">
        <ele>215.3</ele>
        <time>1970-01-01T02:49:15.000Z</time>
      </trkpt>
      <trkpt lat="44.9429" lon="0.829">
        <ele>214.8</ele>
        <time>1970-01-01T02:49:16.000Z</time>
      </trkpt>
      <trkpt lat="44.94292" lon="0.82909">
        <ele>214.2</ele>
        <time>1970-01-01T02:49:17.000Z</time>
      </trkpt>
      <trkpt lat="44.94293" lon="0.82917">
        <ele>213.6</ele>
        <time>1970-01-01T02:49:18.000Z</time>
      </trkpt>
      <trkpt lat="44.94294" lon="0.82925">
        <ele>213.1</ele>
        <time>1970-01-01T02:49:19.000Z</time>
      </trkpt>
      <trkpt lat="44.94295" lon="0.82934">
        <ele>212.5</ele>
        <time>1970-01-01T02:49:20.000Z</time>
      </trkpt>
      <trkpt lat="44.94295" lon="0.82942">
        <ele>211.9</ele>
        <time>1970-01-01T02:49:21.000Z</time>
      </trkpt>
      <trkpt lat="44.94296" lon="0.82951">
        <ele>211.3</ele>
        <time>1970-01-01T02:49:22.000Z</time>
      </trkpt>
      <trkpt lat="44.94296" lon="0.82961">
        <ele>210.7</ele>
        <time>1970-01-01T02:49:23.000Z</time>
      </trkpt>
      <trkpt lat="44.94296" lon="0.8297">
        <ele>210.1</ele>
        <time>1970-01-01T02:49:24.000Z</time>
      </trkpt>
      <trkpt lat="44.94296" lon="0.82979">
        <ele>209.4</ele>
        <time>1970-01-01T02:49:25.000Z</time>
      </trkpt>
      <trkpt lat="44.94295" lon="0.82988">
        <ele>208.8</ele>
        <time>1970-01-01T02:49:26.000Z</time>
      </trkpt>
      <trkpt lat="44.94293" lon="0.82997">
        <ele>208.1</ele>
        <time>1970-01-01T02:49:27.000Z</time>
      </trkpt>
      <trkpt lat="44.94292" lon="0.83007">
        <ele>207.5</ele>
        <time>1970-01-01T02:49:28.000Z</time>
      </trkpt>
      <trkpt lat="44.9429" lon="0.83016">
        <ele>206.9</ele>
        <time>1970-01-01T02:49:29.000Z</time>
      </trkpt>
      <trkpt lat="44.94289" lon="0.83025">
        <ele>206.3</ele>
        <time>1970-01-01T02:49:30.000Z</time>
      </trkpt>
      <trkpt lat="44.94287" lon="0.83033">
        <ele>205.9</ele>
        <time>1970-01-01T02:49:31.000Z</time>
      </trkpt>
      <trkpt lat="44.94287" lon="0.83042">
        <ele>205.4</ele>
        <time>1970-01-01T02:49:32.000Z</time>
      </trkpt>
      <trkpt lat="44.94287" lon="0.83051">
        <ele>205</ele>
        <time>1970-01-01T02:49:33.000Z</time>
      </trkpt>
      <trkpt lat="44.94287" lon="0.8306">
        <ele>204.4</ele>
        <time>1970-01-01T02:49:34.000Z</time>
      </trkpt>
      <trkpt lat="44.94287" lon="0.83069">
        <ele>203.8</ele>
        <time>1970-01-01T02:49:35.000Z</time>
      </trkpt>
      <trkpt lat="44.94285" lon="0.83077">
        <ele>203.2</ele>
        <time>1970-01-01T02:49:36.000Z</time>
      </trkpt>
      <trkpt lat="44.94284" lon="0.83085">
        <ele>202.6</ele>
        <time>1970-01-01T02:49:37.000Z</time>
      </trkpt>
      <trkpt lat="44.94282" lon="0.83094">
        <ele>201.9</ele>
        <time>1970-01-01T02:49:38.000Z</time>
      </trkpt>
      <trkpt lat="44.9428" lon="0.83102">
        <ele>201.3</ele>
        <time>1970-01-01T02:49:39.000Z</time>
      </trkpt>
      <trkpt lat="44.94276" lon="0.8311">
        <ele>200.6</ele>
        <time>1970-01-01T02:49:40.000Z</time>
      </trkpt>
      <trkpt lat="44.94272" lon="0.83116">
        <ele>200.1</ele>
        <time>1970-01-01T02:49:41.000Z</time>
      </trkpt>
      <trkpt lat="44.94267" lon="0.83122">
        <ele>199.7</ele>
        <time>1970-01-01T02:49:42.000Z</time>
      </trkpt>
      <trkpt lat="44.94263" lon="0.83128">
        <ele>199.4</ele>
        <time>1970-01-01T02:49:43.000Z</time>
      </trkpt>
      <trkpt lat="44.94258" lon="0.83133">
        <ele>199.1</ele>
        <time>1970-01-01T02:49:44.000Z</time>
      </trkpt>
      <trkpt lat="44.94253" lon="0.83138">
        <ele>198.9</ele>
        <time>1970-01-01T02:49:45.000Z</time>
      </trkpt>
      <trkpt lat="44.94248" lon="0.83143">
        <ele>198.7</ele>
        <time>1970-01-01T02:49:46.000Z</time>
      </trkpt>
      <trkpt lat="44.94243" lon="0.83148">
        <ele>198.6</ele>
        <time>1970-01-01T02:49:47.000Z</time>
      </trkpt>
      <trkpt lat="44.94238" lon="0.83153">
        <ele>198.5</ele>
        <time>1970-01-01T02:49:48.000Z</time>
      </trkpt>
      <trkpt lat="44.94233" lon="0.83159">
        <ele>198.3</ele>
        <time>1970-01-01T02:49:49.000Z</time>
      </trkpt>
      <trkpt lat="44.94228" lon="0.83164">
        <ele>198.2</ele>
        <time>1970-01-01T02:49:50.000Z</time>
      </trkpt>
      <trkpt lat="44.94222" lon="0.83169">
        <ele>198.1</ele>
        <time>1970-01-01T02:49:51.000Z</time>
      </trkpt>
      <trkpt lat="44.94216" lon="0.83174">
        <ele>198</ele>
        <time>1970-01-01T02:49:52.000Z</time>
      </trkpt>
      <trkpt lat="44.94211" lon="0.83179">
        <ele>197.9</ele>
        <time>1970-01-01T02:49:53.000Z</time>
      </trkpt>
      <trkpt lat="44.94205" lon="0.83183">
        <ele>197.8</ele>
        <time>1970-01-01T02:49:54.000Z</time>
      </trkpt>
      <trkpt lat="44.942" lon="0.83188">
        <ele>197.7</ele>
        <time>1970-01-01T02:49:55.000Z</time>
      </trkpt>
      <trkpt lat="44.94194" lon="0.83192">
        <ele>197.6</ele>
        <time>1970-01-01T02:49:56.000Z</time>
      </trkpt>
      <trkpt lat="44.94188" lon="0.83195">
        <ele>197.5</ele>
        <time>1970-01-01T02:49:57.000Z</time>
      </trkpt>
      <trkpt lat="44.94182" lon="0.83199">
        <ele>197.4</ele>
        <time>1970-01-01T02:49:58.000Z</time>
      </trkpt>
      <trkpt lat="44.94176" lon="0.83201">
        <ele>197.3</ele>
        <time>1970-01-01T02:49:59.000Z</time>
      </trkpt>
      <trkpt lat="44.9417" lon="0.83204">
        <ele>197.1</ele>
        <time>1970-01-01T02:50:00.000Z</time>
      </trkpt>
      <trkpt lat="44.94164" lon="0.83207">
        <ele>197</ele>
        <time>1970-01-01T02:50:01.000Z</time>
      </trkpt>
      <trkpt lat="44.94158" lon="0.83209">
        <ele>196.9</ele>
        <time>1970-01-01T02:50:02.000Z</time>
      </trkpt>
      <trkpt lat="44.94153" lon="0.83211">
        <ele>196.8</ele>
        <time>1970-01-01T02:50:03.000Z</time>
      </trkpt>
      <trkpt lat="44.94147" lon="0.83214">
        <ele>196.7</ele>
        <time>1970-01-01T02:50:04.000Z</time>
      </trkpt>
      <trkpt lat="44.94142" lon="0.83217">
        <ele>196.5</ele>
        <time>1970-01-01T02:50:05.000Z</time>
      </trkpt>
      <trkpt lat="44.94137" lon="0.8322">
        <ele>196.4</ele>
        <time>1970-01-01T02:50:06.000Z</time>
      </trkpt>
      <trkpt lat="44.94131" lon="0.83224">
        <ele>196.3</ele>
        <time>1970-01-01T02:50:07.000Z</time>
      </trkpt>
      <trkpt lat="44.94126" lon="0.83229">
        <ele>196.1</ele>
        <time>1970-01-01T02:50:08.000Z</time>
      </trkpt>
      <trkpt lat="44.9412" lon="0.83234">
        <ele>196</ele>
        <time>1970-01-01T02:50:09.000Z</time>
      </trkpt>
      <trkpt lat="44.94115" lon="0.83239">
        <ele>195.9</ele>
        <time>1970-01-01T02:50:10.000Z</time>
      </trkpt>
      <trkpt lat="44.9411" lon="0.83243">
        <ele>195.7</ele>
        <time>1970-01-01T02:50:11.000Z</time>
      </trkpt>
      <trkpt lat="44.94105" lon="0.83248">
        <ele>195.6</ele>
        <time>1970-01-01T02:50:12.000Z</time>
      </trkpt>
      <trkpt lat="44.941" lon="0.83252">
        <ele>195.5</ele>
        <time>1970-01-01T02:50:13.000Z</time>
      </trkpt>
      <trkpt lat="44.94095" lon="0.83257">
        <ele>195.4</ele>
        <time>1970-01-01T02:50:14.000Z</time>
      </trkpt>
      <trkpt lat="44.9409" lon="0.83261">
        <ele>195.2</ele>
        <time>1970-01-01T02:50:15.000Z</time>
      </trkpt>
      <trkpt lat="44.94085" lon="0.83266">
        <ele>195</ele>
        <time>1970-01-01T02:50:16.000Z</time>
      </trkpt>
      <trkpt lat="44.9408" lon="0.8327">
        <ele>194.7</ele>
        <time>1970-01-01T02:50:17.000Z</time>
      </trkpt>
      <trkpt lat="44.94076" lon="0.83275">
        <ele>194.5</ele>
        <time>1970-01-01T02:50:18.000Z</time>
      </trkpt>
      <trkpt lat="44.94071" lon="0.8328">
        <ele>194.2</ele>
        <time>1970-01-01T02:50:19.000Z</time>
      </trkpt>
      <trkpt lat="44.94067" lon="0.83285">
        <ele>193.9</ele>
        <time>1970-01-01T02:50:20.000Z</time>
      </trkpt>
      <trkpt lat="44.94062" lon="0.8329">
        <ele>193.7</ele>
        <time>1970-01-01T02:50:21.000Z</time>
      </trkpt>
      <trkpt lat="44.94058" lon="0.83295">
        <ele>193.4</ele>
        <time>1970-01-01T02:50:22.000Z</time>
      </trkpt>
      <trkpt lat="44.94054" lon="0.833">
        <ele>193.1</ele>
        <time>1970-01-01T02:50:23.000Z</time>
      </trkpt>
      <trkpt lat="44.94049" lon="0.83306">
        <ele>192.8</ele>
        <time>1970-01-01T02:50:24.000Z</time>
      </trkpt>
      <trkpt lat="44.94045" lon="0.83311">
        <ele>192.5</ele>
        <time>1970-01-01T02:50:25.000Z</time>
      </trkpt>
      <trkpt lat="44.94041" lon="0.83316">
        <ele>192.2</ele>
        <time>1970-01-01T02:50:26.000Z</time>
      </trkpt>
      <trkpt lat="44.94036" lon="0.83322">
        <ele>191.9</ele>
        <time>1970-01-01T02:50:27.000Z</time>
      </trkpt>
      <trkpt lat="44.94032" lon="0.83327">
        <ele>191.7</ele>
        <time>1970-01-01T02:50:28.000Z</time>
      </trkpt>
      <trkpt lat="44.94027" lon="0.83332">
        <ele>191.5</ele>
        <time>1970-01-01T02:50:29.000Z</time>
      </trkpt>
      <trkpt lat="44.94022" lon="0.83338">
        <ele>191.3</ele>
        <time>1970-01-01T02:50:30.000Z</time>
      </trkpt>
      <trkpt lat="44.94017" lon="0.83343">
        <ele>191.1</ele>
        <time>1970-01-01T02:50:31.000Z</time>
      </trkpt>
      <trkpt lat="44.94012" lon="0.83347">
        <ele>191</ele>
        <time>1970-01-01T02:50:32.000Z</time>
      </trkpt>
      <trkpt lat="44.94006" lon="0.83352">
        <ele>190.9</ele>
        <time>1970-01-01T02:50:33.000Z</time>
      </trkpt>
      <trkpt lat="44.94001" lon="0.83357">
        <ele>190.8</ele>
        <time>1970-01-01T02:50:34.000Z</time>
      </trkpt>
      <trkpt lat="44.93996" lon="0.83361">
        <ele>190.7</ele>
        <time>1970-01-01T02:50:35.000Z</time>
      </trkpt>
      <trkpt lat="44.93991" lon="0.83366">
        <ele>190.7</ele>
        <time>1970-01-01T02:50:36.000Z</time>
      </trkpt>
      <trkpt lat="44.93987" lon="0.8337">
        <ele>190.6</ele>
        <time>1970-01-01T02:50:37.000Z</time>
      </trkpt>
      <trkpt lat="44.93982" lon="0.83375">
        <ele>190.6</ele>
        <time>1970-01-01T02:50:38.000Z</time>
      </trkpt>
      <trkpt lat="44.93977" lon="0.83379">
        <ele>190.6</ele>
        <time>1970-01-01T02:50:39.000Z</time>
      </trkpt>
      <trkpt lat="44.93973" lon="0.83382">
        <ele>190.6</ele>
        <time>1970-01-01T02:50:40.000Z</time>
      </trkpt>
      <trkpt lat="44.93968" lon="0.83386">
        <ele>190.6</ele>
        <time>1970-01-01T02:50:41.000Z</time>
      </trkpt>
      <trkpt lat="44.93963" lon="0.83389">
        <ele>190.6</ele>
        <time>1970-01-01T02:50:42.000Z</time>
      </trkpt>
      <trkpt lat="44.93959" lon="0.83392">
        <ele>190.6</ele>
        <time>1970-01-01T02:50:43.000Z</time>
      </trkpt>
      <trkpt lat="44.93954" lon="0.83396">
        <ele>190.6</ele>
        <time>1970-01-01T02:50:44.000Z</time>
      </trkpt>
      <trkpt lat="44.9395" lon="0.83399">
        <ele>190.6</ele>
        <time>1970-01-01T02:50:45.000Z</time>
      </trkpt>
      <trkpt lat="44.93945" lon="0.83402">
        <ele>190.6</ele>
        <time>1970-01-01T02:50:46.000Z</time>
      </trkpt>
      <trkpt lat="44.93941" lon="0.83405">
        <ele>190.7</ele>
        <time>1970-01-01T02:50:47.000Z</time>
      </trkpt>
      <trkpt lat="44.93936" lon="0.83409">
        <ele>190.8</ele>
        <time>1970-01-01T02:50:48.000Z</time>
      </trkpt>
      <trkpt lat="44.93932" lon="0.83413">
        <ele>191</ele>
        <time>1970-01-01T02:50:49.000Z</time>
      </trkpt>
      <trkpt lat="44.93928" lon="0.83417">
        <ele>191.1</ele>
        <time>1970-01-01T02:50:50.000Z</time>
      </trkpt>
      <trkpt lat="44.93924" lon="0.8342">
        <ele>191.3</ele>
        <time>1970-01-01T02:50:51.000Z</time>
      </trkpt>
      <trkpt lat="44.93921" lon="0.83424">
        <ele>191.5</ele>
        <time>1970-01-01T02:50:52.000Z</time>
      </trkpt>
      <trkpt lat="44.93917" lon="0.83427">
        <ele>191.7</ele>
        <time>1970-01-01T02:50:53.000Z</time>
      </trkpt>
      <trkpt lat="44.93914" lon="0.8343">
        <ele>191.8</ele>
        <time>1970-01-01T02:50:54.000Z</time>
      </trkpt>
      <trkpt lat="44.93911" lon="0.83433">
        <ele>192</ele>
        <time>1970-01-01T02:50:55.000Z</time>
      </trkpt>
      <trkpt lat="44.93908" lon="0.83437">
        <ele>192.1</ele>
        <time>1970-01-01T02:50:56.000Z</time>
      </trkpt>
      <trkpt lat="44.93905" lon="0.8344">
        <ele>192.2</ele>
        <time>1970-01-01T02:50:57.000Z</time>
      </trkpt>
      <trkpt lat="44.93902" lon="0.83443">
        <ele>192.2</ele>
        <time>1970-01-01T02:50:58.000Z</time>
      </trkpt>
      <trkpt lat="44.93899" lon="0.83446">
        <ele>192.3</ele>
        <time>1970-01-01T02:50:59.000Z</time>
      </trkpt>
      <trkpt lat="44.93897" lon="0.83449">
        <ele>192.3</ele>
        <time>1970-01-01T02:51:00.000Z</time>
      </trkpt>
      <trkpt lat="44.93894" lon="0.83451">
        <ele>192.2</ele>
        <time>1970-01-01T02:51:01.000Z</time>
      </trkpt>
      <trkpt lat="44.93892" lon="0.83453">
        <ele>192.2</ele>
        <time>1970-01-01T02:51:02.000Z</time>
      </trkpt>
      <trkpt lat="44.9389" lon="0.83456">
        <ele>192.1</ele>
        <time>1970-01-01T02:51:03.000Z</time>
      </trkpt>
      <trkpt lat="44.93888" lon="0.8346">
        <ele>192</ele>
        <time>1970-01-01T02:51:04.000Z</time>
      </trkpt>
      <trkpt lat="44.93887" lon="0.83464">
        <ele>191.9</ele>
        <time>1970-01-01T02:51:05.000Z</time>
      </trkpt>
      <trkpt lat="44.93885" lon="0.83469">
        <ele>191.8</ele>
        <time>1970-01-01T02:51:06.000Z</time>
      </trkpt>
      <trkpt lat="44.93883" lon="0.83475">
        <ele>191.4</ele>
        <time>1970-01-01T02:51:07.000Z</time>
      </trkpt>
      <trkpt lat="44.9388" lon="0.83483">
        <ele>190.9</ele>
        <time>1970-01-01T02:51:08.000Z</time>
      </trkpt>
      <trkpt lat="44.93878" lon="0.83491">
        <ele>190.3</ele>
        <time>1970-01-01T02:51:09.000Z</time>
      </trkpt>
      <trkpt lat="44.93876" lon="0.83499">
        <ele>189.6</ele>
        <time>1970-01-01T02:51:10.000Z</time>
      </trkpt>
      <trkpt lat="44.93874" lon="0.83505">
        <ele>189</ele>
        <time>1970-01-01T02:51:11.000Z</time>
      </trkpt>
      <trkpt lat="44.93872" lon="0.83512">
        <ele>188.3</ele>
        <time>1970-01-01T02:51:12.000Z</time>
      </trkpt>
      <trkpt lat="44.93871" lon="0.83519">
        <ele>187.6</ele>
        <time>1970-01-01T02:51:13.000Z</time>
      </trkpt>
      <trkpt lat="44.93869" lon="0.83528">
        <ele>186.7</ele>
        <time>1970-01-01T02:51:14.000Z</time>
      </trkpt>
      <trkpt lat="44.93867" lon="0.83537">
        <ele>185.7</ele>
        <time>1970-01-01T02:51:15.000Z</time>
      </trkpt>
      <trkpt lat="44.93864" lon="0.83548">
        <ele>184.5</ele>
        <time>1970-01-01T02:51:16.000Z</time>
      </trkpt>
      <trkpt lat="44.9386" lon="0.83559">
        <ele>183.4</ele>
        <time>1970-01-01T02:51:17.000Z</time>
      </trkpt>
      <trkpt lat="44.93856" lon="0.83569">
        <ele>182.3</ele>
        <time>1970-01-01T02:51:18.000Z</time>
      </trkpt>
      <trkpt lat="44.93851" lon="0.83578">
        <ele>181.1</ele>
        <time>1970-01-01T02:51:19.000Z</time>
      </trkpt>
      <trkpt lat="44.93845" lon="0.83586">
        <ele>179.8</ele>
        <time>1970-01-01T02:51:20.000Z</time>
      </trkpt>
      <trkpt lat="44.93839" lon="0.83594">
        <ele>178.5</ele>
        <time>1970-01-01T02:51:21.000Z</time>
      </trkpt>
      <trkpt lat="44.93832" lon="0.83603">
        <ele>177.3</ele>
        <time>1970-01-01T02:51:22.000Z</time>
      </trkpt>
      <trkpt lat="44.93826" lon="0.83611">
        <ele>176.3</ele>
        <time>1970-01-01T02:51:23.000Z</time>
      </trkpt>
      <trkpt lat="44.9382" lon="0.8362">
        <ele>175.4</ele>
        <time>1970-01-01T02:51:24.000Z</time>
      </trkpt>
      <trkpt lat="44.93814" lon="0.8363">
        <ele>174.5</ele>
        <time>1970-01-01T02:51:25.000Z</time>
      </trkpt>
      <trkpt lat="44.93807" lon="0.8364">
        <ele>173.6</ele>
        <time>1970-01-01T02:51:26.000Z</time>
      </trkpt>
      <trkpt lat="44.93801" lon="0.83651">
        <ele>172.8</ele>
        <time>1970-01-01T02:51:27.000Z</time>
      </trkpt>
      <trkpt lat="44.93794" lon="0.83662">
        <ele>172</ele>
        <time>1970-01-01T02:51:28.000Z</time>
      </trkpt>
      <trkpt lat="44.93788" lon="0.83672">
        <ele>171.2</ele>
        <time>1970-01-01T02:51:29.000Z</time>
      </trkpt>
      <trkpt lat="44.93781" lon="0.83682">
        <ele>170.3</ele>
        <time>1970-01-01T02:51:30.000Z</time>
      </trkpt>
      <trkpt lat="44.93775" lon="0.83692">
        <ele>169.3</ele>
        <time>1970-01-01T02:51:31.000Z</time>
      </trkpt>
      <trkpt lat="44.93768" lon="0.83704">
        <ele>168.2</ele>
        <time>1970-01-01T02:51:32.000Z</time>
      </trkpt>
      <trkpt lat="44.93762" lon="0.83716">
        <ele>167.1</ele>
        <time>1970-01-01T02:51:33.000Z</time>
      </trkpt>
      <trkpt lat="44.93756" lon="0.83729">
        <ele>165.9</ele>
        <time>1970-01-01T02:51:34.000Z</time>
      </trkpt>
      <trkpt lat="44.93751" lon="0.83741">
        <ele>164.7</ele>
        <time>1970-01-01T02:51:35.000Z</time>
      </trkpt>
      <trkpt lat="44.93746" lon="0.83753">
        <ele>163.5</ele>
        <time>1970-01-01T02:51:36.000Z</time>
      </trkpt>
      <trkpt lat="44.93741" lon="0.83766">
        <ele>162.1</ele>
        <time>1970-01-01T02:51:37.000Z</time>
      </trkpt>
      <trkpt lat="44.93736" lon="0.83778">
        <ele>160.7</ele>
        <time>1970-01-01T02:51:38.000Z</time>
      </trkpt>
      <trkpt lat="44.93732" lon="0.8379">
        <ele>159.4</ele>
        <time>1970-01-01T02:51:39.000Z</time>
      </trkpt>
      <trkpt lat="44.93727" lon="0.83801">
        <ele>158.2</ele>
        <time>1970-01-01T02:51:40.000Z</time>
      </trkpt>
      <trkpt lat="44.93722" lon="0.83811">
        <ele>157</ele>
        <time>1970-01-01T02:51:41.000Z</time>
      </trkpt>
      <trkpt lat="44.93717" lon="0.83822">
        <ele>155.8</ele>
        <time>1970-01-01T02:51:42.000Z</time>
      </trkpt>
      <trkpt lat="44.93713" lon="0.83832">
        <ele>154.7</ele>
        <time>1970-01-01T02:51:43.000Z</time>
      </trkpt>
      <trkpt lat="44.9371" lon="0.83844">
        <ele>153.7</ele>
        <time>1970-01-01T02:51:44.000Z</time>
      </trkpt>
      <trkpt lat="44.93706" lon="0.83855">
        <ele>152.8</ele>
        <time>1970-01-01T02:51:45.000Z</time>
      </trkpt>
      <trkpt lat="44.93703" lon="0.83866">
        <ele>152</ele>
        <time>1970-01-01T02:51:46.000Z</time>
      </trkpt>
      <trkpt lat="44.937" lon="0.83878">
        <ele>151.3</ele>
        <time>1970-01-01T02:51:47.000Z</time>
      </trkpt>
      <trkpt lat="44.93696" lon="0.83888">
        <ele>150.6</ele>
        <time>1970-01-01T02:51:48.000Z</time>
      </trkpt>
      <trkpt lat="44.9369" lon="0.83898">
        <ele>150.1</ele>
        <time>1970-01-01T02:51:49.000Z</time>
      </trkpt>
      <trkpt lat="44.93684" lon="0.83906">
        <ele>149.7</ele>
        <time>1970-01-01T02:51:50.000Z</time>
      </trkpt>
      <trkpt lat="44.93677" lon="0.83912">
        <ele>149.5</ele>
        <time>1970-01-01T02:51:51.000Z</time>
      </trkpt>
      <trkpt lat="44.93671" lon="0.83918">
        <ele>149.4</ele>
        <time>1970-01-01T02:51:52.000Z</time>
      </trkpt>
      <trkpt lat="44.93666" lon="0.83924">
        <ele>149.3</ele>
        <time>1970-01-01T02:51:53.000Z</time>
      </trkpt>
      <trkpt lat="44.9366" lon="0.83928">
        <ele>149.3</ele>
        <time>1970-01-01T02:51:54.000Z</time>
      </trkpt>
      <trkpt lat="44.93655" lon="0.83933">
        <ele>149.3</ele>
        <time>1970-01-01T02:51:55.000Z</time>
      </trkpt>
      <trkpt lat="44.9365" lon="0.83937">
        <ele>149.3</ele>
        <time>1970-01-01T02:51:56.000Z</time>
      </trkpt>
      <trkpt lat="44.93645" lon="0.83942">
        <ele>149.3</ele>
        <time>1970-01-01T02:51:57.000Z</time>
      </trkpt>
      <trkpt lat="44.93641" lon="0.83946">
        <ele>149.3</ele>
        <time>1970-01-01T02:51:58.000Z</time>
      </trkpt>
      <trkpt lat="44.93636" lon="0.8395">
        <ele>149.3</ele>
        <time>1970-01-01T02:51:59.000Z</time>
      </trkpt>
      <trkpt lat="44.93631" lon="0.83954">
        <ele>149.3</ele>
        <time>1970-01-01T02:52:00.000Z</time>
      </trkpt>
      <trkpt lat="44.93626" lon="0.83958">
        <ele>149.2</ele>
        <time>1970-01-01T02:52:01.000Z</time>
      </trkpt>
      <trkpt lat="44.93621" lon="0.83961">
        <ele>149.1</ele>
        <time>1970-01-01T02:52:02.000Z</time>
      </trkpt>
      <trkpt lat="44.93616" lon="0.83966">
        <ele>149</ele>
        <time>1970-01-01T02:52:03.000Z</time>
      </trkpt>
      <trkpt lat="44.93611" lon="0.8397">
        <ele>148.9</ele>
        <time>1970-01-01T02:52:04.000Z</time>
      </trkpt>
      <trkpt lat="44.93606" lon="0.83975">
        <ele>148.9</ele>
        <time>1970-01-01T02:52:05.000Z</time>
      </trkpt>
      <trkpt lat="44.93601" lon="0.83979">
        <ele>149</ele>
        <time>1970-01-01T02:52:06.000Z</time>
      </trkpt>
      <trkpt lat="44.93596" lon="0.83983">
        <ele>149</ele>
        <time>1970-01-01T02:52:07.000Z</time>
      </trkpt>
      <trkpt lat="44.93591" lon="0.83988">
        <ele>149.1</ele>
        <time>1970-01-01T02:52:08.000Z</time>
      </trkpt>
      <trkpt lat="44.93587" lon="0.83994">
        <ele>149.3</ele>
        <time>1970-01-01T02:52:09.000Z</time>
      </trkpt>
      <trkpt lat="44.93583" lon="0.84">
        <ele>149.4</ele>
        <time>1970-01-01T02:52:10.000Z</time>
      </trkpt>
      <trkpt lat="44.93579" lon="0.84006">
        <ele>149.6</ele>
        <time>1970-01-01T02:52:11.000Z</time>
      </trkpt>
      <trkpt lat="44.93576" lon="0.84011">
        <ele>149.9</ele>
        <time>1970-01-01T02:52:12.000Z</time>
      </trkpt>
      <trkpt lat="44.93574" lon="0.84017">
        <ele>150.1</ele>
        <time>1970-01-01T02:52:13.000Z</time>
      </trkpt>
      <trkpt lat="44.93572" lon="0.84023">
        <ele>150.3</ele>
        <time>1970-01-01T02:52:14.000Z</time>
      </trkpt>
      <trkpt lat="44.9357" lon="0.84028">
        <ele>150.6</ele>
        <time>1970-01-01T02:52:15.000Z</time>
      </trkpt>
      <trkpt lat="44.93568" lon="0.84034">
        <ele>150.8</ele>
        <time>1970-01-01T02:52:16.000Z</time>
      </trkpt>
      <trkpt lat="44.93567" lon="0.8404">
        <ele>151.1</ele>
        <time>1970-01-01T02:52:17.000Z</time>
      </trkpt>
      <trkpt lat="44.93565" lon="0.84047">
        <ele>151.3</ele>
        <time>1970-01-01T02:52:18.000Z</time>
      </trkpt>
      <trkpt lat="44.93563" lon="0.84053">
        <ele>151.5</ele>
        <time>1970-01-01T02:52:19.000Z</time>
      </trkpt>
      <trkpt lat="44.93561" lon="0.8406">
        <ele>151.7</ele>
        <time>1970-01-01T02:52:20.000Z</time>
      </trkpt>
      <trkpt lat="44.93558" lon="0.84066">
        <ele>151.8</ele>
        <time>1970-01-01T02:52:21.000Z</time>
      </trkpt>
      <trkpt lat="44.93556" lon="0.84073">
        <ele>151.9</ele>
        <time>1970-01-01T02:52:22.000Z</time>
      </trkpt>
      <trkpt lat="44.93553" lon="0.84079">
        <ele>151.9</ele>
        <time>1970-01-01T02:52:23.000Z</time>
      </trkpt>
      <trkpt lat="44.93551" lon="0.84086">
        <ele>151.9</ele>
        <time>1970-01-01T02:52:24.000Z</time>
      </trkpt>
      <trkpt lat="44.93549" lon="0.84093">
        <ele>152</ele>
        <time>1970-01-01T02:52:25.000Z</time>
      </trkpt>
      <trkpt lat="44.93546" lon="0.84099">
        <ele>152</ele>
        <time>1970-01-01T02:52:26.000Z</time>
      </trkpt>
      <trkpt lat="44.93544" lon="0.84106">
        <ele>152.1</ele>
        <time>1970-01-01T02:52:27.000Z</time>
      </trkpt>
      <trkpt lat="44.93542" lon="0.84112">
        <ele>152.2</ele>
        <time>1970-01-01T02:52:28.000Z</time>
      </trkpt>
      <trkpt lat="44.9354" lon="0.84119">
        <ele>152.3</ele>
        <time>1970-01-01T02:52:29.000Z</time>
      </trkpt>
      <trkpt lat="44.93539" lon="0.84125">
        <ele>152.4</ele>
        <time>1970-01-01T02:52:30.000Z</time>
      </trkpt>
      <trkpt lat="44.93538" lon="0.84132">
        <ele>152.5</ele>
        <time>1970-01-01T02:52:31.000Z</time>
      </trkpt>
      <trkpt lat="44.93536" lon="0.84139">
        <ele>152.6</ele>
        <time>1970-01-01T02:52:32.000Z</time>
      </trkpt>
      <trkpt lat="44.93535" lon="0.84145">
        <ele>152.7</ele>
        <time>1970-01-01T02:52:33.000Z</time>
      </trkpt>
      <trkpt lat="44.93534" lon="0.84152">
        <ele>152.8</ele>
        <time>1970-01-01T02:52:34.000Z</time>
      </trkpt>
      <trkpt lat="44.93534" lon="0.84159">
        <ele>152.8</ele>
        <time>1970-01-01T02:52:35.000Z</time>
      </trkpt>
      <trkpt lat="44.93533" lon="0.84166">
        <ele>152.9</ele>
        <time>1970-01-01T02:52:36.000Z</time>
      </trkpt>
      <trkpt lat="44.93532" lon="0.84173">
        <ele>152.9</ele>
        <time>1970-01-01T02:52:37.000Z</time>
      </trkpt>
      <trkpt lat="44.93531" lon="0.8418">
        <ele>152.9</ele>
        <time>1970-01-01T02:52:38.000Z</time>
      </trkpt>
      <trkpt lat="44.9353" lon="0.84187">
        <ele>152.9</ele>
        <time>1970-01-01T02:52:39.000Z</time>
      </trkpt>
      <trkpt lat="44.93529" lon="0.84194">
        <ele>152.9</ele>
        <time>1970-01-01T02:52:40.000Z</time>
      </trkpt>
      <trkpt lat="44.93528" lon="0.84201">
        <ele>153</ele>
        <time>1970-01-01T02:52:41.000Z</time>
      </trkpt>
      <trkpt lat="44.93527" lon="0.84209">
        <ele>153</ele>
        <time>1970-01-01T02:52:42.000Z</time>
      </trkpt>
      <trkpt lat="44.93525" lon="0.84216">
        <ele>153.1</ele>
        <time>1970-01-01T02:52:43.000Z</time>
      </trkpt>
      <trkpt lat="44.93524" lon="0.84223">
        <ele>153.1</ele>
        <time>1970-01-01T02:52:44.000Z</time>
      </trkpt>
      <trkpt lat="44.93523" lon="0.84229">
        <ele>153.2</ele>
        <time>1970-01-01T02:52:45.000Z</time>
      </trkpt>
      <trkpt lat="44.93522" lon="0.84236">
        <ele>153.3</ele>
        <time>1970-01-01T02:52:46.000Z</time>
      </trkpt>
      <trkpt lat="44.93521" lon="0.84242">
        <ele>153.4</ele>
        <time>1970-01-01T02:52:47.000Z</time>
      </trkpt>
      <trkpt lat="44.9352" lon="0.84249">
        <ele>153.5</ele>
        <time>1970-01-01T02:52:48.000Z</time>
      </trkpt>
      <trkpt lat="44.93519" lon="0.84256">
        <ele>153.6</ele>
        <time>1970-01-01T02:52:49.000Z</time>
      </trkpt>
      <trkpt lat="44.93518" lon="0.84262">
        <ele>153.8</ele>
        <time>1970-01-01T02:52:50.000Z</time>
      </trkpt>
      <trkpt lat="44.93517" lon="0.84269">
        <ele>153.9</ele>
        <time>1970-01-01T02:52:51.000Z</time>
      </trkpt>
      <trkpt lat="44.93516" lon="0.84275">
        <ele>154.1</ele>
        <time>1970-01-01T02:52:52.000Z</time>
      </trkpt>
      <trkpt lat="44.93515" lon="0.84282">
        <ele>154.2</ele>
        <time>1970-01-01T02:52:53.000Z</time>
      </trkpt>
      <trkpt lat="44.93515" lon="0.84288">
        <ele>154.3</ele>
        <time>1970-01-01T02:52:54.000Z</time>
      </trkpt>
      <trkpt lat="44.93514" lon="0.84295">
        <ele>154.4</ele>
        <time>1970-01-01T02:52:55.000Z</time>
      </trkpt>
      <trkpt lat="44.93513" lon="0.84302">
        <ele>154.5</ele>
        <time>1970-01-01T02:52:56.000Z</time>
      </trkpt>
      <trkpt lat="44.93512" lon="0.84309">
        <ele>154.5</ele>
        <time>1970-01-01T02:52:57.000Z</time>
      </trkpt>
      <trkpt lat="44.93511" lon="0.84316">
        <ele>154.5</ele>
        <time>1970-01-01T02:52:58.000Z</time>
      </trkpt>
      <trkpt lat="44.9351" lon="0.84323">
        <ele>154.5</ele>
        <time>1970-01-01T02:52:59.000Z</time>
      </trkpt>
      <trkpt lat="44.93509" lon="0.84329">
        <ele>154.5</ele>
        <time>1970-01-01T02:53:00.000Z</time>
      </trkpt>
      <trkpt lat="44.93509" lon="0.84336">
        <ele>154.5</ele>
        <time>1970-01-01T02:53:01.000Z</time>
      </trkpt>
      <trkpt lat="44.93508" lon="0.84343">
        <ele>154.4</ele>
        <time>1970-01-01T02:53:02.000Z</time>
      </trkpt>
      <trkpt lat="44.93507" lon="0.84349">
        <ele>154.3</ele>
        <time>1970-01-01T02:53:03.000Z</time>
      </trkpt>
      <trkpt lat="44.93506" lon="0.84356">
        <ele>154.2</ele>
        <time>1970-01-01T02:53:04.000Z</time>
      </trkpt>
      <trkpt lat="44.93504" lon="0.84363">
        <ele>154.1</ele>
        <time>1970-01-01T02:53:05.000Z</time>
      </trkpt>
      <trkpt lat="44.93503" lon="0.8437">
        <ele>154.1</ele>
        <time>1970-01-01T02:53:06.000Z</time>
      </trkpt>
      <trkpt lat="44.93502" lon="0.84377">
        <ele>154</ele>
        <time>1970-01-01T02:53:07.000Z</time>
      </trkpt>
      <trkpt lat="44.93501" lon="0.84384">
        <ele>154.1</ele>
        <time>1970-01-01T02:53:08.000Z</time>
      </trkpt>
      <trkpt lat="44.93499" lon="0.84391">
        <ele>154.1</ele>
        <time>1970-01-01T02:53:09.000Z</time>
      </trkpt>
      <trkpt lat="44.93498" lon="0.84398">
        <ele>154.3</ele>
        <time>1970-01-01T02:53:10.000Z</time>
      </trkpt>
      <trkpt lat="44.93496" lon="0.84404">
        <ele>154.5</ele>
        <time>1970-01-01T02:53:11.000Z</time>
      </trkpt>
      <trkpt lat="44.93493" lon="0.84409">
        <ele>154.7</ele>
        <time>1970-01-01T02:53:12.000Z</time>
      </trkpt>
      <trkpt lat="44.93491" lon="0.84412">
        <ele>154.9</ele>
        <time>1970-01-01T02:53:13.000Z</time>
      </trkpt>
      <trkpt lat="44.93488" lon="0.84415">
        <ele>155.2</ele>
        <time>1970-01-01T02:53:14.000Z</time>
      </trkpt>
      <trkpt lat="44.93485" lon="0.84418">
        <ele>155.5</ele>
        <time>1970-01-01T02:53:15.000Z</time>
      </trkpt>
      <trkpt lat="44.93482" lon="0.84422">
        <ele>155.8</ele>
        <time>1970-01-01T02:53:16.000Z</time>
      </trkpt>
      <trkpt lat="44.9348" lon="0.84426">
        <ele>156.1</ele>
        <time>1970-01-01T02:53:17.000Z</time>
      </trkpt>
      <trkpt lat="44.93477" lon="0.84429">
        <ele>156.4</ele>
        <time>1970-01-01T02:53:18.000Z</time>
      </trkpt>
      <trkpt lat="44.93475" lon="0.84433">
        <ele>156.7</ele>
        <time>1970-01-01T02:53:19.000Z</time>
      </trkpt>
      <trkpt lat="44.93473" lon="0.84437">
        <ele>157</ele>
        <time>1970-01-01T02:53:20.000Z</time>
      </trkpt>
      <trkpt lat="44.93471" lon="0.8444">
        <ele>157.2</ele>
        <time>1970-01-01T02:53:21.000Z</time>
      </trkpt>
      <trkpt lat="44.93469" lon="0.84444">
        <ele>157.4</ele>
        <time>1970-01-01T02:53:22.000Z</time>
      </trkpt>
      <trkpt lat="44.93467" lon="0.84448">
        <ele>157.6</ele>
        <time>1970-01-01T02:53:23.000Z</time>
      </trkpt>
      <trkpt lat="44.93466" lon="0.84452">
        <ele>157.8</ele>
        <time>1970-01-01T02:53:24.000Z</time>
      </trkpt>
      <trkpt lat="44.93464" lon="0.84456">
        <ele>158</ele>
        <time>1970-01-01T02:53:25.000Z</time>
      </trkpt>
      <trkpt lat="44.93462" lon="0.84461">
        <ele>158.2</ele>
        <time>1970-01-01T02:53:26.000Z</time>
      </trkpt>
      <trkpt lat="44.93461" lon="0.84466">
        <ele>158.4</ele>
        <time>1970-01-01T02:53:27.000Z</time>
      </trkpt>
      <trkpt lat="44.93459" lon="0.84471">
        <ele>158.5</ele>
        <time>1970-01-01T02:53:28.000Z</time>
      </trkpt>
      <trkpt lat="44.93457" lon="0.84476">
        <ele>158.6</ele>
        <time>1970-01-01T02:53:29.000Z</time>
      </trkpt>
      <trkpt lat="44.93456" lon="0.84481">
        <ele>158.7</ele>
        <time>1970-01-01T02:53:30.000Z</time>
      </trkpt>
      <trkpt lat="44.93455" lon="0.84486">
        <ele>158.8</ele>
        <time>1970-01-01T02:53:31.000Z</time>
      </trkpt>
      <trkpt lat="44.93454" lon="0.84491">
        <ele>158.9</ele>
        <time>1970-01-01T02:53:32.000Z</time>
      </trkpt>
      <trkpt lat="44.93453" lon="0.84495">
        <ele>158.9</ele>
        <time>1970-01-01T02:53:33.000Z</time>
      </trkpt>
      <trkpt lat="44.93452" lon="0.84498">
        <ele>159</ele>
        <time>1970-01-01T02:53:34.000Z</time>
      </trkpt>
      <trkpt lat="44.93451" lon="0.845">
        <ele>159</ele>
        <time>1970-01-01T02:53:35.000Z</time>
      </trkpt>
      <trkpt lat="44.9345" lon="0.84501">
        <ele>159</ele>
        <time>1970-01-01T02:53:36.000Z</time>
      </trkpt>
      <trkpt lat="44.9345" lon="0.84503">
        <ele>159</ele>
        <time>1970-01-01T02:53:37.000Z</time>
      </trkpt>
      <trkpt lat="44.9345" lon="0.84505">
        <ele>158.9</ele>
        <time>1970-01-01T02:53:38.000Z</time>
      </trkpt>
      <trkpt lat="44.93449" lon="0.84507">
        <ele>158.9</ele>
        <time>1970-01-01T02:53:39.000Z</time>
      </trkpt>
      <trkpt lat="44.93449" lon="0.8451">
        <ele>158.8</ele>
        <time>1970-01-01T02:53:40.000Z</time>
      </trkpt>
      <trkpt lat="44.93448" lon="0.84512">
        <ele>158.8</ele>
        <time>1970-01-01T02:53:41.000Z</time>
      </trkpt>
      <trkpt lat="44.93447" lon="0.84515">
        <ele>158.7</ele>
        <time>1970-01-01T02:53:42.000Z</time>
      </trkpt>
      <trkpt lat="44.93446" lon="0.84518">
        <ele>158.7</ele>
        <time>1970-01-01T02:53:43.000Z</time>
      </trkpt>
      <trkpt lat="44.93445" lon="0.84521">
        <ele>158.5</ele>
        <time>1970-01-01T02:53:44.000Z</time>
      </trkpt>
      <trkpt lat="44.93443" lon="0.84524">
        <ele>158.2</ele>
        <time>1970-01-01T02:53:45.000Z</time>
      </trkpt>
      <trkpt lat="44.93442" lon="0.84527">
        <ele>157.9</ele>
        <time>1970-01-01T02:53:46.000Z</time>
      </trkpt>
      <trkpt lat="44.9344" lon="0.84531">
        <ele>157.6</ele>
        <time>1970-01-01T02:53:47.000Z</time>
      </trkpt>
      <trkpt lat="44.93439" lon="0.84535">
        <ele>157.3</ele>
        <time>1970-01-01T02:53:48.000Z</time>
      </trkpt>
      <trkpt lat="44.93437" lon="0.8454">
        <ele>157</ele>
        <time>1970-01-01T02:53:49.000Z</time>
      </trkpt>
      <trkpt lat="44.93435" lon="0.84545">
        <ele>156.6</ele>
        <time>1970-01-01T02:53:50.000Z</time>
      </trkpt>
      <trkpt lat="44.93433" lon="0.8455">
        <ele>156.2</ele>
        <time>1970-01-01T02:53:51.000Z</time>
      </trkpt>
      <trkpt lat="44.93431" lon="0.84556">
        <ele>155.7</ele>
        <time>1970-01-01T02:53:52.000Z</time>
      </trkpt>
      <trkpt lat="44.93429" lon="0.84562">
        <ele>155.3</ele>
        <time>1970-01-01T02:53:53.000Z</time>
      </trkpt>
      <trkpt lat="44.93427" lon="0.84569">
        <ele>154.9</ele>
        <time>1970-01-01T02:53:54.000Z</time>
      </trkpt>
      <trkpt lat="44.93425" lon="0.84575">
        <ele>154.5</ele>
        <time>1970-01-01T02:53:55.000Z</time>
      </trkpt>
      <trkpt lat="44.93423" lon="0.84582">
        <ele>154.1</ele>
        <time>1970-01-01T02:53:56.000Z</time>
      </trkpt>
      <trkpt lat="44.93421" lon="0.84589">
        <ele>153.7</ele>
        <time>1970-01-01T02:53:57.000Z</time>
      </trkpt>
      <trkpt lat="44.93418" lon="0.84597">
        <ele>153.3</ele>
        <time>1970-01-01T02:53:58.000Z</time>
      </trkpt>
      <trkpt lat="44.93416" lon="0.84605">
        <ele>152.8</ele>
        <time>1970-01-01T02:53:59.000Z</time>
      </trkpt>
      <trkpt lat="44.93413" lon="0.84614">
        <ele>152.4</ele>
        <time>1970-01-01T02:54:00.000Z</time>
      </trkpt>
      <trkpt lat="44.93411" lon="0.84623">
        <ele>152</ele>
        <time>1970-01-01T02:54:01.000Z</time>
      </trkpt>
      <trkpt lat="44.93408" lon="0.84632">
        <ele>151.6</ele>
        <time>1970-01-01T02:54:02.000Z</time>
      </trkpt>
      <trkpt lat="44.93406" lon="0.8464">
        <ele>151.3</ele>
        <time>1970-01-01T02:54:03.000Z</time>
      </trkpt>
      <trkpt lat="44.93404" lon="0.84649">
        <ele>151.1</ele>
        <time>1970-01-01T02:54:04.000Z</time>
      </trkpt>
      <trkpt lat="44.93401" lon="0.84658">
        <ele>150.9</ele>
        <time>1970-01-01T02:54:05.000Z</time>
      </trkpt>
      <trkpt lat="44.93399" lon="0.84666">
        <ele>150.8</ele>
        <time>1970-01-01T02:54:06.000Z</time>
      </trkpt>
      <trkpt lat="44.93397" lon="0.84674">
        <ele>150.8</ele>
        <time>1970-01-01T02:54:07.000Z</time>
      </trkpt>
      <trkpt lat="44.93394" lon="0.84681">
        <ele>150.8</ele>
        <time>1970-01-01T02:54:08.000Z</time>
      </trkpt>
      <trkpt lat="44.93392" lon="0.84689">
        <ele>150.9</ele>
        <time>1970-01-01T02:54:09.000Z</time>
      </trkpt>
      <trkpt lat="44.9339" lon="0.84696">
        <ele>150.9</ele>
        <time>1970-01-01T02:54:10.000Z</time>
      </trkpt>
      <trkpt lat="44.93387" lon="0.84702">
        <ele>151.1</ele>
        <time>1970-01-01T02:54:11.000Z</time>
      </trkpt>
      <trkpt lat="44.93383" lon="0.84706">
        <ele>151.2</ele>
        <time>1970-01-01T02:54:12.000Z</time>
      </trkpt>
      <trkpt lat="44.93379" lon="0.84708">
        <ele>152.1</ele>
        <time>1970-01-01T02:54:13.000Z</time>
      </trkpt>
      <trkpt lat="44.93375" lon="0.84709">
        <ele>152.4</ele>
        <time>1970-01-01T02:54:14.000Z</time>
      </trkpt>
      <trkpt lat="44.93372" lon="0.84708">
        <ele>152.7</ele>
        <time>1970-01-01T02:54:15.000Z</time>
      </trkpt>
      <trkpt lat="44.93369" lon="0.84707">
        <ele>152.9</ele>
        <time>1970-01-01T02:54:16.000Z</time>
      </trkpt>
      <trkpt lat="44.93367" lon="0.84706">
        <ele>153</ele>
        <time>1970-01-01T02:54:17.000Z</time>
      </trkpt>
      <trkpt lat="44.93364" lon="0.84704">
        <ele>153.2</ele>
        <time>1970-01-01T02:54:18.000Z</time>
      </trkpt>
      <trkpt lat="44.93362" lon="0.84702">
        <ele>153.3</ele>
        <time>1970-01-01T02:54:19.000Z</time>
      </trkpt>
      <trkpt lat="44.93359" lon="0.84699">
        <ele>153.4</ele>
        <time>1970-01-01T02:54:20.000Z</time>
      </trkpt>
      <trkpt lat="44.93357" lon="0.84696">
        <ele>153.5</ele>
        <time>1970-01-01T02:54:21.000Z</time>
      </trkpt>
      <trkpt lat="44.93354" lon="0.84692">
        <ele>153.5</ele>
        <time>1970-01-01T02:54:22.000Z</time>
      </trkpt>
      <trkpt lat="44.93352" lon="0.84689">
        <ele>153.5</ele>
        <time>1970-01-01T02:54:23.000Z</time>
      </trkpt>
      <trkpt lat="44.93349" lon="0.84686">
        <ele>153.5</ele>
        <time>1970-01-01T02:54:24.000Z</time>
      </trkpt>
      <trkpt lat="44.93345" lon="0.84682">
        <ele>153.5</ele>
        <time>1970-01-01T02:54:25.000Z</time>
      </trkpt>
      <trkpt lat="44.93342" lon="0.8468">
        <ele>153.5</ele>
        <time>1970-01-01T02:54:26.000Z</time>
      </trkpt>
      <trkpt lat="44.93337" lon="0.84678">
        <ele>153.4</ele>
        <time>1970-01-01T02:54:27.000Z</time>
      </trkpt>
      <trkpt lat="44.93333" lon="0.84676">
        <ele>153.4</ele>
        <time>1970-01-01T02:54:28.000Z</time>
      </trkpt>
      <trkpt lat="44.93329" lon="0.84674">
        <ele>153.4</ele>
        <time>1970-01-01T02:54:29.000Z</time>
      </trkpt>
      <trkpt lat="44.93324" lon="0.84672">
        <ele>153.4</ele>
        <time>1970-01-01T02:54:30.000Z</time>
      </trkpt>
      <trkpt lat="44.93318" lon="0.8467">
        <ele>153.4</ele>
        <time>1970-01-01T02:54:31.000Z</time>
      </trkpt>
      <trkpt lat="44.93313" lon="0.84669">
        <ele>153.5</ele>
        <time>1970-01-01T02:54:32.000Z</time>
      </trkpt>
      <trkpt lat="44.93307" lon="0.84669">
        <ele>153.6</ele>
        <time>1970-01-01T02:54:33.000Z</time>
      </trkpt>
      <trkpt lat="44.93302" lon="0.84669">
        <ele>153.8</ele>
        <time>1970-01-01T02:54:34.000Z</time>
      </trkpt>
      <trkpt lat="44.93296" lon="0.8467">
        <ele>154</ele>
        <time>1970-01-01T02:54:35.000Z</time>
      </trkpt>
      <trkpt lat="44.93291" lon="0.84671">
        <ele>154.2</ele>
        <time>1970-01-01T02:54:36.000Z</time>
      </trkpt>
      <trkpt lat="44.93286" lon="0.84673">
        <ele>154.5</ele>
        <time>1970-01-01T02:54:37.000Z</time>
      </trkpt>
      <trkpt lat="44.93281" lon="0.84675">
        <ele>154.7</ele>
        <time>1970-01-01T02:54:38.000Z</time>
      </trkpt>
      <trkpt lat="44.93277" lon="0.84677">
        <ele>154.9</ele>
        <time>1970-01-01T02:54:39.000Z</time>
      </trkpt>
      <trkpt lat="44.93273" lon="0.84681">
        <ele>155.1</ele>
        <time>1970-01-01T02:54:40.000Z</time>
      </trkpt>
      <trkpt lat="44.93269" lon="0.84684">
        <ele>155.3</ele>
        <time>1970-01-01T02:54:41.000Z</time>
      </trkpt>
      <trkpt lat="44.93264" lon="0.84686">
        <ele>155.4</ele>
        <time>1970-01-01T02:54:42.000Z</time>
      </trkpt>
      <trkpt lat="44.9326" lon="0.84687">
        <ele>155.6</ele>
        <time>1970-01-01T02:54:43.000Z</time>
      </trkpt>
      <trkpt lat="44.93255" lon="0.84687">
        <ele>155.7</ele>
        <time>1970-01-01T02:54:44.000Z</time>
      </trkpt>
      <trkpt lat="44.9325" lon="0.84687">
        <ele>155.9</ele>
        <time>1970-01-01T02:54:45.000Z</time>
      </trkpt>
      <trkpt lat="44.93245" lon="0.84687">
        <ele>156</ele>
        <time>1970-01-01T02:54:46.000Z</time>
      </trkpt>
      <trkpt lat="44.9324" lon="0.84687">
        <ele>156.2</ele>
        <time>1970-01-01T02:54:47.000Z</time>
      </trkpt>
      <trkpt lat="44.93235" lon="0.84688">
        <ele>156.3</ele>
        <time>1970-01-01T02:54:48.000Z</time>
      </trkpt>
      <trkpt lat="44.9323" lon="0.84689">
        <ele>156.5</ele>
        <time>1970-01-01T02:54:49.000Z</time>
      </trkpt>
      <trkpt lat="44.93225" lon="0.8469">
        <ele>156.6</ele>
        <time>1970-01-01T02:54:50.000Z</time>
      </trkpt>
      <trkpt lat="44.9322" lon="0.84692">
        <ele>156.8</ele>
        <time>1970-01-01T02:54:51.000Z</time>
      </trkpt>
      <trkpt lat="44.93216" lon="0.84694">
        <ele>157</ele>
        <time>1970-01-01T02:54:52.000Z</time>
      </trkpt>
      <trkpt lat="44.93212" lon="0.84697">
        <ele>157.3</ele>
        <time>1970-01-01T02:54:53.000Z</time>
      </trkpt>
      <trkpt lat="44.93208" lon="0.84701">
        <ele>157.5</ele>
        <time>1970-01-01T02:54:54.000Z</time>
      </trkpt>
      <trkpt lat="44.93204" lon="0.84705">
        <ele>157.8</ele>
        <time>1970-01-01T02:54:55.000Z</time>
      </trkpt>
      <trkpt lat="44.932" lon="0.84709">
        <ele>158.1</ele>
        <time>1970-01-01T02:54:56.000Z</time>
      </trkpt>
      <trkpt lat="44.93197" lon="0.84713">
        <ele>158.5</ele>
        <time>1970-01-01T02:54:57.000Z</time>
      </trkpt>
      <trkpt lat="44.93194" lon="0.84717">
        <ele>158.8</ele>
        <time>1970-01-01T02:54:58.000Z</time>
      </trkpt>
      <trkpt lat="44.93192" lon="0.84721">
        <ele>159.1</ele>
        <time>1970-01-01T02:54:59.000Z</time>
      </trkpt>
      <trkpt lat="44.93189" lon="0.84726">
        <ele>159.4</ele>
        <time>1970-01-01T02:55:00.000Z</time>
      </trkpt>
      <trkpt lat="44.93187" lon="0.8473">
        <ele>159.7</ele>
        <time>1970-01-01T02:55:01.000Z</time>
      </trkpt>
      <trkpt lat="44.93185" lon="0.84735">
        <ele>160</ele>
        <time>1970-01-01T02:55:02.000Z</time>
      </trkpt>
      <trkpt lat="44.93183" lon="0.84738">
        <ele>160.3</ele>
        <time>1970-01-01T02:55:03.000Z</time>
      </trkpt>
      <trkpt lat="44.9318" lon="0.84741">
        <ele>160.6</ele>
        <time>1970-01-01T02:55:04.000Z</time>
      </trkpt>
      <trkpt lat="44.93178" lon="0.84744">
        <ele>160.8</ele>
        <time>1970-01-01T02:55:05.000Z</time>
      </trkpt>
      <trkpt lat="44.93175" lon="0.84746">
        <ele>161</ele>
        <time>1970-01-01T02:55:06.000Z</time>
      </trkpt>
      <trkpt lat="44.93172" lon="0.84748">
        <ele>161.2</ele>
        <time>1970-01-01T02:55:07.000Z</time>
      </trkpt>
      <trkpt lat="44.93169" lon="0.84749">
        <ele>161.3</ele>
        <time>1970-01-01T02:55:08.000Z</time>
      </trkpt>
      <trkpt lat="44.93165" lon="0.84749">
        <ele>161.5</ele>
        <time>1970-01-01T02:55:09.000Z</time>
      </trkpt>
      <trkpt lat="44.93162" lon="0.84749">
        <ele>161.7</ele>
        <time>1970-01-01T02:55:10.000Z</time>
      </trkpt>
      <trkpt lat="44.93159" lon="0.84749">
        <ele>161.8</ele>
        <time>1970-01-01T02:55:11.000Z</time>
      </trkpt>
      <trkpt lat="44.93155" lon="0.84748">
        <ele>162</ele>
        <time>1970-01-01T02:55:12.000Z</time>
      </trkpt>
      <trkpt lat="44.93151" lon="0.84746">
        <ele>162.1</ele>
        <time>1970-01-01T02:55:13.000Z</time>
      </trkpt>
      <trkpt lat="44.93148" lon="0.84745">
        <ele>162.3</ele>
        <time>1970-01-01T02:55:14.000Z</time>
      </trkpt>
      <trkpt lat="44.93144" lon="0.84744">
        <ele>162.5</ele>
        <time>1970-01-01T02:55:15.000Z</time>
      </trkpt>
      <trkpt lat="44.9314" lon="0.84743">
        <ele>162.7</ele>
        <time>1970-01-01T02:55:16.000Z</time>
      </trkpt>
      <trkpt lat="44.93136" lon="0.84742">
        <ele>162.9</ele>
        <time>1970-01-01T02:55:17.000Z</time>
      </trkpt>
      <trkpt lat="44.93132" lon="0.84741">
        <ele>163.2</ele>
        <time>1970-01-01T02:55:18.000Z</time>
      </trkpt>
      <trkpt lat="44.93128" lon="0.84741">
        <ele>163.4</ele>
        <time>1970-01-01T02:55:19.000Z</time>
      </trkpt>
      <trkpt lat="44.93125" lon="0.8474">
        <ele>163.7</ele>
        <time>1970-01-01T02:55:20.000Z</time>
      </trkpt>
      <trkpt lat="44.93121" lon="0.8474">
        <ele>164</ele>
        <time>1970-01-01T02:55:21.000Z</time>
      </trkpt>
      <trkpt lat="44.93117" lon="0.8474">
        <ele>164.2</ele>
        <time>1970-01-01T02:55:22.000Z</time>
      </trkpt>
      <trkpt lat="44.93114" lon="0.8474">
        <ele>164.5</ele>
        <time>1970-01-01T02:55:23.000Z</time>
      </trkpt>
      <trkpt lat="44.93111" lon="0.8474">
        <ele>164.6</ele>
        <time>1970-01-01T02:55:24.000Z</time>
      </trkpt>
      <trkpt lat="44.93107" lon="0.84741">
        <ele>164.7</ele>
        <time>1970-01-01T02:55:25.000Z</time>
      </trkpt>
      <trkpt lat="44.93104" lon="0.84742">
        <ele>164.8</ele>
        <time>1970-01-01T02:55:26.000Z</time>
      </trkpt>
      <trkpt lat="44.93101" lon="0.84744">
        <ele>164.9</ele>
        <time>1970-01-01T02:55:27.000Z</time>
      </trkpt>
      <trkpt lat="44.93098" lon="0.84745">
        <ele>164.9</ele>
        <time>1970-01-01T02:55:28.000Z</time>
      </trkpt>
      <trkpt lat="44.93095" lon="0.84748">
        <ele>165</ele>
        <time>1970-01-01T02:55:29.000Z</time>
      </trkpt>
      <trkpt lat="44.93092" lon="0.8475">
        <ele>165.1</ele>
        <time>1970-01-01T02:55:30.000Z</time>
      </trkpt>
      <trkpt lat="44.93089" lon="0.84752">
        <ele>165.1</ele>
        <time>1970-01-01T02:55:31.000Z</time>
      </trkpt>
      <trkpt lat="44.93087" lon="0.84755">
        <ele>165.2</ele>
        <time>1970-01-01T02:55:32.000Z</time>
      </trkpt>
      <trkpt lat="44.93084" lon="0.84759">
        <ele>165.2</ele>
        <time>1970-01-01T02:55:33.000Z</time>
      </trkpt>
      <trkpt lat="44.93082" lon="0.84763">
        <ele>165.2</ele>
        <time>1970-01-01T02:55:34.000Z</time>
      </trkpt>
      <trkpt lat="44.93079" lon="0.84768">
        <ele>165.2</ele>
        <time>1970-01-01T02:55:35.000Z</time>
      </trkpt>
      <trkpt lat="44.93077" lon="0.84772">
        <ele>165.2</ele>
        <time>1970-01-01T02:55:36.000Z</time>
      </trkpt>
      <trkpt lat="44.93075" lon="0.84777">
        <ele>165.2</ele>
        <time>1970-01-01T02:55:37.000Z</time>
      </trkpt>
      <trkpt lat="44.93073" lon="0.84782">
        <ele>165</ele>
        <time>1970-01-01T02:55:38.000Z</time>
      </trkpt>
      <trkpt lat="44.9307" lon="0.84787">
        <ele>164.7</ele>
        <time>1970-01-01T02:55:39.000Z</time>
      </trkpt>
      <trkpt lat="44.93068" lon="0.84793">
        <ele>164.4</ele>
        <time>1970-01-01T02:55:40.000Z</time>
      </trkpt>
      <trkpt lat="44.93065" lon="0.84798">
        <ele>164</ele>
        <time>1970-01-01T02:55:41.000Z</time>
      </trkpt>
      <trkpt lat="44.93061" lon="0.84805">
        <ele>163.6</ele>
        <time>1970-01-01T02:55:42.000Z</time>
      </trkpt>
      <trkpt lat="44.93058" lon="0.84812">
        <ele>163</ele>
        <time>1970-01-01T02:55:43.000Z</time>
      </trkpt>
      <trkpt lat="44.93053" lon="0.84819">
        <ele>162.4</ele>
        <time>1970-01-01T02:55:44.000Z</time>
      </trkpt>
      <trkpt lat="44.93049" lon="0.84826">
        <ele>161.7</ele>
        <time>1970-01-01T02:55:45.000Z</time>
      </trkpt>
      <trkpt lat="44.93044" lon="0.84834">
        <ele>160.9</ele>
        <time>1970-01-01T02:55:46.000Z</time>
      </trkpt>
      <trkpt lat="44.93038" lon="0.84842">
        <ele>160</ele>
        <time>1970-01-01T02:55:47.000Z</time>
      </trkpt>
      <trkpt lat="44.93031" lon="0.84849">
        <ele>159</ele>
        <time>1970-01-01T02:55:48.000Z</time>
      </trkpt>
      <trkpt lat="44.93024" lon="0.84856">
        <ele>158</ele>
        <time>1970-01-01T02:55:49.000Z</time>
      </trkpt>
      <trkpt lat="44.93016" lon="0.84863">
        <ele>157</ele>
        <time>1970-01-01T02:55:50.000Z</time>
      </trkpt>
      <trkpt lat="44.93008" lon="0.84869">
        <ele>156</ele>
        <time>1970-01-01T02:55:51.000Z</time>
      </trkpt>
      <trkpt lat="44.92999" lon="0.84875">
        <ele>155</ele>
        <time>1970-01-01T02:55:52.000Z</time>
      </trkpt>
      <trkpt lat="44.92989" lon="0.8488">
        <ele>153.9</ele>
        <time>1970-01-01T02:55:53.000Z</time>
      </trkpt>
      <trkpt lat="44.92979" lon="0.84882">
        <ele>152.8</ele>
        <time>1970-01-01T02:55:54.000Z</time>
      </trkpt>
      <trkpt lat="44.92968" lon="0.84883">
        <ele>151.8</ele>
        <time>1970-01-01T02:55:55.000Z</time>
      </trkpt>
      <trkpt lat="44.92958" lon="0.84883">
        <ele>150.7</ele>
        <time>1970-01-01T02:55:56.000Z</time>
      </trkpt>
      <trkpt lat="44.92948" lon="0.84882">
        <ele>149.8</ele>
        <time>1970-01-01T02:55:57.000Z</time>
      </trkpt>
      <trkpt lat="44.92939" lon="0.84879">
        <ele>148.9</ele>
        <time>1970-01-01T02:55:58.000Z</time>
      </trkpt>
      <trkpt lat="44.92929" lon="0.84877">
        <ele>148</ele>
        <time>1970-01-01T02:55:59.000Z</time>
      </trkpt>
      <trkpt lat="44.92919" lon="0.84878">
        <ele>147.1</ele>
        <time>1970-01-01T02:56:00.000Z</time>
      </trkpt>
      <trkpt lat="44.92909" lon="0.84882">
        <ele>146.2</ele>
        <time>1970-01-01T02:56:01.000Z</time>
      </trkpt>
      <trkpt lat="44.92899" lon="0.84885">
        <ele>145.3</ele>
        <time>1970-01-01T02:56:02.000Z</time>
      </trkpt>
      <trkpt lat="44.92889" lon="0.84889">
        <ele>144.3</ele>
        <time>1970-01-01T02:56:03.000Z</time>
      </trkpt>
      <trkpt lat="44.9288" lon="0.84893">
        <ele>143.5</ele>
        <time>1970-01-01T02:56:04.000Z</time>
      </trkpt>
      <trkpt lat="44.9287" lon="0.84899">
        <ele>143</ele>
        <time>1970-01-01T02:56:05.000Z</time>
      </trkpt>
      <trkpt lat="44.9286" lon="0.84905">
        <ele>142.8</ele>
        <time>1970-01-01T02:56:06.000Z</time>
      </trkpt>
      <trkpt lat="44.92851" lon="0.84911">
        <ele>142.9</ele>
        <time>1970-01-01T02:56:07.000Z</time>
      </trkpt>
      <trkpt lat="44.92843" lon="0.84918">
        <ele>143.2</ele>
        <time>1970-01-01T02:56:08.000Z</time>
      </trkpt>
      <trkpt lat="44.92836" lon="0.84923">
        <ele>143.7</ele>
        <time>1970-01-01T02:56:09.000Z</time>
      </trkpt>
      <trkpt lat="44.9283" lon="0.84926">
        <ele>144.1</ele>
        <time>1970-01-01T02:56:10.000Z</time>
      </trkpt>
      <trkpt lat="44.92825" lon="0.84928">
        <ele>144.6</ele>
        <time>1970-01-01T02:56:11.000Z</time>
      </trkpt>
      <trkpt lat="44.92821" lon="0.84929">
        <ele>145</ele>
        <time>1970-01-01T02:56:12.000Z</time>
      </trkpt>
      <trkpt lat="44.92816" lon="0.8493">
        <ele>145.4</ele>
        <time>1970-01-01T02:56:13.000Z</time>
      </trkpt>
      <trkpt lat="44.92811" lon="0.84931">
        <ele>145.9</ele>
        <time>1970-01-01T02:56:14.000Z</time>
      </trkpt>
      <trkpt lat="44.92806" lon="0.84934">
        <ele>146.4</ele>
        <time>1970-01-01T02:56:15.000Z</time>
      </trkpt>
      <trkpt lat="44.92801" lon="0.84938">
        <ele>146.8</ele>
        <time>1970-01-01T02:56:16.000Z</time>
      </trkpt>
      <trkpt lat="44.92796" lon="0.84942">
        <ele>147.3</ele>
        <time>1970-01-01T02:56:17.000Z</time>
      </trkpt>
      <trkpt lat="44.92791" lon="0.84948">
        <ele>147.7</ele>
        <time>1970-01-01T02:56:18.000Z</time>
      </trkpt>
      <trkpt lat="44.92787" lon="0.84954">
        <ele>148.2</ele>
        <time>1970-01-01T02:56:19.000Z</time>
      </trkpt>
      <trkpt lat="44.92783" lon="0.84961">
        <ele>148.6</ele>
        <time>1970-01-01T02:56:20.000Z</time>
      </trkpt>
      <trkpt lat="44.9278" lon="0.84968">
        <ele>149.1</ele>
        <time>1970-01-01T02:56:21.000Z</time>
      </trkpt>
      <trkpt lat="44.92777" lon="0.84974">
        <ele>149.5</ele>
        <time>1970-01-01T02:56:22.000Z</time>
      </trkpt>
      <trkpt lat="44.92773" lon="0.8498">
        <ele>149.9</ele>
        <time>1970-01-01T02:56:23.000Z</time>
      </trkpt>
      <trkpt lat="44.92769" lon="0.84985">
        <ele>150.2</ele>
        <time>1970-01-01T02:56:24.000Z</time>
      </trkpt>
      <trkpt lat="44.92765" lon="0.8499">
        <ele>150.5</ele>
        <time>1970-01-01T02:56:25.000Z</time>
      </trkpt>
      <trkpt lat="44.9276" lon="0.84993">
        <ele>150.8</ele>
        <time>1970-01-01T02:56:26.000Z</time>
      </trkpt>
      <trkpt lat="44.92755" lon="0.84995">
        <ele>150.9</ele>
        <time>1970-01-01T02:56:27.000Z</time>
      </trkpt>
      <trkpt lat="44.92749" lon="0.84996">
        <ele>151</ele>
        <time>1970-01-01T02:56:28.000Z</time>
      </trkpt>
      <trkpt lat="44.92744" lon="0.84996">
        <ele>151</ele>
        <time>1970-01-01T02:56:29.000Z</time>
      </trkpt>
      <trkpt lat="44.92738" lon="0.84993">
        <ele>150.9</ele>
        <time>1970-01-01T02:56:30.000Z</time>
      </trkpt>
      <trkpt lat="44.92733" lon="0.84987">
        <ele>150.6</ele>
        <time>1970-01-01T02:56:31.000Z</time>
      </trkpt>
      <trkpt lat="44.9273" lon="0.84979">
        <ele>150.1</ele>
        <time>1970-01-01T02:56:32.000Z</time>
      </trkpt>
      <trkpt lat="44.92727" lon="0.8497">
        <ele>149.6</ele>
        <time>1970-01-01T02:56:33.000Z</time>
      </trkpt>
      <trkpt lat="44.92725" lon="0.8496">
        <ele>149.1</ele>
        <time>1970-01-01T02:56:34.000Z</time>
      </trkpt>
      <trkpt lat="44.92723" lon="0.8495">
        <ele>148.5</ele>
        <time>1970-01-01T02:56:35.000Z</time>
      </trkpt>
      <trkpt lat="44.9272" lon="0.8494">
        <ele>148</ele>
        <time>1970-01-01T02:56:36.000Z</time>
      </trkpt>
      <trkpt lat="44.92718" lon="0.84929">
        <ele>147.6</ele>
        <time>1970-01-01T02:56:37.000Z</time>
      </trkpt>
      <trkpt lat="44.92715" lon="0.84918">
        <ele>147.2</ele>
        <time>1970-01-01T02:56:38.000Z</time>
      </trkpt>
      <trkpt lat="44.92713" lon="0.84908">
        <ele>147</ele>
        <time>1970-01-01T02:56:39.000Z</time>
      </trkpt>
      <trkpt lat="44.9271" lon="0.84898">
        <ele>146.9</ele>
        <time>1970-01-01T02:56:40.000Z</time>
      </trkpt>
      <trkpt lat="44.92707" lon="0.84888">
        <ele>146.9</ele>
        <time>1970-01-01T02:56:41.000Z</time>
      </trkpt>
      <trkpt lat="44.92705" lon="0.84879">
        <ele>147</ele>
        <time>1970-01-01T02:56:42.000Z</time>
      </trkpt>
      <trkpt lat="44.92702" lon="0.8487">
        <ele>147.2</ele>
        <time>1970-01-01T02:56:43.000Z</time>
      </trkpt>
      <trkpt lat="44.927" lon="0.84862">
        <ele>147.4</ele>
        <time>1970-01-01T02:56:44.000Z</time>
      </trkpt>
      <trkpt lat="44.92697" lon="0.84855">
        <ele>147.6</ele>
        <time>1970-01-01T02:56:45.000Z</time>
      </trkpt>
      <trkpt lat="44.92694" lon="0.84848">
        <ele>147.8</ele>
        <time>1970-01-01T02:56:46.000Z</time>
      </trkpt>
      <trkpt lat="44.92691" lon="0.84843">
        <ele>148.1</ele>
        <time>1970-01-01T02:56:47.000Z</time>
      </trkpt>
      <trkpt lat="44.92686" lon="0.8484">
        <ele>148.4</ele>
        <time>1970-01-01T02:56:48.000Z</time>
      </trkpt>
      <trkpt lat="44.92681" lon="0.84839">
        <ele>148.7</ele>
        <time>1970-01-01T02:56:49.000Z</time>
      </trkpt>
      <trkpt lat="44.92677" lon="0.8484">
        <ele>148.9</ele>
        <time>1970-01-01T02:56:50.000Z</time>
      </trkpt>
      <trkpt lat="44.92672" lon="0.84843">
        <ele>149.1</ele>
        <time>1970-01-01T02:56:51.000Z</time>
      </trkpt>
      <trkpt lat="44.92668" lon="0.84846">
        <ele>149.3</ele>
        <time>1970-01-01T02:56:52.000Z</time>
      </trkpt>
      <trkpt lat="44.92663" lon="0.84849">
        <ele>149.6</ele>
        <time>1970-01-01T02:56:53.000Z</time>
      </trkpt>
      <trkpt lat="44.92658" lon="0.84852">
        <ele>149.9</ele>
        <time>1970-01-01T02:56:54.000Z</time>
      </trkpt>
      <trkpt lat="44.92654" lon="0.84856">
        <ele>150.2</ele>
        <time>1970-01-01T02:56:55.000Z</time>
      </trkpt>
      <trkpt lat="44.92649" lon="0.84859">
        <ele>150.5</ele>
        <time>1970-01-01T02:56:56.000Z</time>
      </trkpt>
      <trkpt lat="44.92645" lon="0.84862">
        <ele>150.8</ele>
        <time>1970-01-01T02:56:57.000Z</time>
      </trkpt>
      <trkpt lat="44.9264" lon="0.84865">
        <ele>151.1</ele>
        <time>1970-01-01T02:56:58.000Z</time>
      </trkpt>
      <trkpt lat="44.92636" lon="0.84868">
        <ele>151.5</ele>
        <time>1970-01-01T02:56:59.000Z</time>
      </trkpt>
      <trkpt lat="44.92633" lon="0.84871">
        <ele>151.8</ele>
        <time>1970-01-01T02:57:00.000Z</time>
      </trkpt>
      <trkpt lat="44.9263" lon="0.84875">
        <ele>152.2</ele>
        <time>1970-01-01T02:57:01.000Z</time>
      </trkpt>
      <trkpt lat="44.92627" lon="0.8488">
        <ele>152.5</ele>
        <time>1970-01-01T02:57:02.000Z</time>
      </trkpt>
      <trkpt lat="44.92624" lon="0.84885">
        <ele>152.8</ele>
        <time>1970-01-01T02:57:03.000Z</time>
      </trkpt>
      <trkpt lat="44.92621" lon="0.8489">
        <ele>153</ele>
        <time>1970-01-01T02:57:04.000Z</time>
      </trkpt>
      <trkpt lat="44.92618" lon="0.84896">
        <ele>153.3</ele>
        <time>1970-01-01T02:57:05.000Z</time>
      </trkpt>
      <trkpt lat="44.92615" lon="0.84901">
        <ele>153.5</ele>
        <time>1970-01-01T02:57:06.000Z</time>
      </trkpt>
      <trkpt lat="44.92612" lon="0.84906">
        <ele>153.8</ele>
        <time>1970-01-01T02:57:07.000Z</time>
      </trkpt>
      <trkpt lat="44.92609" lon="0.84911">
        <ele>154</ele>
        <time>1970-01-01T02:57:08.000Z</time>
      </trkpt>
      <trkpt lat="44.92606" lon="0.84916">
        <ele>154.2</ele>
        <time>1970-01-01T02:57:09.000Z</time>
      </trkpt>
      <trkpt lat="44.92602" lon="0.8492">
        <ele>154.5</ele>
        <time>1970-01-01T02:57:10.000Z</time>
      </trkpt>
      <trkpt lat="44.92598" lon="0.84924">
        <ele>155</ele>
        <time>1970-01-01T02:57:11.000Z</time>
      </trkpt>
      <trkpt lat="44.92594" lon="0.84925">
        <ele>155.3</ele>
        <time>1970-01-01T02:57:12.000Z</time>
      </trkpt>
      <trkpt lat="44.9259" lon="0.84926">
        <ele>155.6</ele>
        <time>1970-01-01T02:57:13.000Z</time>
      </trkpt>
      <trkpt lat="44.92587" lon="0.84925">
        <ele>155.8</ele>
        <time>1970-01-01T02:57:14.000Z</time>
      </trkpt>
      <trkpt lat="44.92583" lon="0.84925">
        <ele>156</ele>
        <time>1970-01-01T02:57:15.000Z</time>
      </trkpt>
      <trkpt lat="44.9258" lon="0.84925">
        <ele>156.3</ele>
        <time>1970-01-01T02:57:16.000Z</time>
      </trkpt>
      <trkpt lat="44.92576" lon="0.84925">
        <ele>156.5</ele>
        <time>1970-01-01T02:57:17.000Z</time>
      </trkpt>
      <trkpt lat="44.92573" lon="0.84925">
        <ele>156.8</ele>
        <time>1970-01-01T02:57:18.000Z</time>
      </trkpt>
      <trkpt lat="44.92569" lon="0.84926">
        <ele>157</ele>
        <time>1970-01-01T02:57:19.000Z</time>
      </trkpt>
      <trkpt lat="44.92566" lon="0.84926">
        <ele>157.3</ele>
        <time>1970-01-01T02:57:20.000Z</time>
      </trkpt>
      <trkpt lat="44.92562" lon="0.84926">
        <ele>157.5</ele>
        <time>1970-01-01T02:57:21.000Z</time>
      </trkpt>
      <trkpt lat="44.92559" lon="0.84926">
        <ele>157.8</ele>
        <time>1970-01-01T02:57:22.000Z</time>
      </trkpt>
      <trkpt lat="44.92555" lon="0.84926">
        <ele>158.1</ele>
        <time>1970-01-01T02:57:23.000Z</time>
      </trkpt>
      <trkpt lat="44.92552" lon="0.84927">
        <ele>158.3</ele>
        <time>1970-01-01T02:57:24.000Z</time>
      </trkpt>
      <trkpt lat="44.92548" lon="0.84927">
        <ele>158.6</ele>
        <time>1970-01-01T02:57:25.000Z</time>
      </trkpt>
      <trkpt lat="44.92545" lon="0.84927">
        <ele>158.8</ele>
        <time>1970-01-01T02:57:26.000Z</time>
      </trkpt>
      <trkpt lat="44.92541" lon="0.84928">
        <ele>159.1</ele>
        <time>1970-01-01T02:57:27.000Z</time>
      </trkpt>
      <trkpt lat="44.92538" lon="0.84929">
        <ele>159.3</ele>
        <time>1970-01-01T02:57:28.000Z</time>
      </trkpt>
      <trkpt lat="44.92534" lon="0.8493">
        <ele>159.6</ele>
        <time>1970-01-01T02:57:29.000Z</time>
      </trkpt>
      <trkpt lat="44.9253" lon="0.84931">
        <ele>159.8</ele>
        <time>1970-01-01T02:57:30.000Z</time>
      </trkpt>
      <trkpt lat="44.92527" lon="0.84932">
        <ele>160</ele>
        <time>1970-01-01T02:57:31.000Z</time>
      </trkpt>
      <trkpt lat="44.92523" lon="0.84933">
        <ele>160.3</ele>
        <time>1970-01-01T02:57:32.000Z</time>
      </trkpt>
      <trkpt lat="44.9252" lon="0.84935">
        <ele>160.5</ele>
        <time>1970-01-01T02:57:33.000Z</time>
      </trkpt>
      <trkpt lat="44.92516" lon="0.84936">
        <ele>160.7</ele>
        <time>1970-01-01T02:57:34.000Z</time>
      </trkpt>
      <trkpt lat="44.92513" lon="0.84937">
        <ele>161</ele>
        <time>1970-01-01T02:57:35.000Z</time>
      </trkpt>
      <trkpt lat="44.92509" lon="0.84939">
        <ele>161.3</ele>
        <time>1970-01-01T02:57:36.000Z</time>
      </trkpt>
      <trkpt lat="44.92506" lon="0.8494">
        <ele>161.6</ele>
        <time>1970-01-01T02:57:37.000Z</time>
      </trkpt>
      <trkpt lat="44.92502" lon="0.84942">
        <ele>161.9</ele>
        <time>1970-01-01T02:57:38.000Z</time>
      </trkpt>
      <trkpt lat="44.92499" lon="0.84943">
        <ele>162.2</ele>
        <time>1970-01-01T02:57:39.000Z</time>
      </trkpt>
      <trkpt lat="44.92496" lon="0.84944">
        <ele>162.6</ele>
        <time>1970-01-01T02:57:40.000Z</time>
      </trkpt>
      <trkpt lat="44.92493" lon="0.84945">
        <ele>162.9</ele>
        <time>1970-01-01T02:57:41.000Z</time>
      </trkpt>
      <trkpt lat="44.9249" lon="0.84946">
        <ele>163.2</ele>
        <time>1970-01-01T02:57:42.000Z</time>
      </trkpt>
      <trkpt lat="44.92487" lon="0.84947">
        <ele>163.6</ele>
        <time>1970-01-01T02:57:43.000Z</time>
      </trkpt>
      <trkpt lat="44.92484" lon="0.84948">
        <ele>163.9</ele>
        <time>1970-01-01T02:57:44.000Z</time>
      </trkpt>
      <trkpt lat="44.92482" lon="0.84949">
        <ele>164.2</ele>
        <time>1970-01-01T02:57:45.000Z</time>
      </trkpt>
      <trkpt lat="44.92479" lon="0.8495">
        <ele>164.5</ele>
        <time>1970-01-01T02:57:46.000Z</time>
      </trkpt>
      <trkpt lat="44.92477" lon="0.8495">
        <ele>164.8</ele>
        <time>1970-01-01T02:57:47.000Z</time>
      </trkpt>
      <trkpt lat="44.92474" lon="0.84951">
        <ele>165.1</ele>
        <time>1970-01-01T02:57:48.000Z</time>
      </trkpt>
      <trkpt lat="44.92472" lon="0.84952">
        <ele>165.4</ele>
        <time>1970-01-01T02:57:49.000Z</time>
      </trkpt>
      <trkpt lat="44.92469" lon="0.84952">
        <ele>165.7</ele>
        <time>1970-01-01T02:57:50.000Z</time>
      </trkpt>
      <trkpt lat="44.92467" lon="0.84953">
        <ele>166</ele>
        <time>1970-01-01T02:57:51.000Z</time>
      </trkpt>
      <trkpt lat="44.92465" lon="0.84954">
        <ele>166.3</ele>
        <time>1970-01-01T02:57:52.000Z</time>
      </trkpt>
      <trkpt lat="44.92462" lon="0.84954">
        <ele>166.6</ele>
        <time>1970-01-01T02:57:53.000Z</time>
      </trkpt>
      <trkpt lat="44.9246" lon="0.84955">
        <ele>166.9</ele>
        <time>1970-01-01T02:57:54.000Z</time>
      </trkpt>
      <trkpt lat="44.92457" lon="0.84955">
        <ele>167.2</ele>
        <time>1970-01-01T02:57:55.000Z</time>
      </trkpt>
      <trkpt lat="44.92454" lon="0.84956">
        <ele>167.5</ele>
        <time>1970-01-01T02:57:56.000Z</time>
      </trkpt>
      <trkpt lat="44.92452" lon="0.84956">
        <ele>167.9</ele>
        <time>1970-01-01T02:57:57.000Z</time>
      </trkpt>
      <trkpt lat="44.92449" lon="0.84956">
        <ele>168.2</ele>
        <time>1970-01-01T02:57:58.000Z</time>
      </trkpt>
      <trkpt lat="44.92447" lon="0.84956">
        <ele>168.5</ele>
        <time>1970-01-01T02:57:59.000Z</time>
      </trkpt>
      <trkpt lat="44.92444" lon="0.84956">
        <ele>168.8</ele>
        <time>1970-01-01T02:58:00.000Z</time>
      </trkpt>
      <trkpt lat="44.92442" lon="0.84956">
        <ele>169.1</ele>
        <time>1970-01-01T02:58:01.000Z</time>
      </trkpt>
      <trkpt lat="44.92439" lon="0.84956">
        <ele>169.4</ele>
        <time>1970-01-01T02:58:02.000Z</time>
      </trkpt>
      <trkpt lat="44.92437" lon="0.84955">
        <ele>169.7</ele>
        <time>1970-01-01T02:58:03.000Z</time>
      </trkpt>
      <trkpt lat="44.92434" lon="0.84955">
        <ele>170</ele>
        <time>1970-01-01T02:58:04.000Z</time>
      </trkpt>
      <trkpt lat="44.92431" lon="0.84954">
        <ele>170.3</ele>
        <time>1970-01-01T02:58:05.000Z</time>
      </trkpt>
      <trkpt lat="44.92429" lon="0.84953">
        <ele>170.5</ele>
        <time>1970-01-01T02:58:06.000Z</time>
      </trkpt>
      <trkpt lat="44.92426" lon="0.84953">
        <ele>170.8</ele>
        <time>1970-01-01T02:58:07.000Z</time>
      </trkpt>
      <trkpt lat="44.92424" lon="0.84952">
        <ele>171.1</ele>
        <time>1970-01-01T02:58:08.000Z</time>
      </trkpt>
      <trkpt lat="44.92421" lon="0.84951">
        <ele>171.4</ele>
        <time>1970-01-01T02:58:09.000Z</time>
      </trkpt>
      <trkpt lat="44.92419" lon="0.84951">
        <ele>171.6</ele>
        <time>1970-01-01T02:58:10.000Z</time>
      </trkpt>
      <trkpt lat="44.92416" lon="0.8495">
        <ele>171.8</ele>
        <time>1970-01-01T02:58:11.000Z</time>
      </trkpt>
      <trkpt lat="44.92413" lon="0.84949">
        <ele>172.1</ele>
        <time>1970-01-01T02:58:12.000Z</time>
      </trkpt>
      <trkpt lat="44.92411" lon="0.84947">
        <ele>172.4</ele>
        <time>1970-01-01T02:58:13.000Z</time>
      </trkpt>
      <trkpt lat="44.92408" lon="0.84946">
        <ele>172.5</ele>
        <time>1970-01-01T02:58:14.000Z</time>
      </trkpt>
      <trkpt lat="44.92406" lon="0.84943">
        <ele>172.4</ele>
        <time>1970-01-01T02:58:15.000Z</time>
      </trkpt>
      <trkpt lat="44.92405" lon="0.84939">
        <ele>172.2</ele>
        <time>1970-01-01T02:58:16.000Z</time>
      </trkpt>
      <trkpt lat="44.92403" lon="0.84935">
        <ele>172.1</ele>
        <time>1970-01-01T02:58:17.000Z</time>
      </trkpt>
      <trkpt lat="44.92402" lon="0.8493">
        <ele>172</ele>
        <time>1970-01-01T02:58:18.000Z</time>
      </trkpt>
      <trkpt lat="44.92401" lon="0.84925">
        <ele>171.9</ele>
        <time>1970-01-01T02:58:19.000Z</time>
      </trkpt>
      <trkpt lat="44.92399" lon="0.84919">
        <ele>171.8</ele>
        <time>1970-01-01T02:58:20.000Z</time>
      </trkpt>
      <trkpt lat="44.92398" lon="0.84913">
        <ele>171.7</ele>
        <time>1970-01-01T02:58:21.000Z</time>
      </trkpt>
      <trkpt lat="44.92396" lon="0.84907">
        <ele>171.6</ele>
        <time>1970-01-01T02:58:22.000Z</time>
      </trkpt>
      <trkpt lat="44.92395" lon="0.849">
        <ele>171.6</ele>
        <time>1970-01-01T02:58:23.000Z</time>
      </trkpt>
      <trkpt lat="44.92393" lon="0.84894">
        <ele>171.5</ele>
        <time>1970-01-01T02:58:24.000Z</time>
      </trkpt>
      <trkpt lat="44.92391" lon="0.84887">
        <ele>171.3</ele>
        <time>1970-01-01T02:58:25.000Z</time>
      </trkpt>
      <trkpt lat="44.9239" lon="0.84881">
        <ele>171.2</ele>
        <time>1970-01-01T02:58:26.000Z</time>
      </trkpt>
      <trkpt lat="44.92388" lon="0.84874">
        <ele>171.1</ele>
        <time>1970-01-01T02:58:27.000Z</time>
      </trkpt>
      <trkpt lat="44.92386" lon="0.84867">
        <ele>170.9</ele>
        <time>1970-01-01T02:58:28.000Z</time>
      </trkpt>
      <trkpt lat="44.92385" lon="0.8486">
        <ele>170.8</ele>
        <time>1970-01-01T02:58:29.000Z</time>
      </trkpt>
      <trkpt lat="44.92383" lon="0.84852">
        <ele>170.6</ele>
        <time>1970-01-01T02:58:30.000Z</time>
      </trkpt>
      <trkpt lat="44.92382" lon="0.84844">
        <ele>170.5</ele>
        <time>1970-01-01T02:58:31.000Z</time>
      </trkpt>
      <trkpt lat="44.92381" lon="0.84837">
        <ele>170.4</ele>
        <time>1970-01-01T02:58:32.000Z</time>
      </trkpt>
      <trkpt lat="44.92379" lon="0.84828">
        <ele>170.2</ele>
        <time>1970-01-01T02:58:33.000Z</time>
      </trkpt>
      <trkpt lat="44.92378" lon="0.84821">
        <ele>170.1</ele>
        <time>1970-01-01T02:58:34.000Z</time>
      </trkpt>
      <trkpt lat="44.92376" lon="0.84813">
        <ele>169.9</ele>
        <time>1970-01-01T02:58:35.000Z</time>
      </trkpt>
      <trkpt lat="44.92373" lon="0.84806">
        <ele>169.7</ele>
        <time>1970-01-01T02:58:36.000Z</time>
      </trkpt>
      <trkpt lat="44.9237" lon="0.84799">
        <ele>169.5</ele>
        <time>1970-01-01T02:58:37.000Z</time>
      </trkpt>
      <trkpt lat="44.92367" lon="0.84793">
        <ele>169.3</ele>
        <time>1970-01-01T02:58:38.000Z</time>
      </trkpt>
      <trkpt lat="44.92362" lon="0.84788">
        <ele>169.1</ele>
        <time>1970-01-01T02:58:39.000Z</time>
      </trkpt>
      <trkpt lat="44.92357" lon="0.84784">
        <ele>168.8</ele>
        <time>1970-01-01T02:58:40.000Z</time>
      </trkpt>
      <trkpt lat="44.92352" lon="0.84781">
        <ele>168.5</ele>
        <time>1970-01-01T02:58:41.000Z</time>
      </trkpt>
      <trkpt lat="44.92348" lon="0.84777">
        <ele>168.2</ele>
        <time>1970-01-01T02:58:42.000Z</time>
      </trkpt>
      <trkpt lat="44.92344" lon="0.84771">
        <ele>167.8</ele>
        <time>1970-01-01T02:58:43.000Z</time>
      </trkpt>
      <trkpt lat="44.92342" lon="0.84764">
        <ele>167.5</ele>
        <time>1970-01-01T02:58:44.000Z</time>
      </trkpt>
      <trkpt lat="44.92341" lon="0.84756">
        <ele>167.1</ele>
        <time>1970-01-01T02:58:45.000Z</time>
      </trkpt>
      <trkpt lat="44.9234" lon="0.84747">
        <ele>166.8</ele>
        <time>1970-01-01T02:58:46.000Z</time>
      </trkpt>
      <trkpt lat="44.9234" lon="0.84738">
        <ele>166.5</ele>
        <time>1970-01-01T02:58:47.000Z</time>
      </trkpt>
      <trkpt lat="44.92341" lon="0.8473">
        <ele>166.2</ele>
        <time>1970-01-01T02:58:48.000Z</time>
      </trkpt>
      <trkpt lat="44.92341" lon="0.84721">
        <ele>165.8</ele>
        <time>1970-01-01T02:58:49.000Z</time>
      </trkpt>
      <trkpt lat="44.92339" lon="0.84714">
        <ele>165.5</ele>
        <time>1970-01-01T02:58:50.000Z</time>
      </trkpt>
      <trkpt lat="44.92336" lon="0.84706">
        <ele>165.1</ele>
        <time>1970-01-01T02:58:51.000Z</time>
      </trkpt>
      <trkpt lat="44.92333" lon="0.84699">
        <ele>164.6</ele>
        <time>1970-01-01T02:58:52.000Z</time>
      </trkpt>
      <trkpt lat="44.9233" lon="0.84692">
        <ele>164.2</ele>
        <time>1970-01-01T02:58:53.000Z</time>
      </trkpt>
      <trkpt lat="44.92326" lon="0.84685">
        <ele>163.8</ele>
        <time>1970-01-01T02:58:54.000Z</time>
      </trkpt>
      <trkpt lat="44.92323" lon="0.84677">
        <ele>163.3</ele>
        <time>1970-01-01T02:58:55.000Z</time>
      </trkpt>
      <trkpt lat="44.92319" lon="0.8467">
        <ele>162.8</ele>
        <time>1970-01-01T02:58:56.000Z</time>
      </trkpt>
      <trkpt lat="44.92315" lon="0.84663">
        <ele>162.4</ele>
        <time>1970-01-01T02:58:57.000Z</time>
      </trkpt>
      <trkpt lat="44.9231" lon="0.84656">
        <ele>162</ele>
        <time>1970-01-01T02:58:58.000Z</time>
      </trkpt>
      <trkpt lat="44.92305" lon="0.84649">
        <ele>161.7</ele>
        <time>1970-01-01T02:58:59.000Z</time>
      </trkpt>
      <trkpt lat="44.923" lon="0.84641">
        <ele>161.4</ele>
        <time>1970-01-01T02:59:00.000Z</time>
      </trkpt>
      <trkpt lat="44.92296" lon="0.84634">
        <ele>161.1</ele>
        <time>1970-01-01T02:59:01.000Z</time>
      </trkpt>
      <trkpt lat="44.92291" lon="0.84627">
        <ele>160.9</ele>
        <time>1970-01-01T02:59:02.000Z</time>
      </trkpt>
      <trkpt lat="44.92286" lon="0.84619">
        <ele>160.7</ele>
        <time>1970-01-01T02:59:03.000Z</time>
      </trkpt>
      <trkpt lat="44.92282" lon="0.84613">
        <ele>160.5</ele>
        <time>1970-01-01T02:59:04.000Z</time>
      </trkpt>
      <trkpt lat="44.92277" lon="0.84606">
        <ele>160.3</ele>
        <time>1970-01-01T02:59:05.000Z</time>
      </trkpt>
      <trkpt lat="44.92273" lon="0.84599">
        <ele>160.1</ele>
        <time>1970-01-01T02:59:06.000Z</time>
      </trkpt>
      <trkpt lat="44.92268" lon="0.84593">
        <ele>159.9</ele>
        <time>1970-01-01T02:59:07.000Z</time>
      </trkpt>
      <trkpt lat="44.92263" lon="0.84587">
        <ele>159.7</ele>
        <time>1970-01-01T02:59:08.000Z</time>
      </trkpt>
      <trkpt lat="44.92259" lon="0.84581">
        <ele>159.5</ele>
        <time>1970-01-01T02:59:09.000Z</time>
      </trkpt>
      <trkpt lat="44.92254" lon="0.84575">
        <ele>159.3</ele>
        <time>1970-01-01T02:59:10.000Z</time>
      </trkpt>
      <trkpt lat="44.92248" lon="0.8457">
        <ele>159.2</ele>
        <time>1970-01-01T02:59:11.000Z</time>
      </trkpt>
      <trkpt lat="44.92243" lon="0.84565">
        <ele>159.1</ele>
        <time>1970-01-01T02:59:12.000Z</time>
      </trkpt>
      <trkpt lat="44.92238" lon="0.8456">
        <ele>159</ele>
        <time>1970-01-01T02:59:13.000Z</time>
      </trkpt>
      <trkpt lat="44.92234" lon="0.84555">
        <ele>158.8</ele>
        <time>1970-01-01T02:59:14.000Z</time>
      </trkpt>
      <trkpt lat="44.92229" lon="0.8455">
        <ele>158.7</ele>
        <time>1970-01-01T02:59:15.000Z</time>
      </trkpt>
      <trkpt lat="44.92224" lon="0.84545">
        <ele>158.6</ele>
        <time>1970-01-01T02:59:16.000Z</time>
      </trkpt>
      <trkpt lat="44.92219" lon="0.8454">
        <ele>158.5</ele>
        <time>1970-01-01T02:59:17.000Z</time>
      </trkpt>
      <trkpt lat="44.92214" lon="0.84535">
        <ele>158.4</ele>
        <time>1970-01-01T02:59:18.000Z</time>
      </trkpt>
      <trkpt lat="44.92209" lon="0.8453">
        <ele>158.4</ele>
        <time>1970-01-01T02:59:19.000Z</time>
      </trkpt>
      <trkpt lat="44.92204" lon="0.84525">
        <ele>158.3</ele>
        <time>1970-01-01T02:59:20.000Z</time>
      </trkpt>
      <trkpt lat="44.92198" lon="0.84521">
        <ele>158.3</ele>
        <time>1970-01-01T02:59:21.000Z</time>
      </trkpt>
      <trkpt lat="44.92193" lon="0.84516">
        <ele>158.3</ele>
        <time>1970-01-01T02:59:22.000Z</time>
      </trkpt>
      <trkpt lat="44.92188" lon="0.84512">
        <ele>158.3</ele>
        <time>1970-01-01T02:59:23.000Z</time>
      </trkpt>
      <trkpt lat="44.92183" lon="0.84508">
        <ele>158.3</ele>
        <time>1970-01-01T02:59:24.000Z</time>
      </trkpt>
      <trkpt lat="44.92177" lon="0.84505">
        <ele>158.3</ele>
        <time>1970-01-01T02:59:25.000Z</time>
      </trkpt>
      <trkpt lat="44.92172" lon="0.84502">
        <ele>158.2</ele>
        <time>1970-01-01T02:59:26.000Z</time>
      </trkpt>
      <trkpt lat="44.92166" lon="0.84499">
        <ele>158.2</ele>
        <time>1970-01-01T02:59:27.000Z</time>
      </trkpt>
      <trkpt lat="44.9216" lon="0.84496">
        <ele>158.1</ele>
        <time>1970-01-01T02:59:28.000Z</time>
      </trkpt>
      <trkpt lat="44.92155" lon="0.84493">
        <ele>158</ele>
        <time>1970-01-01T02:59:29.000Z</time>
      </trkpt>
      <trkpt lat="44.92149" lon="0.8449">
        <ele>157.9</ele>
        <time>1970-01-01T02:59:30.000Z</time>
      </trkpt>
      <trkpt lat="44.92144" lon="0.84487">
        <ele>157.8</ele>
        <time>1970-01-01T02:59:31.000Z</time>
      </trkpt>
      <trkpt lat="44.92139" lon="0.84482">
        <ele>157.8</ele>
        <time>1970-01-01T02:59:32.000Z</time>
      </trkpt>
      <trkpt lat="44.92134" lon="0.84478">
        <ele>157.7</ele>
        <time>1970-01-01T02:59:33.000Z</time>
      </trkpt>
      <trkpt lat="44.9213" lon="0.84473">
        <ele>157.7</ele>
        <time>1970-01-01T02:59:34.000Z</time>
      </trkpt>
      <trkpt lat="44.92125" lon="0.84467">
        <ele>157.6</ele>
        <time>1970-01-01T02:59:35.000Z</time>
      </trkpt>
      <trkpt lat="44.92121" lon="0.84462">
        <ele>157.6</ele>
        <time>1970-01-01T02:59:36.000Z</time>
      </trkpt>
      <trkpt lat="44.92117" lon="0.84456">
        <ele>157.5</ele>
        <time>1970-01-01T02:59:37.000Z</time>
      </trkpt>
      <trkpt lat="44.92113" lon="0.84451">
        <ele>157.5</ele>
        <time>1970-01-01T02:59:38.000Z</time>
      </trkpt>
      <trkpt lat="44.92109" lon="0.84445">
        <ele>157.4</ele>
        <time>1970-01-01T02:59:39.000Z</time>
      </trkpt>
      <trkpt lat="44.92104" lon="0.8444">
        <ele>157.3</ele>
        <time>1970-01-01T02:59:40.000Z</time>
      </trkpt>
      <trkpt lat="44.921" lon="0.84435">
        <ele>157.1</ele>
        <time>1970-01-01T02:59:41.000Z</time>
      </trkpt>
      <trkpt lat="44.92096" lon="0.8443">
        <ele>157</ele>
        <time>1970-01-01T02:59:42.000Z</time>
      </trkpt>
      <trkpt lat="44.92091" lon="0.84425">
        <ele>156.8</ele>
        <time>1970-01-01T02:59:43.000Z</time>
      </trkpt>
      <trkpt lat="44.92087" lon="0.8442">
        <ele>156.6</ele>
        <time>1970-01-01T02:59:44.000Z</time>
      </trkpt>
      <trkpt lat="44.92082" lon="0.84415">
        <ele>156.4</ele>
        <time>1970-01-01T02:59:45.000Z</time>
      </trkpt>
      <trkpt lat="44.92077" lon="0.84411">
        <ele>156.2</ele>
        <time>1970-01-01T02:59:46.000Z</time>
      </trkpt>
      <trkpt lat="44.92073" lon="0.84406">
        <ele>156.1</ele>
        <time>1970-01-01T02:59:47.000Z</time>
      </trkpt>
      <trkpt lat="44.92068" lon="0.84401">
        <ele>155.9</ele>
        <time>1970-01-01T02:59:48.000Z</time>
      </trkpt>
      <trkpt lat="44.92063" lon="0.84396">
        <ele>155.7</ele>
        <time>1970-01-01T02:59:49.000Z</time>
      </trkpt>
      <trkpt lat="44.92058" lon="0.84392">
        <ele>155.6</ele>
        <time>1970-01-01T02:59:50.000Z</time>
      </trkpt>
      <trkpt lat="44.92052" lon="0.84388">
        <ele>155.3</ele>
        <time>1970-01-01T02:59:51.000Z</time>
      </trkpt>
      <trkpt lat="44.92046" lon="0.84385">
        <ele>155.1</ele>
        <time>1970-01-01T02:59:52.000Z</time>
      </trkpt>
      <trkpt lat="44.92039" lon="0.84382">
        <ele>154.8</ele>
        <time>1970-01-01T02:59:53.000Z</time>
      </trkpt>
      <trkpt lat="44.92033" lon="0.84379">
        <ele>154.6</ele>
        <time>1970-01-01T02:59:54.000Z</time>
      </trkpt>
      <trkpt lat="44.92027" lon="0.84376">
        <ele>154.3</ele>
        <time>1970-01-01T02:59:55.000Z</time>
      </trkpt>
      <trkpt lat="44.92021" lon="0.84373">
        <ele>154.1</ele>
        <time>1970-01-01T02:59:56.000Z</time>
      </trkpt>
      <trkpt lat="44.92015" lon="0.84371">
        <ele>153.8</ele>
        <time>1970-01-01T02:59:57.000Z</time>
      </trkpt>
      <trkpt lat="44.92009" lon="0.84369">
        <ele>153.5</ele>
        <time>1970-01-01T02:59:58.000Z</time>
      </trkpt>
      <trkpt lat="44.92002" lon="0.84367">
        <ele>153.2</ele>
        <time>1970-01-01T02:59:59.000Z</time>
      </trkpt>
      <trkpt lat="44.91996" lon="0.84365">
        <ele>152.9</ele>
        <time>1970-01-01T03:00:00.000Z</time>
      </trkpt>
      <trkpt lat="44.9199" lon="0.84363">
        <ele>152.6</ele>
        <time>1970-01-01T03:00:01.000Z</time>
      </trkpt>
      <trkpt lat="44.91984" lon="0.84362">
        <ele>152.2</ele>
        <time>1970-01-01T03:00:02.000Z</time>
      </trkpt>
      <trkpt lat="44.91978" lon="0.84361">
        <ele>151.9</ele>
        <time>1970-01-01T03:00:03.000Z</time>
      </trkpt>
      <trkpt lat="44.91971" lon="0.84361">
        <ele>151.5</ele>
        <time>1970-01-01T03:00:04.000Z</time>
      </trkpt>
      <trkpt lat="44.91965" lon="0.84361">
        <ele>151.1</ele>
        <time>1970-01-01T03:00:05.000Z</time>
      </trkpt>
      <trkpt lat="44.91958" lon="0.84361">
        <ele>150.8</ele>
        <time>1970-01-01T03:00:06.000Z</time>
      </trkpt>
      <trkpt lat="44.91951" lon="0.8436">
        <ele>150.5</ele>
        <time>1970-01-01T03:00:07.000Z</time>
      </trkpt>
      <trkpt lat="44.91944" lon="0.8436">
        <ele>150.2</ele>
        <time>1970-01-01T03:00:08.000Z</time>
      </trkpt>
      <trkpt lat="44.91938" lon="0.84359">
        <ele>149.9</ele>
        <time>1970-01-01T03:00:09.000Z</time>
      </trkpt>
      <trkpt lat="44.91931" lon="0.84359">
        <ele>149.6</ele>
        <time>1970-01-01T03:00:10.000Z</time>
      </trkpt>
      <trkpt lat="44.91925" lon="0.84358">
        <ele>149.4</ele>
        <time>1970-01-01T03:00:11.000Z</time>
      </trkpt>
      <trkpt lat="44.91918" lon="0.84357">
        <ele>149.2</ele>
        <time>1970-01-01T03:00:12.000Z</time>
      </trkpt>
      <trkpt lat="44.91911" lon="0.84356">
        <ele>149</ele>
        <time>1970-01-01T03:00:13.000Z</time>
      </trkpt>
      <trkpt lat="44.91904" lon="0.84355">
        <ele>148.8</ele>
        <time>1970-01-01T03:00:14.000Z</time>
      </trkpt>
      <trkpt lat="44.91898" lon="0.84354">
        <ele>148.6</ele>
        <time>1970-01-01T03:00:15.000Z</time>
      </trkpt>
      <trkpt lat="44.91891" lon="0.84354">
        <ele>148.4</ele>
        <time>1970-01-01T03:00:16.000Z</time>
      </trkpt>
      <trkpt lat="44.91884" lon="0.84354">
        <ele>148.1</ele>
        <time>1970-01-01T03:00:17.000Z</time>
      </trkpt>
      <trkpt lat="44.91877" lon="0.84354">
        <ele>147.9</ele>
        <time>1970-01-01T03:00:18.000Z</time>
      </trkpt>
      <trkpt lat="44.9187" lon="0.84354">
        <ele>147.7</ele>
        <time>1970-01-01T03:00:19.000Z</time>
      </trkpt>
      <trkpt lat="44.91864" lon="0.84354">
        <ele>147.5</ele>
        <time>1970-01-01T03:00:20.000Z</time>
      </trkpt>
      <trkpt lat="44.91857" lon="0.84355">
        <ele>147.3</ele>
        <time>1970-01-01T03:00:21.000Z</time>
      </trkpt>
      <trkpt lat="44.9185" lon="0.84355">
        <ele>147</ele>
        <time>1970-01-01T03:00:22.000Z</time>
      </trkpt>
      <trkpt lat="44.91843" lon="0.84355">
        <ele>146.6</ele>
        <time>1970-01-01T03:00:23.000Z</time>
      </trkpt>
      <trkpt lat="44.91836" lon="0.84354">
        <ele>146.3</ele>
        <time>1970-01-01T03:00:24.000Z</time>
      </trkpt>
      <trkpt lat="44.91829" lon="0.84353">
        <ele>145.9</ele>
        <time>1970-01-01T03:00:25.000Z</time>
      </trkpt>
      <trkpt lat="44.91822" lon="0.84352">
        <ele>145.5</ele>
        <time>1970-01-01T03:00:26.000Z</time>
      </trkpt>
      <trkpt lat="44.91815" lon="0.84351">
        <ele>145.1</ele>
        <time>1970-01-01T03:00:27.000Z</time>
      </trkpt>
      <trkpt lat="44.91808" lon="0.8435">
        <ele>144.6</ele>
        <time>1970-01-01T03:00:28.000Z</time>
      </trkpt>
      <trkpt lat="44.918" lon="0.84349">
        <ele>144.1</ele>
        <time>1970-01-01T03:00:29.000Z</time>
      </trkpt>
      <trkpt lat="44.91792" lon="0.84347">
        <ele>143.7</ele>
        <time>1970-01-01T03:00:30.000Z</time>
      </trkpt>
      <trkpt lat="44.91785" lon="0.84344">
        <ele>143.2</ele>
        <time>1970-01-01T03:00:31.000Z</time>
      </trkpt>
      <trkpt lat="44.91778" lon="0.8434">
        <ele>142.8</ele>
        <time>1970-01-01T03:00:32.000Z</time>
      </trkpt>
      <trkpt lat="44.9177" lon="0.84336">
        <ele>142.3</ele>
        <time>1970-01-01T03:00:33.000Z</time>
      </trkpt>
      <trkpt lat="44.91762" lon="0.84332">
        <ele>141.7</ele>
        <time>1970-01-01T03:00:34.000Z</time>
      </trkpt>
      <trkpt lat="44.91754" lon="0.8433">
        <ele>141.1</ele>
        <time>1970-01-01T03:00:35.000Z</time>
      </trkpt>
      <trkpt lat="44.91746" lon="0.84328">
        <ele>140.4</ele>
        <time>1970-01-01T03:00:36.000Z</time>
      </trkpt>
      <trkpt lat="44.91737" lon="0.84328">
        <ele>139.4</ele>
        <time>1970-01-01T03:00:37.000Z</time>
      </trkpt>
      <trkpt lat="44.91728" lon="0.84328">
        <ele>138.4</ele>
        <time>1970-01-01T03:00:38.000Z</time>
      </trkpt>
      <trkpt lat="44.91719" lon="0.84328">
        <ele>137.6</ele>
        <time>1970-01-01T03:00:39.000Z</time>
      </trkpt>
      <trkpt lat="44.91711" lon="0.84331">
        <ele>136.8</ele>
        <time>1970-01-01T03:00:40.000Z</time>
      </trkpt>
      <trkpt lat="44.91704" lon="0.84336">
        <ele>136</ele>
        <time>1970-01-01T03:00:41.000Z</time>
      </trkpt>
      <trkpt lat="44.91698" lon="0.84343">
        <ele>135.3</ele>
        <time>1970-01-01T03:00:42.000Z</time>
      </trkpt>
      <trkpt lat="44.91693" lon="0.84351">
        <ele>134.6</ele>
        <time>1970-01-01T03:00:43.000Z</time>
      </trkpt>
      <trkpt lat="44.9169" lon="0.8436">
        <ele>133.7</ele>
        <time>1970-01-01T03:00:44.000Z</time>
      </trkpt>
      <trkpt lat="44.91689" lon="0.84368">
        <ele>132.8</ele>
        <time>1970-01-01T03:00:45.000Z</time>
      </trkpt>
      <trkpt lat="44.91689" lon="0.84376">
        <ele>131.9</ele>
        <time>1970-01-01T03:00:46.000Z</time>
      </trkpt>
      <trkpt lat="44.9169" lon="0.84383">
        <ele>131</ele>
        <time>1970-01-01T03:00:47.000Z</time>
      </trkpt>
      <trkpt lat="44.9169" lon="0.8439">
        <ele>130.2</ele>
        <time>1970-01-01T03:00:48.000Z</time>
      </trkpt>
      <trkpt lat="44.9169" lon="0.84397">
        <ele>129.6</ele>
        <time>1970-01-01T03:00:49.000Z</time>
      </trkpt>
      <trkpt lat="44.9169" lon="0.84405">
        <ele>128.9</ele>
        <time>1970-01-01T03:00:50.000Z</time>
      </trkpt>
      <trkpt lat="44.91689" lon="0.84414">
        <ele>128.7</ele>
        <time>1970-01-01T03:00:51.000Z</time>
      </trkpt>
      <trkpt lat="44.91687" lon="0.84423">
        <ele>128.6</ele>
        <time>1970-01-01T03:00:52.000Z</time>
      </trkpt>
      <trkpt lat="44.91686" lon="0.84433">
        <ele>128.5</ele>
        <time>1970-01-01T03:00:53.000Z</time>
      </trkpt>
      <trkpt lat="44.91684" lon="0.84442">
        <ele>128.6</ele>
        <time>1970-01-01T03:00:54.000Z</time>
      </trkpt>
      <trkpt lat="44.91681" lon="0.84449">
        <ele>128.6</ele>
        <time>1970-01-01T03:00:55.000Z</time>
      </trkpt>
      <trkpt lat="44.91678" lon="0.84456">
        <ele>128.7</ele>
        <time>1970-01-01T03:00:56.000Z</time>
      </trkpt>
      <trkpt lat="44.91674" lon="0.84462">
        <ele>128.8</ele>
        <time>1970-01-01T03:00:57.000Z</time>
      </trkpt>
      <trkpt lat="44.9167" lon="0.84467">
        <ele>128.9</ele>
        <time>1970-01-01T03:00:58.000Z</time>
      </trkpt>
      <trkpt lat="44.91666" lon="0.84472">
        <ele>129.1</ele>
        <time>1970-01-01T03:00:59.000Z</time>
      </trkpt>
      <trkpt lat="44.91662" lon="0.84477">
        <ele>129.2</ele>
        <time>1970-01-01T03:01:00.000Z</time>
      </trkpt>
      <trkpt lat="44.91658" lon="0.84481">
        <ele>129.4</ele>
        <time>1970-01-01T03:01:01.000Z</time>
      </trkpt>
      <trkpt lat="44.91654" lon="0.84486">
        <ele>129.7</ele>
        <time>1970-01-01T03:01:02.000Z</time>
      </trkpt>
      <trkpt lat="44.9165" lon="0.8449">
        <ele>129.9</ele>
        <time>1970-01-01T03:01:03.000Z</time>
      </trkpt>
      <trkpt lat="44.91646" lon="0.84494">
        <ele>130.2</ele>
        <time>1970-01-01T03:01:04.000Z</time>
      </trkpt>
      <trkpt lat="44.91642" lon="0.84497">
        <ele>130.5</ele>
        <time>1970-01-01T03:01:05.000Z</time>
      </trkpt>
      <trkpt lat="44.91638" lon="0.84501">
        <ele>130.8</ele>
        <time>1970-01-01T03:01:06.000Z</time>
      </trkpt>
      <trkpt lat="44.91634" lon="0.84505">
        <ele>131.1</ele>
        <time>1970-01-01T03:01:07.000Z</time>
      </trkpt>
      <trkpt lat="44.91631" lon="0.84509">
        <ele>131.5</ele>
        <time>1970-01-01T03:01:08.000Z</time>
      </trkpt>
      <trkpt lat="44.91627" lon="0.84513">
        <ele>131.8</ele>
        <time>1970-01-01T03:01:09.000Z</time>
      </trkpt>
      <trkpt lat="44.91623" lon="0.84517">
        <ele>132.1</ele>
        <time>1970-01-01T03:01:10.000Z</time>
      </trkpt>
      <trkpt lat="44.9162" lon="0.8452">
        <ele>132.5</ele>
        <time>1970-01-01T03:01:11.000Z</time>
      </trkpt>
      <trkpt lat="44.91616" lon="0.84524">
        <ele>132.8</ele>
        <time>1970-01-01T03:01:12.000Z</time>
      </trkpt>
      <trkpt lat="44.91612" lon="0.84528">
        <ele>133.1</ele>
        <time>1970-01-01T03:01:13.000Z</time>
      </trkpt>
      <trkpt lat="44.91609" lon="0.84532">
        <ele>133.4</ele>
        <time>1970-01-01T03:01:14.000Z</time>
      </trkpt>
      <trkpt lat="44.91605" lon="0.84535">
        <ele>133.7</ele>
        <time>1970-01-01T03:01:15.000Z</time>
      </trkpt>
      <trkpt lat="44.91602" lon="0.84539">
        <ele>134</ele>
        <time>1970-01-01T03:01:16.000Z</time>
      </trkpt>
      <trkpt lat="44.91598" lon="0.84543">
        <ele>134.3</ele>
        <time>1970-01-01T03:01:17.000Z</time>
      </trkpt>
      <trkpt lat="44.91595" lon="0.84547">
        <ele>134.6</ele>
        <time>1970-01-01T03:01:18.000Z</time>
      </trkpt>
      <trkpt lat="44.91592" lon="0.84552">
        <ele>134.9</ele>
        <time>1970-01-01T03:01:19.000Z</time>
      </trkpt>
      <trkpt lat="44.91589" lon="0.84557">
        <ele>135.2</ele>
        <time>1970-01-01T03:01:20.000Z</time>
      </trkpt>
      <trkpt lat="44.91586" lon="0.84562">
        <ele>135.5</ele>
        <time>1970-01-01T03:01:21.000Z</time>
      </trkpt>
      <trkpt lat="44.91584" lon="0.84567">
        <ele>135.8</ele>
        <time>1970-01-01T03:01:22.000Z</time>
      </trkpt>
      <trkpt lat="44.91582" lon="0.84573">
        <ele>136.1</ele>
        <time>1970-01-01T03:01:23.000Z</time>
      </trkpt>
      <trkpt lat="44.9158" lon="0.84578">
        <ele>136.3</ele>
        <time>1970-01-01T03:01:24.000Z</time>
      </trkpt>
      <trkpt lat="44.91578" lon="0.84584">
        <ele>136.6</ele>
        <time>1970-01-01T03:01:25.000Z</time>
      </trkpt>
      <trkpt lat="44.91576" lon="0.8459">
        <ele>136.9</ele>
        <time>1970-01-01T03:01:26.000Z</time>
      </trkpt>
      <trkpt lat="44.91575" lon="0.84596">
        <ele>137.1</ele>
        <time>1970-01-01T03:01:27.000Z</time>
      </trkpt>
      <trkpt lat="44.91574" lon="0.84601">
        <ele>137.3</ele>
        <time>1970-01-01T03:01:28.000Z</time>
      </trkpt>
      <trkpt lat="44.91572" lon="0.84606">
        <ele>137.4</ele>
        <time>1970-01-01T03:01:29.000Z</time>
      </trkpt>
      <trkpt lat="44.91569" lon="0.84611">
        <ele>137.3</ele>
        <time>1970-01-01T03:01:30.000Z</time>
      </trkpt>
      <trkpt lat="44.91567" lon="0.84616">
        <ele>137.1</ele>
        <time>1970-01-01T03:01:31.000Z</time>
      </trkpt>
      <trkpt lat="44.91563" lon="0.84621">
        <ele>136.8</ele>
        <time>1970-01-01T03:01:32.000Z</time>
      </trkpt>
      <trkpt lat="44.9156" lon="0.84627">
        <ele>136.6</ele>
        <time>1970-01-01T03:01:33.000Z</time>
      </trkpt>
      <trkpt lat="44.91557" lon="0.84632">
        <ele>136.3</ele>
        <time>1970-01-01T03:01:34.000Z</time>
      </trkpt>
      <trkpt lat="44.91554" lon="0.84639">
        <ele>136.2</ele>
        <time>1970-01-01T03:01:35.000Z</time>
      </trkpt>
      <trkpt lat="44.91551" lon="0.84645">
        <ele>136.1</ele>
        <time>1970-01-01T03:01:36.000Z</time>
      </trkpt>
      <trkpt lat="44.91549" lon="0.84652">
        <ele>136</ele>
        <time>1970-01-01T03:01:37.000Z</time>
      </trkpt>
      <trkpt lat="44.91547" lon="0.84659">
        <ele>136</ele>
        <time>1970-01-01T03:01:38.000Z</time>
      </trkpt>
      <trkpt lat="44.91545" lon="0.84667">
        <ele>136.1</ele>
        <time>1970-01-01T03:01:39.000Z</time>
      </trkpt>
      <trkpt lat="44.91543" lon="0.84673">
        <ele>136.1</ele>
        <time>1970-01-01T03:01:40.000Z</time>
      </trkpt>
      <trkpt lat="44.91541" lon="0.8468">
        <ele>136.2</ele>
        <time>1970-01-01T03:01:41.000Z</time>
      </trkpt>
      <trkpt lat="44.91539" lon="0.84686">
        <ele>136.3</ele>
        <time>1970-01-01T03:01:42.000Z</time>
      </trkpt>
      <trkpt lat="44.91537" lon="0.84693">
        <ele>136.4</ele>
        <time>1970-01-01T03:01:43.000Z</time>
      </trkpt>
      <trkpt lat="44.91535" lon="0.84699">
        <ele>136.5</ele>
        <time>1970-01-01T03:01:44.000Z</time>
      </trkpt>
      <trkpt lat="44.91533" lon="0.84704">
        <ele>136.6</ele>
        <time>1970-01-01T03:01:45.000Z</time>
      </trkpt>
      <trkpt lat="44.91531" lon="0.8471">
        <ele>136.8</ele>
        <time>1970-01-01T03:01:46.000Z</time>
      </trkpt>
      <trkpt lat="44.91528" lon="0.84715">
        <ele>137.1</ele>
        <time>1970-01-01T03:01:47.000Z</time>
      </trkpt>
      <trkpt lat="44.91526" lon="0.8472">
        <ele>137.3</ele>
        <time>1970-01-01T03:01:48.000Z</time>
      </trkpt>
      <trkpt lat="44.91523" lon="0.84724">
        <ele>137.6</ele>
        <time>1970-01-01T03:01:49.000Z</time>
      </trkpt>
      <trkpt lat="44.91521" lon="0.84729">
        <ele>137.9</ele>
        <time>1970-01-01T03:01:50.000Z</time>
      </trkpt>
      <trkpt lat="44.91518" lon="0.84733">
        <ele>138.2</ele>
        <time>1970-01-01T03:01:51.000Z</time>
      </trkpt>
      <trkpt lat="44.91516" lon="0.84736">
        <ele>138.6</ele>
        <time>1970-01-01T03:01:52.000Z</time>
      </trkpt>
      <trkpt lat="44.91514" lon="0.8474">
        <ele>138.9</ele>
        <time>1970-01-01T03:01:53.000Z</time>
      </trkpt>
      <trkpt lat="44.91513" lon="0.84744">
        <ele>139.3</ele>
        <time>1970-01-01T03:01:54.000Z</time>
      </trkpt>
      <trkpt lat="44.91511" lon="0.84748">
        <ele>139.7</ele>
        <time>1970-01-01T03:01:55.000Z</time>
      </trkpt>
      <trkpt lat="44.91509" lon="0.84751">
        <ele>140.1</ele>
        <time>1970-01-01T03:01:56.000Z</time>
      </trkpt>
      <trkpt lat="44.91508" lon="0.84755">
        <ele>140.5</ele>
        <time>1970-01-01T03:01:57.000Z</time>
      </trkpt>
      <trkpt lat="44.91506" lon="0.84759">
        <ele>141</ele>
        <time>1970-01-01T03:01:58.000Z</time>
      </trkpt>
      <trkpt lat="44.91505" lon="0.84763">
        <ele>141.4</ele>
        <time>1970-01-01T03:01:59.000Z</time>
      </trkpt>
      <trkpt lat="44.91503" lon="0.84766">
        <ele>141.8</ele>
        <time>1970-01-01T03:02:00.000Z</time>
      </trkpt>
      <trkpt lat="44.91502" lon="0.8477">
        <ele>142.1</ele>
        <time>1970-01-01T03:02:01.000Z</time>
      </trkpt>
      <trkpt lat="44.91501" lon="0.84773">
        <ele>142.5</ele>
        <time>1970-01-01T03:02:02.000Z</time>
      </trkpt>
      <trkpt lat="44.91499" lon="0.84776">
        <ele>142.9</ele>
        <time>1970-01-01T03:02:03.000Z</time>
      </trkpt>
      <trkpt lat="44.91497" lon="0.84778">
        <ele>143.2</ele>
        <time>1970-01-01T03:02:04.000Z</time>
      </trkpt>
      <trkpt lat="44.91495" lon="0.84781">
        <ele>143.6</ele>
        <time>1970-01-01T03:02:05.000Z</time>
      </trkpt>
      <trkpt lat="44.91493" lon="0.84783">
        <ele>143.9</ele>
        <time>1970-01-01T03:02:06.000Z</time>
      </trkpt>
      <trkpt lat="44.91492" lon="0.84786">
        <ele>144.2</ele>
        <time>1970-01-01T03:02:07.000Z</time>
      </trkpt>
      <trkpt lat="44.9149" lon="0.84789">
        <ele>144.5</ele>
        <time>1970-01-01T03:02:08.000Z</time>
      </trkpt>
      <trkpt lat="44.91489" lon="0.84791">
        <ele>144.8</ele>
        <time>1970-01-01T03:02:09.000Z</time>
      </trkpt>
      <trkpt lat="44.91487" lon="0.84794">
        <ele>145.1</ele>
        <time>1970-01-01T03:02:10.000Z</time>
      </trkpt>
      <trkpt lat="44.91486" lon="0.84796">
        <ele>145.4</ele>
        <time>1970-01-01T03:02:11.000Z</time>
      </trkpt>
      <trkpt lat="44.91484" lon="0.84799">
        <ele>145.7</ele>
        <time>1970-01-01T03:02:12.000Z</time>
      </trkpt>
      <trkpt lat="44.91482" lon="0.84801">
        <ele>145.9</ele>
        <time>1970-01-01T03:02:13.000Z</time>
      </trkpt>
      <trkpt lat="44.91481" lon="0.84804">
        <ele>146.2</ele>
        <time>1970-01-01T03:02:14.000Z</time>
      </trkpt>
      <trkpt lat="44.91479" lon="0.84806">
        <ele>146.5</ele>
        <time>1970-01-01T03:02:15.000Z</time>
      </trkpt>
      <trkpt lat="44.91477" lon="0.84808">
        <ele>146.8</ele>
        <time>1970-01-01T03:02:16.000Z</time>
      </trkpt>
      <trkpt lat="44.91476" lon="0.84811">
        <ele>147</ele>
        <time>1970-01-01T03:02:17.000Z</time>
      </trkpt>
      <trkpt lat="44.91474" lon="0.84813">
        <ele>147.3</ele>
        <time>1970-01-01T03:02:18.000Z</time>
      </trkpt>
      <trkpt lat="44.91473" lon="0.84816">
        <ele>147.6</ele>
        <time>1970-01-01T03:02:19.000Z</time>
      </trkpt>
      <trkpt lat="44.91471" lon="0.84818">
        <ele>147.9</ele>
        <time>1970-01-01T03:02:20.000Z</time>
      </trkpt>
      <trkpt lat="44.9147" lon="0.84821">
        <ele>148.2</ele>
        <time>1970-01-01T03:02:21.000Z</time>
      </trkpt>
      <trkpt lat="44.91468" lon="0.84823">
        <ele>148.5</ele>
        <time>1970-01-01T03:02:22.000Z</time>
      </trkpt>
      <trkpt lat="44.91466" lon="0.84826">
        <ele>148.8</ele>
        <time>1970-01-01T03:02:23.000Z</time>
      </trkpt>
      <trkpt lat="44.91464" lon="0.84828">
        <ele>149.1</ele>
        <time>1970-01-01T03:02:24.000Z</time>
      </trkpt>
      <trkpt lat="44.91462" lon="0.8483">
        <ele>149.4</ele>
        <time>1970-01-01T03:02:25.000Z</time>
      </trkpt>
      <trkpt lat="44.9146" lon="0.84831">
        <ele>149.6</ele>
        <time>1970-01-01T03:02:26.000Z</time>
      </trkpt>
      <trkpt lat="44.91458" lon="0.84833">
        <ele>149.9</ele>
        <time>1970-01-01T03:02:27.000Z</time>
      </trkpt>
      <trkpt lat="44.91456" lon="0.84835">
        <ele>150.2</ele>
        <time>1970-01-01T03:02:28.000Z</time>
      </trkpt>
      <trkpt lat="44.91454" lon="0.84837">
        <ele>150.4</ele>
        <time>1970-01-01T03:02:29.000Z</time>
      </trkpt>
      <trkpt lat="44.91453" lon="0.84839">
        <ele>150.6</ele>
        <time>1970-01-01T03:02:30.000Z</time>
      </trkpt>
      <trkpt lat="44.91451" lon="0.84841">
        <ele>150.9</ele>
        <time>1970-01-01T03:02:31.000Z</time>
      </trkpt>
      <trkpt lat="44.91449" lon="0.84843">
        <ele>151.2</ele>
        <time>1970-01-01T03:02:32.000Z</time>
      </trkpt>
      <trkpt lat="44.91448" lon="0.84845">
        <ele>151.4</ele>
        <time>1970-01-01T03:02:33.000Z</time>
      </trkpt>
      <trkpt lat="44.91446" lon="0.84847">
        <ele>151.7</ele>
        <time>1970-01-01T03:02:34.000Z</time>
      </trkpt>
      <trkpt lat="44.91444" lon="0.8485">
        <ele>152</ele>
        <time>1970-01-01T03:02:35.000Z</time>
      </trkpt>
      <trkpt lat="44.91443" lon="0.84853">
        <ele>152.2</ele>
        <time>1970-01-01T03:02:36.000Z</time>
      </trkpt>
      <trkpt lat="44.91442" lon="0.84856">
        <ele>152.5</ele>
        <time>1970-01-01T03:02:37.000Z</time>
      </trkpt>
      <trkpt lat="44.9144" lon="0.84858">
        <ele>152.7</ele>
        <time>1970-01-01T03:02:38.000Z</time>
      </trkpt>
      <trkpt lat="44.91439" lon="0.8486">
        <ele>153</ele>
        <time>1970-01-01T03:02:39.000Z</time>
      </trkpt>
      <trkpt lat="44.91437" lon="0.84863">
        <ele>153.2</ele>
        <time>1970-01-01T03:02:40.000Z</time>
      </trkpt>
      <trkpt lat="44.91436" lon="0.84865">
        <ele>153.5</ele>
        <time>1970-01-01T03:02:41.000Z</time>
      </trkpt>
      <trkpt lat="44.91435" lon="0.84868">
        <ele>153.7</ele>
        <time>1970-01-01T03:02:42.000Z</time>
      </trkpt>
      <trkpt lat="44.91433" lon="0.84871">
        <ele>154</ele>
        <time>1970-01-01T03:02:43.000Z</time>
      </trkpt>
      <trkpt lat="44.91432" lon="0.84874">
        <ele>154.2</ele>
        <time>1970-01-01T03:02:44.000Z</time>
      </trkpt>
      <trkpt lat="44.91431" lon="0.84876">
        <ele>154.5</ele>
        <time>1970-01-01T03:02:45.000Z</time>
      </trkpt>
      <trkpt lat="44.91429" lon="0.84879">
        <ele>154.7</ele>
        <time>1970-01-01T03:02:46.000Z</time>
      </trkpt>
      <trkpt lat="44.91428" lon="0.84882">
        <ele>154.9</ele>
        <time>1970-01-01T03:02:47.000Z</time>
      </trkpt>
      <trkpt lat="44.91426" lon="0.84884">
        <ele>155.2</ele>
        <time>1970-01-01T03:02:48.000Z</time>
      </trkpt>
      <trkpt lat="44.91425" lon="0.84887">
        <ele>155.4</ele>
        <time>1970-01-01T03:02:49.000Z</time>
      </trkpt>
      <trkpt lat="44.91423" lon="0.84889">
        <ele>155.6</ele>
        <time>1970-01-01T03:02:50.000Z</time>
      </trkpt>
      <trkpt lat="44.91421" lon="0.84891">
        <ele>155.9</ele>
        <time>1970-01-01T03:02:51.000Z</time>
      </trkpt>
      <trkpt lat="44.9142" lon="0.84894">
        <ele>156.1</ele>
        <time>1970-01-01T03:02:52.000Z</time>
      </trkpt>
      <trkpt lat="44.91418" lon="0.84897">
        <ele>156.3</ele>
        <time>1970-01-01T03:02:53.000Z</time>
      </trkpt>
      <trkpt lat="44.91416" lon="0.84901">
        <ele>156.6</ele>
        <time>1970-01-01T03:02:54.000Z</time>
      </trkpt>
      <trkpt lat="44.91415" lon="0.84904">
        <ele>156.8</ele>
        <time>1970-01-01T03:02:55.000Z</time>
      </trkpt>
      <trkpt lat="44.91414" lon="0.84907">
        <ele>157.1</ele>
        <time>1970-01-01T03:02:56.000Z</time>
      </trkpt>
      <trkpt lat="44.91412" lon="0.8491">
        <ele>157.3</ele>
        <time>1970-01-01T03:02:57.000Z</time>
      </trkpt>
      <trkpt lat="44.91411" lon="0.84914">
        <ele>157.5</ele>
        <time>1970-01-01T03:02:58.000Z</time>
      </trkpt>
      <trkpt lat="44.9141" lon="0.84917">
        <ele>157.7</ele>
        <time>1970-01-01T03:02:59.000Z</time>
      </trkpt>
      <trkpt lat="44.91409" lon="0.84919">
        <ele>157.9</ele>
        <time>1970-01-01T03:03:00.000Z</time>
      </trkpt>
      <trkpt lat="44.91407" lon="0.84922">
        <ele>158.2</ele>
        <time>1970-01-01T03:03:01.000Z</time>
      </trkpt>
      <trkpt lat="44.91406" lon="0.84925">
        <ele>158.3</ele>
        <time>1970-01-01T03:03:02.000Z</time>
      </trkpt>
      <trkpt lat="44.91404" lon="0.84927">
        <ele>158.5</ele>
        <time>1970-01-01T03:03:03.000Z</time>
      </trkpt>
      <trkpt lat="44.91403" lon="0.8493">
        <ele>158.7</ele>
        <time>1970-01-01T03:03:04.000Z</time>
      </trkpt>
      <trkpt lat="44.91401" lon="0.84933">
        <ele>158.9</ele>
        <time>1970-01-01T03:03:05.000Z</time>
      </trkpt>
      <trkpt lat="44.914" lon="0.84935">
        <ele>159.1</ele>
        <time>1970-01-01T03:03:06.000Z</time>
      </trkpt>
      <trkpt lat="44.91398" lon="0.84937">
        <ele>159.3</ele>
        <time>1970-01-01T03:03:07.000Z</time>
      </trkpt>
      <trkpt lat="44.91397" lon="0.8494">
        <ele>159.5</ele>
        <time>1970-01-01T03:03:08.000Z</time>
      </trkpt>
      <trkpt lat="44.91395" lon="0.84942">
        <ele>159.6</ele>
        <time>1970-01-01T03:03:09.000Z</time>
      </trkpt>
      <trkpt lat="44.91394" lon="0.84945">
        <ele>159.8</ele>
        <time>1970-01-01T03:03:10.000Z</time>
      </trkpt>
      <trkpt lat="44.91392" lon="0.84947">
        <ele>159.9</ele>
        <time>1970-01-01T03:03:11.000Z</time>
      </trkpt>
      <trkpt lat="44.9139" lon="0.8495">
        <ele>160.1</ele>
        <time>1970-01-01T03:03:12.000Z</time>
      </trkpt>
      <trkpt lat="44.91388" lon="0.84952">
        <ele>160.2</ele>
        <time>1970-01-01T03:03:13.000Z</time>
      </trkpt>
      <trkpt lat="44.91386" lon="0.84954">
        <ele>160.4</ele>
        <time>1970-01-01T03:03:14.000Z</time>
      </trkpt>
      <trkpt lat="44.91384" lon="0.84956">
        <ele>160.5</ele>
        <time>1970-01-01T03:03:15.000Z</time>
      </trkpt>
      <trkpt lat="44.91382" lon="0.84958">
        <ele>160.6</ele>
        <time>1970-01-01T03:03:16.000Z</time>
      </trkpt>
      <trkpt lat="44.9138" lon="0.8496">
        <ele>160.8</ele>
        <time>1970-01-01T03:03:17.000Z</time>
      </trkpt>
      <trkpt lat="44.91377" lon="0.84963">
        <ele>160.9</ele>
        <time>1970-01-01T03:03:18.000Z</time>
      </trkpt>
      <trkpt lat="44.91375" lon="0.84965">
        <ele>161</ele>
        <time>1970-01-01T03:03:19.000Z</time>
      </trkpt>
      <trkpt lat="44.91372" lon="0.84968">
        <ele>161.2</ele>
        <time>1970-01-01T03:03:20.000Z</time>
      </trkpt>
      <trkpt lat="44.91369" lon="0.84971">
        <ele>161.3</ele>
        <time>1970-01-01T03:03:21.000Z</time>
      </trkpt>
      <trkpt lat="44.91367" lon="0.84974">
        <ele>161.4</ele>
        <time>1970-01-01T03:03:22.000Z</time>
      </trkpt>
      <trkpt lat="44.91364" lon="0.84977">
        <ele>161.5</ele>
        <time>1970-01-01T03:03:23.000Z</time>
      </trkpt>
      <trkpt lat="44.91362" lon="0.84981">
        <ele>161.6</ele>
        <time>1970-01-01T03:03:24.000Z</time>
      </trkpt>
      <trkpt lat="44.91359" lon="0.84984">
        <ele>161.7</ele>
        <time>1970-01-01T03:03:25.000Z</time>
      </trkpt>
      <trkpt lat="44.91357" lon="0.84987">
        <ele>161.8</ele>
        <time>1970-01-01T03:03:26.000Z</time>
      </trkpt>
      <trkpt lat="44.91354" lon="0.84991">
        <ele>161.9</ele>
        <time>1970-01-01T03:03:27.000Z</time>
      </trkpt>
      <trkpt lat="44.91352" lon="0.84995">
        <ele>162</ele>
        <time>1970-01-01T03:03:28.000Z</time>
      </trkpt>
      <trkpt lat="44.9135" lon="0.84998">
        <ele>162.1</ele>
        <time>1970-01-01T03:03:29.000Z</time>
      </trkpt>
      <trkpt lat="44.91348" lon="0.85002">
        <ele>162.2</ele>
        <time>1970-01-01T03:03:30.000Z</time>
      </trkpt>
      <trkpt lat="44.91346" lon="0.85006">
        <ele>162.3</ele>
        <time>1970-01-01T03:03:31.000Z</time>
      </trkpt>
      <trkpt lat="44.91343" lon="0.85009">
        <ele>162.4</ele>
        <time>1970-01-01T03:03:32.000Z</time>
      </trkpt>
      <trkpt lat="44.91341" lon="0.85013">
        <ele>162.5</ele>
        <time>1970-01-01T03:03:33.000Z</time>
      </trkpt>
      <trkpt lat="44.91339" lon="0.85016">
        <ele>162.6</ele>
        <time>1970-01-01T03:03:34.000Z</time>
      </trkpt>
      <trkpt lat="44.91337" lon="0.8502">
        <ele>162.7</ele>
        <time>1970-01-01T03:03:35.000Z</time>
      </trkpt>
      <trkpt lat="44.91335" lon="0.85023">
        <ele>162.8</ele>
        <time>1970-01-01T03:03:36.000Z</time>
      </trkpt>
      <trkpt lat="44.91333" lon="0.85027">
        <ele>162.9</ele>
        <time>1970-01-01T03:03:37.000Z</time>
      </trkpt>
      <trkpt lat="44.91331" lon="0.8503">
        <ele>162.9</ele>
        <time>1970-01-01T03:03:38.000Z</time>
      </trkpt>
      <trkpt lat="44.91329" lon="0.85034">
        <ele>163</ele>
        <time>1970-01-01T03:03:39.000Z</time>
      </trkpt>
      <trkpt lat="44.91327" lon="0.85037">
        <ele>163</ele>
        <time>1970-01-01T03:03:40.000Z</time>
      </trkpt>
      <trkpt lat="44.91324" lon="0.85039">
        <ele>163</ele>
        <time>1970-01-01T03:03:41.000Z</time>
      </trkpt>
      <trkpt lat="44.91322" lon="0.85042">
        <ele>163</ele>
        <time>1970-01-01T03:03:42.000Z</time>
      </trkpt>
      <trkpt lat="44.91319" lon="0.85046">
        <ele>163</ele>
        <time>1970-01-01T03:03:43.000Z</time>
      </trkpt>
      <trkpt lat="44.91316" lon="0.85049">
        <ele>163</ele>
        <time>1970-01-01T03:03:44.000Z</time>
      </trkpt>
      <trkpt lat="44.91314" lon="0.85053">
        <ele>163</ele>
        <time>1970-01-01T03:03:45.000Z</time>
      </trkpt>
      <trkpt lat="44.91311" lon="0.85057">
        <ele>162.9</ele>
        <time>1970-01-01T03:03:46.000Z</time>
      </trkpt>
      <trkpt lat="44.91308" lon="0.85061">
        <ele>162.8</ele>
        <time>1970-01-01T03:03:47.000Z</time>
      </trkpt>
      <trkpt lat="44.91305" lon="0.85065">
        <ele>162.8</ele>
        <time>1970-01-01T03:03:48.000Z</time>
      </trkpt>
      <trkpt lat="44.91302" lon="0.85069">
        <ele>162.7</ele>
        <time>1970-01-01T03:03:49.000Z</time>
      </trkpt>
      <trkpt lat="44.913" lon="0.85074">
        <ele>162.6</ele>
        <time>1970-01-01T03:03:50.000Z</time>
      </trkpt>
      <trkpt lat="44.91297" lon="0.85079">
        <ele>162.5</ele>
        <time>1970-01-01T03:03:51.000Z</time>
      </trkpt>
      <trkpt lat="44.91294" lon="0.85084">
        <ele>162.4</ele>
        <time>1970-01-01T03:03:52.000Z</time>
      </trkpt>
      <trkpt lat="44.91291" lon="0.8509">
        <ele>162.3</ele>
        <time>1970-01-01T03:03:53.000Z</time>
      </trkpt>
      <trkpt lat="44.91288" lon="0.85095">
        <ele>162.2</ele>
        <time>1970-01-01T03:03:54.000Z</time>
      </trkpt>
      <trkpt lat="44.91285" lon="0.851">
        <ele>162.1</ele>
        <time>1970-01-01T03:03:55.000Z</time>
      </trkpt>
      <trkpt lat="44.91281" lon="0.85105">
        <ele>161.9</ele>
        <time>1970-01-01T03:03:56.000Z</time>
      </trkpt>
      <trkpt lat="44.91277" lon="0.8511">
        <ele>161.7</ele>
        <time>1970-01-01T03:03:57.000Z</time>
      </trkpt>
      <trkpt lat="44.91273" lon="0.85116">
        <ele>161.4</ele>
        <time>1970-01-01T03:03:58.000Z</time>
      </trkpt>
      <trkpt lat="44.91269" lon="0.85122">
        <ele>161.1</ele>
        <time>1970-01-01T03:03:59.000Z</time>
      </trkpt>
      <trkpt lat="44.91265" lon="0.85127">
        <ele>160.7</ele>
        <time>1970-01-01T03:04:00.000Z</time>
      </trkpt>
      <trkpt lat="44.91262" lon="0.85133">
        <ele>160.3</ele>
        <time>1970-01-01T03:04:01.000Z</time>
      </trkpt>
      <trkpt lat="44.91258" lon="0.85138">
        <ele>159.9</ele>
        <time>1970-01-01T03:04:02.000Z</time>
      </trkpt>
      <trkpt lat="44.91254" lon="0.85144">
        <ele>159.5</ele>
        <time>1970-01-01T03:04:03.000Z</time>
      </trkpt>
      <trkpt lat="44.9125" lon="0.85151">
        <ele>158.9</ele>
        <time>1970-01-01T03:04:04.000Z</time>
      </trkpt>
      <trkpt lat="44.91246" lon="0.85158">
        <ele>158.4</ele>
        <time>1970-01-01T03:04:05.000Z</time>
      </trkpt>
      <trkpt lat="44.91242" lon="0.85166">
        <ele>157.7</ele>
        <time>1970-01-01T03:04:06.000Z</time>
      </trkpt>
      <trkpt lat="44.91238" lon="0.85174">
        <ele>156.9</ele>
        <time>1970-01-01T03:04:07.000Z</time>
      </trkpt>
      <trkpt lat="44.91233" lon="0.85185">
        <ele>156</ele>
        <time>1970-01-01T03:04:08.000Z</time>
      </trkpt>
      <trkpt lat="44.91228" lon="0.85196">
        <ele>154.9</ele>
        <time>1970-01-01T03:04:09.000Z</time>
      </trkpt>
      <trkpt lat="44.91223" lon="0.85208">
        <ele>153.9</ele>
        <time>1970-01-01T03:04:10.000Z</time>
      </trkpt>
      <trkpt lat="44.91218" lon="0.85218">
        <ele>152.9</ele>
        <time>1970-01-01T03:04:11.000Z</time>
      </trkpt>
      <trkpt lat="44.91213" lon="0.85229">
        <ele>151.9</ele>
        <time>1970-01-01T03:04:12.000Z</time>
      </trkpt>
      <trkpt lat="44.91208" lon="0.85239">
        <ele>150.8</ele>
        <time>1970-01-01T03:04:13.000Z</time>
      </trkpt>
      <trkpt lat="44.91203" lon="0.8525">
        <ele>149.8</ele>
        <time>1970-01-01T03:04:14.000Z</time>
      </trkpt>
      <trkpt lat="44.91197" lon="0.85262">
        <ele>148.8</ele>
        <time>1970-01-01T03:04:15.000Z</time>
      </trkpt>
      <trkpt lat="44.91192" lon="0.85273">
        <ele>147.8</ele>
        <time>1970-01-01T03:04:16.000Z</time>
      </trkpt>
      <trkpt lat="44.91186" lon="0.85285">
        <ele>146.8</ele>
        <time>1970-01-01T03:04:17.000Z</time>
      </trkpt>
      <trkpt lat="44.91181" lon="0.85297">
        <ele>145.9</ele>
        <time>1970-01-01T03:04:18.000Z</time>
      </trkpt>
      <trkpt lat="44.91176" lon="0.85309">
        <ele>145.1</ele>
        <time>1970-01-01T03:04:19.000Z</time>
      </trkpt>
      <trkpt lat="44.91171" lon="0.85321">
        <ele>144.5</ele>
        <time>1970-01-01T03:04:20.000Z</time>
      </trkpt>
      <trkpt lat="44.91166" lon="0.85333">
        <ele>143.9</ele>
        <time>1970-01-01T03:04:21.000Z</time>
      </trkpt>
      <trkpt lat="44.9116" lon="0.85345">
        <ele>143.3</ele>
        <time>1970-01-01T03:04:22.000Z</time>
      </trkpt>
      <trkpt lat="44.91155" lon="0.85356">
        <ele>142.8</ele>
        <time>1970-01-01T03:04:23.000Z</time>
      </trkpt>
      <trkpt lat="44.91151" lon="0.85368">
        <ele>142.2</ele>
        <time>1970-01-01T03:04:24.000Z</time>
      </trkpt>
      <trkpt lat="44.91146" lon="0.8538">
        <ele>141.7</ele>
        <time>1970-01-01T03:04:25.000Z</time>
      </trkpt>
      <trkpt lat="44.91142" lon="0.85392">
        <ele>141.3</ele>
        <time>1970-01-01T03:04:26.000Z</time>
      </trkpt>
      <trkpt lat="44.91139" lon="0.85404">
        <ele>140.9</ele>
        <time>1970-01-01T03:04:27.000Z</time>
      </trkpt>
      <trkpt lat="44.91136" lon="0.85416">
        <ele>140.5</ele>
        <time>1970-01-01T03:04:28.000Z</time>
      </trkpt>
      <trkpt lat="44.91134" lon="0.85428">
        <ele>140.1</ele>
        <time>1970-01-01T03:04:29.000Z</time>
      </trkpt>
      <trkpt lat="44.91131" lon="0.85439">
        <ele>139.9</ele>
        <time>1970-01-01T03:04:30.000Z</time>
      </trkpt>
      <trkpt lat="44.91128" lon="0.85451">
        <ele>139.7</ele>
        <time>1970-01-01T03:04:31.000Z</time>
      </trkpt>
      <trkpt lat="44.91126" lon="0.85462">
        <ele>139.6</ele>
        <time>1970-01-01T03:04:32.000Z</time>
      </trkpt>
      <trkpt lat="44.91124" lon="0.85472">
        <ele>139.5</ele>
        <time>1970-01-01T03:04:33.000Z</time>
      </trkpt>
      <trkpt lat="44.91122" lon="0.85483">
        <ele>139.2</ele>
        <time>1970-01-01T03:04:34.000Z</time>
      </trkpt>
      <trkpt lat="44.9112" lon="0.85493">
        <ele>138.8</ele>
        <time>1970-01-01T03:04:35.000Z</time>
      </trkpt>
      <trkpt lat="44.91119" lon="0.85503">
        <ele>138.6</ele>
        <time>1970-01-01T03:04:36.000Z</time>
      </trkpt>
      <trkpt lat="44.91117" lon="0.85513">
        <ele>138.4</ele>
        <time>1970-01-01T03:04:37.000Z</time>
      </trkpt>
      <trkpt lat="44.91115" lon="0.85523">
        <ele>138.3</ele>
        <time>1970-01-01T03:04:38.000Z</time>
      </trkpt>
      <trkpt lat="44.91113" lon="0.85531">
        <ele>138.2</ele>
        <time>1970-01-01T03:04:39.000Z</time>
      </trkpt>
      <trkpt lat="44.91112" lon="0.8554">
        <ele>138.1</ele>
        <time>1970-01-01T03:04:40.000Z</time>
      </trkpt>
      <trkpt lat="44.9111" lon="0.85548">
        <ele>138</ele>
        <time>1970-01-01T03:04:41.000Z</time>
      </trkpt>
      <trkpt lat="44.91108" lon="0.85556">
        <ele>137.9</ele>
        <time>1970-01-01T03:04:42.000Z</time>
      </trkpt>
      <trkpt lat="44.91107" lon="0.85565">
        <ele>137.9</ele>
        <time>1970-01-01T03:04:43.000Z</time>
      </trkpt>
      <trkpt lat="44.91106" lon="0.85573">
        <ele>137.9</ele>
        <time>1970-01-01T03:04:44.000Z</time>
      </trkpt>
      <trkpt lat="44.91105" lon="0.85581">
        <ele>137.9</ele>
        <time>1970-01-01T03:04:45.000Z</time>
      </trkpt>
      <trkpt lat="44.91104" lon="0.8559">
        <ele>137.9</ele>
        <time>1970-01-01T03:04:46.000Z</time>
      </trkpt>
      <trkpt lat="44.91103" lon="0.85598">
        <ele>137.9</ele>
        <time>1970-01-01T03:04:47.000Z</time>
      </trkpt>
      <trkpt lat="44.91102" lon="0.85606">
        <ele>137.8</ele>
        <time>1970-01-01T03:04:48.000Z</time>
      </trkpt>
      <trkpt lat="44.911" lon="0.85614">
        <ele>137.7</ele>
        <time>1970-01-01T03:04:49.000Z</time>
      </trkpt>
      <trkpt lat="44.91099" lon="0.85622">
        <ele>137.5</ele>
        <time>1970-01-01T03:04:50.000Z</time>
      </trkpt>
      <trkpt lat="44.91096" lon="0.8563">
        <ele>137.1</ele>
        <time>1970-01-01T03:04:51.000Z</time>
      </trkpt>
      <trkpt lat="44.91094" lon="0.85638">
        <ele>136.7</ele>
        <time>1970-01-01T03:04:52.000Z</time>
      </trkpt>
      <trkpt lat="44.91091" lon="0.85646">
        <ele>136.2</ele>
        <time>1970-01-01T03:04:53.000Z</time>
      </trkpt>
      <trkpt lat="44.91087" lon="0.85655">
        <ele>135.6</ele>
        <time>1970-01-01T03:04:54.000Z</time>
      </trkpt>
      <trkpt lat="44.91083" lon="0.85664">
        <ele>134.9</ele>
        <time>1970-01-01T03:04:55.000Z</time>
      </trkpt>
      <trkpt lat="44.91079" lon="0.85673">
        <ele>134.2</ele>
        <time>1970-01-01T03:04:56.000Z</time>
      </trkpt>
      <trkpt lat="44.91073" lon="0.85682">
        <ele>133.4</ele>
        <time>1970-01-01T03:04:57.000Z</time>
      </trkpt>
      <trkpt lat="44.91067" lon="0.85691">
        <ele>132.6</ele>
        <time>1970-01-01T03:04:58.000Z</time>
      </trkpt>
      <trkpt lat="44.91061" lon="0.85699">
        <ele>131.7</ele>
        <time>1970-01-01T03:04:59.000Z</time>
      </trkpt>
      <trkpt lat="44.91053" lon="0.85706">
        <ele>130.7</ele>
        <time>1970-01-01T03:05:00.000Z</time>
      </trkpt>
      <trkpt lat="44.91044" lon="0.85711">
        <ele>129.8</ele>
        <time>1970-01-01T03:05:01.000Z</time>
      </trkpt>
      <trkpt lat="44.91036" lon="0.85716">
        <ele>129.1</ele>
        <time>1970-01-01T03:05:02.000Z</time>
      </trkpt>
      <trkpt lat="44.91028" lon="0.85722">
        <ele>128.3</ele>
        <time>1970-01-01T03:05:03.000Z</time>
      </trkpt>
      <trkpt lat="44.9102" lon="0.85728">
        <ele>127.5</ele>
        <time>1970-01-01T03:05:04.000Z</time>
      </trkpt>
      <trkpt lat="44.91012" lon="0.85735">
        <ele>126.6</ele>
        <time>1970-01-01T03:05:05.000Z</time>
      </trkpt>
      <trkpt lat="44.91005" lon="0.85742">
        <ele>125.7</ele>
        <time>1970-01-01T03:05:06.000Z</time>
      </trkpt>
      <trkpt lat="44.90998" lon="0.85751">
        <ele>124.9</ele>
        <time>1970-01-01T03:05:07.000Z</time>
      </trkpt>
      <trkpt lat="44.90991" lon="0.85761">
        <ele>124.1</ele>
        <time>1970-01-01T03:05:08.000Z</time>
      </trkpt>
      <trkpt lat="44.90984" lon="0.85772">
        <ele>123.4</ele>
        <time>1970-01-01T03:05:09.000Z</time>
      </trkpt>
      <trkpt lat="44.90977" lon="0.85782">
        <ele>122.7</ele>
        <time>1970-01-01T03:05:10.000Z</time>
      </trkpt>
      <trkpt lat="44.90971" lon="0.85791">
        <ele>122</ele>
        <time>1970-01-01T03:05:11.000Z</time>
      </trkpt>
      <trkpt lat="44.90966" lon="0.85801">
        <ele>121.4</ele>
        <time>1970-01-01T03:05:12.000Z</time>
      </trkpt>
      <trkpt lat="44.90963" lon="0.85812">
        <ele>120.9</ele>
        <time>1970-01-01T03:05:13.000Z</time>
      </trkpt>
      <trkpt lat="44.90962" lon="0.85824">
        <ele>120.4</ele>
        <time>1970-01-01T03:05:14.000Z</time>
      </trkpt>
      <trkpt lat="44.9096" lon="0.85834">
        <ele>119.9</ele>
        <time>1970-01-01T03:05:15.000Z</time>
      </trkpt>
      <trkpt lat="44.90957" lon="0.85843">
        <ele>119.6</ele>
        <time>1970-01-01T03:05:16.000Z</time>
      </trkpt>
      <trkpt lat="44.90955" lon="0.85851">
        <ele>119.3</ele>
        <time>1970-01-01T03:05:17.000Z</time>
      </trkpt>
      <trkpt lat="44.90953" lon="0.85857">
        <ele>119</ele>
        <time>1970-01-01T03:05:18.000Z</time>
      </trkpt>
      <trkpt lat="44.90951" lon="0.85862">
        <ele>118.8</ele>
        <time>1970-01-01T03:05:19.000Z</time>
      </trkpt>
      <trkpt lat="44.90949" lon="0.85865">
        <ele>118.6</ele>
        <time>1970-01-01T03:05:20.000Z</time>
      </trkpt>
      <trkpt lat="44.90948" lon="0.85868">
        <ele>118.2</ele>
        <time>1970-01-01T03:05:21.000Z</time>
      </trkpt>
      <trkpt lat="44.90946" lon="0.85869">
        <ele>118.2</ele>
        <time>1970-01-01T03:05:22.000Z</time>
      </trkpt>
      <trkpt lat="44.90944" lon="0.8587">
        <ele>118.1</ele>
        <time>1970-01-01T03:05:23.000Z</time>
      </trkpt>
      <trkpt lat="44.90941" lon="0.8587">
        <ele>118</ele>
        <time>1970-01-01T03:05:24.000Z</time>
      </trkpt>
      <trkpt lat="44.90939" lon="0.85871">
        <ele>117.9</ele>
        <time>1970-01-01T03:05:25.000Z</time>
      </trkpt>
      <trkpt lat="44.90936" lon="0.85872">
        <ele>117.7</ele>
        <time>1970-01-01T03:05:26.000Z</time>
      </trkpt>
      <trkpt lat="44.90933" lon="0.85872">
        <ele>117.6</ele>
        <time>1970-01-01T03:05:27.000Z</time>
      </trkpt>
      <trkpt lat="44.9093" lon="0.85874">
        <ele>117.5</ele>
        <time>1970-01-01T03:05:28.000Z</time>
      </trkpt>
      <trkpt lat="44.90926" lon="0.85875">
        <ele>117.4</ele>
        <time>1970-01-01T03:05:29.000Z</time>
      </trkpt>
      <trkpt lat="44.90923" lon="0.85877">
        <ele>117.2</ele>
        <time>1970-01-01T03:05:30.000Z</time>
      </trkpt>
      <trkpt lat="44.9092" lon="0.8588">
        <ele>117.1</ele>
        <time>1970-01-01T03:05:31.000Z</time>
      </trkpt>
      <trkpt lat="44.90917" lon="0.85883">
        <ele>116.9</ele>
        <time>1970-01-01T03:05:32.000Z</time>
      </trkpt>
      <trkpt lat="44.90914" lon="0.85887">
        <ele>116.8</ele>
        <time>1970-01-01T03:05:33.000Z</time>
      </trkpt>
      <trkpt lat="44.90912" lon="0.85892">
        <ele>116.6</ele>
        <time>1970-01-01T03:05:34.000Z</time>
      </trkpt>
      <trkpt lat="44.9091" lon="0.85898">
        <ele>116.5</ele>
        <time>1970-01-01T03:05:35.000Z</time>
      </trkpt>
      <trkpt lat="44.90908" lon="0.85904">
        <ele>116.3</ele>
        <time>1970-01-01T03:05:36.000Z</time>
      </trkpt>
      <trkpt lat="44.90908" lon="0.85911">
        <ele>116.1</ele>
        <time>1970-01-01T03:05:37.000Z</time>
      </trkpt>
      <trkpt lat="44.90907" lon="0.85919">
        <ele>115.9</ele>
        <time>1970-01-01T03:05:38.000Z</time>
      </trkpt>
      <trkpt lat="44.90907" lon="0.85926">
        <ele>115.8</ele>
        <time>1970-01-01T03:05:39.000Z</time>
      </trkpt>
      <trkpt lat="44.90906" lon="0.85932">
        <ele>115.7</ele>
        <time>1970-01-01T03:05:40.000Z</time>
      </trkpt>
      <trkpt lat="44.90904" lon="0.85937">
        <ele>115.7</ele>
        <time>1970-01-01T03:05:41.000Z</time>
      </trkpt>
      <trkpt lat="44.90902" lon="0.8594">
        <ele>115.5</ele>
        <time>1970-01-01T03:05:42.000Z</time>
      </trkpt>
      <trkpt lat="44.909" lon="0.85943">
        <ele>115.5</ele>
        <time>1970-01-01T03:05:43.000Z</time>
      </trkpt>
      <trkpt lat="44.90897" lon="0.85944">
        <ele>115.4</ele>
        <time>1970-01-01T03:05:44.000Z</time>
      </trkpt>
      <trkpt lat="44.90893" lon="0.85944">
        <ele>115.4</ele>
        <time>1970-01-01T03:05:45.000Z</time>
      </trkpt>
      <trkpt lat="44.90889" lon="0.85944">
        <ele>115.3</ele>
        <time>1970-01-01T03:05:46.000Z</time>
      </trkpt>
      <trkpt lat="44.90885" lon="0.85945">
        <ele>115.3</ele>
        <time>1970-01-01T03:05:47.000Z</time>
      </trkpt>
      <trkpt lat="44.90881" lon="0.85945">
        <ele>115.2</ele>
        <time>1970-01-01T03:05:48.000Z</time>
      </trkpt>
      <trkpt lat="44.90877" lon="0.85945">
        <ele>115.2</ele>
        <time>1970-01-01T03:05:49.000Z</time>
      </trkpt>
      <trkpt lat="44.90873" lon="0.85945">
        <ele>115.2</ele>
        <time>1970-01-01T03:05:50.000Z</time>
      </trkpt>
      <trkpt lat="44.90869" lon="0.85945">
        <ele>115.2</ele>
        <time>1970-01-01T03:05:51.000Z</time>
      </trkpt>
      <trkpt lat="44.90865" lon="0.85945">
        <ele>115.2</ele>
        <time>1970-01-01T03:05:52.000Z</time>
      </trkpt>
      <trkpt lat="44.9086" lon="0.85944">
        <ele>115.2</ele>
        <time>1970-01-01T03:05:53.000Z</time>
      </trkpt>
      <trkpt lat="44.90855" lon="0.85944">
        <ele>115.3</ele>
        <time>1970-01-01T03:05:54.000Z</time>
      </trkpt>
      <trkpt lat="44.90851" lon="0.85944">
        <ele>115.3</ele>
        <time>1970-01-01T03:05:55.000Z</time>
      </trkpt>
      <trkpt lat="44.90846" lon="0.85944">
        <ele>115.3</ele>
        <time>1970-01-01T03:05:56.000Z</time>
      </trkpt>
      <trkpt lat="44.90841" lon="0.85945">
        <ele>115.4</ele>
        <time>1970-01-01T03:05:57.000Z</time>
      </trkpt>
      <trkpt lat="44.90836" lon="0.85945">
        <ele>115.4</ele>
        <time>1970-01-01T03:05:58.000Z</time>
      </trkpt>
      <trkpt lat="44.90831" lon="0.85945">
        <ele>115.4</ele>
        <time>1970-01-01T03:05:59.000Z</time>
      </trkpt>
      <trkpt lat="44.90826" lon="0.85946">
        <ele>115.5</ele>
        <time>1970-01-01T03:06:00.000Z</time>
      </trkpt>
      <trkpt lat="44.90821" lon="0.85946">
        <ele>115.5</ele>
        <time>1970-01-01T03:06:01.000Z</time>
      </trkpt>
      <trkpt lat="44.90816" lon="0.85946">
        <ele>115.5</ele>
        <time>1970-01-01T03:06:02.000Z</time>
      </trkpt>
      <trkpt lat="44.90811" lon="0.85946">
        <ele>115.5</ele>
        <time>1970-01-01T03:06:03.000Z</time>
      </trkpt>
      <trkpt lat="44.90806" lon="0.85946">
        <ele>115.5</ele>
        <time>1970-01-01T03:06:04.000Z</time>
      </trkpt>
      <trkpt lat="44.90801" lon="0.85945">
        <ele>115.5</ele>
        <time>1970-01-01T03:06:05.000Z</time>
      </trkpt>
      <trkpt lat="44.90795" lon="0.85945">
        <ele>115.5</ele>
        <time>1970-01-01T03:06:06.000Z</time>
      </trkpt>
      <trkpt lat="44.9079" lon="0.85944">
        <ele>115.5</ele>
        <time>1970-01-01T03:06:07.000Z</time>
      </trkpt>
      <trkpt lat="44.90785" lon="0.85942">
        <ele>115.6</ele>
        <time>1970-01-01T03:06:08.000Z</time>
      </trkpt>
      <trkpt lat="44.90779" lon="0.8594">
        <ele>115.6</ele>
        <time>1970-01-01T03:06:09.000Z</time>
      </trkpt>
      <trkpt lat="44.90774" lon="0.85938">
        <ele>115.7</ele>
        <time>1970-01-01T03:06:10.000Z</time>
      </trkpt>
      <trkpt lat="44.90769" lon="0.85936">
        <ele>115.7</ele>
        <time>1970-01-01T03:06:11.000Z</time>
      </trkpt>
      <trkpt lat="44.90764" lon="0.85933">
        <ele>115.7</ele>
        <time>1970-01-01T03:06:12.000Z</time>
      </trkpt>
      <trkpt lat="44.90759" lon="0.85929">
        <ele>115.8</ele>
        <time>1970-01-01T03:06:13.000Z</time>
      </trkpt>
      <trkpt lat="44.90755" lon="0.85925">
        <ele>115.8</ele>
        <time>1970-01-01T03:06:14.000Z</time>
      </trkpt>
      <trkpt lat="44.9075" lon="0.85921">
        <ele>115.8</ele>
        <time>1970-01-01T03:06:15.000Z</time>
      </trkpt>
      <trkpt lat="44.90745" lon="0.85918">
        <ele>115.8</ele>
        <time>1970-01-01T03:06:16.000Z</time>
      </trkpt>
      <trkpt lat="44.9074" lon="0.85914">
        <ele>115.9</ele>
        <time>1970-01-01T03:06:17.000Z</time>
      </trkpt>
      <trkpt lat="44.90735" lon="0.8591">
        <ele>116</ele>
        <time>1970-01-01T03:06:18.000Z</time>
      </trkpt>
      <trkpt lat="44.9073" lon="0.85906">
        <ele>116</ele>
        <time>1970-01-01T03:06:19.000Z</time>
      </trkpt>
      <trkpt lat="44.90726" lon="0.85903">
        <ele>116.1</ele>
        <time>1970-01-01T03:06:20.000Z</time>
      </trkpt>
      <trkpt lat="44.90721" lon="0.85899">
        <ele>116.2</ele>
        <time>1970-01-01T03:06:21.000Z</time>
      </trkpt>
      <trkpt lat="44.90716" lon="0.85895">
        <ele>116.3</ele>
        <time>1970-01-01T03:06:22.000Z</time>
      </trkpt>
      <trkpt lat="44.90712" lon="0.85892">
        <ele>116.4</ele>
        <time>1970-01-01T03:06:23.000Z</time>
      </trkpt>
      <trkpt lat="44.90707" lon="0.85888">
        <ele>116.5</ele>
        <time>1970-01-01T03:06:24.000Z</time>
      </trkpt>
      <trkpt lat="44.90702" lon="0.85884">
        <ele>116.6</ele>
        <time>1970-01-01T03:06:25.000Z</time>
      </trkpt>
      <trkpt lat="44.90698" lon="0.85879">
        <ele>116.6</ele>
        <time>1970-01-01T03:06:26.000Z</time>
      </trkpt>
      <trkpt lat="44.90693" lon="0.85875">
        <ele>116.7</ele>
        <time>1970-01-01T03:06:27.000Z</time>
      </trkpt>
      <trkpt lat="44.90689" lon="0.85871">
        <ele>116.8</ele>
        <time>1970-01-01T03:06:28.000Z</time>
      </trkpt>
      <trkpt lat="44.90684" lon="0.85867">
        <ele>116.9</ele>
        <time>1970-01-01T03:06:29.000Z</time>
      </trkpt>
      <trkpt lat="44.9068" lon="0.85863">
        <ele>117</ele>
        <time>1970-01-01T03:06:30.000Z</time>
      </trkpt>
      <trkpt lat="44.90675" lon="0.85859">
        <ele>117.1</ele>
        <time>1970-01-01T03:06:31.000Z</time>
      </trkpt>
      <trkpt lat="44.9067" lon="0.85856">
        <ele>117.1</ele>
        <time>1970-01-01T03:06:32.000Z</time>
      </trkpt>
      <trkpt lat="44.90666" lon="0.85853">
        <ele>117.1</ele>
        <time>1970-01-01T03:06:33.000Z</time>
      </trkpt>
      <trkpt lat="44.90661" lon="0.85851">
        <ele>117.1</ele>
        <time>1970-01-01T03:06:34.000Z</time>
      </trkpt>
      <trkpt lat="44.90657" lon="0.85849">
        <ele>117.1</ele>
        <time>1970-01-01T03:06:35.000Z</time>
      </trkpt>
      <trkpt lat="44.90652" lon="0.85848">
        <ele>116.9</ele>
        <time>1970-01-01T03:06:36.000Z</time>
      </trkpt>
      <trkpt lat="44.90647" lon="0.85848">
        <ele>116.7</ele>
        <time>1970-01-01T03:06:37.000Z</time>
      </trkpt>
      <trkpt lat="44.90641" lon="0.85847">
        <ele>116.4</ele>
        <time>1970-01-01T03:06:38.000Z</time>
      </trkpt>
      <trkpt lat="44.90635" lon="0.85847">
        <ele>116.2</ele>
        <time>1970-01-01T03:06:39.000Z</time>
      </trkpt>
      <trkpt lat="44.90629" lon="0.85847">
        <ele>116</ele>
        <time>1970-01-01T03:06:40.000Z</time>
      </trkpt>
      <trkpt lat="44.90623" lon="0.85847">
        <ele>115.8</ele>
        <time>1970-01-01T03:06:41.000Z</time>
      </trkpt>
      <trkpt lat="44.90617" lon="0.85847">
        <ele>115.7</ele>
        <time>1970-01-01T03:06:42.000Z</time>
      </trkpt>
      <trkpt lat="44.90611" lon="0.85848">
        <ele>115.6</ele>
        <time>1970-01-01T03:06:43.000Z</time>
      </trkpt>
      <trkpt lat="44.90606" lon="0.8585">
        <ele>115.4</ele>
        <time>1970-01-01T03:06:44.000Z</time>
      </trkpt>
      <trkpt lat="44.906" lon="0.85851">
        <ele>115.3</ele>
        <time>1970-01-01T03:06:45.000Z</time>
      </trkpt>
      <trkpt lat="44.90595" lon="0.85853">
        <ele>115.2</ele>
        <time>1970-01-01T03:06:46.000Z</time>
      </trkpt>
      <trkpt lat="44.90589" lon="0.85854">
        <ele>115.1</ele>
        <time>1970-01-01T03:06:47.000Z</time>
      </trkpt>
      <trkpt lat="44.90584" lon="0.85854">
        <ele>114.9</ele>
        <time>1970-01-01T03:06:48.000Z</time>
      </trkpt>
      <trkpt lat="44.90578" lon="0.85855">
        <ele>114.7</ele>
        <time>1970-01-01T03:06:49.000Z</time>
      </trkpt>
      <trkpt lat="44.90573" lon="0.85857">
        <ele>114.5</ele>
        <time>1970-01-01T03:06:50.000Z</time>
      </trkpt>
      <trkpt lat="44.90567" lon="0.8586">
        <ele>114.2</ele>
        <time>1970-01-01T03:06:51.000Z</time>
      </trkpt>
      <trkpt lat="44.90562" lon="0.85862">
        <ele>113.8</ele>
        <time>1970-01-01T03:06:52.000Z</time>
      </trkpt>
      <trkpt lat="44.90557" lon="0.85864">
        <ele>113.4</ele>
        <time>1970-01-01T03:06:53.000Z</time>
      </trkpt>
      <trkpt lat="44.90551" lon="0.85865">
        <ele>113</ele>
        <time>1970-01-01T03:06:54.000Z</time>
      </trkpt>
      <trkpt lat="44.90545" lon="0.85862">
        <ele>112.7</ele>
        <time>1970-01-01T03:06:55.000Z</time>
      </trkpt>
      <trkpt lat="44.9054" lon="0.85858">
        <ele>113.1</ele>
        <time>1970-01-01T03:06:56.000Z</time>
      </trkpt>
      <trkpt lat="44.90536" lon="0.85854">
        <ele>113.6</ele>
        <time>1970-01-01T03:06:57.000Z</time>
      </trkpt>
      <trkpt lat="44.90533" lon="0.85849">
        <ele>113.9</ele>
        <time>1970-01-01T03:06:58.000Z</time>
      </trkpt>
      <trkpt lat="44.9053" lon="0.85846">
        <ele>114.3</ele>
        <time>1970-01-01T03:06:59.000Z</time>
      </trkpt>
      <trkpt lat="44.90527" lon="0.85843">
        <ele>114.5</ele>
        <time>1970-01-01T03:07:00.000Z</time>
      </trkpt>
      <trkpt lat="44.90524" lon="0.85841">
        <ele>114.8</ele>
        <time>1970-01-01T03:07:01.000Z</time>
      </trkpt>
      <trkpt lat="44.9052" lon="0.85839">
        <ele>115.2</ele>
        <time>1970-01-01T03:07:02.000Z</time>
      </trkpt>
      <trkpt lat="44.90517" lon="0.85836">
        <ele>115.5</ele>
        <time>1970-01-01T03:07:03.000Z</time>
      </trkpt>
      <trkpt lat="44.90514" lon="0.85833">
        <ele>116</ele>
        <time>1970-01-01T03:07:04.000Z</time>
      </trkpt>
      <trkpt lat="44.90512" lon="0.85828">
        <ele>116.4</ele>
        <time>1970-01-01T03:07:05.000Z</time>
      </trkpt>
      <trkpt lat="44.90511" lon="0.85823">
        <ele>116.8</ele>
        <time>1970-01-01T03:07:06.000Z</time>
      </trkpt>
      <trkpt lat="44.9051" lon="0.85818">
        <ele>117.2</ele>
        <time>1970-01-01T03:07:07.000Z</time>
      </trkpt>
      <trkpt lat="44.90509" lon="0.85813">
        <ele>117.6</ele>
        <time>1970-01-01T03:07:08.000Z</time>
      </trkpt>
      <trkpt lat="44.90508" lon="0.8581">
        <ele>118</ele>
        <time>1970-01-01T03:07:09.000Z</time>
      </trkpt>
      <trkpt lat="44.90506" lon="0.85806">
        <ele>118.3</ele>
        <time>1970-01-01T03:07:10.000Z</time>
      </trkpt>
      <trkpt lat="44.90504" lon="0.85803">
        <ele>118.7</ele>
        <time>1970-01-01T03:07:11.000Z</time>
      </trkpt>
      <trkpt lat="44.90501" lon="0.85801">
        <ele>119.1</ele>
        <time>1970-01-01T03:07:12.000Z</time>
      </trkpt>
      <trkpt lat="44.90499" lon="0.85798">
        <ele>119.4</ele>
        <time>1970-01-01T03:07:13.000Z</time>
      </trkpt>
      <trkpt lat="44.90496" lon="0.85795">
        <ele>119.8</ele>
        <time>1970-01-01T03:07:14.000Z</time>
      </trkpt>
      <trkpt lat="44.90494" lon="0.85792">
        <ele>120.2</ele>
        <time>1970-01-01T03:07:15.000Z</time>
      </trkpt>
      <trkpt lat="44.90493" lon="0.85788">
        <ele>120.6</ele>
        <time>1970-01-01T03:07:16.000Z</time>
      </trkpt>
      <trkpt lat="44.90492" lon="0.85784">
        <ele>121</ele>
        <time>1970-01-01T03:07:17.000Z</time>
      </trkpt>
      <trkpt lat="44.90491" lon="0.8578">
        <ele>121.4</ele>
        <time>1970-01-01T03:07:18.000Z</time>
      </trkpt>
      <trkpt lat="44.90491" lon="0.85776">
        <ele>121.8</ele>
        <time>1970-01-01T03:07:19.000Z</time>
      </trkpt>
      <trkpt lat="44.9049" lon="0.85773">
        <ele>123.5</ele>
        <time>1970-01-01T03:07:20.000Z</time>
      </trkpt>
      <trkpt lat="44.90489" lon="0.8577">
        <ele>123.8</ele>
        <time>1970-01-01T03:07:21.000Z</time>
      </trkpt>
      <trkpt lat="44.90487" lon="0.85768">
        <ele>124</ele>
        <time>1970-01-01T03:07:22.000Z</time>
      </trkpt>
      <trkpt lat="44.90485" lon="0.85766">
        <ele>124.4</ele>
        <time>1970-01-01T03:07:23.000Z</time>
      </trkpt>
      <trkpt lat="44.90482" lon="0.85766">
        <ele>124.7</ele>
        <time>1970-01-01T03:07:24.000Z</time>
      </trkpt>
      <trkpt lat="44.90479" lon="0.85765">
        <ele>125</ele>
        <time>1970-01-01T03:07:25.000Z</time>
      </trkpt>
      <trkpt lat="44.90477" lon="0.85764">
        <ele>125.2</ele>
        <time>1970-01-01T03:07:26.000Z</time>
      </trkpt>
      <trkpt lat="44.90474" lon="0.85763">
        <ele>125.5</ele>
        <time>1970-01-01T03:07:27.000Z</time>
      </trkpt>
      <trkpt lat="44.90472" lon="0.85761">
        <ele>125.7</ele>
        <time>1970-01-01T03:07:28.000Z</time>
      </trkpt>
      <trkpt lat="44.9047" lon="0.85759">
        <ele>126</ele>
        <time>1970-01-01T03:07:29.000Z</time>
      </trkpt>
      <trkpt lat="44.90467" lon="0.85757">
        <ele>126.2</ele>
        <time>1970-01-01T03:07:30.000Z</time>
      </trkpt>
      <trkpt lat="44.90465" lon="0.85755">
        <ele>126.4</ele>
        <time>1970-01-01T03:07:31.000Z</time>
      </trkpt>
      <trkpt lat="44.90463" lon="0.85753">
        <ele>126.7</ele>
        <time>1970-01-01T03:07:32.000Z</time>
      </trkpt>
      <trkpt lat="44.90461" lon="0.85751">
        <ele>126.9</ele>
        <time>1970-01-01T03:07:33.000Z</time>
      </trkpt>
      <trkpt lat="44.90458" lon="0.85749">
        <ele>127.1</ele>
        <time>1970-01-01T03:07:34.000Z</time>
      </trkpt>
      <trkpt lat="44.90456" lon="0.85747">
        <ele>127.3</ele>
        <time>1970-01-01T03:07:35.000Z</time>
      </trkpt>
      <trkpt lat="44.90454" lon="0.85744">
        <ele>127.6</ele>
        <time>1970-01-01T03:07:36.000Z</time>
      </trkpt>
      <trkpt lat="44.90451" lon="0.85742">
        <ele>127.8</ele>
        <time>1970-01-01T03:07:37.000Z</time>
      </trkpt>
      <trkpt lat="44.90449" lon="0.85739">
        <ele>128</ele>
        <time>1970-01-01T03:07:38.000Z</time>
      </trkpt>
      <trkpt lat="44.90446" lon="0.85736">
        <ele>128.3</ele>
        <time>1970-01-01T03:07:39.000Z</time>
      </trkpt>
      <trkpt lat="44.90444" lon="0.85733">
        <ele>128.5</ele>
        <time>1970-01-01T03:07:40.000Z</time>
      </trkpt>
      <trkpt lat="44.90441" lon="0.8573">
        <ele>128.7</ele>
        <time>1970-01-01T03:07:41.000Z</time>
      </trkpt>
      <trkpt lat="44.90438" lon="0.85727">
        <ele>128.9</ele>
        <time>1970-01-01T03:07:42.000Z</time>
      </trkpt>
      <trkpt lat="44.90436" lon="0.85724">
        <ele>129.1</ele>
        <time>1970-01-01T03:07:43.000Z</time>
      </trkpt>
      <trkpt lat="44.90433" lon="0.85721">
        <ele>129.4</ele>
        <time>1970-01-01T03:07:44.000Z</time>
      </trkpt>
      <trkpt lat="44.90431" lon="0.85718">
        <ele>129.6</ele>
        <time>1970-01-01T03:07:45.000Z</time>
      </trkpt>
      <trkpt lat="44.90428" lon="0.85715">
        <ele>129.8</ele>
        <time>1970-01-01T03:07:46.000Z</time>
      </trkpt>
      <trkpt lat="44.90425" lon="0.85712">
        <ele>130</ele>
        <time>1970-01-01T03:07:47.000Z</time>
      </trkpt>
      <trkpt lat="44.90422" lon="0.85709">
        <ele>130.2</ele>
        <time>1970-01-01T03:07:48.000Z</time>
      </trkpt>
      <trkpt lat="44.90419" lon="0.85707">
        <ele>130.5</ele>
        <time>1970-01-01T03:07:49.000Z</time>
      </trkpt>
      <trkpt lat="44.90416" lon="0.85705">
        <ele>130.7</ele>
        <time>1970-01-01T03:07:50.000Z</time>
      </trkpt>
      <trkpt lat="44.90412" lon="0.85703">
        <ele>131</ele>
        <time>1970-01-01T03:07:51.000Z</time>
      </trkpt>
      <trkpt lat="44.90409" lon="0.85701">
        <ele>131.2</ele>
        <time>1970-01-01T03:07:52.000Z</time>
      </trkpt>
      <trkpt lat="44.90406" lon="0.85699">
        <ele>131.5</ele>
        <time>1970-01-01T03:07:53.000Z</time>
      </trkpt>
      <trkpt lat="44.90403" lon="0.85696">
        <ele>131.8</ele>
        <time>1970-01-01T03:07:54.000Z</time>
      </trkpt>
      <trkpt lat="44.90401" lon="0.85694">
        <ele>132.2</ele>
        <time>1970-01-01T03:07:55.000Z</time>
      </trkpt>
      <trkpt lat="44.90398" lon="0.8569">
        <ele>132.5</ele>
        <time>1970-01-01T03:07:56.000Z</time>
      </trkpt>
      <trkpt lat="44.90396" lon="0.85687">
        <ele>132.8</ele>
        <time>1970-01-01T03:07:57.000Z</time>
      </trkpt>
      <trkpt lat="44.90395" lon="0.85684">
        <ele>133.2</ele>
        <time>1970-01-01T03:07:58.000Z</time>
      </trkpt>
      <trkpt lat="44.90393" lon="0.8568">
        <ele>133.5</ele>
        <time>1970-01-01T03:07:59.000Z</time>
      </trkpt>
      <trkpt lat="44.90391" lon="0.85677">
        <ele>133.9</ele>
        <time>1970-01-01T03:08:00.000Z</time>
      </trkpt>
      <trkpt lat="44.9039" lon="0.85674">
        <ele>134.1</ele>
        <time>1970-01-01T03:08:01.000Z</time>
      </trkpt>
      <trkpt lat="44.90388" lon="0.85671">
        <ele>134.4</ele>
        <time>1970-01-01T03:08:02.000Z</time>
      </trkpt>
      <trkpt lat="44.90386" lon="0.85668">
        <ele>134.6</ele>
        <time>1970-01-01T03:08:03.000Z</time>
      </trkpt>
      <trkpt lat="44.90384" lon="0.85666">
        <ele>134.8</ele>
        <time>1970-01-01T03:08:04.000Z</time>
      </trkpt>
      <trkpt lat="44.90382" lon="0.85664">
        <ele>135.1</ele>
        <time>1970-01-01T03:08:05.000Z</time>
      </trkpt>
      <trkpt lat="44.9038" lon="0.85662">
        <ele>135.2</ele>
        <time>1970-01-01T03:08:06.000Z</time>
      </trkpt>
      <trkpt lat="44.90378" lon="0.8566">
        <ele>135.2</ele>
        <time>1970-01-01T03:08:07.000Z</time>
      </trkpt>
      <trkpt lat="44.90376" lon="0.85659">
        <ele>135.2</ele>
        <time>1970-01-01T03:08:08.000Z</time>
      </trkpt>
      <trkpt lat="44.90373" lon="0.85658">
        <ele>135.2</ele>
        <time>1970-01-01T03:08:09.000Z</time>
      </trkpt>
      <trkpt lat="44.9037" lon="0.85657">
        <ele>135.2</ele>
        <time>1970-01-01T03:08:10.000Z</time>
      </trkpt>
      <trkpt lat="44.90367" lon="0.85656">
        <ele>135.2</ele>
        <time>1970-01-01T03:08:11.000Z</time>
      </trkpt>
      <trkpt lat="44.90363" lon="0.85655">
        <ele>135.1</ele>
        <time>1970-01-01T03:08:12.000Z</time>
      </trkpt>
      <trkpt lat="44.90359" lon="0.85654">
        <ele>135</ele>
        <time>1970-01-01T03:08:13.000Z</time>
      </trkpt>
      <trkpt lat="44.90355" lon="0.85652">
        <ele>134.9</ele>
        <time>1970-01-01T03:08:14.000Z</time>
      </trkpt>
      <trkpt lat="44.90351" lon="0.8565">
        <ele>134.7</ele>
        <time>1970-01-01T03:08:15.000Z</time>
      </trkpt>
      <trkpt lat="44.90347" lon="0.85648">
        <ele>134.6</ele>
        <time>1970-01-01T03:08:16.000Z</time>
      </trkpt>
      <trkpt lat="44.90342" lon="0.85645">
        <ele>134.4</ele>
        <time>1970-01-01T03:08:17.000Z</time>
      </trkpt>
      <trkpt lat="44.90337" lon="0.85643">
        <ele>134.2</ele>
        <time>1970-01-01T03:08:18.000Z</time>
      </trkpt>
      <trkpt lat="44.90333" lon="0.85641">
        <ele>134</ele>
        <time>1970-01-01T03:08:19.000Z</time>
      </trkpt>
      <trkpt lat="44.90328" lon="0.85639">
        <ele>133.8</ele>
        <time>1970-01-01T03:08:20.000Z</time>
      </trkpt>
      <trkpt lat="44.90323" lon="0.85636">
        <ele>133.6</ele>
        <time>1970-01-01T03:08:21.000Z</time>
      </trkpt>
      <trkpt lat="44.90319" lon="0.85634">
        <ele>133.3</ele>
        <time>1970-01-01T03:08:22.000Z</time>
      </trkpt>
      <trkpt lat="44.90314" lon="0.85632">
        <ele>133.1</ele>
        <time>1970-01-01T03:08:23.000Z</time>
      </trkpt>
      <trkpt lat="44.90309" lon="0.8563">
        <ele>132.8</ele>
        <time>1970-01-01T03:08:24.000Z</time>
      </trkpt>
      <trkpt lat="44.90303" lon="0.85628">
        <ele>132.5</ele>
        <time>1970-01-01T03:08:25.000Z</time>
      </trkpt>
      <trkpt lat="44.90298" lon="0.85627">
        <ele>132.1</ele>
        <time>1970-01-01T03:08:26.000Z</time>
      </trkpt>
      <trkpt lat="44.90292" lon="0.85626">
        <ele>131.9</ele>
        <time>1970-01-01T03:08:27.000Z</time>
      </trkpt>
      <trkpt lat="44.90286" lon="0.85624">
        <ele>131.6</ele>
        <time>1970-01-01T03:08:28.000Z</time>
      </trkpt>
      <trkpt lat="44.90281" lon="0.85623">
        <ele>131.3</ele>
        <time>1970-01-01T03:08:29.000Z</time>
      </trkpt>
      <trkpt lat="44.90275" lon="0.85622">
        <ele>131.1</ele>
        <time>1970-01-01T03:08:30.000Z</time>
      </trkpt>
      <trkpt lat="44.90269" lon="0.85621">
        <ele>130.8</ele>
        <time>1970-01-01T03:08:31.000Z</time>
      </trkpt>
      <trkpt lat="44.90263" lon="0.8562">
        <ele>130.7</ele>
        <time>1970-01-01T03:08:32.000Z</time>
      </trkpt>
      <trkpt lat="44.90257" lon="0.85618">
        <ele>130.5</ele>
        <time>1970-01-01T03:08:33.000Z</time>
      </trkpt>
      <trkpt lat="44.90251" lon="0.85616">
        <ele>130.5</ele>
        <time>1970-01-01T03:08:34.000Z</time>
      </trkpt>
      <trkpt lat="44.90245" lon="0.85615">
        <ele>130.5</ele>
        <time>1970-01-01T03:08:35.000Z</time>
      </trkpt>
      <trkpt lat="44.90239" lon="0.85614">
        <ele>130.6</ele>
        <time>1970-01-01T03:08:36.000Z</time>
      </trkpt>
      <trkpt lat="44.90233" lon="0.85615">
        <ele>130.7</ele>
        <time>1970-01-01T03:08:37.000Z</time>
      </trkpt>
      <trkpt lat="44.90228" lon="0.85619">
        <ele>130.9</ele>
        <time>1970-01-01T03:08:38.000Z</time>
      </trkpt>
      <trkpt lat="44.90225" lon="0.85624">
        <ele>131.1</ele>
        <time>1970-01-01T03:08:39.000Z</time>
      </trkpt>
      <trkpt lat="44.90223" lon="0.8563">
        <ele>131.5</ele>
        <time>1970-01-01T03:08:40.000Z</time>
      </trkpt>
      <trkpt lat="44.90221" lon="0.85636">
        <ele>131.7</ele>
        <time>1970-01-01T03:08:41.000Z</time>
      </trkpt>
      <trkpt lat="44.90221" lon="0.85642">
        <ele>131.9</ele>
        <time>1970-01-01T03:08:42.000Z</time>
      </trkpt>
      <trkpt lat="44.9022" lon="0.85648">
        <ele>132.1</ele>
        <time>1970-01-01T03:08:43.000Z</time>
      </trkpt>
      <trkpt lat="44.9022" lon="0.85655">
        <ele>132.2</ele>
        <time>1970-01-01T03:08:44.000Z</time>
      </trkpt>
      <trkpt lat="44.9022" lon="0.85661">
        <ele>132.4</ele>
        <time>1970-01-01T03:08:45.000Z</time>
      </trkpt>
      <trkpt lat="44.90221" lon="0.85668">
        <ele>132.5</ele>
        <time>1970-01-01T03:08:46.000Z</time>
      </trkpt>
      <trkpt lat="44.90222" lon="0.85674">
        <ele>132.7</ele>
        <time>1970-01-01T03:08:47.000Z</time>
      </trkpt>
      <trkpt lat="44.90223" lon="0.8568">
        <ele>133</ele>
        <time>1970-01-01T03:08:48.000Z</time>
      </trkpt>
      <trkpt lat="44.90222" lon="0.85685">
        <ele>133</ele>
        <time>1970-01-01T03:08:49.000Z</time>
      </trkpt>
      <trkpt lat="44.90218" lon="0.85688">
        <ele>133</ele>
        <time>1970-01-01T03:08:50.000Z</time>
      </trkpt>
      <trkpt lat="44.90214" lon="0.85689">
        <ele>133</ele>
        <time>1970-01-01T03:08:51.000Z</time>
      </trkpt>
      <trkpt lat="44.90209" lon="0.85689">
        <ele>133.1</ele>
        <time>1970-01-01T03:08:52.000Z</time>
      </trkpt>
      <trkpt lat="44.90205" lon="0.8569">
        <ele>133.1</ele>
        <time>1970-01-01T03:08:53.000Z</time>
      </trkpt>
      <trkpt lat="44.902" lon="0.85691">
        <ele>133.2</ele>
        <time>1970-01-01T03:08:54.000Z</time>
      </trkpt>
      <trkpt lat="44.90195" lon="0.85691">
        <ele>133.3</ele>
        <time>1970-01-01T03:08:55.000Z</time>
      </trkpt>
      <trkpt lat="44.9019" lon="0.85692">
        <ele>133.4</ele>
        <time>1970-01-01T03:08:56.000Z</time>
      </trkpt>
      <trkpt lat="44.90184" lon="0.85693">
        <ele>133.5</ele>
        <time>1970-01-01T03:08:57.000Z</time>
      </trkpt>
      <trkpt lat="44.90179" lon="0.85694">
        <ele>133.6</ele>
        <time>1970-01-01T03:08:58.000Z</time>
      </trkpt>
      <trkpt lat="44.90174" lon="0.85695">
        <ele>133.7</ele>
        <time>1970-01-01T03:08:59.000Z</time>
      </trkpt>
      <trkpt lat="44.90169" lon="0.85696">
        <ele>133.8</ele>
        <time>1970-01-01T03:09:00.000Z</time>
      </trkpt>
      <trkpt lat="44.90164" lon="0.85697">
        <ele>133.9</ele>
        <time>1970-01-01T03:09:01.000Z</time>
      </trkpt>
      <trkpt lat="44.90159" lon="0.85698">
        <ele>133.9</ele>
        <time>1970-01-01T03:09:02.000Z</time>
      </trkpt>
      <trkpt lat="44.90154" lon="0.857">
        <ele>134</ele>
        <time>1970-01-01T03:09:03.000Z</time>
      </trkpt>
      <trkpt lat="44.9015" lon="0.85702">
        <ele>134</ele>
        <time>1970-01-01T03:09:04.000Z</time>
      </trkpt>
      <trkpt lat="44.90145" lon="0.85704">
        <ele>134</ele>
        <time>1970-01-01T03:09:05.000Z</time>
      </trkpt>
      <trkpt lat="44.90141" lon="0.85705">
        <ele>133.9</ele>
        <time>1970-01-01T03:09:06.000Z</time>
      </trkpt>
      <trkpt lat="44.90136" lon="0.85707">
        <ele>133.9</ele>
        <time>1970-01-01T03:09:07.000Z</time>
      </trkpt>
      <trkpt lat="44.90132" lon="0.85708">
        <ele>133.9</ele>
        <time>1970-01-01T03:09:08.000Z</time>
      </trkpt>
      <trkpt lat="44.90127" lon="0.85709">
        <ele>133.8</ele>
        <time>1970-01-01T03:09:09.000Z</time>
      </trkpt>
      <trkpt lat="44.90123" lon="0.8571">
        <ele>133.7</ele>
        <time>1970-01-01T03:09:10.000Z</time>
      </trkpt>
      <trkpt lat="44.90119" lon="0.8571">
        <ele>133.7</ele>
        <time>1970-01-01T03:09:11.000Z</time>
      </trkpt>
      <trkpt lat="44.90114" lon="0.8571">
        <ele>133.6</ele>
        <time>1970-01-01T03:09:12.000Z</time>
      </trkpt>
      <trkpt lat="44.9011" lon="0.85711">
        <ele>133.5</ele>
        <time>1970-01-01T03:09:13.000Z</time>
      </trkpt>
      <trkpt lat="44.90106" lon="0.85711">
        <ele>133.4</ele>
        <time>1970-01-01T03:09:14.000Z</time>
      </trkpt>
      <trkpt lat="44.90101" lon="0.85711">
        <ele>133.4</ele>
        <time>1970-01-01T03:09:15.000Z</time>
      </trkpt>
      <trkpt lat="44.90098" lon="0.8571">
        <ele>133.3</ele>
        <time>1970-01-01T03:09:16.000Z</time>
      </trkpt>
      <trkpt lat="44.90094" lon="0.85708">
        <ele>133.2</ele>
        <time>1970-01-01T03:09:17.000Z</time>
      </trkpt>
      <trkpt lat="44.90092" lon="0.85706">
        <ele>133.2</ele>
        <time>1970-01-01T03:09:18.000Z</time>
      </trkpt>
      <trkpt lat="44.9009" lon="0.85704">
        <ele>133.1</ele>
        <time>1970-01-01T03:09:19.000Z</time>
      </trkpt>
      <trkpt lat="44.90088" lon="0.85702">
        <ele>133.1</ele>
        <time>1970-01-01T03:09:20.000Z</time>
      </trkpt>
      <trkpt lat="44.90085" lon="0.85701">
        <ele>133</ele>
        <time>1970-01-01T03:09:21.000Z</time>
      </trkpt>
      <trkpt lat="44.90083" lon="0.85699">
        <ele>133</ele>
        <time>1970-01-01T03:09:22.000Z</time>
      </trkpt>
      <trkpt lat="44.90081" lon="0.85698">
        <ele>132.9</ele>
        <time>1970-01-01T03:09:23.000Z</time>
      </trkpt>
      <trkpt lat="44.90078" lon="0.85697">
        <ele>132.9</ele>
        <time>1970-01-01T03:09:24.000Z</time>
      </trkpt>
      <trkpt lat="44.90075" lon="0.85697">
        <ele>132.8</ele>
        <time>1970-01-01T03:09:25.000Z</time>
      </trkpt>
      <trkpt lat="44.90073" lon="0.85697">
        <ele>132.8</ele>
        <time>1970-01-01T03:09:26.000Z</time>
      </trkpt>
      <trkpt lat="44.90071" lon="0.85697">
        <ele>132.7</ele>
        <time>1970-01-01T03:09:27.000Z</time>
      </trkpt>
      <trkpt lat="44.90069" lon="0.85697">
        <ele>132.7</ele>
        <time>1970-01-01T03:09:28.000Z</time>
      </trkpt>
      <trkpt lat="44.90067" lon="0.85696">
        <ele>132.6</ele>
        <time>1970-01-01T03:09:29.000Z</time>
      </trkpt>
      <trkpt lat="44.90067" lon="0.85696">
        <ele>132.6</ele>
        <time>1970-01-01T03:09:30.000Z</time>
      </trkpt>
      <trkpt lat="44.90066" lon="0.85696">
        <ele>132.6</ele>
        <time>1970-01-01T03:09:31.000Z</time>
      </trkpt>
      <trkpt lat="44.90067" lon="0.85696">
        <ele>132.6</ele>
        <time>1970-01-01T03:09:32.000Z</time>
      </trkpt>
      <trkpt lat="44.90067" lon="0.85696">
        <ele>132.6</ele>
        <time>1970-01-01T03:09:33.000Z</time>
      </trkpt>
      <trkpt lat="44.90066" lon="0.85697">
        <ele>132.6</ele>
        <time>1970-01-01T03:09:34.000Z</time>
      </trkpt>
      <trkpt lat="44.90066" lon="0.85697">
        <ele>132.6</ele>
        <time>1970-01-01T03:09:35.000Z</time>
      </trkpt>
      <trkpt lat="44.90066" lon="0.85697">
        <ele>132.6</ele>
        <time>1970-01-01T03:09:36.000Z</time>
      </trkpt>
      <trkpt lat="44.90066" lon="0.85697">
        <ele>132.6</ele>
        <time>1970-01-01T03:09:37.000Z</time>
      </trkpt>
      <trkpt lat="44.90066" lon="0.85697">
        <ele>132.6</ele>
        <time>1970-01-01T03:09:38.000Z</time>
      </trkpt>
      <trkpt lat="44.90066" lon="0.85697">
        <ele>132.6</ele>
        <time>1970-01-01T03:09:39.000Z</time>
      </trkpt>
      <trkpt lat="44.90066" lon="0.85697">
        <ele>132.6</ele>
        <time>1970-01-01T03:09:40.000Z</time>
      </trkpt>
    </trkseg>
  </trk>
</gpx>